<?xml version="1.0" encoding="UTF-8" standalone="no" ?>
<gpx xmlns="http://www.topografix.com/GPX/1/1" xmlns:xsi="http://www.w3.org/2001/XMLSchema-instance" xsi:schemaLocation="http://www.topografix.com/GPX/1/1 http://www.topografix.com/GPX/1/1/gpx.xsd" version="1.1" creator="VisuGPX - https://www.visugpx.com">
  <metadata>
    <name>VILLARD BAYROL MASSOIN</name>
    <desc><![CDATA[Une des top ten quasi tout sur des singles
paysages époustouflants
singles techniques avec des passages exposés notamment tronçon Bayrol Massoin
final Massoin Villard grandiose...
quelques portages comme la remontée de Massoin env 30mn
tout ce qu'on aime !]]></desc>
  </metadata>
  <trk>
    <name><![CDATA[20190216211323-TuqTa]]></name>
    <trkseg>
      <trkpt lat="43.93798" lon="7.09633">
        <ele>446.39999389648</ele>
        <time>2019-02-16T08:54:46.000Z</time>
      </trkpt>
      <trkpt lat="43.93798" lon="7.09633">
        <ele>446.39999389648</ele>
        <time>2019-02-16T08:54:55.000Z</time>
      </trkpt>
      <trkpt lat="43.93798" lon="7.09633">
        <ele>445.79998779297</ele>
        <time>2019-02-16T08:55:06.000Z</time>
      </trkpt>
      <trkpt lat="43.93798" lon="7.09633">
        <ele>446</ele>
        <time>2019-02-16T08:55:15.000Z</time>
      </trkpt>
      <trkpt lat="43.93798" lon="7.09633">
        <ele>446.20001220703</ele>
        <time>2019-02-16T08:55:23.000Z</time>
      </trkpt>
      <trkpt lat="43.93798" lon="7.09633">
        <ele>446.20001220703</ele>
        <time>2019-02-16T08:55:34.000Z</time>
      </trkpt>
      <trkpt lat="43.93798" lon="7.09635">
        <ele>446</ele>
        <time>2019-02-16T08:55:42.000Z</time>
      </trkpt>
      <trkpt lat="43.93798" lon="7.09636">
        <ele>445.79998779297</ele>
        <time>2019-02-16T08:55:48.000Z</time>
      </trkpt>
      <trkpt lat="43.93796" lon="7.09646">
        <ele>446</ele>
        <time>2019-02-16T08:55:53.000Z</time>
      </trkpt>
      <trkpt lat="43.93794" lon="7.09654">
        <ele>445.60000610352</ele>
        <time>2019-02-16T08:55:56.000Z</time>
      </trkpt>
      <trkpt lat="43.93793" lon="7.09657">
        <ele>445.60000610352</ele>
        <time>2019-02-16T08:55:57.000Z</time>
      </trkpt>
      <trkpt lat="43.9379" lon="7.09669">
        <ele>445.39999389648</ele>
        <time>2019-02-16T08:56:00.000Z</time>
      </trkpt>
      <trkpt lat="43.93787" lon="7.09682">
        <ele>445</ele>
        <time>2019-02-16T08:56:03.000Z</time>
      </trkpt>
      <trkpt lat="43.93781" lon="7.09697">
        <ele>444.60000610352</ele>
        <time>2019-02-16T08:56:09.000Z</time>
      </trkpt>
      <trkpt lat="43.93782" lon="7.09696">
        <ele>444.60000610352</ele>
        <time>2019-02-16T08:56:14.000Z</time>
      </trkpt>
      <trkpt lat="43.93785" lon="7.09699">
        <ele>445.60000610352</ele>
        <time>2019-02-16T08:56:19.000Z</time>
      </trkpt>
      <trkpt lat="43.93787" lon="7.09702">
        <ele>446.60000610352</ele>
        <time>2019-02-16T08:56:24.000Z</time>
      </trkpt>
      <trkpt lat="43.93788" lon="7.09703">
        <ele>447.20001220703</ele>
        <time>2019-02-16T08:56:27.000Z</time>
      </trkpt>
      <trkpt lat="43.93789" lon="7.09705">
        <ele>447.60000610352</ele>
        <time>2019-02-16T08:56:29.000Z</time>
      </trkpt>
      <trkpt lat="43.93791" lon="7.09707">
        <ele>448.79998779297</ele>
        <time>2019-02-16T08:56:34.000Z</time>
      </trkpt>
      <trkpt lat="43.93792" lon="7.09708">
        <ele>449.39999389648</ele>
        <time>2019-02-16T08:56:36.000Z</time>
      </trkpt>
      <trkpt lat="43.93793" lon="7.09709">
        <ele>450</ele>
        <time>2019-02-16T08:56:39.000Z</time>
      </trkpt>
      <trkpt lat="43.93796" lon="7.09712">
        <ele>450.79998779297</ele>
        <time>2019-02-16T08:56:43.000Z</time>
      </trkpt>
      <trkpt lat="43.93795" lon="7.09711">
        <ele>451</ele>
        <time>2019-02-16T08:56:44.000Z</time>
      </trkpt>
      <trkpt lat="43.93797" lon="7.09714">
        <ele>452</ele>
        <time>2019-02-16T08:56:48.000Z</time>
      </trkpt>
      <trkpt lat="43.93798" lon="7.09714">
        <ele>452.20001220703</ele>
        <time>2019-02-16T08:56:49.000Z</time>
      </trkpt>
      <trkpt lat="43.93801" lon="7.09714">
        <ele>453.20001220703</ele>
        <time>2019-02-16T08:56:54.000Z</time>
      </trkpt>
      <trkpt lat="43.93801" lon="7.09714">
        <ele>453.39999389648</ele>
        <time>2019-02-16T08:56:55.000Z</time>
      </trkpt>
      <trkpt lat="43.93805" lon="7.09713">
        <ele>454.39999389648</ele>
        <time>2019-02-16T08:57:00.000Z</time>
      </trkpt>
      <trkpt lat="43.93807" lon="7.09713">
        <ele>454.60000610352</ele>
        <time>2019-02-16T08:57:02.000Z</time>
      </trkpt>
      <trkpt lat="43.9381" lon="7.09714">
        <ele>455.60000610352</ele>
        <time>2019-02-16T08:57:06.000Z</time>
      </trkpt>
      <trkpt lat="43.93812" lon="7.09715">
        <ele>456.20001220703</ele>
        <time>2019-02-16T08:57:09.000Z</time>
      </trkpt>
      <trkpt lat="43.93813" lon="7.09716">
        <ele>456.60000610352</ele>
        <time>2019-02-16T08:57:11.000Z</time>
      </trkpt>
      <trkpt lat="43.93817" lon="7.09717">
        <ele>457.60000610352</ele>
        <time>2019-02-16T08:57:16.000Z</time>
      </trkpt>
      <trkpt lat="43.93818" lon="7.09718">
        <ele>458</ele>
        <time>2019-02-16T08:57:18.000Z</time>
      </trkpt>
      <trkpt lat="43.93821" lon="7.09719">
        <ele>458.79998779297</ele>
        <time>2019-02-16T08:57:22.000Z</time>
      </trkpt>
      <trkpt lat="43.93824" lon="7.09719">
        <ele>459.79998779297</ele>
        <time>2019-02-16T08:57:26.000Z</time>
      </trkpt>
      <trkpt lat="43.93825" lon="7.09719">
        <ele>459.79998779297</ele>
        <time>2019-02-16T08:57:27.000Z</time>
      </trkpt>
      <trkpt lat="43.93828" lon="7.09721">
        <ele>461</ele>
        <time>2019-02-16T08:57:32.000Z</time>
      </trkpt>
      <trkpt lat="43.93829" lon="7.09722">
        <ele>461.39999389648</ele>
        <time>2019-02-16T08:57:34.000Z</time>
      </trkpt>
      <trkpt lat="43.9383" lon="7.09724">
        <ele>462</ele>
        <time>2019-02-16T08:57:37.000Z</time>
      </trkpt>
      <trkpt lat="43.9383" lon="7.09727">
        <ele>463</ele>
        <time>2019-02-16T08:57:41.000Z</time>
      </trkpt>
      <trkpt lat="43.9383" lon="7.09728">
        <ele>463</ele>
        <time>2019-02-16T08:57:42.000Z</time>
      </trkpt>
      <trkpt lat="43.93831" lon="7.0973">
        <ele>464.20001220703</ele>
        <time>2019-02-16T08:57:47.000Z</time>
      </trkpt>
      <trkpt lat="43.93831" lon="7.0973">
        <ele>464.39999389648</ele>
        <time>2019-02-16T08:57:48.000Z</time>
      </trkpt>
      <trkpt lat="43.93834" lon="7.09734">
        <ele>465</ele>
        <time>2019-02-16T08:57:54.000Z</time>
      </trkpt>
      <trkpt lat="43.93834" lon="7.09734">
        <ele>465.20001220703</ele>
        <time>2019-02-16T08:57:55.000Z</time>
      </trkpt>
      <trkpt lat="43.93837" lon="7.09732">
        <ele>466.20001220703</ele>
        <time>2019-02-16T08:58:01.000Z</time>
      </trkpt>
      <trkpt lat="43.93839" lon="7.09732">
        <ele>466.20001220703</ele>
        <time>2019-02-16T08:58:06.000Z</time>
      </trkpt>
      <trkpt lat="43.9384" lon="7.09732">
        <ele>466.20001220703</ele>
        <time>2019-02-16T08:58:07.000Z</time>
      </trkpt>
      <trkpt lat="43.93847" lon="7.0973">
        <ele>467.39999389648</ele>
        <time>2019-02-16T08:58:12.000Z</time>
      </trkpt>
      <trkpt lat="43.93853" lon="7.09728">
        <ele>468.39999389648</ele>
        <time>2019-02-16T08:58:16.000Z</time>
      </trkpt>
      <trkpt lat="43.93854" lon="7.09728">
        <ele>468.60000610352</ele>
        <time>2019-02-16T08:58:17.000Z</time>
      </trkpt>
      <trkpt lat="43.93856" lon="7.09729">
        <ele>468.79998779297</ele>
        <time>2019-02-16T08:58:18.000Z</time>
      </trkpt>
      <trkpt lat="43.93857" lon="7.09728">
        <ele>469</ele>
        <time>2019-02-16T08:58:19.000Z</time>
      </trkpt>
      <trkpt lat="43.9386" lon="7.09726">
        <ele>469.39999389648</ele>
        <time>2019-02-16T08:58:21.000Z</time>
      </trkpt>
      <trkpt lat="43.93863" lon="7.09724">
        <ele>469.60000610352</ele>
        <time>2019-02-16T08:58:23.000Z</time>
      </trkpt>
      <trkpt lat="43.9387" lon="7.09718">
        <ele>470.39999389648</ele>
        <time>2019-02-16T08:58:28.000Z</time>
      </trkpt>
      <trkpt lat="43.93872" lon="7.09715">
        <ele>470.79998779297</ele>
        <time>2019-02-16T08:58:30.000Z</time>
      </trkpt>
      <trkpt lat="43.93878" lon="7.09707">
        <ele>471.60000610352</ele>
        <time>2019-02-16T08:58:35.000Z</time>
      </trkpt>
      <trkpt lat="43.9388" lon="7.09704">
        <ele>471.79998779297</ele>
        <time>2019-02-16T08:58:36.000Z</time>
      </trkpt>
      <trkpt lat="43.93884" lon="7.09695">
        <ele>472.79998779297</ele>
        <time>2019-02-16T08:58:41.000Z</time>
      </trkpt>
      <trkpt lat="43.93885" lon="7.09692">
        <ele>473.60000610352</ele>
        <time>2019-02-16T08:58:43.000Z</time>
      </trkpt>
      <trkpt lat="43.93886" lon="7.09691">
        <ele>473.79998779297</ele>
        <time>2019-02-16T08:58:44.000Z</time>
      </trkpt>
      <trkpt lat="43.93886" lon="7.09692">
        <ele>475.20001220703</ele>
        <time>2019-02-16T08:58:47.000Z</time>
      </trkpt>
      <trkpt lat="43.93888" lon="7.09686">
        <ele>475.79998779297</ele>
        <time>2019-02-16T08:58:53.000Z</time>
      </trkpt>
      <trkpt lat="43.93889" lon="7.09684">
        <ele>476.20001220703</ele>
        <time>2019-02-16T08:58:55.000Z</time>
      </trkpt>
      <trkpt lat="43.93891" lon="7.09681">
        <ele>477.39999389648</ele>
        <time>2019-02-16T08:59:01.000Z</time>
      </trkpt>
      <trkpt lat="43.9389" lon="7.09676">
        <ele>477.79998779297</ele>
        <time>2019-02-16T08:59:08.000Z</time>
      </trkpt>
      <trkpt lat="43.9389" lon="7.09669">
        <ele>478.60000610352</ele>
        <time>2019-02-16T08:59:13.000Z</time>
      </trkpt>
      <trkpt lat="43.9389" lon="7.09667">
        <ele>478.79998779297</ele>
        <time>2019-02-16T08:59:14.000Z</time>
      </trkpt>
      <trkpt lat="43.9389" lon="7.09662">
        <ele>479.79998779297</ele>
        <time>2019-02-16T08:59:17.000Z</time>
      </trkpt>
      <trkpt lat="43.93889" lon="7.09654">
        <ele>480.79998779297</ele>
        <time>2019-02-16T08:59:21.000Z</time>
      </trkpt>
      <trkpt lat="43.93888" lon="7.09652">
        <ele>481</ele>
        <time>2019-02-16T08:59:22.000Z</time>
      </trkpt>
      <trkpt lat="43.93888" lon="7.09645">
        <ele>482</ele>
        <time>2019-02-16T08:59:26.000Z</time>
      </trkpt>
      <trkpt lat="43.93888" lon="7.09639">
        <ele>483</ele>
        <time>2019-02-16T08:59:29.000Z</time>
      </trkpt>
      <trkpt lat="43.93888" lon="7.09637">
        <ele>483.39999389648</ele>
        <time>2019-02-16T08:59:30.000Z</time>
      </trkpt>
      <trkpt lat="43.93889" lon="7.09633">
        <ele>484.39999389648</ele>
        <time>2019-02-16T08:59:33.000Z</time>
      </trkpt>
      <trkpt lat="43.93888" lon="7.0963">
        <ele>485</ele>
        <time>2019-02-16T08:59:35.000Z</time>
      </trkpt>
      <trkpt lat="43.93888" lon="7.09627">
        <ele>485.39999389648</ele>
        <time>2019-02-16T08:59:37.000Z</time>
      </trkpt>
      <trkpt lat="43.93888" lon="7.09618">
        <ele>486.60000610352</ele>
        <time>2019-02-16T08:59:42.000Z</time>
      </trkpt>
      <trkpt lat="43.93888" lon="7.09617">
        <ele>487</ele>
        <time>2019-02-16T08:59:43.000Z</time>
      </trkpt>
      <trkpt lat="43.93889" lon="7.09611">
        <ele>487.79998779297</ele>
        <time>2019-02-16T08:59:47.000Z</time>
      </trkpt>
      <trkpt lat="43.93891" lon="7.09604">
        <ele>489</ele>
        <time>2019-02-16T08:59:51.000Z</time>
      </trkpt>
      <trkpt lat="43.93892" lon="7.09596">
        <ele>490</ele>
        <time>2019-02-16T08:59:56.000Z</time>
      </trkpt>
      <trkpt lat="43.93893" lon="7.09593">
        <ele>490.60000610352</ele>
        <time>2019-02-16T08:59:58.000Z</time>
      </trkpt>
      <trkpt lat="43.93893" lon="7.09592">
        <ele>491</ele>
        <time>2019-02-16T08:59:59.000Z</time>
      </trkpt>
      <trkpt lat="43.93893" lon="7.09591">
        <ele>491.20001220703</ele>
        <time>2019-02-16T09:00:00.000Z</time>
      </trkpt>
      <trkpt lat="43.93894" lon="7.09591">
        <ele>492.20001220703</ele>
        <time>2019-02-16T09:00:04.000Z</time>
      </trkpt>
      <trkpt lat="43.93894" lon="7.09584">
        <ele>493.20001220703</ele>
        <time>2019-02-16T09:00:11.000Z</time>
      </trkpt>
      <trkpt lat="43.93894" lon="7.09582">
        <ele>493.60000610352</ele>
        <time>2019-02-16T09:00:13.000Z</time>
      </trkpt>
      <trkpt lat="43.93895" lon="7.09579">
        <ele>494.20001220703</ele>
        <time>2019-02-16T09:00:16.000Z</time>
      </trkpt>
      <trkpt lat="43.93895" lon="7.09575">
        <ele>495.39999389648</ele>
        <time>2019-02-16T09:00:21.000Z</time>
      </trkpt>
      <trkpt lat="43.93896" lon="7.09573">
        <ele>496</ele>
        <time>2019-02-16T09:00:24.000Z</time>
      </trkpt>
      <trkpt lat="43.93896" lon="7.0957">
        <ele>496.39999389648</ele>
        <time>2019-02-16T09:00:27.000Z</time>
      </trkpt>
      <trkpt lat="43.93897" lon="7.09566">
        <ele>497</ele>
        <time>2019-02-16T09:00:32.000Z</time>
      </trkpt>
      <trkpt lat="43.93897" lon="7.09564">
        <ele>497.39999389648</ele>
        <time>2019-02-16T09:00:34.000Z</time>
      </trkpt>
      <trkpt lat="43.93898" lon="7.0956">
        <ele>498.79998779297</ele>
        <time>2019-02-16T09:00:39.000Z</time>
      </trkpt>
      <trkpt lat="43.93899" lon="7.09558">
        <ele>499.20001220703</ele>
        <time>2019-02-16T09:00:42.000Z</time>
      </trkpt>
      <trkpt lat="43.939" lon="7.09555">
        <ele>499.79998779297</ele>
        <time>2019-02-16T09:00:46.000Z</time>
      </trkpt>
      <trkpt lat="43.93901" lon="7.09551">
        <ele>500.60000610352</ele>
        <time>2019-02-16T09:00:51.000Z</time>
      </trkpt>
      <trkpt lat="43.93901" lon="7.09549">
        <ele>501</ele>
        <time>2019-02-16T09:00:53.000Z</time>
      </trkpt>
      <trkpt lat="43.93902" lon="7.09545">
        <ele>502.20001220703</ele>
        <time>2019-02-16T09:00:58.000Z</time>
      </trkpt>
      <trkpt lat="43.93904" lon="7.09541">
        <ele>503</ele>
        <time>2019-02-16T09:01:03.000Z</time>
      </trkpt>
      <trkpt lat="43.93904" lon="7.0954">
        <ele>503.39999389648</ele>
        <time>2019-02-16T09:01:04.000Z</time>
      </trkpt>
      <trkpt lat="43.93907" lon="7.09534">
        <ele>504.60000610352</ele>
        <time>2019-02-16T09:01:12.000Z</time>
      </trkpt>
      <trkpt lat="43.93907" lon="7.09534">
        <ele>504.79998779297</ele>
        <time>2019-02-16T09:01:13.000Z</time>
      </trkpt>
      <trkpt lat="43.93908" lon="7.09529">
        <ele>505.60000610352</ele>
        <time>2019-02-16T09:01:18.000Z</time>
      </trkpt>
      <trkpt lat="43.9391" lon="7.09526">
        <ele>506.39999389648</ele>
        <time>2019-02-16T09:01:22.000Z</time>
      </trkpt>
      <trkpt lat="43.9391" lon="7.09525">
        <ele>506.79998779297</ele>
        <time>2019-02-16T09:01:25.000Z</time>
      </trkpt>
      <trkpt lat="43.9391" lon="7.09525">
        <ele>507.20001220703</ele>
        <time>2019-02-16T09:01:28.000Z</time>
      </trkpt>
      <trkpt lat="43.9391" lon="7.09524">
        <ele>507.39999389648</ele>
        <time>2019-02-16T09:01:34.000Z</time>
      </trkpt>
      <trkpt lat="43.9391" lon="7.09522">
        <ele>507</ele>
        <time>2019-02-16T09:01:41.000Z</time>
      </trkpt>
      <trkpt lat="43.93912" lon="7.09514">
        <ele>507.60000610352</ele>
        <time>2019-02-16T09:01:46.000Z</time>
      </trkpt>
      <trkpt lat="43.93913" lon="7.09512">
        <ele>508</ele>
        <time>2019-02-16T09:01:47.000Z</time>
      </trkpt>
      <trkpt lat="43.93913" lon="7.09507">
        <ele>509</ele>
        <time>2019-02-16T09:01:50.000Z</time>
      </trkpt>
      <trkpt lat="43.93914" lon="7.09505">
        <ele>509.20001220703</ele>
        <time>2019-02-16T09:01:51.000Z</time>
      </trkpt>
      <trkpt lat="43.93915" lon="7.09502">
        <ele>509.79998779297</ele>
        <time>2019-02-16T09:01:53.000Z</time>
      </trkpt>
      <trkpt lat="43.93916" lon="7.09501">
        <ele>510</ele>
        <time>2019-02-16T09:01:54.000Z</time>
      </trkpt>
      <trkpt lat="43.93917" lon="7.09495">
        <ele>510.79998779297</ele>
        <time>2019-02-16T09:01:58.000Z</time>
      </trkpt>
      <trkpt lat="43.93917" lon="7.09492">
        <ele>511</ele>
        <time>2019-02-16T09:02:00.000Z</time>
      </trkpt>
      <trkpt lat="43.93918" lon="7.09491">
        <ele>511.20001220703</ele>
        <time>2019-02-16T09:02:01.000Z</time>
      </trkpt>
      <trkpt lat="43.93921" lon="7.0948">
        <ele>511.60000610352</ele>
        <time>2019-02-16T09:02:08.000Z</time>
      </trkpt>
      <trkpt lat="43.93922" lon="7.09478">
        <ele>512</ele>
        <time>2019-02-16T09:02:10.000Z</time>
      </trkpt>
      <trkpt lat="43.93926" lon="7.09468">
        <ele>512.79998779297</ele>
        <time>2019-02-16T09:02:16.000Z</time>
      </trkpt>
      <trkpt lat="43.93928" lon="7.09464">
        <ele>513.20001220703</ele>
        <time>2019-02-16T09:02:19.000Z</time>
      </trkpt>
      <trkpt lat="43.9393" lon="7.09462">
        <ele>514</ele>
        <time>2019-02-16T09:02:23.000Z</time>
      </trkpt>
      <trkpt lat="43.93931" lon="7.09462">
        <ele>514.20001220703</ele>
        <time>2019-02-16T09:02:24.000Z</time>
      </trkpt>
      <trkpt lat="43.9393" lon="7.09462">
        <ele>514.40002441406</ele>
        <time>2019-02-16T09:02:33.000Z</time>
      </trkpt>
      <trkpt lat="43.93931" lon="7.09462">
        <ele>514.59997558594</ele>
        <time>2019-02-16T09:02:49.000Z</time>
      </trkpt>
      <trkpt lat="43.93932" lon="7.09463">
        <ele>514.59997558594</ele>
        <time>2019-02-16T09:03:13.000Z</time>
      </trkpt>
      <trkpt lat="43.93932" lon="7.09463">
        <ele>514.59997558594</ele>
        <time>2019-02-16T09:03:31.000Z</time>
      </trkpt>
      <trkpt lat="43.93931" lon="7.09463">
        <ele>514.59997558594</ele>
        <time>2019-02-16T09:03:39.000Z</time>
      </trkpt>
      <trkpt lat="43.93932" lon="7.09462">
        <ele>514.59997558594</ele>
        <time>2019-02-16T09:03:48.000Z</time>
      </trkpt>
      <trkpt lat="43.93934" lon="7.09457">
        <ele>514.59997558594</ele>
        <time>2019-02-16T09:03:53.000Z</time>
      </trkpt>
      <trkpt lat="43.93939" lon="7.0945">
        <ele>515.40002441406</ele>
        <time>2019-02-16T09:03:57.000Z</time>
      </trkpt>
      <trkpt lat="43.93941" lon="7.09445">
        <ele>516</ele>
        <time>2019-02-16T09:03:59.000Z</time>
      </trkpt>
      <trkpt lat="43.93942" lon="7.09443">
        <ele>516.59997558594</ele>
        <time>2019-02-16T09:04:00.000Z</time>
      </trkpt>
      <trkpt lat="43.93945" lon="7.09437">
        <ele>518</ele>
        <time>2019-02-16T09:04:03.000Z</time>
      </trkpt>
      <trkpt lat="43.93947" lon="7.09434">
        <ele>518.79998779297</ele>
        <time>2019-02-16T09:04:05.000Z</time>
      </trkpt>
      <trkpt lat="43.93949" lon="7.09432">
        <ele>519.20001220703</ele>
        <time>2019-02-16T09:04:06.000Z</time>
      </trkpt>
      <trkpt lat="43.93951" lon="7.09429">
        <ele>520.40002441406</ele>
        <time>2019-02-16T09:04:09.000Z</time>
      </trkpt>
      <trkpt lat="43.93953" lon="7.09426">
        <ele>521</ele>
        <time>2019-02-16T09:04:11.000Z</time>
      </trkpt>
      <trkpt lat="43.93955" lon="7.09423">
        <ele>521.59997558594</ele>
        <time>2019-02-16T09:04:13.000Z</time>
      </trkpt>
      <trkpt lat="43.93959" lon="7.09417">
        <ele>522.59997558594</ele>
        <time>2019-02-16T09:04:18.000Z</time>
      </trkpt>
      <trkpt lat="43.93963" lon="7.0941">
        <ele>523.59997558594</ele>
        <time>2019-02-16T09:04:23.000Z</time>
      </trkpt>
      <trkpt lat="43.93967" lon="7.09403">
        <ele>524.59997558594</ele>
        <time>2019-02-16T09:04:29.000Z</time>
      </trkpt>
      <trkpt lat="43.93968" lon="7.09402">
        <ele>525</ele>
        <time>2019-02-16T09:04:30.000Z</time>
      </trkpt>
      <trkpt lat="43.93971" lon="7.09398">
        <ele>526</ele>
        <time>2019-02-16T09:04:34.000Z</time>
      </trkpt>
      <trkpt lat="43.93976" lon="7.09392">
        <ele>526.79998779297</ele>
        <time>2019-02-16T09:04:38.000Z</time>
      </trkpt>
      <trkpt lat="43.93976" lon="7.09391">
        <ele>527</ele>
        <time>2019-02-16T09:04:39.000Z</time>
      </trkpt>
      <trkpt lat="43.93979" lon="7.09387">
        <ele>528</ele>
        <time>2019-02-16T09:04:42.000Z</time>
      </trkpt>
      <trkpt lat="43.93979" lon="7.09386">
        <ele>528.20001220703</ele>
        <time>2019-02-16T09:04:43.000Z</time>
      </trkpt>
      <trkpt lat="43.93982" lon="7.0938">
        <ele>529.20001220703</ele>
        <time>2019-02-16T09:04:47.000Z</time>
      </trkpt>
      <trkpt lat="43.93984" lon="7.09376">
        <ele>530</ele>
        <time>2019-02-16T09:04:50.000Z</time>
      </trkpt>
      <trkpt lat="43.93984" lon="7.09377">
        <ele>530.20001220703</ele>
        <time>2019-02-16T09:04:51.000Z</time>
      </trkpt>
      <trkpt lat="43.93985" lon="7.09373">
        <ele>531</ele>
        <time>2019-02-16T09:04:56.000Z</time>
      </trkpt>
      <trkpt lat="43.93986" lon="7.09371">
        <ele>531.20001220703</ele>
        <time>2019-02-16T09:04:58.000Z</time>
      </trkpt>
      <trkpt lat="43.93988" lon="7.09368">
        <ele>532.40002441406</ele>
        <time>2019-02-16T09:05:03.000Z</time>
      </trkpt>
      <trkpt lat="43.9399" lon="7.09366">
        <ele>532.79998779297</ele>
        <time>2019-02-16T09:05:05.000Z</time>
      </trkpt>
      <trkpt lat="43.93991" lon="7.09363">
        <ele>533.40002441406</ele>
        <time>2019-02-16T09:05:09.000Z</time>
      </trkpt>
      <trkpt lat="43.93994" lon="7.0936">
        <ele>534.20001220703</ele>
        <time>2019-02-16T09:05:14.000Z</time>
      </trkpt>
      <trkpt lat="43.93994" lon="7.09359">
        <ele>534.40002441406</ele>
        <time>2019-02-16T09:05:15.000Z</time>
      </trkpt>
      <trkpt lat="43.93997" lon="7.09355">
        <ele>535.40002441406</ele>
        <time>2019-02-16T09:05:20.000Z</time>
      </trkpt>
      <trkpt lat="43.93998" lon="7.09354">
        <ele>535.59997558594</ele>
        <time>2019-02-16T09:05:22.000Z</time>
      </trkpt>
      <trkpt lat="43.94001" lon="7.0935">
        <ele>536.59997558594</ele>
        <time>2019-02-16T09:05:27.000Z</time>
      </trkpt>
      <trkpt lat="43.94002" lon="7.09349">
        <ele>536.79998779297</ele>
        <time>2019-02-16T09:05:29.000Z</time>
      </trkpt>
      <trkpt lat="43.94007" lon="7.09342">
        <ele>537.79998779297</ele>
        <time>2019-02-16T09:05:36.000Z</time>
      </trkpt>
      <trkpt lat="43.94009" lon="7.0934">
        <ele>538.20001220703</ele>
        <time>2019-02-16T09:05:39.000Z</time>
      </trkpt>
      <trkpt lat="43.9401" lon="7.09338">
        <ele>538.79998779297</ele>
        <time>2019-02-16T09:05:42.000Z</time>
      </trkpt>
      <trkpt lat="43.94014" lon="7.09334">
        <ele>539.79998779297</ele>
        <time>2019-02-16T09:05:48.000Z</time>
      </trkpt>
      <trkpt lat="43.94014" lon="7.09333">
        <ele>539.79998779297</ele>
        <time>2019-02-16T09:05:49.000Z</time>
      </trkpt>
      <trkpt lat="43.94018" lon="7.09328">
        <ele>541</ele>
        <time>2019-02-16T09:05:56.000Z</time>
      </trkpt>
      <trkpt lat="43.94019" lon="7.09326">
        <ele>541.40002441406</ele>
        <time>2019-02-16T09:05:58.000Z</time>
      </trkpt>
      <trkpt lat="43.94021" lon="7.09324">
        <ele>542.20001220703</ele>
        <time>2019-02-16T09:06:01.000Z</time>
      </trkpt>
      <trkpt lat="43.94025" lon="7.09319">
        <ele>543.20001220703</ele>
        <time>2019-02-16T09:06:07.000Z</time>
      </trkpt>
      <trkpt lat="43.94028" lon="7.09315">
        <ele>544.20001220703</ele>
        <time>2019-02-16T09:06:13.000Z</time>
      </trkpt>
      <trkpt lat="43.94029" lon="7.09315">
        <ele>544.40002441406</ele>
        <time>2019-02-16T09:06:14.000Z</time>
      </trkpt>
      <trkpt lat="43.94032" lon="7.09312">
        <ele>545.40002441406</ele>
        <time>2019-02-16T09:06:19.000Z</time>
      </trkpt>
      <trkpt lat="43.94035" lon="7.0931">
        <ele>546.20001220703</ele>
        <time>2019-02-16T09:06:22.000Z</time>
      </trkpt>
      <trkpt lat="43.94036" lon="7.09309">
        <ele>546.59997558594</ele>
        <time>2019-02-16T09:06:24.000Z</time>
      </trkpt>
      <trkpt lat="43.94041" lon="7.09305">
        <ele>547.40002441406</ele>
        <time>2019-02-16T09:06:30.000Z</time>
      </trkpt>
      <trkpt lat="43.94042" lon="7.09304">
        <ele>547.79998779297</ele>
        <time>2019-02-16T09:06:32.000Z</time>
      </trkpt>
      <trkpt lat="43.94045" lon="7.09301">
        <ele>548.79998779297</ele>
        <time>2019-02-16T09:06:36.000Z</time>
      </trkpt>
      <trkpt lat="43.94046" lon="7.093">
        <ele>549</ele>
        <time>2019-02-16T09:06:38.000Z</time>
      </trkpt>
      <trkpt lat="43.9405" lon="7.09296">
        <ele>549.79998779297</ele>
        <time>2019-02-16T09:06:43.000Z</time>
      </trkpt>
      <trkpt lat="43.94051" lon="7.09295">
        <ele>550.59997558594</ele>
        <time>2019-02-16T09:06:47.000Z</time>
      </trkpt>
      <trkpt lat="43.94053" lon="7.09294">
        <ele>550.79998779297</ele>
        <time>2019-02-16T09:06:48.000Z</time>
      </trkpt>
      <trkpt lat="43.94054" lon="7.09294">
        <ele>551.20001220703</ele>
        <time>2019-02-16T09:06:50.000Z</time>
      </trkpt>
      <trkpt lat="43.94055" lon="7.09293">
        <ele>551.20001220703</ele>
        <time>2019-02-16T09:06:51.000Z</time>
      </trkpt>
      <trkpt lat="43.94057" lon="7.09292">
        <ele>552</ele>
        <time>2019-02-16T09:06:54.000Z</time>
      </trkpt>
      <trkpt lat="43.9406" lon="7.09288">
        <ele>553.20001220703</ele>
        <time>2019-02-16T09:06:59.000Z</time>
      </trkpt>
      <trkpt lat="43.94063" lon="7.09286">
        <ele>554.20001220703</ele>
        <time>2019-02-16T09:07:04.000Z</time>
      </trkpt>
      <trkpt lat="43.94066" lon="7.09284">
        <ele>555.20001220703</ele>
        <time>2019-02-16T09:07:08.000Z</time>
      </trkpt>
      <trkpt lat="43.94066" lon="7.09284">
        <ele>555.20001220703</ele>
        <time>2019-02-16T09:07:09.000Z</time>
      </trkpt>
      <trkpt lat="43.94072" lon="7.09279">
        <ele>556.20001220703</ele>
        <time>2019-02-16T09:07:17.000Z</time>
      </trkpt>
      <trkpt lat="43.94076" lon="7.09274">
        <ele>557.40002441406</ele>
        <time>2019-02-16T09:07:24.000Z</time>
      </trkpt>
      <trkpt lat="43.9408" lon="7.09271">
        <ele>558.40002441406</ele>
        <time>2019-02-16T09:07:31.000Z</time>
      </trkpt>
      <trkpt lat="43.94081" lon="7.09271">
        <ele>558.40002441406</ele>
        <time>2019-02-16T09:07:32.000Z</time>
      </trkpt>
      <trkpt lat="43.94084" lon="7.09269">
        <ele>559.59997558594</ele>
        <time>2019-02-16T09:07:38.000Z</time>
      </trkpt>
      <trkpt lat="43.94086" lon="7.09267">
        <ele>560</ele>
        <time>2019-02-16T09:07:40.000Z</time>
      </trkpt>
      <trkpt lat="43.94088" lon="7.09266">
        <ele>560.59997558594</ele>
        <time>2019-02-16T09:07:44.000Z</time>
      </trkpt>
      <trkpt lat="43.9409" lon="7.09264">
        <ele>561.20001220703</ele>
        <time>2019-02-16T09:07:47.000Z</time>
      </trkpt>
      <trkpt lat="43.94092" lon="7.09263">
        <ele>561.79998779297</ele>
        <time>2019-02-16T09:07:50.000Z</time>
      </trkpt>
      <trkpt lat="43.94097" lon="7.09259">
        <ele>563</ele>
        <time>2019-02-16T09:07:58.000Z</time>
      </trkpt>
      <trkpt lat="43.94101" lon="7.09255">
        <ele>564.20001220703</ele>
        <time>2019-02-16T09:08:04.000Z</time>
      </trkpt>
      <trkpt lat="43.94104" lon="7.09253">
        <ele>564.79998779297</ele>
        <time>2019-02-16T09:08:08.000Z</time>
      </trkpt>
      <trkpt lat="43.94107" lon="7.09252">
        <ele>565.40002441406</ele>
        <time>2019-02-16T09:08:12.000Z</time>
      </trkpt>
      <trkpt lat="43.94109" lon="7.0925">
        <ele>566</ele>
        <time>2019-02-16T09:08:15.000Z</time>
      </trkpt>
      <trkpt lat="43.94112" lon="7.09248">
        <ele>566.59997558594</ele>
        <time>2019-02-16T09:08:20.000Z</time>
      </trkpt>
      <trkpt lat="43.94113" lon="7.09248">
        <ele>567.40002441406</ele>
        <time>2019-02-16T09:08:23.000Z</time>
      </trkpt>
      <trkpt lat="43.94113" lon="7.09248">
        <ele>567.79998779297</ele>
        <time>2019-02-16T09:08:25.000Z</time>
      </trkpt>
      <trkpt lat="43.94116" lon="7.09245">
        <ele>568</ele>
        <time>2019-02-16T09:08:30.000Z</time>
      </trkpt>
      <trkpt lat="43.94122" lon="7.09242">
        <ele>569</ele>
        <time>2019-02-16T09:08:37.000Z</time>
      </trkpt>
      <trkpt lat="43.94123" lon="7.09241">
        <ele>569.20001220703</ele>
        <time>2019-02-16T09:08:38.000Z</time>
      </trkpt>
      <trkpt lat="43.94127" lon="7.09238">
        <ele>570</ele>
        <time>2019-02-16T09:08:44.000Z</time>
      </trkpt>
      <trkpt lat="43.94128" lon="7.09236">
        <ele>570.40002441406</ele>
        <time>2019-02-16T09:08:47.000Z</time>
      </trkpt>
      <trkpt lat="43.9413" lon="7.09234">
        <ele>571</ele>
        <time>2019-02-16T09:08:51.000Z</time>
      </trkpt>
      <trkpt lat="43.9413" lon="7.09233">
        <ele>571.40002441406</ele>
        <time>2019-02-16T09:08:52.000Z</time>
      </trkpt>
      <trkpt lat="43.94133" lon="7.0923">
        <ele>572.20001220703</ele>
        <time>2019-02-16T09:08:57.000Z</time>
      </trkpt>
      <trkpt lat="43.94136" lon="7.09227">
        <ele>572.79998779297</ele>
        <time>2019-02-16T09:09:01.000Z</time>
      </trkpt>
      <trkpt lat="43.94137" lon="7.09226">
        <ele>573.20001220703</ele>
        <time>2019-02-16T09:09:03.000Z</time>
      </trkpt>
      <trkpt lat="43.94142" lon="7.09221">
        <ele>574.40002441406</ele>
        <time>2019-02-16T09:09:10.000Z</time>
      </trkpt>
      <trkpt lat="43.94148" lon="7.09216">
        <ele>575.40002441406</ele>
        <time>2019-02-16T09:09:17.000Z</time>
      </trkpt>
      <trkpt lat="43.94149" lon="7.09215">
        <ele>575.79998779297</ele>
        <time>2019-02-16T09:09:19.000Z</time>
      </trkpt>
      <trkpt lat="43.94151" lon="7.09213">
        <ele>576.40002441406</ele>
        <time>2019-02-16T09:09:22.000Z</time>
      </trkpt>
      <trkpt lat="43.94156" lon="7.0921">
        <ele>577.59997558594</ele>
        <time>2019-02-16T09:09:29.000Z</time>
      </trkpt>
      <trkpt lat="43.94156" lon="7.0921">
        <ele>578</ele>
        <time>2019-02-16T09:09:30.000Z</time>
      </trkpt>
      <trkpt lat="43.94158" lon="7.09208">
        <ele>578.59997558594</ele>
        <time>2019-02-16T09:09:33.000Z</time>
      </trkpt>
      <trkpt lat="43.94162" lon="7.09207">
        <ele>579.59997558594</ele>
        <time>2019-02-16T09:09:38.000Z</time>
      </trkpt>
      <trkpt lat="43.94163" lon="7.09206">
        <ele>579.79998779297</ele>
        <time>2019-02-16T09:09:39.000Z</time>
      </trkpt>
      <trkpt lat="43.94166" lon="7.09205">
        <ele>580.79998779297</ele>
        <time>2019-02-16T09:09:43.000Z</time>
      </trkpt>
      <trkpt lat="43.94168" lon="7.09204">
        <ele>581.59997558594</ele>
        <time>2019-02-16T09:09:47.000Z</time>
      </trkpt>
      <trkpt lat="43.9417" lon="7.09203">
        <ele>582</ele>
        <time>2019-02-16T09:09:49.000Z</time>
      </trkpt>
      <trkpt lat="43.94174" lon="7.09201">
        <ele>583</ele>
        <time>2019-02-16T09:09:54.000Z</time>
      </trkpt>
      <trkpt lat="43.94176" lon="7.09199">
        <ele>584</ele>
        <time>2019-02-16T09:10:01.000Z</time>
      </trkpt>
      <trkpt lat="43.94177" lon="7.092">
        <ele>584.59997558594</ele>
        <time>2019-02-16T09:10:08.000Z</time>
      </trkpt>
      <trkpt lat="43.94178" lon="7.09198">
        <ele>584.79998779297</ele>
        <time>2019-02-16T09:10:10.000Z</time>
      </trkpt>
      <trkpt lat="43.94181" lon="7.09196">
        <ele>585</ele>
        <time>2019-02-16T09:10:14.000Z</time>
      </trkpt>
      <trkpt lat="43.94182" lon="7.09196">
        <ele>585.20001220703</ele>
        <time>2019-02-16T09:10:16.000Z</time>
      </trkpt>
      <trkpt lat="43.94182" lon="7.09196">
        <ele>585.59997558594</ele>
        <time>2019-02-16T09:10:19.000Z</time>
      </trkpt>
      <trkpt lat="43.94189" lon="7.09193">
        <ele>586</ele>
        <time>2019-02-16T09:10:25.000Z</time>
      </trkpt>
      <trkpt lat="43.94191" lon="7.09193">
        <ele>586.20001220703</ele>
        <time>2019-02-16T09:10:26.000Z</time>
      </trkpt>
      <trkpt lat="43.94199" lon="7.09188">
        <ele>587.40002441406</ele>
        <time>2019-02-16T09:10:31.000Z</time>
      </trkpt>
      <trkpt lat="43.94204" lon="7.09183">
        <ele>588.59997558594</ele>
        <time>2019-02-16T09:10:34.000Z</time>
      </trkpt>
      <trkpt lat="43.94204" lon="7.09183">
        <ele>588.79998779297</ele>
        <time>2019-02-16T09:10:35.000Z</time>
      </trkpt>
      <trkpt lat="43.94206" lon="7.0918">
        <ele>589.79998779297</ele>
        <time>2019-02-16T09:10:37.000Z</time>
      </trkpt>
      <trkpt lat="43.94208" lon="7.09176">
        <ele>590.40002441406</ele>
        <time>2019-02-16T09:10:39.000Z</time>
      </trkpt>
      <trkpt lat="43.94208" lon="7.09174">
        <ele>590.79998779297</ele>
        <time>2019-02-16T09:10:40.000Z</time>
      </trkpt>
      <trkpt lat="43.94208" lon="7.09171">
        <ele>591</ele>
        <time>2019-02-16T09:10:41.000Z</time>
      </trkpt>
      <trkpt lat="43.94209" lon="7.09161">
        <ele>591.79998779297</ele>
        <time>2019-02-16T09:10:45.000Z</time>
      </trkpt>
      <trkpt lat="43.94209" lon="7.09153">
        <ele>592.79998779297</ele>
        <time>2019-02-16T09:10:48.000Z</time>
      </trkpt>
      <trkpt lat="43.94209" lon="7.09147">
        <ele>594.40002441406</ele>
        <time>2019-02-16T09:10:51.000Z</time>
      </trkpt>
      <trkpt lat="43.94209" lon="7.09142">
        <ele>595.40002441406</ele>
        <time>2019-02-16T09:10:54.000Z</time>
      </trkpt>
      <trkpt lat="43.94209" lon="7.09139">
        <ele>596</ele>
        <time>2019-02-16T09:10:56.000Z</time>
      </trkpt>
      <trkpt lat="43.9421" lon="7.09134">
        <ele>596.40002441406</ele>
        <time>2019-02-16T09:10:58.000Z</time>
      </trkpt>
      <trkpt lat="43.94211" lon="7.09125">
        <ele>597.40002441406</ele>
        <time>2019-02-16T09:11:02.000Z</time>
      </trkpt>
      <trkpt lat="43.94211" lon="7.09123">
        <ele>597.59997558594</ele>
        <time>2019-02-16T09:11:03.000Z</time>
      </trkpt>
      <trkpt lat="43.94214" lon="7.09113">
        <ele>598.59997558594</ele>
        <time>2019-02-16T09:11:08.000Z</time>
      </trkpt>
      <trkpt lat="43.94217" lon="7.09106">
        <ele>600.20001220703</ele>
        <time>2019-02-16T09:11:13.000Z</time>
      </trkpt>
      <trkpt lat="43.94218" lon="7.09105">
        <ele>600.40002441406</ele>
        <time>2019-02-16T09:11:14.000Z</time>
      </trkpt>
      <trkpt lat="43.9422" lon="7.09101">
        <ele>601.20001220703</ele>
        <time>2019-02-16T09:11:17.000Z</time>
      </trkpt>
      <trkpt lat="43.9422" lon="7.09101">
        <ele>601.20001220703</ele>
        <time>2019-02-16T09:11:18.000Z</time>
      </trkpt>
      <trkpt lat="43.9422" lon="7.09101">
        <ele>602.20001220703</ele>
        <time>2019-02-16T09:11:22.000Z</time>
      </trkpt>
      <trkpt lat="43.94221" lon="7.09097">
        <ele>602.20001220703</ele>
        <time>2019-02-16T09:11:25.000Z</time>
      </trkpt>
      <trkpt lat="43.94225" lon="7.09089">
        <ele>603</ele>
        <time>2019-02-16T09:11:33.000Z</time>
      </trkpt>
      <trkpt lat="43.94225" lon="7.09088">
        <ele>603</ele>
        <time>2019-02-16T09:11:34.000Z</time>
      </trkpt>
      <trkpt lat="43.94225" lon="7.09087">
        <ele>603.20001220703</ele>
        <time>2019-02-16T09:11:35.000Z</time>
      </trkpt>
      <trkpt lat="43.94227" lon="7.09084">
        <ele>604.20001220703</ele>
        <time>2019-02-16T09:11:40.000Z</time>
      </trkpt>
      <trkpt lat="43.94229" lon="7.09083">
        <ele>604.20001220703</ele>
        <time>2019-02-16T09:11:41.000Z</time>
      </trkpt>
      <trkpt lat="43.94229" lon="7.09081">
        <ele>604.59997558594</ele>
        <time>2019-02-16T09:11:44.000Z</time>
      </trkpt>
      <trkpt lat="43.94231" lon="7.09077">
        <ele>605.40002441406</ele>
        <time>2019-02-16T09:11:48.000Z</time>
      </trkpt>
      <trkpt lat="43.94234" lon="7.09072">
        <ele>606.40002441406</ele>
        <time>2019-02-16T09:11:54.000Z</time>
      </trkpt>
      <trkpt lat="43.94237" lon="7.09065">
        <ele>607.40002441406</ele>
        <time>2019-02-16T09:12:01.000Z</time>
      </trkpt>
      <trkpt lat="43.94237" lon="7.09063">
        <ele>608</ele>
        <time>2019-02-16T09:12:04.000Z</time>
      </trkpt>
      <trkpt lat="43.9424" lon="7.09057">
        <ele>608.59997558594</ele>
        <time>2019-02-16T09:12:09.000Z</time>
      </trkpt>
      <trkpt lat="43.94242" lon="7.09053">
        <ele>609.40002441406</ele>
        <time>2019-02-16T09:12:13.000Z</time>
      </trkpt>
      <trkpt lat="43.94242" lon="7.09052">
        <ele>609.59997558594</ele>
        <time>2019-02-16T09:12:15.000Z</time>
      </trkpt>
      <trkpt lat="43.94244" lon="7.09046">
        <ele>610.59997558594</ele>
        <time>2019-02-16T09:12:21.000Z</time>
      </trkpt>
      <trkpt lat="43.94244" lon="7.09045">
        <ele>610.79998779297</ele>
        <time>2019-02-16T09:12:22.000Z</time>
      </trkpt>
      <trkpt lat="43.94246" lon="7.0904">
        <ele>612</ele>
        <time>2019-02-16T09:12:27.000Z</time>
      </trkpt>
      <trkpt lat="43.94246" lon="7.09038">
        <ele>612.40002441406</ele>
        <time>2019-02-16T09:12:29.000Z</time>
      </trkpt>
      <trkpt lat="43.94247" lon="7.09036">
        <ele>613</ele>
        <time>2019-02-16T09:12:32.000Z</time>
      </trkpt>
      <trkpt lat="43.94248" lon="7.09033">
        <ele>613.79998779297</ele>
        <time>2019-02-16T09:12:37.000Z</time>
      </trkpt>
      <trkpt lat="43.94248" lon="7.09031">
        <ele>614</ele>
        <time>2019-02-16T09:12:39.000Z</time>
      </trkpt>
      <trkpt lat="43.94249" lon="7.09029">
        <ele>614.40002441406</ele>
        <time>2019-02-16T09:12:42.000Z</time>
      </trkpt>
      <trkpt lat="43.9425" lon="7.09026">
        <ele>615.20001220703</ele>
        <time>2019-02-16T09:12:46.000Z</time>
      </trkpt>
      <trkpt lat="43.9425" lon="7.09025">
        <ele>615.79998779297</ele>
        <time>2019-02-16T09:12:49.000Z</time>
      </trkpt>
      <trkpt lat="43.94249" lon="7.09021">
        <ele>616.40002441406</ele>
        <time>2019-02-16T09:12:52.000Z</time>
      </trkpt>
      <trkpt lat="43.94251" lon="7.09019">
        <ele>617</ele>
        <time>2019-02-16T09:12:55.000Z</time>
      </trkpt>
      <trkpt lat="43.94252" lon="7.09017">
        <ele>617.59997558594</ele>
        <time>2019-02-16T09:12:58.000Z</time>
      </trkpt>
      <trkpt lat="43.94252" lon="7.09013">
        <ele>618.40002441406</ele>
        <time>2019-02-16T09:13:02.000Z</time>
      </trkpt>
      <trkpt lat="43.94253" lon="7.09012">
        <ele>618.59997558594</ele>
        <time>2019-02-16T09:13:04.000Z</time>
      </trkpt>
      <trkpt lat="43.94256" lon="7.09008">
        <ele>619.59997558594</ele>
        <time>2019-02-16T09:13:09.000Z</time>
      </trkpt>
      <trkpt lat="43.94256" lon="7.09007">
        <ele>619.79998779297</ele>
        <time>2019-02-16T09:13:11.000Z</time>
      </trkpt>
      <trkpt lat="43.94258" lon="7.09004">
        <ele>620.59997558594</ele>
        <time>2019-02-16T09:13:15.000Z</time>
      </trkpt>
      <trkpt lat="43.94259" lon="7.09002">
        <ele>621</ele>
        <time>2019-02-16T09:13:17.000Z</time>
      </trkpt>
      <trkpt lat="43.94263" lon="7.08994">
        <ele>622</ele>
        <time>2019-02-16T09:13:24.000Z</time>
      </trkpt>
      <trkpt lat="43.94266" lon="7.08988">
        <ele>623</ele>
        <time>2019-02-16T09:13:31.000Z</time>
      </trkpt>
      <trkpt lat="43.94267" lon="7.08987">
        <ele>623.40002441406</ele>
        <time>2019-02-16T09:13:33.000Z</time>
      </trkpt>
      <trkpt lat="43.94269" lon="7.08984">
        <ele>624.20001220703</ele>
        <time>2019-02-16T09:13:37.000Z</time>
      </trkpt>
      <trkpt lat="43.94271" lon="7.08983">
        <ele>625</ele>
        <time>2019-02-16T09:13:42.000Z</time>
      </trkpt>
      <trkpt lat="43.94273" lon="7.08982">
        <ele>625</ele>
        <time>2019-02-16T09:13:47.000Z</time>
      </trkpt>
      <trkpt lat="43.94274" lon="7.08981">
        <ele>625.20001220703</ele>
        <time>2019-02-16T09:13:48.000Z</time>
      </trkpt>
      <trkpt lat="43.9428" lon="7.08975">
        <ele>625.79998779297</ele>
        <time>2019-02-16T09:13:52.000Z</time>
      </trkpt>
      <trkpt lat="43.94284" lon="7.08972">
        <ele>626.40002441406</ele>
        <time>2019-02-16T09:13:55.000Z</time>
      </trkpt>
      <trkpt lat="43.9429" lon="7.08968">
        <ele>627.40002441406</ele>
        <time>2019-02-16T09:13:59.000Z</time>
      </trkpt>
      <trkpt lat="43.94298" lon="7.08962">
        <ele>628.59997558594</ele>
        <time>2019-02-16T09:14:04.000Z</time>
      </trkpt>
      <trkpt lat="43.94299" lon="7.0896">
        <ele>628.79998779297</ele>
        <time>2019-02-16T09:14:05.000Z</time>
      </trkpt>
      <trkpt lat="43.94304" lon="7.08957">
        <ele>629.59997558594</ele>
        <time>2019-02-16T09:14:08.000Z</time>
      </trkpt>
      <trkpt lat="43.94307" lon="7.08955">
        <ele>630.40002441406</ele>
        <time>2019-02-16T09:14:10.000Z</time>
      </trkpt>
      <trkpt lat="43.94308" lon="7.08954">
        <ele>631</ele>
        <time>2019-02-16T09:14:11.000Z</time>
      </trkpt>
      <trkpt lat="43.94311" lon="7.08952">
        <ele>632</ele>
        <time>2019-02-16T09:14:14.000Z</time>
      </trkpt>
      <trkpt lat="43.94312" lon="7.08951">
        <ele>632.59997558594</ele>
        <time>2019-02-16T09:14:15.000Z</time>
      </trkpt>
      <trkpt lat="43.94313" lon="7.0895">
        <ele>633.59997558594</ele>
        <time>2019-02-16T09:14:17.000Z</time>
      </trkpt>
      <trkpt lat="43.94316" lon="7.08947">
        <ele>634.59997558594</ele>
        <time>2019-02-16T09:14:20.000Z</time>
      </trkpt>
      <trkpt lat="43.94318" lon="7.08946">
        <ele>634.79998779297</ele>
        <time>2019-02-16T09:14:21.000Z</time>
      </trkpt>
      <trkpt lat="43.94321" lon="7.08943">
        <ele>636</ele>
        <time>2019-02-16T09:14:25.000Z</time>
      </trkpt>
      <trkpt lat="43.94323" lon="7.08939">
        <ele>636.79998779297</ele>
        <time>2019-02-16T09:14:28.000Z</time>
      </trkpt>
      <trkpt lat="43.94325" lon="7.08938">
        <ele>637</ele>
        <time>2019-02-16T09:14:30.000Z</time>
      </trkpt>
      <trkpt lat="43.94329" lon="7.08935">
        <ele>637.79998779297</ele>
        <time>2019-02-16T09:14:35.000Z</time>
      </trkpt>
      <trkpt lat="43.94328" lon="7.08935">
        <ele>638.20001220703</ele>
        <time>2019-02-16T09:14:37.000Z</time>
      </trkpt>
      <trkpt lat="43.94331" lon="7.08932">
        <ele>638.79998779297</ele>
        <time>2019-02-16T09:14:41.000Z</time>
      </trkpt>
      <trkpt lat="43.94333" lon="7.0893">
        <ele>639.20001220703</ele>
        <time>2019-02-16T09:14:44.000Z</time>
      </trkpt>
      <trkpt lat="43.94336" lon="7.08927">
        <ele>640.20001220703</ele>
        <time>2019-02-16T09:14:49.000Z</time>
      </trkpt>
      <trkpt lat="43.94336" lon="7.08926">
        <ele>640.40002441406</ele>
        <time>2019-02-16T09:14:50.000Z</time>
      </trkpt>
      <trkpt lat="43.94339" lon="7.08923">
        <ele>641.40002441406</ele>
        <time>2019-02-16T09:14:55.000Z</time>
      </trkpt>
      <trkpt lat="43.94341" lon="7.08921">
        <ele>642</ele>
        <time>2019-02-16T09:14:59.000Z</time>
      </trkpt>
      <trkpt lat="43.94342" lon="7.08919">
        <ele>642.40002441406</ele>
        <time>2019-02-16T09:15:02.000Z</time>
      </trkpt>
      <trkpt lat="43.94343" lon="7.08919">
        <ele>642.79998779297</ele>
        <time>2019-02-16T09:15:05.000Z</time>
      </trkpt>
      <trkpt lat="43.94345" lon="7.08917">
        <ele>643.40002441406</ele>
        <time>2019-02-16T09:15:09.000Z</time>
      </trkpt>
      <trkpt lat="43.94347" lon="7.08914">
        <ele>644.40002441406</ele>
        <time>2019-02-16T09:15:13.000Z</time>
      </trkpt>
      <trkpt lat="43.94347" lon="7.08913">
        <ele>644.59997558594</ele>
        <time>2019-02-16T09:15:14.000Z</time>
      </trkpt>
      <trkpt lat="43.9435" lon="7.0891">
        <ele>645.59997558594</ele>
        <time>2019-02-16T09:15:20.000Z</time>
      </trkpt>
      <trkpt lat="43.94351" lon="7.08909">
        <ele>645.79998779297</ele>
        <time>2019-02-16T09:15:21.000Z</time>
      </trkpt>
      <trkpt lat="43.94353" lon="7.08906">
        <ele>647</ele>
        <time>2019-02-16T09:15:26.000Z</time>
      </trkpt>
      <trkpt lat="43.94355" lon="7.08904">
        <ele>647.40002441406</ele>
        <time>2019-02-16T09:15:29.000Z</time>
      </trkpt>
      <trkpt lat="43.94357" lon="7.08902">
        <ele>648</ele>
        <time>2019-02-16T09:15:33.000Z</time>
      </trkpt>
      <trkpt lat="43.9436" lon="7.08898">
        <ele>649</ele>
        <time>2019-02-16T09:15:38.000Z</time>
      </trkpt>
      <trkpt lat="43.94361" lon="7.08896">
        <ele>649.20001220703</ele>
        <time>2019-02-16T09:15:40.000Z</time>
      </trkpt>
      <trkpt lat="43.94363" lon="7.08893">
        <ele>650</ele>
        <time>2019-02-16T09:15:45.000Z</time>
      </trkpt>
      <trkpt lat="43.94364" lon="7.08891">
        <ele>650.40002441406</ele>
        <time>2019-02-16T09:15:47.000Z</time>
      </trkpt>
      <trkpt lat="43.94366" lon="7.08893">
        <ele>650.59997558594</ele>
        <time>2019-02-16T09:15:49.000Z</time>
      </trkpt>
      <trkpt lat="43.94365" lon="7.08892">
        <ele>650.79998779297</ele>
        <time>2019-02-16T09:15:50.000Z</time>
      </trkpt>
      <trkpt lat="43.94366" lon="7.0889">
        <ele>650.79998779297</ele>
        <time>2019-02-16T09:15:56.000Z</time>
      </trkpt>
      <trkpt lat="43.94371" lon="7.08884">
        <ele>651.20001220703</ele>
        <time>2019-02-16T09:16:01.000Z</time>
      </trkpt>
      <trkpt lat="43.94372" lon="7.08883">
        <ele>651.40002441406</ele>
        <time>2019-02-16T09:16:02.000Z</time>
      </trkpt>
      <trkpt lat="43.94377" lon="7.08875">
        <ele>652.79998779297</ele>
        <time>2019-02-16T09:16:06.000Z</time>
      </trkpt>
      <trkpt lat="43.94379" lon="7.08873">
        <ele>653.59997558594</ele>
        <time>2019-02-16T09:16:08.000Z</time>
      </trkpt>
      <trkpt lat="43.9438" lon="7.08871">
        <ele>654</ele>
        <time>2019-02-16T09:16:09.000Z</time>
      </trkpt>
      <trkpt lat="43.94383" lon="7.08868">
        <ele>655</ele>
        <time>2019-02-16T09:16:12.000Z</time>
      </trkpt>
      <trkpt lat="43.94386" lon="7.08865">
        <ele>655.40002441406</ele>
        <time>2019-02-16T09:16:14.000Z</time>
      </trkpt>
      <trkpt lat="43.94387" lon="7.08863">
        <ele>656.20001220703</ele>
        <time>2019-02-16T09:16:17.000Z</time>
      </trkpt>
      <trkpt lat="43.94388" lon="7.08861">
        <ele>656.59997558594</ele>
        <time>2019-02-16T09:16:18.000Z</time>
      </trkpt>
      <trkpt lat="43.94391" lon="7.08859">
        <ele>657.20001220703</ele>
        <time>2019-02-16T09:16:20.000Z</time>
      </trkpt>
      <trkpt lat="43.94394" lon="7.08855">
        <ele>658.59997558594</ele>
        <time>2019-02-16T09:16:24.000Z</time>
      </trkpt>
      <trkpt lat="43.94395" lon="7.08854">
        <ele>659</ele>
        <time>2019-02-16T09:16:25.000Z</time>
      </trkpt>
      <trkpt lat="43.94397" lon="7.08852">
        <ele>659.79998779297</ele>
        <time>2019-02-16T09:16:28.000Z</time>
      </trkpt>
      <trkpt lat="43.944" lon="7.08849">
        <ele>660.40002441406</ele>
        <time>2019-02-16T09:16:31.000Z</time>
      </trkpt>
      <trkpt lat="43.94404" lon="7.08843">
        <ele>661</ele>
        <time>2019-02-16T09:16:35.000Z</time>
      </trkpt>
      <trkpt lat="43.94408" lon="7.08839">
        <ele>661.79998779297</ele>
        <time>2019-02-16T09:16:37.000Z</time>
      </trkpt>
      <trkpt lat="43.9441" lon="7.08838">
        <ele>662.40002441406</ele>
        <time>2019-02-16T09:16:39.000Z</time>
      </trkpt>
      <trkpt lat="43.94415" lon="7.08834">
        <ele>663.59997558594</ele>
        <time>2019-02-16T09:16:43.000Z</time>
      </trkpt>
      <trkpt lat="43.94417" lon="7.08831">
        <ele>664.79998779297</ele>
        <time>2019-02-16T09:16:47.000Z</time>
      </trkpt>
      <trkpt lat="43.94417" lon="7.0883">
        <ele>665.20001220703</ele>
        <time>2019-02-16T09:16:49.000Z</time>
      </trkpt>
      <trkpt lat="43.9442" lon="7.08826">
        <ele>665.79998779297</ele>
        <time>2019-02-16T09:16:56.000Z</time>
      </trkpt>
      <trkpt lat="43.94425" lon="7.08822">
        <ele>666.79998779297</ele>
        <time>2019-02-16T09:17:05.000Z</time>
      </trkpt>
      <trkpt lat="43.94429" lon="7.08817">
        <ele>667.79998779297</ele>
        <time>2019-02-16T09:17:12.000Z</time>
      </trkpt>
      <trkpt lat="43.94429" lon="7.08817">
        <ele>668</ele>
        <time>2019-02-16T09:17:13.000Z</time>
      </trkpt>
      <trkpt lat="43.94433" lon="7.08815">
        <ele>669.20001220703</ele>
        <time>2019-02-16T09:17:19.000Z</time>
      </trkpt>
      <trkpt lat="43.94438" lon="7.08812">
        <ele>670.20001220703</ele>
        <time>2019-02-16T09:17:26.000Z</time>
      </trkpt>
      <trkpt lat="43.94439" lon="7.08812">
        <ele>670.40002441406</ele>
        <time>2019-02-16T09:17:27.000Z</time>
      </trkpt>
      <trkpt lat="43.94443" lon="7.08811">
        <ele>671.59997558594</ele>
        <time>2019-02-16T09:17:34.000Z</time>
      </trkpt>
      <trkpt lat="43.94444" lon="7.08811">
        <ele>671.79998779297</ele>
        <time>2019-02-16T09:17:40.000Z</time>
      </trkpt>
      <trkpt lat="43.94453" lon="7.08808">
        <ele>672.59997558594</ele>
        <time>2019-02-16T09:17:47.000Z</time>
      </trkpt>
      <trkpt lat="43.94454" lon="7.08807">
        <ele>672.79998779297</ele>
        <time>2019-02-16T09:17:48.000Z</time>
      </trkpt>
      <trkpt lat="43.9446" lon="7.08804">
        <ele>673.79998779297</ele>
        <time>2019-02-16T09:17:52.000Z</time>
      </trkpt>
      <trkpt lat="43.94463" lon="7.08803">
        <ele>674.20001220703</ele>
        <time>2019-02-16T09:17:54.000Z</time>
      </trkpt>
      <trkpt lat="43.94467" lon="7.08804">
        <ele>675</ele>
        <time>2019-02-16T09:17:57.000Z</time>
      </trkpt>
      <trkpt lat="43.94473" lon="7.08806">
        <ele>675.79998779297</ele>
        <time>2019-02-16T09:18:01.000Z</time>
      </trkpt>
      <trkpt lat="43.94475" lon="7.08806">
        <ele>676</ele>
        <time>2019-02-16T09:18:03.000Z</time>
      </trkpt>
      <trkpt lat="43.94478" lon="7.08805">
        <ele>676.20001220703</ele>
        <time>2019-02-16T09:18:07.000Z</time>
      </trkpt>
      <trkpt lat="43.94481" lon="7.08803">
        <ele>676.40002441406</ele>
        <time>2019-02-16T09:18:12.000Z</time>
      </trkpt>
      <trkpt lat="43.94486" lon="7.08802">
        <ele>676.59997558594</ele>
        <time>2019-02-16T09:18:19.000Z</time>
      </trkpt>
      <trkpt lat="43.94495" lon="7.08801">
        <ele>677</ele>
        <time>2019-02-16T09:18:24.000Z</time>
      </trkpt>
      <trkpt lat="43.94497" lon="7.08801">
        <ele>677.20001220703</ele>
        <time>2019-02-16T09:18:25.000Z</time>
      </trkpt>
      <trkpt lat="43.94511" lon="7.088">
        <ele>678.40002441406</ele>
        <time>2019-02-16T09:18:31.000Z</time>
      </trkpt>
      <trkpt lat="43.94516" lon="7.08802">
        <ele>679.40002441406</ele>
        <time>2019-02-16T09:18:34.000Z</time>
      </trkpt>
      <trkpt lat="43.94519" lon="7.08806">
        <ele>680</ele>
        <time>2019-02-16T09:18:36.000Z</time>
      </trkpt>
      <trkpt lat="43.94523" lon="7.08808">
        <ele>680.59997558594</ele>
        <time>2019-02-16T09:18:38.000Z</time>
      </trkpt>
      <trkpt lat="43.94525" lon="7.08807">
        <ele>680.79998779297</ele>
        <time>2019-02-16T09:18:39.000Z</time>
      </trkpt>
      <trkpt lat="43.94529" lon="7.08809">
        <ele>681.20001220703</ele>
        <time>2019-02-16T09:18:41.000Z</time>
      </trkpt>
      <trkpt lat="43.94534" lon="7.0881">
        <ele>681.59997558594</ele>
        <time>2019-02-16T09:18:44.000Z</time>
      </trkpt>
      <trkpt lat="43.94538" lon="7.08813">
        <ele>682</ele>
        <time>2019-02-16T09:18:46.000Z</time>
      </trkpt>
      <trkpt lat="43.94543" lon="7.08815">
        <ele>682.59997558594</ele>
        <time>2019-02-16T09:18:49.000Z</time>
      </trkpt>
      <trkpt lat="43.94547" lon="7.08815">
        <ele>683</ele>
        <time>2019-02-16T09:18:51.000Z</time>
      </trkpt>
      <trkpt lat="43.94549" lon="7.08813">
        <ele>683.20001220703</ele>
        <time>2019-02-16T09:18:52.000Z</time>
      </trkpt>
      <trkpt lat="43.94551" lon="7.08803">
        <ele>683.79998779297</ele>
        <time>2019-02-16T09:18:56.000Z</time>
      </trkpt>
      <trkpt lat="43.94552" lon="7.08801">
        <ele>684</ele>
        <time>2019-02-16T09:18:57.000Z</time>
      </trkpt>
      <trkpt lat="43.94553" lon="7.08799">
        <ele>684.20001220703</ele>
        <time>2019-02-16T09:18:58.000Z</time>
      </trkpt>
      <trkpt lat="43.94555" lon="7.08791">
        <ele>685</ele>
        <time>2019-02-16T09:19:01.000Z</time>
      </trkpt>
      <trkpt lat="43.94555" lon="7.08785">
        <ele>685.20001220703</ele>
        <time>2019-02-16T09:19:03.000Z</time>
      </trkpt>
      <trkpt lat="43.94557" lon="7.08773">
        <ele>686</ele>
        <time>2019-02-16T09:19:08.000Z</time>
      </trkpt>
      <trkpt lat="43.94559" lon="7.08769">
        <ele>686.79998779297</ele>
        <time>2019-02-16T09:19:10.000Z</time>
      </trkpt>
      <trkpt lat="43.9456" lon="7.08765">
        <ele>687.20001220703</ele>
        <time>2019-02-16T09:19:12.000Z</time>
      </trkpt>
      <trkpt lat="43.94564" lon="7.08755">
        <ele>688.20001220703</ele>
        <time>2019-02-16T09:19:17.000Z</time>
      </trkpt>
      <trkpt lat="43.94565" lon="7.08752">
        <ele>689.59997558594</ele>
        <time>2019-02-16T09:19:21.000Z</time>
      </trkpt>
      <trkpt lat="43.94565" lon="7.08753">
        <ele>689.79998779297</ele>
        <time>2019-02-16T09:19:22.000Z</time>
      </trkpt>
      <trkpt lat="43.94566" lon="7.08753">
        <ele>690.20001220703</ele>
        <time>2019-02-16T09:19:29.000Z</time>
      </trkpt>
      <trkpt lat="43.94569" lon="7.08749">
        <ele>690.20001220703</ele>
        <time>2019-02-16T09:19:39.000Z</time>
      </trkpt>
      <trkpt lat="43.94571" lon="7.08748">
        <ele>690.59997558594</ele>
        <time>2019-02-16T09:19:42.000Z</time>
      </trkpt>
      <trkpt lat="43.94573" lon="7.08747">
        <ele>691.20001220703</ele>
        <time>2019-02-16T09:19:46.000Z</time>
      </trkpt>
      <trkpt lat="43.94576" lon="7.08746">
        <ele>691.59997558594</ele>
        <time>2019-02-16T09:19:49.000Z</time>
      </trkpt>
      <trkpt lat="43.94578" lon="7.08744">
        <ele>692.20001220703</ele>
        <time>2019-02-16T09:19:53.000Z</time>
      </trkpt>
      <trkpt lat="43.94581" lon="7.08742">
        <ele>692.59997558594</ele>
        <time>2019-02-16T09:19:56.000Z</time>
      </trkpt>
      <trkpt lat="43.94586" lon="7.08741">
        <ele>693.79998779297</ele>
        <time>2019-02-16T09:20:01.000Z</time>
      </trkpt>
      <trkpt lat="43.9459" lon="7.08738">
        <ele>694.79998779297</ele>
        <time>2019-02-16T09:20:06.000Z</time>
      </trkpt>
      <trkpt lat="43.94594" lon="7.08736">
        <ele>695.40002441406</ele>
        <time>2019-02-16T09:20:10.000Z</time>
      </trkpt>
      <trkpt lat="43.94597" lon="7.08736">
        <ele>696</ele>
        <time>2019-02-16T09:20:13.000Z</time>
      </trkpt>
      <trkpt lat="43.94602" lon="7.08735">
        <ele>697.20001220703</ele>
        <time>2019-02-16T09:20:19.000Z</time>
      </trkpt>
      <trkpt lat="43.94602" lon="7.08734">
        <ele>697.40002441406</ele>
        <time>2019-02-16T09:20:20.000Z</time>
      </trkpt>
      <trkpt lat="43.94605" lon="7.08734">
        <ele>698</ele>
        <time>2019-02-16T09:20:28.000Z</time>
      </trkpt>
      <trkpt lat="43.94612" lon="7.08734">
        <ele>698.40002441406</ele>
        <time>2019-02-16T09:20:32.000Z</time>
      </trkpt>
      <trkpt lat="43.94615" lon="7.08736">
        <ele>698.79998779297</ele>
        <time>2019-02-16T09:20:34.000Z</time>
      </trkpt>
      <trkpt lat="43.9462" lon="7.08737">
        <ele>699.40002441406</ele>
        <time>2019-02-16T09:20:37.000Z</time>
      </trkpt>
      <trkpt lat="43.94624" lon="7.08737">
        <ele>699.79998779297</ele>
        <time>2019-02-16T09:20:40.000Z</time>
      </trkpt>
      <trkpt lat="43.94632" lon="7.08729">
        <ele>700</ele>
        <time>2019-02-16T09:20:46.000Z</time>
      </trkpt>
      <trkpt lat="43.94635" lon="7.0872">
        <ele>700.59997558594</ele>
        <time>2019-02-16T09:20:50.000Z</time>
      </trkpt>
      <trkpt lat="43.94637" lon="7.08716">
        <ele>700.40002441406</ele>
        <time>2019-02-16T09:20:52.000Z</time>
      </trkpt>
      <trkpt lat="43.9464" lon="7.08708">
        <ele>700.40002441406</ele>
        <time>2019-02-16T09:20:55.000Z</time>
      </trkpt>
      <trkpt lat="43.94643" lon="7.08705">
        <ele>700.40002441406</ele>
        <time>2019-02-16T09:20:57.000Z</time>
      </trkpt>
      <trkpt lat="43.94646" lon="7.08691">
        <ele>700.40002441406</ele>
        <time>2019-02-16T09:21:02.000Z</time>
      </trkpt>
      <trkpt lat="43.94652" lon="7.08683">
        <ele>701</ele>
        <time>2019-02-16T09:21:06.000Z</time>
      </trkpt>
      <trkpt lat="43.94656" lon="7.0868">
        <ele>701.20001220703</ele>
        <time>2019-02-16T09:21:09.000Z</time>
      </trkpt>
      <trkpt lat="43.94659" lon="7.08677">
        <ele>701.59997558594</ele>
        <time>2019-02-16T09:21:11.000Z</time>
      </trkpt>
      <trkpt lat="43.94666" lon="7.08679">
        <ele>702.20001220703</ele>
        <time>2019-02-16T09:21:14.000Z</time>
      </trkpt>
      <trkpt lat="43.94668" lon="7.0868">
        <ele>702.20001220703</ele>
        <time>2019-02-16T09:21:15.000Z</time>
      </trkpt>
      <trkpt lat="43.94674" lon="7.08684">
        <ele>702.40002441406</ele>
        <time>2019-02-16T09:21:18.000Z</time>
      </trkpt>
      <trkpt lat="43.94677" lon="7.08687">
        <ele>702.59997558594</ele>
        <time>2019-02-16T09:21:20.000Z</time>
      </trkpt>
      <trkpt lat="43.94683" lon="7.08691">
        <ele>702.79998779297</ele>
        <time>2019-02-16T09:21:22.000Z</time>
      </trkpt>
      <trkpt lat="43.9469" lon="7.08692">
        <ele>702.59997558594</ele>
        <time>2019-02-16T09:21:25.000Z</time>
      </trkpt>
      <trkpt lat="43.94703" lon="7.08692">
        <ele>702.40002441406</ele>
        <time>2019-02-16T09:21:31.000Z</time>
      </trkpt>
      <trkpt lat="43.94704" lon="7.0869">
        <ele>702.40002441406</ele>
        <time>2019-02-16T09:21:32.000Z</time>
      </trkpt>
      <trkpt lat="43.94709" lon="7.08681">
        <ele>703.20001220703</ele>
        <time>2019-02-16T09:21:36.000Z</time>
      </trkpt>
      <trkpt lat="43.94713" lon="7.08673">
        <ele>703.79998779297</ele>
        <time>2019-02-16T09:21:40.000Z</time>
      </trkpt>
      <trkpt lat="43.94714" lon="7.08669">
        <ele>704</ele>
        <time>2019-02-16T09:21:42.000Z</time>
      </trkpt>
      <trkpt lat="43.94721" lon="7.08654">
        <ele>704.59997558594</ele>
        <time>2019-02-16T09:21:49.000Z</time>
      </trkpt>
      <trkpt lat="43.94721" lon="7.08652">
        <ele>704.79998779297</ele>
        <time>2019-02-16T09:21:50.000Z</time>
      </trkpt>
      <trkpt lat="43.94725" lon="7.08642">
        <ele>705.79998779297</ele>
        <time>2019-02-16T09:21:55.000Z</time>
      </trkpt>
      <trkpt lat="43.94725" lon="7.0864">
        <ele>705.79998779297</ele>
        <time>2019-02-16T09:21:56.000Z</time>
      </trkpt>
      <trkpt lat="43.9473" lon="7.08628">
        <ele>706.79998779297</ele>
        <time>2019-02-16T09:22:02.000Z</time>
      </trkpt>
      <trkpt lat="43.94731" lon="7.08625">
        <ele>707</ele>
        <time>2019-02-16T09:22:03.000Z</time>
      </trkpt>
      <trkpt lat="43.94736" lon="7.08615">
        <ele>707.40002441406</ele>
        <time>2019-02-16T09:22:08.000Z</time>
      </trkpt>
      <trkpt lat="43.94743" lon="7.08603">
        <ele>707.79998779297</ele>
        <time>2019-02-16T09:22:13.000Z</time>
      </trkpt>
      <trkpt lat="43.94752" lon="7.08588">
        <ele>707.79998779297</ele>
        <time>2019-02-16T09:22:19.000Z</time>
      </trkpt>
      <trkpt lat="43.94754" lon="7.08584">
        <ele>708</ele>
        <time>2019-02-16T09:22:21.000Z</time>
      </trkpt>
      <trkpt lat="43.94762" lon="7.08576">
        <ele>708.20001220703</ele>
        <time>2019-02-16T09:22:24.000Z</time>
      </trkpt>
      <trkpt lat="43.94768" lon="7.08566">
        <ele>708.59997558594</ele>
        <time>2019-02-16T09:22:28.000Z</time>
      </trkpt>
      <trkpt lat="43.9477" lon="7.08564">
        <ele>708.59997558594</ele>
        <time>2019-02-16T09:22:29.000Z</time>
      </trkpt>
      <trkpt lat="43.94773" lon="7.0856">
        <ele>709</ele>
        <time>2019-02-16T09:22:31.000Z</time>
      </trkpt>
      <trkpt lat="43.94778" lon="7.08551">
        <ele>709.59997558594</ele>
        <time>2019-02-16T09:22:35.000Z</time>
      </trkpt>
      <trkpt lat="43.94784" lon="7.08545">
        <ele>710</ele>
        <time>2019-02-16T09:22:38.000Z</time>
      </trkpt>
      <trkpt lat="43.94792" lon="7.08538">
        <ele>711.20001220703</ele>
        <time>2019-02-16T09:22:42.000Z</time>
      </trkpt>
      <trkpt lat="43.94799" lon="7.08531">
        <ele>712.20001220703</ele>
        <time>2019-02-16T09:22:46.000Z</time>
      </trkpt>
      <trkpt lat="43.94801" lon="7.08529">
        <ele>712.40002441406</ele>
        <time>2019-02-16T09:22:47.000Z</time>
      </trkpt>
      <trkpt lat="43.94811" lon="7.08524">
        <ele>713.20001220703</ele>
        <time>2019-02-16T09:22:52.000Z</time>
      </trkpt>
      <trkpt lat="43.94815" lon="7.08523">
        <ele>713.59997558594</ele>
        <time>2019-02-16T09:22:54.000Z</time>
      </trkpt>
      <trkpt lat="43.94817" lon="7.08521">
        <ele>713.79998779297</ele>
        <time>2019-02-16T09:22:55.000Z</time>
      </trkpt>
      <trkpt lat="43.94822" lon="7.08518">
        <ele>714.40002441406</ele>
        <time>2019-02-16T09:22:58.000Z</time>
      </trkpt>
      <trkpt lat="43.94832" lon="7.08512">
        <ele>715.59997558594</ele>
        <time>2019-02-16T09:23:04.000Z</time>
      </trkpt>
      <trkpt lat="43.94839" lon="7.08509">
        <ele>716.59997558594</ele>
        <time>2019-02-16T09:23:07.000Z</time>
      </trkpt>
      <trkpt lat="43.94844" lon="7.08506">
        <ele>717.79998779297</ele>
        <time>2019-02-16T09:23:10.000Z</time>
      </trkpt>
      <trkpt lat="43.94848" lon="7.08503">
        <ele>719.40002441406</ele>
        <time>2019-02-16T09:23:13.000Z</time>
      </trkpt>
      <trkpt lat="43.9485" lon="7.08502">
        <ele>719.59997558594</ele>
        <time>2019-02-16T09:23:14.000Z</time>
      </trkpt>
      <trkpt lat="43.94857" lon="7.08496">
        <ele>720</ele>
        <time>2019-02-16T09:23:19.000Z</time>
      </trkpt>
      <trkpt lat="43.94863" lon="7.08488">
        <ele>720.40002441406</ele>
        <time>2019-02-16T09:23:23.000Z</time>
      </trkpt>
      <trkpt lat="43.94865" lon="7.08487">
        <ele>720.59997558594</ele>
        <time>2019-02-16T09:23:24.000Z</time>
      </trkpt>
      <trkpt lat="43.94872" lon="7.08481">
        <ele>721</ele>
        <time>2019-02-16T09:23:29.000Z</time>
      </trkpt>
      <trkpt lat="43.94883" lon="7.08475">
        <ele>721.20001220703</ele>
        <time>2019-02-16T09:23:33.000Z</time>
      </trkpt>
      <trkpt lat="43.94897" lon="7.0847">
        <ele>721</ele>
        <time>2019-02-16T09:23:39.000Z</time>
      </trkpt>
      <trkpt lat="43.94907" lon="7.08465">
        <ele>721.59997558594</ele>
        <time>2019-02-16T09:23:45.000Z</time>
      </trkpt>
      <trkpt lat="43.94916" lon="7.08464">
        <ele>722.40002441406</ele>
        <time>2019-02-16T09:23:51.000Z</time>
      </trkpt>
      <trkpt lat="43.94924" lon="7.08466">
        <ele>722.59997558594</ele>
        <time>2019-02-16T09:23:57.000Z</time>
      </trkpt>
      <trkpt lat="43.94927" lon="7.08467">
        <ele>722.59997558594</ele>
        <time>2019-02-16T09:23:58.000Z</time>
      </trkpt>
      <trkpt lat="43.94933" lon="7.08471">
        <ele>722.59997558594</ele>
        <time>2019-02-16T09:24:01.000Z</time>
      </trkpt>
      <trkpt lat="43.94934" lon="7.08473">
        <ele>722.40002441406</ele>
        <time>2019-02-16T09:24:02.000Z</time>
      </trkpt>
      <trkpt lat="43.94946" lon="7.08478">
        <ele>722.20001220703</ele>
        <time>2019-02-16T09:24:06.000Z</time>
      </trkpt>
      <trkpt lat="43.94956" lon="7.08482">
        <ele>722.59997558594</ele>
        <time>2019-02-16T09:24:11.000Z</time>
      </trkpt>
      <trkpt lat="43.94964" lon="7.08485">
        <ele>723</ele>
        <time>2019-02-16T09:24:15.000Z</time>
      </trkpt>
      <trkpt lat="43.94967" lon="7.0849">
        <ele>723.40002441406</ele>
        <time>2019-02-16T09:24:17.000Z</time>
      </trkpt>
      <trkpt lat="43.94975" lon="7.08491">
        <ele>723.79998779297</ele>
        <time>2019-02-16T09:24:21.000Z</time>
      </trkpt>
      <trkpt lat="43.94989" lon="7.08494">
        <ele>724.40002441406</ele>
        <time>2019-02-16T09:24:27.000Z</time>
      </trkpt>
      <trkpt lat="43.94996" lon="7.08496">
        <ele>724.79998779297</ele>
        <time>2019-02-16T09:24:30.000Z</time>
      </trkpt>
      <trkpt lat="43.95001" lon="7.08494">
        <ele>724.79998779297</ele>
        <time>2019-02-16T09:24:33.000Z</time>
      </trkpt>
      <trkpt lat="43.9501" lon="7.08486">
        <ele>725.20001220703</ele>
        <time>2019-02-16T09:24:38.000Z</time>
      </trkpt>
      <trkpt lat="43.95018" lon="7.08475">
        <ele>725.59997558594</ele>
        <time>2019-02-16T09:24:44.000Z</time>
      </trkpt>
      <trkpt lat="43.95025" lon="7.08466">
        <ele>725.79998779297</ele>
        <time>2019-02-16T09:24:48.000Z</time>
      </trkpt>
      <trkpt lat="43.95027" lon="7.08464">
        <ele>725.79998779297</ele>
        <time>2019-02-16T09:24:49.000Z</time>
      </trkpt>
      <trkpt lat="43.95028" lon="7.08464">
        <ele>726</ele>
        <time>2019-02-16T09:24:50.000Z</time>
      </trkpt>
      <trkpt lat="43.95034" lon="7.08468">
        <ele>726.20001220703</ele>
        <time>2019-02-16T09:24:53.000Z</time>
      </trkpt>
      <trkpt lat="43.95038" lon="7.08476">
        <ele>726.40002441406</ele>
        <time>2019-02-16T09:24:56.000Z</time>
      </trkpt>
      <trkpt lat="43.95044" lon="7.08486">
        <ele>726.79998779297</ele>
        <time>2019-02-16T09:25:00.000Z</time>
      </trkpt>
      <trkpt lat="43.95056" lon="7.08487">
        <ele>726.79998779297</ele>
        <time>2019-02-16T09:25:05.000Z</time>
      </trkpt>
      <trkpt lat="43.95058" lon="7.08488">
        <ele>726.79998779297</ele>
        <time>2019-02-16T09:25:06.000Z</time>
      </trkpt>
      <trkpt lat="43.95064" lon="7.08495">
        <ele>727.40002441406</ele>
        <time>2019-02-16T09:25:09.000Z</time>
      </trkpt>
      <trkpt lat="43.95066" lon="7.08497">
        <ele>727.40002441406</ele>
        <time>2019-02-16T09:25:10.000Z</time>
      </trkpt>
      <trkpt lat="43.95075" lon="7.08507">
        <ele>727.79998779297</ele>
        <time>2019-02-16T09:25:15.000Z</time>
      </trkpt>
      <trkpt lat="43.95079" lon="7.08511">
        <ele>728</ele>
        <time>2019-02-16T09:25:17.000Z</time>
      </trkpt>
      <trkpt lat="43.95089" lon="7.08522">
        <ele>728.20001220703</ele>
        <time>2019-02-16T09:25:23.000Z</time>
      </trkpt>
      <trkpt lat="43.95102" lon="7.08537">
        <ele>728.40002441406</ele>
        <time>2019-02-16T09:25:30.000Z</time>
      </trkpt>
      <trkpt lat="43.95116" lon="7.0855">
        <ele>728.79998779297</ele>
        <time>2019-02-16T09:25:37.000Z</time>
      </trkpt>
      <trkpt lat="43.95124" lon="7.08554">
        <ele>729</ele>
        <time>2019-02-16T09:25:41.000Z</time>
      </trkpt>
      <trkpt lat="43.95126" lon="7.08555">
        <ele>729</ele>
        <time>2019-02-16T09:25:42.000Z</time>
      </trkpt>
      <trkpt lat="43.95138" lon="7.08557">
        <ele>729.40002441406</ele>
        <time>2019-02-16T09:25:47.000Z</time>
      </trkpt>
      <trkpt lat="43.95151" lon="7.08559">
        <ele>729.79998779297</ele>
        <time>2019-02-16T09:25:53.000Z</time>
      </trkpt>
      <trkpt lat="43.9516" lon="7.08561">
        <ele>730</ele>
        <time>2019-02-16T09:25:56.000Z</time>
      </trkpt>
      <trkpt lat="43.95173" lon="7.08562">
        <ele>730.20001220703</ele>
        <time>2019-02-16T09:26:01.000Z</time>
      </trkpt>
      <trkpt lat="43.95193" lon="7.08564">
        <ele>730.79998779297</ele>
        <time>2019-02-16T09:26:08.000Z</time>
      </trkpt>
      <trkpt lat="43.95198" lon="7.08565">
        <ele>731.20001220703</ele>
        <time>2019-02-16T09:26:10.000Z</time>
      </trkpt>
      <trkpt lat="43.9521" lon="7.08566">
        <ele>731.40002441406</ele>
        <time>2019-02-16T09:26:14.000Z</time>
      </trkpt>
      <trkpt lat="43.95223" lon="7.08567">
        <ele>731.79998779297</ele>
        <time>2019-02-16T09:26:19.000Z</time>
      </trkpt>
      <trkpt lat="43.9523" lon="7.08567">
        <ele>732.20001220703</ele>
        <time>2019-02-16T09:26:22.000Z</time>
      </trkpt>
      <trkpt lat="43.95234" lon="7.08566">
        <ele>732.20001220703</ele>
        <time>2019-02-16T09:26:24.000Z</time>
      </trkpt>
      <trkpt lat="43.95244" lon="7.08567">
        <ele>732.40002441406</ele>
        <time>2019-02-16T09:26:28.000Z</time>
      </trkpt>
      <trkpt lat="43.95249" lon="7.08569">
        <ele>732.59997558594</ele>
        <time>2019-02-16T09:26:30.000Z</time>
      </trkpt>
      <trkpt lat="43.95253" lon="7.08579">
        <ele>733</ele>
        <time>2019-02-16T09:26:33.000Z</time>
      </trkpt>
      <trkpt lat="43.95256" lon="7.0859">
        <ele>733</ele>
        <time>2019-02-16T09:26:36.000Z</time>
      </trkpt>
      <trkpt lat="43.95257" lon="7.08597">
        <ele>733.20001220703</ele>
        <time>2019-02-16T09:26:39.000Z</time>
      </trkpt>
      <trkpt lat="43.95259" lon="7.08604">
        <ele>733.40002441406</ele>
        <time>2019-02-16T09:26:41.000Z</time>
      </trkpt>
      <trkpt lat="43.95262" lon="7.08611">
        <ele>733.59997558594</ele>
        <time>2019-02-16T09:26:43.000Z</time>
      </trkpt>
      <trkpt lat="43.95269" lon="7.08625">
        <ele>733.79998779297</ele>
        <time>2019-02-16T09:26:47.000Z</time>
      </trkpt>
      <trkpt lat="43.95279" lon="7.08652">
        <ele>734</ele>
        <time>2019-02-16T09:26:54.000Z</time>
      </trkpt>
      <trkpt lat="43.9528" lon="7.08662">
        <ele>734.40002441406</ele>
        <time>2019-02-16T09:26:57.000Z</time>
      </trkpt>
      <trkpt lat="43.95281" lon="7.08668">
        <ele>734.79998779297</ele>
        <time>2019-02-16T09:26:59.000Z</time>
      </trkpt>
      <trkpt lat="43.95283" lon="7.08674">
        <ele>735.59997558594</ele>
        <time>2019-02-16T09:27:01.000Z</time>
      </trkpt>
      <trkpt lat="43.95285" lon="7.08676">
        <ele>735.79998779297</ele>
        <time>2019-02-16T09:27:03.000Z</time>
      </trkpt>
      <trkpt lat="43.95294" lon="7.08673">
        <ele>735.79998779297</ele>
        <time>2019-02-16T09:27:06.000Z</time>
      </trkpt>
      <trkpt lat="43.95302" lon="7.08665">
        <ele>735.20001220703</ele>
        <time>2019-02-16T09:27:09.000Z</time>
      </trkpt>
      <trkpt lat="43.95306" lon="7.08661">
        <ele>735</ele>
        <time>2019-02-16T09:27:11.000Z</time>
      </trkpt>
      <trkpt lat="43.95312" lon="7.08653">
        <ele>735.59997558594</ele>
        <time>2019-02-16T09:27:16.000Z</time>
      </trkpt>
      <trkpt lat="43.95312" lon="7.08652">
        <ele>736.20001220703</ele>
        <time>2019-02-16T09:27:20.000Z</time>
      </trkpt>
      <trkpt lat="43.95315" lon="7.0865">
        <ele>736.20001220703</ele>
        <time>2019-02-16T09:27:24.000Z</time>
      </trkpt>
      <trkpt lat="43.95316" lon="7.0865">
        <ele>736.20001220703</ele>
        <time>2019-02-16T09:27:25.000Z</time>
      </trkpt>
      <trkpt lat="43.95322" lon="7.08645">
        <ele>736.40002441406</ele>
        <time>2019-02-16T09:27:31.000Z</time>
      </trkpt>
      <trkpt lat="43.95329" lon="7.08643">
        <ele>736.59997558594</ele>
        <time>2019-02-16T09:27:34.000Z</time>
      </trkpt>
      <trkpt lat="43.95333" lon="7.08641">
        <ele>736.79998779297</ele>
        <time>2019-02-16T09:27:36.000Z</time>
      </trkpt>
      <trkpt lat="43.95346" lon="7.0863">
        <ele>736.79998779297</ele>
        <time>2019-02-16T09:27:42.000Z</time>
      </trkpt>
      <trkpt lat="43.95356" lon="7.08613">
        <ele>737.20001220703</ele>
        <time>2019-02-16T09:27:47.000Z</time>
      </trkpt>
      <trkpt lat="43.95366" lon="7.086">
        <ele>737.59997558594</ele>
        <time>2019-02-16T09:27:53.000Z</time>
      </trkpt>
      <trkpt lat="43.95372" lon="7.08596">
        <ele>737.59997558594</ele>
        <time>2019-02-16T09:27:55.000Z</time>
      </trkpt>
      <trkpt lat="43.95376" lon="7.08593">
        <ele>737.79998779297</ele>
        <time>2019-02-16T09:27:57.000Z</time>
      </trkpt>
      <trkpt lat="43.95389" lon="7.08586">
        <ele>738.40002441406</ele>
        <time>2019-02-16T09:28:02.000Z</time>
      </trkpt>
      <trkpt lat="43.95398" lon="7.08584">
        <ele>738.59997558594</ele>
        <time>2019-02-16T09:28:05.000Z</time>
      </trkpt>
      <trkpt lat="43.95408" lon="7.0858">
        <ele>738.59997558594</ele>
        <time>2019-02-16T09:28:09.000Z</time>
      </trkpt>
      <trkpt lat="43.95421" lon="7.08571">
        <ele>739.20001220703</ele>
        <time>2019-02-16T09:28:15.000Z</time>
      </trkpt>
      <trkpt lat="43.95429" lon="7.0856">
        <ele>739.40002441406</ele>
        <time>2019-02-16T09:28:20.000Z</time>
      </trkpt>
      <trkpt lat="43.95433" lon="7.08559">
        <ele>739.59997558594</ele>
        <time>2019-02-16T09:28:21.000Z</time>
      </trkpt>
      <trkpt lat="43.95436" lon="7.08559">
        <ele>740</ele>
        <time>2019-02-16T09:28:22.000Z</time>
      </trkpt>
      <trkpt lat="43.95452" lon="7.08555">
        <ele>740.20001220703</ele>
        <time>2019-02-16T09:28:27.000Z</time>
      </trkpt>
      <trkpt lat="43.95472" lon="7.0855">
        <ele>740.59997558594</ele>
        <time>2019-02-16T09:28:33.000Z</time>
      </trkpt>
      <trkpt lat="43.95485" lon="7.08538">
        <ele>740.79998779297</ele>
        <time>2019-02-16T09:28:38.000Z</time>
      </trkpt>
      <trkpt lat="43.95487" lon="7.08535">
        <ele>741</ele>
        <time>2019-02-16T09:28:39.000Z</time>
      </trkpt>
      <trkpt lat="43.95494" lon="7.08522">
        <ele>741.20001220703</ele>
        <time>2019-02-16T09:28:43.000Z</time>
      </trkpt>
      <trkpt lat="43.95497" lon="7.08519">
        <ele>741.40002441406</ele>
        <time>2019-02-16T09:28:46.000Z</time>
      </trkpt>
      <trkpt lat="43.955" lon="7.08517">
        <ele>741.59997558594</ele>
        <time>2019-02-16T09:28:47.000Z</time>
      </trkpt>
      <trkpt lat="43.95506" lon="7.08513">
        <ele>742.20001220703</ele>
        <time>2019-02-16T09:28:50.000Z</time>
      </trkpt>
      <trkpt lat="43.95511" lon="7.08508">
        <ele>742.40002441406</ele>
        <time>2019-02-16T09:28:53.000Z</time>
      </trkpt>
      <trkpt lat="43.95518" lon="7.08505">
        <ele>742.20001220703</ele>
        <time>2019-02-16T09:28:58.000Z</time>
      </trkpt>
      <trkpt lat="43.95526" lon="7.08506">
        <ele>742.59997558594</ele>
        <time>2019-02-16T09:29:02.000Z</time>
      </trkpt>
      <trkpt lat="43.95528" lon="7.08504">
        <ele>742.59997558594</ele>
        <time>2019-02-16T09:29:03.000Z</time>
      </trkpt>
      <trkpt lat="43.95538" lon="7.08498">
        <ele>743</ele>
        <time>2019-02-16T09:29:07.000Z</time>
      </trkpt>
      <trkpt lat="43.9554" lon="7.08497">
        <ele>743.20001220703</ele>
        <time>2019-02-16T09:29:08.000Z</time>
      </trkpt>
      <trkpt lat="43.95541" lon="7.08495">
        <ele>743.20001220703</ele>
        <time>2019-02-16T09:29:09.000Z</time>
      </trkpt>
      <trkpt lat="43.95546" lon="7.08492">
        <ele>743.20001220703</ele>
        <time>2019-02-16T09:29:12.000Z</time>
      </trkpt>
      <trkpt lat="43.95564" lon="7.08491">
        <ele>743.79998779297</ele>
        <time>2019-02-16T09:29:18.000Z</time>
      </trkpt>
      <trkpt lat="43.95569" lon="7.0849">
        <ele>743.79998779297</ele>
        <time>2019-02-16T09:29:20.000Z</time>
      </trkpt>
      <trkpt lat="43.95575" lon="7.08486">
        <ele>743.59997558594</ele>
        <time>2019-02-16T09:29:22.000Z</time>
      </trkpt>
      <trkpt lat="43.95581" lon="7.08486">
        <ele>743.79998779297</ele>
        <time>2019-02-16T09:29:25.000Z</time>
      </trkpt>
      <trkpt lat="43.95584" lon="7.08489">
        <ele>744</ele>
        <time>2019-02-16T09:29:26.000Z</time>
      </trkpt>
      <trkpt lat="43.95587" lon="7.08497">
        <ele>744.20001220703</ele>
        <time>2019-02-16T09:29:28.000Z</time>
      </trkpt>
      <trkpt lat="43.95588" lon="7.08504">
        <ele>744.40002441406</ele>
        <time>2019-02-16T09:29:30.000Z</time>
      </trkpt>
      <trkpt lat="43.95591" lon="7.08512">
        <ele>744.79998779297</ele>
        <time>2019-02-16T09:29:32.000Z</time>
      </trkpt>
      <trkpt lat="43.9559" lon="7.08522">
        <ele>744.79998779297</ele>
        <time>2019-02-16T09:29:35.000Z</time>
      </trkpt>
      <trkpt lat="43.95588" lon="7.08532">
        <ele>745.20001220703</ele>
        <time>2019-02-16T09:29:38.000Z</time>
      </trkpt>
      <trkpt lat="43.95583" lon="7.08539">
        <ele>746</ele>
        <time>2019-02-16T09:29:41.000Z</time>
      </trkpt>
      <trkpt lat="43.95582" lon="7.08539">
        <ele>745.79998779297</ele>
        <time>2019-02-16T09:29:45.000Z</time>
      </trkpt>
      <trkpt lat="43.95583" lon="7.08539">
        <ele>746.20001220703</ele>
        <time>2019-02-16T09:29:57.000Z</time>
      </trkpt>
      <trkpt lat="43.95583" lon="7.08542">
        <ele>746.20001220703</ele>
        <time>2019-02-16T09:30:09.000Z</time>
      </trkpt>
      <trkpt lat="43.95584" lon="7.08544">
        <ele>746</ele>
        <time>2019-02-16T09:30:26.000Z</time>
      </trkpt>
      <trkpt lat="43.95584" lon="7.08545">
        <ele>746</ele>
        <time>2019-02-16T09:30:36.000Z</time>
      </trkpt>
      <trkpt lat="43.95585" lon="7.08546">
        <ele>746.20001220703</ele>
        <time>2019-02-16T09:30:43.000Z</time>
      </trkpt>
      <trkpt lat="43.95586" lon="7.08548">
        <ele>745.59997558594</ele>
        <time>2019-02-16T09:30:54.000Z</time>
      </trkpt>
      <trkpt lat="43.95588" lon="7.08549">
        <ele>745.59997558594</ele>
        <time>2019-02-16T09:30:55.000Z</time>
      </trkpt>
      <trkpt lat="43.95595" lon="7.08549">
        <ele>745.79998779297</ele>
        <time>2019-02-16T09:30:59.000Z</time>
      </trkpt>
      <trkpt lat="43.95598" lon="7.0855">
        <ele>746</ele>
        <time>2019-02-16T09:31:00.000Z</time>
      </trkpt>
      <trkpt lat="43.956" lon="7.08552">
        <ele>746.20001220703</ele>
        <time>2019-02-16T09:31:01.000Z</time>
      </trkpt>
      <trkpt lat="43.95603" lon="7.08551">
        <ele>746.40002441406</ele>
        <time>2019-02-16T09:31:02.000Z</time>
      </trkpt>
      <trkpt lat="43.95606" lon="7.08546">
        <ele>746.20001220703</ele>
        <time>2019-02-16T09:31:04.000Z</time>
      </trkpt>
      <trkpt lat="43.95621" lon="7.0853">
        <ele>746.59997558594</ele>
        <time>2019-02-16T09:31:10.000Z</time>
      </trkpt>
      <trkpt lat="43.95633" lon="7.08523">
        <ele>747.20001220703</ele>
        <time>2019-02-16T09:31:15.000Z</time>
      </trkpt>
      <trkpt lat="43.9565" lon="7.08519">
        <ele>747.20001220703</ele>
        <time>2019-02-16T09:31:21.000Z</time>
      </trkpt>
      <trkpt lat="43.95654" lon="7.08519">
        <ele>747.40002441406</ele>
        <time>2019-02-16T09:31:23.000Z</time>
      </trkpt>
      <trkpt lat="43.9566" lon="7.08513">
        <ele>747.59997558594</ele>
        <time>2019-02-16T09:31:26.000Z</time>
      </trkpt>
      <trkpt lat="43.95671" lon="7.08507">
        <ele>747.79998779297</ele>
        <time>2019-02-16T09:31:31.000Z</time>
      </trkpt>
      <trkpt lat="43.95682" lon="7.08508">
        <ele>748.40002441406</ele>
        <time>2019-02-16T09:31:35.000Z</time>
      </trkpt>
      <trkpt lat="43.95684" lon="7.08507">
        <ele>748.40002441406</ele>
        <time>2019-02-16T09:31:36.000Z</time>
      </trkpt>
      <trkpt lat="43.95698" lon="7.08506">
        <ele>748.79998779297</ele>
        <time>2019-02-16T09:31:41.000Z</time>
      </trkpt>
      <trkpt lat="43.95701" lon="7.08506">
        <ele>748.79998779297</ele>
        <time>2019-02-16T09:31:42.000Z</time>
      </trkpt>
      <trkpt lat="43.95713" lon="7.08508">
        <ele>749.20001220703</ele>
        <time>2019-02-16T09:31:47.000Z</time>
      </trkpt>
      <trkpt lat="43.95716" lon="7.08508">
        <ele>749.40002441406</ele>
        <time>2019-02-16T09:31:48.000Z</time>
      </trkpt>
      <trkpt lat="43.95724" lon="7.08503">
        <ele>749.79998779297</ele>
        <time>2019-02-16T09:31:52.000Z</time>
      </trkpt>
      <trkpt lat="43.95737" lon="7.08489">
        <ele>750</ele>
        <time>2019-02-16T09:31:58.000Z</time>
      </trkpt>
      <trkpt lat="43.95751" lon="7.08472">
        <ele>750.40002441406</ele>
        <time>2019-02-16T09:32:05.000Z</time>
      </trkpt>
      <trkpt lat="43.95752" lon="7.0847">
        <ele>750.59997558594</ele>
        <time>2019-02-16T09:32:06.000Z</time>
      </trkpt>
      <trkpt lat="43.95756" lon="7.08464">
        <ele>751</ele>
        <time>2019-02-16T09:32:09.000Z</time>
      </trkpt>
      <trkpt lat="43.95761" lon="7.08449">
        <ele>751.40002441406</ele>
        <time>2019-02-16T09:32:14.000Z</time>
      </trkpt>
      <trkpt lat="43.95762" lon="7.08446">
        <ele>751.79998779297</ele>
        <time>2019-02-16T09:32:15.000Z</time>
      </trkpt>
      <trkpt lat="43.95767" lon="7.08431">
        <ele>751.79998779297</ele>
        <time>2019-02-16T09:32:19.000Z</time>
      </trkpt>
      <trkpt lat="43.95773" lon="7.08417">
        <ele>752</ele>
        <time>2019-02-16T09:32:24.000Z</time>
      </trkpt>
      <trkpt lat="43.95778" lon="7.08399">
        <ele>752.59997558594</ele>
        <time>2019-02-16T09:32:30.000Z</time>
      </trkpt>
      <trkpt lat="43.95781" lon="7.08395">
        <ele>752.79998779297</ele>
        <time>2019-02-16T09:32:31.000Z</time>
      </trkpt>
      <trkpt lat="43.95782" lon="7.08387">
        <ele>752.79998779297</ele>
        <time>2019-02-16T09:32:33.000Z</time>
      </trkpt>
      <trkpt lat="43.95788" lon="7.08373">
        <ele>752.59997558594</ele>
        <time>2019-02-16T09:32:38.000Z</time>
      </trkpt>
      <trkpt lat="43.95798" lon="7.08366">
        <ele>753</ele>
        <time>2019-02-16T09:32:42.000Z</time>
      </trkpt>
      <trkpt lat="43.95806" lon="7.0837">
        <ele>753.20001220703</ele>
        <time>2019-02-16T09:32:46.000Z</time>
      </trkpt>
      <trkpt lat="43.95811" lon="7.08373">
        <ele>753.59997558594</ele>
        <time>2019-02-16T09:32:48.000Z</time>
      </trkpt>
      <trkpt lat="43.95813" lon="7.08374">
        <ele>753.79998779297</ele>
        <time>2019-02-16T09:32:49.000Z</time>
      </trkpt>
      <trkpt lat="43.95818" lon="7.08373">
        <ele>754.20001220703</ele>
        <time>2019-02-16T09:32:51.000Z</time>
      </trkpt>
      <trkpt lat="43.95821" lon="7.08371">
        <ele>754</ele>
        <time>2019-02-16T09:32:52.000Z</time>
      </trkpt>
      <trkpt lat="43.95831" lon="7.08362">
        <ele>754.20001220703</ele>
        <time>2019-02-16T09:32:57.000Z</time>
      </trkpt>
      <trkpt lat="43.95833" lon="7.08359">
        <ele>754.40002441406</ele>
        <time>2019-02-16T09:32:58.000Z</time>
      </trkpt>
      <trkpt lat="43.95845" lon="7.08345">
        <ele>754.79998779297</ele>
        <time>2019-02-16T09:33:04.000Z</time>
      </trkpt>
      <trkpt lat="43.95852" lon="7.08332">
        <ele>754.79998779297</ele>
        <time>2019-02-16T09:33:09.000Z</time>
      </trkpt>
      <trkpt lat="43.95856" lon="7.08327">
        <ele>755</ele>
        <time>2019-02-16T09:33:11.000Z</time>
      </trkpt>
      <trkpt lat="43.95859" lon="7.08322">
        <ele>755.40002441406</ele>
        <time>2019-02-16T09:33:13.000Z</time>
      </trkpt>
      <trkpt lat="43.9587" lon="7.08325">
        <ele>755.59997558594</ele>
        <time>2019-02-16T09:33:17.000Z</time>
      </trkpt>
      <trkpt lat="43.95875" lon="7.08332">
        <ele>756.20001220703</ele>
        <time>2019-02-16T09:33:20.000Z</time>
      </trkpt>
      <trkpt lat="43.95877" lon="7.08334">
        <ele>756.20001220703</ele>
        <time>2019-02-16T09:33:21.000Z</time>
      </trkpt>
      <trkpt lat="43.95877" lon="7.08335">
        <ele>756.40002441406</ele>
        <time>2019-02-16T09:33:22.000Z</time>
      </trkpt>
      <trkpt lat="43.95884" lon="7.08346">
        <ele>756.59997558594</ele>
        <time>2019-02-16T09:33:27.000Z</time>
      </trkpt>
      <trkpt lat="43.95886" lon="7.08345">
        <ele>756.59997558594</ele>
        <time>2019-02-16T09:33:28.000Z</time>
      </trkpt>
      <trkpt lat="43.95896" lon="7.08335">
        <ele>756.79998779297</ele>
        <time>2019-02-16T09:33:33.000Z</time>
      </trkpt>
      <trkpt lat="43.95898" lon="7.08331">
        <ele>756.79998779297</ele>
        <time>2019-02-16T09:33:34.000Z</time>
      </trkpt>
      <trkpt lat="43.95907" lon="7.08318">
        <ele>756.79998779297</ele>
        <time>2019-02-16T09:33:38.000Z</time>
      </trkpt>
      <trkpt lat="43.95912" lon="7.08309">
        <ele>757.20001220703</ele>
        <time>2019-02-16T09:33:41.000Z</time>
      </trkpt>
      <trkpt lat="43.95917" lon="7.08305">
        <ele>757.20001220703</ele>
        <time>2019-02-16T09:33:43.000Z</time>
      </trkpt>
      <trkpt lat="43.95924" lon="7.08304">
        <ele>757.20001220703</ele>
        <time>2019-02-16T09:33:46.000Z</time>
      </trkpt>
      <trkpt lat="43.95926" lon="7.08306">
        <ele>757.40002441406</ele>
        <time>2019-02-16T09:33:47.000Z</time>
      </trkpt>
      <trkpt lat="43.95937" lon="7.08304">
        <ele>758.40002441406</ele>
        <time>2019-02-16T09:33:52.000Z</time>
      </trkpt>
      <trkpt lat="43.9595" lon="7.08306">
        <ele>759</ele>
        <time>2019-02-16T09:33:57.000Z</time>
      </trkpt>
      <trkpt lat="43.95962" lon="7.08306">
        <ele>758.79998779297</ele>
        <time>2019-02-16T09:34:02.000Z</time>
      </trkpt>
      <trkpt lat="43.95964" lon="7.08304">
        <ele>759</ele>
        <time>2019-02-16T09:34:03.000Z</time>
      </trkpt>
      <trkpt lat="43.95979" lon="7.08298">
        <ele>759.20001220703</ele>
        <time>2019-02-16T09:34:09.000Z</time>
      </trkpt>
      <trkpt lat="43.95983" lon="7.08294">
        <ele>759.40002441406</ele>
        <time>2019-02-16T09:34:11.000Z</time>
      </trkpt>
      <trkpt lat="43.95992" lon="7.08293">
        <ele>759.79998779297</ele>
        <time>2019-02-16T09:34:14.000Z</time>
      </trkpt>
      <trkpt lat="43.96002" lon="7.08296">
        <ele>760.40002441406</ele>
        <time>2019-02-16T09:34:19.000Z</time>
      </trkpt>
      <trkpt lat="43.96007" lon="7.08293">
        <ele>760.40002441406</ele>
        <time>2019-02-16T09:34:21.000Z</time>
      </trkpt>
      <trkpt lat="43.96013" lon="7.08295">
        <ele>760.20001220703</ele>
        <time>2019-02-16T09:34:23.000Z</time>
      </trkpt>
      <trkpt lat="43.96016" lon="7.08305">
        <ele>759.79998779297</ele>
        <time>2019-02-16T09:34:26.000Z</time>
      </trkpt>
      <trkpt lat="43.96013" lon="7.08315">
        <ele>760.40002441406</ele>
        <time>2019-02-16T09:34:29.000Z</time>
      </trkpt>
      <trkpt lat="43.96013" lon="7.08317">
        <ele>761</ele>
        <time>2019-02-16T09:34:30.000Z</time>
      </trkpt>
      <trkpt lat="43.96014" lon="7.08323">
        <ele>761.59997558594</ele>
        <time>2019-02-16T09:34:32.000Z</time>
      </trkpt>
      <trkpt lat="43.96013" lon="7.0833">
        <ele>762.20001220703</ele>
        <time>2019-02-16T09:34:35.000Z</time>
      </trkpt>
      <trkpt lat="43.96009" lon="7.08342">
        <ele>762.20001220703</ele>
        <time>2019-02-16T09:34:39.000Z</time>
      </trkpt>
      <trkpt lat="43.96007" lon="7.08343">
        <ele>761.59997558594</ele>
        <time>2019-02-16T09:34:40.000Z</time>
      </trkpt>
      <trkpt lat="43.96003" lon="7.08346">
        <ele>760.59997558594</ele>
        <time>2019-02-16T09:34:42.000Z</time>
      </trkpt>
      <trkpt lat="43.96004" lon="7.08347">
        <ele>760</ele>
        <time>2019-02-16T09:34:43.000Z</time>
      </trkpt>
      <trkpt lat="43.96005" lon="7.08348">
        <ele>759.40002441406</ele>
        <time>2019-02-16T09:34:44.000Z</time>
      </trkpt>
      <trkpt lat="43.96014" lon="7.08353">
        <ele>758.40002441406</ele>
        <time>2019-02-16T09:34:47.000Z</time>
      </trkpt>
      <trkpt lat="43.96024" lon="7.08358">
        <ele>757</ele>
        <time>2019-02-16T09:34:49.000Z</time>
      </trkpt>
      <trkpt lat="43.96033" lon="7.0836">
        <ele>755.40002441406</ele>
        <time>2019-02-16T09:34:51.000Z</time>
      </trkpt>
      <trkpt lat="43.96038" lon="7.08365">
        <ele>754</ele>
        <time>2019-02-16T09:34:53.000Z</time>
      </trkpt>
      <trkpt lat="43.96041" lon="7.08367">
        <ele>753.40002441406</ele>
        <time>2019-02-16T09:34:54.000Z</time>
      </trkpt>
      <trkpt lat="43.96044" lon="7.0837">
        <ele>753</ele>
        <time>2019-02-16T09:34:55.000Z</time>
      </trkpt>
      <trkpt lat="43.96053" lon="7.08378">
        <ele>751.79998779297</ele>
        <time>2019-02-16T09:34:57.000Z</time>
      </trkpt>
      <trkpt lat="43.96062" lon="7.08385">
        <ele>750.20001220703</ele>
        <time>2019-02-16T09:34:59.000Z</time>
      </trkpt>
      <trkpt lat="43.96071" lon="7.08391">
        <ele>749.20001220703</ele>
        <time>2019-02-16T09:35:01.000Z</time>
      </trkpt>
      <trkpt lat="43.96074" lon="7.08395">
        <ele>748.59997558594</ele>
        <time>2019-02-16T09:35:02.000Z</time>
      </trkpt>
      <trkpt lat="43.96078" lon="7.08398">
        <ele>748.59997558594</ele>
        <time>2019-02-16T09:35:03.000Z</time>
      </trkpt>
      <trkpt lat="43.96093" lon="7.08408">
        <ele>747.59997558594</ele>
        <time>2019-02-16T09:35:06.000Z</time>
      </trkpt>
      <trkpt lat="43.96097" lon="7.08413">
        <ele>747.20001220703</ele>
        <time>2019-02-16T09:35:07.000Z</time>
      </trkpt>
      <trkpt lat="43.96103" lon="7.08424">
        <ele>746</ele>
        <time>2019-02-16T09:35:09.000Z</time>
      </trkpt>
      <trkpt lat="43.96104" lon="7.08438">
        <ele>745.20001220703</ele>
        <time>2019-02-16T09:35:11.000Z</time>
      </trkpt>
      <trkpt lat="43.96104" lon="7.08444">
        <ele>744.40002441406</ele>
        <time>2019-02-16T09:35:12.000Z</time>
      </trkpt>
      <trkpt lat="43.96104" lon="7.0845">
        <ele>743.79998779297</ele>
        <time>2019-02-16T09:35:13.000Z</time>
      </trkpt>
      <trkpt lat="43.96104" lon="7.08457">
        <ele>743.40002441406</ele>
        <time>2019-02-16T09:35:14.000Z</time>
      </trkpt>
      <trkpt lat="43.96106" lon="7.08462">
        <ele>742.79998779297</ele>
        <time>2019-02-16T09:35:15.000Z</time>
      </trkpt>
      <trkpt lat="43.96116" lon="7.08476">
        <ele>741.59997558594</ele>
        <time>2019-02-16T09:35:18.000Z</time>
      </trkpt>
      <trkpt lat="43.9612" lon="7.0848">
        <ele>741.20001220703</ele>
        <time>2019-02-16T09:35:19.000Z</time>
      </trkpt>
      <trkpt lat="43.96124" lon="7.0848">
        <ele>740.40002441406</ele>
        <time>2019-02-16T09:35:20.000Z</time>
      </trkpt>
      <trkpt lat="43.96128" lon="7.08479">
        <ele>739.40002441406</ele>
        <time>2019-02-16T09:35:21.000Z</time>
      </trkpt>
      <trkpt lat="43.96132" lon="7.08479">
        <ele>738.59997558594</ele>
        <time>2019-02-16T09:35:22.000Z</time>
      </trkpt>
      <trkpt lat="43.96141" lon="7.08477">
        <ele>737.40002441406</ele>
        <time>2019-02-16T09:35:24.000Z</time>
      </trkpt>
      <trkpt lat="43.96148" lon="7.08478">
        <ele>736.79998779297</ele>
        <time>2019-02-16T09:35:25.000Z</time>
      </trkpt>
      <trkpt lat="43.96152" lon="7.08484">
        <ele>735.79998779297</ele>
        <time>2019-02-16T09:35:26.000Z</time>
      </trkpt>
      <trkpt lat="43.96158" lon="7.08488">
        <ele>734.79998779297</ele>
        <time>2019-02-16T09:35:27.000Z</time>
      </trkpt>
      <trkpt lat="43.96162" lon="7.08494">
        <ele>733.79998779297</ele>
        <time>2019-02-16T09:35:28.000Z</time>
      </trkpt>
      <trkpt lat="43.96169" lon="7.08507">
        <ele>732</ele>
        <time>2019-02-16T09:35:30.000Z</time>
      </trkpt>
      <trkpt lat="43.96173" lon="7.08513">
        <ele>730.79998779297</ele>
        <time>2019-02-16T09:35:31.000Z</time>
      </trkpt>
      <trkpt lat="43.96178" lon="7.08517">
        <ele>729.59997558594</ele>
        <time>2019-02-16T09:35:32.000Z</time>
      </trkpt>
      <trkpt lat="43.96183" lon="7.08519">
        <ele>728.40002441406</ele>
        <time>2019-02-16T09:35:33.000Z</time>
      </trkpt>
      <trkpt lat="43.96186" lon="7.0852">
        <ele>727</ele>
        <time>2019-02-16T09:35:34.000Z</time>
      </trkpt>
      <trkpt lat="43.96189" lon="7.08517">
        <ele>725.79998779297</ele>
        <time>2019-02-16T09:35:35.000Z</time>
      </trkpt>
      <trkpt lat="43.96201" lon="7.08515">
        <ele>724.20001220703</ele>
        <time>2019-02-16T09:35:37.000Z</time>
      </trkpt>
      <trkpt lat="43.96207" lon="7.08515">
        <ele>723.40002441406</ele>
        <time>2019-02-16T09:35:38.000Z</time>
      </trkpt>
      <trkpt lat="43.96208" lon="7.0852">
        <ele>722.59997558594</ele>
        <time>2019-02-16T09:35:39.000Z</time>
      </trkpt>
      <trkpt lat="43.96212" lon="7.08522">
        <ele>721.59997558594</ele>
        <time>2019-02-16T09:35:40.000Z</time>
      </trkpt>
      <trkpt lat="43.96216" lon="7.08526">
        <ele>720.79998779297</ele>
        <time>2019-02-16T09:35:41.000Z</time>
      </trkpt>
      <trkpt lat="43.96218" lon="7.08531">
        <ele>719.20001220703</ele>
        <time>2019-02-16T09:35:42.000Z</time>
      </trkpt>
      <trkpt lat="43.96221" lon="7.08533">
        <ele>717.79998779297</ele>
        <time>2019-02-16T09:35:43.000Z</time>
      </trkpt>
      <trkpt lat="43.96224" lon="7.08533">
        <ele>716.40002441406</ele>
        <time>2019-02-16T09:35:44.000Z</time>
      </trkpt>
      <trkpt lat="43.96226" lon="7.08531">
        <ele>715.20001220703</ele>
        <time>2019-02-16T09:35:45.000Z</time>
      </trkpt>
      <trkpt lat="43.96228" lon="7.0853">
        <ele>713.79998779297</ele>
        <time>2019-02-16T09:35:46.000Z</time>
      </trkpt>
      <trkpt lat="43.96231" lon="7.08527">
        <ele>712.20001220703</ele>
        <time>2019-02-16T09:35:48.000Z</time>
      </trkpt>
      <trkpt lat="43.96231" lon="7.08527">
        <ele>711.79998779297</ele>
        <time>2019-02-16T09:35:51.000Z</time>
      </trkpt>
      <trkpt lat="43.9623" lon="7.08528">
        <ele>711.59997558594</ele>
        <time>2019-02-16T09:35:56.000Z</time>
      </trkpt>
      <trkpt lat="43.9623" lon="7.08528">
        <ele>711.59997558594</ele>
        <time>2019-02-16T09:35:57.000Z</time>
      </trkpt>
      <trkpt lat="43.96231" lon="7.08531">
        <ele>712</ele>
        <time>2019-02-16T09:36:03.000Z</time>
      </trkpt>
      <trkpt lat="43.96229" lon="7.08531">
        <ele>712.59997558594</ele>
        <time>2019-02-16T09:36:08.000Z</time>
      </trkpt>
      <trkpt lat="43.96227" lon="7.0853">
        <ele>712.59997558594</ele>
        <time>2019-02-16T09:36:14.000Z</time>
      </trkpt>
      <trkpt lat="43.96225" lon="7.0853">
        <ele>712.20001220703</ele>
        <time>2019-02-16T09:36:26.000Z</time>
      </trkpt>
      <trkpt lat="43.96225" lon="7.08528">
        <ele>712.20001220703</ele>
        <time>2019-02-16T09:36:27.000Z</time>
      </trkpt>
      <trkpt lat="43.96222" lon="7.08532">
        <ele>713.40002441406</ele>
        <time>2019-02-16T09:36:32.000Z</time>
      </trkpt>
      <trkpt lat="43.96221" lon="7.08532">
        <ele>713.59997558594</ele>
        <time>2019-02-16T09:36:34.000Z</time>
      </trkpt>
      <trkpt lat="43.96219" lon="7.08533">
        <ele>714.40002441406</ele>
        <time>2019-02-16T09:36:37.000Z</time>
      </trkpt>
      <trkpt lat="43.96216" lon="7.08535">
        <ele>715.20001220703</ele>
        <time>2019-02-16T09:36:42.000Z</time>
      </trkpt>
      <trkpt lat="43.96216" lon="7.08535">
        <ele>715.40002441406</ele>
        <time>2019-02-16T09:36:43.000Z</time>
      </trkpt>
      <trkpt lat="43.96215" lon="7.08539">
        <ele>716</ele>
        <time>2019-02-16T09:36:47.000Z</time>
      </trkpt>
      <trkpt lat="43.96214" lon="7.08541">
        <ele>716.59997558594</ele>
        <time>2019-02-16T09:36:50.000Z</time>
      </trkpt>
      <trkpt lat="43.96213" lon="7.08543">
        <ele>717.59997558594</ele>
        <time>2019-02-16T09:36:55.000Z</time>
      </trkpt>
      <trkpt lat="43.96212" lon="7.08544">
        <ele>717.59997558594</ele>
        <time>2019-02-16T09:36:56.000Z</time>
      </trkpt>
      <trkpt lat="43.96214" lon="7.08546">
        <ele>718</ele>
        <time>2019-02-16T09:37:02.000Z</time>
      </trkpt>
      <trkpt lat="43.96216" lon="7.08547">
        <ele>718.79998779297</ele>
        <time>2019-02-16T09:37:07.000Z</time>
      </trkpt>
      <trkpt lat="43.96217" lon="7.08545">
        <ele>719.20001220703</ele>
        <time>2019-02-16T09:37:09.000Z</time>
      </trkpt>
      <trkpt lat="43.96218" lon="7.08544">
        <ele>720</ele>
        <time>2019-02-16T09:37:13.000Z</time>
      </trkpt>
      <trkpt lat="43.96218" lon="7.08544">
        <ele>720.40002441406</ele>
        <time>2019-02-16T09:37:15.000Z</time>
      </trkpt>
      <trkpt lat="43.9622" lon="7.08542">
        <ele>721</ele>
        <time>2019-02-16T09:37:18.000Z</time>
      </trkpt>
      <trkpt lat="43.96223" lon="7.0854">
        <ele>722</ele>
        <time>2019-02-16T09:37:22.000Z</time>
      </trkpt>
      <trkpt lat="43.96224" lon="7.0854">
        <ele>722.20001220703</ele>
        <time>2019-02-16T09:37:23.000Z</time>
      </trkpt>
      <trkpt lat="43.96226" lon="7.08539">
        <ele>723</ele>
        <time>2019-02-16T09:37:27.000Z</time>
      </trkpt>
      <trkpt lat="43.96226" lon="7.08539">
        <ele>723.20001220703</ele>
        <time>2019-02-16T09:37:30.000Z</time>
      </trkpt>
      <trkpt lat="43.96231" lon="7.08536">
        <ele>723.40002441406</ele>
        <time>2019-02-16T09:37:34.000Z</time>
      </trkpt>
      <trkpt lat="43.96236" lon="7.08531">
        <ele>724</ele>
        <time>2019-02-16T09:37:39.000Z</time>
      </trkpt>
      <trkpt lat="43.96237" lon="7.0853">
        <ele>724.20001220703</ele>
        <time>2019-02-16T09:37:40.000Z</time>
      </trkpt>
      <trkpt lat="43.96244" lon="7.08529">
        <ele>725.20001220703</ele>
        <time>2019-02-16T09:37:45.000Z</time>
      </trkpt>
      <trkpt lat="43.96245" lon="7.08529">
        <ele>725.40002441406</ele>
        <time>2019-02-16T09:37:46.000Z</time>
      </trkpt>
      <trkpt lat="43.96248" lon="7.08529">
        <ele>726.59997558594</ele>
        <time>2019-02-16T09:37:49.000Z</time>
      </trkpt>
      <trkpt lat="43.96248" lon="7.08529">
        <ele>727.20001220703</ele>
        <time>2019-02-16T09:37:51.000Z</time>
      </trkpt>
      <trkpt lat="43.96248" lon="7.08529">
        <ele>727.59997558594</ele>
        <time>2019-02-16T09:37:52.000Z</time>
      </trkpt>
      <trkpt lat="43.96251" lon="7.08529">
        <ele>728</ele>
        <time>2019-02-16T09:37:57.000Z</time>
      </trkpt>
      <trkpt lat="43.96253" lon="7.0853">
        <ele>728.79998779297</ele>
        <time>2019-02-16T09:38:00.000Z</time>
      </trkpt>
      <trkpt lat="43.96255" lon="7.0853">
        <ele>729.79998779297</ele>
        <time>2019-02-16T09:38:05.000Z</time>
      </trkpt>
      <trkpt lat="43.96259" lon="7.08532">
        <ele>731</ele>
        <time>2019-02-16T09:38:10.000Z</time>
      </trkpt>
      <trkpt lat="43.96259" lon="7.08532">
        <ele>731.20001220703</ele>
        <time>2019-02-16T09:38:12.000Z</time>
      </trkpt>
      <trkpt lat="43.96261" lon="7.08533">
        <ele>731.40002441406</ele>
        <time>2019-02-16T09:38:13.000Z</time>
      </trkpt>
      <trkpt lat="43.96263" lon="7.08532">
        <ele>732.20001220703</ele>
        <time>2019-02-16T09:38:17.000Z</time>
      </trkpt>
      <trkpt lat="43.96268" lon="7.08527">
        <ele>733.20001220703</ele>
        <time>2019-02-16T09:38:24.000Z</time>
      </trkpt>
      <trkpt lat="43.96268" lon="7.08527">
        <ele>733.40002441406</ele>
        <time>2019-02-16T09:38:25.000Z</time>
      </trkpt>
      <trkpt lat="43.96271" lon="7.08525">
        <ele>734.20001220703</ele>
        <time>2019-02-16T09:38:29.000Z</time>
      </trkpt>
      <trkpt lat="43.96274" lon="7.08523">
        <ele>735.20001220703</ele>
        <time>2019-02-16T09:38:33.000Z</time>
      </trkpt>
      <trkpt lat="43.96275" lon="7.08522">
        <ele>735.20001220703</ele>
        <time>2019-02-16T09:38:34.000Z</time>
      </trkpt>
      <trkpt lat="43.96278" lon="7.08519">
        <ele>736.20001220703</ele>
        <time>2019-02-16T09:38:39.000Z</time>
      </trkpt>
      <trkpt lat="43.96278" lon="7.08519">
        <ele>736.40002441406</ele>
        <time>2019-02-16T09:38:40.000Z</time>
      </trkpt>
      <trkpt lat="43.96282" lon="7.08517">
        <ele>737.40002441406</ele>
        <time>2019-02-16T09:38:46.000Z</time>
      </trkpt>
      <trkpt lat="43.96281" lon="7.08518">
        <ele>737.59997558594</ele>
        <time>2019-02-16T09:38:47.000Z</time>
      </trkpt>
      <trkpt lat="43.96286" lon="7.08517">
        <ele>738.59997558594</ele>
        <time>2019-02-16T09:38:52.000Z</time>
      </trkpt>
      <trkpt lat="43.96288" lon="7.08517">
        <ele>739.20001220703</ele>
        <time>2019-02-16T09:38:55.000Z</time>
      </trkpt>
      <trkpt lat="43.96289" lon="7.08515">
        <ele>739.59997558594</ele>
        <time>2019-02-16T09:38:57.000Z</time>
      </trkpt>
      <trkpt lat="43.9629" lon="7.08513">
        <ele>740.79998779297</ele>
        <time>2019-02-16T09:39:03.000Z</time>
      </trkpt>
      <trkpt lat="43.96287" lon="7.08507">
        <ele>741.79998779297</ele>
        <time>2019-02-16T09:39:10.000Z</time>
      </trkpt>
      <trkpt lat="43.96287" lon="7.08507">
        <ele>742</ele>
        <time>2019-02-16T09:39:12.000Z</time>
      </trkpt>
      <trkpt lat="43.96288" lon="7.08506">
        <ele>742.79998779297</ele>
        <time>2019-02-16T09:39:17.000Z</time>
      </trkpt>
      <trkpt lat="43.96288" lon="7.08505">
        <ele>743</ele>
        <time>2019-02-16T09:39:19.000Z</time>
      </trkpt>
      <trkpt lat="43.96291" lon="7.08503">
        <ele>742.79998779297</ele>
        <time>2019-02-16T09:39:25.000Z</time>
      </trkpt>
      <trkpt lat="43.96292" lon="7.08504">
        <ele>744</ele>
        <time>2019-02-16T09:39:31.000Z</time>
      </trkpt>
      <trkpt lat="43.96293" lon="7.08505">
        <ele>744</ele>
        <time>2019-02-16T09:39:32.000Z</time>
      </trkpt>
      <trkpt lat="43.96295" lon="7.08505">
        <ele>745</ele>
        <time>2019-02-16T09:39:37.000Z</time>
      </trkpt>
      <trkpt lat="43.96295" lon="7.08504">
        <ele>745.20001220703</ele>
        <time>2019-02-16T09:39:38.000Z</time>
      </trkpt>
      <trkpt lat="43.96296" lon="7.085">
        <ele>746</ele>
        <time>2019-02-16T09:39:43.000Z</time>
      </trkpt>
      <trkpt lat="43.96296" lon="7.08499">
        <ele>746.40002441406</ele>
        <time>2019-02-16T09:39:45.000Z</time>
      </trkpt>
      <trkpt lat="43.96298" lon="7.08497">
        <ele>747</ele>
        <time>2019-02-16T09:39:49.000Z</time>
      </trkpt>
      <trkpt lat="43.96298" lon="7.08496">
        <ele>747.59997558594</ele>
        <time>2019-02-16T09:39:51.000Z</time>
      </trkpt>
      <trkpt lat="43.963" lon="7.08494">
        <ele>748.20001220703</ele>
        <time>2019-02-16T09:39:54.000Z</time>
      </trkpt>
      <trkpt lat="43.96301" lon="7.08494">
        <ele>748.20001220703</ele>
        <time>2019-02-16T09:39:55.000Z</time>
      </trkpt>
      <trkpt lat="43.963" lon="7.08494">
        <ele>748.59997558594</ele>
        <time>2019-02-16T09:39:56.000Z</time>
      </trkpt>
      <trkpt lat="43.96303" lon="7.08491">
        <ele>749.40002441406</ele>
        <time>2019-02-16T09:40:00.000Z</time>
      </trkpt>
      <trkpt lat="43.96303" lon="7.08491">
        <ele>749.79998779297</ele>
        <time>2019-02-16T09:40:02.000Z</time>
      </trkpt>
      <trkpt lat="43.96302" lon="7.08486">
        <ele>750.59997558594</ele>
        <time>2019-02-16T09:40:07.000Z</time>
      </trkpt>
      <trkpt lat="43.96302" lon="7.08486">
        <ele>750.79998779297</ele>
        <time>2019-02-16T09:40:08.000Z</time>
      </trkpt>
      <trkpt lat="43.96301" lon="7.08483">
        <ele>751.59997558594</ele>
        <time>2019-02-16T09:40:12.000Z</time>
      </trkpt>
      <trkpt lat="43.96299" lon="7.08482">
        <ele>752.20001220703</ele>
        <time>2019-02-16T09:40:15.000Z</time>
      </trkpt>
      <trkpt lat="43.96298" lon="7.08481">
        <ele>752.59997558594</ele>
        <time>2019-02-16T09:40:17.000Z</time>
      </trkpt>
      <trkpt lat="43.96295" lon="7.08481">
        <ele>753.79998779297</ele>
        <time>2019-02-16T09:40:22.000Z</time>
      </trkpt>
      <trkpt lat="43.96294" lon="7.08479">
        <ele>755</ele>
        <time>2019-02-16T09:40:28.000Z</time>
      </trkpt>
      <trkpt lat="43.96294" lon="7.08477">
        <ele>755.20001220703</ele>
        <time>2019-02-16T09:40:29.000Z</time>
      </trkpt>
      <trkpt lat="43.96293" lon="7.08475">
        <ele>756</ele>
        <time>2019-02-16T09:40:34.000Z</time>
      </trkpt>
      <trkpt lat="43.96293" lon="7.08474">
        <ele>756.20001220703</ele>
        <time>2019-02-16T09:40:35.000Z</time>
      </trkpt>
      <trkpt lat="43.96294" lon="7.0847">
        <ele>757.20001220703</ele>
        <time>2019-02-16T09:40:40.000Z</time>
      </trkpt>
      <trkpt lat="43.96295" lon="7.08468">
        <ele>757.59997558594</ele>
        <time>2019-02-16T09:40:42.000Z</time>
      </trkpt>
      <trkpt lat="43.96295" lon="7.08464">
        <ele>758.40002441406</ele>
        <time>2019-02-16T09:40:47.000Z</time>
      </trkpt>
      <trkpt lat="43.96295" lon="7.08464">
        <ele>758.79998779297</ele>
        <time>2019-02-16T09:40:49.000Z</time>
      </trkpt>
      <trkpt lat="43.96297" lon="7.08459">
        <ele>759.59997558594</ele>
        <time>2019-02-16T09:40:54.000Z</time>
      </trkpt>
      <trkpt lat="43.96299" lon="7.08456">
        <ele>760.59997558594</ele>
        <time>2019-02-16T09:40:59.000Z</time>
      </trkpt>
      <trkpt lat="43.963" lon="7.08455">
        <ele>760.79998779297</ele>
        <time>2019-02-16T09:41:00.000Z</time>
      </trkpt>
      <trkpt lat="43.96302" lon="7.08452">
        <ele>761.79998779297</ele>
        <time>2019-02-16T09:41:04.000Z</time>
      </trkpt>
      <trkpt lat="43.96302" lon="7.08451">
        <ele>762</ele>
        <time>2019-02-16T09:41:05.000Z</time>
      </trkpt>
      <trkpt lat="43.96304" lon="7.08449">
        <ele>762.79998779297</ele>
        <time>2019-02-16T09:41:07.000Z</time>
      </trkpt>
      <trkpt lat="43.96305" lon="7.08446">
        <ele>763.79998779297</ele>
        <time>2019-02-16T09:41:12.000Z</time>
      </trkpt>
      <trkpt lat="43.96305" lon="7.08446">
        <ele>763.79998779297</ele>
        <time>2019-02-16T09:41:13.000Z</time>
      </trkpt>
      <trkpt lat="43.96305" lon="7.08445">
        <ele>764</ele>
        <time>2019-02-16T09:41:20.000Z</time>
      </trkpt>
      <trkpt lat="43.96304" lon="7.08444">
        <ele>764</ele>
        <time>2019-02-16T09:41:27.000Z</time>
      </trkpt>
      <trkpt lat="43.96303" lon="7.08443">
        <ele>763.20001220703</ele>
        <time>2019-02-16T09:41:34.000Z</time>
      </trkpt>
      <trkpt lat="43.96305" lon="7.08443">
        <ele>763.79998779297</ele>
        <time>2019-02-16T09:41:40.000Z</time>
      </trkpt>
      <trkpt lat="43.96305" lon="7.08442">
        <ele>763.40002441406</ele>
        <time>2019-02-16T09:41:47.000Z</time>
      </trkpt>
      <trkpt lat="43.96305" lon="7.08439">
        <ele>763.79998779297</ele>
        <time>2019-02-16T09:41:52.000Z</time>
      </trkpt>
      <trkpt lat="43.96307" lon="7.08436">
        <ele>764.59997558594</ele>
        <time>2019-02-16T09:41:58.000Z</time>
      </trkpt>
      <trkpt lat="43.96307" lon="7.08434">
        <ele>764.79998779297</ele>
        <time>2019-02-16T09:42:00.000Z</time>
      </trkpt>
      <trkpt lat="43.96308" lon="7.08432">
        <ele>764.79998779297</ele>
        <time>2019-02-16T09:42:01.000Z</time>
      </trkpt>
      <trkpt lat="43.9631" lon="7.08429">
        <ele>765</ele>
        <time>2019-02-16T09:42:03.000Z</time>
      </trkpt>
      <trkpt lat="43.96314" lon="7.08422">
        <ele>765.79998779297</ele>
        <time>2019-02-16T09:42:07.000Z</time>
      </trkpt>
      <trkpt lat="43.96316" lon="7.08418">
        <ele>766.59997558594</ele>
        <time>2019-02-16T09:42:09.000Z</time>
      </trkpt>
      <trkpt lat="43.96318" lon="7.08415">
        <ele>767.20001220703</ele>
        <time>2019-02-16T09:42:11.000Z</time>
      </trkpt>
      <trkpt lat="43.96323" lon="7.08407">
        <ele>768.40002441406</ele>
        <time>2019-02-16T09:42:16.000Z</time>
      </trkpt>
      <trkpt lat="43.96329" lon="7.08401">
        <ele>769.59997558594</ele>
        <time>2019-02-16T09:42:20.000Z</time>
      </trkpt>
      <trkpt lat="43.96334" lon="7.08398">
        <ele>770.40002441406</ele>
        <time>2019-02-16T09:42:23.000Z</time>
      </trkpt>
      <trkpt lat="43.96336" lon="7.08396">
        <ele>770.79998779297</ele>
        <time>2019-02-16T09:42:25.000Z</time>
      </trkpt>
      <trkpt lat="43.96341" lon="7.08391">
        <ele>772.20001220703</ele>
        <time>2019-02-16T09:42:29.000Z</time>
      </trkpt>
      <trkpt lat="43.96344" lon="7.08387">
        <ele>773.20001220703</ele>
        <time>2019-02-16T09:42:32.000Z</time>
      </trkpt>
      <trkpt lat="43.96346" lon="7.08384">
        <ele>774.20001220703</ele>
        <time>2019-02-16T09:42:35.000Z</time>
      </trkpt>
      <trkpt lat="43.96347" lon="7.08382">
        <ele>774.40002441406</ele>
        <time>2019-02-16T09:42:36.000Z</time>
      </trkpt>
      <trkpt lat="43.96348" lon="7.08381">
        <ele>774.59997558594</ele>
        <time>2019-02-16T09:42:37.000Z</time>
      </trkpt>
      <trkpt lat="43.96351" lon="7.08379">
        <ele>775.59997558594</ele>
        <time>2019-02-16T09:42:40.000Z</time>
      </trkpt>
      <trkpt lat="43.96354" lon="7.08377">
        <ele>776.79998779297</ele>
        <time>2019-02-16T09:42:43.000Z</time>
      </trkpt>
      <trkpt lat="43.96356" lon="7.08376">
        <ele>777.59997558594</ele>
        <time>2019-02-16T09:42:47.000Z</time>
      </trkpt>
      <trkpt lat="43.96357" lon="7.08376">
        <ele>777.79998779297</ele>
        <time>2019-02-16T09:42:48.000Z</time>
      </trkpt>
      <trkpt lat="43.96361" lon="7.08375">
        <ele>778.59997558594</ele>
        <time>2019-02-16T09:42:52.000Z</time>
      </trkpt>
      <trkpt lat="43.96361" lon="7.08375">
        <ele>778.79998779297</ele>
        <time>2019-02-16T09:42:53.000Z</time>
      </trkpt>
      <trkpt lat="43.96362" lon="7.08375">
        <ele>780</ele>
        <time>2019-02-16T09:42:57.000Z</time>
      </trkpt>
      <trkpt lat="43.96366" lon="7.08373">
        <ele>780.79998779297</ele>
        <time>2019-02-16T09:43:01.000Z</time>
      </trkpt>
      <trkpt lat="43.96368" lon="7.08372">
        <ele>780.79998779297</ele>
        <time>2019-02-16T09:43:02.000Z</time>
      </trkpt>
      <trkpt lat="43.96368" lon="7.08372">
        <ele>781</ele>
        <time>2019-02-16T09:43:03.000Z</time>
      </trkpt>
      <trkpt lat="43.96371" lon="7.08371">
        <ele>781.59997558594</ele>
        <time>2019-02-16T09:43:06.000Z</time>
      </trkpt>
      <trkpt lat="43.96374" lon="7.0837">
        <ele>782</ele>
        <time>2019-02-16T09:43:09.000Z</time>
      </trkpt>
      <trkpt lat="43.96376" lon="7.08369">
        <ele>782.59997558594</ele>
        <time>2019-02-16T09:43:12.000Z</time>
      </trkpt>
      <trkpt lat="43.9638" lon="7.08369">
        <ele>783.20001220703</ele>
        <time>2019-02-16T09:43:17.000Z</time>
      </trkpt>
      <trkpt lat="43.96385" lon="7.08366">
        <ele>784</ele>
        <time>2019-02-16T09:43:22.000Z</time>
      </trkpt>
      <trkpt lat="43.96389" lon="7.08364">
        <ele>784.40002441406</ele>
        <time>2019-02-16T09:43:26.000Z</time>
      </trkpt>
      <trkpt lat="43.96393" lon="7.08361">
        <ele>784.59997558594</ele>
        <time>2019-02-16T09:43:29.000Z</time>
      </trkpt>
      <trkpt lat="43.96401" lon="7.08357">
        <ele>785.59997558594</ele>
        <time>2019-02-16T09:43:34.000Z</time>
      </trkpt>
      <trkpt lat="43.96403" lon="7.08357">
        <ele>785.59997558594</ele>
        <time>2019-02-16T09:43:35.000Z</time>
      </trkpt>
      <trkpt lat="43.96407" lon="7.08357">
        <ele>786.59997558594</ele>
        <time>2019-02-16T09:43:39.000Z</time>
      </trkpt>
      <trkpt lat="43.96409" lon="7.08357">
        <ele>787</ele>
        <time>2019-02-16T09:43:40.000Z</time>
      </trkpt>
      <trkpt lat="43.96415" lon="7.08361">
        <ele>787.79998779297</ele>
        <time>2019-02-16T09:43:45.000Z</time>
      </trkpt>
      <trkpt lat="43.96416" lon="7.08361">
        <ele>788.40002441406</ele>
        <time>2019-02-16T09:43:49.000Z</time>
      </trkpt>
      <trkpt lat="43.96417" lon="7.08361">
        <ele>788.79998779297</ele>
        <time>2019-02-16T09:43:52.000Z</time>
      </trkpt>
      <trkpt lat="43.96417" lon="7.0836">
        <ele>789</ele>
        <time>2019-02-16T09:43:55.000Z</time>
      </trkpt>
      <trkpt lat="43.96417" lon="7.08356">
        <ele>788.79998779297</ele>
        <time>2019-02-16T09:44:10.000Z</time>
      </trkpt>
      <trkpt lat="43.96417" lon="7.08357">
        <ele>789</ele>
        <time>2019-02-16T09:44:13.000Z</time>
      </trkpt>
      <trkpt lat="43.96418" lon="7.08359">
        <ele>789</ele>
        <time>2019-02-16T09:44:14.000Z</time>
      </trkpt>
      <trkpt lat="43.96421" lon="7.08361">
        <ele>790</ele>
        <time>2019-02-16T09:44:18.000Z</time>
      </trkpt>
      <trkpt lat="43.96424" lon="7.0836">
        <ele>790.40002441406</ele>
        <time>2019-02-16T09:44:20.000Z</time>
      </trkpt>
      <trkpt lat="43.96425" lon="7.0836">
        <ele>791</ele>
        <time>2019-02-16T09:44:21.000Z</time>
      </trkpt>
      <trkpt lat="43.96429" lon="7.08358">
        <ele>792</ele>
        <time>2019-02-16T09:44:24.000Z</time>
      </trkpt>
      <trkpt lat="43.96431" lon="7.08357">
        <ele>792.59997558594</ele>
        <time>2019-02-16T09:44:26.000Z</time>
      </trkpt>
      <trkpt lat="43.96434" lon="7.08357">
        <ele>793.20001220703</ele>
        <time>2019-02-16T09:44:28.000Z</time>
      </trkpt>
      <trkpt lat="43.96443" lon="7.08355">
        <ele>793.79998779297</ele>
        <time>2019-02-16T09:44:32.000Z</time>
      </trkpt>
      <trkpt lat="43.9645" lon="7.08353">
        <ele>794.20001220703</ele>
        <time>2019-02-16T09:44:35.000Z</time>
      </trkpt>
      <trkpt lat="43.96457" lon="7.08352">
        <ele>794.20001220703</ele>
        <time>2019-02-16T09:44:38.000Z</time>
      </trkpt>
      <trkpt lat="43.96464" lon="7.0835">
        <ele>795.40002441406</ele>
        <time>2019-02-16T09:44:43.000Z</time>
      </trkpt>
      <trkpt lat="43.96468" lon="7.0835">
        <ele>796</ele>
        <time>2019-02-16T09:44:45.000Z</time>
      </trkpt>
      <trkpt lat="43.9647" lon="7.08348">
        <ele>796.79998779297</ele>
        <time>2019-02-16T09:44:48.000Z</time>
      </trkpt>
      <trkpt lat="43.96474" lon="7.08346">
        <ele>797.59997558594</ele>
        <time>2019-02-16T09:44:52.000Z</time>
      </trkpt>
      <trkpt lat="43.96476" lon="7.08346">
        <ele>797.79998779297</ele>
        <time>2019-02-16T09:44:53.000Z</time>
      </trkpt>
      <trkpt lat="43.96483" lon="7.08343">
        <ele>798.59997558594</ele>
        <time>2019-02-16T09:44:57.000Z</time>
      </trkpt>
      <trkpt lat="43.96484" lon="7.08343">
        <ele>798.79998779297</ele>
        <time>2019-02-16T09:44:58.000Z</time>
      </trkpt>
      <trkpt lat="43.96488" lon="7.08341">
        <ele>799.79998779297</ele>
        <time>2019-02-16T09:45:02.000Z</time>
      </trkpt>
      <trkpt lat="43.96489" lon="7.08341">
        <ele>800</ele>
        <time>2019-02-16T09:45:03.000Z</time>
      </trkpt>
      <trkpt lat="43.96494" lon="7.08341">
        <ele>801.20001220703</ele>
        <time>2019-02-16T09:45:08.000Z</time>
      </trkpt>
      <trkpt lat="43.96499" lon="7.08343">
        <ele>802</ele>
        <time>2019-02-16T09:45:14.000Z</time>
      </trkpt>
      <trkpt lat="43.96502" lon="7.08343">
        <ele>802.20001220703</ele>
        <time>2019-02-16T09:45:16.000Z</time>
      </trkpt>
      <trkpt lat="43.96507" lon="7.08342">
        <ele>803.40002441406</ele>
        <time>2019-02-16T09:45:22.000Z</time>
      </trkpt>
      <trkpt lat="43.96508" lon="7.08342">
        <ele>803.59997558594</ele>
        <time>2019-02-16T09:45:23.000Z</time>
      </trkpt>
      <trkpt lat="43.96511" lon="7.08342">
        <ele>804.40002441406</ele>
        <time>2019-02-16T09:45:27.000Z</time>
      </trkpt>
      <trkpt lat="43.96513" lon="7.08341">
        <ele>805.20001220703</ele>
        <time>2019-02-16T09:45:31.000Z</time>
      </trkpt>
      <trkpt lat="43.96515" lon="7.08342">
        <ele>805.40002441406</ele>
        <time>2019-02-16T09:45:32.000Z</time>
      </trkpt>
      <trkpt lat="43.96519" lon="7.08342">
        <ele>806.59997558594</ele>
        <time>2019-02-16T09:45:38.000Z</time>
      </trkpt>
      <trkpt lat="43.9652" lon="7.08342">
        <ele>807</ele>
        <time>2019-02-16T09:45:40.000Z</time>
      </trkpt>
      <trkpt lat="43.96523" lon="7.08342">
        <ele>807.79998779297</ele>
        <time>2019-02-16T09:45:44.000Z</time>
      </trkpt>
      <trkpt lat="43.96525" lon="7.08342">
        <ele>808.59997558594</ele>
        <time>2019-02-16T09:45:48.000Z</time>
      </trkpt>
      <trkpt lat="43.96527" lon="7.08342">
        <ele>808.79998779297</ele>
        <time>2019-02-16T09:45:50.000Z</time>
      </trkpt>
      <trkpt lat="43.96531" lon="7.08342">
        <ele>809.79998779297</ele>
        <time>2019-02-16T09:45:56.000Z</time>
      </trkpt>
      <trkpt lat="43.96531" lon="7.08342">
        <ele>810</ele>
        <time>2019-02-16T09:45:57.000Z</time>
      </trkpt>
      <trkpt lat="43.96533" lon="7.08342">
        <ele>811</ele>
        <time>2019-02-16T09:46:02.000Z</time>
      </trkpt>
      <trkpt lat="43.96534" lon="7.08343">
        <ele>811.40002441406</ele>
        <time>2019-02-16T09:46:03.000Z</time>
      </trkpt>
      <trkpt lat="43.96537" lon="7.08343">
        <ele>812.20001220703</ele>
        <time>2019-02-16T09:46:08.000Z</time>
      </trkpt>
      <trkpt lat="43.96542" lon="7.08343">
        <ele>813.40002441406</ele>
        <time>2019-02-16T09:46:14.000Z</time>
      </trkpt>
      <trkpt lat="43.96543" lon="7.08342">
        <ele>813.79998779297</ele>
        <time>2019-02-16T09:46:17.000Z</time>
      </trkpt>
      <trkpt lat="43.96545" lon="7.08342">
        <ele>814.40002441406</ele>
        <time>2019-02-16T09:46:21.000Z</time>
      </trkpt>
      <trkpt lat="43.96548" lon="7.08342">
        <ele>815.20001220703</ele>
        <time>2019-02-16T09:46:25.000Z</time>
      </trkpt>
      <trkpt lat="43.96548" lon="7.08342">
        <ele>815.59997558594</ele>
        <time>2019-02-16T09:46:27.000Z</time>
      </trkpt>
      <trkpt lat="43.96552" lon="7.08341">
        <ele>816.59997558594</ele>
        <time>2019-02-16T09:46:33.000Z</time>
      </trkpt>
      <trkpt lat="43.96556" lon="7.08339">
        <ele>817.79998779297</ele>
        <time>2019-02-16T09:46:39.000Z</time>
      </trkpt>
      <trkpt lat="43.9656" lon="7.08338">
        <ele>818.79998779297</ele>
        <time>2019-02-16T09:46:46.000Z</time>
      </trkpt>
      <trkpt lat="43.96561" lon="7.08338">
        <ele>819</ele>
        <time>2019-02-16T09:46:47.000Z</time>
      </trkpt>
      <trkpt lat="43.96564" lon="7.08338">
        <ele>819.79998779297</ele>
        <time>2019-02-16T09:46:52.000Z</time>
      </trkpt>
      <trkpt lat="43.96566" lon="7.08338">
        <ele>820.59997558594</ele>
        <time>2019-02-16T09:46:55.000Z</time>
      </trkpt>
      <trkpt lat="43.96567" lon="7.08338">
        <ele>821</ele>
        <time>2019-02-16T09:46:57.000Z</time>
      </trkpt>
      <trkpt lat="43.96568" lon="7.08338">
        <ele>821.59997558594</ele>
        <time>2019-02-16T09:47:01.000Z</time>
      </trkpt>
      <trkpt lat="43.96576" lon="7.0834">
        <ele>821.79998779297</ele>
        <time>2019-02-16T09:47:09.000Z</time>
      </trkpt>
      <trkpt lat="43.96579" lon="7.08341">
        <ele>822</ele>
        <time>2019-02-16T09:47:11.000Z</time>
      </trkpt>
      <trkpt lat="43.9658" lon="7.08341">
        <ele>822.79998779297</ele>
        <time>2019-02-16T09:47:14.000Z</time>
      </trkpt>
      <trkpt lat="43.96584" lon="7.08342">
        <ele>823.20001220703</ele>
        <time>2019-02-16T09:47:16.000Z</time>
      </trkpt>
      <trkpt lat="43.96588" lon="7.08344">
        <ele>824</ele>
        <time>2019-02-16T09:47:19.000Z</time>
      </trkpt>
      <trkpt lat="43.9659" lon="7.08345">
        <ele>824.40002441406</ele>
        <time>2019-02-16T09:47:21.000Z</time>
      </trkpt>
      <trkpt lat="43.96591" lon="7.08346">
        <ele>824.79998779297</ele>
        <time>2019-02-16T09:47:25.000Z</time>
      </trkpt>
      <trkpt lat="43.96596" lon="7.08347">
        <ele>825.20001220703</ele>
        <time>2019-02-16T09:47:30.000Z</time>
      </trkpt>
      <trkpt lat="43.966" lon="7.0835">
        <ele>825.40002441406</ele>
        <time>2019-02-16T09:47:33.000Z</time>
      </trkpt>
      <trkpt lat="43.96603" lon="7.08351">
        <ele>825.59997558594</ele>
        <time>2019-02-16T09:47:35.000Z</time>
      </trkpt>
      <trkpt lat="43.96612" lon="7.08353">
        <ele>826</ele>
        <time>2019-02-16T09:47:39.000Z</time>
      </trkpt>
      <trkpt lat="43.96613" lon="7.08354">
        <ele>826.20001220703</ele>
        <time>2019-02-16T09:47:40.000Z</time>
      </trkpt>
      <trkpt lat="43.96615" lon="7.08355">
        <ele>826.59997558594</ele>
        <time>2019-02-16T09:47:41.000Z</time>
      </trkpt>
      <trkpt lat="43.96616" lon="7.08356">
        <ele>826.79998779297</ele>
        <time>2019-02-16T09:47:42.000Z</time>
      </trkpt>
      <trkpt lat="43.96617" lon="7.08358">
        <ele>827.40002441406</ele>
        <time>2019-02-16T09:47:45.000Z</time>
      </trkpt>
      <trkpt lat="43.96621" lon="7.08359">
        <ele>827.59997558594</ele>
        <time>2019-02-16T09:47:47.000Z</time>
      </trkpt>
      <trkpt lat="43.96623" lon="7.08359">
        <ele>827.59997558594</ele>
        <time>2019-02-16T09:47:48.000Z</time>
      </trkpt>
      <trkpt lat="43.96635" lon="7.08361">
        <ele>828</ele>
        <time>2019-02-16T09:47:52.000Z</time>
      </trkpt>
      <trkpt lat="43.96653" lon="7.08361">
        <ele>828.20001220703</ele>
        <time>2019-02-16T09:47:58.000Z</time>
      </trkpt>
      <trkpt lat="43.9667" lon="7.08362">
        <ele>828</ele>
        <time>2019-02-16T09:48:03.000Z</time>
      </trkpt>
      <trkpt lat="43.96683" lon="7.08364">
        <ele>828</ele>
        <time>2019-02-16T09:48:08.000Z</time>
      </trkpt>
      <trkpt lat="43.9669" lon="7.08363">
        <ele>828.40002441406</ele>
        <time>2019-02-16T09:48:11.000Z</time>
      </trkpt>
      <trkpt lat="43.96693" lon="7.08362">
        <ele>828.59997558594</ele>
        <time>2019-02-16T09:48:12.000Z</time>
      </trkpt>
      <trkpt lat="43.96696" lon="7.08361">
        <ele>828.59997558594</ele>
        <time>2019-02-16T09:48:13.000Z</time>
      </trkpt>
      <trkpt lat="43.96703" lon="7.0836">
        <ele>829</ele>
        <time>2019-02-16T09:48:15.000Z</time>
      </trkpt>
      <trkpt lat="43.96711" lon="7.08359">
        <ele>829</ele>
        <time>2019-02-16T09:48:18.000Z</time>
      </trkpt>
      <trkpt lat="43.9672" lon="7.08357">
        <ele>829.79998779297</ele>
        <time>2019-02-16T09:48:22.000Z</time>
      </trkpt>
      <trkpt lat="43.96722" lon="7.08357">
        <ele>830</ele>
        <time>2019-02-16T09:48:23.000Z</time>
      </trkpt>
      <trkpt lat="43.96732" lon="7.08356">
        <ele>831</ele>
        <time>2019-02-16T09:48:27.000Z</time>
      </trkpt>
      <trkpt lat="43.96739" lon="7.08355">
        <ele>831.79998779297</ele>
        <time>2019-02-16T09:48:30.000Z</time>
      </trkpt>
      <trkpt lat="43.96747" lon="7.08353">
        <ele>832</ele>
        <time>2019-02-16T09:48:34.000Z</time>
      </trkpt>
      <trkpt lat="43.96759" lon="7.08351">
        <ele>833.20001220703</ele>
        <time>2019-02-16T09:48:39.000Z</time>
      </trkpt>
      <trkpt lat="43.96773" lon="7.08352">
        <ele>834.40002441406</ele>
        <time>2019-02-16T09:48:45.000Z</time>
      </trkpt>
      <trkpt lat="43.96786" lon="7.0836">
        <ele>835.40002441406</ele>
        <time>2019-02-16T09:48:51.000Z</time>
      </trkpt>
      <trkpt lat="43.96798" lon="7.08377">
        <ele>836.59997558594</ele>
        <time>2019-02-16T09:48:58.000Z</time>
      </trkpt>
      <trkpt lat="43.96801" lon="7.08387">
        <ele>836.59997558594</ele>
        <time>2019-02-16T09:49:01.000Z</time>
      </trkpt>
      <trkpt lat="43.96802" lon="7.0839">
        <ele>836.59997558594</ele>
        <time>2019-02-16T09:49:02.000Z</time>
      </trkpt>
      <trkpt lat="43.96803" lon="7.08396">
        <ele>837</ele>
        <time>2019-02-16T09:49:06.000Z</time>
      </trkpt>
      <trkpt lat="43.96804" lon="7.08403">
        <ele>837.40002441406</ele>
        <time>2019-02-16T09:49:13.000Z</time>
      </trkpt>
      <trkpt lat="43.96805" lon="7.08405">
        <ele>837.79998779297</ele>
        <time>2019-02-16T09:49:14.000Z</time>
      </trkpt>
      <trkpt lat="43.9681" lon="7.08404">
        <ele>838</ele>
        <time>2019-02-16T09:49:17.000Z</time>
      </trkpt>
      <trkpt lat="43.96819" lon="7.08393">
        <ele>838</ele>
        <time>2019-02-16T09:49:23.000Z</time>
      </trkpt>
      <trkpt lat="43.96821" lon="7.08392">
        <ele>838.20001220703</ele>
        <time>2019-02-16T09:49:24.000Z</time>
      </trkpt>
      <trkpt lat="43.96827" lon="7.08389">
        <ele>838.79998779297</ele>
        <time>2019-02-16T09:49:27.000Z</time>
      </trkpt>
      <trkpt lat="43.96831" lon="7.0839">
        <ele>839.20001220703</ele>
        <time>2019-02-16T09:49:29.000Z</time>
      </trkpt>
      <trkpt lat="43.96842" lon="7.08399">
        <ele>839.40002441406</ele>
        <time>2019-02-16T09:49:35.000Z</time>
      </trkpt>
      <trkpt lat="43.9685" lon="7.08409">
        <ele>840.20001220703</ele>
        <time>2019-02-16T09:49:40.000Z</time>
      </trkpt>
      <trkpt lat="43.9685" lon="7.08411">
        <ele>840.40002441406</ele>
        <time>2019-02-16T09:49:41.000Z</time>
      </trkpt>
      <trkpt lat="43.96854" lon="7.08414">
        <ele>841.20001220703</ele>
        <time>2019-02-16T09:49:44.000Z</time>
      </trkpt>
      <trkpt lat="43.96855" lon="7.08415">
        <ele>841.40002441406</ele>
        <time>2019-02-16T09:49:45.000Z</time>
      </trkpt>
      <trkpt lat="43.96869" lon="7.08422">
        <ele>841.79998779297</ele>
        <time>2019-02-16T09:49:52.000Z</time>
      </trkpt>
      <trkpt lat="43.96883" lon="7.08426">
        <ele>841.40002441406</ele>
        <time>2019-02-16T09:49:56.000Z</time>
      </trkpt>
      <trkpt lat="43.96888" lon="7.08425">
        <ele>841.20001220703</ele>
        <time>2019-02-16T09:49:57.000Z</time>
      </trkpt>
      <trkpt lat="43.96897" lon="7.08428">
        <ele>840.40002441406</ele>
        <time>2019-02-16T09:50:00.000Z</time>
      </trkpt>
      <trkpt lat="43.969" lon="7.08428">
        <ele>840.20001220703</ele>
        <time>2019-02-16T09:50:01.000Z</time>
      </trkpt>
      <trkpt lat="43.96904" lon="7.0843">
        <ele>840</ele>
        <time>2019-02-16T09:50:03.000Z</time>
      </trkpt>
      <trkpt lat="43.96909" lon="7.08433">
        <ele>840.20001220703</ele>
        <time>2019-02-16T09:50:05.000Z</time>
      </trkpt>
      <trkpt lat="43.96922" lon="7.08435">
        <ele>840.20001220703</ele>
        <time>2019-02-16T09:50:09.000Z</time>
      </trkpt>
      <trkpt lat="43.96939" lon="7.08431">
        <ele>840</ele>
        <time>2019-02-16T09:50:14.000Z</time>
      </trkpt>
      <trkpt lat="43.96952" lon="7.08425">
        <ele>840.40002441406</ele>
        <time>2019-02-16T09:50:19.000Z</time>
      </trkpt>
      <trkpt lat="43.96957" lon="7.08423">
        <ele>841.40002441406</ele>
        <time>2019-02-16T09:50:23.000Z</time>
      </trkpt>
      <trkpt lat="43.96958" lon="7.08422">
        <ele>841.79998779297</ele>
        <time>2019-02-16T09:50:24.000Z</time>
      </trkpt>
      <trkpt lat="43.9696" lon="7.08421">
        <ele>842.40002441406</ele>
        <time>2019-02-16T09:50:26.000Z</time>
      </trkpt>
      <trkpt lat="43.96965" lon="7.08416">
        <ele>843</ele>
        <time>2019-02-16T09:50:29.000Z</time>
      </trkpt>
      <trkpt lat="43.96967" lon="7.08414">
        <ele>843.40002441406</ele>
        <time>2019-02-16T09:50:31.000Z</time>
      </trkpt>
      <trkpt lat="43.9697" lon="7.0841">
        <ele>845</ele>
        <time>2019-02-16T09:50:34.000Z</time>
      </trkpt>
      <trkpt lat="43.96971" lon="7.08409">
        <ele>845.40002441406</ele>
        <time>2019-02-16T09:50:35.000Z</time>
      </trkpt>
      <trkpt lat="43.96974" lon="7.08407">
        <ele>846.20001220703</ele>
        <time>2019-02-16T09:50:37.000Z</time>
      </trkpt>
      <trkpt lat="43.96981" lon="7.08402">
        <ele>846.59997558594</ele>
        <time>2019-02-16T09:50:41.000Z</time>
      </trkpt>
      <trkpt lat="43.96983" lon="7.08401">
        <ele>847</ele>
        <time>2019-02-16T09:50:43.000Z</time>
      </trkpt>
      <trkpt lat="43.96987" lon="7.08402">
        <ele>847.20001220703</ele>
        <time>2019-02-16T09:50:45.000Z</time>
      </trkpt>
      <trkpt lat="43.96988" lon="7.08403">
        <ele>847.40002441406</ele>
        <time>2019-02-16T09:50:47.000Z</time>
      </trkpt>
      <trkpt lat="43.96993" lon="7.08405">
        <ele>848</ele>
        <time>2019-02-16T09:50:50.000Z</time>
      </trkpt>
      <trkpt lat="43.96994" lon="7.08404">
        <ele>848.40002441406</ele>
        <time>2019-02-16T09:50:51.000Z</time>
      </trkpt>
      <trkpt lat="43.96998" lon="7.08408">
        <ele>849.40002441406</ele>
        <time>2019-02-16T09:50:55.000Z</time>
      </trkpt>
      <trkpt lat="43.96999" lon="7.0841">
        <ele>849.59997558594</ele>
        <time>2019-02-16T09:50:56.000Z</time>
      </trkpt>
      <trkpt lat="43.97002" lon="7.08414">
        <ele>850.59997558594</ele>
        <time>2019-02-16T09:51:00.000Z</time>
      </trkpt>
      <trkpt lat="43.97003" lon="7.08418">
        <ele>851.20001220703</ele>
        <time>2019-02-16T09:51:02.000Z</time>
      </trkpt>
      <trkpt lat="43.97007" lon="7.08428">
        <ele>851.59997558594</ele>
        <time>2019-02-16T09:51:07.000Z</time>
      </trkpt>
      <trkpt lat="43.97016" lon="7.08445">
        <ele>851.59997558594</ele>
        <time>2019-02-16T09:51:13.000Z</time>
      </trkpt>
      <trkpt lat="43.97018" lon="7.08447">
        <ele>851.79998779297</ele>
        <time>2019-02-16T09:51:14.000Z</time>
      </trkpt>
      <trkpt lat="43.97023" lon="7.08456">
        <ele>852</ele>
        <time>2019-02-16T09:51:18.000Z</time>
      </trkpt>
      <trkpt lat="43.97029" lon="7.0846">
        <ele>852.79998779297</ele>
        <time>2019-02-16T09:51:21.000Z</time>
      </trkpt>
      <trkpt lat="43.97031" lon="7.08461">
        <ele>853</ele>
        <time>2019-02-16T09:51:22.000Z</time>
      </trkpt>
      <trkpt lat="43.97033" lon="7.08462">
        <ele>853.20001220703</ele>
        <time>2019-02-16T09:51:23.000Z</time>
      </trkpt>
      <trkpt lat="43.97046" lon="7.08467">
        <ele>853.79998779297</ele>
        <time>2019-02-16T09:51:29.000Z</time>
      </trkpt>
      <trkpt lat="43.97058" lon="7.08474">
        <ele>854</ele>
        <time>2019-02-16T09:51:33.000Z</time>
      </trkpt>
      <trkpt lat="43.9706" lon="7.08475">
        <ele>854</ele>
        <time>2019-02-16T09:51:34.000Z</time>
      </trkpt>
      <trkpt lat="43.97067" lon="7.08478">
        <ele>854.79998779297</ele>
        <time>2019-02-16T09:51:39.000Z</time>
      </trkpt>
      <trkpt lat="43.97068" lon="7.08479">
        <ele>855.20001220703</ele>
        <time>2019-02-16T09:51:40.000Z</time>
      </trkpt>
      <trkpt lat="43.97071" lon="7.08479">
        <ele>855.20001220703</ele>
        <time>2019-02-16T09:51:42.000Z</time>
      </trkpt>
      <trkpt lat="43.97073" lon="7.0848">
        <ele>855.59997558594</ele>
        <time>2019-02-16T09:51:44.000Z</time>
      </trkpt>
      <trkpt lat="43.97076" lon="7.0848">
        <ele>856</ele>
        <time>2019-02-16T09:51:46.000Z</time>
      </trkpt>
      <trkpt lat="43.97077" lon="7.08479">
        <ele>856.40002441406</ele>
        <time>2019-02-16T09:51:47.000Z</time>
      </trkpt>
      <trkpt lat="43.97078" lon="7.08479">
        <ele>856.79998779297</ele>
        <time>2019-02-16T09:51:48.000Z</time>
      </trkpt>
      <trkpt lat="43.97079" lon="7.0848">
        <ele>857</ele>
        <time>2019-02-16T09:51:49.000Z</time>
      </trkpt>
      <trkpt lat="43.97082" lon="7.08481">
        <ele>857.59997558594</ele>
        <time>2019-02-16T09:51:51.000Z</time>
      </trkpt>
      <trkpt lat="43.97084" lon="7.08482">
        <ele>858</ele>
        <time>2019-02-16T09:51:53.000Z</time>
      </trkpt>
      <trkpt lat="43.97087" lon="7.08483">
        <ele>858.40002441406</ele>
        <time>2019-02-16T09:51:55.000Z</time>
      </trkpt>
      <trkpt lat="43.9709" lon="7.08484">
        <ele>858.59997558594</ele>
        <time>2019-02-16T09:51:57.000Z</time>
      </trkpt>
      <trkpt lat="43.97094" lon="7.08485">
        <ele>859</ele>
        <time>2019-02-16T09:52:00.000Z</time>
      </trkpt>
      <trkpt lat="43.97101" lon="7.08484">
        <ele>859</ele>
        <time>2019-02-16T09:52:05.000Z</time>
      </trkpt>
      <trkpt lat="43.97103" lon="7.08482">
        <ele>859</ele>
        <time>2019-02-16T09:52:06.000Z</time>
      </trkpt>
      <trkpt lat="43.97106" lon="7.08482">
        <ele>859.40002441406</ele>
        <time>2019-02-16T09:52:08.000Z</time>
      </trkpt>
      <trkpt lat="43.97109" lon="7.08483">
        <ele>859.59997558594</ele>
        <time>2019-02-16T09:52:10.000Z</time>
      </trkpt>
      <trkpt lat="43.97111" lon="7.08482">
        <ele>859.79998779297</ele>
        <time>2019-02-16T09:52:12.000Z</time>
      </trkpt>
      <trkpt lat="43.97112" lon="7.08482">
        <ele>860.20001220703</ele>
        <time>2019-02-16T09:52:15.000Z</time>
      </trkpt>
      <trkpt lat="43.97115" lon="7.08479">
        <ele>860.20001220703</ele>
        <time>2019-02-16T09:52:22.000Z</time>
      </trkpt>
      <trkpt lat="43.97119" lon="7.08473">
        <ele>860.40002441406</ele>
        <time>2019-02-16T09:52:28.000Z</time>
      </trkpt>
      <trkpt lat="43.9712" lon="7.08469">
        <ele>860.40002441406</ele>
        <time>2019-02-16T09:52:31.000Z</time>
      </trkpt>
      <trkpt lat="43.97121" lon="7.08467">
        <ele>861</ele>
        <time>2019-02-16T09:52:34.000Z</time>
      </trkpt>
      <trkpt lat="43.97121" lon="7.08465">
        <ele>861.59997558594</ele>
        <time>2019-02-16T09:52:37.000Z</time>
      </trkpt>
      <trkpt lat="43.97121" lon="7.08463">
        <ele>862</ele>
        <time>2019-02-16T09:52:39.000Z</time>
      </trkpt>
      <trkpt lat="43.97121" lon="7.08461">
        <ele>863</ele>
        <time>2019-02-16T09:52:44.000Z</time>
      </trkpt>
      <trkpt lat="43.9712" lon="7.08461">
        <ele>863</ele>
        <time>2019-02-16T09:52:50.000Z</time>
      </trkpt>
      <trkpt lat="43.9712" lon="7.08461">
        <ele>862.40002441406</ele>
        <time>2019-02-16T09:53:00.000Z</time>
      </trkpt>
      <trkpt lat="43.97119" lon="7.08459">
        <ele>862.40002441406</ele>
        <time>2019-02-16T09:53:19.000Z</time>
      </trkpt>
      <trkpt lat="43.9712" lon="7.08458">
        <ele>862.79998779297</ele>
        <time>2019-02-16T09:53:29.000Z</time>
      </trkpt>
      <trkpt lat="43.97121" lon="7.08459">
        <ele>862.79998779297</ele>
        <time>2019-02-16T09:53:31.000Z</time>
      </trkpt>
      <trkpt lat="43.97122" lon="7.08459">
        <ele>862.59997558594</ele>
        <time>2019-02-16T09:53:34.000Z</time>
      </trkpt>
      <trkpt lat="43.97123" lon="7.08459">
        <ele>863.40002441406</ele>
        <time>2019-02-16T09:53:41.000Z</time>
      </trkpt>
      <trkpt lat="43.97123" lon="7.08459">
        <ele>863.40002441406</ele>
        <time>2019-02-16T09:53:50.000Z</time>
      </trkpt>
      <trkpt lat="43.97125" lon="7.08458">
        <ele>863.20001220703</ele>
        <time>2019-02-16T09:53:57.000Z</time>
      </trkpt>
      <trkpt lat="43.97126" lon="7.08459">
        <ele>862.40002441406</ele>
        <time>2019-02-16T09:54:02.000Z</time>
      </trkpt>
      <trkpt lat="43.97129" lon="7.08459">
        <ele>863.20001220703</ele>
        <time>2019-02-16T09:54:09.000Z</time>
      </trkpt>
      <trkpt lat="43.97134" lon="7.08457">
        <ele>863.40002441406</ele>
        <time>2019-02-16T09:54:14.000Z</time>
      </trkpt>
      <trkpt lat="43.97138" lon="7.08455">
        <ele>864.20001220703</ele>
        <time>2019-02-16T09:54:18.000Z</time>
      </trkpt>
      <trkpt lat="43.97139" lon="7.08454">
        <ele>864.59997558594</ele>
        <time>2019-02-16T09:54:20.000Z</time>
      </trkpt>
      <trkpt lat="43.9714" lon="7.08453">
        <ele>864.79998779297</ele>
        <time>2019-02-16T09:54:21.000Z</time>
      </trkpt>
      <trkpt lat="43.97142" lon="7.08452">
        <ele>865.40002441406</ele>
        <time>2019-02-16T09:54:23.000Z</time>
      </trkpt>
      <trkpt lat="43.97144" lon="7.08451">
        <ele>865.79998779297</ele>
        <time>2019-02-16T09:54:25.000Z</time>
      </trkpt>
      <trkpt lat="43.97145" lon="7.0845">
        <ele>866.40002441406</ele>
        <time>2019-02-16T09:54:27.000Z</time>
      </trkpt>
      <trkpt lat="43.97147" lon="7.08449">
        <ele>867.20001220703</ele>
        <time>2019-02-16T09:54:29.000Z</time>
      </trkpt>
      <trkpt lat="43.97149" lon="7.08449">
        <ele>867.59997558594</ele>
        <time>2019-02-16T09:54:31.000Z</time>
      </trkpt>
      <trkpt lat="43.97151" lon="7.08448">
        <ele>867.59997558594</ele>
        <time>2019-02-16T09:54:32.000Z</time>
      </trkpt>
      <trkpt lat="43.97156" lon="7.08443">
        <ele>868.20001220703</ele>
        <time>2019-02-16T09:54:36.000Z</time>
      </trkpt>
      <trkpt lat="43.97158" lon="7.0844">
        <ele>869</ele>
        <time>2019-02-16T09:54:38.000Z</time>
      </trkpt>
      <trkpt lat="43.97161" lon="7.08438">
        <ele>870</ele>
        <time>2019-02-16T09:54:41.000Z</time>
      </trkpt>
      <trkpt lat="43.97166" lon="7.08438">
        <ele>871.20001220703</ele>
        <time>2019-02-16T09:54:45.000Z</time>
      </trkpt>
      <trkpt lat="43.97168" lon="7.08439">
        <ele>871.40002441406</ele>
        <time>2019-02-16T09:54:47.000Z</time>
      </trkpt>
      <trkpt lat="43.97175" lon="7.08441">
        <ele>872</ele>
        <time>2019-02-16T09:54:54.000Z</time>
      </trkpt>
      <trkpt lat="43.97178" lon="7.08441">
        <ele>872.20001220703</ele>
        <time>2019-02-16T09:54:56.000Z</time>
      </trkpt>
      <trkpt lat="43.97182" lon="7.08442">
        <ele>872.40002441406</ele>
        <time>2019-02-16T09:54:59.000Z</time>
      </trkpt>
      <trkpt lat="43.97186" lon="7.08444">
        <ele>873.20001220703</ele>
        <time>2019-02-16T09:55:03.000Z</time>
      </trkpt>
      <trkpt lat="43.97187" lon="7.08444">
        <ele>873.20001220703</ele>
        <time>2019-02-16T09:55:04.000Z</time>
      </trkpt>
      <trkpt lat="43.97193" lon="7.08448">
        <ele>874.20001220703</ele>
        <time>2019-02-16T09:55:10.000Z</time>
      </trkpt>
      <trkpt lat="43.97197" lon="7.0845">
        <ele>875.59997558594</ele>
        <time>2019-02-16T09:55:15.000Z</time>
      </trkpt>
      <trkpt lat="43.972" lon="7.0845">
        <ele>876.79998779297</ele>
        <time>2019-02-16T09:55:20.000Z</time>
      </trkpt>
      <trkpt lat="43.97203" lon="7.08449">
        <ele>877.79998779297</ele>
        <time>2019-02-16T09:55:24.000Z</time>
      </trkpt>
      <trkpt lat="43.97204" lon="7.08448">
        <ele>878</ele>
        <time>2019-02-16T09:55:25.000Z</time>
      </trkpt>
      <trkpt lat="43.97208" lon="7.08445">
        <ele>878.79998779297</ele>
        <time>2019-02-16T09:55:29.000Z</time>
      </trkpt>
      <trkpt lat="43.97211" lon="7.08442">
        <ele>879.59997558594</ele>
        <time>2019-02-16T09:55:32.000Z</time>
      </trkpt>
      <trkpt lat="43.97212" lon="7.08441">
        <ele>880</ele>
        <time>2019-02-16T09:55:33.000Z</time>
      </trkpt>
      <trkpt lat="43.97218" lon="7.08436">
        <ele>880.59997558594</ele>
        <time>2019-02-16T09:55:37.000Z</time>
      </trkpt>
      <trkpt lat="43.9722" lon="7.08435">
        <ele>881.20001220703</ele>
        <time>2019-02-16T09:55:39.000Z</time>
      </trkpt>
      <trkpt lat="43.97223" lon="7.08432">
        <ele>882.20001220703</ele>
        <time>2019-02-16T09:55:42.000Z</time>
      </trkpt>
      <trkpt lat="43.97225" lon="7.0843">
        <ele>882.40002441406</ele>
        <time>2019-02-16T09:55:43.000Z</time>
      </trkpt>
      <trkpt lat="43.97231" lon="7.08427">
        <ele>883</ele>
        <time>2019-02-16T09:55:48.000Z</time>
      </trkpt>
      <trkpt lat="43.97234" lon="7.08427">
        <ele>883.40002441406</ele>
        <time>2019-02-16T09:55:51.000Z</time>
      </trkpt>
      <trkpt lat="43.97236" lon="7.08427">
        <ele>883.40002441406</ele>
        <time>2019-02-16T09:55:52.000Z</time>
      </trkpt>
      <trkpt lat="43.97237" lon="7.08427">
        <ele>883.40002441406</ele>
        <time>2019-02-16T09:55:53.000Z</time>
      </trkpt>
      <trkpt lat="43.9724" lon="7.08427">
        <ele>883.79998779297</ele>
        <time>2019-02-16T09:55:56.000Z</time>
      </trkpt>
      <trkpt lat="43.97244" lon="7.08425">
        <ele>884</ele>
        <time>2019-02-16T09:55:59.000Z</time>
      </trkpt>
      <trkpt lat="43.97247" lon="7.08424">
        <ele>884.59997558594</ele>
        <time>2019-02-16T09:56:01.000Z</time>
      </trkpt>
      <trkpt lat="43.97254" lon="7.08422">
        <ele>885.79998779297</ele>
        <time>2019-02-16T09:56:06.000Z</time>
      </trkpt>
      <trkpt lat="43.97259" lon="7.08422">
        <ele>886.79998779297</ele>
        <time>2019-02-16T09:56:11.000Z</time>
      </trkpt>
      <trkpt lat="43.97258" lon="7.08421">
        <ele>887.20001220703</ele>
        <time>2019-02-16T09:56:12.000Z</time>
      </trkpt>
      <trkpt lat="43.9726" lon="7.08421">
        <ele>888</ele>
        <time>2019-02-16T09:56:16.000Z</time>
      </trkpt>
      <trkpt lat="43.97261" lon="7.08421">
        <ele>888.20001220703</ele>
        <time>2019-02-16T09:56:19.000Z</time>
      </trkpt>
      <trkpt lat="43.97264" lon="7.08419">
        <ele>889</ele>
        <time>2019-02-16T09:56:23.000Z</time>
      </trkpt>
      <trkpt lat="43.97265" lon="7.08418">
        <ele>889.20001220703</ele>
        <time>2019-02-16T09:56:24.000Z</time>
      </trkpt>
      <trkpt lat="43.9727" lon="7.08413">
        <ele>890</ele>
        <time>2019-02-16T09:56:31.000Z</time>
      </trkpt>
      <trkpt lat="43.97271" lon="7.08412">
        <ele>890</ele>
        <time>2019-02-16T09:56:32.000Z</time>
      </trkpt>
      <trkpt lat="43.97274" lon="7.0841">
        <ele>890.59997558594</ele>
        <time>2019-02-16T09:56:37.000Z</time>
      </trkpt>
      <trkpt lat="43.97277" lon="7.08407">
        <ele>891</ele>
        <time>2019-02-16T09:56:41.000Z</time>
      </trkpt>
      <trkpt lat="43.9728" lon="7.08404">
        <ele>891.79998779297</ele>
        <time>2019-02-16T09:56:45.000Z</time>
      </trkpt>
      <trkpt lat="43.97282" lon="7.08402">
        <ele>892.20001220703</ele>
        <time>2019-02-16T09:56:48.000Z</time>
      </trkpt>
      <trkpt lat="43.97284" lon="7.08399">
        <ele>893</ele>
        <time>2019-02-16T09:56:53.000Z</time>
      </trkpt>
      <trkpt lat="43.97289" lon="7.0839">
        <ele>893</ele>
        <time>2019-02-16T09:56:59.000Z</time>
      </trkpt>
      <trkpt lat="43.9729" lon="7.08387">
        <ele>893.40002441406</ele>
        <time>2019-02-16T09:57:01.000Z</time>
      </trkpt>
      <trkpt lat="43.97291" lon="7.08386">
        <ele>893.40002441406</ele>
        <time>2019-02-16T09:57:02.000Z</time>
      </trkpt>
      <trkpt lat="43.97293" lon="7.08381">
        <ele>894</ele>
        <time>2019-02-16T09:57:05.000Z</time>
      </trkpt>
      <trkpt lat="43.97297" lon="7.08373">
        <ele>894.20001220703</ele>
        <time>2019-02-16T09:57:10.000Z</time>
      </trkpt>
      <trkpt lat="43.97298" lon="7.08372">
        <ele>894.40002441406</ele>
        <time>2019-02-16T09:57:11.000Z</time>
      </trkpt>
      <trkpt lat="43.97303" lon="7.08367">
        <ele>895.20001220703</ele>
        <time>2019-02-16T09:57:15.000Z</time>
      </trkpt>
      <trkpt lat="43.97304" lon="7.08366">
        <ele>895.40002441406</ele>
        <time>2019-02-16T09:57:16.000Z</time>
      </trkpt>
      <trkpt lat="43.97305" lon="7.08364">
        <ele>895.59997558594</ele>
        <time>2019-02-16T09:57:17.000Z</time>
      </trkpt>
      <trkpt lat="43.97309" lon="7.08359">
        <ele>896</ele>
        <time>2019-02-16T09:57:21.000Z</time>
      </trkpt>
      <trkpt lat="43.9731" lon="7.08357">
        <ele>896</ele>
        <time>2019-02-16T09:57:22.000Z</time>
      </trkpt>
      <trkpt lat="43.97312" lon="7.08352">
        <ele>896.40002441406</ele>
        <time>2019-02-16T09:57:26.000Z</time>
      </trkpt>
      <trkpt lat="43.97313" lon="7.08351">
        <ele>896.59997558594</ele>
        <time>2019-02-16T09:57:27.000Z</time>
      </trkpt>
      <trkpt lat="43.97317" lon="7.08344">
        <ele>897.59997558594</ele>
        <time>2019-02-16T09:57:32.000Z</time>
      </trkpt>
      <trkpt lat="43.97318" lon="7.08343">
        <ele>897.79998779297</ele>
        <time>2019-02-16T09:57:33.000Z</time>
      </trkpt>
      <trkpt lat="43.97322" lon="7.08337">
        <ele>898.59997558594</ele>
        <time>2019-02-16T09:57:38.000Z</time>
      </trkpt>
      <trkpt lat="43.97323" lon="7.08336">
        <ele>898.79998779297</ele>
        <time>2019-02-16T09:57:39.000Z</time>
      </trkpt>
      <trkpt lat="43.97323" lon="7.08334">
        <ele>899.20001220703</ele>
        <time>2019-02-16T09:57:40.000Z</time>
      </trkpt>
      <trkpt lat="43.97324" lon="7.08329">
        <ele>899.79998779297</ele>
        <time>2019-02-16T09:57:43.000Z</time>
      </trkpt>
      <trkpt lat="43.97325" lon="7.08328">
        <ele>900</ele>
        <time>2019-02-16T09:57:44.000Z</time>
      </trkpt>
      <trkpt lat="43.97325" lon="7.08326">
        <ele>900.20001220703</ele>
        <time>2019-02-16T09:57:45.000Z</time>
      </trkpt>
      <trkpt lat="43.97327" lon="7.08322">
        <ele>901</ele>
        <time>2019-02-16T09:57:48.000Z</time>
      </trkpt>
      <trkpt lat="43.97327" lon="7.08321">
        <ele>901.20001220703</ele>
        <time>2019-02-16T09:57:49.000Z</time>
      </trkpt>
      <trkpt lat="43.97329" lon="7.08318">
        <ele>902.20001220703</ele>
        <time>2019-02-16T09:57:53.000Z</time>
      </trkpt>
      <trkpt lat="43.9733" lon="7.08314">
        <ele>902.59997558594</ele>
        <time>2019-02-16T09:57:59.000Z</time>
      </trkpt>
      <trkpt lat="43.97333" lon="7.08311">
        <ele>903.40002441406</ele>
        <time>2019-02-16T09:58:03.000Z</time>
      </trkpt>
      <trkpt lat="43.97335" lon="7.08308">
        <ele>904.20001220703</ele>
        <time>2019-02-16T09:58:07.000Z</time>
      </trkpt>
      <trkpt lat="43.97335" lon="7.08307">
        <ele>904.40002441406</ele>
        <time>2019-02-16T09:58:08.000Z</time>
      </trkpt>
      <trkpt lat="43.97338" lon="7.08303">
        <ele>905.40002441406</ele>
        <time>2019-02-16T09:58:15.000Z</time>
      </trkpt>
      <trkpt lat="43.97339" lon="7.08301">
        <ele>905.79998779297</ele>
        <time>2019-02-16T09:58:17.000Z</time>
      </trkpt>
      <trkpt lat="43.97341" lon="7.08299">
        <ele>906.59997558594</ele>
        <time>2019-02-16T09:58:21.000Z</time>
      </trkpt>
      <trkpt lat="43.97343" lon="7.08297">
        <ele>907.40002441406</ele>
        <time>2019-02-16T09:58:25.000Z</time>
      </trkpt>
      <trkpt lat="43.97343" lon="7.08296">
        <ele>907.59997558594</ele>
        <time>2019-02-16T09:58:27.000Z</time>
      </trkpt>
      <trkpt lat="43.97345" lon="7.08294">
        <ele>908.40002441406</ele>
        <time>2019-02-16T09:58:32.000Z</time>
      </trkpt>
      <trkpt lat="43.97345" lon="7.08294">
        <ele>908.59997558594</ele>
        <time>2019-02-16T09:58:33.000Z</time>
      </trkpt>
      <trkpt lat="43.97349" lon="7.0829">
        <ele>909.79998779297</ele>
        <time>2019-02-16T09:58:40.000Z</time>
      </trkpt>
      <trkpt lat="43.97349" lon="7.0829">
        <ele>910</ele>
        <time>2019-02-16T09:58:41.000Z</time>
      </trkpt>
      <trkpt lat="43.97352" lon="7.08288">
        <ele>910.79998779297</ele>
        <time>2019-02-16T09:58:46.000Z</time>
      </trkpt>
      <trkpt lat="43.97353" lon="7.08287">
        <ele>911.40002441406</ele>
        <time>2019-02-16T09:58:49.000Z</time>
      </trkpt>
      <trkpt lat="43.97354" lon="7.08284">
        <ele>911.79998779297</ele>
        <time>2019-02-16T09:58:52.000Z</time>
      </trkpt>
      <trkpt lat="43.97356" lon="7.08279">
        <ele>913</ele>
        <time>2019-02-16T09:58:58.000Z</time>
      </trkpt>
      <trkpt lat="43.97358" lon="7.08274">
        <ele>914</ele>
        <time>2019-02-16T09:59:04.000Z</time>
      </trkpt>
      <trkpt lat="43.97359" lon="7.08271">
        <ele>914.40002441406</ele>
        <time>2019-02-16T09:59:07.000Z</time>
      </trkpt>
      <trkpt lat="43.9736" lon="7.08268">
        <ele>915.20001220703</ele>
        <time>2019-02-16T09:59:11.000Z</time>
      </trkpt>
      <trkpt lat="43.97361" lon="7.08263">
        <ele>916.20001220703</ele>
        <time>2019-02-16T09:59:17.000Z</time>
      </trkpt>
      <trkpt lat="43.97362" lon="7.08259">
        <ele>917.20001220703</ele>
        <time>2019-02-16T09:59:23.000Z</time>
      </trkpt>
      <trkpt lat="43.97363" lon="7.08258">
        <ele>917.59997558594</ele>
        <time>2019-02-16T09:59:26.000Z</time>
      </trkpt>
      <trkpt lat="43.97365" lon="7.08253">
        <ele>918.59997558594</ele>
        <time>2019-02-16T09:59:31.000Z</time>
      </trkpt>
      <trkpt lat="43.97366" lon="7.08252">
        <ele>919</ele>
        <time>2019-02-16T09:59:33.000Z</time>
      </trkpt>
      <trkpt lat="43.97367" lon="7.08249">
        <ele>919.59997558594</ele>
        <time>2019-02-16T09:59:37.000Z</time>
      </trkpt>
      <trkpt lat="43.97369" lon="7.08245">
        <ele>920.59997558594</ele>
        <time>2019-02-16T09:59:42.000Z</time>
      </trkpt>
      <trkpt lat="43.97369" lon="7.08244">
        <ele>920.59997558594</ele>
        <time>2019-02-16T09:59:43.000Z</time>
      </trkpt>
      <trkpt lat="43.97368" lon="7.08241">
        <ele>921.79998779297</ele>
        <time>2019-02-16T09:59:50.000Z</time>
      </trkpt>
      <trkpt lat="43.97368" lon="7.08242">
        <ele>922.40002441406</ele>
        <time>2019-02-16T09:59:55.000Z</time>
      </trkpt>
      <trkpt lat="43.97367" lon="7.08243">
        <ele>922.40002441406</ele>
        <time>2019-02-16T09:59:56.000Z</time>
      </trkpt>
      <trkpt lat="43.97365" lon="7.08243">
        <ele>922.40002441406</ele>
        <time>2019-02-16T10:00:04.000Z</time>
      </trkpt>
      <trkpt lat="43.97366" lon="7.08242">
        <ele>923</ele>
        <time>2019-02-16T10:00:11.000Z</time>
      </trkpt>
      <trkpt lat="43.97366" lon="7.08242">
        <ele>922.79998779297</ele>
        <time>2019-02-16T10:00:24.000Z</time>
      </trkpt>
      <trkpt lat="43.97366" lon="7.08241">
        <ele>922.59997558594</ele>
        <time>2019-02-16T10:00:32.000Z</time>
      </trkpt>
      <trkpt lat="43.97367" lon="7.0824">
        <ele>922.79998779297</ele>
        <time>2019-02-16T10:00:39.000Z</time>
      </trkpt>
      <trkpt lat="43.97368" lon="7.0824">
        <ele>923</ele>
        <time>2019-02-16T10:01:02.000Z</time>
      </trkpt>
      <trkpt lat="43.97368" lon="7.0824">
        <ele>923.20001220703</ele>
        <time>2019-02-16T10:01:17.000Z</time>
      </trkpt>
      <trkpt lat="43.97368" lon="7.0824">
        <ele>923</ele>
        <time>2019-02-16T10:01:37.000Z</time>
      </trkpt>
      <trkpt lat="43.97368" lon="7.0824">
        <ele>923</ele>
        <time>2019-02-16T10:01:47.000Z</time>
      </trkpt>
      <trkpt lat="43.97368" lon="7.0824">
        <ele>923</ele>
        <time>2019-02-16T10:01:59.000Z</time>
      </trkpt>
      <trkpt lat="43.97369" lon="7.0824">
        <ele>922.59997558594</ele>
        <time>2019-02-16T10:02:17.000Z</time>
      </trkpt>
      <trkpt lat="43.97369" lon="7.0824">
        <ele>922.59997558594</ele>
        <time>2019-02-16T10:02:35.000Z</time>
      </trkpt>
      <trkpt lat="43.97369" lon="7.08241">
        <ele>922.79998779297</ele>
        <time>2019-02-16T10:02:47.000Z</time>
      </trkpt>
      <trkpt lat="43.9737" lon="7.08241">
        <ele>922.40002441406</ele>
        <time>2019-02-16T10:03:08.000Z</time>
      </trkpt>
      <trkpt lat="43.97371" lon="7.0824">
        <ele>922.40002441406</ele>
        <time>2019-02-16T10:03:19.000Z</time>
      </trkpt>
      <trkpt lat="43.97372" lon="7.0824">
        <ele>922.40002441406</ele>
        <time>2019-02-16T10:03:30.000Z</time>
      </trkpt>
      <trkpt lat="43.97373" lon="7.0824">
        <ele>922.40002441406</ele>
        <time>2019-02-16T10:03:42.000Z</time>
      </trkpt>
      <trkpt lat="43.97377" lon="7.08238">
        <ele>922.20001220703</ele>
        <time>2019-02-16T10:03:55.000Z</time>
      </trkpt>
      <trkpt lat="43.97376" lon="7.08238">
        <ele>922.20001220703</ele>
        <time>2019-02-16T10:04:07.000Z</time>
      </trkpt>
      <trkpt lat="43.97375" lon="7.08239">
        <ele>922.59997558594</ele>
        <time>2019-02-16T10:04:17.000Z</time>
      </trkpt>
      <trkpt lat="43.97374" lon="7.08239">
        <ele>922.20001220703</ele>
        <time>2019-02-16T10:04:31.000Z</time>
      </trkpt>
      <trkpt lat="43.97376" lon="7.08239">
        <ele>922.20001220703</ele>
        <time>2019-02-16T10:04:45.000Z</time>
      </trkpt>
      <trkpt lat="43.97379" lon="7.08238">
        <ele>922.20001220703</ele>
        <time>2019-02-16T10:04:57.000Z</time>
      </trkpt>
      <trkpt lat="43.9738" lon="7.08238">
        <ele>922.20001220703</ele>
        <time>2019-02-16T10:05:10.000Z</time>
      </trkpt>
      <trkpt lat="43.97379" lon="7.08239">
        <ele>922</ele>
        <time>2019-02-16T10:05:28.000Z</time>
      </trkpt>
      <trkpt lat="43.97377" lon="7.08239">
        <ele>922.20001220703</ele>
        <time>2019-02-16T10:05:36.000Z</time>
      </trkpt>
      <trkpt lat="43.97375" lon="7.0824">
        <ele>922.59997558594</ele>
        <time>2019-02-16T10:05:48.000Z</time>
      </trkpt>
      <trkpt lat="43.97375" lon="7.0824">
        <ele>922.79998779297</ele>
        <time>2019-02-16T10:05:59.000Z</time>
      </trkpt>
      <trkpt lat="43.97375" lon="7.08238">
        <ele>922.20001220703</ele>
        <time>2019-02-16T10:06:05.000Z</time>
      </trkpt>
      <trkpt lat="43.97374" lon="7.0824">
        <ele>922</ele>
        <time>2019-02-16T10:06:10.000Z</time>
      </trkpt>
      <trkpt lat="43.97372" lon="7.08242">
        <ele>922.59997558594</ele>
        <time>2019-02-16T10:06:16.000Z</time>
      </trkpt>
      <trkpt lat="43.97371" lon="7.08243">
        <ele>922.79998779297</ele>
        <time>2019-02-16T10:06:19.000Z</time>
      </trkpt>
      <trkpt lat="43.97369" lon="7.08245">
        <ele>922.79998779297</ele>
        <time>2019-02-16T10:06:21.000Z</time>
      </trkpt>
      <trkpt lat="43.97361" lon="7.08249">
        <ele>923.20001220703</ele>
        <time>2019-02-16T10:06:27.000Z</time>
      </trkpt>
      <trkpt lat="43.97354" lon="7.08257">
        <ele>924</ele>
        <time>2019-02-16T10:06:33.000Z</time>
      </trkpt>
      <trkpt lat="43.97346" lon="7.0826">
        <ele>925.20001220703</ele>
        <time>2019-02-16T10:06:39.000Z</time>
      </trkpt>
      <trkpt lat="43.97345" lon="7.08261">
        <ele>925.40002441406</ele>
        <time>2019-02-16T10:06:40.000Z</time>
      </trkpt>
      <trkpt lat="43.97339" lon="7.08261">
        <ele>926.40002441406</ele>
        <time>2019-02-16T10:06:44.000Z</time>
      </trkpt>
      <trkpt lat="43.97337" lon="7.08262">
        <ele>927</ele>
        <time>2019-02-16T10:06:46.000Z</time>
      </trkpt>
      <trkpt lat="43.97333" lon="7.08262">
        <ele>927.59997558594</ele>
        <time>2019-02-16T10:06:49.000Z</time>
      </trkpt>
      <trkpt lat="43.97328" lon="7.08263">
        <ele>928.79998779297</ele>
        <time>2019-02-16T10:06:53.000Z</time>
      </trkpt>
      <trkpt lat="43.97322" lon="7.08263">
        <ele>929.79998779297</ele>
        <time>2019-02-16T10:06:58.000Z</time>
      </trkpt>
      <trkpt lat="43.97319" lon="7.08262">
        <ele>930.59997558594</ele>
        <time>2019-02-16T10:07:01.000Z</time>
      </trkpt>
      <trkpt lat="43.97316" lon="7.08262">
        <ele>931.20001220703</ele>
        <time>2019-02-16T10:07:03.000Z</time>
      </trkpt>
      <trkpt lat="43.97311" lon="7.08263">
        <ele>932.20001220703</ele>
        <time>2019-02-16T10:07:07.000Z</time>
      </trkpt>
      <trkpt lat="43.97305" lon="7.08264">
        <ele>933.40002441406</ele>
        <time>2019-02-16T10:07:12.000Z</time>
      </trkpt>
      <trkpt lat="43.97303" lon="7.08265">
        <ele>933.79998779297</ele>
        <time>2019-02-16T10:07:14.000Z</time>
      </trkpt>
      <trkpt lat="43.97302" lon="7.08266">
        <ele>934.40002441406</ele>
        <time>2019-02-16T10:07:16.000Z</time>
      </trkpt>
      <trkpt lat="43.97298" lon="7.08269">
        <ele>935.40002441406</ele>
        <time>2019-02-16T10:07:20.000Z</time>
      </trkpt>
      <trkpt lat="43.97297" lon="7.0827">
        <ele>935.59997558594</ele>
        <time>2019-02-16T10:07:21.000Z</time>
      </trkpt>
      <trkpt lat="43.97291" lon="7.08274">
        <ele>936.40002441406</ele>
        <time>2019-02-16T10:07:27.000Z</time>
      </trkpt>
      <trkpt lat="43.9729" lon="7.08275">
        <ele>936.59997558594</ele>
        <time>2019-02-16T10:07:28.000Z</time>
      </trkpt>
      <trkpt lat="43.97285" lon="7.08283">
        <ele>937.59997558594</ele>
        <time>2019-02-16T10:07:34.000Z</time>
      </trkpt>
      <trkpt lat="43.97283" lon="7.08286">
        <ele>938</ele>
        <time>2019-02-16T10:07:36.000Z</time>
      </trkpt>
      <trkpt lat="43.97281" lon="7.08293">
        <ele>938.59997558594</ele>
        <time>2019-02-16T10:07:40.000Z</time>
      </trkpt>
      <trkpt lat="43.97278" lon="7.08299">
        <ele>939.40002441406</ele>
        <time>2019-02-16T10:07:44.000Z</time>
      </trkpt>
      <trkpt lat="43.97277" lon="7.08301">
        <ele>939.79998779297</ele>
        <time>2019-02-16T10:07:45.000Z</time>
      </trkpt>
      <trkpt lat="43.97276" lon="7.08302">
        <ele>939.79998779297</ele>
        <time>2019-02-16T10:07:46.000Z</time>
      </trkpt>
      <trkpt lat="43.97273" lon="7.08298">
        <ele>940.20001220703</ele>
        <time>2019-02-16T10:07:49.000Z</time>
      </trkpt>
      <trkpt lat="43.97273" lon="7.08295">
        <ele>940.40002441406</ele>
        <time>2019-02-16T10:07:51.000Z</time>
      </trkpt>
      <trkpt lat="43.97273" lon="7.08292">
        <ele>940.79998779297</ele>
        <time>2019-02-16T10:07:53.000Z</time>
      </trkpt>
      <trkpt lat="43.97273" lon="7.0829">
        <ele>941.20001220703</ele>
        <time>2019-02-16T10:07:55.000Z</time>
      </trkpt>
      <trkpt lat="43.97273" lon="7.08286">
        <ele>941.59997558594</ele>
        <time>2019-02-16T10:07:57.000Z</time>
      </trkpt>
      <trkpt lat="43.97274" lon="7.08283">
        <ele>941.79998779297</ele>
        <time>2019-02-16T10:07:59.000Z</time>
      </trkpt>
      <trkpt lat="43.97274" lon="7.0828">
        <ele>942.20001220703</ele>
        <time>2019-02-16T10:08:01.000Z</time>
      </trkpt>
      <trkpt lat="43.97274" lon="7.08277">
        <ele>942.59997558594</ele>
        <time>2019-02-16T10:08:03.000Z</time>
      </trkpt>
      <trkpt lat="43.97274" lon="7.08275">
        <ele>942.79998779297</ele>
        <time>2019-02-16T10:08:04.000Z</time>
      </trkpt>
      <trkpt lat="43.97276" lon="7.08271">
        <ele>943.40002441406</ele>
        <time>2019-02-16T10:08:07.000Z</time>
      </trkpt>
      <trkpt lat="43.97276" lon="7.08266">
        <ele>944</ele>
        <time>2019-02-16T10:08:10.000Z</time>
      </trkpt>
      <trkpt lat="43.97277" lon="7.08264">
        <ele>944.20001220703</ele>
        <time>2019-02-16T10:08:11.000Z</time>
      </trkpt>
      <trkpt lat="43.97277" lon="7.08261">
        <ele>944.59997558594</ele>
        <time>2019-02-16T10:08:13.000Z</time>
      </trkpt>
      <trkpt lat="43.97279" lon="7.08257">
        <ele>945.20001220703</ele>
        <time>2019-02-16T10:08:16.000Z</time>
      </trkpt>
      <trkpt lat="43.97281" lon="7.08249">
        <ele>946.20001220703</ele>
        <time>2019-02-16T10:08:21.000Z</time>
      </trkpt>
      <trkpt lat="43.97282" lon="7.08248">
        <ele>946.40002441406</ele>
        <time>2019-02-16T10:08:22.000Z</time>
      </trkpt>
      <trkpt lat="43.97284" lon="7.08241">
        <ele>947.40002441406</ele>
        <time>2019-02-16T10:08:26.000Z</time>
      </trkpt>
      <trkpt lat="43.97285" lon="7.0824">
        <ele>947.59997558594</ele>
        <time>2019-02-16T10:08:27.000Z</time>
      </trkpt>
      <trkpt lat="43.97285" lon="7.08236">
        <ele>948.40002441406</ele>
        <time>2019-02-16T10:08:30.000Z</time>
      </trkpt>
      <trkpt lat="43.97286" lon="7.08232">
        <ele>949.40002441406</ele>
        <time>2019-02-16T10:08:33.000Z</time>
      </trkpt>
      <trkpt lat="43.97286" lon="7.08231">
        <ele>949.59997558594</ele>
        <time>2019-02-16T10:08:34.000Z</time>
      </trkpt>
      <trkpt lat="43.97287" lon="7.08227">
        <ele>950.40002441406</ele>
        <time>2019-02-16T10:08:38.000Z</time>
      </trkpt>
      <trkpt lat="43.97287" lon="7.08226">
        <ele>950.79998779297</ele>
        <time>2019-02-16T10:08:39.000Z</time>
      </trkpt>
      <trkpt lat="43.97288" lon="7.08219">
        <ele>952</ele>
        <time>2019-02-16T10:08:44.000Z</time>
      </trkpt>
      <trkpt lat="43.97288" lon="7.08215">
        <ele>952.59997558594</ele>
        <time>2019-02-16T10:08:47.000Z</time>
      </trkpt>
      <trkpt lat="43.97289" lon="7.08211">
        <ele>953</ele>
        <time>2019-02-16T10:08:50.000Z</time>
      </trkpt>
      <trkpt lat="43.97288" lon="7.08209">
        <ele>953.20001220703</ele>
        <time>2019-02-16T10:08:51.000Z</time>
      </trkpt>
      <trkpt lat="43.97287" lon="7.08205">
        <ele>953.59997558594</ele>
        <time>2019-02-16T10:08:54.000Z</time>
      </trkpt>
      <trkpt lat="43.97286" lon="7.08199">
        <ele>954</ele>
        <time>2019-02-16T10:08:57.000Z</time>
      </trkpt>
      <trkpt lat="43.97285" lon="7.08194">
        <ele>954.40002441406</ele>
        <time>2019-02-16T10:09:00.000Z</time>
      </trkpt>
      <trkpt lat="43.97285" lon="7.08189">
        <ele>955</ele>
        <time>2019-02-16T10:09:03.000Z</time>
      </trkpt>
      <trkpt lat="43.97285" lon="7.08185">
        <ele>955.20001220703</ele>
        <time>2019-02-16T10:09:05.000Z</time>
      </trkpt>
      <trkpt lat="43.97286" lon="7.08179">
        <ele>955.59997558594</ele>
        <time>2019-02-16T10:09:08.000Z</time>
      </trkpt>
      <trkpt lat="43.97287" lon="7.08172">
        <ele>956</ele>
        <time>2019-02-16T10:09:11.000Z</time>
      </trkpt>
      <trkpt lat="43.97288" lon="7.08168">
        <ele>956.40002441406</ele>
        <time>2019-02-16T10:09:13.000Z</time>
      </trkpt>
      <trkpt lat="43.97286" lon="7.08163">
        <ele>956.79998779297</ele>
        <time>2019-02-16T10:09:16.000Z</time>
      </trkpt>
      <trkpt lat="43.97285" lon="7.08161">
        <ele>957</ele>
        <time>2019-02-16T10:09:17.000Z</time>
      </trkpt>
      <trkpt lat="43.97281" lon="7.08159">
        <ele>957.40002441406</ele>
        <time>2019-02-16T10:09:19.000Z</time>
      </trkpt>
      <trkpt lat="43.97278" lon="7.0816">
        <ele>957.59997558594</ele>
        <time>2019-02-16T10:09:21.000Z</time>
      </trkpt>
      <trkpt lat="43.97276" lon="7.0816">
        <ele>957.59997558594</ele>
        <time>2019-02-16T10:09:22.000Z</time>
      </trkpt>
      <trkpt lat="43.97271" lon="7.08161">
        <ele>958.40002441406</ele>
        <time>2019-02-16T10:09:25.000Z</time>
      </trkpt>
      <trkpt lat="43.97268" lon="7.08157">
        <ele>959.20001220703</ele>
        <time>2019-02-16T10:09:28.000Z</time>
      </trkpt>
      <trkpt lat="43.97269" lon="7.08151">
        <ele>959.59997558594</ele>
        <time>2019-02-16T10:09:31.000Z</time>
      </trkpt>
      <trkpt lat="43.9727" lon="7.08149">
        <ele>959.59997558594</ele>
        <time>2019-02-16T10:09:32.000Z</time>
      </trkpt>
      <trkpt lat="43.97275" lon="7.08138">
        <ele>960.59997558594</ele>
        <time>2019-02-16T10:09:39.000Z</time>
      </trkpt>
      <trkpt lat="43.97276" lon="7.08137">
        <ele>960.79998779297</ele>
        <time>2019-02-16T10:09:40.000Z</time>
      </trkpt>
      <trkpt lat="43.97281" lon="7.08127">
        <ele>961.79998779297</ele>
        <time>2019-02-16T10:09:46.000Z</time>
      </trkpt>
      <trkpt lat="43.97288" lon="7.08125">
        <ele>962.20001220703</ele>
        <time>2019-02-16T10:09:51.000Z</time>
      </trkpt>
      <trkpt lat="43.97291" lon="7.08128">
        <ele>963</ele>
        <time>2019-02-16T10:09:54.000Z</time>
      </trkpt>
      <trkpt lat="43.97293" lon="7.08132">
        <ele>963.79998779297</ele>
        <time>2019-02-16T10:09:57.000Z</time>
      </trkpt>
      <trkpt lat="43.97294" lon="7.08133">
        <ele>964.20001220703</ele>
        <time>2019-02-16T10:09:58.000Z</time>
      </trkpt>
      <trkpt lat="43.97298" lon="7.0814">
        <ele>965.40002441406</ele>
        <time>2019-02-16T10:10:03.000Z</time>
      </trkpt>
      <trkpt lat="43.97298" lon="7.08141">
        <ele>965.59997558594</ele>
        <time>2019-02-16T10:10:04.000Z</time>
      </trkpt>
      <trkpt lat="43.97304" lon="7.08146">
        <ele>966.40002441406</ele>
        <time>2019-02-16T10:10:10.000Z</time>
      </trkpt>
      <trkpt lat="43.97306" lon="7.08147">
        <ele>966.59997558594</ele>
        <time>2019-02-16T10:10:11.000Z</time>
      </trkpt>
      <trkpt lat="43.97312" lon="7.0815">
        <ele>967.40002441406</ele>
        <time>2019-02-16T10:10:16.000Z</time>
      </trkpt>
      <trkpt lat="43.97313" lon="7.0815">
        <ele>967.59997558594</ele>
        <time>2019-02-16T10:10:17.000Z</time>
      </trkpt>
      <trkpt lat="43.9732" lon="7.08153">
        <ele>968.59997558594</ele>
        <time>2019-02-16T10:10:22.000Z</time>
      </trkpt>
      <trkpt lat="43.97321" lon="7.08154">
        <ele>968.79998779297</ele>
        <time>2019-02-16T10:10:23.000Z</time>
      </trkpt>
      <trkpt lat="43.97323" lon="7.08158">
        <ele>969.59997558594</ele>
        <time>2019-02-16T10:10:26.000Z</time>
      </trkpt>
      <trkpt lat="43.97325" lon="7.08163">
        <ele>970</ele>
        <time>2019-02-16T10:10:29.000Z</time>
      </trkpt>
      <trkpt lat="43.97326" lon="7.08168">
        <ele>970.79998779297</ele>
        <time>2019-02-16T10:10:32.000Z</time>
      </trkpt>
      <trkpt lat="43.97331" lon="7.08173">
        <ele>971.59997558594</ele>
        <time>2019-02-16T10:10:37.000Z</time>
      </trkpt>
      <trkpt lat="43.97332" lon="7.08173">
        <ele>971.79998779297</ele>
        <time>2019-02-16T10:10:38.000Z</time>
      </trkpt>
      <trkpt lat="43.97333" lon="7.08172">
        <ele>971.79998779297</ele>
        <time>2019-02-16T10:10:39.000Z</time>
      </trkpt>
      <trkpt lat="43.97335" lon="7.08166">
        <ele>972.20001220703</ele>
        <time>2019-02-16T10:10:42.000Z</time>
      </trkpt>
      <trkpt lat="43.97334" lon="7.0816">
        <ele>972.59997558594</ele>
        <time>2019-02-16T10:10:45.000Z</time>
      </trkpt>
      <trkpt lat="43.97334" lon="7.08158">
        <ele>973</ele>
        <time>2019-02-16T10:10:46.000Z</time>
      </trkpt>
      <trkpt lat="43.97334" lon="7.08151">
        <ele>973.79998779297</ele>
        <time>2019-02-16T10:10:49.000Z</time>
      </trkpt>
      <trkpt lat="43.97334" lon="7.08145">
        <ele>974</ele>
        <time>2019-02-16T10:10:52.000Z</time>
      </trkpt>
      <trkpt lat="43.97334" lon="7.08139">
        <ele>974.59997558594</ele>
        <time>2019-02-16T10:10:55.000Z</time>
      </trkpt>
      <trkpt lat="43.97335" lon="7.08135">
        <ele>975.20001220703</ele>
        <time>2019-02-16T10:10:58.000Z</time>
      </trkpt>
      <trkpt lat="43.97338" lon="7.08128">
        <ele>976.40002441406</ele>
        <time>2019-02-16T10:11:03.000Z</time>
      </trkpt>
      <trkpt lat="43.97339" lon="7.08121">
        <ele>977.40002441406</ele>
        <time>2019-02-16T10:11:08.000Z</time>
      </trkpt>
      <trkpt lat="43.97339" lon="7.08119">
        <ele>977.59997558594</ele>
        <time>2019-02-16T10:11:09.000Z</time>
      </trkpt>
      <trkpt lat="43.97339" lon="7.08109">
        <ele>978.59997558594</ele>
        <time>2019-02-16T10:11:15.000Z</time>
      </trkpt>
      <trkpt lat="43.97338" lon="7.08107">
        <ele>978.79998779297</ele>
        <time>2019-02-16T10:11:16.000Z</time>
      </trkpt>
      <trkpt lat="43.97338" lon="7.08103">
        <ele>979.79998779297</ele>
        <time>2019-02-16T10:11:19.000Z</time>
      </trkpt>
      <trkpt lat="43.97337" lon="7.08098">
        <ele>980.59997558594</ele>
        <time>2019-02-16T10:11:22.000Z</time>
      </trkpt>
      <trkpt lat="43.97337" lon="7.08096">
        <ele>981</ele>
        <time>2019-02-16T10:11:24.000Z</time>
      </trkpt>
      <trkpt lat="43.97337" lon="7.08091">
        <ele>981.59997558594</ele>
        <time>2019-02-16T10:11:28.000Z</time>
      </trkpt>
      <trkpt lat="43.97336" lon="7.08088">
        <ele>982</ele>
        <time>2019-02-16T10:11:30.000Z</time>
      </trkpt>
      <trkpt lat="43.97336" lon="7.08084">
        <ele>982.59997558594</ele>
        <time>2019-02-16T10:11:33.000Z</time>
      </trkpt>
      <trkpt lat="43.97335" lon="7.0808">
        <ele>983.20001220703</ele>
        <time>2019-02-16T10:11:36.000Z</time>
      </trkpt>
      <trkpt lat="43.97335" lon="7.08078">
        <ele>983.40002441406</ele>
        <time>2019-02-16T10:11:37.000Z</time>
      </trkpt>
      <trkpt lat="43.97335" lon="7.08077">
        <ele>983.59997558594</ele>
        <time>2019-02-16T10:11:38.000Z</time>
      </trkpt>
      <trkpt lat="43.97334" lon="7.08072">
        <ele>984.20001220703</ele>
        <time>2019-02-16T10:11:41.000Z</time>
      </trkpt>
      <trkpt lat="43.97333" lon="7.08066">
        <ele>985</ele>
        <time>2019-02-16T10:11:45.000Z</time>
      </trkpt>
      <trkpt lat="43.97332" lon="7.08062">
        <ele>985.40002441406</ele>
        <time>2019-02-16T10:11:47.000Z</time>
      </trkpt>
      <trkpt lat="43.97333" lon="7.08057">
        <ele>985.59997558594</ele>
        <time>2019-02-16T10:11:50.000Z</time>
      </trkpt>
      <trkpt lat="43.97334" lon="7.08054">
        <ele>985.79998779297</ele>
        <time>2019-02-16T10:11:52.000Z</time>
      </trkpt>
      <trkpt lat="43.97336" lon="7.08051">
        <ele>986.40002441406</ele>
        <time>2019-02-16T10:11:55.000Z</time>
      </trkpt>
      <trkpt lat="43.97339" lon="7.08048">
        <ele>986.79998779297</ele>
        <time>2019-02-16T10:11:58.000Z</time>
      </trkpt>
      <trkpt lat="43.97342" lon="7.08049">
        <ele>987.20001220703</ele>
        <time>2019-02-16T10:12:00.000Z</time>
      </trkpt>
      <trkpt lat="43.97344" lon="7.0805">
        <ele>987.59997558594</ele>
        <time>2019-02-16T10:12:02.000Z</time>
      </trkpt>
      <trkpt lat="43.97345" lon="7.08053">
        <ele>988</ele>
        <time>2019-02-16T10:12:04.000Z</time>
      </trkpt>
      <trkpt lat="43.97348" lon="7.08059">
        <ele>988.59997558594</ele>
        <time>2019-02-16T10:12:08.000Z</time>
      </trkpt>
      <trkpt lat="43.97349" lon="7.08061">
        <ele>988.79998779297</ele>
        <time>2019-02-16T10:12:10.000Z</time>
      </trkpt>
      <trkpt lat="43.97353" lon="7.08069">
        <ele>989.59997558594</ele>
        <time>2019-02-16T10:12:16.000Z</time>
      </trkpt>
      <trkpt lat="43.97355" lon="7.08071">
        <ele>990</ele>
        <time>2019-02-16T10:12:18.000Z</time>
      </trkpt>
      <trkpt lat="43.9736" lon="7.08073">
        <ele>990.79998779297</ele>
        <time>2019-02-16T10:12:23.000Z</time>
      </trkpt>
      <trkpt lat="43.97363" lon="7.08076">
        <ele>991.59997558594</ele>
        <time>2019-02-16T10:12:26.000Z</time>
      </trkpt>
      <trkpt lat="43.97365" lon="7.08077">
        <ele>992</ele>
        <time>2019-02-16T10:12:28.000Z</time>
      </trkpt>
      <trkpt lat="43.9737" lon="7.08081">
        <ele>993</ele>
        <time>2019-02-16T10:12:33.000Z</time>
      </trkpt>
      <trkpt lat="43.97373" lon="7.08083">
        <ele>993.40002441406</ele>
        <time>2019-02-16T10:12:36.000Z</time>
      </trkpt>
      <trkpt lat="43.97378" lon="7.08086">
        <ele>994</ele>
        <time>2019-02-16T10:12:40.000Z</time>
      </trkpt>
      <trkpt lat="43.97381" lon="7.08086">
        <ele>994.79998779297</ele>
        <time>2019-02-16T10:12:43.000Z</time>
      </trkpt>
      <trkpt lat="43.97382" lon="7.08086">
        <ele>995.20001220703</ele>
        <time>2019-02-16T10:12:44.000Z</time>
      </trkpt>
      <trkpt lat="43.97386" lon="7.08085">
        <ele>996.20001220703</ele>
        <time>2019-02-16T10:12:48.000Z</time>
      </trkpt>
      <trkpt lat="43.97386" lon="7.08085">
        <ele>996.40002441406</ele>
        <time>2019-02-16T10:12:49.000Z</time>
      </trkpt>
      <trkpt lat="43.97387" lon="7.08084">
        <ele>996.59997558594</ele>
        <time>2019-02-16T10:12:50.000Z</time>
      </trkpt>
      <trkpt lat="43.97387" lon="7.0808">
        <ele>997</ele>
        <time>2019-02-16T10:12:53.000Z</time>
      </trkpt>
      <trkpt lat="43.97386" lon="7.08079">
        <ele>997.20001220703</ele>
        <time>2019-02-16T10:12:54.000Z</time>
      </trkpt>
      <trkpt lat="43.97385" lon="7.08078">
        <ele>997.20001220703</ele>
        <time>2019-02-16T10:12:55.000Z</time>
      </trkpt>
      <trkpt lat="43.97379" lon="7.08074">
        <ele>997.79998779297</ele>
        <time>2019-02-16T10:13:00.000Z</time>
      </trkpt>
      <trkpt lat="43.97376" lon="7.08069">
        <ele>998.40002441406</ele>
        <time>2019-02-16T10:13:05.000Z</time>
      </trkpt>
      <trkpt lat="43.97374" lon="7.08065">
        <ele>998.79998779297</ele>
        <time>2019-02-16T10:13:08.000Z</time>
      </trkpt>
      <trkpt lat="43.97371" lon="7.0806">
        <ele>999.40002441406</ele>
        <time>2019-02-16T10:13:12.000Z</time>
      </trkpt>
      <trkpt lat="43.97371" lon="7.08058">
        <ele>999.59997558594</ele>
        <time>2019-02-16T10:13:13.000Z</time>
      </trkpt>
      <trkpt lat="43.9737" lon="7.08055">
        <ele>1000.200012207</ele>
        <time>2019-02-16T10:13:15.000Z</time>
      </trkpt>
      <trkpt lat="43.97369" lon="7.0805">
        <ele>1000.799987793</ele>
        <time>2019-02-16T10:13:18.000Z</time>
      </trkpt>
      <trkpt lat="43.97369" lon="7.08045">
        <ele>1001.200012207</ele>
        <time>2019-02-16T10:13:21.000Z</time>
      </trkpt>
      <trkpt lat="43.97369" lon="7.08044">
        <ele>1001.5999755859</ele>
        <time>2019-02-16T10:13:22.000Z</time>
      </trkpt>
      <trkpt lat="43.97368" lon="7.08042">
        <ele>1001.799987793</ele>
        <time>2019-02-16T10:13:23.000Z</time>
      </trkpt>
      <trkpt lat="43.97368" lon="7.08036">
        <ele>1002.799987793</ele>
        <time>2019-02-16T10:13:27.000Z</time>
      </trkpt>
      <trkpt lat="43.97368" lon="7.08035">
        <ele>1003.200012207</ele>
        <time>2019-02-16T10:13:28.000Z</time>
      </trkpt>
      <trkpt lat="43.97367" lon="7.08028">
        <ele>1003.799987793</ele>
        <time>2019-02-16T10:13:32.000Z</time>
      </trkpt>
      <trkpt lat="43.97367" lon="7.08024">
        <ele>1004.4000244141</ele>
        <time>2019-02-16T10:13:35.000Z</time>
      </trkpt>
      <trkpt lat="43.97367" lon="7.08019">
        <ele>1005</ele>
        <time>2019-02-16T10:13:38.000Z</time>
      </trkpt>
      <trkpt lat="43.97367" lon="7.08016">
        <ele>1005.4000244141</ele>
        <time>2019-02-16T10:13:40.000Z</time>
      </trkpt>
      <trkpt lat="43.97367" lon="7.08013">
        <ele>1005.799987793</ele>
        <time>2019-02-16T10:13:42.000Z</time>
      </trkpt>
      <trkpt lat="43.97368" lon="7.0801">
        <ele>1006.200012207</ele>
        <time>2019-02-16T10:13:44.000Z</time>
      </trkpt>
      <trkpt lat="43.97367" lon="7.08004">
        <ele>1007.200012207</ele>
        <time>2019-02-16T10:13:48.000Z</time>
      </trkpt>
      <trkpt lat="43.97366" lon="7.08002">
        <ele>1007.4000244141</ele>
        <time>2019-02-16T10:13:49.000Z</time>
      </trkpt>
      <trkpt lat="43.97366" lon="7.07992">
        <ele>1008.4000244141</ele>
        <time>2019-02-16T10:13:55.000Z</time>
      </trkpt>
      <trkpt lat="43.97366" lon="7.07991">
        <ele>1008.5999755859</ele>
        <time>2019-02-16T10:13:56.000Z</time>
      </trkpt>
      <trkpt lat="43.97366" lon="7.07989">
        <ele>1008.5999755859</ele>
        <time>2019-02-16T10:13:57.000Z</time>
      </trkpt>
      <trkpt lat="43.97367" lon="7.07979">
        <ele>1009.799987793</ele>
        <time>2019-02-16T10:14:03.000Z</time>
      </trkpt>
      <trkpt lat="43.97367" lon="7.07978">
        <ele>1010</ele>
        <time>2019-02-16T10:14:04.000Z</time>
      </trkpt>
      <trkpt lat="43.97366" lon="7.0797">
        <ele>1010.799987793</ele>
        <time>2019-02-16T10:14:09.000Z</time>
      </trkpt>
      <trkpt lat="43.97364" lon="7.07963">
        <ele>1011.4000244141</ele>
        <time>2019-02-16T10:14:13.000Z</time>
      </trkpt>
      <trkpt lat="43.97361" lon="7.07957">
        <ele>1012</ele>
        <time>2019-02-16T10:14:17.000Z</time>
      </trkpt>
      <trkpt lat="43.97358" lon="7.0795">
        <ele>1012.799987793</ele>
        <time>2019-02-16T10:14:22.000Z</time>
      </trkpt>
      <trkpt lat="43.97357" lon="7.07946">
        <ele>1013.200012207</ele>
        <time>2019-02-16T10:14:24.000Z</time>
      </trkpt>
      <trkpt lat="43.97355" lon="7.07938">
        <ele>1014.4000244141</ele>
        <time>2019-02-16T10:14:30.000Z</time>
      </trkpt>
      <trkpt lat="43.97349" lon="7.07929">
        <ele>1015.4000244141</ele>
        <time>2019-02-16T10:14:37.000Z</time>
      </trkpt>
      <trkpt lat="43.97347" lon="7.07928">
        <ele>1015.4000244141</ele>
        <time>2019-02-16T10:14:38.000Z</time>
      </trkpt>
      <trkpt lat="43.97342" lon="7.07928">
        <ele>1016.200012207</ele>
        <time>2019-02-16T10:14:42.000Z</time>
      </trkpt>
      <trkpt lat="43.9734" lon="7.07929">
        <ele>1016.799987793</ele>
        <time>2019-02-16T10:14:44.000Z</time>
      </trkpt>
      <trkpt lat="43.97336" lon="7.07931">
        <ele>1017.5999755859</ele>
        <time>2019-02-16T10:14:47.000Z</time>
      </trkpt>
      <trkpt lat="43.97335" lon="7.07931">
        <ele>1018</ele>
        <time>2019-02-16T10:14:48.000Z</time>
      </trkpt>
      <trkpt lat="43.9733" lon="7.07932">
        <ele>1018.5999755859</ele>
        <time>2019-02-16T10:14:52.000Z</time>
      </trkpt>
      <trkpt lat="43.97325" lon="7.07933">
        <ele>1019</ele>
        <time>2019-02-16T10:14:56.000Z</time>
      </trkpt>
      <trkpt lat="43.97322" lon="7.07934">
        <ele>1019.5999755859</ele>
        <time>2019-02-16T10:14:59.000Z</time>
      </trkpt>
      <trkpt lat="43.97319" lon="7.07936">
        <ele>1020.4000244141</ele>
        <time>2019-02-16T10:15:02.000Z</time>
      </trkpt>
      <trkpt lat="43.97313" lon="7.0794">
        <ele>1021.4000244141</ele>
        <time>2019-02-16T10:15:07.000Z</time>
      </trkpt>
      <trkpt lat="43.97312" lon="7.07941">
        <ele>1021.5999755859</ele>
        <time>2019-02-16T10:15:08.000Z</time>
      </trkpt>
      <trkpt lat="43.97304" lon="7.07946">
        <ele>1022.200012207</ele>
        <time>2019-02-16T10:15:15.000Z</time>
      </trkpt>
      <trkpt lat="43.97303" lon="7.07945">
        <ele>1022.200012207</ele>
        <time>2019-02-16T10:15:16.000Z</time>
      </trkpt>
      <trkpt lat="43.97302" lon="7.07942">
        <ele>1022.4000244141</ele>
        <time>2019-02-16T10:15:18.000Z</time>
      </trkpt>
      <trkpt lat="43.97302" lon="7.0794">
        <ele>1022.5999755859</ele>
        <time>2019-02-16T10:15:19.000Z</time>
      </trkpt>
      <trkpt lat="43.97306" lon="7.07935">
        <ele>1023.200012207</ele>
        <time>2019-02-16T10:15:23.000Z</time>
      </trkpt>
      <trkpt lat="43.97307" lon="7.07934">
        <ele>1023.4000244141</ele>
        <time>2019-02-16T10:15:24.000Z</time>
      </trkpt>
      <trkpt lat="43.97308" lon="7.07933">
        <ele>1023.4000244141</ele>
        <time>2019-02-16T10:15:25.000Z</time>
      </trkpt>
      <trkpt lat="43.9731" lon="7.0793">
        <ele>1024</ele>
        <time>2019-02-16T10:15:28.000Z</time>
      </trkpt>
      <trkpt lat="43.97311" lon="7.07927">
        <ele>1024.5999755859</ele>
        <time>2019-02-16T10:15:30.000Z</time>
      </trkpt>
      <trkpt lat="43.97314" lon="7.0792">
        <ele>1025.4000244141</ele>
        <time>2019-02-16T10:15:35.000Z</time>
      </trkpt>
      <trkpt lat="43.97315" lon="7.07917">
        <ele>1025.5999755859</ele>
        <time>2019-02-16T10:15:37.000Z</time>
      </trkpt>
      <trkpt lat="43.97317" lon="7.07912">
        <ele>1026.1999511719</ele>
        <time>2019-02-16T10:15:40.000Z</time>
      </trkpt>
      <trkpt lat="43.97318" lon="7.0791">
        <ele>1026.1999511719</ele>
        <time>2019-02-16T10:15:41.000Z</time>
      </trkpt>
      <trkpt lat="43.97319" lon="7.07907">
        <ele>1026.8000488281</ele>
        <time>2019-02-16T10:15:43.000Z</time>
      </trkpt>
      <trkpt lat="43.97322" lon="7.07903">
        <ele>1027.8000488281</ele>
        <time>2019-02-16T10:15:47.000Z</time>
      </trkpt>
      <trkpt lat="43.97322" lon="7.07902">
        <ele>1028.1999511719</ele>
        <time>2019-02-16T10:15:48.000Z</time>
      </trkpt>
      <trkpt lat="43.97325" lon="7.07897">
        <ele>1029</ele>
        <time>2019-02-16T10:15:52.000Z</time>
      </trkpt>
      <trkpt lat="43.97328" lon="7.07893">
        <ele>1029.4000244141</ele>
        <time>2019-02-16T10:15:55.000Z</time>
      </trkpt>
      <trkpt lat="43.9733" lon="7.07889">
        <ele>1030.1999511719</ele>
        <time>2019-02-16T10:15:58.000Z</time>
      </trkpt>
      <trkpt lat="43.97333" lon="7.07884">
        <ele>1031.1999511719</ele>
        <time>2019-02-16T10:16:02.000Z</time>
      </trkpt>
      <trkpt lat="43.97334" lon="7.07883">
        <ele>1031.1999511719</ele>
        <time>2019-02-16T10:16:03.000Z</time>
      </trkpt>
      <trkpt lat="43.97338" lon="7.07876">
        <ele>1032.4000244141</ele>
        <time>2019-02-16T10:16:09.000Z</time>
      </trkpt>
      <trkpt lat="43.97339" lon="7.07875">
        <ele>1032.5999755859</ele>
        <time>2019-02-16T10:16:10.000Z</time>
      </trkpt>
      <trkpt lat="43.97342" lon="7.07869">
        <ele>1033.4000244141</ele>
        <time>2019-02-16T10:16:15.000Z</time>
      </trkpt>
      <trkpt lat="43.97343" lon="7.07869">
        <ele>1033.5999755859</ele>
        <time>2019-02-16T10:16:16.000Z</time>
      </trkpt>
      <trkpt lat="43.97346" lon="7.07863">
        <ele>1034.8000488281</ele>
        <time>2019-02-16T10:16:21.000Z</time>
      </trkpt>
      <trkpt lat="43.97351" lon="7.07858">
        <ele>1035.8000488281</ele>
        <time>2019-02-16T10:16:27.000Z</time>
      </trkpt>
      <trkpt lat="43.97352" lon="7.07858">
        <ele>1036</ele>
        <time>2019-02-16T10:16:28.000Z</time>
      </trkpt>
      <trkpt lat="43.97358" lon="7.0786">
        <ele>1036.4000244141</ele>
        <time>2019-02-16T10:16:33.000Z</time>
      </trkpt>
      <trkpt lat="43.9736" lon="7.07862">
        <ele>1037.1999511719</ele>
        <time>2019-02-16T10:16:36.000Z</time>
      </trkpt>
      <trkpt lat="43.97362" lon="7.07865">
        <ele>1037.8000488281</ele>
        <time>2019-02-16T10:16:39.000Z</time>
      </trkpt>
      <trkpt lat="43.97363" lon="7.07867">
        <ele>1038.4000244141</ele>
        <time>2019-02-16T10:16:41.000Z</time>
      </trkpt>
      <trkpt lat="43.97367" lon="7.07873">
        <ele>1039.4000244141</ele>
        <time>2019-02-16T10:16:47.000Z</time>
      </trkpt>
      <trkpt lat="43.97373" lon="7.07878">
        <ele>1040.5999755859</ele>
        <time>2019-02-16T10:16:53.000Z</time>
      </trkpt>
      <trkpt lat="43.97376" lon="7.07881">
        <ele>1041</ele>
        <time>2019-02-16T10:16:56.000Z</time>
      </trkpt>
      <trkpt lat="43.97379" lon="7.07882">
        <ele>1041.5999755859</ele>
        <time>2019-02-16T10:16:59.000Z</time>
      </trkpt>
      <trkpt lat="43.97382" lon="7.07885">
        <ele>1042.5999755859</ele>
        <time>2019-02-16T10:17:03.000Z</time>
      </trkpt>
      <trkpt lat="43.97388" lon="7.07891">
        <ele>1043.8000488281</ele>
        <time>2019-02-16T10:17:10.000Z</time>
      </trkpt>
      <trkpt lat="43.97393" lon="7.079">
        <ele>1045</ele>
        <time>2019-02-16T10:17:17.000Z</time>
      </trkpt>
      <trkpt lat="43.97394" lon="7.07901">
        <ele>1045.1999511719</ele>
        <time>2019-02-16T10:17:18.000Z</time>
      </trkpt>
      <trkpt lat="43.97396" lon="7.07906">
        <ele>1046</ele>
        <time>2019-02-16T10:17:22.000Z</time>
      </trkpt>
      <trkpt lat="43.97398" lon="7.07909">
        <ele>1046.5999755859</ele>
        <time>2019-02-16T10:17:25.000Z</time>
      </trkpt>
      <trkpt lat="43.97402" lon="7.07909">
        <ele>1047</ele>
        <time>2019-02-16T10:17:28.000Z</time>
      </trkpt>
      <trkpt lat="43.97403" lon="7.07912">
        <ele>1047.4000244141</ele>
        <time>2019-02-16T10:17:30.000Z</time>
      </trkpt>
      <trkpt lat="43.97407" lon="7.07914">
        <ele>1048</ele>
        <time>2019-02-16T10:17:34.000Z</time>
      </trkpt>
      <trkpt lat="43.97409" lon="7.07916">
        <ele>1048.4000244141</ele>
        <time>2019-02-16T10:17:36.000Z</time>
      </trkpt>
      <trkpt lat="43.97413" lon="7.0792">
        <ele>1049.1999511719</ele>
        <time>2019-02-16T10:17:40.000Z</time>
      </trkpt>
      <trkpt lat="43.97414" lon="7.07922">
        <ele>1049.5999755859</ele>
        <time>2019-02-16T10:17:41.000Z</time>
      </trkpt>
      <trkpt lat="43.97416" lon="7.07923">
        <ele>1049.8000488281</ele>
        <time>2019-02-16T10:17:43.000Z</time>
      </trkpt>
      <trkpt lat="43.97418" lon="7.07927">
        <ele>1050.1999511719</ele>
        <time>2019-02-16T10:17:46.000Z</time>
      </trkpt>
      <trkpt lat="43.9742" lon="7.07929">
        <ele>1050.8000488281</ele>
        <time>2019-02-16T10:17:48.000Z</time>
      </trkpt>
      <trkpt lat="43.97421" lon="7.07931">
        <ele>1051</ele>
        <time>2019-02-16T10:17:50.000Z</time>
      </trkpt>
      <trkpt lat="43.97423" lon="7.07933">
        <ele>1051.4000244141</ele>
        <time>2019-02-16T10:17:52.000Z</time>
      </trkpt>
      <trkpt lat="43.97424" lon="7.07934">
        <ele>1051.5999755859</ele>
        <time>2019-02-16T10:17:53.000Z</time>
      </trkpt>
      <trkpt lat="43.97427" lon="7.07938">
        <ele>1052.4000244141</ele>
        <time>2019-02-16T10:17:56.000Z</time>
      </trkpt>
      <trkpt lat="43.9743" lon="7.07941">
        <ele>1053.1999511719</ele>
        <time>2019-02-16T10:17:59.000Z</time>
      </trkpt>
      <trkpt lat="43.97432" lon="7.07943">
        <ele>1053.5999755859</ele>
        <time>2019-02-16T10:18:01.000Z</time>
      </trkpt>
      <trkpt lat="43.97437" lon="7.07944">
        <ele>1054.4000244141</ele>
        <time>2019-02-16T10:18:06.000Z</time>
      </trkpt>
      <trkpt lat="43.97439" lon="7.07943">
        <ele>1054.8000488281</ele>
        <time>2019-02-16T10:18:08.000Z</time>
      </trkpt>
      <trkpt lat="43.97441" lon="7.07943">
        <ele>1055</ele>
        <time>2019-02-16T10:18:10.000Z</time>
      </trkpt>
      <trkpt lat="43.97444" lon="7.07941">
        <ele>1055.5999755859</ele>
        <time>2019-02-16T10:18:13.000Z</time>
      </trkpt>
      <trkpt lat="43.97445" lon="7.0794">
        <ele>1055.8000488281</ele>
        <time>2019-02-16T10:18:14.000Z</time>
      </trkpt>
      <trkpt lat="43.97449" lon="7.07937">
        <ele>1056.8000488281</ele>
        <time>2019-02-16T10:18:19.000Z</time>
      </trkpt>
      <trkpt lat="43.9745" lon="7.07936">
        <ele>1057</ele>
        <time>2019-02-16T10:18:20.000Z</time>
      </trkpt>
      <trkpt lat="43.97452" lon="7.07935">
        <ele>1057.1999511719</ele>
        <time>2019-02-16T10:18:22.000Z</time>
      </trkpt>
      <trkpt lat="43.97454" lon="7.07935">
        <ele>1057.5999755859</ele>
        <time>2019-02-16T10:18:24.000Z</time>
      </trkpt>
      <trkpt lat="43.97456" lon="7.07932">
        <ele>1058</ele>
        <time>2019-02-16T10:18:27.000Z</time>
      </trkpt>
      <trkpt lat="43.97457" lon="7.07931">
        <ele>1058.1999511719</ele>
        <time>2019-02-16T10:18:28.000Z</time>
      </trkpt>
      <trkpt lat="43.97459" lon="7.0793">
        <ele>1058.4000244141</ele>
        <time>2019-02-16T10:18:30.000Z</time>
      </trkpt>
      <trkpt lat="43.97462" lon="7.07928">
        <ele>1059.1999511719</ele>
        <time>2019-02-16T10:18:33.000Z</time>
      </trkpt>
      <trkpt lat="43.97463" lon="7.07927">
        <ele>1059.4000244141</ele>
        <time>2019-02-16T10:18:34.000Z</time>
      </trkpt>
      <trkpt lat="43.97466" lon="7.07924">
        <ele>1060.4000244141</ele>
        <time>2019-02-16T10:18:38.000Z</time>
      </trkpt>
      <trkpt lat="43.97468" lon="7.07922">
        <ele>1060.8000488281</ele>
        <time>2019-02-16T10:18:40.000Z</time>
      </trkpt>
      <trkpt lat="43.97472" lon="7.07919">
        <ele>1061.4000244141</ele>
        <time>2019-02-16T10:18:44.000Z</time>
      </trkpt>
      <trkpt lat="43.97474" lon="7.07917">
        <ele>1061.8000488281</ele>
        <time>2019-02-16T10:18:46.000Z</time>
      </trkpt>
      <trkpt lat="43.97477" lon="7.07914">
        <ele>1062.4000244141</ele>
        <time>2019-02-16T10:18:49.000Z</time>
      </trkpt>
      <trkpt lat="43.9748" lon="7.07911">
        <ele>1063.4000244141</ele>
        <time>2019-02-16T10:18:53.000Z</time>
      </trkpt>
      <trkpt lat="43.97482" lon="7.0791">
        <ele>1063.5999755859</ele>
        <time>2019-02-16T10:18:54.000Z</time>
      </trkpt>
      <trkpt lat="43.97487" lon="7.07906">
        <ele>1064.5999755859</ele>
        <time>2019-02-16T10:18:59.000Z</time>
      </trkpt>
      <trkpt lat="43.97491" lon="7.07902">
        <ele>1065.4000244141</ele>
        <time>2019-02-16T10:19:03.000Z</time>
      </trkpt>
      <trkpt lat="43.97492" lon="7.07901">
        <ele>1065.5999755859</ele>
        <time>2019-02-16T10:19:04.000Z</time>
      </trkpt>
      <trkpt lat="43.97498" lon="7.07892">
        <ele>1066.8000488281</ele>
        <time>2019-02-16T10:19:11.000Z</time>
      </trkpt>
      <trkpt lat="43.97499" lon="7.07891">
        <ele>1067</ele>
        <time>2019-02-16T10:19:12.000Z</time>
      </trkpt>
      <trkpt lat="43.97507" lon="7.07885">
        <ele>1067.5999755859</ele>
        <time>2019-02-16T10:19:19.000Z</time>
      </trkpt>
      <trkpt lat="43.97509" lon="7.07884">
        <ele>1068</ele>
        <time>2019-02-16T10:19:21.000Z</time>
      </trkpt>
      <trkpt lat="43.97514" lon="7.07882">
        <ele>1068.5999755859</ele>
        <time>2019-02-16T10:19:25.000Z</time>
      </trkpt>
      <trkpt lat="43.97525" lon="7.07873">
        <ele>1068.8000488281</ele>
        <time>2019-02-16T10:19:34.000Z</time>
      </trkpt>
      <trkpt lat="43.97531" lon="7.0787">
        <ele>1069</ele>
        <time>2019-02-16T10:19:38.000Z</time>
      </trkpt>
      <trkpt lat="43.97533" lon="7.07869">
        <ele>1069.1999511719</ele>
        <time>2019-02-16T10:19:40.000Z</time>
      </trkpt>
      <trkpt lat="43.97543" lon="7.07867">
        <ele>1070</ele>
        <time>2019-02-16T10:19:47.000Z</time>
      </trkpt>
      <trkpt lat="43.97544" lon="7.07866">
        <ele>1070.1999511719</ele>
        <time>2019-02-16T10:19:48.000Z</time>
      </trkpt>
      <trkpt lat="43.97553" lon="7.07866">
        <ele>1071.1999511719</ele>
        <time>2019-02-16T10:19:54.000Z</time>
      </trkpt>
      <trkpt lat="43.97559" lon="7.0787">
        <ele>1072.4000244141</ele>
        <time>2019-02-16T10:19:59.000Z</time>
      </trkpt>
      <trkpt lat="43.9756" lon="7.07871">
        <ele>1072.5999755859</ele>
        <time>2019-02-16T10:20:00.000Z</time>
      </trkpt>
      <trkpt lat="43.97564" lon="7.07873">
        <ele>1073.5999755859</ele>
        <time>2019-02-16T10:20:04.000Z</time>
      </trkpt>
      <trkpt lat="43.97567" lon="7.07875">
        <ele>1074</ele>
        <time>2019-02-16T10:20:06.000Z</time>
      </trkpt>
      <trkpt lat="43.9757" lon="7.07875">
        <ele>1074.5999755859</ele>
        <time>2019-02-16T10:20:09.000Z</time>
      </trkpt>
      <trkpt lat="43.97573" lon="7.07872">
        <ele>1075.4000244141</ele>
        <time>2019-02-16T10:20:13.000Z</time>
      </trkpt>
      <trkpt lat="43.97576" lon="7.0787">
        <ele>1075.8000488281</ele>
        <time>2019-02-16T10:20:15.000Z</time>
      </trkpt>
      <trkpt lat="43.97582" lon="7.07866">
        <ele>1077</ele>
        <time>2019-02-16T10:20:20.000Z</time>
      </trkpt>
      <trkpt lat="43.97582" lon="7.07865">
        <ele>1077.1999511719</ele>
        <time>2019-02-16T10:20:21.000Z</time>
      </trkpt>
      <trkpt lat="43.97586" lon="7.0786">
        <ele>1078</ele>
        <time>2019-02-16T10:20:26.000Z</time>
      </trkpt>
      <trkpt lat="43.97589" lon="7.07859">
        <ele>1078.8000488281</ele>
        <time>2019-02-16T10:20:29.000Z</time>
      </trkpt>
      <trkpt lat="43.97591" lon="7.07857">
        <ele>1079.1999511719</ele>
        <time>2019-02-16T10:20:31.000Z</time>
      </trkpt>
      <trkpt lat="43.97595" lon="7.07855">
        <ele>1079.5999755859</ele>
        <time>2019-02-16T10:20:34.000Z</time>
      </trkpt>
      <trkpt lat="43.97598" lon="7.07855">
        <ele>1080</ele>
        <time>2019-02-16T10:20:36.000Z</time>
      </trkpt>
      <trkpt lat="43.97598" lon="7.07854">
        <ele>1080.4000244141</ele>
        <time>2019-02-16T10:20:37.000Z</time>
      </trkpt>
      <trkpt lat="43.97603" lon="7.0785">
        <ele>1081.4000244141</ele>
        <time>2019-02-16T10:20:42.000Z</time>
      </trkpt>
      <trkpt lat="43.97611" lon="7.07841">
        <ele>1082.4000244141</ele>
        <time>2019-02-16T10:20:50.000Z</time>
      </trkpt>
      <trkpt lat="43.97612" lon="7.07839">
        <ele>1082.5999755859</ele>
        <time>2019-02-16T10:20:51.000Z</time>
      </trkpt>
      <trkpt lat="43.97615" lon="7.07836">
        <ele>1083.5999755859</ele>
        <time>2019-02-16T10:20:55.000Z</time>
      </trkpt>
      <trkpt lat="43.97616" lon="7.07834">
        <ele>1083.8000488281</ele>
        <time>2019-02-16T10:20:57.000Z</time>
      </trkpt>
      <trkpt lat="43.9762" lon="7.0783">
        <ele>1084.8000488281</ele>
        <time>2019-02-16T10:21:02.000Z</time>
      </trkpt>
      <trkpt lat="43.97622" lon="7.07828">
        <ele>1085.1999511719</ele>
        <time>2019-02-16T10:21:04.000Z</time>
      </trkpt>
      <trkpt lat="43.97625" lon="7.07825">
        <ele>1085.8000488281</ele>
        <time>2019-02-16T10:21:07.000Z</time>
      </trkpt>
      <trkpt lat="43.97629" lon="7.07821">
        <ele>1086.4000244141</ele>
        <time>2019-02-16T10:21:11.000Z</time>
      </trkpt>
      <trkpt lat="43.97632" lon="7.07818">
        <ele>1086.8000488281</ele>
        <time>2019-02-16T10:21:14.000Z</time>
      </trkpt>
      <trkpt lat="43.97632" lon="7.07817">
        <ele>1087.1999511719</ele>
        <time>2019-02-16T10:21:15.000Z</time>
      </trkpt>
      <trkpt lat="43.97633" lon="7.07816">
        <ele>1087.4000244141</ele>
        <time>2019-02-16T10:21:16.000Z</time>
      </trkpt>
      <trkpt lat="43.97637" lon="7.07812">
        <ele>1088.1999511719</ele>
        <time>2019-02-16T10:21:20.000Z</time>
      </trkpt>
      <trkpt lat="43.9764" lon="7.07808">
        <ele>1089</ele>
        <time>2019-02-16T10:21:24.000Z</time>
      </trkpt>
      <trkpt lat="43.97642" lon="7.07806">
        <ele>1089.4000244141</ele>
        <time>2019-02-16T10:21:26.000Z</time>
      </trkpt>
      <trkpt lat="43.97647" lon="7.07801">
        <ele>1090.4000244141</ele>
        <time>2019-02-16T10:21:31.000Z</time>
      </trkpt>
      <trkpt lat="43.97653" lon="7.07793">
        <ele>1091.5999755859</ele>
        <time>2019-02-16T10:21:38.000Z</time>
      </trkpt>
      <trkpt lat="43.97656" lon="7.07789">
        <ele>1092.5999755859</ele>
        <time>2019-02-16T10:21:42.000Z</time>
      </trkpt>
      <trkpt lat="43.97657" lon="7.07788">
        <ele>1092.8000488281</ele>
        <time>2019-02-16T10:21:43.000Z</time>
      </trkpt>
      <trkpt lat="43.97658" lon="7.07788">
        <ele>1093</ele>
        <time>2019-02-16T10:21:44.000Z</time>
      </trkpt>
      <trkpt lat="43.9766" lon="7.07785">
        <ele>1093.5999755859</ele>
        <time>2019-02-16T10:21:47.000Z</time>
      </trkpt>
      <trkpt lat="43.97662" lon="7.07783">
        <ele>1094</ele>
        <time>2019-02-16T10:21:49.000Z</time>
      </trkpt>
      <trkpt lat="43.97664" lon="7.07781">
        <ele>1094.1999511719</ele>
        <time>2019-02-16T10:21:51.000Z</time>
      </trkpt>
      <trkpt lat="43.97667" lon="7.07779">
        <ele>1094.8000488281</ele>
        <time>2019-02-16T10:21:54.000Z</time>
      </trkpt>
      <trkpt lat="43.97672" lon="7.07775">
        <ele>1095.4000244141</ele>
        <time>2019-02-16T10:21:58.000Z</time>
      </trkpt>
      <trkpt lat="43.97675" lon="7.07772">
        <ele>1095.8000488281</ele>
        <time>2019-02-16T10:22:01.000Z</time>
      </trkpt>
      <trkpt lat="43.97679" lon="7.0777">
        <ele>1097</ele>
        <time>2019-02-16T10:22:05.000Z</time>
      </trkpt>
      <trkpt lat="43.97683" lon="7.07767">
        <ele>1098</ele>
        <time>2019-02-16T10:22:09.000Z</time>
      </trkpt>
      <trkpt lat="43.97686" lon="7.07765">
        <ele>1098.8000488281</ele>
        <time>2019-02-16T10:22:13.000Z</time>
      </trkpt>
      <trkpt lat="43.97687" lon="7.07764">
        <ele>1099</ele>
        <time>2019-02-16T10:22:14.000Z</time>
      </trkpt>
      <trkpt lat="43.97688" lon="7.07764">
        <ele>1099.1999511719</ele>
        <time>2019-02-16T10:22:15.000Z</time>
      </trkpt>
      <trkpt lat="43.97693" lon="7.07758">
        <ele>1100</ele>
        <time>2019-02-16T10:22:21.000Z</time>
      </trkpt>
      <trkpt lat="43.97694" lon="7.07757">
        <ele>1100.1999511719</ele>
        <time>2019-02-16T10:22:22.000Z</time>
      </trkpt>
      <trkpt lat="43.97696" lon="7.07753">
        <ele>1100.8000488281</ele>
        <time>2019-02-16T10:22:26.000Z</time>
      </trkpt>
      <trkpt lat="43.97698" lon="7.0775">
        <ele>1101.4000244141</ele>
        <time>2019-02-16T10:22:29.000Z</time>
      </trkpt>
      <trkpt lat="43.97702" lon="7.07746">
        <ele>1102.1999511719</ele>
        <time>2019-02-16T10:22:33.000Z</time>
      </trkpt>
      <trkpt lat="43.97702" lon="7.07745">
        <ele>1102.4000244141</ele>
        <time>2019-02-16T10:22:34.000Z</time>
      </trkpt>
      <trkpt lat="43.97707" lon="7.07743">
        <ele>1103.4000244141</ele>
        <time>2019-02-16T10:22:39.000Z</time>
      </trkpt>
      <trkpt lat="43.97708" lon="7.07743">
        <ele>1103.5999755859</ele>
        <time>2019-02-16T10:22:40.000Z</time>
      </trkpt>
      <trkpt lat="43.97714" lon="7.07739">
        <ele>1104.1999511719</ele>
        <time>2019-02-16T10:22:46.000Z</time>
      </trkpt>
      <trkpt lat="43.97714" lon="7.07739">
        <ele>1104.1999511719</ele>
        <time>2019-02-16T10:22:47.000Z</time>
      </trkpt>
      <trkpt lat="43.97717" lon="7.07736">
        <ele>1104.5999755859</ele>
        <time>2019-02-16T10:22:50.000Z</time>
      </trkpt>
      <trkpt lat="43.97721" lon="7.07732">
        <ele>1104.8000488281</ele>
        <time>2019-02-16T10:22:53.000Z</time>
      </trkpt>
      <trkpt lat="43.97729" lon="7.07724">
        <ele>1105.1999511719</ele>
        <time>2019-02-16T10:23:00.000Z</time>
      </trkpt>
      <trkpt lat="43.97742" lon="7.07715">
        <ele>1105.5999755859</ele>
        <time>2019-02-16T10:23:09.000Z</time>
      </trkpt>
      <trkpt lat="43.97751" lon="7.07708">
        <ele>1106.5999755859</ele>
        <time>2019-02-16T10:23:17.000Z</time>
      </trkpt>
      <trkpt lat="43.97759" lon="7.07704">
        <ele>1107.4000244141</ele>
        <time>2019-02-16T10:23:23.000Z</time>
      </trkpt>
      <trkpt lat="43.97763" lon="7.07703">
        <ele>1107.8000488281</ele>
        <time>2019-02-16T10:23:26.000Z</time>
      </trkpt>
      <trkpt lat="43.9777" lon="7.07701">
        <ele>1108.5999755859</ele>
        <time>2019-02-16T10:23:31.000Z</time>
      </trkpt>
      <trkpt lat="43.97774" lon="7.07699">
        <ele>1108.8000488281</ele>
        <time>2019-02-16T10:23:34.000Z</time>
      </trkpt>
      <trkpt lat="43.97777" lon="7.07699">
        <ele>1109.1999511719</ele>
        <time>2019-02-16T10:23:36.000Z</time>
      </trkpt>
      <trkpt lat="43.97778" lon="7.07698">
        <ele>1109.1999511719</ele>
        <time>2019-02-16T10:23:37.000Z</time>
      </trkpt>
      <trkpt lat="43.97783" lon="7.07698">
        <ele>1110</ele>
        <time>2019-02-16T10:23:41.000Z</time>
      </trkpt>
      <trkpt lat="43.97791" lon="7.07696">
        <ele>1111</ele>
        <time>2019-02-16T10:23:47.000Z</time>
      </trkpt>
      <trkpt lat="43.97794" lon="7.07695">
        <ele>1111.1999511719</ele>
        <time>2019-02-16T10:23:49.000Z</time>
      </trkpt>
      <trkpt lat="43.978" lon="7.07691">
        <ele>1111.5999755859</ele>
        <time>2019-02-16T10:23:55.000Z</time>
      </trkpt>
      <trkpt lat="43.97802" lon="7.07689">
        <ele>1112</ele>
        <time>2019-02-16T10:23:57.000Z</time>
      </trkpt>
      <trkpt lat="43.97806" lon="7.07685">
        <ele>1112.8000488281</ele>
        <time>2019-02-16T10:24:01.000Z</time>
      </trkpt>
      <trkpt lat="43.97807" lon="7.07684">
        <ele>1113.1999511719</ele>
        <time>2019-02-16T10:24:02.000Z</time>
      </trkpt>
      <trkpt lat="43.97812" lon="7.0768">
        <ele>1114.4000244141</ele>
        <time>2019-02-16T10:24:07.000Z</time>
      </trkpt>
      <trkpt lat="43.97819" lon="7.07674">
        <ele>1115.5999755859</ele>
        <time>2019-02-16T10:24:14.000Z</time>
      </trkpt>
      <trkpt lat="43.97826" lon="7.0767">
        <ele>1116.5999755859</ele>
        <time>2019-02-16T10:24:20.000Z</time>
      </trkpt>
      <trkpt lat="43.97827" lon="7.07669">
        <ele>1116.8000488281</ele>
        <time>2019-02-16T10:24:21.000Z</time>
      </trkpt>
      <trkpt lat="43.97834" lon="7.07666">
        <ele>1117.4000244141</ele>
        <time>2019-02-16T10:24:27.000Z</time>
      </trkpt>
      <trkpt lat="43.97836" lon="7.07665">
        <ele>1117.8000488281</ele>
        <time>2019-02-16T10:24:29.000Z</time>
      </trkpt>
      <trkpt lat="43.97842" lon="7.07663">
        <ele>1118</ele>
        <time>2019-02-16T10:24:34.000Z</time>
      </trkpt>
      <trkpt lat="43.9785" lon="7.07661">
        <ele>1118</ele>
        <time>2019-02-16T10:24:40.000Z</time>
      </trkpt>
      <trkpt lat="43.97866" lon="7.07657">
        <ele>1117.4000244141</ele>
        <time>2019-02-16T10:24:47.000Z</time>
      </trkpt>
      <trkpt lat="43.97881" lon="7.07656">
        <ele>1117.1999511719</ele>
        <time>2019-02-16T10:24:53.000Z</time>
      </trkpt>
      <trkpt lat="43.97898" lon="7.07656">
        <ele>1117.5999755859</ele>
        <time>2019-02-16T10:25:00.000Z</time>
      </trkpt>
      <trkpt lat="43.97918" lon="7.07658">
        <ele>1118.5999755859</ele>
        <time>2019-02-16T10:25:08.000Z</time>
      </trkpt>
      <trkpt lat="43.97923" lon="7.07659">
        <ele>1118.8000488281</ele>
        <time>2019-02-16T10:25:10.000Z</time>
      </trkpt>
      <trkpt lat="43.97933" lon="7.07663">
        <ele>1119.8000488281</ele>
        <time>2019-02-16T10:25:15.000Z</time>
      </trkpt>
      <trkpt lat="43.97936" lon="7.07664">
        <ele>1120</ele>
        <time>2019-02-16T10:25:17.000Z</time>
      </trkpt>
      <trkpt lat="43.97937" lon="7.07663">
        <ele>1120.1999511719</ele>
        <time>2019-02-16T10:25:18.000Z</time>
      </trkpt>
      <trkpt lat="43.97941" lon="7.07665">
        <ele>1121</ele>
        <time>2019-02-16T10:25:21.000Z</time>
      </trkpt>
      <trkpt lat="43.97944" lon="7.07666">
        <ele>1121.4000244141</ele>
        <time>2019-02-16T10:25:23.000Z</time>
      </trkpt>
      <trkpt lat="43.97949" lon="7.07667">
        <ele>1122.1999511719</ele>
        <time>2019-02-16T10:25:27.000Z</time>
      </trkpt>
      <trkpt lat="43.97952" lon="7.07667">
        <ele>1122.5999755859</ele>
        <time>2019-02-16T10:25:29.000Z</time>
      </trkpt>
      <trkpt lat="43.97956" lon="7.07669">
        <ele>1123.1999511719</ele>
        <time>2019-02-16T10:25:32.000Z</time>
      </trkpt>
      <trkpt lat="43.97962" lon="7.0767">
        <ele>1124.1999511719</ele>
        <time>2019-02-16T10:25:36.000Z</time>
      </trkpt>
      <trkpt lat="43.97963" lon="7.0767">
        <ele>1124.4000244141</ele>
        <time>2019-02-16T10:25:37.000Z</time>
      </trkpt>
      <trkpt lat="43.97964" lon="7.07669">
        <ele>1124.8000488281</ele>
        <time>2019-02-16T10:25:38.000Z</time>
      </trkpt>
      <trkpt lat="43.97965" lon="7.07663">
        <ele>1125.1999511719</ele>
        <time>2019-02-16T10:25:41.000Z</time>
      </trkpt>
      <trkpt lat="43.97963" lon="7.07659">
        <ele>1125.4000244141</ele>
        <time>2019-02-16T10:25:44.000Z</time>
      </trkpt>
      <trkpt lat="43.97963" lon="7.07657">
        <ele>1125.5999755859</ele>
        <time>2019-02-16T10:25:45.000Z</time>
      </trkpt>
      <trkpt lat="43.97962" lon="7.07655">
        <ele>1126</ele>
        <time>2019-02-16T10:25:47.000Z</time>
      </trkpt>
      <trkpt lat="43.97959" lon="7.07649">
        <ele>1126.4000244141</ele>
        <time>2019-02-16T10:25:51.000Z</time>
      </trkpt>
      <trkpt lat="43.97958" lon="7.07644">
        <ele>1126.8000488281</ele>
        <time>2019-02-16T10:25:54.000Z</time>
      </trkpt>
      <trkpt lat="43.97954" lon="7.07637">
        <ele>1127.5999755859</ele>
        <time>2019-02-16T10:25:59.000Z</time>
      </trkpt>
      <trkpt lat="43.97954" lon="7.07635">
        <ele>1128</ele>
        <time>2019-02-16T10:26:00.000Z</time>
      </trkpt>
      <trkpt lat="43.97951" lon="7.07629">
        <ele>1128.8000488281</ele>
        <time>2019-02-16T10:26:04.000Z</time>
      </trkpt>
      <trkpt lat="43.97947" lon="7.07624">
        <ele>1129.1999511719</ele>
        <time>2019-02-16T10:26:08.000Z</time>
      </trkpt>
      <trkpt lat="43.97944" lon="7.07619">
        <ele>1129.8000488281</ele>
        <time>2019-02-16T10:26:12.000Z</time>
      </trkpt>
      <trkpt lat="43.9794" lon="7.07615">
        <ele>1130.5999755859</ele>
        <time>2019-02-16T10:26:17.000Z</time>
      </trkpt>
      <trkpt lat="43.97938" lon="7.07613">
        <ele>1131</ele>
        <time>2019-02-16T10:26:19.000Z</time>
      </trkpt>
      <trkpt lat="43.97935" lon="7.07611">
        <ele>1131.1999511719</ele>
        <time>2019-02-16T10:26:22.000Z</time>
      </trkpt>
      <trkpt lat="43.97931" lon="7.0761">
        <ele>1132</ele>
        <time>2019-02-16T10:26:26.000Z</time>
      </trkpt>
      <trkpt lat="43.9793" lon="7.07609">
        <ele>1132.1999511719</ele>
        <time>2019-02-16T10:26:28.000Z</time>
      </trkpt>
      <trkpt lat="43.97928" lon="7.07609">
        <ele>1132.1999511719</ele>
        <time>2019-02-16T10:26:34.000Z</time>
      </trkpt>
      <trkpt lat="43.97927" lon="7.07605">
        <ele>1132.5999755859</ele>
        <time>2019-02-16T10:26:39.000Z</time>
      </trkpt>
      <trkpt lat="43.97927" lon="7.07604">
        <ele>1132.8000488281</ele>
        <time>2019-02-16T10:26:40.000Z</time>
      </trkpt>
      <trkpt lat="43.97929" lon="7.07603">
        <ele>1133</ele>
        <time>2019-02-16T10:26:42.000Z</time>
      </trkpt>
      <trkpt lat="43.97934" lon="7.07602">
        <ele>1133.4000244141</ele>
        <time>2019-02-16T10:26:48.000Z</time>
      </trkpt>
      <trkpt lat="43.97934" lon="7.07602">
        <ele>1133.5999755859</ele>
        <time>2019-02-16T10:26:53.000Z</time>
      </trkpt>
      <trkpt lat="43.97932" lon="7.07603">
        <ele>1133.5999755859</ele>
        <time>2019-02-16T10:26:54.000Z</time>
      </trkpt>
      <trkpt lat="43.9793" lon="7.07602">
        <ele>1133</ele>
        <time>2019-02-16T10:26:57.000Z</time>
      </trkpt>
      <trkpt lat="43.97927" lon="7.07598">
        <ele>1133</ele>
        <time>2019-02-16T10:27:02.000Z</time>
      </trkpt>
      <trkpt lat="43.97927" lon="7.07597">
        <ele>1133.5999755859</ele>
        <time>2019-02-16T10:27:07.000Z</time>
      </trkpt>
      <trkpt lat="43.97927" lon="7.07596">
        <ele>1134</ele>
        <time>2019-02-16T10:27:09.000Z</time>
      </trkpt>
      <trkpt lat="43.97927" lon="7.07595">
        <ele>1134</ele>
        <time>2019-02-16T10:27:12.000Z</time>
      </trkpt>
      <trkpt lat="43.97927" lon="7.07596">
        <ele>1134.4000244141</ele>
        <time>2019-02-16T10:27:21.000Z</time>
      </trkpt>
      <trkpt lat="43.97929" lon="7.07596">
        <ele>1134.1999511719</ele>
        <time>2019-02-16T10:27:28.000Z</time>
      </trkpt>
      <trkpt lat="43.97929" lon="7.07596">
        <ele>1134.4000244141</ele>
        <time>2019-02-16T10:27:36.000Z</time>
      </trkpt>
      <trkpt lat="43.97929" lon="7.07596">
        <ele>1134.4000244141</ele>
        <time>2019-02-16T10:27:42.000Z</time>
      </trkpt>
      <trkpt lat="43.9793" lon="7.07595">
        <ele>1134.4000244141</ele>
        <time>2019-02-16T10:27:55.000Z</time>
      </trkpt>
      <trkpt lat="43.9793" lon="7.07592">
        <ele>1134.4000244141</ele>
        <time>2019-02-16T10:28:04.000Z</time>
      </trkpt>
      <trkpt lat="43.9793" lon="7.07589">
        <ele>1134.1999511719</ele>
        <time>2019-02-16T10:28:18.000Z</time>
      </trkpt>
      <trkpt lat="43.97933" lon="7.07585">
        <ele>1134.1999511719</ele>
        <time>2019-02-16T10:28:23.000Z</time>
      </trkpt>
      <trkpt lat="43.97935" lon="7.07582">
        <ele>1134.1999511719</ele>
        <time>2019-02-16T10:28:24.000Z</time>
      </trkpt>
      <trkpt lat="43.97935" lon="7.07582">
        <ele>1134.1999511719</ele>
        <time>2019-02-16T10:28:27.000Z</time>
      </trkpt>
      <trkpt lat="43.97936" lon="7.07581">
        <ele>1134.4000244141</ele>
        <time>2019-02-16T10:28:34.000Z</time>
      </trkpt>
      <trkpt lat="43.97935" lon="7.07581">
        <ele>1134.4000244141</ele>
        <time>2019-02-16T10:28:44.000Z</time>
      </trkpt>
      <trkpt lat="43.97935" lon="7.0758">
        <ele>1134.4000244141</ele>
        <time>2019-02-16T10:28:54.000Z</time>
      </trkpt>
      <trkpt lat="43.97934" lon="7.0758">
        <ele>1134</ele>
        <time>2019-02-16T10:29:07.000Z</time>
      </trkpt>
      <trkpt lat="43.97933" lon="7.0758">
        <ele>1134.1999511719</ele>
        <time>2019-02-16T10:29:21.000Z</time>
      </trkpt>
      <trkpt lat="43.97933" lon="7.0758">
        <ele>1134.4000244141</ele>
        <time>2019-02-16T10:29:29.000Z</time>
      </trkpt>
      <trkpt lat="43.97932" lon="7.0758">
        <ele>1134.5999755859</ele>
        <time>2019-02-16T10:29:41.000Z</time>
      </trkpt>
      <trkpt lat="43.97933" lon="7.07578">
        <ele>1134.4000244141</ele>
        <time>2019-02-16T10:29:54.000Z</time>
      </trkpt>
      <trkpt lat="43.97933" lon="7.07579">
        <ele>1134.1999511719</ele>
        <time>2019-02-16T10:30:04.000Z</time>
      </trkpt>
      <trkpt lat="43.97933" lon="7.0758">
        <ele>1134.1999511719</ele>
        <time>2019-02-16T10:30:24.000Z</time>
      </trkpt>
      <trkpt lat="43.97932" lon="7.0758">
        <ele>1134.4000244141</ele>
        <time>2019-02-16T10:30:35.000Z</time>
      </trkpt>
      <trkpt lat="43.97932" lon="7.07581">
        <ele>1134.1999511719</ele>
        <time>2019-02-16T10:30:54.000Z</time>
      </trkpt>
      <trkpt lat="43.97932" lon="7.07581">
        <ele>1134.1999511719</ele>
        <time>2019-02-16T10:31:17.000Z</time>
      </trkpt>
      <trkpt lat="43.97932" lon="7.0758">
        <ele>1134</ele>
        <time>2019-02-16T10:31:32.000Z</time>
      </trkpt>
      <trkpt lat="43.97931" lon="7.07581">
        <ele>1134.1999511719</ele>
        <time>2019-02-16T10:32:05.000Z</time>
      </trkpt>
      <trkpt lat="43.97932" lon="7.07581">
        <ele>1134</ele>
        <time>2019-02-16T10:32:21.000Z</time>
      </trkpt>
      <trkpt lat="43.97931" lon="7.07582">
        <ele>1134.1999511719</ele>
        <time>2019-02-16T10:32:36.000Z</time>
      </trkpt>
      <trkpt lat="43.97931" lon="7.07585">
        <ele>1134</ele>
        <time>2019-02-16T10:32:53.000Z</time>
      </trkpt>
      <trkpt lat="43.97931" lon="7.07585">
        <ele>1134</ele>
        <time>2019-02-16T10:33:10.000Z</time>
      </trkpt>
      <trkpt lat="43.97931" lon="7.07586">
        <ele>1133.4000244141</ele>
        <time>2019-02-16T10:33:20.000Z</time>
      </trkpt>
      <trkpt lat="43.97932" lon="7.07585">
        <ele>1133.5999755859</ele>
        <time>2019-02-16T10:33:28.000Z</time>
      </trkpt>
      <trkpt lat="43.97933" lon="7.07583">
        <ele>1133.4000244141</ele>
        <time>2019-02-16T10:33:35.000Z</time>
      </trkpt>
      <trkpt lat="43.97932" lon="7.07583">
        <ele>1133.4000244141</ele>
        <time>2019-02-16T10:33:43.000Z</time>
      </trkpt>
      <trkpt lat="43.97929" lon="7.07586">
        <ele>1133.8000488281</ele>
        <time>2019-02-16T10:33:58.000Z</time>
      </trkpt>
      <trkpt lat="43.97928" lon="7.07585">
        <ele>1133.8000488281</ele>
        <time>2019-02-16T10:34:08.000Z</time>
      </trkpt>
      <trkpt lat="43.97928" lon="7.07585">
        <ele>1133.8000488281</ele>
        <time>2019-02-16T10:34:22.000Z</time>
      </trkpt>
      <trkpt lat="43.97929" lon="7.07584">
        <ele>1133.8000488281</ele>
        <time>2019-02-16T10:34:36.000Z</time>
      </trkpt>
      <trkpt lat="43.97929" lon="7.07584">
        <ele>1133.5999755859</ele>
        <time>2019-02-16T10:35:00.000Z</time>
      </trkpt>
      <trkpt lat="43.97929" lon="7.07584">
        <ele>1133.1999511719</ele>
        <time>2019-02-16T10:35:15.000Z</time>
      </trkpt>
      <trkpt lat="43.97929" lon="7.07583">
        <ele>1133.5999755859</ele>
        <time>2019-02-16T10:35:27.000Z</time>
      </trkpt>
      <trkpt lat="43.97929" lon="7.07583">
        <ele>1133.5999755859</ele>
        <time>2019-02-16T10:35:37.000Z</time>
      </trkpt>
      <trkpt lat="43.97929" lon="7.07583">
        <ele>1133.8000488281</ele>
        <time>2019-02-16T10:35:44.000Z</time>
      </trkpt>
      <trkpt lat="43.97929" lon="7.07583">
        <ele>1134</ele>
        <time>2019-02-16T10:35:53.000Z</time>
      </trkpt>
      <trkpt lat="43.97929" lon="7.07583">
        <ele>1133</ele>
        <time>2019-02-16T10:36:00.000Z</time>
      </trkpt>
      <trkpt lat="43.97929" lon="7.07584">
        <ele>1133.1999511719</ele>
        <time>2019-02-16T10:36:09.000Z</time>
      </trkpt>
      <trkpt lat="43.97928" lon="7.07584">
        <ele>1133</ele>
        <time>2019-02-16T10:36:18.000Z</time>
      </trkpt>
      <trkpt lat="43.97929" lon="7.07582">
        <ele>1133.1999511719</ele>
        <time>2019-02-16T10:36:25.000Z</time>
      </trkpt>
      <trkpt lat="43.97929" lon="7.07585">
        <ele>1133.1999511719</ele>
        <time>2019-02-16T10:36:30.000Z</time>
      </trkpt>
      <trkpt lat="43.97929" lon="7.07585">
        <ele>1132.8000488281</ele>
        <time>2019-02-16T10:36:38.000Z</time>
      </trkpt>
      <trkpt lat="43.9793" lon="7.07583">
        <ele>1133</ele>
        <time>2019-02-16T10:36:52.000Z</time>
      </trkpt>
      <trkpt lat="43.97931" lon="7.07585">
        <ele>1132.5999755859</ele>
        <time>2019-02-16T10:36:55.000Z</time>
      </trkpt>
      <trkpt lat="43.97931" lon="7.07586">
        <ele>1132.4000244141</ele>
        <time>2019-02-16T10:36:56.000Z</time>
      </trkpt>
      <trkpt lat="43.97932" lon="7.07588">
        <ele>1132</ele>
        <time>2019-02-16T10:36:58.000Z</time>
      </trkpt>
      <trkpt lat="43.97933" lon="7.07589">
        <ele>1132</ele>
        <time>2019-02-16T10:36:59.000Z</time>
      </trkpt>
      <trkpt lat="43.97935" lon="7.07589">
        <ele>1131.8000488281</ele>
        <time>2019-02-16T10:37:01.000Z</time>
      </trkpt>
      <trkpt lat="43.97935" lon="7.07589">
        <ele>1131.5999755859</ele>
        <time>2019-02-16T10:37:02.000Z</time>
      </trkpt>
      <trkpt lat="43.97936" lon="7.0759">
        <ele>1132.1999511719</ele>
        <time>2019-02-16T10:37:07.000Z</time>
      </trkpt>
      <trkpt lat="43.97936" lon="7.07591">
        <ele>1132.4000244141</ele>
        <time>2019-02-16T10:37:13.000Z</time>
      </trkpt>
      <trkpt lat="43.97938" lon="7.07592">
        <ele>1132.1999511719</ele>
        <time>2019-02-16T10:37:19.000Z</time>
      </trkpt>
      <trkpt lat="43.97946" lon="7.07596">
        <ele>1133</ele>
        <time>2019-02-16T10:37:25.000Z</time>
      </trkpt>
      <trkpt lat="43.97948" lon="7.07596">
        <ele>1133.1999511719</ele>
        <time>2019-02-16T10:37:26.000Z</time>
      </trkpt>
      <trkpt lat="43.97958" lon="7.07601">
        <ele>1134</ele>
        <time>2019-02-16T10:37:33.000Z</time>
      </trkpt>
      <trkpt lat="43.97959" lon="7.07602">
        <ele>1134.1999511719</ele>
        <time>2019-02-16T10:37:34.000Z</time>
      </trkpt>
      <trkpt lat="43.97969" lon="7.07609">
        <ele>1135.1999511719</ele>
        <time>2019-02-16T10:37:41.000Z</time>
      </trkpt>
      <trkpt lat="43.97978" lon="7.07617">
        <ele>1136.4000244141</ele>
        <time>2019-02-16T10:37:48.000Z</time>
      </trkpt>
      <trkpt lat="43.97988" lon="7.07626">
        <ele>1137</ele>
        <time>2019-02-16T10:37:56.000Z</time>
      </trkpt>
      <trkpt lat="43.9799" lon="7.07628">
        <ele>1137.4000244141</ele>
        <time>2019-02-16T10:37:58.000Z</time>
      </trkpt>
      <trkpt lat="43.97999" lon="7.07633">
        <ele>1138.1999511719</ele>
        <time>2019-02-16T10:38:04.000Z</time>
      </trkpt>
      <trkpt lat="43.98" lon="7.07633">
        <ele>1138.4000244141</ele>
        <time>2019-02-16T10:38:05.000Z</time>
      </trkpt>
      <trkpt lat="43.98008" lon="7.07637">
        <ele>1139.5999755859</ele>
        <time>2019-02-16T10:38:11.000Z</time>
      </trkpt>
      <trkpt lat="43.9801" lon="7.07638">
        <ele>1139.8000488281</ele>
        <time>2019-02-16T10:38:12.000Z</time>
      </trkpt>
      <trkpt lat="43.98016" lon="7.07648">
        <ele>1140.8000488281</ele>
        <time>2019-02-16T10:38:18.000Z</time>
      </trkpt>
      <trkpt lat="43.98017" lon="7.07652">
        <ele>1141</ele>
        <time>2019-02-16T10:38:20.000Z</time>
      </trkpt>
      <trkpt lat="43.98023" lon="7.07667">
        <ele>1141.8000488281</ele>
        <time>2019-02-16T10:38:27.000Z</time>
      </trkpt>
      <trkpt lat="43.98024" lon="7.07669">
        <ele>1141.8000488281</ele>
        <time>2019-02-16T10:38:28.000Z</time>
      </trkpt>
      <trkpt lat="43.98031" lon="7.07687">
        <ele>1142.5999755859</ele>
        <time>2019-02-16T10:38:36.000Z</time>
      </trkpt>
      <trkpt lat="43.98033" lon="7.07692">
        <ele>1142.8000488281</ele>
        <time>2019-02-16T10:38:38.000Z</time>
      </trkpt>
      <trkpt lat="43.98038" lon="7.07716">
        <ele>1143.5999755859</ele>
        <time>2019-02-16T10:38:47.000Z</time>
      </trkpt>
      <trkpt lat="43.98041" lon="7.07723">
        <ele>1143.8000488281</ele>
        <time>2019-02-16T10:38:50.000Z</time>
      </trkpt>
      <trkpt lat="43.98045" lon="7.07739">
        <ele>1144.5999755859</ele>
        <time>2019-02-16T10:38:56.000Z</time>
      </trkpt>
      <trkpt lat="43.98046" lon="7.07744">
        <ele>1144.8000488281</ele>
        <time>2019-02-16T10:38:58.000Z</time>
      </trkpt>
      <trkpt lat="43.9805" lon="7.07761">
        <ele>1145.8000488281</ele>
        <time>2019-02-16T10:39:05.000Z</time>
      </trkpt>
      <trkpt lat="43.98051" lon="7.07769">
        <ele>1146.1999511719</ele>
        <time>2019-02-16T10:39:08.000Z</time>
      </trkpt>
      <trkpt lat="43.98055" lon="7.07784">
        <ele>1146.8000488281</ele>
        <time>2019-02-16T10:39:14.000Z</time>
      </trkpt>
      <trkpt lat="43.98056" lon="7.07792">
        <ele>1147</ele>
        <time>2019-02-16T10:39:17.000Z</time>
      </trkpt>
      <trkpt lat="43.98062" lon="7.07822">
        <ele>1148</ele>
        <time>2019-02-16T10:39:27.000Z</time>
      </trkpt>
      <trkpt lat="43.98069" lon="7.07856">
        <ele>1148.8000488281</ele>
        <time>2019-02-16T10:39:38.000Z</time>
      </trkpt>
      <trkpt lat="43.98069" lon="7.07859">
        <ele>1149</ele>
        <time>2019-02-16T10:39:39.000Z</time>
      </trkpt>
      <trkpt lat="43.98073" lon="7.07883">
        <ele>1149.4000244141</ele>
        <time>2019-02-16T10:39:46.000Z</time>
      </trkpt>
      <trkpt lat="43.98075" lon="7.07899">
        <ele>1150</ele>
        <time>2019-02-16T10:39:51.000Z</time>
      </trkpt>
      <trkpt lat="43.98075" lon="7.07902">
        <ele>1150</ele>
        <time>2019-02-16T10:39:52.000Z</time>
      </trkpt>
      <trkpt lat="43.98074" lon="7.07931">
        <ele>1151</ele>
        <time>2019-02-16T10:40:00.000Z</time>
      </trkpt>
      <trkpt lat="43.98074" lon="7.07935">
        <ele>1151</ele>
        <time>2019-02-16T10:40:01.000Z</time>
      </trkpt>
      <trkpt lat="43.98072" lon="7.0797">
        <ele>1151.4000244141</ele>
        <time>2019-02-16T10:40:10.000Z</time>
      </trkpt>
      <trkpt lat="43.98069" lon="7.08011">
        <ele>1151.8000488281</ele>
        <time>2019-02-16T10:40:20.000Z</time>
      </trkpt>
      <trkpt lat="43.98066" lon="7.08031">
        <ele>1152</ele>
        <time>2019-02-16T10:40:25.000Z</time>
      </trkpt>
      <trkpt lat="43.98063" lon="7.08042">
        <ele>1152.4000244141</ele>
        <time>2019-02-16T10:40:28.000Z</time>
      </trkpt>
      <trkpt lat="43.98059" lon="7.08058">
        <ele>1152.4000244141</ele>
        <time>2019-02-16T10:40:33.000Z</time>
      </trkpt>
      <trkpt lat="43.98061" lon="7.08068">
        <ele>1152.8000488281</ele>
        <time>2019-02-16T10:40:36.000Z</time>
      </trkpt>
      <trkpt lat="43.98064" lon="7.08074">
        <ele>1153.1999511719</ele>
        <time>2019-02-16T10:40:38.000Z</time>
      </trkpt>
      <trkpt lat="43.9807" lon="7.08089">
        <ele>1154.1999511719</ele>
        <time>2019-02-16T10:40:43.000Z</time>
      </trkpt>
      <trkpt lat="43.98071" lon="7.08093">
        <ele>1154.8000488281</ele>
        <time>2019-02-16T10:40:45.000Z</time>
      </trkpt>
      <trkpt lat="43.98072" lon="7.08099">
        <ele>1155.1999511719</ele>
        <time>2019-02-16T10:40:47.000Z</time>
      </trkpt>
      <trkpt lat="43.98077" lon="7.08112">
        <ele>1156.1999511719</ele>
        <time>2019-02-16T10:40:52.000Z</time>
      </trkpt>
      <trkpt lat="43.98081" lon="7.0812">
        <ele>1156.4000244141</ele>
        <time>2019-02-16T10:40:55.000Z</time>
      </trkpt>
      <trkpt lat="43.98088" lon="7.08137">
        <ele>1157.4000244141</ele>
        <time>2019-02-16T10:41:01.000Z</time>
      </trkpt>
      <trkpt lat="43.98088" lon="7.08139">
        <ele>1157.4000244141</ele>
        <time>2019-02-16T10:41:02.000Z</time>
      </trkpt>
      <trkpt lat="43.98093" lon="7.08156">
        <ele>1158.8000488281</ele>
        <time>2019-02-16T10:41:08.000Z</time>
      </trkpt>
      <trkpt lat="43.98093" lon="7.08159">
        <ele>1159</ele>
        <time>2019-02-16T10:41:09.000Z</time>
      </trkpt>
      <trkpt lat="43.98096" lon="7.08174">
        <ele>1159.8000488281</ele>
        <time>2019-02-16T10:41:14.000Z</time>
      </trkpt>
      <trkpt lat="43.98097" lon="7.0818">
        <ele>1160</ele>
        <time>2019-02-16T10:41:16.000Z</time>
      </trkpt>
      <trkpt lat="43.98098" lon="7.08205">
        <ele>1160.8000488281</ele>
        <time>2019-02-16T10:41:24.000Z</time>
      </trkpt>
      <trkpt lat="43.98098" lon="7.08209">
        <ele>1160.8000488281</ele>
        <time>2019-02-16T10:41:25.000Z</time>
      </trkpt>
      <trkpt lat="43.98098" lon="7.08224">
        <ele>1161.8000488281</ele>
        <time>2019-02-16T10:41:30.000Z</time>
      </trkpt>
      <trkpt lat="43.98098" lon="7.08235">
        <ele>1162.4000244141</ele>
        <time>2019-02-16T10:41:33.000Z</time>
      </trkpt>
      <trkpt lat="43.98098" lon="7.08245">
        <ele>1163</ele>
        <time>2019-02-16T10:41:36.000Z</time>
      </trkpt>
      <trkpt lat="43.98098" lon="7.08258">
        <ele>1163.5999755859</ele>
        <time>2019-02-16T10:41:40.000Z</time>
      </trkpt>
      <trkpt lat="43.98096" lon="7.08266">
        <ele>1164.1999511719</ele>
        <time>2019-02-16T10:41:43.000Z</time>
      </trkpt>
      <trkpt lat="43.98095" lon="7.08274">
        <ele>1164.5999755859</ele>
        <time>2019-02-16T10:41:46.000Z</time>
      </trkpt>
      <trkpt lat="43.981" lon="7.08291">
        <ele>1165</ele>
        <time>2019-02-16T10:41:51.000Z</time>
      </trkpt>
      <trkpt lat="43.98101" lon="7.08293">
        <ele>1165.1999511719</ele>
        <time>2019-02-16T10:41:52.000Z</time>
      </trkpt>
      <trkpt lat="43.98111" lon="7.08307">
        <ele>1165.8000488281</ele>
        <time>2019-02-16T10:41:58.000Z</time>
      </trkpt>
      <trkpt lat="43.9812" lon="7.08316">
        <ele>1166.1999511719</ele>
        <time>2019-02-16T10:42:02.000Z</time>
      </trkpt>
      <trkpt lat="43.98125" lon="7.08321">
        <ele>1166.5999755859</ele>
        <time>2019-02-16T10:42:05.000Z</time>
      </trkpt>
      <trkpt lat="43.98131" lon="7.08327">
        <ele>1167.4000244141</ele>
        <time>2019-02-16T10:42:08.000Z</time>
      </trkpt>
      <trkpt lat="43.9814" lon="7.08335">
        <ele>1168.1999511719</ele>
        <time>2019-02-16T10:42:13.000Z</time>
      </trkpt>
      <trkpt lat="43.98143" lon="7.08338">
        <ele>1168.8000488281</ele>
        <time>2019-02-16T10:42:15.000Z</time>
      </trkpt>
      <trkpt lat="43.9815" lon="7.08343">
        <ele>1170</ele>
        <time>2019-02-16T10:42:19.000Z</time>
      </trkpt>
      <trkpt lat="43.98151" lon="7.08345">
        <ele>1170</ele>
        <time>2019-02-16T10:42:20.000Z</time>
      </trkpt>
      <trkpt lat="43.98158" lon="7.08352">
        <ele>1171.1999511719</ele>
        <time>2019-02-16T10:42:24.000Z</time>
      </trkpt>
      <trkpt lat="43.98166" lon="7.08356">
        <ele>1171.8000488281</ele>
        <time>2019-02-16T10:42:28.000Z</time>
      </trkpt>
      <trkpt lat="43.98172" lon="7.08359">
        <ele>1172.4000244141</ele>
        <time>2019-02-16T10:42:31.000Z</time>
      </trkpt>
      <trkpt lat="43.98182" lon="7.08366">
        <ele>1173</ele>
        <time>2019-02-16T10:42:36.000Z</time>
      </trkpt>
      <trkpt lat="43.98187" lon="7.08371">
        <ele>1173.4000244141</ele>
        <time>2019-02-16T10:42:39.000Z</time>
      </trkpt>
      <trkpt lat="43.98198" lon="7.08379">
        <ele>1173.8000488281</ele>
        <time>2019-02-16T10:42:45.000Z</time>
      </trkpt>
      <trkpt lat="43.98209" lon="7.08388">
        <ele>1174.4000244141</ele>
        <time>2019-02-16T10:42:51.000Z</time>
      </trkpt>
      <trkpt lat="43.98211" lon="7.08392">
        <ele>1174.5999755859</ele>
        <time>2019-02-16T10:42:53.000Z</time>
      </trkpt>
      <trkpt lat="43.98218" lon="7.08405">
        <ele>1175.4000244141</ele>
        <time>2019-02-16T10:43:01.000Z</time>
      </trkpt>
      <trkpt lat="43.98219" lon="7.08407">
        <ele>1175.5999755859</ele>
        <time>2019-02-16T10:43:02.000Z</time>
      </trkpt>
      <trkpt lat="43.98218" lon="7.08411">
        <ele>1175.5999755859</ele>
        <time>2019-02-16T10:43:04.000Z</time>
      </trkpt>
      <trkpt lat="43.98214" lon="7.08416">
        <ele>1176</ele>
        <time>2019-02-16T10:43:07.000Z</time>
      </trkpt>
      <trkpt lat="43.98211" lon="7.08418">
        <ele>1176.4000244141</ele>
        <time>2019-02-16T10:43:09.000Z</time>
      </trkpt>
      <trkpt lat="43.9821" lon="7.08419">
        <ele>1176.5999755859</ele>
        <time>2019-02-16T10:43:10.000Z</time>
      </trkpt>
      <trkpt lat="43.98206" lon="7.08423">
        <ele>1177.4000244141</ele>
        <time>2019-02-16T10:43:13.000Z</time>
      </trkpt>
      <trkpt lat="43.98199" lon="7.08429">
        <ele>1177.8000488281</ele>
        <time>2019-02-16T10:43:17.000Z</time>
      </trkpt>
      <trkpt lat="43.98196" lon="7.0843">
        <ele>1178</ele>
        <time>2019-02-16T10:43:19.000Z</time>
      </trkpt>
      <trkpt lat="43.98181" lon="7.08438">
        <ele>1178.1999511719</ele>
        <time>2019-02-16T10:43:25.000Z</time>
      </trkpt>
      <trkpt lat="43.98163" lon="7.08447">
        <ele>1178</ele>
        <time>2019-02-16T10:43:32.000Z</time>
      </trkpt>
      <trkpt lat="43.98157" lon="7.08454">
        <ele>1178.4000244141</ele>
        <time>2019-02-16T10:43:38.000Z</time>
      </trkpt>
      <trkpt lat="43.98159" lon="7.08472">
        <ele>1178.4000244141</ele>
        <time>2019-02-16T10:43:42.000Z</time>
      </trkpt>
      <trkpt lat="43.98161" lon="7.08478">
        <ele>1178.1999511719</ele>
        <time>2019-02-16T10:43:43.000Z</time>
      </trkpt>
      <trkpt lat="43.98169" lon="7.08494">
        <ele>1176.4000244141</ele>
        <time>2019-02-16T10:43:46.000Z</time>
      </trkpt>
      <trkpt lat="43.98178" lon="7.08506">
        <ele>1175.5999755859</ele>
        <time>2019-02-16T10:43:50.000Z</time>
      </trkpt>
      <trkpt lat="43.98183" lon="7.08519">
        <ele>1176.8000488281</ele>
        <time>2019-02-16T10:43:55.000Z</time>
      </trkpt>
      <trkpt lat="43.98183" lon="7.08524">
        <ele>1177.4000244141</ele>
        <time>2019-02-16T10:43:57.000Z</time>
      </trkpt>
      <trkpt lat="43.9818" lon="7.08533">
        <ele>1178.4000244141</ele>
        <time>2019-02-16T10:44:01.000Z</time>
      </trkpt>
      <trkpt lat="43.98179" lon="7.08535">
        <ele>1178.5999755859</ele>
        <time>2019-02-16T10:44:02.000Z</time>
      </trkpt>
      <trkpt lat="43.98173" lon="7.08542">
        <ele>1179.5999755859</ele>
        <time>2019-02-16T10:44:07.000Z</time>
      </trkpt>
      <trkpt lat="43.98171" lon="7.08543">
        <ele>1179.8000488281</ele>
        <time>2019-02-16T10:44:08.000Z</time>
      </trkpt>
      <trkpt lat="43.98167" lon="7.08548">
        <ele>1180.5999755859</ele>
        <time>2019-02-16T10:44:12.000Z</time>
      </trkpt>
      <trkpt lat="43.98164" lon="7.08551">
        <ele>1181.4000244141</ele>
        <time>2019-02-16T10:44:15.000Z</time>
      </trkpt>
      <trkpt lat="43.98163" lon="7.08552">
        <ele>1181.8000488281</ele>
        <time>2019-02-16T10:44:16.000Z</time>
      </trkpt>
      <trkpt lat="43.98162" lon="7.08552">
        <ele>1182.5999755859</ele>
        <time>2019-02-16T10:44:21.000Z</time>
      </trkpt>
      <trkpt lat="43.98162" lon="7.08553">
        <ele>1183</ele>
        <time>2019-02-16T10:44:23.000Z</time>
      </trkpt>
      <trkpt lat="43.98161" lon="7.08555">
        <ele>1184</ele>
        <time>2019-02-16T10:44:27.000Z</time>
      </trkpt>
      <trkpt lat="43.9816" lon="7.08555">
        <ele>1184</ele>
        <time>2019-02-16T10:44:28.000Z</time>
      </trkpt>
      <trkpt lat="43.98158" lon="7.08556">
        <ele>1184.5999755859</ele>
        <time>2019-02-16T10:44:32.000Z</time>
      </trkpt>
      <trkpt lat="43.98156" lon="7.08557">
        <ele>1185.1999511719</ele>
        <time>2019-02-16T10:44:34.000Z</time>
      </trkpt>
      <trkpt lat="43.98153" lon="7.08559">
        <ele>1186.1999511719</ele>
        <time>2019-02-16T10:44:40.000Z</time>
      </trkpt>
      <trkpt lat="43.98151" lon="7.08566">
        <ele>1187.1999511719</ele>
        <time>2019-02-16T10:44:47.000Z</time>
      </trkpt>
      <trkpt lat="43.98151" lon="7.08567">
        <ele>1188</ele>
        <time>2019-02-16T10:44:53.000Z</time>
      </trkpt>
      <trkpt lat="43.98153" lon="7.08569">
        <ele>1188.1999511719</ele>
        <time>2019-02-16T10:44:56.000Z</time>
      </trkpt>
      <trkpt lat="43.98152" lon="7.08571">
        <ele>1188.1999511719</ele>
        <time>2019-02-16T10:44:58.000Z</time>
      </trkpt>
      <trkpt lat="43.98152" lon="7.08574">
        <ele>1188.4000244141</ele>
        <time>2019-02-16T10:45:02.000Z</time>
      </trkpt>
      <trkpt lat="43.98152" lon="7.08574">
        <ele>1188.8000488281</ele>
        <time>2019-02-16T10:45:04.000Z</time>
      </trkpt>
      <trkpt lat="43.98153" lon="7.08578">
        <ele>1189.4000244141</ele>
        <time>2019-02-16T10:45:08.000Z</time>
      </trkpt>
      <trkpt lat="43.98153" lon="7.08579">
        <ele>1190</ele>
        <time>2019-02-16T10:45:11.000Z</time>
      </trkpt>
      <trkpt lat="43.98153" lon="7.08582">
        <ele>1190.4000244141</ele>
        <time>2019-02-16T10:45:13.000Z</time>
      </trkpt>
      <trkpt lat="43.98154" lon="7.08586">
        <ele>1191.4000244141</ele>
        <time>2019-02-16T10:45:18.000Z</time>
      </trkpt>
      <trkpt lat="43.98154" lon="7.08586">
        <ele>1191.5999755859</ele>
        <time>2019-02-16T10:45:19.000Z</time>
      </trkpt>
      <trkpt lat="43.98156" lon="7.0859">
        <ele>1192.4000244141</ele>
        <time>2019-02-16T10:45:24.000Z</time>
      </trkpt>
      <trkpt lat="43.98156" lon="7.08591">
        <ele>1192.5999755859</ele>
        <time>2019-02-16T10:45:25.000Z</time>
      </trkpt>
      <trkpt lat="43.98157" lon="7.08594">
        <ele>1193.5999755859</ele>
        <time>2019-02-16T10:45:30.000Z</time>
      </trkpt>
      <trkpt lat="43.98157" lon="7.08595">
        <ele>1193.8000488281</ele>
        <time>2019-02-16T10:45:31.000Z</time>
      </trkpt>
      <trkpt lat="43.98158" lon="7.08597">
        <ele>1194.8000488281</ele>
        <time>2019-02-16T10:45:37.000Z</time>
      </trkpt>
      <trkpt lat="43.98158" lon="7.08597">
        <ele>1194.8000488281</ele>
        <time>2019-02-16T10:45:38.000Z</time>
      </trkpt>
      <trkpt lat="43.98158" lon="7.08602">
        <ele>1195.4000244141</ele>
        <time>2019-02-16T10:45:44.000Z</time>
      </trkpt>
      <trkpt lat="43.98158" lon="7.08604">
        <ele>1196</ele>
        <time>2019-02-16T10:45:47.000Z</time>
      </trkpt>
      <trkpt lat="43.98158" lon="7.08606">
        <ele>1196.5999755859</ele>
        <time>2019-02-16T10:45:50.000Z</time>
      </trkpt>
      <trkpt lat="43.98158" lon="7.08608">
        <ele>1197</ele>
        <time>2019-02-16T10:45:52.000Z</time>
      </trkpt>
      <trkpt lat="43.98158" lon="7.08611">
        <ele>1198</ele>
        <time>2019-02-16T10:45:56.000Z</time>
      </trkpt>
      <trkpt lat="43.98158" lon="7.08612">
        <ele>1198.1999511719</ele>
        <time>2019-02-16T10:45:57.000Z</time>
      </trkpt>
      <trkpt lat="43.98158" lon="7.08615">
        <ele>1198.8000488281</ele>
        <time>2019-02-16T10:46:01.000Z</time>
      </trkpt>
      <trkpt lat="43.98158" lon="7.08615">
        <ele>1199.4000244141</ele>
        <time>2019-02-16T10:46:03.000Z</time>
      </trkpt>
      <trkpt lat="43.98158" lon="7.08619">
        <ele>1200.4000244141</ele>
        <time>2019-02-16T10:46:07.000Z</time>
      </trkpt>
      <trkpt lat="43.98158" lon="7.0862">
        <ele>1201.1999511719</ele>
        <time>2019-02-16T10:46:12.000Z</time>
      </trkpt>
      <trkpt lat="43.98158" lon="7.08622">
        <ele>1201.5999755859</ele>
        <time>2019-02-16T10:46:15.000Z</time>
      </trkpt>
      <trkpt lat="43.98158" lon="7.08626">
        <ele>1202.1999511719</ele>
        <time>2019-02-16T10:46:18.000Z</time>
      </trkpt>
      <trkpt lat="43.98157" lon="7.08629">
        <ele>1202.8000488281</ele>
        <time>2019-02-16T10:46:22.000Z</time>
      </trkpt>
      <trkpt lat="43.98156" lon="7.08632">
        <ele>1203.4000244141</ele>
        <time>2019-02-16T10:46:26.000Z</time>
      </trkpt>
      <trkpt lat="43.98156" lon="7.08634">
        <ele>1203.8000488281</ele>
        <time>2019-02-16T10:46:28.000Z</time>
      </trkpt>
      <trkpt lat="43.98156" lon="7.08637">
        <ele>1204.5999755859</ele>
        <time>2019-02-16T10:46:32.000Z</time>
      </trkpt>
      <trkpt lat="43.98156" lon="7.08638">
        <ele>1205.1999511719</ele>
        <time>2019-02-16T10:46:34.000Z</time>
      </trkpt>
      <trkpt lat="43.98155" lon="7.08641">
        <ele>1206.1999511719</ele>
        <time>2019-02-16T10:46:38.000Z</time>
      </trkpt>
      <trkpt lat="43.98155" lon="7.08642">
        <ele>1206.5999755859</ele>
        <time>2019-02-16T10:46:40.000Z</time>
      </trkpt>
      <trkpt lat="43.98154" lon="7.08644">
        <ele>1206.4000244141</ele>
        <time>2019-02-16T10:46:42.000Z</time>
      </trkpt>
      <trkpt lat="43.98154" lon="7.08646">
        <ele>1206.1999511719</ele>
        <time>2019-02-16T10:46:44.000Z</time>
      </trkpt>
      <trkpt lat="43.98153" lon="7.08647">
        <ele>1206.1999511719</ele>
        <time>2019-02-16T10:46:45.000Z</time>
      </trkpt>
      <trkpt lat="43.98147" lon="7.08654">
        <ele>1206.8000488281</ele>
        <time>2019-02-16T10:46:50.000Z</time>
      </trkpt>
      <trkpt lat="43.98142" lon="7.0866">
        <ele>1207.4000244141</ele>
        <time>2019-02-16T10:46:54.000Z</time>
      </trkpt>
      <trkpt lat="43.98137" lon="7.08666">
        <ele>1208</ele>
        <time>2019-02-16T10:46:57.000Z</time>
      </trkpt>
      <trkpt lat="43.98132" lon="7.08668">
        <ele>1208.5999755859</ele>
        <time>2019-02-16T10:47:00.000Z</time>
      </trkpt>
      <trkpt lat="43.98131" lon="7.08669">
        <ele>1208.8000488281</ele>
        <time>2019-02-16T10:47:01.000Z</time>
      </trkpt>
      <trkpt lat="43.98125" lon="7.08676">
        <ele>1209.8000488281</ele>
        <time>2019-02-16T10:47:06.000Z</time>
      </trkpt>
      <trkpt lat="43.98123" lon="7.08679">
        <ele>1210.1999511719</ele>
        <time>2019-02-16T10:47:08.000Z</time>
      </trkpt>
      <trkpt lat="43.98121" lon="7.08682">
        <ele>1210.8000488281</ele>
        <time>2019-02-16T10:47:10.000Z</time>
      </trkpt>
      <trkpt lat="43.98116" lon="7.08688">
        <ele>1211.1999511719</ele>
        <time>2019-02-16T10:47:14.000Z</time>
      </trkpt>
      <trkpt lat="43.9811" lon="7.08696">
        <ele>1211.8000488281</ele>
        <time>2019-02-16T10:47:18.000Z</time>
      </trkpt>
      <trkpt lat="43.9811" lon="7.08697">
        <ele>1212.1999511719</ele>
        <time>2019-02-16T10:47:19.000Z</time>
      </trkpt>
      <trkpt lat="43.9811" lon="7.08696">
        <ele>1212.4000244141</ele>
        <time>2019-02-16T10:47:20.000Z</time>
      </trkpt>
      <trkpt lat="43.9811" lon="7.08697">
        <ele>1213.1999511719</ele>
        <time>2019-02-16T10:47:22.000Z</time>
      </trkpt>
      <trkpt lat="43.98108" lon="7.087">
        <ele>1213.5999755859</ele>
        <time>2019-02-16T10:47:27.000Z</time>
      </trkpt>
      <trkpt lat="43.98104" lon="7.08703">
        <ele>1214.1999511719</ele>
        <time>2019-02-16T10:47:32.000Z</time>
      </trkpt>
      <trkpt lat="43.98101" lon="7.08707">
        <ele>1214</ele>
        <time>2019-02-16T10:47:36.000Z</time>
      </trkpt>
      <trkpt lat="43.98096" lon="7.08711">
        <ele>1214.4000244141</ele>
        <time>2019-02-16T10:47:43.000Z</time>
      </trkpt>
      <trkpt lat="43.98089" lon="7.08721">
        <ele>1214</ele>
        <time>2019-02-16T10:47:49.000Z</time>
      </trkpt>
      <trkpt lat="43.98078" lon="7.08743">
        <ele>1213.5999755859</ele>
        <time>2019-02-16T10:47:55.000Z</time>
      </trkpt>
      <trkpt lat="43.98064" lon="7.08764">
        <ele>1213.5999755859</ele>
        <time>2019-02-16T10:48:01.000Z</time>
      </trkpt>
      <trkpt lat="43.98055" lon="7.08777">
        <ele>1213.8000488281</ele>
        <time>2019-02-16T10:48:07.000Z</time>
      </trkpt>
      <trkpt lat="43.98052" lon="7.08792">
        <ele>1214.8000488281</ele>
        <time>2019-02-16T10:48:12.000Z</time>
      </trkpt>
      <trkpt lat="43.98054" lon="7.08811">
        <ele>1214</ele>
        <time>2019-02-16T10:48:16.000Z</time>
      </trkpt>
      <trkpt lat="43.98059" lon="7.08838">
        <ele>1212.8000488281</ele>
        <time>2019-02-16T10:48:21.000Z</time>
      </trkpt>
      <trkpt lat="43.9806" lon="7.08852">
        <ele>1213.4000244141</ele>
        <time>2019-02-16T10:48:26.000Z</time>
      </trkpt>
      <trkpt lat="43.9806" lon="7.08856">
        <ele>1214.1999511719</ele>
        <time>2019-02-16T10:48:28.000Z</time>
      </trkpt>
      <trkpt lat="43.98061" lon="7.08856">
        <ele>1215</ele>
        <time>2019-02-16T10:48:31.000Z</time>
      </trkpt>
      <trkpt lat="43.9806" lon="7.0886">
        <ele>1215.1999511719</ele>
        <time>2019-02-16T10:48:34.000Z</time>
      </trkpt>
      <trkpt lat="43.98061" lon="7.08862">
        <ele>1215.8000488281</ele>
        <time>2019-02-16T10:48:37.000Z</time>
      </trkpt>
      <trkpt lat="43.9806" lon="7.08865">
        <ele>1216.4000244141</ele>
        <time>2019-02-16T10:48:40.000Z</time>
      </trkpt>
      <trkpt lat="43.98061" lon="7.08869">
        <ele>1217.4000244141</ele>
        <time>2019-02-16T10:48:45.000Z</time>
      </trkpt>
      <trkpt lat="43.98061" lon="7.0887">
        <ele>1217.5999755859</ele>
        <time>2019-02-16T10:48:46.000Z</time>
      </trkpt>
      <trkpt lat="43.98062" lon="7.08873">
        <ele>1218.5999755859</ele>
        <time>2019-02-16T10:48:51.000Z</time>
      </trkpt>
      <trkpt lat="43.98063" lon="7.08876">
        <ele>1219.1999511719</ele>
        <time>2019-02-16T10:48:55.000Z</time>
      </trkpt>
      <trkpt lat="43.98063" lon="7.08878">
        <ele>1219.5999755859</ele>
        <time>2019-02-16T10:48:58.000Z</time>
      </trkpt>
      <trkpt lat="43.98066" lon="7.08881">
        <ele>1220.5999755859</ele>
        <time>2019-02-16T10:49:03.000Z</time>
      </trkpt>
      <trkpt lat="43.98067" lon="7.08885">
        <ele>1221.8000488281</ele>
        <time>2019-02-16T10:49:09.000Z</time>
      </trkpt>
      <trkpt lat="43.98067" lon="7.08886">
        <ele>1222</ele>
        <time>2019-02-16T10:49:11.000Z</time>
      </trkpt>
      <trkpt lat="43.98067" lon="7.08889">
        <ele>1222.5999755859</ele>
        <time>2019-02-16T10:49:17.000Z</time>
      </trkpt>
      <trkpt lat="43.98067" lon="7.08889">
        <ele>1222.8000488281</ele>
        <time>2019-02-16T10:49:20.000Z</time>
      </trkpt>
      <trkpt lat="43.98067" lon="7.0889">
        <ele>1223</ele>
        <time>2019-02-16T10:49:25.000Z</time>
      </trkpt>
      <trkpt lat="43.9807" lon="7.08897">
        <ele>1223.8000488281</ele>
        <time>2019-02-16T10:49:33.000Z</time>
      </trkpt>
      <trkpt lat="43.9807" lon="7.08898">
        <ele>1224</ele>
        <time>2019-02-16T10:49:34.000Z</time>
      </trkpt>
      <trkpt lat="43.98072" lon="7.08904">
        <ele>1225</ele>
        <time>2019-02-16T10:49:40.000Z</time>
      </trkpt>
      <trkpt lat="43.98072" lon="7.08904">
        <ele>1225.1999511719</ele>
        <time>2019-02-16T10:49:41.000Z</time>
      </trkpt>
      <trkpt lat="43.98072" lon="7.0891">
        <ele>1226</ele>
        <time>2019-02-16T10:49:47.000Z</time>
      </trkpt>
      <trkpt lat="43.98073" lon="7.08912">
        <ele>1226.4000244141</ele>
        <time>2019-02-16T10:49:49.000Z</time>
      </trkpt>
      <trkpt lat="43.98074" lon="7.08916">
        <ele>1226.8000488281</ele>
        <time>2019-02-16T10:49:53.000Z</time>
      </trkpt>
      <trkpt lat="43.98074" lon="7.08925">
        <ele>1227</ele>
        <time>2019-02-16T10:49:58.000Z</time>
      </trkpt>
      <trkpt lat="43.98074" lon="7.08928">
        <ele>1227.1999511719</ele>
        <time>2019-02-16T10:49:59.000Z</time>
      </trkpt>
      <trkpt lat="43.98073" lon="7.08937">
        <ele>1228.1999511719</ele>
        <time>2019-02-16T10:50:04.000Z</time>
      </trkpt>
      <trkpt lat="43.98073" lon="7.08939">
        <ele>1228.4000244141</ele>
        <time>2019-02-16T10:50:05.000Z</time>
      </trkpt>
      <trkpt lat="43.98072" lon="7.08951">
        <ele>1229</ele>
        <time>2019-02-16T10:50:11.000Z</time>
      </trkpt>
      <trkpt lat="43.98072" lon="7.08954">
        <ele>1229.4000244141</ele>
        <time>2019-02-16T10:50:12.000Z</time>
      </trkpt>
      <trkpt lat="43.98068" lon="7.08968">
        <ele>1229.5999755859</ele>
        <time>2019-02-16T10:50:17.000Z</time>
      </trkpt>
      <trkpt lat="43.98064" lon="7.08984">
        <ele>1228.1999511719</ele>
        <time>2019-02-16T10:50:22.000Z</time>
      </trkpt>
      <trkpt lat="43.98062" lon="7.0899">
        <ele>1227.5999755859</ele>
        <time>2019-02-16T10:50:25.000Z</time>
      </trkpt>
      <trkpt lat="43.98061" lon="7.08991">
        <ele>1227.5999755859</ele>
        <time>2019-02-16T10:50:26.000Z</time>
      </trkpt>
      <trkpt lat="43.98054" lon="7.09001">
        <ele>1229.1999511719</ele>
        <time>2019-02-16T10:50:33.000Z</time>
      </trkpt>
      <trkpt lat="43.98054" lon="7.09003">
        <ele>1229.4000244141</ele>
        <time>2019-02-16T10:50:34.000Z</time>
      </trkpt>
      <trkpt lat="43.98051" lon="7.09007">
        <ele>1230.4000244141</ele>
        <time>2019-02-16T10:50:37.000Z</time>
      </trkpt>
      <trkpt lat="43.98049" lon="7.09009">
        <ele>1231</ele>
        <time>2019-02-16T10:50:39.000Z</time>
      </trkpt>
      <trkpt lat="43.98045" lon="7.09013">
        <ele>1231.4000244141</ele>
        <time>2019-02-16T10:50:42.000Z</time>
      </trkpt>
      <trkpt lat="43.98041" lon="7.09014">
        <ele>1232.1999511719</ele>
        <time>2019-02-16T10:50:45.000Z</time>
      </trkpt>
      <trkpt lat="43.98041" lon="7.09015">
        <ele>1232.5999755859</ele>
        <time>2019-02-16T10:50:47.000Z</time>
      </trkpt>
      <trkpt lat="43.9804" lon="7.09015">
        <ele>1233</ele>
        <time>2019-02-16T10:50:49.000Z</time>
      </trkpt>
      <trkpt lat="43.98037" lon="7.09017">
        <ele>1233.5999755859</ele>
        <time>2019-02-16T10:50:55.000Z</time>
      </trkpt>
      <trkpt lat="43.98036" lon="7.09018">
        <ele>1234</ele>
        <time>2019-02-16T10:50:56.000Z</time>
      </trkpt>
      <trkpt lat="43.98036" lon="7.09018">
        <ele>1234.8000488281</ele>
        <time>2019-02-16T10:50:59.000Z</time>
      </trkpt>
      <trkpt lat="43.98034" lon="7.0902">
        <ele>1235</ele>
        <time>2019-02-16T10:51:01.000Z</time>
      </trkpt>
      <trkpt lat="43.98031" lon="7.09024">
        <ele>1235.8000488281</ele>
        <time>2019-02-16T10:51:08.000Z</time>
      </trkpt>
      <trkpt lat="43.98027" lon="7.09029">
        <ele>1236.8000488281</ele>
        <time>2019-02-16T10:51:15.000Z</time>
      </trkpt>
      <trkpt lat="43.98025" lon="7.09035">
        <ele>1237.8000488281</ele>
        <time>2019-02-16T10:51:22.000Z</time>
      </trkpt>
      <trkpt lat="43.98023" lon="7.09039">
        <ele>1239</ele>
        <time>2019-02-16T10:51:27.000Z</time>
      </trkpt>
      <trkpt lat="43.98021" lon="7.09042">
        <ele>1240.1999511719</ele>
        <time>2019-02-16T10:51:31.000Z</time>
      </trkpt>
      <trkpt lat="43.9802" lon="7.09044">
        <ele>1240.8000488281</ele>
        <time>2019-02-16T10:51:38.000Z</time>
      </trkpt>
      <trkpt lat="43.98016" lon="7.09056">
        <ele>1241.4000244141</ele>
        <time>2019-02-16T10:51:44.000Z</time>
      </trkpt>
      <trkpt lat="43.98011" lon="7.09063">
        <ele>1242.1999511719</ele>
        <time>2019-02-16T10:51:48.000Z</time>
      </trkpt>
      <trkpt lat="43.9801" lon="7.09065">
        <ele>1242.5999755859</ele>
        <time>2019-02-16T10:51:49.000Z</time>
      </trkpt>
      <trkpt lat="43.98003" lon="7.09075">
        <ele>1243.1999511719</ele>
        <time>2019-02-16T10:51:55.000Z</time>
      </trkpt>
      <trkpt lat="43.98" lon="7.09076">
        <ele>1243.8000488281</ele>
        <time>2019-02-16T10:51:58.000Z</time>
      </trkpt>
      <trkpt lat="43.97999" lon="7.09077">
        <ele>1244</ele>
        <time>2019-02-16T10:51:59.000Z</time>
      </trkpt>
      <trkpt lat="43.97997" lon="7.09081">
        <ele>1244.8000488281</ele>
        <time>2019-02-16T10:52:03.000Z</time>
      </trkpt>
      <trkpt lat="43.97997" lon="7.09081">
        <ele>1245.1999511719</ele>
        <time>2019-02-16T10:52:05.000Z</time>
      </trkpt>
      <trkpt lat="43.97995" lon="7.09085">
        <ele>1245.8000488281</ele>
        <time>2019-02-16T10:52:10.000Z</time>
      </trkpt>
      <trkpt lat="43.97995" lon="7.09085">
        <ele>1246</ele>
        <time>2019-02-16T10:52:11.000Z</time>
      </trkpt>
      <trkpt lat="43.97992" lon="7.0909">
        <ele>1247</ele>
        <time>2019-02-16T10:52:16.000Z</time>
      </trkpt>
      <trkpt lat="43.97992" lon="7.09091">
        <ele>1247.4000244141</ele>
        <time>2019-02-16T10:52:18.000Z</time>
      </trkpt>
      <trkpt lat="43.97993" lon="7.09093">
        <ele>1248</ele>
        <time>2019-02-16T10:52:21.000Z</time>
      </trkpt>
      <trkpt lat="43.97994" lon="7.09093">
        <ele>1249</ele>
        <time>2019-02-16T10:52:25.000Z</time>
      </trkpt>
      <trkpt lat="43.97994" lon="7.09093">
        <ele>1249</ele>
        <time>2019-02-16T10:52:26.000Z</time>
      </trkpt>
      <trkpt lat="43.97995" lon="7.09094">
        <ele>1249.1999511719</ele>
        <time>2019-02-16T10:52:32.000Z</time>
      </trkpt>
      <trkpt lat="43.98" lon="7.09097">
        <ele>1249.4000244141</ele>
        <time>2019-02-16T10:52:38.000Z</time>
      </trkpt>
      <trkpt lat="43.98002" lon="7.09097">
        <ele>1250.1999511719</ele>
        <time>2019-02-16T10:52:42.000Z</time>
      </trkpt>
      <trkpt lat="43.98004" lon="7.09096">
        <ele>1250.5999755859</ele>
        <time>2019-02-16T10:52:44.000Z</time>
      </trkpt>
      <trkpt lat="43.98006" lon="7.09096">
        <ele>1251.4000244141</ele>
        <time>2019-02-16T10:52:47.000Z</time>
      </trkpt>
      <trkpt lat="43.98006" lon="7.09096">
        <ele>1251.5999755859</ele>
        <time>2019-02-16T10:52:48.000Z</time>
      </trkpt>
      <trkpt lat="43.98011" lon="7.09095">
        <ele>1252.5999755859</ele>
        <time>2019-02-16T10:52:56.000Z</time>
      </trkpt>
      <trkpt lat="43.98012" lon="7.09095">
        <ele>1252.5999755859</ele>
        <time>2019-02-16T10:52:57.000Z</time>
      </trkpt>
      <trkpt lat="43.98013" lon="7.09096">
        <ele>1253.5999755859</ele>
        <time>2019-02-16T10:53:01.000Z</time>
      </trkpt>
      <trkpt lat="43.98015" lon="7.09095">
        <ele>1254</ele>
        <time>2019-02-16T10:53:03.000Z</time>
      </trkpt>
      <trkpt lat="43.98016" lon="7.09095">
        <ele>1254.5999755859</ele>
        <time>2019-02-16T10:53:06.000Z</time>
      </trkpt>
      <trkpt lat="43.98018" lon="7.09094">
        <ele>1254.8000488281</ele>
        <time>2019-02-16T10:53:09.000Z</time>
      </trkpt>
      <trkpt lat="43.98019" lon="7.09094">
        <ele>1255.5999755859</ele>
        <time>2019-02-16T10:53:14.000Z</time>
      </trkpt>
      <trkpt lat="43.98019" lon="7.09094">
        <ele>1255.8000488281</ele>
        <time>2019-02-16T10:53:15.000Z</time>
      </trkpt>
      <trkpt lat="43.98019" lon="7.09097">
        <ele>1256.8000488281</ele>
        <time>2019-02-16T10:53:20.000Z</time>
      </trkpt>
      <trkpt lat="43.98019" lon="7.09097">
        <ele>1257</ele>
        <time>2019-02-16T10:53:21.000Z</time>
      </trkpt>
      <trkpt lat="43.98018" lon="7.09101">
        <ele>1257.8000488281</ele>
        <time>2019-02-16T10:53:26.000Z</time>
      </trkpt>
      <trkpt lat="43.98018" lon="7.09101">
        <ele>1258.4000244141</ele>
        <time>2019-02-16T10:53:28.000Z</time>
      </trkpt>
      <trkpt lat="43.98017" lon="7.09104">
        <ele>1259</ele>
        <time>2019-02-16T10:53:31.000Z</time>
      </trkpt>
      <trkpt lat="43.98016" lon="7.09105">
        <ele>1259.8000488281</ele>
        <time>2019-02-16T10:53:35.000Z</time>
      </trkpt>
      <trkpt lat="43.98016" lon="7.09106">
        <ele>1260</ele>
        <time>2019-02-16T10:53:36.000Z</time>
      </trkpt>
      <trkpt lat="43.98015" lon="7.0911">
        <ele>1261</ele>
        <time>2019-02-16T10:53:41.000Z</time>
      </trkpt>
      <trkpt lat="43.98014" lon="7.09111">
        <ele>1261.1999511719</ele>
        <time>2019-02-16T10:53:42.000Z</time>
      </trkpt>
      <trkpt lat="43.98014" lon="7.09114">
        <ele>1262</ele>
        <time>2019-02-16T10:53:46.000Z</time>
      </trkpt>
      <trkpt lat="43.98013" lon="7.09114">
        <ele>1262.1999511719</ele>
        <time>2019-02-16T10:53:47.000Z</time>
      </trkpt>
      <trkpt lat="43.98013" lon="7.09114">
        <ele>1262.4000244141</ele>
        <time>2019-02-16T10:53:48.000Z</time>
      </trkpt>
      <trkpt lat="43.98012" lon="7.09117">
        <ele>1263.5999755859</ele>
        <time>2019-02-16T10:53:53.000Z</time>
      </trkpt>
      <trkpt lat="43.98011" lon="7.09118">
        <ele>1263.8000488281</ele>
        <time>2019-02-16T10:53:54.000Z</time>
      </trkpt>
      <trkpt lat="43.98011" lon="7.09121">
        <ele>1264.5999755859</ele>
        <time>2019-02-16T10:53:59.000Z</time>
      </trkpt>
      <trkpt lat="43.9801" lon="7.09122">
        <ele>1264.8000488281</ele>
        <time>2019-02-16T10:54:00.000Z</time>
      </trkpt>
      <trkpt lat="43.98009" lon="7.09124">
        <ele>1265.5999755859</ele>
        <time>2019-02-16T10:54:04.000Z</time>
      </trkpt>
      <trkpt lat="43.98008" lon="7.09125">
        <ele>1266.1999511719</ele>
        <time>2019-02-16T10:54:06.000Z</time>
      </trkpt>
      <trkpt lat="43.98006" lon="7.09129">
        <ele>1266.8000488281</ele>
        <time>2019-02-16T10:54:10.000Z</time>
      </trkpt>
      <trkpt lat="43.98006" lon="7.09129">
        <ele>1267</ele>
        <time>2019-02-16T10:54:11.000Z</time>
      </trkpt>
      <trkpt lat="43.98003" lon="7.09134">
        <ele>1267.8000488281</ele>
        <time>2019-02-16T10:54:17.000Z</time>
      </trkpt>
      <trkpt lat="43.98003" lon="7.09136">
        <ele>1268.1999511719</ele>
        <time>2019-02-16T10:54:19.000Z</time>
      </trkpt>
      <trkpt lat="43.98002" lon="7.0914">
        <ele>1269</ele>
        <time>2019-02-16T10:54:24.000Z</time>
      </trkpt>
      <trkpt lat="43.98002" lon="7.09141">
        <ele>1269.4000244141</ele>
        <time>2019-02-16T10:54:26.000Z</time>
      </trkpt>
      <trkpt lat="43.98001" lon="7.09143">
        <ele>1270</ele>
        <time>2019-02-16T10:54:29.000Z</time>
      </trkpt>
      <trkpt lat="43.98001" lon="7.09144">
        <ele>1270.4000244141</ele>
        <time>2019-02-16T10:54:31.000Z</time>
      </trkpt>
      <trkpt lat="43.98002" lon="7.09147">
        <ele>1271.1999511719</ele>
        <time>2019-02-16T10:54:35.000Z</time>
      </trkpt>
      <trkpt lat="43.98001" lon="7.0915">
        <ele>1271.5999755859</ele>
        <time>2019-02-16T10:54:37.000Z</time>
      </trkpt>
      <trkpt lat="43.98001" lon="7.09153">
        <ele>1272.1999511719</ele>
        <time>2019-02-16T10:54:40.000Z</time>
      </trkpt>
      <trkpt lat="43.98" lon="7.09153">
        <ele>1272.4000244141</ele>
        <time>2019-02-16T10:54:41.000Z</time>
      </trkpt>
      <trkpt lat="43.98" lon="7.09155">
        <ele>1272.8000488281</ele>
        <time>2019-02-16T10:54:43.000Z</time>
      </trkpt>
      <trkpt lat="43.97999" lon="7.09157">
        <ele>1273.5999755859</ele>
        <time>2019-02-16T10:54:46.000Z</time>
      </trkpt>
      <trkpt lat="43.97998" lon="7.0916">
        <ele>1274.4000244141</ele>
        <time>2019-02-16T10:54:49.000Z</time>
      </trkpt>
      <trkpt lat="43.97998" lon="7.09164">
        <ele>1274.5999755859</ele>
        <time>2019-02-16T10:54:52.000Z</time>
      </trkpt>
      <trkpt lat="43.97998" lon="7.09166">
        <ele>1274.8000488281</ele>
        <time>2019-02-16T10:54:54.000Z</time>
      </trkpt>
      <trkpt lat="43.97997" lon="7.0917">
        <ele>1275.5999755859</ele>
        <time>2019-02-16T10:54:58.000Z</time>
      </trkpt>
      <trkpt lat="43.97997" lon="7.09171">
        <ele>1275.8000488281</ele>
        <time>2019-02-16T10:54:59.000Z</time>
      </trkpt>
      <trkpt lat="43.97997" lon="7.09174">
        <ele>1276.5999755859</ele>
        <time>2019-02-16T10:55:02.000Z</time>
      </trkpt>
      <trkpt lat="43.97997" lon="7.09176">
        <ele>1276.8000488281</ele>
        <time>2019-02-16T10:55:04.000Z</time>
      </trkpt>
      <trkpt lat="43.97997" lon="7.09179">
        <ele>1277.1999511719</ele>
        <time>2019-02-16T10:55:09.000Z</time>
      </trkpt>
      <trkpt lat="43.97998" lon="7.09183">
        <ele>1278</ele>
        <time>2019-02-16T10:55:13.000Z</time>
      </trkpt>
      <trkpt lat="43.97998" lon="7.09185">
        <ele>1278.5999755859</ele>
        <time>2019-02-16T10:55:16.000Z</time>
      </trkpt>
      <trkpt lat="43.97998" lon="7.09187">
        <ele>1279</ele>
        <time>2019-02-16T10:55:19.000Z</time>
      </trkpt>
      <trkpt lat="43.98" lon="7.0919">
        <ele>1279.8000488281</ele>
        <time>2019-02-16T10:55:23.000Z</time>
      </trkpt>
      <trkpt lat="43.98" lon="7.09191">
        <ele>1280.1999511719</ele>
        <time>2019-02-16T10:55:25.000Z</time>
      </trkpt>
      <trkpt lat="43.97998" lon="7.09195">
        <ele>1281</ele>
        <time>2019-02-16T10:55:29.000Z</time>
      </trkpt>
      <trkpt lat="43.97998" lon="7.09197">
        <ele>1281.4000244141</ele>
        <time>2019-02-16T10:55:31.000Z</time>
      </trkpt>
      <trkpt lat="43.97998" lon="7.09198">
        <ele>1281.5999755859</ele>
        <time>2019-02-16T10:55:32.000Z</time>
      </trkpt>
      <trkpt lat="43.97998" lon="7.09201">
        <ele>1281.8000488281</ele>
        <time>2019-02-16T10:55:35.000Z</time>
      </trkpt>
      <trkpt lat="43.97998" lon="7.09202">
        <ele>1282.4000244141</ele>
        <time>2019-02-16T10:55:38.000Z</time>
      </trkpt>
      <trkpt lat="43.97998" lon="7.09205">
        <ele>1282.8000488281</ele>
        <time>2019-02-16T10:55:40.000Z</time>
      </trkpt>
      <trkpt lat="43.97997" lon="7.09208">
        <ele>1283.4000244141</ele>
        <time>2019-02-16T10:55:43.000Z</time>
      </trkpt>
      <trkpt lat="43.97998" lon="7.09211">
        <ele>1284.1999511719</ele>
        <time>2019-02-16T10:55:47.000Z</time>
      </trkpt>
      <trkpt lat="43.97998" lon="7.09213">
        <ele>1284.5999755859</ele>
        <time>2019-02-16T10:55:49.000Z</time>
      </trkpt>
      <trkpt lat="43.97998" lon="7.09216">
        <ele>1285.1999511719</ele>
        <time>2019-02-16T10:55:53.000Z</time>
      </trkpt>
      <trkpt lat="43.97998" lon="7.09217">
        <ele>1285.5999755859</ele>
        <time>2019-02-16T10:55:54.000Z</time>
      </trkpt>
      <trkpt lat="43.97998" lon="7.09222">
        <ele>1286.5999755859</ele>
        <time>2019-02-16T10:55:59.000Z</time>
      </trkpt>
      <trkpt lat="43.97998" lon="7.09222">
        <ele>1286.8000488281</ele>
        <time>2019-02-16T10:56:00.000Z</time>
      </trkpt>
      <trkpt lat="43.97998" lon="7.09227">
        <ele>1287.5999755859</ele>
        <time>2019-02-16T10:56:06.000Z</time>
      </trkpt>
      <trkpt lat="43.97998" lon="7.09228">
        <ele>1287.8000488281</ele>
        <time>2019-02-16T10:56:07.000Z</time>
      </trkpt>
      <trkpt lat="43.97997" lon="7.09233">
        <ele>1288.8000488281</ele>
        <time>2019-02-16T10:56:13.000Z</time>
      </trkpt>
      <trkpt lat="43.97997" lon="7.09233">
        <ele>1289</ele>
        <time>2019-02-16T10:56:14.000Z</time>
      </trkpt>
      <trkpt lat="43.97997" lon="7.09236">
        <ele>1290</ele>
        <time>2019-02-16T10:56:19.000Z</time>
      </trkpt>
      <trkpt lat="43.97998" lon="7.09238">
        <ele>1290.1999511719</ele>
        <time>2019-02-16T10:56:20.000Z</time>
      </trkpt>
      <trkpt lat="43.97998" lon="7.09243">
        <ele>1291</ele>
        <time>2019-02-16T10:56:25.000Z</time>
      </trkpt>
      <trkpt lat="43.97996" lon="7.09248">
        <ele>1292.1999511719</ele>
        <time>2019-02-16T10:56:31.000Z</time>
      </trkpt>
      <trkpt lat="43.97996" lon="7.09252">
        <ele>1293.4000244141</ele>
        <time>2019-02-16T10:56:36.000Z</time>
      </trkpt>
      <trkpt lat="43.97996" lon="7.09254">
        <ele>1293.5999755859</ele>
        <time>2019-02-16T10:56:37.000Z</time>
      </trkpt>
      <trkpt lat="43.97996" lon="7.09257">
        <ele>1294.1999511719</ele>
        <time>2019-02-16T10:56:40.000Z</time>
      </trkpt>
      <trkpt lat="43.97996" lon="7.09259">
        <ele>1294.4000244141</ele>
        <time>2019-02-16T10:56:42.000Z</time>
      </trkpt>
      <trkpt lat="43.97996" lon="7.09261">
        <ele>1294.5999755859</ele>
        <time>2019-02-16T10:56:43.000Z</time>
      </trkpt>
      <trkpt lat="43.97997" lon="7.09263">
        <ele>1295.4000244141</ele>
        <time>2019-02-16T10:56:47.000Z</time>
      </trkpt>
      <trkpt lat="43.97997" lon="7.09263">
        <ele>1296</ele>
        <time>2019-02-16T10:56:49.000Z</time>
      </trkpt>
      <trkpt lat="43.97997" lon="7.09264">
        <ele>1295.5999755859</ele>
        <time>2019-02-16T10:57:05.000Z</time>
      </trkpt>
      <trkpt lat="43.97997" lon="7.09266">
        <ele>1295.5999755859</ele>
        <time>2019-02-16T10:57:21.000Z</time>
      </trkpt>
      <trkpt lat="43.97996" lon="7.09268">
        <ele>1295.8000488281</ele>
        <time>2019-02-16T10:57:44.000Z</time>
      </trkpt>
      <trkpt lat="43.97996" lon="7.09269">
        <ele>1295.5999755859</ele>
        <time>2019-02-16T10:58:08.000Z</time>
      </trkpt>
      <trkpt lat="43.97996" lon="7.09269">
        <ele>1295.5999755859</ele>
        <time>2019-02-16T10:58:35.000Z</time>
      </trkpt>
      <trkpt lat="43.97996" lon="7.09269">
        <ele>1295.5999755859</ele>
        <time>2019-02-16T10:59:03.000Z</time>
      </trkpt>
      <trkpt lat="43.97996" lon="7.09269">
        <ele>1295.5999755859</ele>
        <time>2019-02-16T10:59:22.000Z</time>
      </trkpt>
      <trkpt lat="43.97996" lon="7.09269">
        <ele>1295.5999755859</ele>
        <time>2019-02-16T10:59:36.000Z</time>
      </trkpt>
      <trkpt lat="43.97996" lon="7.09269">
        <ele>1295.5999755859</ele>
        <time>2019-02-16T10:59:52.000Z</time>
      </trkpt>
      <trkpt lat="43.97996" lon="7.09269">
        <ele>1295.8000488281</ele>
        <time>2019-02-16T11:00:12.000Z</time>
      </trkpt>
      <trkpt lat="43.97997" lon="7.09268">
        <ele>1295.8000488281</ele>
        <time>2019-02-16T11:00:34.000Z</time>
      </trkpt>
      <trkpt lat="43.97997" lon="7.09268">
        <ele>1295.8000488281</ele>
        <time>2019-02-16T11:01:04.000Z</time>
      </trkpt>
      <trkpt lat="43.97996" lon="7.09269">
        <ele>1295.5999755859</ele>
        <time>2019-02-16T11:01:26.000Z</time>
      </trkpt>
      <trkpt lat="43.97996" lon="7.09269">
        <ele>1295.5999755859</ele>
        <time>2019-02-16T11:01:54.000Z</time>
      </trkpt>
      <trkpt lat="43.97996" lon="7.09269">
        <ele>1295.5999755859</ele>
        <time>2019-02-16T11:02:06.000Z</time>
      </trkpt>
      <trkpt lat="43.97996" lon="7.09269">
        <ele>1295.5999755859</ele>
        <time>2019-02-16T11:02:33.000Z</time>
      </trkpt>
      <trkpt lat="43.97996" lon="7.09268">
        <ele>1295.4000244141</ele>
        <time>2019-02-16T11:02:59.000Z</time>
      </trkpt>
      <trkpt lat="43.97996" lon="7.09268">
        <ele>1295.4000244141</ele>
        <time>2019-02-16T11:03:15.000Z</time>
      </trkpt>
      <trkpt lat="43.97996" lon="7.09268">
        <ele>1295.5999755859</ele>
        <time>2019-02-16T11:03:28.000Z</time>
      </trkpt>
      <trkpt lat="43.97996" lon="7.09269">
        <ele>1295.5999755859</ele>
        <time>2019-02-16T11:03:34.000Z</time>
      </trkpt>
      <trkpt lat="43.97997" lon="7.09269">
        <ele>1295.5999755859</ele>
        <time>2019-02-16T11:03:42.000Z</time>
      </trkpt>
      <trkpt lat="43.97998" lon="7.09271">
        <ele>1295.5999755859</ele>
        <time>2019-02-16T11:03:50.000Z</time>
      </trkpt>
      <trkpt lat="43.97998" lon="7.09273">
        <ele>1295.5999755859</ele>
        <time>2019-02-16T11:03:58.000Z</time>
      </trkpt>
      <trkpt lat="43.97998" lon="7.09276">
        <ele>1295.4000244141</ele>
        <time>2019-02-16T11:03:59.000Z</time>
      </trkpt>
      <trkpt lat="43.97999" lon="7.09283">
        <ele>1295.1999511719</ele>
        <time>2019-02-16T11:04:02.000Z</time>
      </trkpt>
      <trkpt lat="43.98001" lon="7.09298">
        <ele>1296.5999755859</ele>
        <time>2019-02-16T11:04:09.000Z</time>
      </trkpt>
      <trkpt lat="43.98001" lon="7.093">
        <ele>1297.1999511719</ele>
        <time>2019-02-16T11:04:11.000Z</time>
      </trkpt>
      <trkpt lat="43.98" lon="7.09304">
        <ele>1297.5999755859</ele>
        <time>2019-02-16T11:04:13.000Z</time>
      </trkpt>
      <trkpt lat="43.98001" lon="7.09304">
        <ele>1297.5999755859</ele>
        <time>2019-02-16T11:04:14.000Z</time>
      </trkpt>
      <trkpt lat="43.98001" lon="7.09308">
        <ele>1297.1999511719</ele>
        <time>2019-02-16T11:04:20.000Z</time>
      </trkpt>
      <trkpt lat="43.98" lon="7.09311">
        <ele>1297.4000244141</ele>
        <time>2019-02-16T11:04:26.000Z</time>
      </trkpt>
      <trkpt lat="43.97999" lon="7.09315">
        <ele>1297.5999755859</ele>
        <time>2019-02-16T11:04:34.000Z</time>
      </trkpt>
      <trkpt lat="43.97999" lon="7.09318">
        <ele>1298.4000244141</ele>
        <time>2019-02-16T11:04:41.000Z</time>
      </trkpt>
      <trkpt lat="43.97999" lon="7.0932">
        <ele>1298.5999755859</ele>
        <time>2019-02-16T11:04:42.000Z</time>
      </trkpt>
      <trkpt lat="43.97999" lon="7.09322">
        <ele>1299.1999511719</ele>
        <time>2019-02-16T11:04:47.000Z</time>
      </trkpt>
      <trkpt lat="43.97999" lon="7.09323">
        <ele>1299.5999755859</ele>
        <time>2019-02-16T11:04:49.000Z</time>
      </trkpt>
      <trkpt lat="43.97997" lon="7.09328">
        <ele>1300.1999511719</ele>
        <time>2019-02-16T11:04:54.000Z</time>
      </trkpt>
      <trkpt lat="43.97997" lon="7.09329">
        <ele>1300.8000488281</ele>
        <time>2019-02-16T11:04:57.000Z</time>
      </trkpt>
      <trkpt lat="43.97994" lon="7.09331">
        <ele>1301.8000488281</ele>
        <time>2019-02-16T11:05:02.000Z</time>
      </trkpt>
      <trkpt lat="43.97994" lon="7.09331">
        <ele>1302</ele>
        <time>2019-02-16T11:05:03.000Z</time>
      </trkpt>
      <trkpt lat="43.97991" lon="7.09333">
        <ele>1303</ele>
        <time>2019-02-16T11:05:08.000Z</time>
      </trkpt>
      <trkpt lat="43.9799" lon="7.09333">
        <ele>1303.1999511719</ele>
        <time>2019-02-16T11:05:09.000Z</time>
      </trkpt>
      <trkpt lat="43.97985" lon="7.09335">
        <ele>1304</ele>
        <time>2019-02-16T11:05:16.000Z</time>
      </trkpt>
      <trkpt lat="43.97984" lon="7.09336">
        <ele>1304.4000244141</ele>
        <time>2019-02-16T11:05:18.000Z</time>
      </trkpt>
      <trkpt lat="43.97981" lon="7.09337">
        <ele>1305.1999511719</ele>
        <time>2019-02-16T11:05:22.000Z</time>
      </trkpt>
      <trkpt lat="43.9798" lon="7.09338">
        <ele>1306.1999511719</ele>
        <time>2019-02-16T11:05:28.000Z</time>
      </trkpt>
      <trkpt lat="43.9798" lon="7.09339">
        <ele>1306.8000488281</ele>
        <time>2019-02-16T11:05:31.000Z</time>
      </trkpt>
      <trkpt lat="43.9798" lon="7.09339">
        <ele>1307.4000244141</ele>
        <time>2019-02-16T11:05:34.000Z</time>
      </trkpt>
      <trkpt lat="43.97981" lon="7.09338">
        <ele>1307.4000244141</ele>
        <time>2019-02-16T11:05:38.000Z</time>
      </trkpt>
      <trkpt lat="43.97983" lon="7.09338">
        <ele>1307.1999511719</ele>
        <time>2019-02-16T11:05:44.000Z</time>
      </trkpt>
      <trkpt lat="43.97986" lon="7.09339">
        <ele>1308.1999511719</ele>
        <time>2019-02-16T11:05:50.000Z</time>
      </trkpt>
      <trkpt lat="43.97987" lon="7.09339">
        <ele>1308.4000244141</ele>
        <time>2019-02-16T11:05:51.000Z</time>
      </trkpt>
      <trkpt lat="43.9799" lon="7.09338">
        <ele>1309.1999511719</ele>
        <time>2019-02-16T11:05:57.000Z</time>
      </trkpt>
      <trkpt lat="43.97991" lon="7.09338">
        <ele>1309.4000244141</ele>
        <time>2019-02-16T11:05:59.000Z</time>
      </trkpt>
      <trkpt lat="43.97991" lon="7.09339">
        <ele>1309.8000488281</ele>
        <time>2019-02-16T11:06:02.000Z</time>
      </trkpt>
      <trkpt lat="43.97994" lon="7.09339">
        <ele>1310.5999755859</ele>
        <time>2019-02-16T11:06:10.000Z</time>
      </trkpt>
      <trkpt lat="43.97993" lon="7.09339">
        <ele>1310.5999755859</ele>
        <time>2019-02-16T11:06:11.000Z</time>
      </trkpt>
      <trkpt lat="43.97996" lon="7.09338">
        <ele>1311.1999511719</ele>
        <time>2019-02-16T11:06:17.000Z</time>
      </trkpt>
      <trkpt lat="43.97993" lon="7.09336">
        <ele>1311.5999755859</ele>
        <time>2019-02-16T11:06:18.000Z</time>
      </trkpt>
      <trkpt lat="43.97994" lon="7.09336">
        <ele>1312</ele>
        <time>2019-02-16T11:06:20.000Z</time>
      </trkpt>
      <trkpt lat="43.97995" lon="7.09339">
        <ele>1312.5999755859</ele>
        <time>2019-02-16T11:06:24.000Z</time>
      </trkpt>
      <trkpt lat="43.97995" lon="7.0934">
        <ele>1313.1999511719</ele>
        <time>2019-02-16T11:06:29.000Z</time>
      </trkpt>
      <trkpt lat="43.97994" lon="7.09341">
        <ele>1313.5999755859</ele>
        <time>2019-02-16T11:06:31.000Z</time>
      </trkpt>
      <trkpt lat="43.97994" lon="7.09343">
        <ele>1314.5999755859</ele>
        <time>2019-02-16T11:06:37.000Z</time>
      </trkpt>
      <trkpt lat="43.97993" lon="7.09344">
        <ele>1314.5999755859</ele>
        <time>2019-02-16T11:06:38.000Z</time>
      </trkpt>
      <trkpt lat="43.97991" lon="7.09345">
        <ele>1315.8000488281</ele>
        <time>2019-02-16T11:06:44.000Z</time>
      </trkpt>
      <trkpt lat="43.97991" lon="7.09347">
        <ele>1316.8000488281</ele>
        <time>2019-02-16T11:06:49.000Z</time>
      </trkpt>
      <trkpt lat="43.9799" lon="7.09348">
        <ele>1317.1999511719</ele>
        <time>2019-02-16T11:06:51.000Z</time>
      </trkpt>
      <trkpt lat="43.97989" lon="7.0935">
        <ele>1318</ele>
        <time>2019-02-16T11:06:56.000Z</time>
      </trkpt>
      <trkpt lat="43.97988" lon="7.09351">
        <ele>1318</ele>
        <time>2019-02-16T11:06:57.000Z</time>
      </trkpt>
      <trkpt lat="43.97986" lon="7.09353">
        <ele>1319</ele>
        <time>2019-02-16T11:07:03.000Z</time>
      </trkpt>
      <trkpt lat="43.97985" lon="7.09357">
        <ele>1319.8000488281</ele>
        <time>2019-02-16T11:07:09.000Z</time>
      </trkpt>
      <trkpt lat="43.97986" lon="7.09357">
        <ele>1320</ele>
        <time>2019-02-16T11:07:10.000Z</time>
      </trkpt>
      <trkpt lat="43.97983" lon="7.09359">
        <ele>1320.8000488281</ele>
        <time>2019-02-16T11:07:15.000Z</time>
      </trkpt>
      <trkpt lat="43.97981" lon="7.09361">
        <ele>1321</ele>
        <time>2019-02-16T11:07:19.000Z</time>
      </trkpt>
      <trkpt lat="43.97979" lon="7.09362">
        <ele>1321.4000244141</ele>
        <time>2019-02-16T11:07:22.000Z</time>
      </trkpt>
      <trkpt lat="43.97979" lon="7.09364">
        <ele>1322.4000244141</ele>
        <time>2019-02-16T11:07:25.000Z</time>
      </trkpt>
      <trkpt lat="43.97978" lon="7.09366">
        <ele>1323</ele>
        <time>2019-02-16T11:07:29.000Z</time>
      </trkpt>
      <trkpt lat="43.97976" lon="7.09368">
        <ele>1323.4000244141</ele>
        <time>2019-02-16T11:07:32.000Z</time>
      </trkpt>
      <trkpt lat="43.97975" lon="7.0937">
        <ele>1324</ele>
        <time>2019-02-16T11:07:35.000Z</time>
      </trkpt>
      <trkpt lat="43.97974" lon="7.09372">
        <ele>1324.5999755859</ele>
        <time>2019-02-16T11:07:38.000Z</time>
      </trkpt>
      <trkpt lat="43.97974" lon="7.09373">
        <ele>1324.8000488281</ele>
        <time>2019-02-16T11:07:39.000Z</time>
      </trkpt>
      <trkpt lat="43.97972" lon="7.09375">
        <ele>1325.1999511719</ele>
        <time>2019-02-16T11:07:41.000Z</time>
      </trkpt>
      <trkpt lat="43.97971" lon="7.09376">
        <ele>1325.5999755859</ele>
        <time>2019-02-16T11:07:44.000Z</time>
      </trkpt>
      <trkpt lat="43.97971" lon="7.09378">
        <ele>1325.8000488281</ele>
        <time>2019-02-16T11:07:45.000Z</time>
      </trkpt>
      <trkpt lat="43.9797" lon="7.09381">
        <ele>1326.5999755859</ele>
        <time>2019-02-16T11:07:50.000Z</time>
      </trkpt>
      <trkpt lat="43.9797" lon="7.09383">
        <ele>1326.8000488281</ele>
        <time>2019-02-16T11:07:52.000Z</time>
      </trkpt>
      <trkpt lat="43.97968" lon="7.09385">
        <ele>1328.1999511719</ele>
        <time>2019-02-16T11:07:56.000Z</time>
      </trkpt>
      <trkpt lat="43.97967" lon="7.09384">
        <ele>1328.4000244141</ele>
        <time>2019-02-16T11:07:57.000Z</time>
      </trkpt>
      <trkpt lat="43.97967" lon="7.09384">
        <ele>1329</ele>
        <time>2019-02-16T11:08:00.000Z</time>
      </trkpt>
      <trkpt lat="43.97965" lon="7.09387">
        <ele>1328.5999755859</ele>
        <time>2019-02-16T11:08:07.000Z</time>
      </trkpt>
      <trkpt lat="43.97964" lon="7.09388">
        <ele>1328.5999755859</ele>
        <time>2019-02-16T11:08:08.000Z</time>
      </trkpt>
      <trkpt lat="43.97956" lon="7.09397">
        <ele>1329</ele>
        <time>2019-02-16T11:08:15.000Z</time>
      </trkpt>
      <trkpt lat="43.97955" lon="7.09399">
        <ele>1329.1999511719</ele>
        <time>2019-02-16T11:08:16.000Z</time>
      </trkpt>
      <trkpt lat="43.97949" lon="7.09405">
        <ele>1330.1999511719</ele>
        <time>2019-02-16T11:08:21.000Z</time>
      </trkpt>
      <trkpt lat="43.97947" lon="7.09406">
        <ele>1330.4000244141</ele>
        <time>2019-02-16T11:08:22.000Z</time>
      </trkpt>
      <trkpt lat="43.97944" lon="7.09408">
        <ele>1331</ele>
        <time>2019-02-16T11:08:25.000Z</time>
      </trkpt>
      <trkpt lat="43.97941" lon="7.09411">
        <ele>1331.1999511719</ele>
        <time>2019-02-16T11:08:27.000Z</time>
      </trkpt>
      <trkpt lat="43.9794" lon="7.09411">
        <ele>1331.4000244141</ele>
        <time>2019-02-16T11:08:28.000Z</time>
      </trkpt>
      <trkpt lat="43.97938" lon="7.09412">
        <ele>1331.5999755859</ele>
        <time>2019-02-16T11:08:29.000Z</time>
      </trkpt>
      <trkpt lat="43.97931" lon="7.09421">
        <ele>1332.1999511719</ele>
        <time>2019-02-16T11:08:34.000Z</time>
      </trkpt>
      <trkpt lat="43.9793" lon="7.09421">
        <ele>1332.1999511719</ele>
        <time>2019-02-16T11:08:35.000Z</time>
      </trkpt>
      <trkpt lat="43.97927" lon="7.0942">
        <ele>1332.5999755859</ele>
        <time>2019-02-16T11:08:37.000Z</time>
      </trkpt>
      <trkpt lat="43.97925" lon="7.09418">
        <ele>1332.5999755859</ele>
        <time>2019-02-16T11:08:38.000Z</time>
      </trkpt>
      <trkpt lat="43.97918" lon="7.09419">
        <ele>1333</ele>
        <time>2019-02-16T11:08:42.000Z</time>
      </trkpt>
      <trkpt lat="43.9791" lon="7.09421">
        <ele>1333</ele>
        <time>2019-02-16T11:08:47.000Z</time>
      </trkpt>
      <trkpt lat="43.97903" lon="7.09422">
        <ele>1333.1999511719</ele>
        <time>2019-02-16T11:08:51.000Z</time>
      </trkpt>
      <trkpt lat="43.979" lon="7.09426">
        <ele>1333.1999511719</ele>
        <time>2019-02-16T11:08:53.000Z</time>
      </trkpt>
      <trkpt lat="43.97896" lon="7.09429">
        <ele>1333.4000244141</ele>
        <time>2019-02-16T11:08:55.000Z</time>
      </trkpt>
      <trkpt lat="43.97892" lon="7.09433">
        <ele>1333.8000488281</ele>
        <time>2019-02-16T11:08:57.000Z</time>
      </trkpt>
      <trkpt lat="43.97888" lon="7.09432">
        <ele>1334</ele>
        <time>2019-02-16T11:08:59.000Z</time>
      </trkpt>
      <trkpt lat="43.97884" lon="7.09437">
        <ele>1334</ele>
        <time>2019-02-16T11:09:01.000Z</time>
      </trkpt>
      <trkpt lat="43.97871" lon="7.09442">
        <ele>1334</ele>
        <time>2019-02-16T11:09:06.000Z</time>
      </trkpt>
      <trkpt lat="43.9786" lon="7.09445">
        <ele>1334.4000244141</ele>
        <time>2019-02-16T11:09:11.000Z</time>
      </trkpt>
      <trkpt lat="43.97856" lon="7.09446">
        <ele>1334.4000244141</ele>
        <time>2019-02-16T11:09:12.000Z</time>
      </trkpt>
      <trkpt lat="43.97841" lon="7.09449">
        <ele>1334</ele>
        <time>2019-02-16T11:09:18.000Z</time>
      </trkpt>
      <trkpt lat="43.97826" lon="7.09452">
        <ele>1333.8000488281</ele>
        <time>2019-02-16T11:09:23.000Z</time>
      </trkpt>
      <trkpt lat="43.97819" lon="7.09454">
        <ele>1333</ele>
        <time>2019-02-16T11:09:25.000Z</time>
      </trkpt>
      <trkpt lat="43.97811" lon="7.09453">
        <ele>1332.4000244141</ele>
        <time>2019-02-16T11:09:28.000Z</time>
      </trkpt>
      <trkpt lat="43.97798" lon="7.09454">
        <ele>1331.8000488281</ele>
        <time>2019-02-16T11:09:32.000Z</time>
      </trkpt>
      <trkpt lat="43.97794" lon="7.09454">
        <ele>1331.4000244141</ele>
        <time>2019-02-16T11:09:33.000Z</time>
      </trkpt>
      <trkpt lat="43.97778" lon="7.09453">
        <ele>1330.8000488281</ele>
        <time>2019-02-16T11:09:36.000Z</time>
      </trkpt>
      <trkpt lat="43.97773" lon="7.09454">
        <ele>1330.4000244141</ele>
        <time>2019-02-16T11:09:37.000Z</time>
      </trkpt>
      <trkpt lat="43.97763" lon="7.09455">
        <ele>1329.1999511719</ele>
        <time>2019-02-16T11:09:39.000Z</time>
      </trkpt>
      <trkpt lat="43.97753" lon="7.09456">
        <ele>1328.4000244141</ele>
        <time>2019-02-16T11:09:41.000Z</time>
      </trkpt>
      <trkpt lat="43.97744" lon="7.09457">
        <ele>1328.5999755859</ele>
        <time>2019-02-16T11:09:43.000Z</time>
      </trkpt>
      <trkpt lat="43.97723" lon="7.09461">
        <ele>1328.5999755859</ele>
        <time>2019-02-16T11:09:49.000Z</time>
      </trkpt>
      <trkpt lat="43.97709" lon="7.09465">
        <ele>1330.4000244141</ele>
        <time>2019-02-16T11:09:54.000Z</time>
      </trkpt>
      <trkpt lat="43.97707" lon="7.09465">
        <ele>1330.5999755859</ele>
        <time>2019-02-16T11:09:55.000Z</time>
      </trkpt>
      <trkpt lat="43.97696" lon="7.09469">
        <ele>1331.5999755859</ele>
        <time>2019-02-16T11:09:59.000Z</time>
      </trkpt>
      <trkpt lat="43.97691" lon="7.09469">
        <ele>1332</ele>
        <time>2019-02-16T11:10:01.000Z</time>
      </trkpt>
      <trkpt lat="43.97685" lon="7.09469">
        <ele>1332.5999755859</ele>
        <time>2019-02-16T11:10:03.000Z</time>
      </trkpt>
      <trkpt lat="43.97674" lon="7.09469">
        <ele>1333</ele>
        <time>2019-02-16T11:10:07.000Z</time>
      </trkpt>
      <trkpt lat="43.97659" lon="7.09461">
        <ele>1333</ele>
        <time>2019-02-16T11:10:12.000Z</time>
      </trkpt>
      <trkpt lat="43.97647" lon="7.09456">
        <ele>1331.4000244141</ele>
        <time>2019-02-16T11:10:15.000Z</time>
      </trkpt>
      <trkpt lat="43.97641" lon="7.09456">
        <ele>1331.1999511719</ele>
        <time>2019-02-16T11:10:16.000Z</time>
      </trkpt>
      <trkpt lat="43.97634" lon="7.09453">
        <ele>1329.5999755859</ele>
        <time>2019-02-16T11:10:18.000Z</time>
      </trkpt>
      <trkpt lat="43.97622" lon="7.09449">
        <ele>1328.1999511719</ele>
        <time>2019-02-16T11:10:20.000Z</time>
      </trkpt>
      <trkpt lat="43.97617" lon="7.09449">
        <ele>1326.1999511719</ele>
        <time>2019-02-16T11:10:21.000Z</time>
      </trkpt>
      <trkpt lat="43.97609" lon="7.09453">
        <ele>1325</ele>
        <time>2019-02-16T11:10:23.000Z</time>
      </trkpt>
      <trkpt lat="43.97602" lon="7.09452">
        <ele>1324</ele>
        <time>2019-02-16T11:10:25.000Z</time>
      </trkpt>
      <trkpt lat="43.97594" lon="7.0945">
        <ele>1324.4000244141</ele>
        <time>2019-02-16T11:10:27.000Z</time>
      </trkpt>
      <trkpt lat="43.97584" lon="7.09448">
        <ele>1324.8000488281</ele>
        <time>2019-02-16T11:10:29.000Z</time>
      </trkpt>
      <trkpt lat="43.97574" lon="7.09446">
        <ele>1324.5999755859</ele>
        <time>2019-02-16T11:10:31.000Z</time>
      </trkpt>
      <trkpt lat="43.97558" lon="7.09445">
        <ele>1324</ele>
        <time>2019-02-16T11:10:36.000Z</time>
      </trkpt>
      <trkpt lat="43.97551" lon="7.09459">
        <ele>1324.5999755859</ele>
        <time>2019-02-16T11:10:39.000Z</time>
      </trkpt>
      <trkpt lat="43.97548" lon="7.09465">
        <ele>1324.4000244141</ele>
        <time>2019-02-16T11:10:40.000Z</time>
      </trkpt>
      <trkpt lat="43.97545" lon="7.09472">
        <ele>1324.1999511719</ele>
        <time>2019-02-16T11:10:41.000Z</time>
      </trkpt>
      <trkpt lat="43.9754" lon="7.09485">
        <ele>1323.5999755859</ele>
        <time>2019-02-16T11:10:43.000Z</time>
      </trkpt>
      <trkpt lat="43.97539" lon="7.09493">
        <ele>1323</ele>
        <time>2019-02-16T11:10:44.000Z</time>
      </trkpt>
      <trkpt lat="43.97531" lon="7.09502">
        <ele>1321.8000488281</ele>
        <time>2019-02-16T11:10:46.000Z</time>
      </trkpt>
      <trkpt lat="43.97522" lon="7.09511">
        <ele>1320.8000488281</ele>
        <time>2019-02-16T11:10:48.000Z</time>
      </trkpt>
      <trkpt lat="43.97518" lon="7.09516">
        <ele>1320.5999755859</ele>
        <time>2019-02-16T11:10:49.000Z</time>
      </trkpt>
      <trkpt lat="43.97509" lon="7.09524">
        <ele>1319.1999511719</ele>
        <time>2019-02-16T11:10:51.000Z</time>
      </trkpt>
      <trkpt lat="43.97505" lon="7.09525">
        <ele>1317.1999511719</ele>
        <time>2019-02-16T11:10:53.000Z</time>
      </trkpt>
      <trkpt lat="43.97503" lon="7.09524">
        <ele>1316</ele>
        <time>2019-02-16T11:10:54.000Z</time>
      </trkpt>
      <trkpt lat="43.97503" lon="7.09524">
        <ele>1314.5999755859</ele>
        <time>2019-02-16T11:10:56.000Z</time>
      </trkpt>
      <trkpt lat="43.97503" lon="7.09524">
        <ele>1313.8000488281</ele>
        <time>2019-02-16T11:10:58.000Z</time>
      </trkpt>
      <trkpt lat="43.97502" lon="7.09524">
        <ele>1313.5999755859</ele>
        <time>2019-02-16T11:10:59.000Z</time>
      </trkpt>
      <trkpt lat="43.975" lon="7.09523">
        <ele>1312.8000488281</ele>
        <time>2019-02-16T11:11:06.000Z</time>
      </trkpt>
      <trkpt lat="43.975" lon="7.09524">
        <ele>1312.4000244141</ele>
        <time>2019-02-16T11:11:10.000Z</time>
      </trkpt>
      <trkpt lat="43.975" lon="7.09525">
        <ele>1312.4000244141</ele>
        <time>2019-02-16T11:11:15.000Z</time>
      </trkpt>
      <trkpt lat="43.97501" lon="7.09525">
        <ele>1312.1999511719</ele>
        <time>2019-02-16T11:11:21.000Z</time>
      </trkpt>
      <trkpt lat="43.975" lon="7.09526">
        <ele>1312.8000488281</ele>
        <time>2019-02-16T11:11:27.000Z</time>
      </trkpt>
      <trkpt lat="43.97499" lon="7.09526">
        <ele>1312.5999755859</ele>
        <time>2019-02-16T11:11:28.000Z</time>
      </trkpt>
      <trkpt lat="43.9749" lon="7.09527">
        <ele>1312</ele>
        <time>2019-02-16T11:11:31.000Z</time>
      </trkpt>
      <trkpt lat="43.97484" lon="7.09527">
        <ele>1311</ele>
        <time>2019-02-16T11:11:33.000Z</time>
      </trkpt>
      <trkpt lat="43.97482" lon="7.09528">
        <ele>1310.5999755859</ele>
        <time>2019-02-16T11:11:34.000Z</time>
      </trkpt>
      <trkpt lat="43.9748" lon="7.09528">
        <ele>1310</ele>
        <time>2019-02-16T11:11:35.000Z</time>
      </trkpt>
      <trkpt lat="43.97477" lon="7.09529">
        <ele>1308.8000488281</ele>
        <time>2019-02-16T11:11:37.000Z</time>
      </trkpt>
      <trkpt lat="43.97472" lon="7.09536">
        <ele>1308</ele>
        <time>2019-02-16T11:11:40.000Z</time>
      </trkpt>
      <trkpt lat="43.97469" lon="7.0954">
        <ele>1307.5999755859</ele>
        <time>2019-02-16T11:11:41.000Z</time>
      </trkpt>
      <trkpt lat="43.9746" lon="7.09545">
        <ele>1307</ele>
        <time>2019-02-16T11:11:44.000Z</time>
      </trkpt>
      <trkpt lat="43.97456" lon="7.09549">
        <ele>1306.5999755859</ele>
        <time>2019-02-16T11:11:45.000Z</time>
      </trkpt>
      <trkpt lat="43.97452" lon="7.09566">
        <ele>1305.8000488281</ele>
        <time>2019-02-16T11:11:48.000Z</time>
      </trkpt>
      <trkpt lat="43.9745" lon="7.09574">
        <ele>1305.5999755859</ele>
        <time>2019-02-16T11:11:49.000Z</time>
      </trkpt>
      <trkpt lat="43.97447" lon="7.09591">
        <ele>1304.4000244141</ele>
        <time>2019-02-16T11:11:52.000Z</time>
      </trkpt>
      <trkpt lat="43.97445" lon="7.09596">
        <ele>1304</ele>
        <time>2019-02-16T11:11:53.000Z</time>
      </trkpt>
      <trkpt lat="43.97435" lon="7.09617">
        <ele>1303.1999511719</ele>
        <time>2019-02-16T11:11:56.000Z</time>
      </trkpt>
      <trkpt lat="43.97424" lon="7.09633">
        <ele>1301.8000488281</ele>
        <time>2019-02-16T11:11:59.000Z</time>
      </trkpt>
      <trkpt lat="43.9742" lon="7.09634">
        <ele>1301.4000244141</ele>
        <time>2019-02-16T11:12:00.000Z</time>
      </trkpt>
      <trkpt lat="43.97408" lon="7.09643">
        <ele>1300.8000488281</ele>
        <time>2019-02-16T11:12:03.000Z</time>
      </trkpt>
      <trkpt lat="43.97403" lon="7.09651">
        <ele>1299.8000488281</ele>
        <time>2019-02-16T11:12:06.000Z</time>
      </trkpt>
      <trkpt lat="43.97401" lon="7.09653">
        <ele>1299.5999755859</ele>
        <time>2019-02-16T11:12:07.000Z</time>
      </trkpt>
      <trkpt lat="43.97394" lon="7.09663">
        <ele>1301</ele>
        <time>2019-02-16T11:12:12.000Z</time>
      </trkpt>
      <trkpt lat="43.97389" lon="7.09675">
        <ele>1301.5999755859</ele>
        <time>2019-02-16T11:12:16.000Z</time>
      </trkpt>
      <trkpt lat="43.97386" lon="7.09677">
        <ele>1301.5999755859</ele>
        <time>2019-02-16T11:12:17.000Z</time>
      </trkpt>
      <trkpt lat="43.97384" lon="7.09678">
        <ele>1302</ele>
        <time>2019-02-16T11:12:18.000Z</time>
      </trkpt>
      <trkpt lat="43.97383" lon="7.09677">
        <ele>1302</ele>
        <time>2019-02-16T11:12:19.000Z</time>
      </trkpt>
      <trkpt lat="43.9738" lon="7.09676">
        <ele>1302.4000244141</ele>
        <time>2019-02-16T11:12:21.000Z</time>
      </trkpt>
      <trkpt lat="43.97376" lon="7.09675">
        <ele>1302.8000488281</ele>
        <time>2019-02-16T11:12:23.000Z</time>
      </trkpt>
      <trkpt lat="43.97374" lon="7.09674">
        <ele>1303.1999511719</ele>
        <time>2019-02-16T11:12:24.000Z</time>
      </trkpt>
      <trkpt lat="43.9737" lon="7.09671">
        <ele>1304.1999511719</ele>
        <time>2019-02-16T11:12:27.000Z</time>
      </trkpt>
      <trkpt lat="43.9736" lon="7.09666">
        <ele>1305.1999511719</ele>
        <time>2019-02-16T11:12:33.000Z</time>
      </trkpt>
      <trkpt lat="43.97357" lon="7.09665">
        <ele>1305.4000244141</ele>
        <time>2019-02-16T11:12:35.000Z</time>
      </trkpt>
      <trkpt lat="43.9735" lon="7.09662">
        <ele>1305.5999755859</ele>
        <time>2019-02-16T11:12:39.000Z</time>
      </trkpt>
      <trkpt lat="43.97346" lon="7.09662">
        <ele>1305.8000488281</ele>
        <time>2019-02-16T11:12:41.000Z</time>
      </trkpt>
      <trkpt lat="43.97339" lon="7.09663">
        <ele>1306.4000244141</ele>
        <time>2019-02-16T11:12:45.000Z</time>
      </trkpt>
      <trkpt lat="43.97336" lon="7.09665">
        <ele>1306.8000488281</ele>
        <time>2019-02-16T11:12:47.000Z</time>
      </trkpt>
      <trkpt lat="43.97333" lon="7.09666">
        <ele>1307.8000488281</ele>
        <time>2019-02-16T11:12:50.000Z</time>
      </trkpt>
      <trkpt lat="43.97329" lon="7.09667">
        <ele>1309</ele>
        <time>2019-02-16T11:12:53.000Z</time>
      </trkpt>
      <trkpt lat="43.97328" lon="7.09668">
        <ele>1309.4000244141</ele>
        <time>2019-02-16T11:12:54.000Z</time>
      </trkpt>
      <trkpt lat="43.97323" lon="7.0967">
        <ele>1310</ele>
        <time>2019-02-16T11:12:58.000Z</time>
      </trkpt>
      <trkpt lat="43.97318" lon="7.09672">
        <ele>1310.8000488281</ele>
        <time>2019-02-16T11:13:02.000Z</time>
      </trkpt>
      <trkpt lat="43.97317" lon="7.09673">
        <ele>1311.1999511719</ele>
        <time>2019-02-16T11:13:03.000Z</time>
      </trkpt>
      <trkpt lat="43.97312" lon="7.09674">
        <ele>1312.1999511719</ele>
        <time>2019-02-16T11:13:07.000Z</time>
      </trkpt>
      <trkpt lat="43.9731" lon="7.09673">
        <ele>1312.5999755859</ele>
        <time>2019-02-16T11:13:09.000Z</time>
      </trkpt>
      <trkpt lat="43.97307" lon="7.09673">
        <ele>1313.1999511719</ele>
        <time>2019-02-16T11:13:12.000Z</time>
      </trkpt>
      <trkpt lat="43.97302" lon="7.09673">
        <ele>1313.8000488281</ele>
        <time>2019-02-16T11:13:16.000Z</time>
      </trkpt>
      <trkpt lat="43.97295" lon="7.09677">
        <ele>1314.1999511719</ele>
        <time>2019-02-16T11:13:22.000Z</time>
      </trkpt>
      <trkpt lat="43.97289" lon="7.09679">
        <ele>1315.1999511719</ele>
        <time>2019-02-16T11:13:26.000Z</time>
      </trkpt>
      <trkpt lat="43.97284" lon="7.09681">
        <ele>1315.5999755859</ele>
        <time>2019-02-16T11:13:30.000Z</time>
      </trkpt>
      <trkpt lat="43.97276" lon="7.09682">
        <ele>1316.4000244141</ele>
        <time>2019-02-16T11:13:36.000Z</time>
      </trkpt>
      <trkpt lat="43.97274" lon="7.09682">
        <ele>1316.4000244141</ele>
        <time>2019-02-16T11:13:37.000Z</time>
      </trkpt>
      <trkpt lat="43.97266" lon="7.09684">
        <ele>1317.4000244141</ele>
        <time>2019-02-16T11:13:44.000Z</time>
      </trkpt>
      <trkpt lat="43.97264" lon="7.09684">
        <ele>1317.4000244141</ele>
        <time>2019-02-16T11:13:45.000Z</time>
      </trkpt>
      <trkpt lat="43.97253" lon="7.09689">
        <ele>1318</ele>
        <time>2019-02-16T11:13:52.000Z</time>
      </trkpt>
      <trkpt lat="43.97249" lon="7.09688">
        <ele>1318.1999511719</ele>
        <time>2019-02-16T11:13:55.000Z</time>
      </trkpt>
      <trkpt lat="43.97245" lon="7.09689">
        <ele>1318.4000244141</ele>
        <time>2019-02-16T11:13:58.000Z</time>
      </trkpt>
      <trkpt lat="43.97236" lon="7.09691">
        <ele>1319.4000244141</ele>
        <time>2019-02-16T11:14:05.000Z</time>
      </trkpt>
      <trkpt lat="43.97226" lon="7.09692">
        <ele>1320.4000244141</ele>
        <time>2019-02-16T11:14:11.000Z</time>
      </trkpt>
      <trkpt lat="43.97224" lon="7.09693">
        <ele>1320.5999755859</ele>
        <time>2019-02-16T11:14:13.000Z</time>
      </trkpt>
      <trkpt lat="43.9722" lon="7.09695">
        <ele>1321.8000488281</ele>
        <time>2019-02-16T11:14:17.000Z</time>
      </trkpt>
      <trkpt lat="43.97219" lon="7.09695">
        <ele>1322.1999511719</ele>
        <time>2019-02-16T11:14:18.000Z</time>
      </trkpt>
      <trkpt lat="43.97212" lon="7.09699">
        <ele>1322.8000488281</ele>
        <time>2019-02-16T11:14:24.000Z</time>
      </trkpt>
      <trkpt lat="43.9721" lon="7.097">
        <ele>1323</ele>
        <time>2019-02-16T11:14:25.000Z</time>
      </trkpt>
      <trkpt lat="43.972" lon="7.09705">
        <ele>1323.5999755859</ele>
        <time>2019-02-16T11:14:33.000Z</time>
      </trkpt>
      <trkpt lat="43.97195" lon="7.09707">
        <ele>1324</ele>
        <time>2019-02-16T11:14:37.000Z</time>
      </trkpt>
      <trkpt lat="43.97192" lon="7.09708">
        <ele>1324.5999755859</ele>
        <time>2019-02-16T11:14:40.000Z</time>
      </trkpt>
      <trkpt lat="43.97192" lon="7.09714">
        <ele>1324.8000488281</ele>
        <time>2019-02-16T11:14:45.000Z</time>
      </trkpt>
      <trkpt lat="43.97193" lon="7.09718">
        <ele>1325</ele>
        <time>2019-02-16T11:14:48.000Z</time>
      </trkpt>
      <trkpt lat="43.97196" lon="7.09723">
        <ele>1325.5999755859</ele>
        <time>2019-02-16T11:14:52.000Z</time>
      </trkpt>
      <trkpt lat="43.97198" lon="7.09736">
        <ele>1326</ele>
        <time>2019-02-16T11:14:58.000Z</time>
      </trkpt>
      <trkpt lat="43.97199" lon="7.09739">
        <ele>1326.1999511719</ele>
        <time>2019-02-16T11:15:00.000Z</time>
      </trkpt>
      <trkpt lat="43.97201" lon="7.09747">
        <ele>1326.5999755859</ele>
        <time>2019-02-16T11:15:04.000Z</time>
      </trkpt>
      <trkpt lat="43.972" lon="7.09757">
        <ele>1327.1999511719</ele>
        <time>2019-02-16T11:15:08.000Z</time>
      </trkpt>
      <trkpt lat="43.972" lon="7.0976">
        <ele>1328</ele>
        <time>2019-02-16T11:15:10.000Z</time>
      </trkpt>
      <trkpt lat="43.97199" lon="7.09761">
        <ele>1328.4000244141</ele>
        <time>2019-02-16T11:15:11.000Z</time>
      </trkpt>
      <trkpt lat="43.97199" lon="7.09765">
        <ele>1329.1999511719</ele>
        <time>2019-02-16T11:15:14.000Z</time>
      </trkpt>
      <trkpt lat="43.97199" lon="7.09766">
        <ele>1329.4000244141</ele>
        <time>2019-02-16T11:15:15.000Z</time>
      </trkpt>
      <trkpt lat="43.972" lon="7.09767">
        <ele>1329.4000244141</ele>
        <time>2019-02-16T11:15:16.000Z</time>
      </trkpt>
      <trkpt lat="43.97203" lon="7.09776">
        <ele>1330.1999511719</ele>
        <time>2019-02-16T11:15:22.000Z</time>
      </trkpt>
      <trkpt lat="43.97205" lon="7.0978">
        <ele>1330.5999755859</ele>
        <time>2019-02-16T11:15:25.000Z</time>
      </trkpt>
      <trkpt lat="43.97208" lon="7.09784">
        <ele>1331</ele>
        <time>2019-02-16T11:15:28.000Z</time>
      </trkpt>
      <trkpt lat="43.97212" lon="7.0979">
        <ele>1331.5999755859</ele>
        <time>2019-02-16T11:15:33.000Z</time>
      </trkpt>
      <trkpt lat="43.97213" lon="7.09791">
        <ele>1331.5999755859</ele>
        <time>2019-02-16T11:15:34.000Z</time>
      </trkpt>
      <trkpt lat="43.97219" lon="7.09797">
        <ele>1332.5999755859</ele>
        <time>2019-02-16T11:15:41.000Z</time>
      </trkpt>
      <trkpt lat="43.97223" lon="7.09802">
        <ele>1332.5999755859</ele>
        <time>2019-02-16T11:15:46.000Z</time>
      </trkpt>
      <trkpt lat="43.97224" lon="7.09803">
        <ele>1332.5999755859</ele>
        <time>2019-02-16T11:15:47.000Z</time>
      </trkpt>
      <trkpt lat="43.97224" lon="7.09803">
        <ele>1332.4000244141</ele>
        <time>2019-02-16T11:15:52.000Z</time>
      </trkpt>
      <trkpt lat="43.97224" lon="7.09803">
        <ele>1332.4000244141</ele>
        <time>2019-02-16T11:15:57.000Z</time>
      </trkpt>
      <trkpt lat="43.97224" lon="7.09803">
        <ele>1332.1999511719</ele>
        <time>2019-02-16T11:16:09.000Z</time>
      </trkpt>
      <trkpt lat="43.97225" lon="7.09803">
        <ele>1332.4000244141</ele>
        <time>2019-02-16T11:16:31.000Z</time>
      </trkpt>
      <trkpt lat="43.97224" lon="7.09803">
        <ele>1332.4000244141</ele>
        <time>2019-02-16T11:16:49.000Z</time>
      </trkpt>
      <trkpt lat="43.97225" lon="7.09802">
        <ele>1332.4000244141</ele>
        <time>2019-02-16T11:17:09.000Z</time>
      </trkpt>
      <trkpt lat="43.97225" lon="7.09803">
        <ele>1332.5999755859</ele>
        <time>2019-02-16T11:17:19.000Z</time>
      </trkpt>
      <trkpt lat="43.97226" lon="7.09803">
        <ele>1332.4000244141</ele>
        <time>2019-02-16T11:17:28.000Z</time>
      </trkpt>
      <trkpt lat="43.97225" lon="7.09803">
        <ele>1332.5999755859</ele>
        <time>2019-02-16T11:17:37.000Z</time>
      </trkpt>
      <trkpt lat="43.97225" lon="7.09803">
        <ele>1332.1999511719</ele>
        <time>2019-02-16T11:18:06.000Z</time>
      </trkpt>
      <trkpt lat="43.97224" lon="7.09804">
        <ele>1332.4000244141</ele>
        <time>2019-02-16T11:18:35.000Z</time>
      </trkpt>
      <trkpt lat="43.97223" lon="7.09805">
        <ele>1332.4000244141</ele>
        <time>2019-02-16T11:18:56.000Z</time>
      </trkpt>
      <trkpt lat="43.97224" lon="7.09804">
        <ele>1332.4000244141</ele>
        <time>2019-02-16T11:19:28.000Z</time>
      </trkpt>
      <trkpt lat="43.97225" lon="7.09804">
        <ele>1332.4000244141</ele>
        <time>2019-02-16T11:19:54.000Z</time>
      </trkpt>
      <trkpt lat="43.97225" lon="7.09805">
        <ele>1332.5999755859</ele>
        <time>2019-02-16T11:20:01.000Z</time>
      </trkpt>
      <trkpt lat="43.97226" lon="7.09808">
        <ele>1332.5999755859</ele>
        <time>2019-02-16T11:20:10.000Z</time>
      </trkpt>
      <trkpt lat="43.97234" lon="7.09819">
        <ele>1332.1999511719</ele>
        <time>2019-02-16T11:20:14.000Z</time>
      </trkpt>
      <trkpt lat="43.97245" lon="7.09823">
        <ele>1331.4000244141</ele>
        <time>2019-02-16T11:20:17.000Z</time>
      </trkpt>
      <trkpt lat="43.97248" lon="7.09826">
        <ele>1331.1999511719</ele>
        <time>2019-02-16T11:20:18.000Z</time>
      </trkpt>
      <trkpt lat="43.97255" lon="7.09831">
        <ele>1330.8000488281</ele>
        <time>2019-02-16T11:20:20.000Z</time>
      </trkpt>
      <trkpt lat="43.97264" lon="7.09836">
        <ele>1330.4000244141</ele>
        <time>2019-02-16T11:20:22.000Z</time>
      </trkpt>
      <trkpt lat="43.97282" lon="7.09846">
        <ele>1329.5999755859</ele>
        <time>2019-02-16T11:20:26.000Z</time>
      </trkpt>
      <trkpt lat="43.97291" lon="7.09853">
        <ele>1329.1999511719</ele>
        <time>2019-02-16T11:20:28.000Z</time>
      </trkpt>
      <trkpt lat="43.97307" lon="7.09864">
        <ele>1327.8000488281</ele>
        <time>2019-02-16T11:20:31.000Z</time>
      </trkpt>
      <trkpt lat="43.97317" lon="7.09871">
        <ele>1327</ele>
        <time>2019-02-16T11:20:33.000Z</time>
      </trkpt>
      <trkpt lat="43.97328" lon="7.09874">
        <ele>1326.5999755859</ele>
        <time>2019-02-16T11:20:35.000Z</time>
      </trkpt>
      <trkpt lat="43.97337" lon="7.09878">
        <ele>1325.8000488281</ele>
        <time>2019-02-16T11:20:37.000Z</time>
      </trkpt>
      <trkpt lat="43.9735" lon="7.09886">
        <ele>1326.5999755859</ele>
        <time>2019-02-16T11:20:42.000Z</time>
      </trkpt>
      <trkpt lat="43.97362" lon="7.09893">
        <ele>1327.5999755859</ele>
        <time>2019-02-16T11:20:47.000Z</time>
      </trkpt>
      <trkpt lat="43.97371" lon="7.09896">
        <ele>1327.5999755859</ele>
        <time>2019-02-16T11:20:50.000Z</time>
      </trkpt>
      <trkpt lat="43.97375" lon="7.09898">
        <ele>1328.1999511719</ele>
        <time>2019-02-16T11:20:52.000Z</time>
      </trkpt>
      <trkpt lat="43.97378" lon="7.09901">
        <ele>1329</ele>
        <time>2019-02-16T11:20:54.000Z</time>
      </trkpt>
      <trkpt lat="43.97386" lon="7.09907">
        <ele>1329.5999755859</ele>
        <time>2019-02-16T11:20:57.000Z</time>
      </trkpt>
      <trkpt lat="43.97395" lon="7.09913">
        <ele>1329</ele>
        <time>2019-02-16T11:21:01.000Z</time>
      </trkpt>
      <trkpt lat="43.97401" lon="7.09919">
        <ele>1327.8000488281</ele>
        <time>2019-02-16T11:21:05.000Z</time>
      </trkpt>
      <trkpt lat="43.97404" lon="7.0992">
        <ele>1327.8000488281</ele>
        <time>2019-02-16T11:21:06.000Z</time>
      </trkpt>
      <trkpt lat="43.97411" lon="7.09923">
        <ele>1327.4000244141</ele>
        <time>2019-02-16T11:21:09.000Z</time>
      </trkpt>
      <trkpt lat="43.97414" lon="7.09922">
        <ele>1327.1999511719</ele>
        <time>2019-02-16T11:21:10.000Z</time>
      </trkpt>
      <trkpt lat="43.9742" lon="7.09921">
        <ele>1327.1999511719</ele>
        <time>2019-02-16T11:21:14.000Z</time>
      </trkpt>
      <trkpt lat="43.97421" lon="7.09921">
        <ele>1327.1999511719</ele>
        <time>2019-02-16T11:21:15.000Z</time>
      </trkpt>
      <trkpt lat="43.97427" lon="7.0992">
        <ele>1328</ele>
        <time>2019-02-16T11:21:19.000Z</time>
      </trkpt>
      <trkpt lat="43.97433" lon="7.09921">
        <ele>1328.4000244141</ele>
        <time>2019-02-16T11:21:23.000Z</time>
      </trkpt>
      <trkpt lat="43.97434" lon="7.09922">
        <ele>1328.5999755859</ele>
        <time>2019-02-16T11:21:24.000Z</time>
      </trkpt>
      <trkpt lat="43.97437" lon="7.09924">
        <ele>1328.8000488281</ele>
        <time>2019-02-16T11:21:26.000Z</time>
      </trkpt>
      <trkpt lat="43.97443" lon="7.09929">
        <ele>1329</ele>
        <time>2019-02-16T11:21:29.000Z</time>
      </trkpt>
      <trkpt lat="43.9745" lon="7.09937">
        <ele>1329.8000488281</ele>
        <time>2019-02-16T11:21:35.000Z</time>
      </trkpt>
      <trkpt lat="43.97452" lon="7.09938">
        <ele>1330.1999511719</ele>
        <time>2019-02-16T11:21:36.000Z</time>
      </trkpt>
      <trkpt lat="43.97461" lon="7.09942">
        <ele>1330.8000488281</ele>
        <time>2019-02-16T11:21:41.000Z</time>
      </trkpt>
      <trkpt lat="43.9747" lon="7.09944">
        <ele>1331.1999511719</ele>
        <time>2019-02-16T11:21:47.000Z</time>
      </trkpt>
      <trkpt lat="43.97475" lon="7.09945">
        <ele>1331.1999511719</ele>
        <time>2019-02-16T11:21:50.000Z</time>
      </trkpt>
      <trkpt lat="43.97476" lon="7.09946">
        <ele>1331.1999511719</ele>
        <time>2019-02-16T11:21:52.000Z</time>
      </trkpt>
      <trkpt lat="43.97481" lon="7.09948">
        <ele>1331.5999755859</ele>
        <time>2019-02-16T11:21:57.000Z</time>
      </trkpt>
      <trkpt lat="43.97485" lon="7.09948">
        <ele>1332</ele>
        <time>2019-02-16T11:22:04.000Z</time>
      </trkpt>
      <trkpt lat="43.97486" lon="7.09948">
        <ele>1332.4000244141</ele>
        <time>2019-02-16T11:22:08.000Z</time>
      </trkpt>
      <trkpt lat="43.97489" lon="7.09949">
        <ele>1333.1999511719</ele>
        <time>2019-02-16T11:22:12.000Z</time>
      </trkpt>
      <trkpt lat="43.9749" lon="7.0995">
        <ele>1333.4000244141</ele>
        <time>2019-02-16T11:22:14.000Z</time>
      </trkpt>
      <trkpt lat="43.97491" lon="7.09952">
        <ele>1333.5999755859</ele>
        <time>2019-02-16T11:22:17.000Z</time>
      </trkpt>
      <trkpt lat="43.97492" lon="7.09953">
        <ele>1333.5999755859</ele>
        <time>2019-02-16T11:22:18.000Z</time>
      </trkpt>
      <trkpt lat="43.97494" lon="7.09956">
        <ele>1333.5999755859</ele>
        <time>2019-02-16T11:22:22.000Z</time>
      </trkpt>
      <trkpt lat="43.97499" lon="7.09958">
        <ele>1334</ele>
        <time>2019-02-16T11:22:27.000Z</time>
      </trkpt>
      <trkpt lat="43.97501" lon="7.09959">
        <ele>1334.4000244141</ele>
        <time>2019-02-16T11:22:31.000Z</time>
      </trkpt>
      <trkpt lat="43.97502" lon="7.0996">
        <ele>1334.4000244141</ele>
        <time>2019-02-16T11:22:32.000Z</time>
      </trkpt>
      <trkpt lat="43.97508" lon="7.09965">
        <ele>1334.4000244141</ele>
        <time>2019-02-16T11:22:37.000Z</time>
      </trkpt>
      <trkpt lat="43.97517" lon="7.0997">
        <ele>1334</ele>
        <time>2019-02-16T11:22:43.000Z</time>
      </trkpt>
      <trkpt lat="43.97522" lon="7.09978">
        <ele>1334</ele>
        <time>2019-02-16T11:22:47.000Z</time>
      </trkpt>
      <trkpt lat="43.97524" lon="7.0998">
        <ele>1334</ele>
        <time>2019-02-16T11:22:48.000Z</time>
      </trkpt>
      <trkpt lat="43.97531" lon="7.09991">
        <ele>1333.5999755859</ele>
        <time>2019-02-16T11:22:53.000Z</time>
      </trkpt>
      <trkpt lat="43.97539" lon="7.10001">
        <ele>1333</ele>
        <time>2019-02-16T11:22:56.000Z</time>
      </trkpt>
      <trkpt lat="43.97543" lon="7.10004">
        <ele>1332.5999755859</ele>
        <time>2019-02-16T11:22:57.000Z</time>
      </trkpt>
      <trkpt lat="43.97547" lon="7.10008">
        <ele>1332.1999511719</ele>
        <time>2019-02-16T11:22:58.000Z</time>
      </trkpt>
      <trkpt lat="43.97551" lon="7.10011">
        <ele>1331.8000488281</ele>
        <time>2019-02-16T11:22:59.000Z</time>
      </trkpt>
      <trkpt lat="43.97558" lon="7.10014">
        <ele>1330.5999755859</ele>
        <time>2019-02-16T11:23:01.000Z</time>
      </trkpt>
      <trkpt lat="43.9756" lon="7.10015">
        <ele>1330</ele>
        <time>2019-02-16T11:23:02.000Z</time>
      </trkpt>
      <trkpt lat="43.97562" lon="7.10017">
        <ele>1328.8000488281</ele>
        <time>2019-02-16T11:23:03.000Z</time>
      </trkpt>
      <trkpt lat="43.97565" lon="7.10019">
        <ele>1327.4000244141</ele>
        <time>2019-02-16T11:23:05.000Z</time>
      </trkpt>
      <trkpt lat="43.97565" lon="7.10019">
        <ele>1326.5999755859</ele>
        <time>2019-02-16T11:23:06.000Z</time>
      </trkpt>
      <trkpt lat="43.97566" lon="7.10019">
        <ele>1326</ele>
        <time>2019-02-16T11:23:07.000Z</time>
      </trkpt>
      <trkpt lat="43.97567" lon="7.10019">
        <ele>1325</ele>
        <time>2019-02-16T11:23:10.000Z</time>
      </trkpt>
      <trkpt lat="43.9757" lon="7.1002">
        <ele>1326</ele>
        <time>2019-02-16T11:23:16.000Z</time>
      </trkpt>
      <trkpt lat="43.9757" lon="7.10021">
        <ele>1326</ele>
        <time>2019-02-16T11:23:17.000Z</time>
      </trkpt>
      <trkpt lat="43.97573" lon="7.10023">
        <ele>1325.8000488281</ele>
        <time>2019-02-16T11:23:23.000Z</time>
      </trkpt>
      <trkpt lat="43.97575" lon="7.10025">
        <ele>1325</ele>
        <time>2019-02-16T11:23:29.000Z</time>
      </trkpt>
      <trkpt lat="43.97576" lon="7.10027">
        <ele>1324.8000488281</ele>
        <time>2019-02-16T11:23:32.000Z</time>
      </trkpt>
      <trkpt lat="43.97579" lon="7.10032">
        <ele>1324.4000244141</ele>
        <time>2019-02-16T11:23:41.000Z</time>
      </trkpt>
      <trkpt lat="43.97582" lon="7.10035">
        <ele>1324.1999511719</ele>
        <time>2019-02-16T11:23:49.000Z</time>
      </trkpt>
      <trkpt lat="43.97585" lon="7.10039">
        <ele>1324.4000244141</ele>
        <time>2019-02-16T11:23:56.000Z</time>
      </trkpt>
      <trkpt lat="43.97586" lon="7.10043">
        <ele>1323.8000488281</ele>
        <time>2019-02-16T11:24:02.000Z</time>
      </trkpt>
      <trkpt lat="43.97589" lon="7.10046">
        <ele>1323.4000244141</ele>
        <time>2019-02-16T11:24:08.000Z</time>
      </trkpt>
      <trkpt lat="43.97591" lon="7.10048">
        <ele>1322.8000488281</ele>
        <time>2019-02-16T11:24:13.000Z</time>
      </trkpt>
      <trkpt lat="43.97592" lon="7.10048">
        <ele>1322.8000488281</ele>
        <time>2019-02-16T11:24:15.000Z</time>
      </trkpt>
      <trkpt lat="43.97594" lon="7.10048">
        <ele>1322.5999755859</ele>
        <time>2019-02-16T11:24:21.000Z</time>
      </trkpt>
      <trkpt lat="43.97597" lon="7.10051">
        <ele>1323</ele>
        <time>2019-02-16T11:24:26.000Z</time>
      </trkpt>
      <trkpt lat="43.976" lon="7.10055">
        <ele>1322.4000244141</ele>
        <time>2019-02-16T11:24:33.000Z</time>
      </trkpt>
      <trkpt lat="43.97602" lon="7.10058">
        <ele>1321.8000488281</ele>
        <time>2019-02-16T11:24:38.000Z</time>
      </trkpt>
      <trkpt lat="43.97602" lon="7.10059">
        <ele>1321.8000488281</ele>
        <time>2019-02-16T11:24:39.000Z</time>
      </trkpt>
      <trkpt lat="43.97603" lon="7.1006">
        <ele>1321.8000488281</ele>
        <time>2019-02-16T11:24:40.000Z</time>
      </trkpt>
      <trkpt lat="43.97604" lon="7.10062">
        <ele>1321.4000244141</ele>
        <time>2019-02-16T11:24:43.000Z</time>
      </trkpt>
      <trkpt lat="43.97605" lon="7.10062">
        <ele>1321.5999755859</ele>
        <time>2019-02-16T11:24:44.000Z</time>
      </trkpt>
      <trkpt lat="43.97608" lon="7.10066">
        <ele>1321.1999511719</ele>
        <time>2019-02-16T11:24:48.000Z</time>
      </trkpt>
      <trkpt lat="43.97609" lon="7.10068">
        <ele>1321.1999511719</ele>
        <time>2019-02-16T11:24:49.000Z</time>
      </trkpt>
      <trkpt lat="43.97612" lon="7.1007">
        <ele>1320.8000488281</ele>
        <time>2019-02-16T11:24:51.000Z</time>
      </trkpt>
      <trkpt lat="43.97612" lon="7.10072">
        <ele>1320.8000488281</ele>
        <time>2019-02-16T11:24:52.000Z</time>
      </trkpt>
      <trkpt lat="43.97613" lon="7.10073">
        <ele>1320.5999755859</ele>
        <time>2019-02-16T11:24:53.000Z</time>
      </trkpt>
      <trkpt lat="43.97614" lon="7.10073">
        <ele>1320.4000244141</ele>
        <time>2019-02-16T11:24:54.000Z</time>
      </trkpt>
      <trkpt lat="43.97616" lon="7.10075">
        <ele>1319.5999755859</ele>
        <time>2019-02-16T11:24:58.000Z</time>
      </trkpt>
      <trkpt lat="43.97617" lon="7.10076">
        <ele>1319.4000244141</ele>
        <time>2019-02-16T11:24:59.000Z</time>
      </trkpt>
      <trkpt lat="43.97619" lon="7.10078">
        <ele>1319.4000244141</ele>
        <time>2019-02-16T11:25:00.000Z</time>
      </trkpt>
      <trkpt lat="43.97627" lon="7.10089">
        <ele>1319</ele>
        <time>2019-02-16T11:25:04.000Z</time>
      </trkpt>
      <trkpt lat="43.97629" lon="7.10093">
        <ele>1318.5999755859</ele>
        <time>2019-02-16T11:25:05.000Z</time>
      </trkpt>
      <trkpt lat="43.97635" lon="7.10103">
        <ele>1317.5999755859</ele>
        <time>2019-02-16T11:25:08.000Z</time>
      </trkpt>
      <trkpt lat="43.97637" lon="7.10105">
        <ele>1317.1999511719</ele>
        <time>2019-02-16T11:25:09.000Z</time>
      </trkpt>
      <trkpt lat="43.97639" lon="7.10108">
        <ele>1316.5999755859</ele>
        <time>2019-02-16T11:25:10.000Z</time>
      </trkpt>
      <trkpt lat="43.9764" lon="7.1011">
        <ele>1316.1999511719</ele>
        <time>2019-02-16T11:25:11.000Z</time>
      </trkpt>
      <trkpt lat="43.97641" lon="7.10113">
        <ele>1315.8000488281</ele>
        <time>2019-02-16T11:25:13.000Z</time>
      </trkpt>
      <trkpt lat="43.97647" lon="7.1012">
        <ele>1315</ele>
        <time>2019-02-16T11:25:16.000Z</time>
      </trkpt>
      <trkpt lat="43.9765" lon="7.10122">
        <ele>1314.5999755859</ele>
        <time>2019-02-16T11:25:17.000Z</time>
      </trkpt>
      <trkpt lat="43.97658" lon="7.10133">
        <ele>1313.8000488281</ele>
        <time>2019-02-16T11:25:20.000Z</time>
      </trkpt>
      <trkpt lat="43.97664" lon="7.10147">
        <ele>1312.8000488281</ele>
        <time>2019-02-16T11:25:23.000Z</time>
      </trkpt>
      <trkpt lat="43.97673" lon="7.10158">
        <ele>1311.8000488281</ele>
        <time>2019-02-16T11:25:26.000Z</time>
      </trkpt>
      <trkpt lat="43.97677" lon="7.1016">
        <ele>1311.5999755859</ele>
        <time>2019-02-16T11:25:27.000Z</time>
      </trkpt>
      <trkpt lat="43.9769" lon="7.1017">
        <ele>1310.4000244141</ele>
        <time>2019-02-16T11:25:30.000Z</time>
      </trkpt>
      <trkpt lat="43.97694" lon="7.10173">
        <ele>1310</ele>
        <time>2019-02-16T11:25:31.000Z</time>
      </trkpt>
      <trkpt lat="43.97706" lon="7.1018">
        <ele>1309</ele>
        <time>2019-02-16T11:25:34.000Z</time>
      </trkpt>
      <trkpt lat="43.97714" lon="7.10189">
        <ele>1308.4000244141</ele>
        <time>2019-02-16T11:25:36.000Z</time>
      </trkpt>
      <trkpt lat="43.97718" lon="7.10193">
        <ele>1307.4000244141</ele>
        <time>2019-02-16T11:25:37.000Z</time>
      </trkpt>
      <trkpt lat="43.97723" lon="7.10198">
        <ele>1307.1999511719</ele>
        <time>2019-02-16T11:25:38.000Z</time>
      </trkpt>
      <trkpt lat="43.97728" lon="7.10202">
        <ele>1306.4000244141</ele>
        <time>2019-02-16T11:25:39.000Z</time>
      </trkpt>
      <trkpt lat="43.97733" lon="7.10206">
        <ele>1305.4000244141</ele>
        <time>2019-02-16T11:25:40.000Z</time>
      </trkpt>
      <trkpt lat="43.97737" lon="7.1021">
        <ele>1304.5999755859</ele>
        <time>2019-02-16T11:25:41.000Z</time>
      </trkpt>
      <trkpt lat="43.9774" lon="7.10214">
        <ele>1304</ele>
        <time>2019-02-16T11:25:42.000Z</time>
      </trkpt>
      <trkpt lat="43.97746" lon="7.10223">
        <ele>1302.5999755859</ele>
        <time>2019-02-16T11:25:44.000Z</time>
      </trkpt>
      <trkpt lat="43.9775" lon="7.10225">
        <ele>1302.1999511719</ele>
        <time>2019-02-16T11:25:45.000Z</time>
      </trkpt>
      <trkpt lat="43.97755" lon="7.10225">
        <ele>1301.1999511719</ele>
        <time>2019-02-16T11:25:46.000Z</time>
      </trkpt>
      <trkpt lat="43.97767" lon="7.10229">
        <ele>1300.1999511719</ele>
        <time>2019-02-16T11:25:49.000Z</time>
      </trkpt>
      <trkpt lat="43.97783" lon="7.10238">
        <ele>1299.1999511719</ele>
        <time>2019-02-16T11:25:53.000Z</time>
      </trkpt>
      <trkpt lat="43.97786" lon="7.10241">
        <ele>1298.5999755859</ele>
        <time>2019-02-16T11:25:54.000Z</time>
      </trkpt>
      <trkpt lat="43.97792" lon="7.10246">
        <ele>1297</ele>
        <time>2019-02-16T11:25:56.000Z</time>
      </trkpt>
      <trkpt lat="43.97793" lon="7.10247">
        <ele>1295</ele>
        <time>2019-02-16T11:25:58.000Z</time>
      </trkpt>
      <trkpt lat="43.97793" lon="7.10246">
        <ele>1294.1999511719</ele>
        <time>2019-02-16T11:25:59.000Z</time>
      </trkpt>
      <trkpt lat="43.97793" lon="7.10246">
        <ele>1293.5999755859</ele>
        <time>2019-02-16T11:26:00.000Z</time>
      </trkpt>
      <trkpt lat="43.97794" lon="7.10247">
        <ele>1293</ele>
        <time>2019-02-16T11:26:02.000Z</time>
      </trkpt>
      <trkpt lat="43.97794" lon="7.10247">
        <ele>1292.5999755859</ele>
        <time>2019-02-16T11:26:03.000Z</time>
      </trkpt>
      <trkpt lat="43.97793" lon="7.10247">
        <ele>1292.5999755859</ele>
        <time>2019-02-16T11:26:04.000Z</time>
      </trkpt>
      <trkpt lat="43.97794" lon="7.10247">
        <ele>1292.5999755859</ele>
        <time>2019-02-16T11:26:08.000Z</time>
      </trkpt>
      <trkpt lat="43.97796" lon="7.10247">
        <ele>1293.4000244141</ele>
        <time>2019-02-16T11:26:14.000Z</time>
      </trkpt>
      <trkpt lat="43.97798" lon="7.10248">
        <ele>1293</ele>
        <time>2019-02-16T11:26:17.000Z</time>
      </trkpt>
      <trkpt lat="43.978" lon="7.10248">
        <ele>1292.8000488281</ele>
        <time>2019-02-16T11:26:18.000Z</time>
      </trkpt>
      <trkpt lat="43.97808" lon="7.10249">
        <ele>1292.5999755859</ele>
        <time>2019-02-16T11:26:22.000Z</time>
      </trkpt>
      <trkpt lat="43.97808" lon="7.10256">
        <ele>1291.5999755859</ele>
        <time>2019-02-16T11:26:25.000Z</time>
      </trkpt>
      <trkpt lat="43.97808" lon="7.10259">
        <ele>1291</ele>
        <time>2019-02-16T11:26:26.000Z</time>
      </trkpt>
      <trkpt lat="43.97811" lon="7.10264">
        <ele>1289.5999755859</ele>
        <time>2019-02-16T11:26:28.000Z</time>
      </trkpt>
      <trkpt lat="43.97819" lon="7.10267">
        <ele>1287.5999755859</ele>
        <time>2019-02-16T11:26:30.000Z</time>
      </trkpt>
      <trkpt lat="43.97823" lon="7.10267">
        <ele>1286.5999755859</ele>
        <time>2019-02-16T11:26:31.000Z</time>
      </trkpt>
      <trkpt lat="43.97826" lon="7.10267">
        <ele>1285.4000244141</ele>
        <time>2019-02-16T11:26:32.000Z</time>
      </trkpt>
      <trkpt lat="43.9783" lon="7.10271">
        <ele>1284.1999511719</ele>
        <time>2019-02-16T11:26:34.000Z</time>
      </trkpt>
      <trkpt lat="43.97833" lon="7.10275">
        <ele>1283.5999755859</ele>
        <time>2019-02-16T11:26:35.000Z</time>
      </trkpt>
      <trkpt lat="43.97836" lon="7.10279">
        <ele>1283</ele>
        <time>2019-02-16T11:26:36.000Z</time>
      </trkpt>
      <trkpt lat="43.97843" lon="7.10284">
        <ele>1281.5999755859</ele>
        <time>2019-02-16T11:26:38.000Z</time>
      </trkpt>
      <trkpt lat="43.97851" lon="7.10288">
        <ele>1280</ele>
        <time>2019-02-16T11:26:40.000Z</time>
      </trkpt>
      <trkpt lat="43.9786" lon="7.10289">
        <ele>1278.8000488281</ele>
        <time>2019-02-16T11:26:42.000Z</time>
      </trkpt>
      <trkpt lat="43.97873" lon="7.10292">
        <ele>1277.1999511719</ele>
        <time>2019-02-16T11:26:45.000Z</time>
      </trkpt>
      <trkpt lat="43.97877" lon="7.10294">
        <ele>1276.1999511719</ele>
        <time>2019-02-16T11:26:46.000Z</time>
      </trkpt>
      <trkpt lat="43.97882" lon="7.10297">
        <ele>1275.4000244141</ele>
        <time>2019-02-16T11:26:47.000Z</time>
      </trkpt>
      <trkpt lat="43.97887" lon="7.103">
        <ele>1274.1999511719</ele>
        <time>2019-02-16T11:26:48.000Z</time>
      </trkpt>
      <trkpt lat="43.97897" lon="7.10307">
        <ele>1272.5999755859</ele>
        <time>2019-02-16T11:26:50.000Z</time>
      </trkpt>
      <trkpt lat="43.97901" lon="7.10308">
        <ele>1271.1999511719</ele>
        <time>2019-02-16T11:26:51.000Z</time>
      </trkpt>
      <trkpt lat="43.97906" lon="7.10308">
        <ele>1270</ele>
        <time>2019-02-16T11:26:52.000Z</time>
      </trkpt>
      <trkpt lat="43.97916" lon="7.10309">
        <ele>1269</ele>
        <time>2019-02-16T11:26:54.000Z</time>
      </trkpt>
      <trkpt lat="43.97932" lon="7.10311">
        <ele>1268</ele>
        <time>2019-02-16T11:26:57.000Z</time>
      </trkpt>
      <trkpt lat="43.97936" lon="7.10311">
        <ele>1267.4000244141</ele>
        <time>2019-02-16T11:26:58.000Z</time>
      </trkpt>
      <trkpt lat="43.9794" lon="7.10312">
        <ele>1267.1999511719</ele>
        <time>2019-02-16T11:26:59.000Z</time>
      </trkpt>
      <trkpt lat="43.97941" lon="7.10311">
        <ele>1266</ele>
        <time>2019-02-16T11:27:00.000Z</time>
      </trkpt>
      <trkpt lat="43.97941" lon="7.10311">
        <ele>1265.1999511719</ele>
        <time>2019-02-16T11:27:01.000Z</time>
      </trkpt>
      <trkpt lat="43.97942" lon="7.10311">
        <ele>1264.1999511719</ele>
        <time>2019-02-16T11:27:02.000Z</time>
      </trkpt>
      <trkpt lat="43.97943" lon="7.10312">
        <ele>1263.5999755859</ele>
        <time>2019-02-16T11:27:03.000Z</time>
      </trkpt>
      <trkpt lat="43.97943" lon="7.10312">
        <ele>1263.1999511719</ele>
        <time>2019-02-16T11:27:04.000Z</time>
      </trkpt>
      <trkpt lat="43.97944" lon="7.10312">
        <ele>1263</ele>
        <time>2019-02-16T11:27:05.000Z</time>
      </trkpt>
      <trkpt lat="43.97945" lon="7.10314">
        <ele>1262.8000488281</ele>
        <time>2019-02-16T11:27:10.000Z</time>
      </trkpt>
      <trkpt lat="43.97948" lon="7.10316">
        <ele>1263.4000244141</ele>
        <time>2019-02-16T11:27:15.000Z</time>
      </trkpt>
      <trkpt lat="43.97949" lon="7.10321">
        <ele>1263.8000488281</ele>
        <time>2019-02-16T11:27:20.000Z</time>
      </trkpt>
      <trkpt lat="43.97948" lon="7.10322">
        <ele>1263.8000488281</ele>
        <time>2019-02-16T11:27:21.000Z</time>
      </trkpt>
      <trkpt lat="43.97948" lon="7.10324">
        <ele>1264.1999511719</ele>
        <time>2019-02-16T11:27:23.000Z</time>
      </trkpt>
      <trkpt lat="43.97947" lon="7.10328">
        <ele>1265</ele>
        <time>2019-02-16T11:27:28.000Z</time>
      </trkpt>
      <trkpt lat="43.9794" lon="7.10337">
        <ele>1265</ele>
        <time>2019-02-16T11:27:33.000Z</time>
      </trkpt>
      <trkpt lat="43.9793" lon="7.10353">
        <ele>1264.5999755859</ele>
        <time>2019-02-16T11:27:39.000Z</time>
      </trkpt>
      <trkpt lat="43.9792" lon="7.10364">
        <ele>1264.4000244141</ele>
        <time>2019-02-16T11:27:43.000Z</time>
      </trkpt>
      <trkpt lat="43.97905" lon="7.10378">
        <ele>1264</ele>
        <time>2019-02-16T11:27:49.000Z</time>
      </trkpt>
      <trkpt lat="43.97897" lon="7.10393">
        <ele>1263.4000244141</ele>
        <time>2019-02-16T11:27:53.000Z</time>
      </trkpt>
      <trkpt lat="43.97891" lon="7.10404">
        <ele>1263.1999511719</ele>
        <time>2019-02-16T11:27:55.000Z</time>
      </trkpt>
      <trkpt lat="43.97888" lon="7.1041">
        <ele>1263</ele>
        <time>2019-02-16T11:27:56.000Z</time>
      </trkpt>
      <trkpt lat="43.97881" lon="7.10422">
        <ele>1262.4000244141</ele>
        <time>2019-02-16T11:27:58.000Z</time>
      </trkpt>
      <trkpt lat="43.97879" lon="7.10429">
        <ele>1261.4000244141</ele>
        <time>2019-02-16T11:27:59.000Z</time>
      </trkpt>
      <trkpt lat="43.97878" lon="7.10436">
        <ele>1260.8000488281</ele>
        <time>2019-02-16T11:28:00.000Z</time>
      </trkpt>
      <trkpt lat="43.97877" lon="7.10442">
        <ele>1260.1999511719</ele>
        <time>2019-02-16T11:28:01.000Z</time>
      </trkpt>
      <trkpt lat="43.97875" lon="7.10446">
        <ele>1259.8000488281</ele>
        <time>2019-02-16T11:28:02.000Z</time>
      </trkpt>
      <trkpt lat="43.97873" lon="7.10454">
        <ele>1259.8000488281</ele>
        <time>2019-02-16T11:28:04.000Z</time>
      </trkpt>
      <trkpt lat="43.97862" lon="7.10485">
        <ele>1259.5999755859</ele>
        <time>2019-02-16T11:28:10.000Z</time>
      </trkpt>
      <trkpt lat="43.97858" lon="7.10498">
        <ele>1259.1999511719</ele>
        <time>2019-02-16T11:28:12.000Z</time>
      </trkpt>
      <trkpt lat="43.97856" lon="7.10505">
        <ele>1258.8000488281</ele>
        <time>2019-02-16T11:28:13.000Z</time>
      </trkpt>
      <trkpt lat="43.97855" lon="7.10511">
        <ele>1258.5999755859</ele>
        <time>2019-02-16T11:28:14.000Z</time>
      </trkpt>
      <trkpt lat="43.97852" lon="7.10518">
        <ele>1258.1999511719</ele>
        <time>2019-02-16T11:28:15.000Z</time>
      </trkpt>
      <trkpt lat="43.97849" lon="7.10524">
        <ele>1257.8000488281</ele>
        <time>2019-02-16T11:28:16.000Z</time>
      </trkpt>
      <trkpt lat="43.97841" lon="7.10533">
        <ele>1257.5999755859</ele>
        <time>2019-02-16T11:28:18.000Z</time>
      </trkpt>
      <trkpt lat="43.97838" lon="7.10538">
        <ele>1257.5999755859</ele>
        <time>2019-02-16T11:28:19.000Z</time>
      </trkpt>
      <trkpt lat="43.97813" lon="7.10572">
        <ele>1256.5999755859</ele>
        <time>2019-02-16T11:28:26.000Z</time>
      </trkpt>
      <trkpt lat="43.97798" lon="7.10574">
        <ele>1255.5999755859</ele>
        <time>2019-02-16T11:28:29.000Z</time>
      </trkpt>
      <trkpt lat="43.97792" lon="7.10576">
        <ele>1255.5999755859</ele>
        <time>2019-02-16T11:28:30.000Z</time>
      </trkpt>
      <trkpt lat="43.97782" lon="7.10582">
        <ele>1254</ele>
        <time>2019-02-16T11:28:32.000Z</time>
      </trkpt>
      <trkpt lat="43.97777" lon="7.10585">
        <ele>1253.1999511719</ele>
        <time>2019-02-16T11:28:33.000Z</time>
      </trkpt>
      <trkpt lat="43.97772" lon="7.10586">
        <ele>1252.5999755859</ele>
        <time>2019-02-16T11:28:34.000Z</time>
      </trkpt>
      <trkpt lat="43.97759" lon="7.10593">
        <ele>1251.4000244141</ele>
        <time>2019-02-16T11:28:37.000Z</time>
      </trkpt>
      <trkpt lat="43.97756" lon="7.10596">
        <ele>1251.4000244141</ele>
        <time>2019-02-16T11:28:38.000Z</time>
      </trkpt>
      <trkpt lat="43.97747" lon="7.10613">
        <ele>1250.1999511719</ele>
        <time>2019-02-16T11:28:41.000Z</time>
      </trkpt>
      <trkpt lat="43.97736" lon="7.10611">
        <ele>1248.8000488281</ele>
        <time>2019-02-16T11:28:43.000Z</time>
      </trkpt>
      <trkpt lat="43.97728" lon="7.10609">
        <ele>1247.5999755859</ele>
        <time>2019-02-16T11:28:45.000Z</time>
      </trkpt>
      <trkpt lat="43.9772" lon="7.10611">
        <ele>1246.8000488281</ele>
        <time>2019-02-16T11:28:47.000Z</time>
      </trkpt>
      <trkpt lat="43.97714" lon="7.10623">
        <ele>1247.5999755859</ele>
        <time>2019-02-16T11:28:51.000Z</time>
      </trkpt>
      <trkpt lat="43.97708" lon="7.10634">
        <ele>1248.5999755859</ele>
        <time>2019-02-16T11:28:54.000Z</time>
      </trkpt>
      <trkpt lat="43.97704" lon="7.10636">
        <ele>1248.5999755859</ele>
        <time>2019-02-16T11:28:55.000Z</time>
      </trkpt>
      <trkpt lat="43.97687" lon="7.10639">
        <ele>1249</ele>
        <time>2019-02-16T11:29:01.000Z</time>
      </trkpt>
      <trkpt lat="43.97678" lon="7.10642">
        <ele>1249.8000488281</ele>
        <time>2019-02-16T11:29:06.000Z</time>
      </trkpt>
      <trkpt lat="43.97673" lon="7.10643">
        <ele>1250.4000244141</ele>
        <time>2019-02-16T11:29:09.000Z</time>
      </trkpt>
      <trkpt lat="43.97668" lon="7.10644">
        <ele>1251</ele>
        <time>2019-02-16T11:29:12.000Z</time>
      </trkpt>
      <trkpt lat="43.97663" lon="7.10646">
        <ele>1251.5999755859</ele>
        <time>2019-02-16T11:29:15.000Z</time>
      </trkpt>
      <trkpt lat="43.97659" lon="7.10647">
        <ele>1252</ele>
        <time>2019-02-16T11:29:17.000Z</time>
      </trkpt>
      <trkpt lat="43.97648" lon="7.10653">
        <ele>1253</ele>
        <time>2019-02-16T11:29:23.000Z</time>
      </trkpt>
      <trkpt lat="43.97646" lon="7.10654">
        <ele>1253</ele>
        <time>2019-02-16T11:29:24.000Z</time>
      </trkpt>
      <trkpt lat="43.97631" lon="7.10662">
        <ele>1253.5999755859</ele>
        <time>2019-02-16T11:29:30.000Z</time>
      </trkpt>
      <trkpt lat="43.9761" lon="7.10681">
        <ele>1253.1999511719</ele>
        <time>2019-02-16T11:29:38.000Z</time>
      </trkpt>
      <trkpt lat="43.97598" lon="7.10697">
        <ele>1253.1999511719</ele>
        <time>2019-02-16T11:29:44.000Z</time>
      </trkpt>
      <trkpt lat="43.97587" lon="7.10717">
        <ele>1253.8000488281</ele>
        <time>2019-02-16T11:29:50.000Z</time>
      </trkpt>
      <trkpt lat="43.97575" lon="7.10734">
        <ele>1254</ele>
        <time>2019-02-16T11:29:56.000Z</time>
      </trkpt>
      <trkpt lat="43.97573" lon="7.10736">
        <ele>1254.1999511719</ele>
        <time>2019-02-16T11:29:57.000Z</time>
      </trkpt>
      <trkpt lat="43.97561" lon="7.10741">
        <ele>1255</ele>
        <time>2019-02-16T11:30:02.000Z</time>
      </trkpt>
      <trkpt lat="43.97556" lon="7.1074">
        <ele>1255.1999511719</ele>
        <time>2019-02-16T11:30:04.000Z</time>
      </trkpt>
      <trkpt lat="43.97547" lon="7.10742">
        <ele>1255.5999755859</ele>
        <time>2019-02-16T11:30:08.000Z</time>
      </trkpt>
      <trkpt lat="43.97538" lon="7.10744">
        <ele>1256.1999511719</ele>
        <time>2019-02-16T11:30:12.000Z</time>
      </trkpt>
      <trkpt lat="43.97527" lon="7.10743">
        <ele>1257</ele>
        <time>2019-02-16T11:30:17.000Z</time>
      </trkpt>
      <trkpt lat="43.97523" lon="7.10743">
        <ele>1257.1999511719</ele>
        <time>2019-02-16T11:30:19.000Z</time>
      </trkpt>
      <trkpt lat="43.97512" lon="7.10745">
        <ele>1258</ele>
        <time>2019-02-16T11:30:24.000Z</time>
      </trkpt>
      <trkpt lat="43.97508" lon="7.10746">
        <ele>1258.1999511719</ele>
        <time>2019-02-16T11:30:26.000Z</time>
      </trkpt>
      <trkpt lat="43.975" lon="7.1075">
        <ele>1259</ele>
        <time>2019-02-16T11:30:31.000Z</time>
      </trkpt>
      <trkpt lat="43.97497" lon="7.10752">
        <ele>1259.4000244141</ele>
        <time>2019-02-16T11:30:33.000Z</time>
      </trkpt>
      <trkpt lat="43.97487" lon="7.10758">
        <ele>1260.4000244141</ele>
        <time>2019-02-16T11:30:39.000Z</time>
      </trkpt>
      <trkpt lat="43.97477" lon="7.10764">
        <ele>1261.5999755859</ele>
        <time>2019-02-16T11:30:44.000Z</time>
      </trkpt>
      <trkpt lat="43.97474" lon="7.10766">
        <ele>1262</ele>
        <time>2019-02-16T11:30:46.000Z</time>
      </trkpt>
      <trkpt lat="43.97469" lon="7.1077">
        <ele>1262.5999755859</ele>
        <time>2019-02-16T11:30:49.000Z</time>
      </trkpt>
      <trkpt lat="43.97458" lon="7.10775">
        <ele>1263.4000244141</ele>
        <time>2019-02-16T11:30:55.000Z</time>
      </trkpt>
      <trkpt lat="43.97451" lon="7.10778">
        <ele>1263.8000488281</ele>
        <time>2019-02-16T11:30:59.000Z</time>
      </trkpt>
      <trkpt lat="43.97442" lon="7.10782">
        <ele>1263.8000488281</ele>
        <time>2019-02-16T11:31:03.000Z</time>
      </trkpt>
      <trkpt lat="43.97421" lon="7.10792">
        <ele>1263</ele>
        <time>2019-02-16T11:31:09.000Z</time>
      </trkpt>
      <trkpt lat="43.97417" lon="7.10795">
        <ele>1262.5999755859</ele>
        <time>2019-02-16T11:31:10.000Z</time>
      </trkpt>
      <trkpt lat="43.97412" lon="7.10799">
        <ele>1262</ele>
        <time>2019-02-16T11:31:13.000Z</time>
      </trkpt>
      <trkpt lat="43.97411" lon="7.10799">
        <ele>1262</ele>
        <time>2019-02-16T11:31:15.000Z</time>
      </trkpt>
      <trkpt lat="43.97412" lon="7.10798">
        <ele>1262</ele>
        <time>2019-02-16T11:31:17.000Z</time>
      </trkpt>
      <trkpt lat="43.97412" lon="7.10797">
        <ele>1261.5999755859</ele>
        <time>2019-02-16T11:31:19.000Z</time>
      </trkpt>
      <trkpt lat="43.97412" lon="7.10798">
        <ele>1262.1999511719</ele>
        <time>2019-02-16T11:31:24.000Z</time>
      </trkpt>
      <trkpt lat="43.97412" lon="7.10799">
        <ele>1262</ele>
        <time>2019-02-16T11:31:26.000Z</time>
      </trkpt>
      <trkpt lat="43.9741" lon="7.108">
        <ele>1262</ele>
        <time>2019-02-16T11:31:28.000Z</time>
      </trkpt>
      <trkpt lat="43.97407" lon="7.10803">
        <ele>1262</ele>
        <time>2019-02-16T11:31:30.000Z</time>
      </trkpt>
      <trkpt lat="43.974" lon="7.10808">
        <ele>1261.8000488281</ele>
        <time>2019-02-16T11:31:33.000Z</time>
      </trkpt>
      <trkpt lat="43.97391" lon="7.10818">
        <ele>1261.4000244141</ele>
        <time>2019-02-16T11:31:36.000Z</time>
      </trkpt>
      <trkpt lat="43.97389" lon="7.10824">
        <ele>1261</ele>
        <time>2019-02-16T11:31:37.000Z</time>
      </trkpt>
      <trkpt lat="43.9739" lon="7.1083">
        <ele>1260.4000244141</ele>
        <time>2019-02-16T11:31:38.000Z</time>
      </trkpt>
      <trkpt lat="43.97393" lon="7.10845">
        <ele>1259.5999755859</ele>
        <time>2019-02-16T11:31:40.000Z</time>
      </trkpt>
      <trkpt lat="43.97395" lon="7.10853">
        <ele>1259.4000244141</ele>
        <time>2019-02-16T11:31:41.000Z</time>
      </trkpt>
      <trkpt lat="43.97396" lon="7.10862">
        <ele>1259.1999511719</ele>
        <time>2019-02-16T11:31:42.000Z</time>
      </trkpt>
      <trkpt lat="43.97395" lon="7.10882">
        <ele>1258.1999511719</ele>
        <time>2019-02-16T11:31:44.000Z</time>
      </trkpt>
      <trkpt lat="43.97396" lon="7.10902">
        <ele>1256.8000488281</ele>
        <time>2019-02-16T11:31:46.000Z</time>
      </trkpt>
      <trkpt lat="43.974" lon="7.1092">
        <ele>1255.5999755859</ele>
        <time>2019-02-16T11:31:48.000Z</time>
      </trkpt>
      <trkpt lat="43.97398" lon="7.10935">
        <ele>1254.5999755859</ele>
        <time>2019-02-16T11:31:50.000Z</time>
      </trkpt>
      <trkpt lat="43.9739" lon="7.10943">
        <ele>1253.5999755859</ele>
        <time>2019-02-16T11:31:52.000Z</time>
      </trkpt>
      <trkpt lat="43.97386" lon="7.10947">
        <ele>1253.5999755859</ele>
        <time>2019-02-16T11:31:53.000Z</time>
      </trkpt>
      <trkpt lat="43.97375" lon="7.10961">
        <ele>1252.4000244141</ele>
        <time>2019-02-16T11:31:56.000Z</time>
      </trkpt>
      <trkpt lat="43.97372" lon="7.10971">
        <ele>1251.5999755859</ele>
        <time>2019-02-16T11:31:58.000Z</time>
      </trkpt>
      <trkpt lat="43.97376" lon="7.1099">
        <ele>1251.1999511719</ele>
        <time>2019-02-16T11:32:01.000Z</time>
      </trkpt>
      <trkpt lat="43.97379" lon="7.11004">
        <ele>1250.8000488281</ele>
        <time>2019-02-16T11:32:03.000Z</time>
      </trkpt>
      <trkpt lat="43.97381" lon="7.11019">
        <ele>1250</ele>
        <time>2019-02-16T11:32:05.000Z</time>
      </trkpt>
      <trkpt lat="43.97381" lon="7.11027">
        <ele>1249.5999755859</ele>
        <time>2019-02-16T11:32:06.000Z</time>
      </trkpt>
      <trkpt lat="43.9738" lon="7.11036">
        <ele>1248.8000488281</ele>
        <time>2019-02-16T11:32:08.000Z</time>
      </trkpt>
      <trkpt lat="43.97379" lon="7.11038">
        <ele>1248.5999755859</ele>
        <time>2019-02-16T11:32:09.000Z</time>
      </trkpt>
      <trkpt lat="43.97379" lon="7.11039">
        <ele>1247.5999755859</ele>
        <time>2019-02-16T11:32:12.000Z</time>
      </trkpt>
      <trkpt lat="43.97379" lon="7.11039">
        <ele>1247.4000244141</ele>
        <time>2019-02-16T11:32:14.000Z</time>
      </trkpt>
      <trkpt lat="43.97373" lon="7.11044">
        <ele>1247.4000244141</ele>
        <time>2019-02-16T11:32:18.000Z</time>
      </trkpt>
      <trkpt lat="43.97366" lon="7.11049">
        <ele>1246.4000244141</ele>
        <time>2019-02-16T11:32:23.000Z</time>
      </trkpt>
      <trkpt lat="43.97365" lon="7.11049">
        <ele>1245.8000488281</ele>
        <time>2019-02-16T11:32:24.000Z</time>
      </trkpt>
      <trkpt lat="43.97361" lon="7.11053">
        <ele>1244.8000488281</ele>
        <time>2019-02-16T11:32:26.000Z</time>
      </trkpt>
      <trkpt lat="43.97359" lon="7.11056">
        <ele>1244</ele>
        <time>2019-02-16T11:32:27.000Z</time>
      </trkpt>
      <trkpt lat="43.97358" lon="7.11059">
        <ele>1243.1999511719</ele>
        <time>2019-02-16T11:32:28.000Z</time>
      </trkpt>
      <trkpt lat="43.97356" lon="7.11063">
        <ele>1241.4000244141</ele>
        <time>2019-02-16T11:32:30.000Z</time>
      </trkpt>
      <trkpt lat="43.97355" lon="7.11067">
        <ele>1240.5999755859</ele>
        <time>2019-02-16T11:32:31.000Z</time>
      </trkpt>
      <trkpt lat="43.97352" lon="7.11071">
        <ele>1240.1999511719</ele>
        <time>2019-02-16T11:32:32.000Z</time>
      </trkpt>
      <trkpt lat="43.97351" lon="7.11086">
        <ele>1238.1999511719</ele>
        <time>2019-02-16T11:32:35.000Z</time>
      </trkpt>
      <trkpt lat="43.9735" lon="7.11092">
        <ele>1237.1999511719</ele>
        <time>2019-02-16T11:32:36.000Z</time>
      </trkpt>
      <trkpt lat="43.97348" lon="7.11103">
        <ele>1235.1999511719</ele>
        <time>2019-02-16T11:32:38.000Z</time>
      </trkpt>
      <trkpt lat="43.97347" lon="7.11108">
        <ele>1234.1999511719</ele>
        <time>2019-02-16T11:32:39.000Z</time>
      </trkpt>
      <trkpt lat="43.97343" lon="7.11121">
        <ele>1233.1999511719</ele>
        <time>2019-02-16T11:32:41.000Z</time>
      </trkpt>
      <trkpt lat="43.9734" lon="7.11126">
        <ele>1232.5999755859</ele>
        <time>2019-02-16T11:32:42.000Z</time>
      </trkpt>
      <trkpt lat="43.9733" lon="7.11136">
        <ele>1231.8000488281</ele>
        <time>2019-02-16T11:32:45.000Z</time>
      </trkpt>
      <trkpt lat="43.97328" lon="7.11138">
        <ele>1231.4000244141</ele>
        <time>2019-02-16T11:32:46.000Z</time>
      </trkpt>
      <trkpt lat="43.97323" lon="7.11145">
        <ele>1231.1999511719</ele>
        <time>2019-02-16T11:32:49.000Z</time>
      </trkpt>
      <trkpt lat="43.97315" lon="7.11155">
        <ele>1230.8000488281</ele>
        <time>2019-02-16T11:32:53.000Z</time>
      </trkpt>
      <trkpt lat="43.97309" lon="7.11158">
        <ele>1230.4000244141</ele>
        <time>2019-02-16T11:32:55.000Z</time>
      </trkpt>
      <trkpt lat="43.973" lon="7.11164">
        <ele>1229.4000244141</ele>
        <time>2019-02-16T11:32:59.000Z</time>
      </trkpt>
      <trkpt lat="43.97297" lon="7.11165">
        <ele>1229.1999511719</ele>
        <time>2019-02-16T11:33:00.000Z</time>
      </trkpt>
      <trkpt lat="43.97287" lon="7.11176">
        <ele>1229</ele>
        <time>2019-02-16T11:33:05.000Z</time>
      </trkpt>
      <trkpt lat="43.97284" lon="7.11185">
        <ele>1228.1999511719</ele>
        <time>2019-02-16T11:33:09.000Z</time>
      </trkpt>
      <trkpt lat="43.97284" lon="7.11188">
        <ele>1226.8000488281</ele>
        <time>2019-02-16T11:33:12.000Z</time>
      </trkpt>
      <trkpt lat="43.97284" lon="7.11188">
        <ele>1226.4000244141</ele>
        <time>2019-02-16T11:33:13.000Z</time>
      </trkpt>
      <trkpt lat="43.97284" lon="7.11188">
        <ele>1225.8000488281</ele>
        <time>2019-02-16T11:33:16.000Z</time>
      </trkpt>
      <trkpt lat="43.97284" lon="7.11188">
        <ele>1225.5999755859</ele>
        <time>2019-02-16T11:33:21.000Z</time>
      </trkpt>
      <trkpt lat="43.97284" lon="7.11186">
        <ele>1225.5999755859</ele>
        <time>2019-02-16T11:33:27.000Z</time>
      </trkpt>
      <trkpt lat="43.97285" lon="7.11186">
        <ele>1225.5999755859</ele>
        <time>2019-02-16T11:33:32.000Z</time>
      </trkpt>
      <trkpt lat="43.97286" lon="7.11186">
        <ele>1226.1999511719</ele>
        <time>2019-02-16T11:33:41.000Z</time>
      </trkpt>
      <trkpt lat="43.97286" lon="7.11186">
        <ele>1225.5999755859</ele>
        <time>2019-02-16T11:33:49.000Z</time>
      </trkpt>
      <trkpt lat="43.97287" lon="7.11185">
        <ele>1226.1999511719</ele>
        <time>2019-02-16T11:33:56.000Z</time>
      </trkpt>
      <trkpt lat="43.97287" lon="7.11185">
        <ele>1226</ele>
        <time>2019-02-16T11:34:05.000Z</time>
      </trkpt>
      <trkpt lat="43.97287" lon="7.11185">
        <ele>1226.1999511719</ele>
        <time>2019-02-16T11:34:15.000Z</time>
      </trkpt>
      <trkpt lat="43.97287" lon="7.11185">
        <ele>1226.4000244141</ele>
        <time>2019-02-16T11:34:22.000Z</time>
      </trkpt>
      <trkpt lat="43.97287" lon="7.11185">
        <ele>1226.1999511719</ele>
        <time>2019-02-16T11:34:32.000Z</time>
      </trkpt>
      <trkpt lat="43.97288" lon="7.11185">
        <ele>1226.4000244141</ele>
        <time>2019-02-16T11:34:43.000Z</time>
      </trkpt>
      <trkpt lat="43.97288" lon="7.11185">
        <ele>1226.4000244141</ele>
        <time>2019-02-16T11:34:53.000Z</time>
      </trkpt>
      <trkpt lat="43.97288" lon="7.11185">
        <ele>1226.1999511719</ele>
        <time>2019-02-16T11:35:01.000Z</time>
      </trkpt>
      <trkpt lat="43.97288" lon="7.11185">
        <ele>1226.4000244141</ele>
        <time>2019-02-16T11:35:14.000Z</time>
      </trkpt>
      <trkpt lat="43.97289" lon="7.11185">
        <ele>1226</ele>
        <time>2019-02-16T11:35:24.000Z</time>
      </trkpt>
      <trkpt lat="43.97288" lon="7.11185">
        <ele>1226.1999511719</ele>
        <time>2019-02-16T11:35:34.000Z</time>
      </trkpt>
      <trkpt lat="43.97289" lon="7.11185">
        <ele>1226.1999511719</ele>
        <time>2019-02-16T11:35:42.000Z</time>
      </trkpt>
      <trkpt lat="43.97289" lon="7.11185">
        <ele>1226.8000488281</ele>
        <time>2019-02-16T11:35:46.000Z</time>
      </trkpt>
      <trkpt lat="43.97289" lon="7.11185">
        <ele>1226.5999755859</ele>
        <time>2019-02-16T11:35:51.000Z</time>
      </trkpt>
      <trkpt lat="43.97289" lon="7.11185">
        <ele>1225.8000488281</ele>
        <time>2019-02-16T11:35:55.000Z</time>
      </trkpt>
      <trkpt lat="43.97289" lon="7.11185">
        <ele>1226.1999511719</ele>
        <time>2019-02-16T11:35:58.000Z</time>
      </trkpt>
      <trkpt lat="43.97289" lon="7.11185">
        <ele>1226.1999511719</ele>
        <time>2019-02-16T11:36:09.000Z</time>
      </trkpt>
      <trkpt lat="43.9729" lon="7.11186">
        <ele>1226.4000244141</ele>
        <time>2019-02-16T11:36:23.000Z</time>
      </trkpt>
      <trkpt lat="43.9729" lon="7.11186">
        <ele>1225.8000488281</ele>
        <time>2019-02-16T11:36:30.000Z</time>
      </trkpt>
      <trkpt lat="43.9729" lon="7.11186">
        <ele>1226</ele>
        <time>2019-02-16T11:36:43.000Z</time>
      </trkpt>
      <trkpt lat="43.9729" lon="7.11186">
        <ele>1226.1999511719</ele>
        <time>2019-02-16T11:36:54.000Z</time>
      </trkpt>
      <trkpt lat="43.9729" lon="7.11185">
        <ele>1226.1999511719</ele>
        <time>2019-02-16T11:37:00.000Z</time>
      </trkpt>
      <trkpt lat="43.9729" lon="7.11185">
        <ele>1226.1999511719</ele>
        <time>2019-02-16T11:37:13.000Z</time>
      </trkpt>
      <trkpt lat="43.97291" lon="7.11186">
        <ele>1226</ele>
        <time>2019-02-16T11:37:23.000Z</time>
      </trkpt>
      <trkpt lat="43.97292" lon="7.11186">
        <ele>1226.5999755859</ele>
        <time>2019-02-16T11:37:30.000Z</time>
      </trkpt>
      <trkpt lat="43.97297" lon="7.11185">
        <ele>1226.5999755859</ele>
        <time>2019-02-16T11:37:39.000Z</time>
      </trkpt>
      <trkpt lat="43.97311" lon="7.11181">
        <ele>1226.1999511719</ele>
        <time>2019-02-16T11:37:45.000Z</time>
      </trkpt>
      <trkpt lat="43.97327" lon="7.11172">
        <ele>1225.4000244141</ele>
        <time>2019-02-16T11:37:49.000Z</time>
      </trkpt>
      <trkpt lat="43.97348" lon="7.11161">
        <ele>1224.8000488281</ele>
        <time>2019-02-16T11:37:53.000Z</time>
      </trkpt>
      <trkpt lat="43.9736" lon="7.11158">
        <ele>1224.1999511719</ele>
        <time>2019-02-16T11:37:55.000Z</time>
      </trkpt>
      <trkpt lat="43.97366" lon="7.11158">
        <ele>1223.5999755859</ele>
        <time>2019-02-16T11:37:56.000Z</time>
      </trkpt>
      <trkpt lat="43.97378" lon="7.11159">
        <ele>1223.1999511719</ele>
        <time>2019-02-16T11:37:58.000Z</time>
      </trkpt>
      <trkpt lat="43.97384" lon="7.11158">
        <ele>1222.5999755859</ele>
        <time>2019-02-16T11:37:59.000Z</time>
      </trkpt>
      <trkpt lat="43.97394" lon="7.11155">
        <ele>1221.5999755859</ele>
        <time>2019-02-16T11:38:01.000Z</time>
      </trkpt>
      <trkpt lat="43.97399" lon="7.11154">
        <ele>1220.8000488281</ele>
        <time>2019-02-16T11:38:02.000Z</time>
      </trkpt>
      <trkpt lat="43.97403" lon="7.11154">
        <ele>1221</ele>
        <time>2019-02-16T11:38:03.000Z</time>
      </trkpt>
      <trkpt lat="43.97414" lon="7.11164">
        <ele>1220.1999511719</ele>
        <time>2019-02-16T11:38:06.000Z</time>
      </trkpt>
      <trkpt lat="43.97416" lon="7.11169">
        <ele>1219.5999755859</ele>
        <time>2019-02-16T11:38:07.000Z</time>
      </trkpt>
      <trkpt lat="43.97417" lon="7.11174">
        <ele>1218.1999511719</ele>
        <time>2019-02-16T11:38:08.000Z</time>
      </trkpt>
      <trkpt lat="43.97418" lon="7.11178">
        <ele>1217.8000488281</ele>
        <time>2019-02-16T11:38:09.000Z</time>
      </trkpt>
      <trkpt lat="43.97418" lon="7.11184">
        <ele>1217</ele>
        <time>2019-02-16T11:38:10.000Z</time>
      </trkpt>
      <trkpt lat="43.97419" lon="7.11189">
        <ele>1216</ele>
        <time>2019-02-16T11:38:11.000Z</time>
      </trkpt>
      <trkpt lat="43.97423" lon="7.112">
        <ele>1215.1999511719</ele>
        <time>2019-02-16T11:38:13.000Z</time>
      </trkpt>
      <trkpt lat="43.97429" lon="7.11209">
        <ele>1214.5999755859</ele>
        <time>2019-02-16T11:38:15.000Z</time>
      </trkpt>
      <trkpt lat="43.97437" lon="7.11217">
        <ele>1214.1999511719</ele>
        <time>2019-02-16T11:38:17.000Z</time>
      </trkpt>
      <trkpt lat="43.97442" lon="7.11222">
        <ele>1213.4000244141</ele>
        <time>2019-02-16T11:38:18.000Z</time>
      </trkpt>
      <trkpt lat="43.97453" lon="7.1123">
        <ele>1212</ele>
        <time>2019-02-16T11:38:20.000Z</time>
      </trkpt>
      <trkpt lat="43.97459" lon="7.11233">
        <ele>1210.8000488281</ele>
        <time>2019-02-16T11:38:21.000Z</time>
      </trkpt>
      <trkpt lat="43.97469" lon="7.11237">
        <ele>1209.1999511719</ele>
        <time>2019-02-16T11:38:23.000Z</time>
      </trkpt>
      <trkpt lat="43.97477" lon="7.11241">
        <ele>1208.5999755859</ele>
        <time>2019-02-16T11:38:25.000Z</time>
      </trkpt>
      <trkpt lat="43.9748" lon="7.11244">
        <ele>1208.1999511719</ele>
        <time>2019-02-16T11:38:26.000Z</time>
      </trkpt>
      <trkpt lat="43.97488" lon="7.11252">
        <ele>1207</ele>
        <time>2019-02-16T11:38:29.000Z</time>
      </trkpt>
      <trkpt lat="43.97492" lon="7.11258">
        <ele>1205.5999755859</ele>
        <time>2019-02-16T11:38:31.000Z</time>
      </trkpt>
      <trkpt lat="43.97494" lon="7.11261">
        <ele>1204.1999511719</ele>
        <time>2019-02-16T11:38:33.000Z</time>
      </trkpt>
      <trkpt lat="43.97498" lon="7.11264">
        <ele>1203</ele>
        <time>2019-02-16T11:38:36.000Z</time>
      </trkpt>
      <trkpt lat="43.975" lon="7.11264">
        <ele>1202.4000244141</ele>
        <time>2019-02-16T11:38:37.000Z</time>
      </trkpt>
      <trkpt lat="43.97505" lon="7.11264">
        <ele>1202</ele>
        <time>2019-02-16T11:38:38.000Z</time>
      </trkpt>
      <trkpt lat="43.97512" lon="7.1126">
        <ele>1200.8000488281</ele>
        <time>2019-02-16T11:38:40.000Z</time>
      </trkpt>
      <trkpt lat="43.97516" lon="7.11261">
        <ele>1199.5999755859</ele>
        <time>2019-02-16T11:38:42.000Z</time>
      </trkpt>
      <trkpt lat="43.97515" lon="7.11262">
        <ele>1199.1999511719</ele>
        <time>2019-02-16T11:38:43.000Z</time>
      </trkpt>
      <trkpt lat="43.97515" lon="7.11262">
        <ele>1198.5999755859</ele>
        <time>2019-02-16T11:38:45.000Z</time>
      </trkpt>
      <trkpt lat="43.97516" lon="7.11261">
        <ele>1198.1999511719</ele>
        <time>2019-02-16T11:38:47.000Z</time>
      </trkpt>
      <trkpt lat="43.97516" lon="7.11261">
        <ele>1197.8000488281</ele>
        <time>2019-02-16T11:38:52.000Z</time>
      </trkpt>
      <trkpt lat="43.97517" lon="7.11261">
        <ele>1197.4000244141</ele>
        <time>2019-02-16T11:38:54.000Z</time>
      </trkpt>
      <trkpt lat="43.9752" lon="7.11264">
        <ele>1197.5999755859</ele>
        <time>2019-02-16T11:38:58.000Z</time>
      </trkpt>
      <trkpt lat="43.97528" lon="7.11271">
        <ele>1197</ele>
        <time>2019-02-16T11:39:02.000Z</time>
      </trkpt>
      <trkpt lat="43.97529" lon="7.11274">
        <ele>1196</ele>
        <time>2019-02-16T11:39:03.000Z</time>
      </trkpt>
      <trkpt lat="43.97533" lon="7.11276">
        <ele>1195</ele>
        <time>2019-02-16T11:39:05.000Z</time>
      </trkpt>
      <trkpt lat="43.97535" lon="7.11276">
        <ele>1194.4000244141</ele>
        <time>2019-02-16T11:39:06.000Z</time>
      </trkpt>
      <trkpt lat="43.97537" lon="7.11276">
        <ele>1193.8000488281</ele>
        <time>2019-02-16T11:39:07.000Z</time>
      </trkpt>
      <trkpt lat="43.97539" lon="7.11277">
        <ele>1193.5999755859</ele>
        <time>2019-02-16T11:39:08.000Z</time>
      </trkpt>
      <trkpt lat="43.97542" lon="7.11278">
        <ele>1192.1999511719</ele>
        <time>2019-02-16T11:39:10.000Z</time>
      </trkpt>
      <trkpt lat="43.97551" lon="7.11276">
        <ele>1190.5999755859</ele>
        <time>2019-02-16T11:39:13.000Z</time>
      </trkpt>
      <trkpt lat="43.97554" lon="7.11274">
        <ele>1190.1999511719</ele>
        <time>2019-02-16T11:39:14.000Z</time>
      </trkpt>
      <trkpt lat="43.97559" lon="7.11272">
        <ele>1188.8000488281</ele>
        <time>2019-02-16T11:39:16.000Z</time>
      </trkpt>
      <trkpt lat="43.97566" lon="7.11269">
        <ele>1187.5999755859</ele>
        <time>2019-02-16T11:39:18.000Z</time>
      </trkpt>
      <trkpt lat="43.97574" lon="7.11269">
        <ele>1186</ele>
        <time>2019-02-16T11:39:20.000Z</time>
      </trkpt>
      <trkpt lat="43.9758" lon="7.1127">
        <ele>1185.1999511719</ele>
        <time>2019-02-16T11:39:22.000Z</time>
      </trkpt>
      <trkpt lat="43.97582" lon="7.11269">
        <ele>1184.8000488281</ele>
        <time>2019-02-16T11:39:23.000Z</time>
      </trkpt>
      <trkpt lat="43.97587" lon="7.11268">
        <ele>1183.8000488281</ele>
        <time>2019-02-16T11:39:26.000Z</time>
      </trkpt>
      <trkpt lat="43.97589" lon="7.11268">
        <ele>1182.4000244141</ele>
        <time>2019-02-16T11:39:28.000Z</time>
      </trkpt>
      <trkpt lat="43.97593" lon="7.11268">
        <ele>1181.1999511719</ele>
        <time>2019-02-16T11:39:30.000Z</time>
      </trkpt>
      <trkpt lat="43.97603" lon="7.11267">
        <ele>1180.1999511719</ele>
        <time>2019-02-16T11:39:33.000Z</time>
      </trkpt>
      <trkpt lat="43.97608" lon="7.11265">
        <ele>1179.8000488281</ele>
        <time>2019-02-16T11:39:34.000Z</time>
      </trkpt>
      <trkpt lat="43.97617" lon="7.1126">
        <ele>1178.4000244141</ele>
        <time>2019-02-16T11:39:36.000Z</time>
      </trkpt>
      <trkpt lat="43.97622" lon="7.11261">
        <ele>1177.8000488281</ele>
        <time>2019-02-16T11:39:37.000Z</time>
      </trkpt>
      <trkpt lat="43.97626" lon="7.11262">
        <ele>1177</ele>
        <time>2019-02-16T11:39:38.000Z</time>
      </trkpt>
      <trkpt lat="43.9763" lon="7.11262">
        <ele>1176.5999755859</ele>
        <time>2019-02-16T11:39:39.000Z</time>
      </trkpt>
      <trkpt lat="43.97638" lon="7.11262">
        <ele>1175.8000488281</ele>
        <time>2019-02-16T11:39:41.000Z</time>
      </trkpt>
      <trkpt lat="43.97645" lon="7.11261">
        <ele>1174.8000488281</ele>
        <time>2019-02-16T11:39:43.000Z</time>
      </trkpt>
      <trkpt lat="43.97651" lon="7.11259">
        <ele>1173.5999755859</ele>
        <time>2019-02-16T11:39:45.000Z</time>
      </trkpt>
      <trkpt lat="43.97659" lon="7.11255">
        <ele>1171.8000488281</ele>
        <time>2019-02-16T11:39:47.000Z</time>
      </trkpt>
      <trkpt lat="43.97665" lon="7.11253">
        <ele>1171.4000244141</ele>
        <time>2019-02-16T11:39:48.000Z</time>
      </trkpt>
      <trkpt lat="43.9767" lon="7.1125">
        <ele>1170.8000488281</ele>
        <time>2019-02-16T11:39:49.000Z</time>
      </trkpt>
      <trkpt lat="43.97676" lon="7.11248">
        <ele>1169.5999755859</ele>
        <time>2019-02-16T11:39:50.000Z</time>
      </trkpt>
      <trkpt lat="43.97686" lon="7.11247">
        <ele>1168.1999511719</ele>
        <time>2019-02-16T11:39:52.000Z</time>
      </trkpt>
      <trkpt lat="43.97697" lon="7.11242">
        <ele>1166.1999511719</ele>
        <time>2019-02-16T11:39:54.000Z</time>
      </trkpt>
      <trkpt lat="43.97702" lon="7.11239">
        <ele>1165</ele>
        <time>2019-02-16T11:39:55.000Z</time>
      </trkpt>
      <trkpt lat="43.97707" lon="7.11239">
        <ele>1163.5999755859</ele>
        <time>2019-02-16T11:39:56.000Z</time>
      </trkpt>
      <trkpt lat="43.97713" lon="7.11242">
        <ele>1162</ele>
        <time>2019-02-16T11:39:58.000Z</time>
      </trkpt>
      <trkpt lat="43.97721" lon="7.1125">
        <ele>1161.1999511719</ele>
        <time>2019-02-16T11:40:02.000Z</time>
      </trkpt>
      <trkpt lat="43.9772" lon="7.11253">
        <ele>1161</ele>
        <time>2019-02-16T11:40:03.000Z</time>
      </trkpt>
      <trkpt lat="43.97718" lon="7.11263">
        <ele>1160.8000488281</ele>
        <time>2019-02-16T11:40:06.000Z</time>
      </trkpt>
      <trkpt lat="43.97722" lon="7.11287">
        <ele>1160.8000488281</ele>
        <time>2019-02-16T11:40:11.000Z</time>
      </trkpt>
      <trkpt lat="43.97722" lon="7.11292">
        <ele>1160.5999755859</ele>
        <time>2019-02-16T11:40:12.000Z</time>
      </trkpt>
      <trkpt lat="43.97722" lon="7.11301">
        <ele>1159.5999755859</ele>
        <time>2019-02-16T11:40:14.000Z</time>
      </trkpt>
      <trkpt lat="43.97723" lon="7.11304">
        <ele>1158.8000488281</ele>
        <time>2019-02-16T11:40:15.000Z</time>
      </trkpt>
      <trkpt lat="43.97725" lon="7.11308">
        <ele>1158</ele>
        <time>2019-02-16T11:40:16.000Z</time>
      </trkpt>
      <trkpt lat="43.97727" lon="7.1131">
        <ele>1157</ele>
        <time>2019-02-16T11:40:17.000Z</time>
      </trkpt>
      <trkpt lat="43.9773" lon="7.11313">
        <ele>1155</ele>
        <time>2019-02-16T11:40:19.000Z</time>
      </trkpt>
      <trkpt lat="43.97731" lon="7.11314">
        <ele>1154.4000244141</ele>
        <time>2019-02-16T11:40:20.000Z</time>
      </trkpt>
      <trkpt lat="43.97732" lon="7.11316">
        <ele>1153.5999755859</ele>
        <time>2019-02-16T11:40:21.000Z</time>
      </trkpt>
      <trkpt lat="43.97733" lon="7.11318">
        <ele>1152.1999511719</ele>
        <time>2019-02-16T11:40:23.000Z</time>
      </trkpt>
      <trkpt lat="43.97732" lon="7.11319">
        <ele>1151.8000488281</ele>
        <time>2019-02-16T11:40:24.000Z</time>
      </trkpt>
      <trkpt lat="43.97731" lon="7.1132">
        <ele>1151</ele>
        <time>2019-02-16T11:40:25.000Z</time>
      </trkpt>
      <trkpt lat="43.97724" lon="7.11325">
        <ele>1149.8000488281</ele>
        <time>2019-02-16T11:40:28.000Z</time>
      </trkpt>
      <trkpt lat="43.97714" lon="7.11329">
        <ele>1148.1999511719</ele>
        <time>2019-02-16T11:40:31.000Z</time>
      </trkpt>
      <trkpt lat="43.97713" lon="7.11331">
        <ele>1147.5999755859</ele>
        <time>2019-02-16T11:40:32.000Z</time>
      </trkpt>
      <trkpt lat="43.97714" lon="7.11332">
        <ele>1147</ele>
        <time>2019-02-16T11:40:33.000Z</time>
      </trkpt>
      <trkpt lat="43.97719" lon="7.11333">
        <ele>1145.8000488281</ele>
        <time>2019-02-16T11:40:35.000Z</time>
      </trkpt>
      <trkpt lat="43.97728" lon="7.11334">
        <ele>1144.5999755859</ele>
        <time>2019-02-16T11:40:37.000Z</time>
      </trkpt>
      <trkpt lat="43.97737" lon="7.11339">
        <ele>1143.1999511719</ele>
        <time>2019-02-16T11:40:39.000Z</time>
      </trkpt>
      <trkpt lat="43.97743" lon="7.11348">
        <ele>1142</ele>
        <time>2019-02-16T11:40:41.000Z</time>
      </trkpt>
      <trkpt lat="43.97744" lon="7.11352">
        <ele>1141.5999755859</ele>
        <time>2019-02-16T11:40:42.000Z</time>
      </trkpt>
      <trkpt lat="43.97743" lon="7.11356">
        <ele>1141.4000244141</ele>
        <time>2019-02-16T11:40:43.000Z</time>
      </trkpt>
      <trkpt lat="43.97738" lon="7.11363">
        <ele>1140.8000488281</ele>
        <time>2019-02-16T11:40:45.000Z</time>
      </trkpt>
      <trkpt lat="43.97735" lon="7.11367">
        <ele>1140.1999511719</ele>
        <time>2019-02-16T11:40:46.000Z</time>
      </trkpt>
      <trkpt lat="43.97732" lon="7.1137">
        <ele>1139.8000488281</ele>
        <time>2019-02-16T11:40:47.000Z</time>
      </trkpt>
      <trkpt lat="43.97728" lon="7.11374">
        <ele>1139.4000244141</ele>
        <time>2019-02-16T11:40:48.000Z</time>
      </trkpt>
      <trkpt lat="43.97725" lon="7.11379">
        <ele>1138.5999755859</ele>
        <time>2019-02-16T11:40:49.000Z</time>
      </trkpt>
      <trkpt lat="43.97722" lon="7.11383">
        <ele>1137.8000488281</ele>
        <time>2019-02-16T11:40:50.000Z</time>
      </trkpt>
      <trkpt lat="43.97719" lon="7.11386">
        <ele>1137</ele>
        <time>2019-02-16T11:40:51.000Z</time>
      </trkpt>
      <trkpt lat="43.97716" lon="7.11396">
        <ele>1135.1999511719</ele>
        <time>2019-02-16T11:40:53.000Z</time>
      </trkpt>
      <trkpt lat="43.97713" lon="7.11401">
        <ele>1134.5999755859</ele>
        <time>2019-02-16T11:40:54.000Z</time>
      </trkpt>
      <trkpt lat="43.9771" lon="7.11405">
        <ele>1134</ele>
        <time>2019-02-16T11:40:55.000Z</time>
      </trkpt>
      <trkpt lat="43.97708" lon="7.11409">
        <ele>1133.5999755859</ele>
        <time>2019-02-16T11:40:56.000Z</time>
      </trkpt>
      <trkpt lat="43.97705" lon="7.11418">
        <ele>1132.8000488281</ele>
        <time>2019-02-16T11:40:58.000Z</time>
      </trkpt>
      <trkpt lat="43.97702" lon="7.11422">
        <ele>1132.1999511719</ele>
        <time>2019-02-16T11:40:59.000Z</time>
      </trkpt>
      <trkpt lat="43.97696" lon="7.1143">
        <ele>1131.1999511719</ele>
        <time>2019-02-16T11:41:01.000Z</time>
      </trkpt>
      <trkpt lat="43.97695" lon="7.11435">
        <ele>1130.8000488281</ele>
        <time>2019-02-16T11:41:02.000Z</time>
      </trkpt>
      <trkpt lat="43.97693" lon="7.11447">
        <ele>1130</ele>
        <time>2019-02-16T11:41:04.000Z</time>
      </trkpt>
      <trkpt lat="43.97692" lon="7.11458">
        <ele>1129</ele>
        <time>2019-02-16T11:41:06.000Z</time>
      </trkpt>
      <trkpt lat="43.97691" lon="7.11464">
        <ele>1128.1999511719</ele>
        <time>2019-02-16T11:41:07.000Z</time>
      </trkpt>
      <trkpt lat="43.9769" lon="7.11469">
        <ele>1127.5999755859</ele>
        <time>2019-02-16T11:41:08.000Z</time>
      </trkpt>
      <trkpt lat="43.97689" lon="7.11478">
        <ele>1125.8000488281</ele>
        <time>2019-02-16T11:41:10.000Z</time>
      </trkpt>
      <trkpt lat="43.97688" lon="7.11482">
        <ele>1125.4000244141</ele>
        <time>2019-02-16T11:41:11.000Z</time>
      </trkpt>
      <trkpt lat="43.97689" lon="7.11486">
        <ele>1125.1999511719</ele>
        <time>2019-02-16T11:41:12.000Z</time>
      </trkpt>
      <trkpt lat="43.9769" lon="7.11489">
        <ele>1124.5999755859</ele>
        <time>2019-02-16T11:41:13.000Z</time>
      </trkpt>
      <trkpt lat="43.97691" lon="7.11498">
        <ele>1124.1999511719</ele>
        <time>2019-02-16T11:41:15.000Z</time>
      </trkpt>
      <trkpt lat="43.97693" lon="7.11507">
        <ele>1123.4000244141</ele>
        <time>2019-02-16T11:41:17.000Z</time>
      </trkpt>
      <trkpt lat="43.97694" lon="7.11517">
        <ele>1123.1999511719</ele>
        <time>2019-02-16T11:41:19.000Z</time>
      </trkpt>
      <trkpt lat="43.97695" lon="7.11522">
        <ele>1122.5999755859</ele>
        <time>2019-02-16T11:41:20.000Z</time>
      </trkpt>
      <trkpt lat="43.97696" lon="7.11527">
        <ele>1122.1999511719</ele>
        <time>2019-02-16T11:41:21.000Z</time>
      </trkpt>
      <trkpt lat="43.97698" lon="7.11535">
        <ele>1121</ele>
        <time>2019-02-16T11:41:23.000Z</time>
      </trkpt>
      <trkpt lat="43.977" lon="7.11538">
        <ele>1120</ele>
        <time>2019-02-16T11:41:24.000Z</time>
      </trkpt>
      <trkpt lat="43.97702" lon="7.11542">
        <ele>1119.5999755859</ele>
        <time>2019-02-16T11:41:25.000Z</time>
      </trkpt>
      <trkpt lat="43.97702" lon="7.11546">
        <ele>1119.4000244141</ele>
        <time>2019-02-16T11:41:26.000Z</time>
      </trkpt>
      <trkpt lat="43.97703" lon="7.11549">
        <ele>1118.4000244141</ele>
        <time>2019-02-16T11:41:27.000Z</time>
      </trkpt>
      <trkpt lat="43.97705" lon="7.11558">
        <ele>1116.8000488281</ele>
        <time>2019-02-16T11:41:29.000Z</time>
      </trkpt>
      <trkpt lat="43.97705" lon="7.11561">
        <ele>1115.8000488281</ele>
        <time>2019-02-16T11:41:30.000Z</time>
      </trkpt>
      <trkpt lat="43.97707" lon="7.11564">
        <ele>1114.5999755859</ele>
        <time>2019-02-16T11:41:31.000Z</time>
      </trkpt>
      <trkpt lat="43.97711" lon="7.11572">
        <ele>1113</ele>
        <time>2019-02-16T11:41:33.000Z</time>
      </trkpt>
      <trkpt lat="43.97715" lon="7.11583">
        <ele>1112.1999511719</ele>
        <time>2019-02-16T11:41:35.000Z</time>
      </trkpt>
      <trkpt lat="43.97717" lon="7.11589">
        <ele>1111.8000488281</ele>
        <time>2019-02-16T11:41:36.000Z</time>
      </trkpt>
      <trkpt lat="43.97719" lon="7.11606">
        <ele>1111.1999511719</ele>
        <time>2019-02-16T11:41:39.000Z</time>
      </trkpt>
      <trkpt lat="43.9772" lon="7.11616">
        <ele>1110.5999755859</ele>
        <time>2019-02-16T11:41:41.000Z</time>
      </trkpt>
      <trkpt lat="43.97721" lon="7.11625">
        <ele>1110.8000488281</ele>
        <time>2019-02-16T11:41:43.000Z</time>
      </trkpt>
      <trkpt lat="43.97723" lon="7.11638">
        <ele>1110.4000244141</ele>
        <time>2019-02-16T11:41:46.000Z</time>
      </trkpt>
      <trkpt lat="43.97724" lon="7.11654">
        <ele>1110</ele>
        <time>2019-02-16T11:41:49.000Z</time>
      </trkpt>
      <trkpt lat="43.97729" lon="7.11669">
        <ele>1110</ele>
        <time>2019-02-16T11:41:53.000Z</time>
      </trkpt>
      <trkpt lat="43.97737" lon="7.11683">
        <ele>1110.8000488281</ele>
        <time>2019-02-16T11:41:58.000Z</time>
      </trkpt>
      <trkpt lat="43.97742" lon="7.11692">
        <ele>1111</ele>
        <time>2019-02-16T11:42:00.000Z</time>
      </trkpt>
      <trkpt lat="43.97749" lon="7.11705">
        <ele>1110.4000244141</ele>
        <time>2019-02-16T11:42:02.000Z</time>
      </trkpt>
      <trkpt lat="43.97756" lon="7.11723">
        <ele>1108.8000488281</ele>
        <time>2019-02-16T11:42:04.000Z</time>
      </trkpt>
      <trkpt lat="43.97761" lon="7.11732">
        <ele>1107.4000244141</ele>
        <time>2019-02-16T11:42:05.000Z</time>
      </trkpt>
      <trkpt lat="43.97765" lon="7.11739">
        <ele>1106.1999511719</ele>
        <time>2019-02-16T11:42:06.000Z</time>
      </trkpt>
      <trkpt lat="43.97771" lon="7.11746">
        <ele>1105</ele>
        <time>2019-02-16T11:42:07.000Z</time>
      </trkpt>
      <trkpt lat="43.97783" lon="7.11756">
        <ele>1103.8000488281</ele>
        <time>2019-02-16T11:42:09.000Z</time>
      </trkpt>
      <trkpt lat="43.9779" lon="7.11762">
        <ele>1103.5999755859</ele>
        <time>2019-02-16T11:42:10.000Z</time>
      </trkpt>
      <trkpt lat="43.97803" lon="7.11772">
        <ele>1103.1999511719</ele>
        <time>2019-02-16T11:42:12.000Z</time>
      </trkpt>
      <trkpt lat="43.97815" lon="7.11783">
        <ele>1102.4000244141</ele>
        <time>2019-02-16T11:42:14.000Z</time>
      </trkpt>
      <trkpt lat="43.97821" lon="7.11789">
        <ele>1102.1999511719</ele>
        <time>2019-02-16T11:42:15.000Z</time>
      </trkpt>
      <trkpt lat="43.97831" lon="7.11804">
        <ele>1101.8000488281</ele>
        <time>2019-02-16T11:42:17.000Z</time>
      </trkpt>
      <trkpt lat="43.97835" lon="7.11811">
        <ele>1101.5999755859</ele>
        <time>2019-02-16T11:42:18.000Z</time>
      </trkpt>
      <trkpt lat="43.9784" lon="7.11827">
        <ele>1101.4000244141</ele>
        <time>2019-02-16T11:42:20.000Z</time>
      </trkpt>
      <trkpt lat="43.97841" lon="7.11843">
        <ele>1101.1999511719</ele>
        <time>2019-02-16T11:42:22.000Z</time>
      </trkpt>
      <trkpt lat="43.97843" lon="7.11854">
        <ele>1101.4000244141</ele>
        <time>2019-02-16T11:42:24.000Z</time>
      </trkpt>
      <trkpt lat="43.97851" lon="7.11875">
        <ele>1102.4000244141</ele>
        <time>2019-02-16T11:42:29.000Z</time>
      </trkpt>
      <trkpt lat="43.97854" lon="7.11884">
        <ele>1102.5999755859</ele>
        <time>2019-02-16T11:42:34.000Z</time>
      </trkpt>
      <trkpt lat="43.97855" lon="7.11886">
        <ele>1102.5999755859</ele>
        <time>2019-02-16T11:42:44.000Z</time>
      </trkpt>
      <trkpt lat="43.97861" lon="7.11894">
        <ele>1102.5999755859</ele>
        <time>2019-02-16T11:42:48.000Z</time>
      </trkpt>
      <trkpt lat="43.97875" lon="7.11912">
        <ele>1102.1999511719</ele>
        <time>2019-02-16T11:42:53.000Z</time>
      </trkpt>
      <trkpt lat="43.97885" lon="7.11921">
        <ele>1101.5999755859</ele>
        <time>2019-02-16T11:42:56.000Z</time>
      </trkpt>
      <trkpt lat="43.97888" lon="7.11923">
        <ele>1101.4000244141</ele>
        <time>2019-02-16T11:42:57.000Z</time>
      </trkpt>
      <trkpt lat="43.97896" lon="7.11927">
        <ele>1100.8000488281</ele>
        <time>2019-02-16T11:42:59.000Z</time>
      </trkpt>
      <trkpt lat="43.97905" lon="7.11928">
        <ele>1100</ele>
        <time>2019-02-16T11:43:01.000Z</time>
      </trkpt>
      <trkpt lat="43.97915" lon="7.11926">
        <ele>1099.1999511719</ele>
        <time>2019-02-16T11:43:03.000Z</time>
      </trkpt>
      <trkpt lat="43.9792" lon="7.11924">
        <ele>1098.8000488281</ele>
        <time>2019-02-16T11:43:04.000Z</time>
      </trkpt>
      <trkpt lat="43.9794" lon="7.11914">
        <ele>1097</ele>
        <time>2019-02-16T11:43:07.000Z</time>
      </trkpt>
      <trkpt lat="43.97948" lon="7.11904">
        <ele>1095.5999755859</ele>
        <time>2019-02-16T11:43:09.000Z</time>
      </trkpt>
      <trkpt lat="43.9795" lon="7.119">
        <ele>1095</ele>
        <time>2019-02-16T11:43:10.000Z</time>
      </trkpt>
      <trkpt lat="43.97951" lon="7.11898">
        <ele>1094.4000244141</ele>
        <time>2019-02-16T11:43:11.000Z</time>
      </trkpt>
      <trkpt lat="43.97952" lon="7.11894">
        <ele>1093.5999755859</ele>
        <time>2019-02-16T11:43:13.000Z</time>
      </trkpt>
      <trkpt lat="43.97953" lon="7.11893">
        <ele>1093.4000244141</ele>
        <time>2019-02-16T11:43:14.000Z</time>
      </trkpt>
      <trkpt lat="43.97953" lon="7.1189">
        <ele>1093.1999511719</ele>
        <time>2019-02-16T11:43:15.000Z</time>
      </trkpt>
      <trkpt lat="43.97953" lon="7.11885">
        <ele>1093.4000244141</ele>
        <time>2019-02-16T11:43:17.000Z</time>
      </trkpt>
      <trkpt lat="43.97952" lon="7.11874">
        <ele>1093.4000244141</ele>
        <time>2019-02-16T11:43:20.000Z</time>
      </trkpt>
      <trkpt lat="43.97956" lon="7.11861">
        <ele>1093.5999755859</ele>
        <time>2019-02-16T11:43:25.000Z</time>
      </trkpt>
      <trkpt lat="43.97961" lon="7.11858">
        <ele>1093.8000488281</ele>
        <time>2019-02-16T11:43:30.000Z</time>
      </trkpt>
      <trkpt lat="43.97965" lon="7.11859">
        <ele>1093.5999755859</ele>
        <time>2019-02-16T11:43:45.000Z</time>
      </trkpt>
      <trkpt lat="43.97967" lon="7.11859">
        <ele>1094</ele>
        <time>2019-02-16T11:44:03.000Z</time>
      </trkpt>
      <trkpt lat="43.97968" lon="7.1186">
        <ele>1093.8000488281</ele>
        <time>2019-02-16T11:44:21.000Z</time>
      </trkpt>
      <trkpt lat="43.97973" lon="7.11862">
        <ele>1093.5999755859</ele>
        <time>2019-02-16T11:44:44.000Z</time>
      </trkpt>
      <trkpt lat="43.97973" lon="7.11862">
        <ele>1093.5999755859</ele>
        <time>2019-02-16T11:44:49.000Z</time>
      </trkpt>
      <trkpt lat="43.97973" lon="7.11862">
        <ele>1093.5999755859</ele>
        <time>2019-02-16T11:44:50.000Z</time>
      </trkpt>
      <trkpt lat="43.97975" lon="7.11861">
        <ele>1093.5999755859</ele>
        <time>2019-02-16T11:44:57.000Z</time>
      </trkpt>
      <trkpt lat="43.97982" lon="7.11861">
        <ele>1094</ele>
        <time>2019-02-16T11:45:03.000Z</time>
      </trkpt>
      <trkpt lat="43.97983" lon="7.11861">
        <ele>1094</ele>
        <time>2019-02-16T11:45:08.000Z</time>
      </trkpt>
      <trkpt lat="43.97981" lon="7.11861">
        <ele>1094.1999511719</ele>
        <time>2019-02-16T11:45:16.000Z</time>
      </trkpt>
      <trkpt lat="43.97981" lon="7.1186">
        <ele>1094.4000244141</ele>
        <time>2019-02-16T11:45:25.000Z</time>
      </trkpt>
      <trkpt lat="43.9798" lon="7.11859">
        <ele>1094.4000244141</ele>
        <time>2019-02-16T11:45:28.000Z</time>
      </trkpt>
      <trkpt lat="43.9798" lon="7.11859">
        <ele>1094.4000244141</ele>
        <time>2019-02-16T11:45:37.000Z</time>
      </trkpt>
      <trkpt lat="43.97979" lon="7.11858">
        <ele>1094.5999755859</ele>
        <time>2019-02-16T11:45:52.000Z</time>
      </trkpt>
      <trkpt lat="43.97978" lon="7.11856">
        <ele>1094.1999511719</ele>
        <time>2019-02-16T11:45:57.000Z</time>
      </trkpt>
      <trkpt lat="43.97979" lon="7.11853">
        <ele>1093.8000488281</ele>
        <time>2019-02-16T11:46:00.000Z</time>
      </trkpt>
      <trkpt lat="43.97979" lon="7.11853">
        <ele>1094.1999511719</ele>
        <time>2019-02-16T11:46:05.000Z</time>
      </trkpt>
      <trkpt lat="43.97979" lon="7.11854">
        <ele>1094.5999755859</ele>
        <time>2019-02-16T11:46:13.000Z</time>
      </trkpt>
      <trkpt lat="43.97978" lon="7.11855">
        <ele>1095.4000244141</ele>
        <time>2019-02-16T11:46:19.000Z</time>
      </trkpt>
      <trkpt lat="43.97979" lon="7.11855">
        <ele>1095.1999511719</ele>
        <time>2019-02-16T11:46:20.000Z</time>
      </trkpt>
      <trkpt lat="43.97979" lon="7.11856">
        <ele>1094.1999511719</ele>
        <time>2019-02-16T11:46:24.000Z</time>
      </trkpt>
      <trkpt lat="43.97979" lon="7.11856">
        <ele>1094.1999511719</ele>
        <time>2019-02-16T11:46:28.000Z</time>
      </trkpt>
      <trkpt lat="43.97979" lon="7.11855">
        <ele>1094.1999511719</ele>
        <time>2019-02-16T11:46:33.000Z</time>
      </trkpt>
      <trkpt lat="43.97979" lon="7.11855">
        <ele>1094.1999511719</ele>
        <time>2019-02-16T11:46:35.000Z</time>
      </trkpt>
      <trkpt lat="43.97978" lon="7.11855">
        <ele>1094.1999511719</ele>
        <time>2019-02-16T11:46:36.000Z</time>
      </trkpt>
      <trkpt lat="43.97978" lon="7.11855">
        <ele>1094</ele>
        <time>2019-02-16T11:46:39.000Z</time>
      </trkpt>
      <trkpt lat="43.97978" lon="7.11855">
        <ele>1094.1999511719</ele>
        <time>2019-02-16T11:46:47.000Z</time>
      </trkpt>
      <trkpt lat="43.97978" lon="7.11855">
        <ele>1093.5999755859</ele>
        <time>2019-02-16T11:46:55.000Z</time>
      </trkpt>
      <trkpt lat="43.97978" lon="7.11856">
        <ele>1094.1999511719</ele>
        <time>2019-02-16T11:47:02.000Z</time>
      </trkpt>
      <trkpt lat="43.97981" lon="7.11863">
        <ele>1094.1999511719</ele>
        <time>2019-02-16T11:47:07.000Z</time>
      </trkpt>
      <trkpt lat="43.97984" lon="7.11867">
        <ele>1093.8000488281</ele>
        <time>2019-02-16T11:47:09.000Z</time>
      </trkpt>
      <trkpt lat="43.97982" lon="7.11869">
        <ele>1093.1999511719</ele>
        <time>2019-02-16T11:47:11.000Z</time>
      </trkpt>
      <trkpt lat="43.9798" lon="7.11869">
        <ele>1092.8000488281</ele>
        <time>2019-02-16T11:47:12.000Z</time>
      </trkpt>
      <trkpt lat="43.97974" lon="7.11868">
        <ele>1092.4000244141</ele>
        <time>2019-02-16T11:47:14.000Z</time>
      </trkpt>
      <trkpt lat="43.97971" lon="7.11868">
        <ele>1092</ele>
        <time>2019-02-16T11:47:15.000Z</time>
      </trkpt>
      <trkpt lat="43.97968" lon="7.11869">
        <ele>1091.1999511719</ele>
        <time>2019-02-16T11:47:16.000Z</time>
      </trkpt>
      <trkpt lat="43.97967" lon="7.1187">
        <ele>1090.5999755859</ele>
        <time>2019-02-16T11:47:17.000Z</time>
      </trkpt>
      <trkpt lat="43.97967" lon="7.1187">
        <ele>1090</ele>
        <time>2019-02-16T11:47:18.000Z</time>
      </trkpt>
      <trkpt lat="43.97967" lon="7.11871">
        <ele>1088.4000244141</ele>
        <time>2019-02-16T11:47:20.000Z</time>
      </trkpt>
      <trkpt lat="43.9797" lon="7.11874">
        <ele>1087.4000244141</ele>
        <time>2019-02-16T11:47:23.000Z</time>
      </trkpt>
      <trkpt lat="43.97972" lon="7.11875">
        <ele>1087.1999511719</ele>
        <time>2019-02-16T11:47:24.000Z</time>
      </trkpt>
      <trkpt lat="43.97983" lon="7.11886">
        <ele>1086</ele>
        <time>2019-02-16T11:47:28.000Z</time>
      </trkpt>
      <trkpt lat="43.97987" lon="7.1189">
        <ele>1085.1999511719</ele>
        <time>2019-02-16T11:47:29.000Z</time>
      </trkpt>
      <trkpt lat="43.97991" lon="7.11893">
        <ele>1084.4000244141</ele>
        <time>2019-02-16T11:47:30.000Z</time>
      </trkpt>
      <trkpt lat="43.97998" lon="7.11902">
        <ele>1083</ele>
        <time>2019-02-16T11:47:32.000Z</time>
      </trkpt>
      <trkpt lat="43.98" lon="7.1191">
        <ele>1081.8000488281</ele>
        <time>2019-02-16T11:47:34.000Z</time>
      </trkpt>
      <trkpt lat="43.98" lon="7.11913">
        <ele>1081</ele>
        <time>2019-02-16T11:47:35.000Z</time>
      </trkpt>
      <trkpt lat="43.98001" lon="7.11916">
        <ele>1080.4000244141</ele>
        <time>2019-02-16T11:47:36.000Z</time>
      </trkpt>
      <trkpt lat="43.98004" lon="7.11933">
        <ele>1078.8000488281</ele>
        <time>2019-02-16T11:47:39.000Z</time>
      </trkpt>
      <trkpt lat="43.98009" lon="7.1195">
        <ele>1077.5999755859</ele>
        <time>2019-02-16T11:47:41.000Z</time>
      </trkpt>
      <trkpt lat="43.98012" lon="7.11958">
        <ele>1076.5999755859</ele>
        <time>2019-02-16T11:47:42.000Z</time>
      </trkpt>
      <trkpt lat="43.98015" lon="7.11967">
        <ele>1075.5999755859</ele>
        <time>2019-02-16T11:47:43.000Z</time>
      </trkpt>
      <trkpt lat="43.98019" lon="7.11979">
        <ele>1073.4000244141</ele>
        <time>2019-02-16T11:47:45.000Z</time>
      </trkpt>
      <trkpt lat="43.98022" lon="7.11984">
        <ele>1072.4000244141</ele>
        <time>2019-02-16T11:47:46.000Z</time>
      </trkpt>
      <trkpt lat="43.98025" lon="7.11989">
        <ele>1071.8000488281</ele>
        <time>2019-02-16T11:47:47.000Z</time>
      </trkpt>
      <trkpt lat="43.98027" lon="7.11995">
        <ele>1070.8000488281</ele>
        <time>2019-02-16T11:47:48.000Z</time>
      </trkpt>
      <trkpt lat="43.98031" lon="7.12007">
        <ele>1069.1999511719</ele>
        <time>2019-02-16T11:47:50.000Z</time>
      </trkpt>
      <trkpt lat="43.98034" lon="7.12016">
        <ele>1067</ele>
        <time>2019-02-16T11:47:52.000Z</time>
      </trkpt>
      <trkpt lat="43.98037" lon="7.12027">
        <ele>1065</ele>
        <time>2019-02-16T11:47:54.000Z</time>
      </trkpt>
      <trkpt lat="43.98039" lon="7.12034">
        <ele>1063.8000488281</ele>
        <time>2019-02-16T11:47:55.000Z</time>
      </trkpt>
      <trkpt lat="43.98041" lon="7.1204">
        <ele>1063</ele>
        <time>2019-02-16T11:47:56.000Z</time>
      </trkpt>
      <trkpt lat="43.98044" lon="7.12046">
        <ele>1062.1999511719</ele>
        <time>2019-02-16T11:47:57.000Z</time>
      </trkpt>
      <trkpt lat="43.98047" lon="7.12051">
        <ele>1061.1999511719</ele>
        <time>2019-02-16T11:47:58.000Z</time>
      </trkpt>
      <trkpt lat="43.9805" lon="7.12055">
        <ele>1059.8000488281</ele>
        <time>2019-02-16T11:47:59.000Z</time>
      </trkpt>
      <trkpt lat="43.98053" lon="7.12058">
        <ele>1058.1999511719</ele>
        <time>2019-02-16T11:48:00.000Z</time>
      </trkpt>
      <trkpt lat="43.98056" lon="7.12061">
        <ele>1056.5999755859</ele>
        <time>2019-02-16T11:48:01.000Z</time>
      </trkpt>
      <trkpt lat="43.9806" lon="7.12064">
        <ele>1055.8000488281</ele>
        <time>2019-02-16T11:48:02.000Z</time>
      </trkpt>
      <trkpt lat="43.98063" lon="7.12066">
        <ele>1055</ele>
        <time>2019-02-16T11:48:03.000Z</time>
      </trkpt>
      <trkpt lat="43.98063" lon="7.1207">
        <ele>1054.4000244141</ele>
        <time>2019-02-16T11:48:04.000Z</time>
      </trkpt>
      <trkpt lat="43.98063" lon="7.12074">
        <ele>1053.5999755859</ele>
        <time>2019-02-16T11:48:05.000Z</time>
      </trkpt>
      <trkpt lat="43.98058" lon="7.12074">
        <ele>1053</ele>
        <time>2019-02-16T11:48:06.000Z</time>
      </trkpt>
      <trkpt lat="43.98055" lon="7.12074">
        <ele>1052</ele>
        <time>2019-02-16T11:48:07.000Z</time>
      </trkpt>
      <trkpt lat="43.98049" lon="7.12075">
        <ele>1050.1999511719</ele>
        <time>2019-02-16T11:48:09.000Z</time>
      </trkpt>
      <trkpt lat="43.98049" lon="7.12077">
        <ele>1049.4000244141</ele>
        <time>2019-02-16T11:48:10.000Z</time>
      </trkpt>
      <trkpt lat="43.98051" lon="7.12078">
        <ele>1048.8000488281</ele>
        <time>2019-02-16T11:48:11.000Z</time>
      </trkpt>
      <trkpt lat="43.98058" lon="7.12083">
        <ele>1048</ele>
        <time>2019-02-16T11:48:13.000Z</time>
      </trkpt>
      <trkpt lat="43.98061" lon="7.12087">
        <ele>1047.4000244141</ele>
        <time>2019-02-16T11:48:14.000Z</time>
      </trkpt>
      <trkpt lat="43.98066" lon="7.12094">
        <ele>1046.4000244141</ele>
        <time>2019-02-16T11:48:16.000Z</time>
      </trkpt>
      <trkpt lat="43.98067" lon="7.12097">
        <ele>1045.8000488281</ele>
        <time>2019-02-16T11:48:17.000Z</time>
      </trkpt>
      <trkpt lat="43.98066" lon="7.12099">
        <ele>1044.8000488281</ele>
        <time>2019-02-16T11:48:18.000Z</time>
      </trkpt>
      <trkpt lat="43.98064" lon="7.12098">
        <ele>1044.1999511719</ele>
        <time>2019-02-16T11:48:19.000Z</time>
      </trkpt>
      <trkpt lat="43.9806" lon="7.12096">
        <ele>1043.5999755859</ele>
        <time>2019-02-16T11:48:20.000Z</time>
      </trkpt>
      <trkpt lat="43.98056" lon="7.12094">
        <ele>1043</ele>
        <time>2019-02-16T11:48:21.000Z</time>
      </trkpt>
      <trkpt lat="43.98051" lon="7.12093">
        <ele>1042.4000244141</ele>
        <time>2019-02-16T11:48:22.000Z</time>
      </trkpt>
      <trkpt lat="43.98045" lon="7.12093">
        <ele>1041</ele>
        <time>2019-02-16T11:48:24.000Z</time>
      </trkpt>
      <trkpt lat="43.98044" lon="7.12093">
        <ele>1040.1999511719</ele>
        <time>2019-02-16T11:48:25.000Z</time>
      </trkpt>
      <trkpt lat="43.98044" lon="7.12093">
        <ele>1039.1999511719</ele>
        <time>2019-02-16T11:48:26.000Z</time>
      </trkpt>
      <trkpt lat="43.98043" lon="7.12094">
        <ele>1037.5999755859</ele>
        <time>2019-02-16T11:48:28.000Z</time>
      </trkpt>
      <trkpt lat="43.98041" lon="7.12098">
        <ele>1037</ele>
        <time>2019-02-16T11:48:30.000Z</time>
      </trkpt>
      <trkpt lat="43.98042" lon="7.12101">
        <ele>1036.1999511719</ele>
        <time>2019-02-16T11:48:32.000Z</time>
      </trkpt>
      <trkpt lat="43.98046" lon="7.12107">
        <ele>1035.4000244141</ele>
        <time>2019-02-16T11:48:34.000Z</time>
      </trkpt>
      <trkpt lat="43.98048" lon="7.12111">
        <ele>1034.8000488281</ele>
        <time>2019-02-16T11:48:35.000Z</time>
      </trkpt>
      <trkpt lat="43.9805" lon="7.12115">
        <ele>1034.1999511719</ele>
        <time>2019-02-16T11:48:36.000Z</time>
      </trkpt>
      <trkpt lat="43.98052" lon="7.1212">
        <ele>1033.5999755859</ele>
        <time>2019-02-16T11:48:37.000Z</time>
      </trkpt>
      <trkpt lat="43.98056" lon="7.12126">
        <ele>1032</ele>
        <time>2019-02-16T11:48:39.000Z</time>
      </trkpt>
      <trkpt lat="43.98056" lon="7.12131">
        <ele>1030.4000244141</ele>
        <time>2019-02-16T11:48:41.000Z</time>
      </trkpt>
      <trkpt lat="43.98057" lon="7.12137">
        <ele>1029.1999511719</ele>
        <time>2019-02-16T11:48:43.000Z</time>
      </trkpt>
      <trkpt lat="43.98062" lon="7.12142">
        <ele>1027.4000244141</ele>
        <time>2019-02-16T11:48:45.000Z</time>
      </trkpt>
      <trkpt lat="43.98068" lon="7.12143">
        <ele>1026.1999511719</ele>
        <time>2019-02-16T11:48:47.000Z</time>
      </trkpt>
      <trkpt lat="43.98071" lon="7.12145">
        <ele>1025.5999755859</ele>
        <time>2019-02-16T11:48:48.000Z</time>
      </trkpt>
      <trkpt lat="43.98072" lon="7.12148">
        <ele>1025.1999511719</ele>
        <time>2019-02-16T11:48:49.000Z</time>
      </trkpt>
      <trkpt lat="43.98072" lon="7.12153">
        <ele>1025</ele>
        <time>2019-02-16T11:48:50.000Z</time>
      </trkpt>
      <trkpt lat="43.98073" lon="7.12156">
        <ele>1023.799987793</ele>
        <time>2019-02-16T11:48:51.000Z</time>
      </trkpt>
      <trkpt lat="43.98076" lon="7.12162">
        <ele>1022.200012207</ele>
        <time>2019-02-16T11:48:53.000Z</time>
      </trkpt>
      <trkpt lat="43.98077" lon="7.12164">
        <ele>1021</ele>
        <time>2019-02-16T11:48:54.000Z</time>
      </trkpt>
      <trkpt lat="43.98077" lon="7.12166">
        <ele>1020</ele>
        <time>2019-02-16T11:48:55.000Z</time>
      </trkpt>
      <trkpt lat="43.98078" lon="7.12169">
        <ele>1018.200012207</ele>
        <time>2019-02-16T11:48:57.000Z</time>
      </trkpt>
      <trkpt lat="43.9808" lon="7.12171">
        <ele>1017.5999755859</ele>
        <time>2019-02-16T11:48:58.000Z</time>
      </trkpt>
      <trkpt lat="43.98081" lon="7.12172">
        <ele>1017</ele>
        <time>2019-02-16T11:48:59.000Z</time>
      </trkpt>
      <trkpt lat="43.98084" lon="7.12171">
        <ele>1016.4000244141</ele>
        <time>2019-02-16T11:49:00.000Z</time>
      </trkpt>
      <trkpt lat="43.98087" lon="7.12175">
        <ele>1015.4000244141</ele>
        <time>2019-02-16T11:49:02.000Z</time>
      </trkpt>
      <trkpt lat="43.98088" lon="7.12178">
        <ele>1014.799987793</ele>
        <time>2019-02-16T11:49:03.000Z</time>
      </trkpt>
      <trkpt lat="43.98089" lon="7.1218">
        <ele>1014.4000244141</ele>
        <time>2019-02-16T11:49:04.000Z</time>
      </trkpt>
      <trkpt lat="43.9809" lon="7.12184">
        <ele>1013.200012207</ele>
        <time>2019-02-16T11:49:06.000Z</time>
      </trkpt>
      <trkpt lat="43.98089" lon="7.12186">
        <ele>1012.5999755859</ele>
        <time>2019-02-16T11:49:07.000Z</time>
      </trkpt>
      <trkpt lat="43.98087" lon="7.12187">
        <ele>1012</ele>
        <time>2019-02-16T11:49:08.000Z</time>
      </trkpt>
      <trkpt lat="43.98084" lon="7.12186">
        <ele>1010.799987793</ele>
        <time>2019-02-16T11:49:10.000Z</time>
      </trkpt>
      <trkpt lat="43.98083" lon="7.12187">
        <ele>1010.4000244141</ele>
        <time>2019-02-16T11:49:11.000Z</time>
      </trkpt>
      <trkpt lat="43.98082" lon="7.12189">
        <ele>1009.4000244141</ele>
        <time>2019-02-16T11:49:13.000Z</time>
      </trkpt>
      <trkpt lat="43.98084" lon="7.12193">
        <ele>1008.799987793</ele>
        <time>2019-02-16T11:49:15.000Z</time>
      </trkpt>
      <trkpt lat="43.98084" lon="7.12196">
        <ele>1008.4000244141</ele>
        <time>2019-02-16T11:49:16.000Z</time>
      </trkpt>
      <trkpt lat="43.98082" lon="7.12197">
        <ele>1008</ele>
        <time>2019-02-16T11:49:17.000Z</time>
      </trkpt>
      <trkpt lat="43.98079" lon="7.12197">
        <ele>1007</ele>
        <time>2019-02-16T11:49:19.000Z</time>
      </trkpt>
      <trkpt lat="43.98078" lon="7.12199">
        <ele>1006</ele>
        <time>2019-02-16T11:49:21.000Z</time>
      </trkpt>
      <trkpt lat="43.98082" lon="7.12204">
        <ele>1004.5999755859</ele>
        <time>2019-02-16T11:49:24.000Z</time>
      </trkpt>
      <trkpt lat="43.98084" lon="7.12205">
        <ele>1004.200012207</ele>
        <time>2019-02-16T11:49:25.000Z</time>
      </trkpt>
      <trkpt lat="43.98085" lon="7.12205">
        <ele>1003.4000244141</ele>
        <time>2019-02-16T11:49:27.000Z</time>
      </trkpt>
      <trkpt lat="43.98086" lon="7.12205">
        <ele>1003</ele>
        <time>2019-02-16T11:49:28.000Z</time>
      </trkpt>
      <trkpt lat="43.98086" lon="7.12205">
        <ele>1002.4000244141</ele>
        <time>2019-02-16T11:49:30.000Z</time>
      </trkpt>
      <trkpt lat="43.98088" lon="7.12204">
        <ele>1002.200012207</ele>
        <time>2019-02-16T11:49:35.000Z</time>
      </trkpt>
      <trkpt lat="43.98089" lon="7.12204">
        <ele>1002.200012207</ele>
        <time>2019-02-16T11:49:37.000Z</time>
      </trkpt>
      <trkpt lat="43.98093" lon="7.12206">
        <ele>1002</ele>
        <time>2019-02-16T11:49:39.000Z</time>
      </trkpt>
      <trkpt lat="43.98101" lon="7.1221">
        <ele>1001.5999755859</ele>
        <time>2019-02-16T11:49:41.000Z</time>
      </trkpt>
      <trkpt lat="43.98106" lon="7.12211">
        <ele>1001.200012207</ele>
        <time>2019-02-16T11:49:42.000Z</time>
      </trkpt>
      <trkpt lat="43.98115" lon="7.12215">
        <ele>999.79998779297</ele>
        <time>2019-02-16T11:49:44.000Z</time>
      </trkpt>
      <trkpt lat="43.98121" lon="7.12217">
        <ele>998.40002441406</ele>
        <time>2019-02-16T11:49:46.000Z</time>
      </trkpt>
      <trkpt lat="43.98122" lon="7.12221">
        <ele>996.59997558594</ele>
        <time>2019-02-16T11:49:48.000Z</time>
      </trkpt>
      <trkpt lat="43.98121" lon="7.12224">
        <ele>995.59997558594</ele>
        <time>2019-02-16T11:49:49.000Z</time>
      </trkpt>
      <trkpt lat="43.9812" lon="7.12227">
        <ele>994.59997558594</ele>
        <time>2019-02-16T11:49:50.000Z</time>
      </trkpt>
      <trkpt lat="43.98118" lon="7.12233">
        <ele>993</ele>
        <time>2019-02-16T11:49:52.000Z</time>
      </trkpt>
      <trkpt lat="43.98116" lon="7.12236">
        <ele>991.79998779297</ele>
        <time>2019-02-16T11:49:53.000Z</time>
      </trkpt>
      <trkpt lat="43.98115" lon="7.1224">
        <ele>990.20001220703</ele>
        <time>2019-02-16T11:49:55.000Z</time>
      </trkpt>
      <trkpt lat="43.98116" lon="7.12241">
        <ele>989.40002441406</ele>
        <time>2019-02-16T11:49:56.000Z</time>
      </trkpt>
      <trkpt lat="43.98119" lon="7.12241">
        <ele>988.59997558594</ele>
        <time>2019-02-16T11:49:57.000Z</time>
      </trkpt>
      <trkpt lat="43.98129" lon="7.12239">
        <ele>987.40002441406</ele>
        <time>2019-02-16T11:50:00.000Z</time>
      </trkpt>
      <trkpt lat="43.98134" lon="7.12239">
        <ele>985.79998779297</ele>
        <time>2019-02-16T11:50:02.000Z</time>
      </trkpt>
      <trkpt lat="43.98138" lon="7.12243">
        <ele>984.20001220703</ele>
        <time>2019-02-16T11:50:04.000Z</time>
      </trkpt>
      <trkpt lat="43.98137" lon="7.12247">
        <ele>983.20001220703</ele>
        <time>2019-02-16T11:50:05.000Z</time>
      </trkpt>
      <trkpt lat="43.98135" lon="7.12255">
        <ele>982.20001220703</ele>
        <time>2019-02-16T11:50:07.000Z</time>
      </trkpt>
      <trkpt lat="43.9813" lon="7.12262">
        <ele>980.79998779297</ele>
        <time>2019-02-16T11:50:09.000Z</time>
      </trkpt>
      <trkpt lat="43.98125" lon="7.1227">
        <ele>979.20001220703</ele>
        <time>2019-02-16T11:50:11.000Z</time>
      </trkpt>
      <trkpt lat="43.98125" lon="7.12272">
        <ele>978</ele>
        <time>2019-02-16T11:50:12.000Z</time>
      </trkpt>
      <trkpt lat="43.98128" lon="7.12272">
        <ele>977.59997558594</ele>
        <time>2019-02-16T11:50:13.000Z</time>
      </trkpt>
      <trkpt lat="43.98131" lon="7.12272">
        <ele>976.40002441406</ele>
        <time>2019-02-16T11:50:14.000Z</time>
      </trkpt>
      <trkpt lat="43.98136" lon="7.12276">
        <ele>975.20001220703</ele>
        <time>2019-02-16T11:50:16.000Z</time>
      </trkpt>
      <trkpt lat="43.98141" lon="7.12281">
        <ele>973.40002441406</ele>
        <time>2019-02-16T11:50:19.000Z</time>
      </trkpt>
      <trkpt lat="43.98142" lon="7.12283">
        <ele>972.79998779297</ele>
        <time>2019-02-16T11:50:20.000Z</time>
      </trkpt>
      <trkpt lat="43.98144" lon="7.12285">
        <ele>972</ele>
        <time>2019-02-16T11:50:21.000Z</time>
      </trkpt>
      <trkpt lat="43.98146" lon="7.12289">
        <ele>970.40002441406</ele>
        <time>2019-02-16T11:50:23.000Z</time>
      </trkpt>
      <trkpt lat="43.98146" lon="7.12292">
        <ele>969.40002441406</ele>
        <time>2019-02-16T11:50:24.000Z</time>
      </trkpt>
      <trkpt lat="43.98145" lon="7.12295">
        <ele>968.59997558594</ele>
        <time>2019-02-16T11:50:25.000Z</time>
      </trkpt>
      <trkpt lat="43.9814" lon="7.12298">
        <ele>967.59997558594</ele>
        <time>2019-02-16T11:50:27.000Z</time>
      </trkpt>
      <trkpt lat="43.98134" lon="7.12301">
        <ele>966.40002441406</ele>
        <time>2019-02-16T11:50:29.000Z</time>
      </trkpt>
      <trkpt lat="43.98132" lon="7.12303">
        <ele>965.79998779297</ele>
        <time>2019-02-16T11:50:30.000Z</time>
      </trkpt>
      <trkpt lat="43.98132" lon="7.12305">
        <ele>965</ele>
        <time>2019-02-16T11:50:31.000Z</time>
      </trkpt>
      <trkpt lat="43.98132" lon="7.12306">
        <ele>963.59997558594</ele>
        <time>2019-02-16T11:50:32.000Z</time>
      </trkpt>
      <trkpt lat="43.98133" lon="7.12306">
        <ele>962.79998779297</ele>
        <time>2019-02-16T11:50:33.000Z</time>
      </trkpt>
      <trkpt lat="43.98134" lon="7.12306">
        <ele>962.59997558594</ele>
        <time>2019-02-16T11:50:34.000Z</time>
      </trkpt>
      <trkpt lat="43.98137" lon="7.12307">
        <ele>962.20001220703</ele>
        <time>2019-02-16T11:50:35.000Z</time>
      </trkpt>
      <trkpt lat="43.98143" lon="7.12312">
        <ele>961.20001220703</ele>
        <time>2019-02-16T11:50:38.000Z</time>
      </trkpt>
      <trkpt lat="43.98145" lon="7.12313">
        <ele>960.79998779297</ele>
        <time>2019-02-16T11:50:39.000Z</time>
      </trkpt>
      <trkpt lat="43.98148" lon="7.12314">
        <ele>959.79998779297</ele>
        <time>2019-02-16T11:50:41.000Z</time>
      </trkpt>
      <trkpt lat="43.98154" lon="7.12314">
        <ele>958.40002441406</ele>
        <time>2019-02-16T11:50:43.000Z</time>
      </trkpt>
      <trkpt lat="43.98161" lon="7.12314">
        <ele>957</ele>
        <time>2019-02-16T11:50:45.000Z</time>
      </trkpt>
      <trkpt lat="43.98167" lon="7.12314">
        <ele>955.59997558594</ele>
        <time>2019-02-16T11:50:47.000Z</time>
      </trkpt>
      <trkpt lat="43.98173" lon="7.12312">
        <ele>954.20001220703</ele>
        <time>2019-02-16T11:50:49.000Z</time>
      </trkpt>
      <trkpt lat="43.98175" lon="7.12311">
        <ele>952.79998779297</ele>
        <time>2019-02-16T11:50:50.000Z</time>
      </trkpt>
      <trkpt lat="43.98177" lon="7.12307">
        <ele>951.79998779297</ele>
        <time>2019-02-16T11:50:52.000Z</time>
      </trkpt>
      <trkpt lat="43.9818" lon="7.12301">
        <ele>950.79998779297</ele>
        <time>2019-02-16T11:50:54.000Z</time>
      </trkpt>
      <trkpt lat="43.98182" lon="7.12297">
        <ele>950.59997558594</ele>
        <time>2019-02-16T11:50:55.000Z</time>
      </trkpt>
      <trkpt lat="43.98186" lon="7.12287">
        <ele>949.79998779297</ele>
        <time>2019-02-16T11:50:57.000Z</time>
      </trkpt>
      <trkpt lat="43.98188" lon="7.12284">
        <ele>949.20001220703</ele>
        <time>2019-02-16T11:50:58.000Z</time>
      </trkpt>
      <trkpt lat="43.9819" lon="7.12282">
        <ele>948.59997558594</ele>
        <time>2019-02-16T11:50:59.000Z</time>
      </trkpt>
      <trkpt lat="43.98193" lon="7.12279">
        <ele>948.20001220703</ele>
        <time>2019-02-16T11:51:00.000Z</time>
      </trkpt>
      <trkpt lat="43.98195" lon="7.12277">
        <ele>947.40002441406</ele>
        <time>2019-02-16T11:51:01.000Z</time>
      </trkpt>
      <trkpt lat="43.98196" lon="7.12271">
        <ele>946.20001220703</ele>
        <time>2019-02-16T11:51:03.000Z</time>
      </trkpt>
      <trkpt lat="43.98198" lon="7.12268">
        <ele>945</ele>
        <time>2019-02-16T11:51:05.000Z</time>
      </trkpt>
      <trkpt lat="43.982" lon="7.12269">
        <ele>944.79998779297</ele>
        <time>2019-02-16T11:51:06.000Z</time>
      </trkpt>
      <trkpt lat="43.98208" lon="7.12282">
        <ele>943.40002441406</ele>
        <time>2019-02-16T11:51:09.000Z</time>
      </trkpt>
      <trkpt lat="43.98213" lon="7.12289">
        <ele>942</ele>
        <time>2019-02-16T11:51:11.000Z</time>
      </trkpt>
      <trkpt lat="43.98215" lon="7.12291">
        <ele>941</ele>
        <time>2019-02-16T11:51:12.000Z</time>
      </trkpt>
      <trkpt lat="43.98219" lon="7.12296">
        <ele>939.20001220703</ele>
        <time>2019-02-16T11:51:14.000Z</time>
      </trkpt>
      <trkpt lat="43.98222" lon="7.12303">
        <ele>937.59997558594</ele>
        <time>2019-02-16T11:51:16.000Z</time>
      </trkpt>
      <trkpt lat="43.98224" lon="7.12306">
        <ele>936.59997558594</ele>
        <time>2019-02-16T11:51:17.000Z</time>
      </trkpt>
      <trkpt lat="43.98226" lon="7.12307">
        <ele>935.59997558594</ele>
        <time>2019-02-16T11:51:18.000Z</time>
      </trkpt>
      <trkpt lat="43.98227" lon="7.12309">
        <ele>934.59997558594</ele>
        <time>2019-02-16T11:51:19.000Z</time>
      </trkpt>
      <trkpt lat="43.98228" lon="7.12312">
        <ele>933.40002441406</ele>
        <time>2019-02-16T11:51:20.000Z</time>
      </trkpt>
      <trkpt lat="43.98231" lon="7.12314">
        <ele>931.59997558594</ele>
        <time>2019-02-16T11:51:22.000Z</time>
      </trkpt>
      <trkpt lat="43.98237" lon="7.1231">
        <ele>930.20001220703</ele>
        <time>2019-02-16T11:51:24.000Z</time>
      </trkpt>
      <trkpt lat="43.9824" lon="7.12305">
        <ele>929.40002441406</ele>
        <time>2019-02-16T11:51:25.000Z</time>
      </trkpt>
      <trkpt lat="43.98243" lon="7.123">
        <ele>928.40002441406</ele>
        <time>2019-02-16T11:51:26.000Z</time>
      </trkpt>
      <trkpt lat="43.98245" lon="7.12292">
        <ele>926.79998779297</ele>
        <time>2019-02-16T11:51:28.000Z</time>
      </trkpt>
      <trkpt lat="43.98244" lon="7.1229">
        <ele>925.79998779297</ele>
        <time>2019-02-16T11:51:29.000Z</time>
      </trkpt>
      <trkpt lat="43.98244" lon="7.12289">
        <ele>925</ele>
        <time>2019-02-16T11:51:30.000Z</time>
      </trkpt>
      <trkpt lat="43.98244" lon="7.12288">
        <ele>923.79998779297</ele>
        <time>2019-02-16T11:51:31.000Z</time>
      </trkpt>
      <trkpt lat="43.98245" lon="7.12286">
        <ele>923.20001220703</ele>
        <time>2019-02-16T11:51:32.000Z</time>
      </trkpt>
      <trkpt lat="43.98247" lon="7.12286">
        <ele>922.79998779297</ele>
        <time>2019-02-16T11:51:33.000Z</time>
      </trkpt>
      <trkpt lat="43.98257" lon="7.1229">
        <ele>922.40002441406</ele>
        <time>2019-02-16T11:51:37.000Z</time>
      </trkpt>
      <trkpt lat="43.98259" lon="7.12296">
        <ele>921.40002441406</ele>
        <time>2019-02-16T11:51:39.000Z</time>
      </trkpt>
      <trkpt lat="43.98259" lon="7.12301">
        <ele>920.59997558594</ele>
        <time>2019-02-16T11:51:40.000Z</time>
      </trkpt>
      <trkpt lat="43.98258" lon="7.12306">
        <ele>920</ele>
        <time>2019-02-16T11:51:41.000Z</time>
      </trkpt>
      <trkpt lat="43.98257" lon="7.12316">
        <ele>918.20001220703</ele>
        <time>2019-02-16T11:51:43.000Z</time>
      </trkpt>
      <trkpt lat="43.98256" lon="7.12321">
        <ele>916.79998779297</ele>
        <time>2019-02-16T11:51:45.000Z</time>
      </trkpt>
      <trkpt lat="43.98257" lon="7.12322">
        <ele>915.59997558594</ele>
        <time>2019-02-16T11:51:47.000Z</time>
      </trkpt>
      <trkpt lat="43.98258" lon="7.1232">
        <ele>915</ele>
        <time>2019-02-16T11:51:48.000Z</time>
      </trkpt>
      <trkpt lat="43.98264" lon="7.12314">
        <ele>914.20001220703</ele>
        <time>2019-02-16T11:51:50.000Z</time>
      </trkpt>
      <trkpt lat="43.98268" lon="7.12311">
        <ele>913.79998779297</ele>
        <time>2019-02-16T11:51:51.000Z</time>
      </trkpt>
      <trkpt lat="43.98272" lon="7.12307">
        <ele>913.20001220703</ele>
        <time>2019-02-16T11:51:52.000Z</time>
      </trkpt>
      <trkpt lat="43.98276" lon="7.12303">
        <ele>912.59997558594</ele>
        <time>2019-02-16T11:51:53.000Z</time>
      </trkpt>
      <trkpt lat="43.98279" lon="7.12299">
        <ele>911.79998779297</ele>
        <time>2019-02-16T11:51:54.000Z</time>
      </trkpt>
      <trkpt lat="43.98283" lon="7.12295">
        <ele>911.20001220703</ele>
        <time>2019-02-16T11:51:55.000Z</time>
      </trkpt>
      <trkpt lat="43.98288" lon="7.1229">
        <ele>909.59997558594</ele>
        <time>2019-02-16T11:51:57.000Z</time>
      </trkpt>
      <trkpt lat="43.98288" lon="7.12291">
        <ele>908.79998779297</ele>
        <time>2019-02-16T11:51:58.000Z</time>
      </trkpt>
      <trkpt lat="43.98288" lon="7.12293">
        <ele>908.20001220703</ele>
        <time>2019-02-16T11:51:59.000Z</time>
      </trkpt>
      <trkpt lat="43.98288" lon="7.12299">
        <ele>906.40002441406</ele>
        <time>2019-02-16T11:52:01.000Z</time>
      </trkpt>
      <trkpt lat="43.98287" lon="7.12304">
        <ele>906</ele>
        <time>2019-02-16T11:52:02.000Z</time>
      </trkpt>
      <trkpt lat="43.98287" lon="7.12308">
        <ele>905.40002441406</ele>
        <time>2019-02-16T11:52:03.000Z</time>
      </trkpt>
      <trkpt lat="43.98287" lon="7.12313">
        <ele>904.59997558594</ele>
        <time>2019-02-16T11:52:04.000Z</time>
      </trkpt>
      <trkpt lat="43.98286" lon="7.12324">
        <ele>903.20001220703</ele>
        <time>2019-02-16T11:52:06.000Z</time>
      </trkpt>
      <trkpt lat="43.98286" lon="7.12329">
        <ele>902.40002441406</ele>
        <time>2019-02-16T11:52:07.000Z</time>
      </trkpt>
      <trkpt lat="43.98286" lon="7.12333">
        <ele>901.40002441406</ele>
        <time>2019-02-16T11:52:08.000Z</time>
      </trkpt>
      <trkpt lat="43.98284" lon="7.12342">
        <ele>899.79998779297</ele>
        <time>2019-02-16T11:52:10.000Z</time>
      </trkpt>
      <trkpt lat="43.98283" lon="7.12346">
        <ele>898.79998779297</ele>
        <time>2019-02-16T11:52:11.000Z</time>
      </trkpt>
      <trkpt lat="43.98281" lon="7.12349">
        <ele>897.59997558594</ele>
        <time>2019-02-16T11:52:12.000Z</time>
      </trkpt>
      <trkpt lat="43.98276" lon="7.12353">
        <ele>895.79998779297</ele>
        <time>2019-02-16T11:52:14.000Z</time>
      </trkpt>
      <trkpt lat="43.9827" lon="7.1236">
        <ele>895</ele>
        <time>2019-02-16T11:52:16.000Z</time>
      </trkpt>
      <trkpt lat="43.98267" lon="7.12365">
        <ele>894.79998779297</ele>
        <time>2019-02-16T11:52:17.000Z</time>
      </trkpt>
      <trkpt lat="43.98263" lon="7.12369">
        <ele>894.20001220703</ele>
        <time>2019-02-16T11:52:18.000Z</time>
      </trkpt>
      <trkpt lat="43.98258" lon="7.12375">
        <ele>892.79998779297</ele>
        <time>2019-02-16T11:52:20.000Z</time>
      </trkpt>
      <trkpt lat="43.98257" lon="7.12377">
        <ele>892.20001220703</ele>
        <time>2019-02-16T11:52:21.000Z</time>
      </trkpt>
      <trkpt lat="43.98258" lon="7.12378">
        <ele>891.59997558594</ele>
        <time>2019-02-16T11:52:22.000Z</time>
      </trkpt>
      <trkpt lat="43.98259" lon="7.12378">
        <ele>891.40002441406</ele>
        <time>2019-02-16T11:52:23.000Z</time>
      </trkpt>
      <trkpt lat="43.98261" lon="7.12377">
        <ele>890.59997558594</ele>
        <time>2019-02-16T11:52:24.000Z</time>
      </trkpt>
      <trkpt lat="43.98264" lon="7.12376">
        <ele>890.20001220703</ele>
        <time>2019-02-16T11:52:25.000Z</time>
      </trkpt>
      <trkpt lat="43.98269" lon="7.12374">
        <ele>889.79998779297</ele>
        <time>2019-02-16T11:52:26.000Z</time>
      </trkpt>
      <trkpt lat="43.98273" lon="7.12373">
        <ele>889</ele>
        <time>2019-02-16T11:52:27.000Z</time>
      </trkpt>
      <trkpt lat="43.98284" lon="7.12371">
        <ele>887.20001220703</ele>
        <time>2019-02-16T11:52:29.000Z</time>
      </trkpt>
      <trkpt lat="43.98289" lon="7.1237">
        <ele>886.40002441406</ele>
        <time>2019-02-16T11:52:30.000Z</time>
      </trkpt>
      <trkpt lat="43.98294" lon="7.12368">
        <ele>886</ele>
        <time>2019-02-16T11:52:31.000Z</time>
      </trkpt>
      <trkpt lat="43.983" lon="7.12361">
        <ele>884.40002441406</ele>
        <time>2019-02-16T11:52:33.000Z</time>
      </trkpt>
      <trkpt lat="43.98305" lon="7.12351">
        <ele>882.79998779297</ele>
        <time>2019-02-16T11:52:36.000Z</time>
      </trkpt>
      <trkpt lat="43.98306" lon="7.12359">
        <ele>881.40002441406</ele>
        <time>2019-02-16T11:52:37.000Z</time>
      </trkpt>
      <trkpt lat="43.98305" lon="7.12362">
        <ele>880.79998779297</ele>
        <time>2019-02-16T11:52:38.000Z</time>
      </trkpt>
      <trkpt lat="43.98304" lon="7.12367">
        <ele>880.20001220703</ele>
        <time>2019-02-16T11:52:39.000Z</time>
      </trkpt>
      <trkpt lat="43.98301" lon="7.12378">
        <ele>879.40002441406</ele>
        <time>2019-02-16T11:52:41.000Z</time>
      </trkpt>
      <trkpt lat="43.98299" lon="7.12383">
        <ele>878.59997558594</ele>
        <time>2019-02-16T11:52:42.000Z</time>
      </trkpt>
      <trkpt lat="43.98294" lon="7.12389">
        <ele>877</ele>
        <time>2019-02-16T11:52:44.000Z</time>
      </trkpt>
      <trkpt lat="43.98288" lon="7.12393">
        <ele>875.20001220703</ele>
        <time>2019-02-16T11:52:46.000Z</time>
      </trkpt>
      <trkpt lat="43.98284" lon="7.12394">
        <ele>875</ele>
        <time>2019-02-16T11:52:47.000Z</time>
      </trkpt>
      <trkpt lat="43.98282" lon="7.12395">
        <ele>874.20001220703</ele>
        <time>2019-02-16T11:52:48.000Z</time>
      </trkpt>
      <trkpt lat="43.9828" lon="7.12398">
        <ele>873</ele>
        <time>2019-02-16T11:52:50.000Z</time>
      </trkpt>
      <trkpt lat="43.98283" lon="7.12398">
        <ele>871.40002441406</ele>
        <time>2019-02-16T11:52:52.000Z</time>
      </trkpt>
      <trkpt lat="43.98285" lon="7.12398">
        <ele>870.59997558594</ele>
        <time>2019-02-16T11:52:53.000Z</time>
      </trkpt>
      <trkpt lat="43.98287" lon="7.12397">
        <ele>869.79998779297</ele>
        <time>2019-02-16T11:52:54.000Z</time>
      </trkpt>
      <trkpt lat="43.98292" lon="7.12395">
        <ele>868.59997558594</ele>
        <time>2019-02-16T11:52:56.000Z</time>
      </trkpt>
      <trkpt lat="43.98298" lon="7.12393">
        <ele>867.40002441406</ele>
        <time>2019-02-16T11:52:58.000Z</time>
      </trkpt>
      <trkpt lat="43.98301" lon="7.12393">
        <ele>865.79998779297</ele>
        <time>2019-02-16T11:53:00.000Z</time>
      </trkpt>
      <trkpt lat="43.98302" lon="7.12395">
        <ele>865.20001220703</ele>
        <time>2019-02-16T11:53:01.000Z</time>
      </trkpt>
      <trkpt lat="43.98301" lon="7.12396">
        <ele>864.59997558594</ele>
        <time>2019-02-16T11:53:02.000Z</time>
      </trkpt>
      <trkpt lat="43.98295" lon="7.12399">
        <ele>863.79998779297</ele>
        <time>2019-02-16T11:53:05.000Z</time>
      </trkpt>
      <trkpt lat="43.98292" lon="7.12402">
        <ele>863.20001220703</ele>
        <time>2019-02-16T11:53:06.000Z</time>
      </trkpt>
      <trkpt lat="43.98282" lon="7.12408">
        <ele>862.40002441406</ele>
        <time>2019-02-16T11:53:09.000Z</time>
      </trkpt>
      <trkpt lat="43.98281" lon="7.12408">
        <ele>862</ele>
        <time>2019-02-16T11:53:10.000Z</time>
      </trkpt>
      <trkpt lat="43.98281" lon="7.1241">
        <ele>861.59997558594</ele>
        <time>2019-02-16T11:53:11.000Z</time>
      </trkpt>
      <trkpt lat="43.98281" lon="7.1241">
        <ele>861.40002441406</ele>
        <time>2019-02-16T11:53:12.000Z</time>
      </trkpt>
      <trkpt lat="43.98282" lon="7.12411">
        <ele>860.79998779297</ele>
        <time>2019-02-16T11:53:13.000Z</time>
      </trkpt>
      <trkpt lat="43.98283" lon="7.12411">
        <ele>860.20001220703</ele>
        <time>2019-02-16T11:53:14.000Z</time>
      </trkpt>
      <trkpt lat="43.98286" lon="7.1241">
        <ele>859.40002441406</ele>
        <time>2019-02-16T11:53:17.000Z</time>
      </trkpt>
      <trkpt lat="43.98298" lon="7.12409">
        <ele>858</ele>
        <time>2019-02-16T11:53:21.000Z</time>
      </trkpt>
      <trkpt lat="43.98304" lon="7.12409">
        <ele>856</ele>
        <time>2019-02-16T11:53:23.000Z</time>
      </trkpt>
      <trkpt lat="43.98307" lon="7.12408">
        <ele>855</ele>
        <time>2019-02-16T11:53:24.000Z</time>
      </trkpt>
      <trkpt lat="43.98312" lon="7.12405">
        <ele>853</ele>
        <time>2019-02-16T11:53:26.000Z</time>
      </trkpt>
      <trkpt lat="43.98316" lon="7.124">
        <ele>851.79998779297</ele>
        <time>2019-02-16T11:53:28.000Z</time>
      </trkpt>
      <trkpt lat="43.98317" lon="7.12396">
        <ele>851.40002441406</ele>
        <time>2019-02-16T11:53:29.000Z</time>
      </trkpt>
      <trkpt lat="43.98319" lon="7.12393">
        <ele>851.40002441406</ele>
        <time>2019-02-16T11:53:30.000Z</time>
      </trkpt>
      <trkpt lat="43.98321" lon="7.12381">
        <ele>850.59997558594</ele>
        <time>2019-02-16T11:53:32.000Z</time>
      </trkpt>
      <trkpt lat="43.98323" lon="7.12373">
        <ele>849.40002441406</ele>
        <time>2019-02-16T11:53:34.000Z</time>
      </trkpt>
      <trkpt lat="43.98325" lon="7.12372">
        <ele>848.59997558594</ele>
        <time>2019-02-16T11:53:35.000Z</time>
      </trkpt>
      <trkpt lat="43.98328" lon="7.12373">
        <ele>848</ele>
        <time>2019-02-16T11:53:36.000Z</time>
      </trkpt>
      <trkpt lat="43.98331" lon="7.12376">
        <ele>847.79998779297</ele>
        <time>2019-02-16T11:53:37.000Z</time>
      </trkpt>
      <trkpt lat="43.98333" lon="7.12392">
        <ele>847</ele>
        <time>2019-02-16T11:53:40.000Z</time>
      </trkpt>
      <trkpt lat="43.98335" lon="7.12396">
        <ele>846.20001220703</ele>
        <time>2019-02-16T11:53:41.000Z</time>
      </trkpt>
      <trkpt lat="43.98339" lon="7.12399">
        <ele>845.79998779297</ele>
        <time>2019-02-16T11:53:42.000Z</time>
      </trkpt>
      <trkpt lat="43.98343" lon="7.12401">
        <ele>845.20001220703</ele>
        <time>2019-02-16T11:53:43.000Z</time>
      </trkpt>
      <trkpt lat="43.98351" lon="7.124">
        <ele>844.20001220703</ele>
        <time>2019-02-16T11:53:45.000Z</time>
      </trkpt>
      <trkpt lat="43.98355" lon="7.12398">
        <ele>844</ele>
        <time>2019-02-16T11:53:46.000Z</time>
      </trkpt>
      <trkpt lat="43.9836" lon="7.12397">
        <ele>843.59997558594</ele>
        <time>2019-02-16T11:53:47.000Z</time>
      </trkpt>
      <trkpt lat="43.98365" lon="7.12396">
        <ele>843.59997558594</ele>
        <time>2019-02-16T11:53:48.000Z</time>
      </trkpt>
      <trkpt lat="43.98373" lon="7.12393">
        <ele>843</ele>
        <time>2019-02-16T11:53:51.000Z</time>
      </trkpt>
      <trkpt lat="43.9838" lon="7.12395">
        <ele>842</ele>
        <time>2019-02-16T11:53:55.000Z</time>
      </trkpt>
      <trkpt lat="43.98382" lon="7.12396">
        <ele>841.79998779297</ele>
        <time>2019-02-16T11:53:56.000Z</time>
      </trkpt>
      <trkpt lat="43.98385" lon="7.12398">
        <ele>841</ele>
        <time>2019-02-16T11:53:59.000Z</time>
      </trkpt>
      <trkpt lat="43.98387" lon="7.124">
        <ele>840.59997558594</ele>
        <time>2019-02-16T11:54:00.000Z</time>
      </trkpt>
      <trkpt lat="43.98388" lon="7.124">
        <ele>839.79998779297</ele>
        <time>2019-02-16T11:54:03.000Z</time>
      </trkpt>
      <trkpt lat="43.9839" lon="7.12402">
        <ele>839.79998779297</ele>
        <time>2019-02-16T11:54:04.000Z</time>
      </trkpt>
      <trkpt lat="43.98391" lon="7.12402">
        <ele>839.79998779297</ele>
        <time>2019-02-16T11:54:07.000Z</time>
      </trkpt>
      <trkpt lat="43.984" lon="7.1241">
        <ele>839</ele>
        <time>2019-02-16T11:54:11.000Z</time>
      </trkpt>
      <trkpt lat="43.984" lon="7.12413">
        <ele>838.59997558594</ele>
        <time>2019-02-16T11:54:12.000Z</time>
      </trkpt>
      <trkpt lat="43.98395" lon="7.12413">
        <ele>838.40002441406</ele>
        <time>2019-02-16T11:54:14.000Z</time>
      </trkpt>
      <trkpt lat="43.98391" lon="7.12412">
        <ele>837.40002441406</ele>
        <time>2019-02-16T11:54:16.000Z</time>
      </trkpt>
      <trkpt lat="43.98385" lon="7.12411">
        <ele>836.40002441406</ele>
        <time>2019-02-16T11:54:20.000Z</time>
      </trkpt>
      <trkpt lat="43.98384" lon="7.1241">
        <ele>835.20001220703</ele>
        <time>2019-02-16T11:54:24.000Z</time>
      </trkpt>
      <trkpt lat="43.9838" lon="7.12408">
        <ele>834.79998779297</ele>
        <time>2019-02-16T11:54:29.000Z</time>
      </trkpt>
      <trkpt lat="43.98376" lon="7.12408">
        <ele>834.40002441406</ele>
        <time>2019-02-16T11:54:33.000Z</time>
      </trkpt>
      <trkpt lat="43.98373" lon="7.12408">
        <ele>834.40002441406</ele>
        <time>2019-02-16T11:54:35.000Z</time>
      </trkpt>
      <trkpt lat="43.98373" lon="7.12407">
        <ele>834.20001220703</ele>
        <time>2019-02-16T11:54:36.000Z</time>
      </trkpt>
      <trkpt lat="43.98368" lon="7.12407">
        <ele>834</ele>
        <time>2019-02-16T11:54:39.000Z</time>
      </trkpt>
      <trkpt lat="43.98366" lon="7.12408">
        <ele>834.20001220703</ele>
        <time>2019-02-16T11:54:41.000Z</time>
      </trkpt>
      <trkpt lat="43.98358" lon="7.12411">
        <ele>834.79998779297</ele>
        <time>2019-02-16T11:54:46.000Z</time>
      </trkpt>
      <trkpt lat="43.98356" lon="7.1241">
        <ele>835</ele>
        <time>2019-02-16T11:54:48.000Z</time>
      </trkpt>
      <trkpt lat="43.98355" lon="7.1241">
        <ele>835.20001220703</ele>
        <time>2019-02-16T11:54:49.000Z</time>
      </trkpt>
      <trkpt lat="43.98353" lon="7.1241">
        <ele>835.79998779297</ele>
        <time>2019-02-16T11:54:51.000Z</time>
      </trkpt>
      <trkpt lat="43.9835" lon="7.12412">
        <ele>836.20001220703</ele>
        <time>2019-02-16T11:54:54.000Z</time>
      </trkpt>
      <trkpt lat="43.98346" lon="7.12413">
        <ele>837</ele>
        <time>2019-02-16T11:54:58.000Z</time>
      </trkpt>
      <trkpt lat="43.98343" lon="7.12413">
        <ele>837.59997558594</ele>
        <time>2019-02-16T11:55:00.000Z</time>
      </trkpt>
      <trkpt lat="43.9834" lon="7.12416">
        <ele>838.40002441406</ele>
        <time>2019-02-16T11:55:04.000Z</time>
      </trkpt>
      <trkpt lat="43.9834" lon="7.12416">
        <ele>838.59997558594</ele>
        <time>2019-02-16T11:55:05.000Z</time>
      </trkpt>
      <trkpt lat="43.98338" lon="7.12417">
        <ele>839.20001220703</ele>
        <time>2019-02-16T11:55:07.000Z</time>
      </trkpt>
      <trkpt lat="43.98337" lon="7.12419">
        <ele>839.79998779297</ele>
        <time>2019-02-16T11:55:09.000Z</time>
      </trkpt>
      <trkpt lat="43.98337" lon="7.12421">
        <ele>840.40002441406</ele>
        <time>2019-02-16T11:55:11.000Z</time>
      </trkpt>
      <trkpt lat="43.98337" lon="7.12424">
        <ele>840.79998779297</ele>
        <time>2019-02-16T11:55:13.000Z</time>
      </trkpt>
      <trkpt lat="43.98338" lon="7.12431">
        <ele>841.79998779297</ele>
        <time>2019-02-16T11:55:18.000Z</time>
      </trkpt>
      <trkpt lat="43.98344" lon="7.12436">
        <ele>843</ele>
        <time>2019-02-16T11:55:23.000Z</time>
      </trkpt>
      <trkpt lat="43.98347" lon="7.12435">
        <ele>843.59997558594</ele>
        <time>2019-02-16T11:55:30.000Z</time>
      </trkpt>
      <trkpt lat="43.98348" lon="7.12435">
        <ele>843.59997558594</ele>
        <time>2019-02-16T11:55:31.000Z</time>
      </trkpt>
      <trkpt lat="43.98353" lon="7.12432">
        <ele>843.79998779297</ele>
        <time>2019-02-16T11:55:36.000Z</time>
      </trkpt>
      <trkpt lat="43.98354" lon="7.1243">
        <ele>844</ele>
        <time>2019-02-16T11:55:38.000Z</time>
      </trkpt>
      <trkpt lat="43.98354" lon="7.1243">
        <ele>844.40002441406</ele>
        <time>2019-02-16T11:55:40.000Z</time>
      </trkpt>
      <trkpt lat="43.98353" lon="7.12432">
        <ele>844.59997558594</ele>
        <time>2019-02-16T11:55:41.000Z</time>
      </trkpt>
      <trkpt lat="43.9835" lon="7.12438">
        <ele>845.20001220703</ele>
        <time>2019-02-16T11:55:45.000Z</time>
      </trkpt>
      <trkpt lat="43.98342" lon="7.12448">
        <ele>846</ele>
        <time>2019-02-16T11:55:51.000Z</time>
      </trkpt>
      <trkpt lat="43.98338" lon="7.12451">
        <ele>846.20001220703</ele>
        <time>2019-02-16T11:55:53.000Z</time>
      </trkpt>
      <trkpt lat="43.98328" lon="7.12462">
        <ele>847</ele>
        <time>2019-02-16T11:56:00.000Z</time>
      </trkpt>
      <trkpt lat="43.98325" lon="7.12466">
        <ele>847.20001220703</ele>
        <time>2019-02-16T11:56:02.000Z</time>
      </trkpt>
      <trkpt lat="43.98319" lon="7.12478">
        <ele>848.20001220703</ele>
        <time>2019-02-16T11:56:08.000Z</time>
      </trkpt>
      <trkpt lat="43.98318" lon="7.1248">
        <ele>848.40002441406</ele>
        <time>2019-02-16T11:56:09.000Z</time>
      </trkpt>
      <trkpt lat="43.98311" lon="7.12491">
        <ele>849.20001220703</ele>
        <time>2019-02-16T11:56:15.000Z</time>
      </trkpt>
      <trkpt lat="43.98309" lon="7.12495">
        <ele>849.40002441406</ele>
        <time>2019-02-16T11:56:17.000Z</time>
      </trkpt>
      <trkpt lat="43.98303" lon="7.12506">
        <ele>850.40002441406</ele>
        <time>2019-02-16T11:56:23.000Z</time>
      </trkpt>
      <trkpt lat="43.98302" lon="7.12509">
        <ele>850.59997558594</ele>
        <time>2019-02-16T11:56:24.000Z</time>
      </trkpt>
      <trkpt lat="43.98298" lon="7.12522">
        <ele>851.40002441406</ele>
        <time>2019-02-16T11:56:30.000Z</time>
      </trkpt>
      <trkpt lat="43.98298" lon="7.12524">
        <ele>851.59997558594</ele>
        <time>2019-02-16T11:56:31.000Z</time>
      </trkpt>
      <trkpt lat="43.98296" lon="7.12533">
        <ele>852.20001220703</ele>
        <time>2019-02-16T11:56:35.000Z</time>
      </trkpt>
      <trkpt lat="43.98295" lon="7.1254">
        <ele>852.59997558594</ele>
        <time>2019-02-16T11:56:38.000Z</time>
      </trkpt>
      <trkpt lat="43.98294" lon="7.12543">
        <ele>852.79998779297</ele>
        <time>2019-02-16T11:56:39.000Z</time>
      </trkpt>
      <trkpt lat="43.98292" lon="7.12555">
        <ele>853.59997558594</ele>
        <time>2019-02-16T11:56:44.000Z</time>
      </trkpt>
      <trkpt lat="43.98291" lon="7.1256">
        <ele>853.79998779297</ele>
        <time>2019-02-16T11:56:46.000Z</time>
      </trkpt>
      <trkpt lat="43.98288" lon="7.12578">
        <ele>854.59997558594</ele>
        <time>2019-02-16T11:56:53.000Z</time>
      </trkpt>
      <trkpt lat="43.98287" lon="7.1258">
        <ele>854.59997558594</ele>
        <time>2019-02-16T11:56:54.000Z</time>
      </trkpt>
      <trkpt lat="43.98285" lon="7.12591">
        <ele>855.59997558594</ele>
        <time>2019-02-16T11:56:59.000Z</time>
      </trkpt>
      <trkpt lat="43.98284" lon="7.12593">
        <ele>855.79998779297</ele>
        <time>2019-02-16T11:57:00.000Z</time>
      </trkpt>
      <trkpt lat="43.9828" lon="7.12612">
        <ele>856.79998779297</ele>
        <time>2019-02-16T11:57:07.000Z</time>
      </trkpt>
      <trkpt lat="43.98279" lon="7.12615">
        <ele>857</ele>
        <time>2019-02-16T11:57:08.000Z</time>
      </trkpt>
      <trkpt lat="43.98273" lon="7.12633">
        <ele>858</ele>
        <time>2019-02-16T11:57:15.000Z</time>
      </trkpt>
      <trkpt lat="43.98272" lon="7.12635">
        <ele>858</ele>
        <time>2019-02-16T11:57:16.000Z</time>
      </trkpt>
      <trkpt lat="43.98264" lon="7.12652">
        <ele>859.20001220703</ele>
        <time>2019-02-16T11:57:23.000Z</time>
      </trkpt>
      <trkpt lat="43.9826" lon="7.12665">
        <ele>859.79998779297</ele>
        <time>2019-02-16T11:57:28.000Z</time>
      </trkpt>
      <trkpt lat="43.98259" lon="7.12671">
        <ele>860.20001220703</ele>
        <time>2019-02-16T11:57:30.000Z</time>
      </trkpt>
      <trkpt lat="43.98254" lon="7.12683">
        <ele>861</ele>
        <time>2019-02-16T11:57:35.000Z</time>
      </trkpt>
      <trkpt lat="43.98253" lon="7.12685">
        <ele>861.20001220703</ele>
        <time>2019-02-16T11:57:36.000Z</time>
      </trkpt>
      <trkpt lat="43.98244" lon="7.127">
        <ele>862.40002441406</ele>
        <time>2019-02-16T11:57:43.000Z</time>
      </trkpt>
      <trkpt lat="43.98231" lon="7.1271">
        <ele>863.40002441406</ele>
        <time>2019-02-16T11:57:51.000Z</time>
      </trkpt>
      <trkpt lat="43.98221" lon="7.12717">
        <ele>864.20001220703</ele>
        <time>2019-02-16T11:57:57.000Z</time>
      </trkpt>
      <trkpt lat="43.98218" lon="7.12719">
        <ele>864.59997558594</ele>
        <time>2019-02-16T11:57:59.000Z</time>
      </trkpt>
      <trkpt lat="43.9821" lon="7.12724">
        <ele>865.40002441406</ele>
        <time>2019-02-16T11:58:04.000Z</time>
      </trkpt>
      <trkpt lat="43.98207" lon="7.12726">
        <ele>865.59997558594</ele>
        <time>2019-02-16T11:58:06.000Z</time>
      </trkpt>
      <trkpt lat="43.98198" lon="7.12733">
        <ele>866.40002441406</ele>
        <time>2019-02-16T11:58:11.000Z</time>
      </trkpt>
      <trkpt lat="43.98195" lon="7.12737">
        <ele>866.79998779297</ele>
        <time>2019-02-16T11:58:13.000Z</time>
      </trkpt>
      <trkpt lat="43.98192" lon="7.1274">
        <ele>867.20001220703</ele>
        <time>2019-02-16T11:58:15.000Z</time>
      </trkpt>
      <trkpt lat="43.98191" lon="7.12741">
        <ele>867.40002441406</ele>
        <time>2019-02-16T11:58:16.000Z</time>
      </trkpt>
      <trkpt lat="43.98187" lon="7.12743">
        <ele>867.79998779297</ele>
        <time>2019-02-16T11:58:18.000Z</time>
      </trkpt>
      <trkpt lat="43.98174" lon="7.12748">
        <ele>868.79998779297</ele>
        <time>2019-02-16T11:58:24.000Z</time>
      </trkpt>
      <trkpt lat="43.98171" lon="7.12749">
        <ele>869</ele>
        <time>2019-02-16T11:58:25.000Z</time>
      </trkpt>
      <trkpt lat="43.98164" lon="7.12748">
        <ele>869.59997558594</ele>
        <time>2019-02-16T11:58:29.000Z</time>
      </trkpt>
      <trkpt lat="43.9816" lon="7.12743">
        <ele>869.79998779297</ele>
        <time>2019-02-16T11:58:35.000Z</time>
      </trkpt>
      <trkpt lat="43.98157" lon="7.12743">
        <ele>869.79998779297</ele>
        <time>2019-02-16T11:58:41.000Z</time>
      </trkpt>
      <trkpt lat="43.98159" lon="7.12743">
        <ele>869.79998779297</ele>
        <time>2019-02-16T11:58:46.000Z</time>
      </trkpt>
      <trkpt lat="43.98161" lon="7.12743">
        <ele>869.59997558594</ele>
        <time>2019-02-16T11:58:51.000Z</time>
      </trkpt>
      <trkpt lat="43.98163" lon="7.12742">
        <ele>869.40002441406</ele>
        <time>2019-02-16T11:59:00.000Z</time>
      </trkpt>
      <trkpt lat="43.98162" lon="7.12743">
        <ele>869.59997558594</ele>
        <time>2019-02-16T11:59:04.000Z</time>
      </trkpt>
      <trkpt lat="43.98162" lon="7.12744">
        <ele>869.59997558594</ele>
        <time>2019-02-16T11:59:06.000Z</time>
      </trkpt>
      <trkpt lat="43.98162" lon="7.12745">
        <ele>869.79998779297</ele>
        <time>2019-02-16T11:59:12.000Z</time>
      </trkpt>
      <trkpt lat="43.98162" lon="7.12746">
        <ele>869.59997558594</ele>
        <time>2019-02-16T11:59:17.000Z</time>
      </trkpt>
      <trkpt lat="43.98162" lon="7.12747">
        <ele>869.79998779297</ele>
        <time>2019-02-16T11:59:23.000Z</time>
      </trkpt>
      <trkpt lat="43.98161" lon="7.12748">
        <ele>869.79998779297</ele>
        <time>2019-02-16T11:59:30.000Z</time>
      </trkpt>
      <trkpt lat="43.98161" lon="7.12749">
        <ele>870</ele>
        <time>2019-02-16T11:59:31.000Z</time>
      </trkpt>
      <trkpt lat="43.98159" lon="7.12748">
        <ele>869.59997558594</ele>
        <time>2019-02-16T11:59:36.000Z</time>
      </trkpt>
      <trkpt lat="43.98155" lon="7.12749">
        <ele>869.59997558594</ele>
        <time>2019-02-16T11:59:42.000Z</time>
      </trkpt>
      <trkpt lat="43.98154" lon="7.12748">
        <ele>869.59997558594</ele>
        <time>2019-02-16T11:59:43.000Z</time>
      </trkpt>
      <trkpt lat="43.98154" lon="7.12748">
        <ele>869.79998779297</ele>
        <time>2019-02-16T11:59:49.000Z</time>
      </trkpt>
      <trkpt lat="43.98157" lon="7.12748">
        <ele>869.59997558594</ele>
        <time>2019-02-16T11:59:55.000Z</time>
      </trkpt>
      <trkpt lat="43.98159" lon="7.12747">
        <ele>869.59997558594</ele>
        <time>2019-02-16T12:00:01.000Z</time>
      </trkpt>
      <trkpt lat="43.98159" lon="7.12749">
        <ele>869.40002441406</ele>
        <time>2019-02-16T12:00:07.000Z</time>
      </trkpt>
      <trkpt lat="43.98158" lon="7.12749">
        <ele>869.20001220703</ele>
        <time>2019-02-16T12:00:11.000Z</time>
      </trkpt>
      <trkpt lat="43.98158" lon="7.12749">
        <ele>869.20001220703</ele>
        <time>2019-02-16T12:00:17.000Z</time>
      </trkpt>
      <trkpt lat="43.98159" lon="7.12747">
        <ele>869.40002441406</ele>
        <time>2019-02-16T12:00:24.000Z</time>
      </trkpt>
      <trkpt lat="43.98158" lon="7.12747">
        <ele>869</ele>
        <time>2019-02-16T12:00:29.000Z</time>
      </trkpt>
      <trkpt lat="43.98158" lon="7.12748">
        <ele>869</ele>
        <time>2019-02-16T12:00:30.000Z</time>
      </trkpt>
      <trkpt lat="43.9816" lon="7.12746">
        <ele>869.20001220703</ele>
        <time>2019-02-16T12:00:36.000Z</time>
      </trkpt>
      <trkpt lat="43.9816" lon="7.12744">
        <ele>869</ele>
        <time>2019-02-16T12:00:41.000Z</time>
      </trkpt>
      <trkpt lat="43.98159" lon="7.12743">
        <ele>869</ele>
        <time>2019-02-16T12:00:42.000Z</time>
      </trkpt>
      <trkpt lat="43.98158" lon="7.12743">
        <ele>869.20001220703</ele>
        <time>2019-02-16T12:00:44.000Z</time>
      </trkpt>
      <trkpt lat="43.98156" lon="7.12743">
        <ele>869.40002441406</ele>
        <time>2019-02-16T12:00:46.000Z</time>
      </trkpt>
      <trkpt lat="43.98155" lon="7.12742">
        <ele>869.79998779297</ele>
        <time>2019-02-16T12:00:52.000Z</time>
      </trkpt>
      <trkpt lat="43.98154" lon="7.12742">
        <ele>869.20001220703</ele>
        <time>2019-02-16T12:00:58.000Z</time>
      </trkpt>
      <trkpt lat="43.98158" lon="7.12743">
        <ele>869.40002441406</ele>
        <time>2019-02-16T12:01:04.000Z</time>
      </trkpt>
      <trkpt lat="43.98161" lon="7.12743">
        <ele>869.40002441406</ele>
        <time>2019-02-16T12:01:10.000Z</time>
      </trkpt>
      <trkpt lat="43.98161" lon="7.12745">
        <ele>869.40002441406</ele>
        <time>2019-02-16T12:01:14.000Z</time>
      </trkpt>
      <trkpt lat="43.98161" lon="7.12744">
        <ele>869.40002441406</ele>
        <time>2019-02-16T12:01:15.000Z</time>
      </trkpt>
      <trkpt lat="43.9816" lon="7.12742">
        <ele>869.20001220703</ele>
        <time>2019-02-16T12:01:20.000Z</time>
      </trkpt>
      <trkpt lat="43.98161" lon="7.12741">
        <ele>869.20001220703</ele>
        <time>2019-02-16T12:01:21.000Z</time>
      </trkpt>
      <trkpt lat="43.98161" lon="7.1274">
        <ele>869.20001220703</ele>
        <time>2019-02-16T12:01:27.000Z</time>
      </trkpt>
      <trkpt lat="43.98163" lon="7.12744">
        <ele>868.59997558594</ele>
        <time>2019-02-16T12:01:33.000Z</time>
      </trkpt>
      <trkpt lat="43.98162" lon="7.12745">
        <ele>868.79998779297</ele>
        <time>2019-02-16T12:01:38.000Z</time>
      </trkpt>
      <trkpt lat="43.98161" lon="7.12748">
        <ele>868.79998779297</ele>
        <time>2019-02-16T12:01:43.000Z</time>
      </trkpt>
      <trkpt lat="43.98158" lon="7.12752">
        <ele>868.59997558594</ele>
        <time>2019-02-16T12:01:50.000Z</time>
      </trkpt>
      <trkpt lat="43.98156" lon="7.12755">
        <ele>868.79998779297</ele>
        <time>2019-02-16T12:01:57.000Z</time>
      </trkpt>
      <trkpt lat="43.98155" lon="7.12756">
        <ele>868.59997558594</ele>
        <time>2019-02-16T12:02:03.000Z</time>
      </trkpt>
      <trkpt lat="43.98157" lon="7.12752">
        <ele>868.59997558594</ele>
        <time>2019-02-16T12:02:08.000Z</time>
      </trkpt>
      <trkpt lat="43.98156" lon="7.12753">
        <ele>868.40002441406</ele>
        <time>2019-02-16T12:02:14.000Z</time>
      </trkpt>
      <trkpt lat="43.98157" lon="7.12754">
        <ele>868.40002441406</ele>
        <time>2019-02-16T12:02:20.000Z</time>
      </trkpt>
      <trkpt lat="43.98156" lon="7.12755">
        <ele>868.59997558594</ele>
        <time>2019-02-16T12:02:28.000Z</time>
      </trkpt>
      <trkpt lat="43.98157" lon="7.12754">
        <ele>868.59997558594</ele>
        <time>2019-02-16T12:02:36.000Z</time>
      </trkpt>
      <trkpt lat="43.98157" lon="7.12754">
        <ele>868.59997558594</ele>
        <time>2019-02-16T12:02:43.000Z</time>
      </trkpt>
      <trkpt lat="43.98158" lon="7.12752">
        <ele>868.59997558594</ele>
        <time>2019-02-16T12:02:51.000Z</time>
      </trkpt>
      <trkpt lat="43.98157" lon="7.12753">
        <ele>868.59997558594</ele>
        <time>2019-02-16T12:02:56.000Z</time>
      </trkpt>
      <trkpt lat="43.98158" lon="7.12751">
        <ele>868.40002441406</ele>
        <time>2019-02-16T12:03:03.000Z</time>
      </trkpt>
      <trkpt lat="43.98156" lon="7.12753">
        <ele>868.59997558594</ele>
        <time>2019-02-16T12:03:09.000Z</time>
      </trkpt>
      <trkpt lat="43.98157" lon="7.12752">
        <ele>868.40002441406</ele>
        <time>2019-02-16T12:03:16.000Z</time>
      </trkpt>
      <trkpt lat="43.98159" lon="7.12749">
        <ele>868.40002441406</ele>
        <time>2019-02-16T12:03:23.000Z</time>
      </trkpt>
      <trkpt lat="43.9816" lon="7.12748">
        <ele>868.40002441406</ele>
        <time>2019-02-16T12:03:33.000Z</time>
      </trkpt>
      <trkpt lat="43.98158" lon="7.12751">
        <ele>868.20001220703</ele>
        <time>2019-02-16T12:03:41.000Z</time>
      </trkpt>
      <trkpt lat="43.98158" lon="7.12752">
        <ele>868.20001220703</ele>
        <time>2019-02-16T12:03:49.000Z</time>
      </trkpt>
      <trkpt lat="43.98158" lon="7.12752">
        <ele>868.20001220703</ele>
        <time>2019-02-16T12:04:02.000Z</time>
      </trkpt>
      <trkpt lat="43.98158" lon="7.12752">
        <ele>868.20001220703</ele>
        <time>2019-02-16T12:04:09.000Z</time>
      </trkpt>
      <trkpt lat="43.98158" lon="7.12753">
        <ele>868.20001220703</ele>
        <time>2019-02-16T12:04:15.000Z</time>
      </trkpt>
      <trkpt lat="43.98157" lon="7.12753">
        <ele>868.20001220703</ele>
        <time>2019-02-16T12:04:23.000Z</time>
      </trkpt>
      <trkpt lat="43.98156" lon="7.12751">
        <ele>868</ele>
        <time>2019-02-16T12:04:33.000Z</time>
      </trkpt>
      <trkpt lat="43.98156" lon="7.12751">
        <ele>868</ele>
        <time>2019-02-16T12:04:42.000Z</time>
      </trkpt>
      <trkpt lat="43.98155" lon="7.12751">
        <ele>868</ele>
        <time>2019-02-16T12:04:51.000Z</time>
      </trkpt>
      <trkpt lat="43.98155" lon="7.12752">
        <ele>868</ele>
        <time>2019-02-16T12:04:57.000Z</time>
      </trkpt>
      <trkpt lat="43.98154" lon="7.12752">
        <ele>868</ele>
        <time>2019-02-16T12:05:02.000Z</time>
      </trkpt>
      <trkpt lat="43.98153" lon="7.12753">
        <ele>868</ele>
        <time>2019-02-16T12:05:12.000Z</time>
      </trkpt>
      <trkpt lat="43.98153" lon="7.12753">
        <ele>868</ele>
        <time>2019-02-16T12:05:20.000Z</time>
      </trkpt>
      <trkpt lat="43.98153" lon="7.12754">
        <ele>868.20001220703</ele>
        <time>2019-02-16T12:05:28.000Z</time>
      </trkpt>
      <trkpt lat="43.98153" lon="7.1275">
        <ele>868</ele>
        <time>2019-02-16T12:05:39.000Z</time>
      </trkpt>
      <trkpt lat="43.98154" lon="7.12748">
        <ele>868</ele>
        <time>2019-02-16T12:05:48.000Z</time>
      </trkpt>
      <trkpt lat="43.98153" lon="7.1275">
        <ele>868.20001220703</ele>
        <time>2019-02-16T12:05:56.000Z</time>
      </trkpt>
      <trkpt lat="43.98153" lon="7.12752">
        <ele>868.20001220703</ele>
        <time>2019-02-16T12:06:07.000Z</time>
      </trkpt>
      <trkpt lat="43.98153" lon="7.12753">
        <ele>868</ele>
        <time>2019-02-16T12:06:26.000Z</time>
      </trkpt>
      <trkpt lat="43.98153" lon="7.12754">
        <ele>868.20001220703</ele>
        <time>2019-02-16T12:06:40.000Z</time>
      </trkpt>
      <trkpt lat="43.98153" lon="7.12754">
        <ele>868.20001220703</ele>
        <time>2019-02-16T12:06:51.000Z</time>
      </trkpt>
      <trkpt lat="43.98153" lon="7.12756">
        <ele>868.20001220703</ele>
        <time>2019-02-16T12:06:59.000Z</time>
      </trkpt>
      <trkpt lat="43.98153" lon="7.12755">
        <ele>868.20001220703</ele>
        <time>2019-02-16T12:07:12.000Z</time>
      </trkpt>
      <trkpt lat="43.98154" lon="7.12756">
        <ele>868.40002441406</ele>
        <time>2019-02-16T12:07:26.000Z</time>
      </trkpt>
      <trkpt lat="43.98154" lon="7.12756">
        <ele>868.20001220703</ele>
        <time>2019-02-16T12:07:32.000Z</time>
      </trkpt>
      <trkpt lat="43.98154" lon="7.12756">
        <ele>868</ele>
        <time>2019-02-16T12:07:40.000Z</time>
      </trkpt>
      <trkpt lat="43.98153" lon="7.12758">
        <ele>868</ele>
        <time>2019-02-16T12:07:50.000Z</time>
      </trkpt>
      <trkpt lat="43.98153" lon="7.12758">
        <ele>868</ele>
        <time>2019-02-16T12:08:00.000Z</time>
      </trkpt>
      <trkpt lat="43.98154" lon="7.12756">
        <ele>867.79998779297</ele>
        <time>2019-02-16T12:08:05.000Z</time>
      </trkpt>
      <trkpt lat="43.98154" lon="7.12754">
        <ele>867.79998779297</ele>
        <time>2019-02-16T12:08:08.000Z</time>
      </trkpt>
      <trkpt lat="43.98154" lon="7.12754">
        <ele>868</ele>
        <time>2019-02-16T12:08:14.000Z</time>
      </trkpt>
      <trkpt lat="43.98153" lon="7.12756">
        <ele>868.20001220703</ele>
        <time>2019-02-16T12:08:21.000Z</time>
      </trkpt>
      <trkpt lat="43.98153" lon="7.12759">
        <ele>868</ele>
        <time>2019-02-16T12:08:28.000Z</time>
      </trkpt>
      <trkpt lat="43.98153" lon="7.1276">
        <ele>868</ele>
        <time>2019-02-16T12:08:34.000Z</time>
      </trkpt>
      <trkpt lat="43.98153" lon="7.1276">
        <ele>868</ele>
        <time>2019-02-16T12:08:41.000Z</time>
      </trkpt>
      <trkpt lat="43.98154" lon="7.12763">
        <ele>867.79998779297</ele>
        <time>2019-02-16T12:08:48.000Z</time>
      </trkpt>
      <trkpt lat="43.98154" lon="7.12762">
        <ele>867.59997558594</ele>
        <time>2019-02-16T12:08:58.000Z</time>
      </trkpt>
      <trkpt lat="43.98154" lon="7.12763">
        <ele>867.59997558594</ele>
        <time>2019-02-16T12:09:08.000Z</time>
      </trkpt>
      <trkpt lat="43.98153" lon="7.12762">
        <ele>867.59997558594</ele>
        <time>2019-02-16T12:09:25.000Z</time>
      </trkpt>
      <trkpt lat="43.98152" lon="7.12762">
        <ele>867.59997558594</ele>
        <time>2019-02-16T12:09:35.000Z</time>
      </trkpt>
      <trkpt lat="43.98153" lon="7.12759">
        <ele>867.79998779297</ele>
        <time>2019-02-16T12:09:42.000Z</time>
      </trkpt>
      <trkpt lat="43.98153" lon="7.12757">
        <ele>867.79998779297</ele>
        <time>2019-02-16T12:09:48.000Z</time>
      </trkpt>
      <trkpt lat="43.98153" lon="7.12758">
        <ele>868</ele>
        <time>2019-02-16T12:09:54.000Z</time>
      </trkpt>
      <trkpt lat="43.98151" lon="7.12759">
        <ele>867.79998779297</ele>
        <time>2019-02-16T12:10:02.000Z</time>
      </trkpt>
      <trkpt lat="43.98149" lon="7.1276">
        <ele>867.79998779297</ele>
        <time>2019-02-16T12:10:08.000Z</time>
      </trkpt>
      <trkpt lat="43.9815" lon="7.1276">
        <ele>867.79998779297</ele>
        <time>2019-02-16T12:10:16.000Z</time>
      </trkpt>
      <trkpt lat="43.98149" lon="7.12763">
        <ele>867.79998779297</ele>
        <time>2019-02-16T12:10:21.000Z</time>
      </trkpt>
      <trkpt lat="43.98148" lon="7.12765">
        <ele>867.79998779297</ele>
        <time>2019-02-16T12:10:22.000Z</time>
      </trkpt>
      <trkpt lat="43.9815" lon="7.1276">
        <ele>867.79998779297</ele>
        <time>2019-02-16T12:10:25.000Z</time>
      </trkpt>
      <trkpt lat="43.98154" lon="7.1275">
        <ele>867.79998779297</ele>
        <time>2019-02-16T12:10:30.000Z</time>
      </trkpt>
      <trkpt lat="43.98154" lon="7.12747">
        <ele>868.40002441406</ele>
        <time>2019-02-16T12:10:36.000Z</time>
      </trkpt>
      <trkpt lat="43.98155" lon="7.12745">
        <ele>868</ele>
        <time>2019-02-16T12:10:43.000Z</time>
      </trkpt>
      <trkpt lat="43.98155" lon="7.12746">
        <ele>868</ele>
        <time>2019-02-16T12:10:50.000Z</time>
      </trkpt>
      <trkpt lat="43.98154" lon="7.12748">
        <ele>867.79998779297</ele>
        <time>2019-02-16T12:10:57.000Z</time>
      </trkpt>
      <trkpt lat="43.98154" lon="7.12747">
        <ele>867.79998779297</ele>
        <time>2019-02-16T12:11:03.000Z</time>
      </trkpt>
      <trkpt lat="43.98155" lon="7.12749">
        <ele>868.40002441406</ele>
        <time>2019-02-16T12:11:13.000Z</time>
      </trkpt>
      <trkpt lat="43.98154" lon="7.12751">
        <ele>868</ele>
        <time>2019-02-16T12:11:24.000Z</time>
      </trkpt>
      <trkpt lat="43.98154" lon="7.12749">
        <ele>868</ele>
        <time>2019-02-16T12:11:34.000Z</time>
      </trkpt>
      <trkpt lat="43.98154" lon="7.12751">
        <ele>868</ele>
        <time>2019-02-16T12:11:42.000Z</time>
      </trkpt>
      <trkpt lat="43.98154" lon="7.12752">
        <ele>868</ele>
        <time>2019-02-16T12:11:46.000Z</time>
      </trkpt>
      <trkpt lat="43.98154" lon="7.1275">
        <ele>868</ele>
        <time>2019-02-16T12:11:52.000Z</time>
      </trkpt>
      <trkpt lat="43.98155" lon="7.12752">
        <ele>868</ele>
        <time>2019-02-16T12:11:58.000Z</time>
      </trkpt>
      <trkpt lat="43.98153" lon="7.12754">
        <ele>868</ele>
        <time>2019-02-16T12:12:05.000Z</time>
      </trkpt>
      <trkpt lat="43.98154" lon="7.12752">
        <ele>868</ele>
        <time>2019-02-16T12:12:14.000Z</time>
      </trkpt>
      <trkpt lat="43.98153" lon="7.12752">
        <ele>867.79998779297</ele>
        <time>2019-02-16T12:12:25.000Z</time>
      </trkpt>
      <trkpt lat="43.98152" lon="7.12751">
        <ele>868</ele>
        <time>2019-02-16T12:12:32.000Z</time>
      </trkpt>
      <trkpt lat="43.98152" lon="7.12748">
        <ele>867.79998779297</ele>
        <time>2019-02-16T12:12:38.000Z</time>
      </trkpt>
      <trkpt lat="43.98152" lon="7.12747">
        <ele>867.79998779297</ele>
        <time>2019-02-16T12:12:42.000Z</time>
      </trkpt>
      <trkpt lat="43.98152" lon="7.12747">
        <ele>867.79998779297</ele>
        <time>2019-02-16T12:12:49.000Z</time>
      </trkpt>
      <trkpt lat="43.98151" lon="7.12747">
        <ele>867.79998779297</ele>
        <time>2019-02-16T12:12:55.000Z</time>
      </trkpt>
      <trkpt lat="43.98151" lon="7.12752">
        <ele>867.79998779297</ele>
        <time>2019-02-16T12:13:01.000Z</time>
      </trkpt>
      <trkpt lat="43.9815" lon="7.12756">
        <ele>867.59997558594</ele>
        <time>2019-02-16T12:13:06.000Z</time>
      </trkpt>
      <trkpt lat="43.9815" lon="7.12755">
        <ele>867.59997558594</ele>
        <time>2019-02-16T12:13:12.000Z</time>
      </trkpt>
      <trkpt lat="43.9815" lon="7.12757">
        <ele>867.59997558594</ele>
        <time>2019-02-16T12:13:18.000Z</time>
      </trkpt>
      <trkpt lat="43.98153" lon="7.12749">
        <ele>867.40002441406</ele>
        <time>2019-02-16T12:13:27.000Z</time>
      </trkpt>
      <trkpt lat="43.98152" lon="7.1275">
        <ele>867.59997558594</ele>
        <time>2019-02-16T12:13:34.000Z</time>
      </trkpt>
      <trkpt lat="43.98152" lon="7.12749">
        <ele>867.59997558594</ele>
        <time>2019-02-16T12:13:41.000Z</time>
      </trkpt>
      <trkpt lat="43.98152" lon="7.12753">
        <ele>867.40002441406</ele>
        <time>2019-02-16T12:13:51.000Z</time>
      </trkpt>
      <trkpt lat="43.98152" lon="7.12752">
        <ele>867.40002441406</ele>
        <time>2019-02-16T12:13:57.000Z</time>
      </trkpt>
      <trkpt lat="43.98154" lon="7.12751">
        <ele>867.40002441406</ele>
        <time>2019-02-16T12:14:09.000Z</time>
      </trkpt>
      <trkpt lat="43.98154" lon="7.12751">
        <ele>867.20001220703</ele>
        <time>2019-02-16T12:14:18.000Z</time>
      </trkpt>
      <trkpt lat="43.98154" lon="7.12752">
        <ele>867</ele>
        <time>2019-02-16T12:14:23.000Z</time>
      </trkpt>
      <trkpt lat="43.98153" lon="7.12757">
        <ele>867</ele>
        <time>2019-02-16T12:14:30.000Z</time>
      </trkpt>
      <trkpt lat="43.98154" lon="7.12757">
        <ele>867.20001220703</ele>
        <time>2019-02-16T12:14:40.000Z</time>
      </trkpt>
      <trkpt lat="43.98154" lon="7.12755">
        <ele>867.20001220703</ele>
        <time>2019-02-16T12:14:51.000Z</time>
      </trkpt>
      <trkpt lat="43.98154" lon="7.12755">
        <ele>867.20001220703</ele>
        <time>2019-02-16T12:15:02.000Z</time>
      </trkpt>
      <trkpt lat="43.98155" lon="7.12754">
        <ele>867.40002441406</ele>
        <time>2019-02-16T12:15:12.000Z</time>
      </trkpt>
      <trkpt lat="43.98155" lon="7.12752">
        <ele>867.40002441406</ele>
        <time>2019-02-16T12:15:13.000Z</time>
      </trkpt>
      <trkpt lat="43.98155" lon="7.1275">
        <ele>867.59997558594</ele>
        <time>2019-02-16T12:15:19.000Z</time>
      </trkpt>
      <trkpt lat="43.98156" lon="7.12749">
        <ele>868</ele>
        <time>2019-02-16T12:15:27.000Z</time>
      </trkpt>
      <trkpt lat="43.98156" lon="7.1275">
        <ele>868</ele>
        <time>2019-02-16T12:15:35.000Z</time>
      </trkpt>
      <trkpt lat="43.98156" lon="7.12752">
        <ele>868.20001220703</ele>
        <time>2019-02-16T12:15:41.000Z</time>
      </trkpt>
      <trkpt lat="43.98155" lon="7.12748">
        <ele>867.79998779297</ele>
        <time>2019-02-16T12:15:51.000Z</time>
      </trkpt>
      <trkpt lat="43.98156" lon="7.12747">
        <ele>867.79998779297</ele>
        <time>2019-02-16T12:16:00.000Z</time>
      </trkpt>
      <trkpt lat="43.98155" lon="7.12746">
        <ele>868</ele>
        <time>2019-02-16T12:16:06.000Z</time>
      </trkpt>
      <trkpt lat="43.98154" lon="7.12746">
        <ele>867.59997558594</ele>
        <time>2019-02-16T12:16:12.000Z</time>
      </trkpt>
      <trkpt lat="43.98155" lon="7.12748">
        <ele>867.59997558594</ele>
        <time>2019-02-16T12:16:21.000Z</time>
      </trkpt>
      <trkpt lat="43.98155" lon="7.1275">
        <ele>867.59997558594</ele>
        <time>2019-02-16T12:16:29.000Z</time>
      </trkpt>
      <trkpt lat="43.98156" lon="7.12748">
        <ele>867.59997558594</ele>
        <time>2019-02-16T12:16:35.000Z</time>
      </trkpt>
      <trkpt lat="43.98156" lon="7.12745">
        <ele>867.59997558594</ele>
        <time>2019-02-16T12:16:37.000Z</time>
      </trkpt>
      <trkpt lat="43.98155" lon="7.12748">
        <ele>867.59997558594</ele>
        <time>2019-02-16T12:16:40.000Z</time>
      </trkpt>
      <trkpt lat="43.98153" lon="7.12753">
        <ele>867.40002441406</ele>
        <time>2019-02-16T12:16:45.000Z</time>
      </trkpt>
      <trkpt lat="43.98152" lon="7.12757">
        <ele>867.59997558594</ele>
        <time>2019-02-16T12:16:52.000Z</time>
      </trkpt>
      <trkpt lat="43.98152" lon="7.12758">
        <ele>867.59997558594</ele>
        <time>2019-02-16T12:16:59.000Z</time>
      </trkpt>
      <trkpt lat="43.98153" lon="7.12755">
        <ele>867.59997558594</ele>
        <time>2019-02-16T12:17:07.000Z</time>
      </trkpt>
      <trkpt lat="43.98152" lon="7.12755">
        <ele>867.79998779297</ele>
        <time>2019-02-16T12:17:13.000Z</time>
      </trkpt>
      <trkpt lat="43.98151" lon="7.12754">
        <ele>867.79998779297</ele>
        <time>2019-02-16T12:17:20.000Z</time>
      </trkpt>
      <trkpt lat="43.9815" lon="7.12755">
        <ele>867.40002441406</ele>
        <time>2019-02-16T12:17:25.000Z</time>
      </trkpt>
      <trkpt lat="43.9815" lon="7.12756">
        <ele>867.79998779297</ele>
        <time>2019-02-16T12:17:32.000Z</time>
      </trkpt>
      <trkpt lat="43.98151" lon="7.12756">
        <ele>868</ele>
        <time>2019-02-16T12:17:41.000Z</time>
      </trkpt>
      <trkpt lat="43.98151" lon="7.12754">
        <ele>868.20001220703</ele>
        <time>2019-02-16T12:17:48.000Z</time>
      </trkpt>
      <trkpt lat="43.9815" lon="7.12753">
        <ele>868.20001220703</ele>
        <time>2019-02-16T12:17:55.000Z</time>
      </trkpt>
      <trkpt lat="43.98149" lon="7.12755">
        <ele>868</ele>
        <time>2019-02-16T12:18:03.000Z</time>
      </trkpt>
      <trkpt lat="43.98151" lon="7.12752">
        <ele>868.20001220703</ele>
        <time>2019-02-16T12:18:14.000Z</time>
      </trkpt>
      <trkpt lat="43.98151" lon="7.1275">
        <ele>868.20001220703</ele>
        <time>2019-02-16T12:18:23.000Z</time>
      </trkpt>
      <trkpt lat="43.98152" lon="7.1275">
        <ele>867.79998779297</ele>
        <time>2019-02-16T12:18:31.000Z</time>
      </trkpt>
      <trkpt lat="43.9815" lon="7.12749">
        <ele>868</ele>
        <time>2019-02-16T12:18:38.000Z</time>
      </trkpt>
      <trkpt lat="43.9815" lon="7.12747">
        <ele>868</ele>
        <time>2019-02-16T12:18:39.000Z</time>
      </trkpt>
      <trkpt lat="43.98151" lon="7.12744">
        <ele>868.40002441406</ele>
        <time>2019-02-16T12:18:43.000Z</time>
      </trkpt>
      <trkpt lat="43.98154" lon="7.12742">
        <ele>869</ele>
        <time>2019-02-16T12:18:51.000Z</time>
      </trkpt>
      <trkpt lat="43.98154" lon="7.12742">
        <ele>869</ele>
        <time>2019-02-16T12:18:53.000Z</time>
      </trkpt>
      <trkpt lat="43.98155" lon="7.12743">
        <ele>869</ele>
        <time>2019-02-16T12:18:59.000Z</time>
      </trkpt>
      <trkpt lat="43.98155" lon="7.12744">
        <ele>868.59997558594</ele>
        <time>2019-02-16T12:19:04.000Z</time>
      </trkpt>
      <trkpt lat="43.98151" lon="7.12744">
        <ele>868.59997558594</ele>
        <time>2019-02-16T12:19:11.000Z</time>
      </trkpt>
      <trkpt lat="43.9815" lon="7.12746">
        <ele>868.79998779297</ele>
        <time>2019-02-16T12:19:17.000Z</time>
      </trkpt>
      <trkpt lat="43.98148" lon="7.12745">
        <ele>868.59997558594</ele>
        <time>2019-02-16T12:19:21.000Z</time>
      </trkpt>
      <trkpt lat="43.98147" lon="7.12745">
        <ele>868.59997558594</ele>
        <time>2019-02-16T12:19:23.000Z</time>
      </trkpt>
      <trkpt lat="43.98149" lon="7.12745">
        <ele>868.79998779297</ele>
        <time>2019-02-16T12:19:25.000Z</time>
      </trkpt>
      <trkpt lat="43.9815" lon="7.12747">
        <ele>868.59997558594</ele>
        <time>2019-02-16T12:19:27.000Z</time>
      </trkpt>
      <trkpt lat="43.98156" lon="7.12752">
        <ele>868.79998779297</ele>
        <time>2019-02-16T12:19:33.000Z</time>
      </trkpt>
      <trkpt lat="43.9816" lon="7.12756">
        <ele>868.59997558594</ele>
        <time>2019-02-16T12:19:37.000Z</time>
      </trkpt>
      <trkpt lat="43.98161" lon="7.12755">
        <ele>869.20001220703</ele>
        <time>2019-02-16T12:19:42.000Z</time>
      </trkpt>
      <trkpt lat="43.98161" lon="7.12751">
        <ele>868.79998779297</ele>
        <time>2019-02-16T12:19:45.000Z</time>
      </trkpt>
      <trkpt lat="43.98161" lon="7.1275">
        <ele>868.79998779297</ele>
        <time>2019-02-16T12:19:46.000Z</time>
      </trkpt>
      <trkpt lat="43.98162" lon="7.12745">
        <ele>868.79998779297</ele>
        <time>2019-02-16T12:19:52.000Z</time>
      </trkpt>
      <trkpt lat="43.98162" lon="7.12745">
        <ele>868.59997558594</ele>
        <time>2019-02-16T12:19:59.000Z</time>
      </trkpt>
      <trkpt lat="43.98162" lon="7.12745">
        <ele>868.79998779297</ele>
        <time>2019-02-16T12:20:05.000Z</time>
      </trkpt>
      <trkpt lat="43.98162" lon="7.12746">
        <ele>868.79998779297</ele>
        <time>2019-02-16T12:20:07.000Z</time>
      </trkpt>
      <trkpt lat="43.98162" lon="7.12746">
        <ele>869</ele>
        <time>2019-02-16T12:20:10.000Z</time>
      </trkpt>
      <trkpt lat="43.98162" lon="7.12746">
        <ele>868.79998779297</ele>
        <time>2019-02-16T12:20:15.000Z</time>
      </trkpt>
      <trkpt lat="43.98161" lon="7.12747">
        <ele>868.59997558594</ele>
        <time>2019-02-16T12:20:23.000Z</time>
      </trkpt>
      <trkpt lat="43.98159" lon="7.12749">
        <ele>868.59997558594</ele>
        <time>2019-02-16T12:20:29.000Z</time>
      </trkpt>
      <trkpt lat="43.98158" lon="7.12751">
        <ele>868.59997558594</ele>
        <time>2019-02-16T12:20:35.000Z</time>
      </trkpt>
      <trkpt lat="43.98159" lon="7.12752">
        <ele>868.79998779297</ele>
        <time>2019-02-16T12:20:42.000Z</time>
      </trkpt>
      <trkpt lat="43.98159" lon="7.12751">
        <ele>868.79998779297</ele>
        <time>2019-02-16T12:20:51.000Z</time>
      </trkpt>
      <trkpt lat="43.98158" lon="7.12749">
        <ele>869</ele>
        <time>2019-02-16T12:20:55.000Z</time>
      </trkpt>
      <trkpt lat="43.98157" lon="7.12751">
        <ele>869.20001220703</ele>
        <time>2019-02-16T12:21:01.000Z</time>
      </trkpt>
      <trkpt lat="43.98159" lon="7.12749">
        <ele>869</ele>
        <time>2019-02-16T12:21:08.000Z</time>
      </trkpt>
      <trkpt lat="43.98159" lon="7.12751">
        <ele>868.79998779297</ele>
        <time>2019-02-16T12:21:13.000Z</time>
      </trkpt>
      <trkpt lat="43.98156" lon="7.12752">
        <ele>868.79998779297</ele>
        <time>2019-02-16T12:21:20.000Z</time>
      </trkpt>
      <trkpt lat="43.98156" lon="7.1275">
        <ele>869</ele>
        <time>2019-02-16T12:21:28.000Z</time>
      </trkpt>
      <trkpt lat="43.98156" lon="7.12748">
        <ele>869</ele>
        <time>2019-02-16T12:21:33.000Z</time>
      </trkpt>
      <trkpt lat="43.98157" lon="7.12744">
        <ele>869.20001220703</ele>
        <time>2019-02-16T12:21:41.000Z</time>
      </trkpt>
      <trkpt lat="43.98157" lon="7.12743">
        <ele>869.20001220703</ele>
        <time>2019-02-16T12:21:48.000Z</time>
      </trkpt>
      <trkpt lat="43.98158" lon="7.12741">
        <ele>869.20001220703</ele>
        <time>2019-02-16T12:21:49.000Z</time>
      </trkpt>
      <trkpt lat="43.98158" lon="7.12738">
        <ele>869</ele>
        <time>2019-02-16T12:21:54.000Z</time>
      </trkpt>
      <trkpt lat="43.98157" lon="7.12737">
        <ele>869.20001220703</ele>
        <time>2019-02-16T12:22:01.000Z</time>
      </trkpt>
      <trkpt lat="43.98158" lon="7.12736">
        <ele>869</ele>
        <time>2019-02-16T12:22:06.000Z</time>
      </trkpt>
      <trkpt lat="43.98156" lon="7.12741">
        <ele>869.20001220703</ele>
        <time>2019-02-16T12:22:12.000Z</time>
      </trkpt>
      <trkpt lat="43.98155" lon="7.12745">
        <ele>869</ele>
        <time>2019-02-16T12:22:21.000Z</time>
      </trkpt>
      <trkpt lat="43.98154" lon="7.12747">
        <ele>869</ele>
        <time>2019-02-16T12:22:28.000Z</time>
      </trkpt>
      <trkpt lat="43.98152" lon="7.1275">
        <ele>869.40002441406</ele>
        <time>2019-02-16T12:22:37.000Z</time>
      </trkpt>
      <trkpt lat="43.98152" lon="7.12747">
        <ele>869.20001220703</ele>
        <time>2019-02-16T12:22:45.000Z</time>
      </trkpt>
      <trkpt lat="43.98152" lon="7.12746">
        <ele>869.20001220703</ele>
        <time>2019-02-16T12:22:54.000Z</time>
      </trkpt>
      <trkpt lat="43.98153" lon="7.12746">
        <ele>869.20001220703</ele>
        <time>2019-02-16T12:23:05.000Z</time>
      </trkpt>
      <trkpt lat="43.98153" lon="7.12748">
        <ele>869.20001220703</ele>
        <time>2019-02-16T12:23:13.000Z</time>
      </trkpt>
      <trkpt lat="43.98152" lon="7.12748">
        <ele>869</ele>
        <time>2019-02-16T12:23:25.000Z</time>
      </trkpt>
      <trkpt lat="43.9815" lon="7.12749">
        <ele>869</ele>
        <time>2019-02-16T12:23:38.000Z</time>
      </trkpt>
      <trkpt lat="43.9815" lon="7.12751">
        <ele>869.20001220703</ele>
        <time>2019-02-16T12:23:49.000Z</time>
      </trkpt>
      <trkpt lat="43.98151" lon="7.12748">
        <ele>869.20001220703</ele>
        <time>2019-02-16T12:24:00.000Z</time>
      </trkpt>
      <trkpt lat="43.98151" lon="7.12747">
        <ele>869.40002441406</ele>
        <time>2019-02-16T12:24:06.000Z</time>
      </trkpt>
      <trkpt lat="43.9815" lon="7.12747">
        <ele>869.40002441406</ele>
        <time>2019-02-16T12:24:13.000Z</time>
      </trkpt>
      <trkpt lat="43.98149" lon="7.12747">
        <ele>869.40002441406</ele>
        <time>2019-02-16T12:24:19.000Z</time>
      </trkpt>
      <trkpt lat="43.9815" lon="7.12748">
        <ele>869.40002441406</ele>
        <time>2019-02-16T12:24:25.000Z</time>
      </trkpt>
      <trkpt lat="43.98151" lon="7.12749">
        <ele>869.40002441406</ele>
        <time>2019-02-16T12:24:31.000Z</time>
      </trkpt>
      <trkpt lat="43.9815" lon="7.12748">
        <ele>869.40002441406</ele>
        <time>2019-02-16T12:24:39.000Z</time>
      </trkpt>
      <trkpt lat="43.98148" lon="7.1275">
        <ele>869.40002441406</ele>
        <time>2019-02-16T12:24:53.000Z</time>
      </trkpt>
      <trkpt lat="43.98147" lon="7.12751">
        <ele>869.40002441406</ele>
        <time>2019-02-16T12:25:03.000Z</time>
      </trkpt>
      <trkpt lat="43.98147" lon="7.12751">
        <ele>869.40002441406</ele>
        <time>2019-02-16T12:25:10.000Z</time>
      </trkpt>
      <trkpt lat="43.98149" lon="7.1275">
        <ele>869.40002441406</ele>
        <time>2019-02-16T12:25:21.000Z</time>
      </trkpt>
      <trkpt lat="43.98149" lon="7.12749">
        <ele>869.40002441406</ele>
        <time>2019-02-16T12:25:28.000Z</time>
      </trkpt>
      <trkpt lat="43.98151" lon="7.12748">
        <ele>869.40002441406</ele>
        <time>2019-02-16T12:25:37.000Z</time>
      </trkpt>
      <trkpt lat="43.98151" lon="7.12749">
        <ele>869.79998779297</ele>
        <time>2019-02-16T12:25:50.000Z</time>
      </trkpt>
      <trkpt lat="43.98151" lon="7.1275">
        <ele>869.59997558594</ele>
        <time>2019-02-16T12:26:02.000Z</time>
      </trkpt>
      <trkpt lat="43.98152" lon="7.12753">
        <ele>869.79998779297</ele>
        <time>2019-02-16T12:26:13.000Z</time>
      </trkpt>
      <trkpt lat="43.98151" lon="7.12753">
        <ele>869.79998779297</ele>
        <time>2019-02-16T12:26:27.000Z</time>
      </trkpt>
      <trkpt lat="43.9815" lon="7.12755">
        <ele>869.79998779297</ele>
        <time>2019-02-16T12:26:38.000Z</time>
      </trkpt>
      <trkpt lat="43.98152" lon="7.12756">
        <ele>869.79998779297</ele>
        <time>2019-02-16T12:26:50.000Z</time>
      </trkpt>
      <trkpt lat="43.98152" lon="7.12757">
        <ele>869.79998779297</ele>
        <time>2019-02-16T12:26:59.000Z</time>
      </trkpt>
      <trkpt lat="43.98152" lon="7.12757">
        <ele>869.79998779297</ele>
        <time>2019-02-16T12:27:05.000Z</time>
      </trkpt>
      <trkpt lat="43.98152" lon="7.12756">
        <ele>870</ele>
        <time>2019-02-16T12:27:09.000Z</time>
      </trkpt>
      <trkpt lat="43.98152" lon="7.12757">
        <ele>870</ele>
        <time>2019-02-16T12:27:12.000Z</time>
      </trkpt>
      <trkpt lat="43.98151" lon="7.12757">
        <ele>869.79998779297</ele>
        <time>2019-02-16T12:27:16.000Z</time>
      </trkpt>
      <trkpt lat="43.98151" lon="7.12757">
        <ele>869.79998779297</ele>
        <time>2019-02-16T12:27:18.000Z</time>
      </trkpt>
      <trkpt lat="43.98152" lon="7.12752">
        <ele>869.79998779297</ele>
        <time>2019-02-16T12:27:27.000Z</time>
      </trkpt>
      <trkpt lat="43.98151" lon="7.12747">
        <ele>870.40002441406</ele>
        <time>2019-02-16T12:27:36.000Z</time>
      </trkpt>
      <trkpt lat="43.98152" lon="7.12746">
        <ele>870</ele>
        <time>2019-02-16T12:27:42.000Z</time>
      </trkpt>
      <trkpt lat="43.98152" lon="7.12748">
        <ele>870.20001220703</ele>
        <time>2019-02-16T12:27:49.000Z</time>
      </trkpt>
      <trkpt lat="43.98153" lon="7.12746">
        <ele>870.59997558594</ele>
        <time>2019-02-16T12:27:55.000Z</time>
      </trkpt>
      <trkpt lat="43.98153" lon="7.12745">
        <ele>870.40002441406</ele>
        <time>2019-02-16T12:28:04.000Z</time>
      </trkpt>
      <trkpt lat="43.98154" lon="7.12746">
        <ele>870.59997558594</ele>
        <time>2019-02-16T12:28:15.000Z</time>
      </trkpt>
      <trkpt lat="43.98154" lon="7.12746">
        <ele>870.59997558594</ele>
        <time>2019-02-16T12:28:21.000Z</time>
      </trkpt>
      <trkpt lat="43.98155" lon="7.12746">
        <ele>870.79998779297</ele>
        <time>2019-02-16T12:28:27.000Z</time>
      </trkpt>
      <trkpt lat="43.98155" lon="7.12747">
        <ele>870.59997558594</ele>
        <time>2019-02-16T12:28:33.000Z</time>
      </trkpt>
      <trkpt lat="43.98157" lon="7.12748">
        <ele>870.79998779297</ele>
        <time>2019-02-16T12:28:38.000Z</time>
      </trkpt>
      <trkpt lat="43.98158" lon="7.12751">
        <ele>871</ele>
        <time>2019-02-16T12:28:44.000Z</time>
      </trkpt>
      <trkpt lat="43.98159" lon="7.12752">
        <ele>871.20001220703</ele>
        <time>2019-02-16T12:28:45.000Z</time>
      </trkpt>
      <trkpt lat="43.98163" lon="7.12755">
        <ele>871.40002441406</ele>
        <time>2019-02-16T12:28:49.000Z</time>
      </trkpt>
      <trkpt lat="43.98159" lon="7.12753">
        <ele>871</ele>
        <time>2019-02-16T12:28:54.000Z</time>
      </trkpt>
      <trkpt lat="43.98159" lon="7.1275">
        <ele>871</ele>
        <time>2019-02-16T12:28:59.000Z</time>
      </trkpt>
      <trkpt lat="43.98164" lon="7.12752">
        <ele>870.79998779297</ele>
        <time>2019-02-16T12:29:04.000Z</time>
      </trkpt>
      <trkpt lat="43.98165" lon="7.12753">
        <ele>870.79998779297</ele>
        <time>2019-02-16T12:29:05.000Z</time>
      </trkpt>
      <trkpt lat="43.98169" lon="7.12754">
        <ele>870.79998779297</ele>
        <time>2019-02-16T12:29:09.000Z</time>
      </trkpt>
      <trkpt lat="43.98176" lon="7.12758">
        <ele>870.59997558594</ele>
        <time>2019-02-16T12:29:16.000Z</time>
      </trkpt>
      <trkpt lat="43.98173" lon="7.12754">
        <ele>870.59997558594</ele>
        <time>2019-02-16T12:29:22.000Z</time>
      </trkpt>
      <trkpt lat="43.98173" lon="7.12756">
        <ele>870.59997558594</ele>
        <time>2019-02-16T12:29:25.000Z</time>
      </trkpt>
      <trkpt lat="43.98173" lon="7.12755">
        <ele>870.59997558594</ele>
        <time>2019-02-16T12:29:27.000Z</time>
      </trkpt>
      <trkpt lat="43.98169" lon="7.12751">
        <ele>870.59997558594</ele>
        <time>2019-02-16T12:29:34.000Z</time>
      </trkpt>
      <trkpt lat="43.98163" lon="7.12748">
        <ele>870.40002441406</ele>
        <time>2019-02-16T12:29:42.000Z</time>
      </trkpt>
      <trkpt lat="43.98162" lon="7.12747">
        <ele>870.40002441406</ele>
        <time>2019-02-16T12:29:48.000Z</time>
      </trkpt>
      <trkpt lat="43.98162" lon="7.12747">
        <ele>870.40002441406</ele>
        <time>2019-02-16T12:29:52.000Z</time>
      </trkpt>
      <trkpt lat="43.98161" lon="7.12747">
        <ele>870.40002441406</ele>
        <time>2019-02-16T12:29:53.000Z</time>
      </trkpt>
      <trkpt lat="43.98159" lon="7.12746">
        <ele>870.40002441406</ele>
        <time>2019-02-16T12:29:56.000Z</time>
      </trkpt>
      <trkpt lat="43.98159" lon="7.12746">
        <ele>870.40002441406</ele>
        <time>2019-02-16T12:29:59.000Z</time>
      </trkpt>
      <trkpt lat="43.98162" lon="7.12747">
        <ele>870.40002441406</ele>
        <time>2019-02-16T12:30:01.000Z</time>
      </trkpt>
      <trkpt lat="43.98166" lon="7.12751">
        <ele>870.40002441406</ele>
        <time>2019-02-16T12:30:04.000Z</time>
      </trkpt>
      <trkpt lat="43.98167" lon="7.1275">
        <ele>870.59997558594</ele>
        <time>2019-02-16T12:30:09.000Z</time>
      </trkpt>
      <trkpt lat="43.98165" lon="7.12749">
        <ele>870.59997558594</ele>
        <time>2019-02-16T12:30:10.000Z</time>
      </trkpt>
      <trkpt lat="43.9816" lon="7.12745">
        <ele>870.59997558594</ele>
        <time>2019-02-16T12:30:14.000Z</time>
      </trkpt>
      <trkpt lat="43.98156" lon="7.12739">
        <ele>870.40002441406</ele>
        <time>2019-02-16T12:30:18.000Z</time>
      </trkpt>
      <trkpt lat="43.98153" lon="7.12739">
        <ele>870.59997558594</ele>
        <time>2019-02-16T12:30:24.000Z</time>
      </trkpt>
      <trkpt lat="43.98157" lon="7.12741">
        <ele>870.40002441406</ele>
        <time>2019-02-16T12:30:29.000Z</time>
      </trkpt>
      <trkpt lat="43.98155" lon="7.12741">
        <ele>870.40002441406</ele>
        <time>2019-02-16T12:30:32.000Z</time>
      </trkpt>
      <trkpt lat="43.98154" lon="7.1274">
        <ele>870.40002441406</ele>
        <time>2019-02-16T12:30:34.000Z</time>
      </trkpt>
      <trkpt lat="43.98144" lon="7.12733">
        <ele>870.40002441406</ele>
        <time>2019-02-16T12:30:42.000Z</time>
      </trkpt>
      <trkpt lat="43.98142" lon="7.12733">
        <ele>870.40002441406</ele>
        <time>2019-02-16T12:30:49.000Z</time>
      </trkpt>
      <trkpt lat="43.98146" lon="7.12736">
        <ele>870.40002441406</ele>
        <time>2019-02-16T12:30:58.000Z</time>
      </trkpt>
      <trkpt lat="43.98147" lon="7.12736">
        <ele>870.20001220703</ele>
        <time>2019-02-16T12:31:05.000Z</time>
      </trkpt>
      <trkpt lat="43.98155" lon="7.12743">
        <ele>870.40002441406</ele>
        <time>2019-02-16T12:31:11.000Z</time>
      </trkpt>
      <trkpt lat="43.98155" lon="7.12742">
        <ele>870.40002441406</ele>
        <time>2019-02-16T12:31:17.000Z</time>
      </trkpt>
      <trkpt lat="43.98154" lon="7.1274">
        <ele>870.20001220703</ele>
        <time>2019-02-16T12:31:25.000Z</time>
      </trkpt>
      <trkpt lat="43.98154" lon="7.1274">
        <ele>870.20001220703</ele>
        <time>2019-02-16T12:31:30.000Z</time>
      </trkpt>
      <trkpt lat="43.98155" lon="7.12741">
        <ele>870.40002441406</ele>
        <time>2019-02-16T12:31:40.000Z</time>
      </trkpt>
      <trkpt lat="43.98158" lon="7.12744">
        <ele>870.59997558594</ele>
        <time>2019-02-16T12:31:47.000Z</time>
      </trkpt>
      <trkpt lat="43.98156" lon="7.12743">
        <ele>870.59997558594</ele>
        <time>2019-02-16T12:31:50.000Z</time>
      </trkpt>
      <trkpt lat="43.98152" lon="7.1274">
        <ele>870.40002441406</ele>
        <time>2019-02-16T12:31:52.000Z</time>
      </trkpt>
      <trkpt lat="43.98146" lon="7.12737">
        <ele>870.59997558594</ele>
        <time>2019-02-16T12:31:58.000Z</time>
      </trkpt>
      <trkpt lat="43.9815" lon="7.1274">
        <ele>870.59997558594</ele>
        <time>2019-02-16T12:32:00.000Z</time>
      </trkpt>
      <trkpt lat="43.98153" lon="7.12742">
        <ele>870.79998779297</ele>
        <time>2019-02-16T12:32:02.000Z</time>
      </trkpt>
      <trkpt lat="43.98152" lon="7.12741">
        <ele>870.59997558594</ele>
        <time>2019-02-16T12:32:07.000Z</time>
      </trkpt>
      <trkpt lat="43.98162" lon="7.12748">
        <ele>870.59997558594</ele>
        <time>2019-02-16T12:32:11.000Z</time>
      </trkpt>
      <trkpt lat="43.98161" lon="7.12747">
        <ele>870.59997558594</ele>
        <time>2019-02-16T12:32:19.000Z</time>
      </trkpt>
      <trkpt lat="43.98158" lon="7.12746">
        <ele>870.79998779297</ele>
        <time>2019-02-16T12:32:20.000Z</time>
      </trkpt>
      <trkpt lat="43.98147" lon="7.12743">
        <ele>870.79998779297</ele>
        <time>2019-02-16T12:32:23.000Z</time>
      </trkpt>
      <trkpt lat="43.9814" lon="7.12738">
        <ele>870.79998779297</ele>
        <time>2019-02-16T12:32:27.000Z</time>
      </trkpt>
      <trkpt lat="43.98137" lon="7.12738">
        <ele>870.79998779297</ele>
        <time>2019-02-16T12:32:35.000Z</time>
      </trkpt>
      <trkpt lat="43.98142" lon="7.12741">
        <ele>870.79998779297</ele>
        <time>2019-02-16T12:32:41.000Z</time>
      </trkpt>
      <trkpt lat="43.98146" lon="7.12745">
        <ele>870.79998779297</ele>
        <time>2019-02-16T12:32:46.000Z</time>
      </trkpt>
      <trkpt lat="43.9815" lon="7.12746">
        <ele>870.79998779297</ele>
        <time>2019-02-16T12:32:48.000Z</time>
      </trkpt>
      <trkpt lat="43.98157" lon="7.12751">
        <ele>871</ele>
        <time>2019-02-16T12:32:55.000Z</time>
      </trkpt>
      <trkpt lat="43.98161" lon="7.12753">
        <ele>871</ele>
        <time>2019-02-16T12:33:00.000Z</time>
      </trkpt>
      <trkpt lat="43.9816" lon="7.12752">
        <ele>870.79998779297</ele>
        <time>2019-02-16T12:33:05.000Z</time>
      </trkpt>
      <trkpt lat="43.98162" lon="7.12752">
        <ele>870.79998779297</ele>
        <time>2019-02-16T12:33:12.000Z</time>
      </trkpt>
      <trkpt lat="43.9816" lon="7.12749">
        <ele>870.79998779297</ele>
        <time>2019-02-16T12:33:17.000Z</time>
      </trkpt>
      <trkpt lat="43.98159" lon="7.12751">
        <ele>870.79998779297</ele>
        <time>2019-02-16T12:33:19.000Z</time>
      </trkpt>
      <trkpt lat="43.98157" lon="7.12751">
        <ele>870.79998779297</ele>
        <time>2019-02-16T12:33:21.000Z</time>
      </trkpt>
      <trkpt lat="43.98158" lon="7.12754">
        <ele>871.20001220703</ele>
        <time>2019-02-16T12:33:25.000Z</time>
      </trkpt>
      <trkpt lat="43.98158" lon="7.12754">
        <ele>871.20001220703</ele>
        <time>2019-02-16T12:33:26.000Z</time>
      </trkpt>
      <trkpt lat="43.98157" lon="7.12755">
        <ele>871.20001220703</ele>
        <time>2019-02-16T12:33:28.000Z</time>
      </trkpt>
      <trkpt lat="43.98155" lon="7.12756">
        <ele>871.40002441406</ele>
        <time>2019-02-16T12:33:31.000Z</time>
      </trkpt>
      <trkpt lat="43.98153" lon="7.12755">
        <ele>871.40002441406</ele>
        <time>2019-02-16T12:33:34.000Z</time>
      </trkpt>
      <trkpt lat="43.98152" lon="7.12754">
        <ele>871.59997558594</ele>
        <time>2019-02-16T12:33:36.000Z</time>
      </trkpt>
      <trkpt lat="43.98153" lon="7.12753">
        <ele>871.59997558594</ele>
        <time>2019-02-16T12:33:37.000Z</time>
      </trkpt>
      <trkpt lat="43.98153" lon="7.12752">
        <ele>871.79998779297</ele>
        <time>2019-02-16T12:33:39.000Z</time>
      </trkpt>
      <trkpt lat="43.98152" lon="7.12751">
        <ele>872.20001220703</ele>
        <time>2019-02-16T12:33:41.000Z</time>
      </trkpt>
      <trkpt lat="43.98151" lon="7.1275">
        <ele>872.40002441406</ele>
        <time>2019-02-16T12:33:44.000Z</time>
      </trkpt>
      <trkpt lat="43.98151" lon="7.12751">
        <ele>871.79998779297</ele>
        <time>2019-02-16T12:33:48.000Z</time>
      </trkpt>
      <trkpt lat="43.98153" lon="7.12753">
        <ele>871.20001220703</ele>
        <time>2019-02-16T12:33:54.000Z</time>
      </trkpt>
      <trkpt lat="43.98155" lon="7.12749">
        <ele>872</ele>
        <time>2019-02-16T12:33:58.000Z</time>
      </trkpt>
      <trkpt lat="43.9816" lon="7.12745">
        <ele>871.79998779297</ele>
        <time>2019-02-16T12:34:04.000Z</time>
      </trkpt>
      <trkpt lat="43.98163" lon="7.12745">
        <ele>871.59997558594</ele>
        <time>2019-02-16T12:34:06.000Z</time>
      </trkpt>
      <trkpt lat="43.98165" lon="7.12742">
        <ele>871.59997558594</ele>
        <time>2019-02-16T12:34:09.000Z</time>
      </trkpt>
      <trkpt lat="43.98166" lon="7.12737">
        <ele>871.40002441406</ele>
        <time>2019-02-16T12:34:16.000Z</time>
      </trkpt>
      <trkpt lat="43.98165" lon="7.12738">
        <ele>871.40002441406</ele>
        <time>2019-02-16T12:34:22.000Z</time>
      </trkpt>
      <trkpt lat="43.98164" lon="7.12742">
        <ele>871.20001220703</ele>
        <time>2019-02-16T12:34:27.000Z</time>
      </trkpt>
      <trkpt lat="43.98164" lon="7.12743">
        <ele>871</ele>
        <time>2019-02-16T12:34:28.000Z</time>
      </trkpt>
      <trkpt lat="43.98164" lon="7.12747">
        <ele>871</ele>
        <time>2019-02-16T12:34:34.000Z</time>
      </trkpt>
      <trkpt lat="43.98163" lon="7.12751">
        <ele>871</ele>
        <time>2019-02-16T12:34:41.000Z</time>
      </trkpt>
      <trkpt lat="43.98161" lon="7.12753">
        <ele>871</ele>
        <time>2019-02-16T12:34:48.000Z</time>
      </trkpt>
      <trkpt lat="43.98161" lon="7.12752">
        <ele>871.79998779297</ele>
        <time>2019-02-16T12:34:54.000Z</time>
      </trkpt>
      <trkpt lat="43.9816" lon="7.12751">
        <ele>871.40002441406</ele>
        <time>2019-02-16T12:35:00.000Z</time>
      </trkpt>
      <trkpt lat="43.98159" lon="7.12752">
        <ele>871.40002441406</ele>
        <time>2019-02-16T12:35:01.000Z</time>
      </trkpt>
      <trkpt lat="43.98161" lon="7.12752">
        <ele>871.20001220703</ele>
        <time>2019-02-16T12:35:05.000Z</time>
      </trkpt>
      <trkpt lat="43.98158" lon="7.12752">
        <ele>871.40002441406</ele>
        <time>2019-02-16T12:35:11.000Z</time>
      </trkpt>
      <trkpt lat="43.9816" lon="7.12751">
        <ele>871.59997558594</ele>
        <time>2019-02-16T12:35:15.000Z</time>
      </trkpt>
      <trkpt lat="43.9816" lon="7.1275">
        <ele>871.59997558594</ele>
        <time>2019-02-16T12:35:16.000Z</time>
      </trkpt>
      <trkpt lat="43.98159" lon="7.12749">
        <ele>871.40002441406</ele>
        <time>2019-02-16T12:35:21.000Z</time>
      </trkpt>
      <trkpt lat="43.9816" lon="7.12748">
        <ele>871.20001220703</ele>
        <time>2019-02-16T12:35:27.000Z</time>
      </trkpt>
      <trkpt lat="43.98163" lon="7.12749">
        <ele>871.20001220703</ele>
        <time>2019-02-16T12:35:33.000Z</time>
      </trkpt>
      <trkpt lat="43.98163" lon="7.12749">
        <ele>871.20001220703</ele>
        <time>2019-02-16T12:35:41.000Z</time>
      </trkpt>
      <trkpt lat="43.98163" lon="7.1275">
        <ele>871</ele>
        <time>2019-02-16T12:35:48.000Z</time>
      </trkpt>
      <trkpt lat="43.98165" lon="7.1275">
        <ele>871</ele>
        <time>2019-02-16T12:35:53.000Z</time>
      </trkpt>
      <trkpt lat="43.98167" lon="7.12751">
        <ele>871.20001220703</ele>
        <time>2019-02-16T12:36:01.000Z</time>
      </trkpt>
      <trkpt lat="43.98167" lon="7.12752">
        <ele>871.20001220703</ele>
        <time>2019-02-16T12:36:06.000Z</time>
      </trkpt>
      <trkpt lat="43.98168" lon="7.12753">
        <ele>871.20001220703</ele>
        <time>2019-02-16T12:36:11.000Z</time>
      </trkpt>
      <trkpt lat="43.98168" lon="7.12754">
        <ele>871.20001220703</ele>
        <time>2019-02-16T12:36:20.000Z</time>
      </trkpt>
      <trkpt lat="43.98167" lon="7.12754">
        <ele>871</ele>
        <time>2019-02-16T12:36:27.000Z</time>
      </trkpt>
      <trkpt lat="43.98168" lon="7.12754">
        <ele>871</ele>
        <time>2019-02-16T12:36:28.000Z</time>
      </trkpt>
      <trkpt lat="43.9817" lon="7.12753">
        <ele>871</ele>
        <time>2019-02-16T12:36:32.000Z</time>
      </trkpt>
      <trkpt lat="43.98168" lon="7.12754">
        <ele>871</ele>
        <time>2019-02-16T12:36:39.000Z</time>
      </trkpt>
      <trkpt lat="43.98167" lon="7.12754">
        <ele>871.20001220703</ele>
        <time>2019-02-16T12:36:46.000Z</time>
      </trkpt>
      <trkpt lat="43.98165" lon="7.12754">
        <ele>871.20001220703</ele>
        <time>2019-02-16T12:36:55.000Z</time>
      </trkpt>
      <trkpt lat="43.98165" lon="7.12754">
        <ele>871.79998779297</ele>
        <time>2019-02-16T12:37:03.000Z</time>
      </trkpt>
      <trkpt lat="43.98165" lon="7.12753">
        <ele>871.59997558594</ele>
        <time>2019-02-16T12:37:12.000Z</time>
      </trkpt>
      <trkpt lat="43.98163" lon="7.12753">
        <ele>871.20001220703</ele>
        <time>2019-02-16T12:37:18.000Z</time>
      </trkpt>
      <trkpt lat="43.9816" lon="7.12749">
        <ele>871.59997558594</ele>
        <time>2019-02-16T12:37:23.000Z</time>
      </trkpt>
      <trkpt lat="43.9816" lon="7.12746">
        <ele>871.79998779297</ele>
        <time>2019-02-16T12:37:29.000Z</time>
      </trkpt>
      <trkpt lat="43.98159" lon="7.12746">
        <ele>872.20001220703</ele>
        <time>2019-02-16T12:37:34.000Z</time>
      </trkpt>
      <trkpt lat="43.98159" lon="7.12745">
        <ele>872.20001220703</ele>
        <time>2019-02-16T12:37:37.000Z</time>
      </trkpt>
      <trkpt lat="43.98158" lon="7.12747">
        <ele>872.20001220703</ele>
        <time>2019-02-16T12:37:44.000Z</time>
      </trkpt>
      <trkpt lat="43.98159" lon="7.12746">
        <ele>872.20001220703</ele>
        <time>2019-02-16T12:37:56.000Z</time>
      </trkpt>
      <trkpt lat="43.9816" lon="7.12748">
        <ele>872.20001220703</ele>
        <time>2019-02-16T12:38:01.000Z</time>
      </trkpt>
      <trkpt lat="43.9816" lon="7.1275">
        <ele>872.59997558594</ele>
        <time>2019-02-16T12:38:06.000Z</time>
      </trkpt>
      <trkpt lat="43.98159" lon="7.12748">
        <ele>872.59997558594</ele>
        <time>2019-02-16T12:38:12.000Z</time>
      </trkpt>
      <trkpt lat="43.98159" lon="7.1275">
        <ele>872.79998779297</ele>
        <time>2019-02-16T12:38:18.000Z</time>
      </trkpt>
      <trkpt lat="43.98159" lon="7.1275">
        <ele>872.79998779297</ele>
        <time>2019-02-16T12:38:19.000Z</time>
      </trkpt>
      <trkpt lat="43.98159" lon="7.12751">
        <ele>873</ele>
        <time>2019-02-16T12:38:26.000Z</time>
      </trkpt>
      <trkpt lat="43.9816" lon="7.1275">
        <ele>873.20001220703</ele>
        <time>2019-02-16T12:38:31.000Z</time>
      </trkpt>
      <trkpt lat="43.98159" lon="7.12749">
        <ele>872.79998779297</ele>
        <time>2019-02-16T12:38:36.000Z</time>
      </trkpt>
      <trkpt lat="43.98159" lon="7.12744">
        <ele>872.59997558594</ele>
        <time>2019-02-16T12:38:43.000Z</time>
      </trkpt>
      <trkpt lat="43.98159" lon="7.12743">
        <ele>872.40002441406</ele>
        <time>2019-02-16T12:38:51.000Z</time>
      </trkpt>
      <trkpt lat="43.9816" lon="7.12743">
        <ele>872.59997558594</ele>
        <time>2019-02-16T12:38:58.000Z</time>
      </trkpt>
      <trkpt lat="43.9816" lon="7.12743">
        <ele>872.40002441406</ele>
        <time>2019-02-16T12:39:09.000Z</time>
      </trkpt>
      <trkpt lat="43.9816" lon="7.12744">
        <ele>872.40002441406</ele>
        <time>2019-02-16T12:39:18.000Z</time>
      </trkpt>
      <trkpt lat="43.9816" lon="7.12743">
        <ele>872.40002441406</ele>
        <time>2019-02-16T12:39:19.000Z</time>
      </trkpt>
      <trkpt lat="43.98161" lon="7.12744">
        <ele>872.59997558594</ele>
        <time>2019-02-16T12:39:28.000Z</time>
      </trkpt>
      <trkpt lat="43.98161" lon="7.12745">
        <ele>872</ele>
        <time>2019-02-16T12:39:31.000Z</time>
      </trkpt>
      <trkpt lat="43.98161" lon="7.12746">
        <ele>871.79998779297</ele>
        <time>2019-02-16T12:39:37.000Z</time>
      </trkpt>
      <trkpt lat="43.98161" lon="7.12746">
        <ele>872</ele>
        <time>2019-02-16T12:39:43.000Z</time>
      </trkpt>
      <trkpt lat="43.98157" lon="7.12746">
        <ele>872</ele>
        <time>2019-02-16T12:39:47.000Z</time>
      </trkpt>
      <trkpt lat="43.98156" lon="7.12745">
        <ele>872.59997558594</ele>
        <time>2019-02-16T12:39:54.000Z</time>
      </trkpt>
      <trkpt lat="43.98159" lon="7.12744">
        <ele>872.59997558594</ele>
        <time>2019-02-16T12:39:59.000Z</time>
      </trkpt>
      <trkpt lat="43.9816" lon="7.12744">
        <ele>872.59997558594</ele>
        <time>2019-02-16T12:40:00.000Z</time>
      </trkpt>
      <trkpt lat="43.98161" lon="7.12744">
        <ele>873</ele>
        <time>2019-02-16T12:40:06.000Z</time>
      </trkpt>
      <trkpt lat="43.9816" lon="7.12745">
        <ele>872.79998779297</ele>
        <time>2019-02-16T12:40:14.000Z</time>
      </trkpt>
      <trkpt lat="43.9816" lon="7.12745">
        <ele>872.79998779297</ele>
        <time>2019-02-16T12:40:20.000Z</time>
      </trkpt>
      <trkpt lat="43.98161" lon="7.12745">
        <ele>872.59997558594</ele>
        <time>2019-02-16T12:40:30.000Z</time>
      </trkpt>
      <trkpt lat="43.98161" lon="7.12744">
        <ele>872.40002441406</ele>
        <time>2019-02-16T12:40:41.000Z</time>
      </trkpt>
      <trkpt lat="43.9816" lon="7.12744">
        <ele>872.59997558594</ele>
        <time>2019-02-16T12:40:51.000Z</time>
      </trkpt>
      <trkpt lat="43.9816" lon="7.12746">
        <ele>872.59997558594</ele>
        <time>2019-02-16T12:40:53.000Z</time>
      </trkpt>
      <trkpt lat="43.9816" lon="7.12745">
        <ele>872.20001220703</ele>
        <time>2019-02-16T12:40:55.000Z</time>
      </trkpt>
      <trkpt lat="43.9816" lon="7.12744">
        <ele>872.59997558594</ele>
        <time>2019-02-16T12:41:00.000Z</time>
      </trkpt>
      <trkpt lat="43.9816" lon="7.12744">
        <ele>872.79998779297</ele>
        <time>2019-02-16T12:41:07.000Z</time>
      </trkpt>
      <trkpt lat="43.9816" lon="7.12744">
        <ele>872.59997558594</ele>
        <time>2019-02-16T12:41:15.000Z</time>
      </trkpt>
      <trkpt lat="43.9816" lon="7.12744">
        <ele>872.40002441406</ele>
        <time>2019-02-16T12:41:23.000Z</time>
      </trkpt>
      <trkpt lat="43.98159" lon="7.12743">
        <ele>871.79998779297</ele>
        <time>2019-02-16T12:41:29.000Z</time>
      </trkpt>
      <trkpt lat="43.98158" lon="7.12742">
        <ele>872.20001220703</ele>
        <time>2019-02-16T12:41:38.000Z</time>
      </trkpt>
      <trkpt lat="43.98158" lon="7.12743">
        <ele>872</ele>
        <time>2019-02-16T12:41:48.000Z</time>
      </trkpt>
      <trkpt lat="43.98158" lon="7.12742">
        <ele>871.59997558594</ele>
        <time>2019-02-16T12:41:54.000Z</time>
      </trkpt>
      <trkpt lat="43.98159" lon="7.12742">
        <ele>871.40002441406</ele>
        <time>2019-02-16T12:42:01.000Z</time>
      </trkpt>
      <trkpt lat="43.98159" lon="7.12742">
        <ele>871.79998779297</ele>
        <time>2019-02-16T12:42:11.000Z</time>
      </trkpt>
      <trkpt lat="43.98157" lon="7.12743">
        <ele>871.79998779297</ele>
        <time>2019-02-16T12:42:24.000Z</time>
      </trkpt>
      <trkpt lat="43.98154" lon="7.12742">
        <ele>871.79998779297</ele>
        <time>2019-02-16T12:42:33.000Z</time>
      </trkpt>
      <trkpt lat="43.98154" lon="7.12743">
        <ele>871.79998779297</ele>
        <time>2019-02-16T12:42:42.000Z</time>
      </trkpt>
      <trkpt lat="43.98153" lon="7.12743">
        <ele>871.79998779297</ele>
        <time>2019-02-16T12:42:50.000Z</time>
      </trkpt>
      <trkpt lat="43.98152" lon="7.12744">
        <ele>871.59997558594</ele>
        <time>2019-02-16T12:42:57.000Z</time>
      </trkpt>
      <trkpt lat="43.98157" lon="7.12745">
        <ele>871.79998779297</ele>
        <time>2019-02-16T12:43:06.000Z</time>
      </trkpt>
      <trkpt lat="43.98159" lon="7.12745">
        <ele>871.59997558594</ele>
        <time>2019-02-16T12:43:14.000Z</time>
      </trkpt>
      <trkpt lat="43.98159" lon="7.12745">
        <ele>871.40002441406</ele>
        <time>2019-02-16T12:43:19.000Z</time>
      </trkpt>
      <trkpt lat="43.98158" lon="7.12746">
        <ele>871</ele>
        <time>2019-02-16T12:43:25.000Z</time>
      </trkpt>
      <trkpt lat="43.98158" lon="7.12746">
        <ele>871.20001220703</ele>
        <time>2019-02-16T12:43:32.000Z</time>
      </trkpt>
      <trkpt lat="43.98157" lon="7.12746">
        <ele>871.20001220703</ele>
        <time>2019-02-16T12:43:41.000Z</time>
      </trkpt>
      <trkpt lat="43.98156" lon="7.12745">
        <ele>871</ele>
        <time>2019-02-16T12:43:48.000Z</time>
      </trkpt>
      <trkpt lat="43.98155" lon="7.12746">
        <ele>871.20001220703</ele>
        <time>2019-02-16T12:43:57.000Z</time>
      </trkpt>
      <trkpt lat="43.98155" lon="7.12746">
        <ele>871.40002441406</ele>
        <time>2019-02-16T12:44:06.000Z</time>
      </trkpt>
      <trkpt lat="43.98156" lon="7.12746">
        <ele>871</ele>
        <time>2019-02-16T12:44:13.000Z</time>
      </trkpt>
      <trkpt lat="43.98155" lon="7.12746">
        <ele>871</ele>
        <time>2019-02-16T12:44:22.000Z</time>
      </trkpt>
      <trkpt lat="43.98155" lon="7.12745">
        <ele>870.59997558594</ele>
        <time>2019-02-16T12:44:29.000Z</time>
      </trkpt>
      <trkpt lat="43.98154" lon="7.12745">
        <ele>871</ele>
        <time>2019-02-16T12:44:34.000Z</time>
      </trkpt>
      <trkpt lat="43.98151" lon="7.12745">
        <ele>871.40002441406</ele>
        <time>2019-02-16T12:44:46.000Z</time>
      </trkpt>
      <trkpt lat="43.9815" lon="7.12745">
        <ele>871.79998779297</ele>
        <time>2019-02-16T12:44:54.000Z</time>
      </trkpt>
      <trkpt lat="43.9815" lon="7.12746">
        <ele>872</ele>
        <time>2019-02-16T12:45:00.000Z</time>
      </trkpt>
      <trkpt lat="43.9815" lon="7.12745">
        <ele>872</ele>
        <time>2019-02-16T12:45:01.000Z</time>
      </trkpt>
      <trkpt lat="43.98149" lon="7.12746">
        <ele>871.40002441406</ele>
        <time>2019-02-16T12:45:07.000Z</time>
      </trkpt>
      <trkpt lat="43.98146" lon="7.12747">
        <ele>871.79998779297</ele>
        <time>2019-02-16T12:45:12.000Z</time>
      </trkpt>
      <trkpt lat="43.98146" lon="7.12746">
        <ele>872.59997558594</ele>
        <time>2019-02-16T12:45:17.000Z</time>
      </trkpt>
      <trkpt lat="43.9815" lon="7.12747">
        <ele>872.20001220703</ele>
        <time>2019-02-16T12:45:23.000Z</time>
      </trkpt>
      <trkpt lat="43.98151" lon="7.12747">
        <ele>872.40002441406</ele>
        <time>2019-02-16T12:45:28.000Z</time>
      </trkpt>
      <trkpt lat="43.9815" lon="7.12745">
        <ele>872.40002441406</ele>
        <time>2019-02-16T12:45:37.000Z</time>
      </trkpt>
      <trkpt lat="43.98148" lon="7.12744">
        <ele>872</ele>
        <time>2019-02-16T12:45:48.000Z</time>
      </trkpt>
      <trkpt lat="43.98149" lon="7.12743">
        <ele>871.79998779297</ele>
        <time>2019-02-16T12:45:55.000Z</time>
      </trkpt>
      <trkpt lat="43.98151" lon="7.12741">
        <ele>871.40002441406</ele>
        <time>2019-02-16T12:46:03.000Z</time>
      </trkpt>
      <trkpt lat="43.98153" lon="7.1274">
        <ele>871.59997558594</ele>
        <time>2019-02-16T12:46:08.000Z</time>
      </trkpt>
      <trkpt lat="43.98154" lon="7.12742">
        <ele>871.59997558594</ele>
        <time>2019-02-16T12:46:15.000Z</time>
      </trkpt>
      <trkpt lat="43.98152" lon="7.12743">
        <ele>871.40002441406</ele>
        <time>2019-02-16T12:46:21.000Z</time>
      </trkpt>
      <trkpt lat="43.9815" lon="7.12743">
        <ele>871.59997558594</ele>
        <time>2019-02-16T12:46:28.000Z</time>
      </trkpt>
      <trkpt lat="43.98153" lon="7.12744">
        <ele>872</ele>
        <time>2019-02-16T12:46:34.000Z</time>
      </trkpt>
      <trkpt lat="43.98154" lon="7.12741">
        <ele>872.20001220703</ele>
        <time>2019-02-16T12:46:39.000Z</time>
      </trkpt>
      <trkpt lat="43.98155" lon="7.12742">
        <ele>872.59997558594</ele>
        <time>2019-02-16T12:46:47.000Z</time>
      </trkpt>
      <trkpt lat="43.98155" lon="7.12741">
        <ele>872.59997558594</ele>
        <time>2019-02-16T12:46:53.000Z</time>
      </trkpt>
      <trkpt lat="43.98156" lon="7.12741">
        <ele>873</ele>
        <time>2019-02-16T12:46:59.000Z</time>
      </trkpt>
      <trkpt lat="43.98156" lon="7.1274">
        <ele>873</ele>
        <time>2019-02-16T12:47:02.000Z</time>
      </trkpt>
      <trkpt lat="43.98155" lon="7.12739">
        <ele>872.79998779297</ele>
        <time>2019-02-16T12:47:11.000Z</time>
      </trkpt>
      <trkpt lat="43.98158" lon="7.12739">
        <ele>872.79998779297</ele>
        <time>2019-02-16T12:47:22.000Z</time>
      </trkpt>
      <trkpt lat="43.98159" lon="7.12741">
        <ele>872.59997558594</ele>
        <time>2019-02-16T12:47:24.000Z</time>
      </trkpt>
      <trkpt lat="43.98159" lon="7.12744">
        <ele>872.59997558594</ele>
        <time>2019-02-16T12:47:26.000Z</time>
      </trkpt>
      <trkpt lat="43.98161" lon="7.12745">
        <ele>872.59997558594</ele>
        <time>2019-02-16T12:47:29.000Z</time>
      </trkpt>
      <trkpt lat="43.98165" lon="7.12744">
        <ele>872.40002441406</ele>
        <time>2019-02-16T12:47:31.000Z</time>
      </trkpt>
      <trkpt lat="43.98169" lon="7.12738">
        <ele>872.40002441406</ele>
        <time>2019-02-16T12:47:33.000Z</time>
      </trkpt>
      <trkpt lat="43.98175" lon="7.12728">
        <ele>871.79998779297</ele>
        <time>2019-02-16T12:47:36.000Z</time>
      </trkpt>
      <trkpt lat="43.98176" lon="7.12721">
        <ele>871.59997558594</ele>
        <time>2019-02-16T12:47:38.000Z</time>
      </trkpt>
      <trkpt lat="43.98178" lon="7.12715">
        <ele>870.79998779297</ele>
        <time>2019-02-16T12:47:40.000Z</time>
      </trkpt>
      <trkpt lat="43.98183" lon="7.12705">
        <ele>869.59997558594</ele>
        <time>2019-02-16T12:47:42.000Z</time>
      </trkpt>
      <trkpt lat="43.98196" lon="7.12703">
        <ele>867.59997558594</ele>
        <time>2019-02-16T12:47:44.000Z</time>
      </trkpt>
      <trkpt lat="43.98201" lon="7.12701">
        <ele>866.79998779297</ele>
        <time>2019-02-16T12:47:45.000Z</time>
      </trkpt>
      <trkpt lat="43.98206" lon="7.12698">
        <ele>865.79998779297</ele>
        <time>2019-02-16T12:47:46.000Z</time>
      </trkpt>
      <trkpt lat="43.98214" lon="7.12695">
        <ele>863.59997558594</ele>
        <time>2019-02-16T12:47:48.000Z</time>
      </trkpt>
      <trkpt lat="43.98219" lon="7.12694">
        <ele>863.40002441406</ele>
        <time>2019-02-16T12:47:49.000Z</time>
      </trkpt>
      <trkpt lat="43.98223" lon="7.12693">
        <ele>863</ele>
        <time>2019-02-16T12:47:50.000Z</time>
      </trkpt>
      <trkpt lat="43.98226" lon="7.12692">
        <ele>862.20001220703</ele>
        <time>2019-02-16T12:47:51.000Z</time>
      </trkpt>
      <trkpt lat="43.98231" lon="7.12686">
        <ele>861.79998779297</ele>
        <time>2019-02-16T12:47:53.000Z</time>
      </trkpt>
      <trkpt lat="43.98239" lon="7.12681">
        <ele>861.40002441406</ele>
        <time>2019-02-16T12:47:55.000Z</time>
      </trkpt>
      <trkpt lat="43.98243" lon="7.12677">
        <ele>861</ele>
        <time>2019-02-16T12:47:56.000Z</time>
      </trkpt>
      <trkpt lat="43.98246" lon="7.12672">
        <ele>860.59997558594</ele>
        <time>2019-02-16T12:47:57.000Z</time>
      </trkpt>
      <trkpt lat="43.9825" lon="7.12658">
        <ele>859.59997558594</ele>
        <time>2019-02-16T12:47:59.000Z</time>
      </trkpt>
      <trkpt lat="43.98252" lon="7.12652">
        <ele>858.59997558594</ele>
        <time>2019-02-16T12:48:00.000Z</time>
      </trkpt>
      <trkpt lat="43.98254" lon="7.12646">
        <ele>858</ele>
        <time>2019-02-16T12:48:01.000Z</time>
      </trkpt>
      <trkpt lat="43.98254" lon="7.1264">
        <ele>857.40002441406</ele>
        <time>2019-02-16T12:48:02.000Z</time>
      </trkpt>
      <trkpt lat="43.98257" lon="7.1263">
        <ele>856.20001220703</ele>
        <time>2019-02-16T12:48:04.000Z</time>
      </trkpt>
      <trkpt lat="43.9826" lon="7.12627">
        <ele>855.79998779297</ele>
        <time>2019-02-16T12:48:05.000Z</time>
      </trkpt>
      <trkpt lat="43.98266" lon="7.1262">
        <ele>854.59997558594</ele>
        <time>2019-02-16T12:48:07.000Z</time>
      </trkpt>
      <trkpt lat="43.9827" lon="7.12614">
        <ele>853.59997558594</ele>
        <time>2019-02-16T12:48:09.000Z</time>
      </trkpt>
      <trkpt lat="43.98273" lon="7.12612">
        <ele>853.40002441406</ele>
        <time>2019-02-16T12:48:10.000Z</time>
      </trkpt>
      <trkpt lat="43.9828" lon="7.12592">
        <ele>852.59997558594</ele>
        <time>2019-02-16T12:48:15.000Z</time>
      </trkpt>
      <trkpt lat="43.98283" lon="7.12588">
        <ele>852.20001220703</ele>
        <time>2019-02-16T12:48:16.000Z</time>
      </trkpt>
      <trkpt lat="43.98288" lon="7.12574">
        <ele>851.59997558594</ele>
        <time>2019-02-16T12:48:19.000Z</time>
      </trkpt>
      <trkpt lat="43.98296" lon="7.12562">
        <ele>851</ele>
        <time>2019-02-16T12:48:22.000Z</time>
      </trkpt>
      <trkpt lat="43.98299" lon="7.12557">
        <ele>850.59997558594</ele>
        <time>2019-02-16T12:48:23.000Z</time>
      </trkpt>
      <trkpt lat="43.98304" lon="7.12548">
        <ele>849.59997558594</ele>
        <time>2019-02-16T12:48:25.000Z</time>
      </trkpt>
      <trkpt lat="43.98305" lon="7.12536">
        <ele>849.20001220703</ele>
        <time>2019-02-16T12:48:27.000Z</time>
      </trkpt>
      <trkpt lat="43.9831" lon="7.1252">
        <ele>848.59997558594</ele>
        <time>2019-02-16T12:48:30.000Z</time>
      </trkpt>
      <trkpt lat="43.98313" lon="7.12514">
        <ele>848.20001220703</ele>
        <time>2019-02-16T12:48:31.000Z</time>
      </trkpt>
      <trkpt lat="43.98318" lon="7.12503">
        <ele>847.20001220703</ele>
        <time>2019-02-16T12:48:33.000Z</time>
      </trkpt>
      <trkpt lat="43.9833" lon="7.1249">
        <ele>846</ele>
        <time>2019-02-16T12:48:36.000Z</time>
      </trkpt>
      <trkpt lat="43.98342" lon="7.12481">
        <ele>844.59997558594</ele>
        <time>2019-02-16T12:48:39.000Z</time>
      </trkpt>
      <trkpt lat="43.98347" lon="7.12475">
        <ele>844.20001220703</ele>
        <time>2019-02-16T12:48:41.000Z</time>
      </trkpt>
      <trkpt lat="43.98355" lon="7.12464">
        <ele>843.79998779297</ele>
        <time>2019-02-16T12:48:46.000Z</time>
      </trkpt>
      <trkpt lat="43.98355" lon="7.12463">
        <ele>843.40002441406</ele>
        <time>2019-02-16T12:48:47.000Z</time>
      </trkpt>
      <trkpt lat="43.98348" lon="7.1246">
        <ele>843.40002441406</ele>
        <time>2019-02-16T12:48:49.000Z</time>
      </trkpt>
      <trkpt lat="43.98328" lon="7.12461">
        <ele>843.59997558594</ele>
        <time>2019-02-16T12:48:53.000Z</time>
      </trkpt>
      <trkpt lat="43.98307" lon="7.12463">
        <ele>843.20001220703</ele>
        <time>2019-02-16T12:48:56.000Z</time>
      </trkpt>
      <trkpt lat="43.98292" lon="7.12466">
        <ele>842.79998779297</ele>
        <time>2019-02-16T12:48:58.000Z</time>
      </trkpt>
      <trkpt lat="43.98286" lon="7.12471">
        <ele>842.40002441406</ele>
        <time>2019-02-16T12:48:59.000Z</time>
      </trkpt>
      <trkpt lat="43.98279" lon="7.12475">
        <ele>842</ele>
        <time>2019-02-16T12:49:00.000Z</time>
      </trkpt>
      <trkpt lat="43.98267" lon="7.12486">
        <ele>841.20001220703</ele>
        <time>2019-02-16T12:49:02.000Z</time>
      </trkpt>
      <trkpt lat="43.98262" lon="7.12493">
        <ele>840.59997558594</ele>
        <time>2019-02-16T12:49:03.000Z</time>
      </trkpt>
      <trkpt lat="43.98256" lon="7.12511">
        <ele>839.40002441406</ele>
        <time>2019-02-16T12:49:05.000Z</time>
      </trkpt>
      <trkpt lat="43.98254" lon="7.12518">
        <ele>838.79998779297</ele>
        <time>2019-02-16T12:49:06.000Z</time>
      </trkpt>
      <trkpt lat="43.98252" lon="7.12525">
        <ele>838</ele>
        <time>2019-02-16T12:49:07.000Z</time>
      </trkpt>
      <trkpt lat="43.98249" lon="7.12536">
        <ele>837</ele>
        <time>2019-02-16T12:49:09.000Z</time>
      </trkpt>
      <trkpt lat="43.98247" lon="7.12541">
        <ele>836.79998779297</ele>
        <time>2019-02-16T12:49:10.000Z</time>
      </trkpt>
      <trkpt lat="43.98244" lon="7.12555">
        <ele>836.20001220703</ele>
        <time>2019-02-16T12:49:14.000Z</time>
      </trkpt>
      <trkpt lat="43.98244" lon="7.12557">
        <ele>835.79998779297</ele>
        <time>2019-02-16T12:49:17.000Z</time>
      </trkpt>
      <trkpt lat="43.98246" lon="7.12557">
        <ele>835.59997558594</ele>
        <time>2019-02-16T12:49:19.000Z</time>
      </trkpt>
      <trkpt lat="43.98247" lon="7.12558">
        <ele>835.40002441406</ele>
        <time>2019-02-16T12:49:23.000Z</time>
      </trkpt>
      <trkpt lat="43.98249" lon="7.12559">
        <ele>834.59997558594</ele>
        <time>2019-02-16T12:49:31.000Z</time>
      </trkpt>
      <trkpt lat="43.9825" lon="7.1256">
        <ele>834.59997558594</ele>
        <time>2019-02-16T12:49:38.000Z</time>
      </trkpt>
      <trkpt lat="43.98249" lon="7.12561">
        <ele>835</ele>
        <time>2019-02-16T12:49:43.000Z</time>
      </trkpt>
      <trkpt lat="43.98248" lon="7.12564">
        <ele>835</ele>
        <time>2019-02-16T12:49:44.000Z</time>
      </trkpt>
      <trkpt lat="43.98247" lon="7.1257">
        <ele>835</ele>
        <time>2019-02-16T12:49:47.000Z</time>
      </trkpt>
      <trkpt lat="43.98249" lon="7.1257">
        <ele>835</ele>
        <time>2019-02-16T12:49:48.000Z</time>
      </trkpt>
      <trkpt lat="43.98251" lon="7.12565">
        <ele>834.79998779297</ele>
        <time>2019-02-16T12:49:51.000Z</time>
      </trkpt>
      <trkpt lat="43.98252" lon="7.1256">
        <ele>834.79998779297</ele>
        <time>2019-02-16T12:49:53.000Z</time>
      </trkpt>
      <trkpt lat="43.98253" lon="7.12555">
        <ele>835.20001220703</ele>
        <time>2019-02-16T12:49:56.000Z</time>
      </trkpt>
      <trkpt lat="43.98254" lon="7.12554">
        <ele>835.20001220703</ele>
        <time>2019-02-16T12:49:57.000Z</time>
      </trkpt>
      <trkpt lat="43.98255" lon="7.12543">
        <ele>832.59997558594</ele>
        <time>2019-02-16T12:50:01.000Z</time>
      </trkpt>
      <trkpt lat="43.98256" lon="7.1254">
        <ele>832</ele>
        <time>2019-02-16T12:50:02.000Z</time>
      </trkpt>
      <trkpt lat="43.98257" lon="7.12537">
        <ele>831.20001220703</ele>
        <time>2019-02-16T12:50:03.000Z</time>
      </trkpt>
      <trkpt lat="43.98258" lon="7.12527">
        <ele>829.79998779297</ele>
        <time>2019-02-16T12:50:05.000Z</time>
      </trkpt>
      <trkpt lat="43.98259" lon="7.12523">
        <ele>829.20001220703</ele>
        <time>2019-02-16T12:50:06.000Z</time>
      </trkpt>
      <trkpt lat="43.98259" lon="7.12519">
        <ele>828.59997558594</ele>
        <time>2019-02-16T12:50:07.000Z</time>
      </trkpt>
      <trkpt lat="43.98259" lon="7.12512">
        <ele>827.20001220703</ele>
        <time>2019-02-16T12:50:10.000Z</time>
      </trkpt>
      <trkpt lat="43.98258" lon="7.12509">
        <ele>826.59997558594</ele>
        <time>2019-02-16T12:50:11.000Z</time>
      </trkpt>
      <trkpt lat="43.98259" lon="7.12506">
        <ele>826.20001220703</ele>
        <time>2019-02-16T12:50:12.000Z</time>
      </trkpt>
      <trkpt lat="43.9826" lon="7.12501">
        <ele>825.59997558594</ele>
        <time>2019-02-16T12:50:13.000Z</time>
      </trkpt>
      <trkpt lat="43.98259" lon="7.12495">
        <ele>824.79998779297</ele>
        <time>2019-02-16T12:50:14.000Z</time>
      </trkpt>
      <trkpt lat="43.9826" lon="7.12489">
        <ele>824.20001220703</ele>
        <time>2019-02-16T12:50:15.000Z</time>
      </trkpt>
      <trkpt lat="43.98261" lon="7.12484">
        <ele>822.79998779297</ele>
        <time>2019-02-16T12:50:16.000Z</time>
      </trkpt>
      <trkpt lat="43.98261" lon="7.12477">
        <ele>821.20001220703</ele>
        <time>2019-02-16T12:50:18.000Z</time>
      </trkpt>
      <trkpt lat="43.98262" lon="7.12475">
        <ele>820.59997558594</ele>
        <time>2019-02-16T12:50:19.000Z</time>
      </trkpt>
      <trkpt lat="43.98262" lon="7.12475">
        <ele>820</ele>
        <time>2019-02-16T12:50:20.000Z</time>
      </trkpt>
      <trkpt lat="43.98262" lon="7.12473">
        <ele>819.40002441406</ele>
        <time>2019-02-16T12:50:22.000Z</time>
      </trkpt>
      <trkpt lat="43.98261" lon="7.12473">
        <ele>819</ele>
        <time>2019-02-16T12:50:24.000Z</time>
      </trkpt>
      <trkpt lat="43.9826" lon="7.1247">
        <ele>818.40002441406</ele>
        <time>2019-02-16T12:50:28.000Z</time>
      </trkpt>
      <trkpt lat="43.9826" lon="7.12469">
        <ele>818</ele>
        <time>2019-02-16T12:50:31.000Z</time>
      </trkpt>
      <trkpt lat="43.9826" lon="7.12465">
        <ele>817.40002441406</ele>
        <time>2019-02-16T12:50:34.000Z</time>
      </trkpt>
      <trkpt lat="43.9826" lon="7.12464">
        <ele>817</ele>
        <time>2019-02-16T12:50:35.000Z</time>
      </trkpt>
      <trkpt lat="43.9826" lon="7.12461">
        <ele>816.40002441406</ele>
        <time>2019-02-16T12:50:37.000Z</time>
      </trkpt>
      <trkpt lat="43.98259" lon="7.12458">
        <ele>816.20001220703</ele>
        <time>2019-02-16T12:50:40.000Z</time>
      </trkpt>
      <trkpt lat="43.98257" lon="7.12458">
        <ele>817.40002441406</ele>
        <time>2019-02-16T12:50:47.000Z</time>
      </trkpt>
      <trkpt lat="43.98258" lon="7.12459">
        <ele>817.40002441406</ele>
        <time>2019-02-16T12:50:54.000Z</time>
      </trkpt>
      <trkpt lat="43.98258" lon="7.12462">
        <ele>817.40002441406</ele>
        <time>2019-02-16T12:50:58.000Z</time>
      </trkpt>
      <trkpt lat="43.98255" lon="7.12465">
        <ele>817.40002441406</ele>
        <time>2019-02-16T12:51:00.000Z</time>
      </trkpt>
      <trkpt lat="43.98255" lon="7.12469">
        <ele>817.20001220703</ele>
        <time>2019-02-16T12:51:05.000Z</time>
      </trkpt>
      <trkpt lat="43.98253" lon="7.12471">
        <ele>817.20001220703</ele>
        <time>2019-02-16T12:51:06.000Z</time>
      </trkpt>
      <trkpt lat="43.9825" lon="7.12475">
        <ele>817</ele>
        <time>2019-02-16T12:51:09.000Z</time>
      </trkpt>
      <trkpt lat="43.98247" lon="7.12479">
        <ele>818</ele>
        <time>2019-02-16T12:51:14.000Z</time>
      </trkpt>
      <trkpt lat="43.98246" lon="7.12484">
        <ele>819.20001220703</ele>
        <time>2019-02-16T12:51:18.000Z</time>
      </trkpt>
      <trkpt lat="43.98246" lon="7.12485">
        <ele>819.79998779297</ele>
        <time>2019-02-16T12:51:20.000Z</time>
      </trkpt>
      <trkpt lat="43.98245" lon="7.12486">
        <ele>820.59997558594</ele>
        <time>2019-02-16T12:51:22.000Z</time>
      </trkpt>
      <trkpt lat="43.98244" lon="7.12488">
        <ele>821.40002441406</ele>
        <time>2019-02-16T12:51:24.000Z</time>
      </trkpt>
      <trkpt lat="43.98244" lon="7.12489">
        <ele>821.79998779297</ele>
        <time>2019-02-16T12:51:25.000Z</time>
      </trkpt>
      <trkpt lat="43.98242" lon="7.12491">
        <ele>823</ele>
        <time>2019-02-16T12:51:29.000Z</time>
      </trkpt>
      <trkpt lat="43.98241" lon="7.12493">
        <ele>823.40002441406</ele>
        <time>2019-02-16T12:51:31.000Z</time>
      </trkpt>
      <trkpt lat="43.98239" lon="7.12494">
        <ele>824.20001220703</ele>
        <time>2019-02-16T12:51:34.000Z</time>
      </trkpt>
      <trkpt lat="43.98238" lon="7.12497">
        <ele>825</ele>
        <time>2019-02-16T12:51:38.000Z</time>
      </trkpt>
      <trkpt lat="43.98237" lon="7.12498">
        <ele>825.20001220703</ele>
        <time>2019-02-16T12:51:39.000Z</time>
      </trkpt>
      <trkpt lat="43.98235" lon="7.12501">
        <ele>826.20001220703</ele>
        <time>2019-02-16T12:51:43.000Z</time>
      </trkpt>
      <trkpt lat="43.98234" lon="7.12502">
        <ele>826.59997558594</ele>
        <time>2019-02-16T12:51:44.000Z</time>
      </trkpt>
      <trkpt lat="43.98234" lon="7.12503">
        <ele>826.79998779297</ele>
        <time>2019-02-16T12:51:45.000Z</time>
      </trkpt>
      <trkpt lat="43.98233" lon="7.12506">
        <ele>827.40002441406</ele>
        <time>2019-02-16T12:51:48.000Z</time>
      </trkpt>
      <trkpt lat="43.98232" lon="7.12508">
        <ele>827.79998779297</ele>
        <time>2019-02-16T12:51:50.000Z</time>
      </trkpt>
      <trkpt lat="43.9823" lon="7.12513">
        <ele>828.40002441406</ele>
        <time>2019-02-16T12:51:54.000Z</time>
      </trkpt>
      <trkpt lat="43.98227" lon="7.12516">
        <ele>829.20001220703</ele>
        <time>2019-02-16T12:51:58.000Z</time>
      </trkpt>
      <trkpt lat="43.98226" lon="7.12518">
        <ele>829.40002441406</ele>
        <time>2019-02-16T12:52:00.000Z</time>
      </trkpt>
      <trkpt lat="43.98225" lon="7.12523">
        <ele>829.79998779297</ele>
        <time>2019-02-16T12:52:05.000Z</time>
      </trkpt>
      <trkpt lat="43.98225" lon="7.12524">
        <ele>830.40002441406</ele>
        <time>2019-02-16T12:52:09.000Z</time>
      </trkpt>
      <trkpt lat="43.98224" lon="7.12526">
        <ele>830.79998779297</ele>
        <time>2019-02-16T12:52:11.000Z</time>
      </trkpt>
      <trkpt lat="43.98225" lon="7.12527">
        <ele>830.79998779297</ele>
        <time>2019-02-16T12:52:16.000Z</time>
      </trkpt>
      <trkpt lat="43.98221" lon="7.12531">
        <ele>830.79998779297</ele>
        <time>2019-02-16T12:52:22.000Z</time>
      </trkpt>
      <trkpt lat="43.98213" lon="7.1254">
        <ele>831.59997558594</ele>
        <time>2019-02-16T12:52:28.000Z</time>
      </trkpt>
      <trkpt lat="43.98207" lon="7.12548">
        <ele>832.59997558594</ele>
        <time>2019-02-16T12:52:33.000Z</time>
      </trkpt>
      <trkpt lat="43.98206" lon="7.1255">
        <ele>832.79998779297</ele>
        <time>2019-02-16T12:52:34.000Z</time>
      </trkpt>
      <trkpt lat="43.982" lon="7.12556">
        <ele>833.79998779297</ele>
        <time>2019-02-16T12:52:38.000Z</time>
      </trkpt>
      <trkpt lat="43.98194" lon="7.12561">
        <ele>834.59997558594</ele>
        <time>2019-02-16T12:52:42.000Z</time>
      </trkpt>
      <trkpt lat="43.98191" lon="7.12562">
        <ele>835</ele>
        <time>2019-02-16T12:52:44.000Z</time>
      </trkpt>
      <trkpt lat="43.9818" lon="7.1256">
        <ele>835.40002441406</ele>
        <time>2019-02-16T12:52:49.000Z</time>
      </trkpt>
      <trkpt lat="43.98169" lon="7.12549">
        <ele>833.79998779297</ele>
        <time>2019-02-16T12:52:53.000Z</time>
      </trkpt>
      <trkpt lat="43.98161" lon="7.1254">
        <ele>833</ele>
        <time>2019-02-16T12:52:57.000Z</time>
      </trkpt>
      <trkpt lat="43.98155" lon="7.12537">
        <ele>832.79998779297</ele>
        <time>2019-02-16T12:52:59.000Z</time>
      </trkpt>
      <trkpt lat="43.98146" lon="7.12533">
        <ele>831.59997558594</ele>
        <time>2019-02-16T12:53:01.000Z</time>
      </trkpt>
      <trkpt lat="43.98138" lon="7.12527">
        <ele>830.20001220703</ele>
        <time>2019-02-16T12:53:03.000Z</time>
      </trkpt>
      <trkpt lat="43.98134" lon="7.12523">
        <ele>829.40002441406</ele>
        <time>2019-02-16T12:53:05.000Z</time>
      </trkpt>
      <trkpt lat="43.98132" lon="7.12521">
        <ele>829.20001220703</ele>
        <time>2019-02-16T12:53:06.000Z</time>
      </trkpt>
      <trkpt lat="43.98119" lon="7.12515">
        <ele>830.20001220703</ele>
        <time>2019-02-16T12:53:11.000Z</time>
      </trkpt>
      <trkpt lat="43.98101" lon="7.12516">
        <ele>830.40002441406</ele>
        <time>2019-02-16T12:53:17.000Z</time>
      </trkpt>
      <trkpt lat="43.98086" lon="7.12518">
        <ele>831.20001220703</ele>
        <time>2019-02-16T12:53:23.000Z</time>
      </trkpt>
      <trkpt lat="43.98084" lon="7.12518">
        <ele>831.59997558594</ele>
        <time>2019-02-16T12:53:24.000Z</time>
      </trkpt>
      <trkpt lat="43.98074" lon="7.12512">
        <ele>832.59997558594</ele>
        <time>2019-02-16T12:53:29.000Z</time>
      </trkpt>
      <trkpt lat="43.98072" lon="7.12509">
        <ele>832.59997558594</ele>
        <time>2019-02-16T12:53:30.000Z</time>
      </trkpt>
      <trkpt lat="43.98068" lon="7.12507">
        <ele>832.79998779297</ele>
        <time>2019-02-16T12:53:32.000Z</time>
      </trkpt>
      <trkpt lat="43.98064" lon="7.12508">
        <ele>832.59997558594</ele>
        <time>2019-02-16T12:53:34.000Z</time>
      </trkpt>
      <trkpt lat="43.98047" lon="7.12512">
        <ele>833.20001220703</ele>
        <time>2019-02-16T12:53:41.000Z</time>
      </trkpt>
      <trkpt lat="43.98043" lon="7.12512">
        <ele>833.79998779297</ele>
        <time>2019-02-16T12:53:43.000Z</time>
      </trkpt>
      <trkpt lat="43.98035" lon="7.12509">
        <ele>834.40002441406</ele>
        <time>2019-02-16T12:53:47.000Z</time>
      </trkpt>
      <trkpt lat="43.98032" lon="7.12505">
        <ele>834.79998779297</ele>
        <time>2019-02-16T12:53:49.000Z</time>
      </trkpt>
      <trkpt lat="43.98023" lon="7.12495">
        <ele>835.20001220703</ele>
        <time>2019-02-16T12:53:53.000Z</time>
      </trkpt>
      <trkpt lat="43.98009" lon="7.12479">
        <ele>835.59997558594</ele>
        <time>2019-02-16T12:54:00.000Z</time>
      </trkpt>
      <trkpt lat="43.98005" lon="7.12474">
        <ele>835.79998779297</ele>
        <time>2019-02-16T12:54:02.000Z</time>
      </trkpt>
      <trkpt lat="43.97995" lon="7.12464">
        <ele>836.40002441406</ele>
        <time>2019-02-16T12:54:07.000Z</time>
      </trkpt>
      <trkpt lat="43.97985" lon="7.12451">
        <ele>836.59997558594</ele>
        <time>2019-02-16T12:54:13.000Z</time>
      </trkpt>
      <trkpt lat="43.97982" lon="7.12451">
        <ele>836.59997558594</ele>
        <time>2019-02-16T12:54:14.000Z</time>
      </trkpt>
      <trkpt lat="43.97981" lon="7.12456">
        <ele>836.79998779297</ele>
        <time>2019-02-16T12:54:16.000Z</time>
      </trkpt>
      <trkpt lat="43.97979" lon="7.12462">
        <ele>837</ele>
        <time>2019-02-16T12:54:18.000Z</time>
      </trkpt>
      <trkpt lat="43.97977" lon="7.12464">
        <ele>837</ele>
        <time>2019-02-16T12:54:19.000Z</time>
      </trkpt>
      <trkpt lat="43.97975" lon="7.12468">
        <ele>837.59997558594</ele>
        <time>2019-02-16T12:54:21.000Z</time>
      </trkpt>
      <trkpt lat="43.97974" lon="7.12469">
        <ele>838</ele>
        <time>2019-02-16T12:54:22.000Z</time>
      </trkpt>
      <trkpt lat="43.97968" lon="7.12476">
        <ele>839.20001220703</ele>
        <time>2019-02-16T12:54:26.000Z</time>
      </trkpt>
      <trkpt lat="43.97967" lon="7.12477">
        <ele>839.59997558594</ele>
        <time>2019-02-16T12:54:27.000Z</time>
      </trkpt>
      <trkpt lat="43.97964" lon="7.1248">
        <ele>840.40002441406</ele>
        <time>2019-02-16T12:54:29.000Z</time>
      </trkpt>
      <trkpt lat="43.97961" lon="7.12483">
        <ele>841.40002441406</ele>
        <time>2019-02-16T12:54:32.000Z</time>
      </trkpt>
      <trkpt lat="43.97958" lon="7.12485">
        <ele>842.20001220703</ele>
        <time>2019-02-16T12:54:34.000Z</time>
      </trkpt>
      <trkpt lat="43.97958" lon="7.12486">
        <ele>842.59997558594</ele>
        <time>2019-02-16T12:54:35.000Z</time>
      </trkpt>
      <trkpt lat="43.97953" lon="7.12489">
        <ele>843.40002441406</ele>
        <time>2019-02-16T12:54:39.000Z</time>
      </trkpt>
      <trkpt lat="43.97952" lon="7.12489">
        <ele>843.79998779297</ele>
        <time>2019-02-16T12:54:40.000Z</time>
      </trkpt>
      <trkpt lat="43.97949" lon="7.12489">
        <ele>844.40002441406</ele>
        <time>2019-02-16T12:54:42.000Z</time>
      </trkpt>
      <trkpt lat="43.97947" lon="7.12489">
        <ele>844.79998779297</ele>
        <time>2019-02-16T12:54:44.000Z</time>
      </trkpt>
      <trkpt lat="43.97944" lon="7.12488">
        <ele>845.40002441406</ele>
        <time>2019-02-16T12:54:46.000Z</time>
      </trkpt>
      <trkpt lat="43.9794" lon="7.12488">
        <ele>846</ele>
        <time>2019-02-16T12:54:49.000Z</time>
      </trkpt>
      <trkpt lat="43.97934" lon="7.1249">
        <ele>846.79998779297</ele>
        <time>2019-02-16T12:54:54.000Z</time>
      </trkpt>
      <trkpt lat="43.97933" lon="7.12491">
        <ele>847</ele>
        <time>2019-02-16T12:54:55.000Z</time>
      </trkpt>
      <trkpt lat="43.97929" lon="7.12492">
        <ele>848</ele>
        <time>2019-02-16T12:55:01.000Z</time>
      </trkpt>
      <trkpt lat="43.97929" lon="7.12492">
        <ele>848.20001220703</ele>
        <time>2019-02-16T12:55:02.000Z</time>
      </trkpt>
      <trkpt lat="43.97929" lon="7.12493">
        <ele>848</ele>
        <time>2019-02-16T12:55:09.000Z</time>
      </trkpt>
      <trkpt lat="43.97928" lon="7.12494">
        <ele>848.20001220703</ele>
        <time>2019-02-16T12:55:16.000Z</time>
      </trkpt>
      <trkpt lat="43.97927" lon="7.12495">
        <ele>848.20001220703</ele>
        <time>2019-02-16T12:55:17.000Z</time>
      </trkpt>
      <trkpt lat="43.97921" lon="7.12497">
        <ele>849.20001220703</ele>
        <time>2019-02-16T12:55:25.000Z</time>
      </trkpt>
      <trkpt lat="43.97918" lon="7.12499">
        <ele>849.79998779297</ele>
        <time>2019-02-16T12:55:28.000Z</time>
      </trkpt>
      <trkpt lat="43.97916" lon="7.125">
        <ele>850.40002441406</ele>
        <time>2019-02-16T12:55:31.000Z</time>
      </trkpt>
      <trkpt lat="43.9791" lon="7.12503">
        <ele>851.59997558594</ele>
        <time>2019-02-16T12:55:38.000Z</time>
      </trkpt>
      <trkpt lat="43.97908" lon="7.12505">
        <ele>851.79998779297</ele>
        <time>2019-02-16T12:55:40.000Z</time>
      </trkpt>
      <trkpt lat="43.97904" lon="7.12507">
        <ele>852.79998779297</ele>
        <time>2019-02-16T12:55:46.000Z</time>
      </trkpt>
      <trkpt lat="43.97903" lon="7.12508">
        <ele>853</ele>
        <time>2019-02-16T12:55:48.000Z</time>
      </trkpt>
      <trkpt lat="43.97897" lon="7.12508">
        <ele>853.79998779297</ele>
        <time>2019-02-16T12:55:54.000Z</time>
      </trkpt>
      <trkpt lat="43.97897" lon="7.12507">
        <ele>854.20001220703</ele>
        <time>2019-02-16T12:55:56.000Z</time>
      </trkpt>
      <trkpt lat="43.97895" lon="7.12497">
        <ele>854.20001220703</ele>
        <time>2019-02-16T12:56:01.000Z</time>
      </trkpt>
      <trkpt lat="43.97885" lon="7.12478">
        <ele>853.59997558594</ele>
        <time>2019-02-16T12:56:06.000Z</time>
      </trkpt>
      <trkpt lat="43.97877" lon="7.12459">
        <ele>853.20001220703</ele>
        <time>2019-02-16T12:56:10.000Z</time>
      </trkpt>
      <trkpt lat="43.97874" lon="7.1245">
        <ele>852.59997558594</ele>
        <time>2019-02-16T12:56:12.000Z</time>
      </trkpt>
      <trkpt lat="43.9787" lon="7.1244">
        <ele>852.40002441406</ele>
        <time>2019-02-16T12:56:15.000Z</time>
      </trkpt>
      <trkpt lat="43.97867" lon="7.12437">
        <ele>852.40002441406</ele>
        <time>2019-02-16T12:56:16.000Z</time>
      </trkpt>
      <trkpt lat="43.97861" lon="7.12432">
        <ele>852.79998779297</ele>
        <time>2019-02-16T12:56:18.000Z</time>
      </trkpt>
      <trkpt lat="43.9786" lon="7.12432">
        <ele>852.79998779297</ele>
        <time>2019-02-16T12:56:19.000Z</time>
      </trkpt>
      <trkpt lat="43.97857" lon="7.12433">
        <ele>851.59997558594</ele>
        <time>2019-02-16T12:56:23.000Z</time>
      </trkpt>
      <trkpt lat="43.97852" lon="7.12434">
        <ele>852.59997558594</ele>
        <time>2019-02-16T12:56:28.000Z</time>
      </trkpt>
      <trkpt lat="43.9785" lon="7.12434">
        <ele>853.59997558594</ele>
        <time>2019-02-16T12:56:32.000Z</time>
      </trkpt>
      <trkpt lat="43.97849" lon="7.12434">
        <ele>853.79998779297</ele>
        <time>2019-02-16T12:56:34.000Z</time>
      </trkpt>
      <trkpt lat="43.97847" lon="7.12435">
        <ele>854.20001220703</ele>
        <time>2019-02-16T12:56:38.000Z</time>
      </trkpt>
      <trkpt lat="43.97836" lon="7.12437">
        <ele>854.79998779297</ele>
        <time>2019-02-16T12:56:45.000Z</time>
      </trkpt>
      <trkpt lat="43.97834" lon="7.12438">
        <ele>855</ele>
        <time>2019-02-16T12:56:46.000Z</time>
      </trkpt>
      <trkpt lat="43.97825" lon="7.12442">
        <ele>856.20001220703</ele>
        <time>2019-02-16T12:56:50.000Z</time>
      </trkpt>
      <trkpt lat="43.9782" lon="7.12441">
        <ele>856.20001220703</ele>
        <time>2019-02-16T12:56:52.000Z</time>
      </trkpt>
      <trkpt lat="43.97816" lon="7.12437">
        <ele>855.79998779297</ele>
        <time>2019-02-16T12:56:54.000Z</time>
      </trkpt>
      <trkpt lat="43.97806" lon="7.1243">
        <ele>856.40002441406</ele>
        <time>2019-02-16T12:56:58.000Z</time>
      </trkpt>
      <trkpt lat="43.97801" lon="7.12428">
        <ele>856.59997558594</ele>
        <time>2019-02-16T12:57:00.000Z</time>
      </trkpt>
      <trkpt lat="43.97785" lon="7.12425">
        <ele>856.79998779297</ele>
        <time>2019-02-16T12:57:06.000Z</time>
      </trkpt>
      <trkpt lat="43.97778" lon="7.12416">
        <ele>857.20001220703</ele>
        <time>2019-02-16T12:57:10.000Z</time>
      </trkpt>
      <trkpt lat="43.97777" lon="7.12406">
        <ele>857.20001220703</ele>
        <time>2019-02-16T12:57:13.000Z</time>
      </trkpt>
      <trkpt lat="43.97776" lon="7.12403">
        <ele>857.20001220703</ele>
        <time>2019-02-16T12:57:14.000Z</time>
      </trkpt>
      <trkpt lat="43.97765" lon="7.12388">
        <ele>856.59997558594</ele>
        <time>2019-02-16T12:57:19.000Z</time>
      </trkpt>
      <trkpt lat="43.97759" lon="7.1238">
        <ele>856.79998779297</ele>
        <time>2019-02-16T12:57:23.000Z</time>
      </trkpt>
      <trkpt lat="43.97748" lon="7.12371">
        <ele>856.59997558594</ele>
        <time>2019-02-16T12:57:28.000Z</time>
      </trkpt>
      <trkpt lat="43.97746" lon="7.1237">
        <ele>856.20001220703</ele>
        <time>2019-02-16T12:57:29.000Z</time>
      </trkpt>
      <trkpt lat="43.97738" lon="7.12368">
        <ele>857.20001220703</ele>
        <time>2019-02-16T12:57:34.000Z</time>
      </trkpt>
      <trkpt lat="43.97736" lon="7.12367">
        <ele>857.20001220703</ele>
        <time>2019-02-16T12:57:35.000Z</time>
      </trkpt>
      <trkpt lat="43.97724" lon="7.12366">
        <ele>858.20001220703</ele>
        <time>2019-02-16T12:57:41.000Z</time>
      </trkpt>
      <trkpt lat="43.97721" lon="7.12366">
        <ele>858.59997558594</ele>
        <time>2019-02-16T12:57:42.000Z</time>
      </trkpt>
      <trkpt lat="43.97716" lon="7.12374">
        <ele>859.59997558594</ele>
        <time>2019-02-16T12:57:46.000Z</time>
      </trkpt>
      <trkpt lat="43.97714" lon="7.12377">
        <ele>859.59997558594</ele>
        <time>2019-02-16T12:57:47.000Z</time>
      </trkpt>
      <trkpt lat="43.97706" lon="7.12386">
        <ele>860.79998779297</ele>
        <time>2019-02-16T12:57:52.000Z</time>
      </trkpt>
      <trkpt lat="43.97704" lon="7.12387">
        <ele>861</ele>
        <time>2019-02-16T12:57:53.000Z</time>
      </trkpt>
      <trkpt lat="43.97696" lon="7.12394">
        <ele>861.79998779297</ele>
        <time>2019-02-16T12:57:58.000Z</time>
      </trkpt>
      <trkpt lat="43.97692" lon="7.12396">
        <ele>862</ele>
        <time>2019-02-16T12:58:00.000Z</time>
      </trkpt>
      <trkpt lat="43.97684" lon="7.12405">
        <ele>863</ele>
        <time>2019-02-16T12:58:05.000Z</time>
      </trkpt>
      <trkpt lat="43.97681" lon="7.1241">
        <ele>863.59997558594</ele>
        <time>2019-02-16T12:58:08.000Z</time>
      </trkpt>
      <trkpt lat="43.9768" lon="7.12416">
        <ele>864</ele>
        <time>2019-02-16T12:58:10.000Z</time>
      </trkpt>
      <trkpt lat="43.9768" lon="7.12422">
        <ele>864.40002441406</ele>
        <time>2019-02-16T12:58:12.000Z</time>
      </trkpt>
      <trkpt lat="43.97675" lon="7.12434">
        <ele>864.79998779297</ele>
        <time>2019-02-16T12:58:16.000Z</time>
      </trkpt>
      <trkpt lat="43.97673" lon="7.12436">
        <ele>865</ele>
        <time>2019-02-16T12:58:17.000Z</time>
      </trkpt>
      <trkpt lat="43.97664" lon="7.12433">
        <ele>865</ele>
        <time>2019-02-16T12:58:21.000Z</time>
      </trkpt>
      <trkpt lat="43.97661" lon="7.12431">
        <ele>865.20001220703</ele>
        <time>2019-02-16T12:58:22.000Z</time>
      </trkpt>
      <trkpt lat="43.97642" lon="7.12421">
        <ele>865.40002441406</ele>
        <time>2019-02-16T12:58:28.000Z</time>
      </trkpt>
      <trkpt lat="43.97627" lon="7.12414">
        <ele>865</ele>
        <time>2019-02-16T12:58:34.000Z</time>
      </trkpt>
      <trkpt lat="43.97614" lon="7.12415">
        <ele>866</ele>
        <time>2019-02-16T12:58:39.000Z</time>
      </trkpt>
      <trkpt lat="43.97612" lon="7.12414">
        <ele>866.20001220703</ele>
        <time>2019-02-16T12:58:40.000Z</time>
      </trkpt>
      <trkpt lat="43.97604" lon="7.12409">
        <ele>866.79998779297</ele>
        <time>2019-02-16T12:58:44.000Z</time>
      </trkpt>
      <trkpt lat="43.97595" lon="7.12408">
        <ele>867.20001220703</ele>
        <time>2019-02-16T12:58:48.000Z</time>
      </trkpt>
      <trkpt lat="43.97593" lon="7.12409">
        <ele>867.40002441406</ele>
        <time>2019-02-16T12:58:49.000Z</time>
      </trkpt>
      <trkpt lat="43.9758" lon="7.1241">
        <ele>868.20001220703</ele>
        <time>2019-02-16T12:58:54.000Z</time>
      </trkpt>
      <trkpt lat="43.97577" lon="7.1241">
        <ele>868.20001220703</ele>
        <time>2019-02-16T12:58:56.000Z</time>
      </trkpt>
      <trkpt lat="43.97576" lon="7.12417">
        <ele>868.20001220703</ele>
        <time>2019-02-16T12:58:58.000Z</time>
      </trkpt>
      <trkpt lat="43.97574" lon="7.12423">
        <ele>867.79998779297</ele>
        <time>2019-02-16T12:59:00.000Z</time>
      </trkpt>
      <trkpt lat="43.97572" lon="7.12427">
        <ele>868</ele>
        <time>2019-02-16T12:59:03.000Z</time>
      </trkpt>
      <trkpt lat="43.9757" lon="7.12428">
        <ele>868.20001220703</ele>
        <time>2019-02-16T12:59:04.000Z</time>
      </trkpt>
      <trkpt lat="43.97569" lon="7.12429">
        <ele>868.59997558594</ele>
        <time>2019-02-16T12:59:05.000Z</time>
      </trkpt>
      <trkpt lat="43.97564" lon="7.12434">
        <ele>869.20001220703</ele>
        <time>2019-02-16T12:59:09.000Z</time>
      </trkpt>
      <trkpt lat="43.97562" lon="7.12436">
        <ele>869.79998779297</ele>
        <time>2019-02-16T12:59:11.000Z</time>
      </trkpt>
      <trkpt lat="43.97555" lon="7.12443">
        <ele>870.79998779297</ele>
        <time>2019-02-16T12:59:16.000Z</time>
      </trkpt>
      <trkpt lat="43.97553" lon="7.12443">
        <ele>870.79998779297</ele>
        <time>2019-02-16T12:59:17.000Z</time>
      </trkpt>
      <trkpt lat="43.97543" lon="7.12442">
        <ele>871.79998779297</ele>
        <time>2019-02-16T12:59:23.000Z</time>
      </trkpt>
      <trkpt lat="43.97541" lon="7.12441">
        <ele>872</ele>
        <time>2019-02-16T12:59:24.000Z</time>
      </trkpt>
      <trkpt lat="43.97532" lon="7.1244">
        <ele>873.59997558594</ele>
        <time>2019-02-16T12:59:28.000Z</time>
      </trkpt>
      <trkpt lat="43.97528" lon="7.1244">
        <ele>873.59997558594</ele>
        <time>2019-02-16T12:59:30.000Z</time>
      </trkpt>
      <trkpt lat="43.97519" lon="7.12447">
        <ele>874.59997558594</ele>
        <time>2019-02-16T12:59:35.000Z</time>
      </trkpt>
      <trkpt lat="43.97517" lon="7.12448">
        <ele>874.79998779297</ele>
        <time>2019-02-16T12:59:36.000Z</time>
      </trkpt>
      <trkpt lat="43.97509" lon="7.1245">
        <ele>876</ele>
        <time>2019-02-16T12:59:40.000Z</time>
      </trkpt>
      <trkpt lat="43.97505" lon="7.1245">
        <ele>876.20001220703</ele>
        <time>2019-02-16T12:59:42.000Z</time>
      </trkpt>
      <trkpt lat="43.97502" lon="7.12451">
        <ele>876.20001220703</ele>
        <time>2019-02-16T12:59:44.000Z</time>
      </trkpt>
      <trkpt lat="43.97492" lon="7.12456">
        <ele>876.79998779297</ele>
        <time>2019-02-16T12:59:50.000Z</time>
      </trkpt>
      <trkpt lat="43.9749" lon="7.12457">
        <ele>877.20001220703</ele>
        <time>2019-02-16T12:59:51.000Z</time>
      </trkpt>
      <trkpt lat="43.9748" lon="7.12455">
        <ele>878</ele>
        <time>2019-02-16T12:59:56.000Z</time>
      </trkpt>
      <trkpt lat="43.97479" lon="7.12454">
        <ele>878.20001220703</ele>
        <time>2019-02-16T12:59:57.000Z</time>
      </trkpt>
      <trkpt lat="43.97462" lon="7.12446">
        <ele>879</ele>
        <time>2019-02-16T13:00:04.000Z</time>
      </trkpt>
      <trkpt lat="43.97459" lon="7.12445">
        <ele>879.20001220703</ele>
        <time>2019-02-16T13:00:05.000Z</time>
      </trkpt>
      <trkpt lat="43.97447" lon="7.12444">
        <ele>879.40002441406</ele>
        <time>2019-02-16T13:00:10.000Z</time>
      </trkpt>
      <trkpt lat="43.97434" lon="7.12438">
        <ele>880.20001220703</ele>
        <time>2019-02-16T13:00:16.000Z</time>
      </trkpt>
      <trkpt lat="43.97428" lon="7.12436">
        <ele>881</ele>
        <time>2019-02-16T13:00:20.000Z</time>
      </trkpt>
      <trkpt lat="43.97426" lon="7.12437">
        <ele>881.20001220703</ele>
        <time>2019-02-16T13:00:21.000Z</time>
      </trkpt>
      <trkpt lat="43.97425" lon="7.12438">
        <ele>881.40002441406</ele>
        <time>2019-02-16T13:00:22.000Z</time>
      </trkpt>
      <trkpt lat="43.97418" lon="7.12442">
        <ele>882.40002441406</ele>
        <time>2019-02-16T13:00:27.000Z</time>
      </trkpt>
      <trkpt lat="43.97412" lon="7.12446">
        <ele>883.59997558594</ele>
        <time>2019-02-16T13:00:31.000Z</time>
      </trkpt>
      <trkpt lat="43.97407" lon="7.12449">
        <ele>884.20001220703</ele>
        <time>2019-02-16T13:00:35.000Z</time>
      </trkpt>
      <trkpt lat="43.97404" lon="7.12449">
        <ele>884.59997558594</ele>
        <time>2019-02-16T13:00:37.000Z</time>
      </trkpt>
      <trkpt lat="43.97392" lon="7.12449">
        <ele>885.59997558594</ele>
        <time>2019-02-16T13:00:44.000Z</time>
      </trkpt>
      <trkpt lat="43.9739" lon="7.12449">
        <ele>885.79998779297</ele>
        <time>2019-02-16T13:00:45.000Z</time>
      </trkpt>
      <trkpt lat="43.97381" lon="7.12452">
        <ele>886.20001220703</ele>
        <time>2019-02-16T13:00:50.000Z</time>
      </trkpt>
      <trkpt lat="43.9738" lon="7.12454">
        <ele>886.20001220703</ele>
        <time>2019-02-16T13:00:51.000Z</time>
      </trkpt>
      <trkpt lat="43.9737" lon="7.12463">
        <ele>886.79998779297</ele>
        <time>2019-02-16T13:00:57.000Z</time>
      </trkpt>
      <trkpt lat="43.97368" lon="7.12465">
        <ele>887</ele>
        <time>2019-02-16T13:00:58.000Z</time>
      </trkpt>
      <trkpt lat="43.97362" lon="7.1247">
        <ele>888</ele>
        <time>2019-02-16T13:01:02.000Z</time>
      </trkpt>
      <trkpt lat="43.97359" lon="7.12472">
        <ele>888.40002441406</ele>
        <time>2019-02-16T13:01:04.000Z</time>
      </trkpt>
      <trkpt lat="43.97346" lon="7.12482">
        <ele>888.79998779297</ele>
        <time>2019-02-16T13:01:11.000Z</time>
      </trkpt>
      <trkpt lat="43.97344" lon="7.12483">
        <ele>889</ele>
        <time>2019-02-16T13:01:12.000Z</time>
      </trkpt>
      <trkpt lat="43.97329" lon="7.12489">
        <ele>889.79998779297</ele>
        <time>2019-02-16T13:01:19.000Z</time>
      </trkpt>
      <trkpt lat="43.97325" lon="7.12491">
        <ele>890.20001220703</ele>
        <time>2019-02-16T13:01:21.000Z</time>
      </trkpt>
      <trkpt lat="43.97319" lon="7.12487">
        <ele>890.40002441406</ele>
        <time>2019-02-16T13:01:24.000Z</time>
      </trkpt>
      <trkpt lat="43.97318" lon="7.12483">
        <ele>890.59997558594</ele>
        <time>2019-02-16T13:01:25.000Z</time>
      </trkpt>
      <trkpt lat="43.97313" lon="7.12465">
        <ele>890.20001220703</ele>
        <time>2019-02-16T13:01:29.000Z</time>
      </trkpt>
      <trkpt lat="43.97312" lon="7.12461">
        <ele>890.20001220703</ele>
        <time>2019-02-16T13:01:30.000Z</time>
      </trkpt>
      <trkpt lat="43.97303" lon="7.12435">
        <ele>889.79998779297</ele>
        <time>2019-02-16T13:01:36.000Z</time>
      </trkpt>
      <trkpt lat="43.97292" lon="7.12411">
        <ele>889.20001220703</ele>
        <time>2019-02-16T13:01:41.000Z</time>
      </trkpt>
      <trkpt lat="43.97289" lon="7.12407">
        <ele>888.79998779297</ele>
        <time>2019-02-16T13:01:42.000Z</time>
      </trkpt>
      <trkpt lat="43.97286" lon="7.12405">
        <ele>888.59997558594</ele>
        <time>2019-02-16T13:01:43.000Z</time>
      </trkpt>
      <trkpt lat="43.97281" lon="7.124">
        <ele>888.20001220703</ele>
        <time>2019-02-16T13:01:45.000Z</time>
      </trkpt>
      <trkpt lat="43.97275" lon="7.12391">
        <ele>888.20001220703</ele>
        <time>2019-02-16T13:01:48.000Z</time>
      </trkpt>
      <trkpt lat="43.97272" lon="7.12368">
        <ele>888.40002441406</ele>
        <time>2019-02-16T13:01:52.000Z</time>
      </trkpt>
      <trkpt lat="43.97272" lon="7.12362">
        <ele>888.40002441406</ele>
        <time>2019-02-16T13:01:53.000Z</time>
      </trkpt>
      <trkpt lat="43.97268" lon="7.1235">
        <ele>888</ele>
        <time>2019-02-16T13:01:55.000Z</time>
      </trkpt>
      <trkpt lat="43.97265" lon="7.12344">
        <ele>887.59997558594</ele>
        <time>2019-02-16T13:01:56.000Z</time>
      </trkpt>
      <trkpt lat="43.97261" lon="7.12333">
        <ele>887.20001220703</ele>
        <time>2019-02-16T13:01:58.000Z</time>
      </trkpt>
      <trkpt lat="43.97257" lon="7.12322">
        <ele>886.79998779297</ele>
        <time>2019-02-16T13:02:00.000Z</time>
      </trkpt>
      <trkpt lat="43.97255" lon="7.1231">
        <ele>886.79998779297</ele>
        <time>2019-02-16T13:02:02.000Z</time>
      </trkpt>
      <trkpt lat="43.97256" lon="7.12303">
        <ele>886.40002441406</ele>
        <time>2019-02-16T13:02:03.000Z</time>
      </trkpt>
      <trkpt lat="43.97261" lon="7.12291">
        <ele>886.40002441406</ele>
        <time>2019-02-16T13:02:05.000Z</time>
      </trkpt>
      <trkpt lat="43.97266" lon="7.12272">
        <ele>886</ele>
        <time>2019-02-16T13:02:08.000Z</time>
      </trkpt>
      <trkpt lat="43.97267" lon="7.1226">
        <ele>885.79998779297</ele>
        <time>2019-02-16T13:02:10.000Z</time>
      </trkpt>
      <trkpt lat="43.97267" lon="7.12253">
        <ele>885.79998779297</ele>
        <time>2019-02-16T13:02:11.000Z</time>
      </trkpt>
      <trkpt lat="43.97266" lon="7.12246">
        <ele>885.40002441406</ele>
        <time>2019-02-16T13:02:12.000Z</time>
      </trkpt>
      <trkpt lat="43.97267" lon="7.12236">
        <ele>885</ele>
        <time>2019-02-16T13:02:14.000Z</time>
      </trkpt>
      <trkpt lat="43.97272" lon="7.12227">
        <ele>884</ele>
        <time>2019-02-16T13:02:16.000Z</time>
      </trkpt>
      <trkpt lat="43.97274" lon="7.12223">
        <ele>883.79998779297</ele>
        <time>2019-02-16T13:02:17.000Z</time>
      </trkpt>
      <trkpt lat="43.97279" lon="7.12213">
        <ele>882.59997558594</ele>
        <time>2019-02-16T13:02:20.000Z</time>
      </trkpt>
      <trkpt lat="43.9728" lon="7.1221">
        <ele>882.20001220703</ele>
        <time>2019-02-16T13:02:21.000Z</time>
      </trkpt>
      <trkpt lat="43.97281" lon="7.12208">
        <ele>881.59997558594</ele>
        <time>2019-02-16T13:02:22.000Z</time>
      </trkpt>
      <trkpt lat="43.97281" lon="7.12208">
        <ele>881.20001220703</ele>
        <time>2019-02-16T13:02:23.000Z</time>
      </trkpt>
      <trkpt lat="43.97278" lon="7.12205">
        <ele>881</ele>
        <time>2019-02-16T13:02:26.000Z</time>
      </trkpt>
      <trkpt lat="43.97277" lon="7.12204">
        <ele>880.79998779297</ele>
        <time>2019-02-16T13:02:27.000Z</time>
      </trkpt>
      <trkpt lat="43.97271" lon="7.12202">
        <ele>880.59997558594</ele>
        <time>2019-02-16T13:02:32.000Z</time>
      </trkpt>
      <trkpt lat="43.97261" lon="7.12206">
        <ele>880.40002441406</ele>
        <time>2019-02-16T13:02:36.000Z</time>
      </trkpt>
      <trkpt lat="43.9726" lon="7.12205">
        <ele>880</ele>
        <time>2019-02-16T13:02:37.000Z</time>
      </trkpt>
      <trkpt lat="43.97259" lon="7.12205">
        <ele>879.40002441406</ele>
        <time>2019-02-16T13:02:40.000Z</time>
      </trkpt>
      <trkpt lat="43.97258" lon="7.12205">
        <ele>879.79998779297</ele>
        <time>2019-02-16T13:02:48.000Z</time>
      </trkpt>
      <trkpt lat="43.97254" lon="7.12205">
        <ele>880</ele>
        <time>2019-02-16T13:02:53.000Z</time>
      </trkpt>
      <trkpt lat="43.97252" lon="7.12206">
        <ele>880.20001220703</ele>
        <time>2019-02-16T13:02:55.000Z</time>
      </trkpt>
      <trkpt lat="43.97247" lon="7.12206">
        <ele>880.79998779297</ele>
        <time>2019-02-16T13:03:00.000Z</time>
      </trkpt>
      <trkpt lat="43.97239" lon="7.12212">
        <ele>881</ele>
        <time>2019-02-16T13:03:05.000Z</time>
      </trkpt>
      <trkpt lat="43.97229" lon="7.12219">
        <ele>881.20001220703</ele>
        <time>2019-02-16T13:03:09.000Z</time>
      </trkpt>
      <trkpt lat="43.97223" lon="7.12218">
        <ele>881.40002441406</ele>
        <time>2019-02-16T13:03:11.000Z</time>
      </trkpt>
      <trkpt lat="43.97209" lon="7.12213">
        <ele>882</ele>
        <time>2019-02-16T13:03:16.000Z</time>
      </trkpt>
      <trkpt lat="43.97197" lon="7.12212">
        <ele>881.59997558594</ele>
        <time>2019-02-16T13:03:19.000Z</time>
      </trkpt>
      <trkpt lat="43.97192" lon="7.12215">
        <ele>880.79998779297</ele>
        <time>2019-02-16T13:03:21.000Z</time>
      </trkpt>
      <trkpt lat="43.97181" lon="7.12219">
        <ele>881.40002441406</ele>
        <time>2019-02-16T13:03:26.000Z</time>
      </trkpt>
      <trkpt lat="43.97168" lon="7.12228">
        <ele>882.20001220703</ele>
        <time>2019-02-16T13:03:32.000Z</time>
      </trkpt>
      <trkpt lat="43.97164" lon="7.1223">
        <ele>882.59997558594</ele>
        <time>2019-02-16T13:03:34.000Z</time>
      </trkpt>
      <trkpt lat="43.97159" lon="7.12231">
        <ele>883.20001220703</ele>
        <time>2019-02-16T13:03:36.000Z</time>
      </trkpt>
      <trkpt lat="43.97151" lon="7.12229">
        <ele>883.79998779297</ele>
        <time>2019-02-16T13:03:39.000Z</time>
      </trkpt>
      <trkpt lat="43.97139" lon="7.12224">
        <ele>883.79998779297</ele>
        <time>2019-02-16T13:03:44.000Z</time>
      </trkpt>
      <trkpt lat="43.97137" lon="7.12225">
        <ele>884</ele>
        <time>2019-02-16T13:03:45.000Z</time>
      </trkpt>
      <trkpt lat="43.97129" lon="7.12227">
        <ele>884.40002441406</ele>
        <time>2019-02-16T13:03:49.000Z</time>
      </trkpt>
      <trkpt lat="43.97124" lon="7.12226">
        <ele>884.79998779297</ele>
        <time>2019-02-16T13:03:51.000Z</time>
      </trkpt>
      <trkpt lat="43.97116" lon="7.12226">
        <ele>885.40002441406</ele>
        <time>2019-02-16T13:03:55.000Z</time>
      </trkpt>
      <trkpt lat="43.97112" lon="7.12225">
        <ele>885.79998779297</ele>
        <time>2019-02-16T13:03:57.000Z</time>
      </trkpt>
      <trkpt lat="43.97101" lon="7.12222">
        <ele>886.59997558594</ele>
        <time>2019-02-16T13:04:01.000Z</time>
      </trkpt>
      <trkpt lat="43.97097" lon="7.12219">
        <ele>886.59997558594</ele>
        <time>2019-02-16T13:04:03.000Z</time>
      </trkpt>
      <trkpt lat="43.97092" lon="7.1222">
        <ele>887</ele>
        <time>2019-02-16T13:04:06.000Z</time>
      </trkpt>
      <trkpt lat="43.97091" lon="7.12222">
        <ele>887</ele>
        <time>2019-02-16T13:04:07.000Z</time>
      </trkpt>
      <trkpt lat="43.97087" lon="7.12228">
        <ele>887.79998779297</ele>
        <time>2019-02-16T13:04:11.000Z</time>
      </trkpt>
      <trkpt lat="43.97086" lon="7.12229">
        <ele>888.20001220703</ele>
        <time>2019-02-16T13:04:12.000Z</time>
      </trkpt>
      <trkpt lat="43.9708" lon="7.12231">
        <ele>888.79998779297</ele>
        <time>2019-02-16T13:04:15.000Z</time>
      </trkpt>
      <trkpt lat="43.97077" lon="7.12229">
        <ele>888.59997558594</ele>
        <time>2019-02-16T13:04:16.000Z</time>
      </trkpt>
      <trkpt lat="43.9707" lon="7.12226">
        <ele>888.20001220703</ele>
        <time>2019-02-16T13:04:19.000Z</time>
      </trkpt>
      <trkpt lat="43.97062" lon="7.12222">
        <ele>888.20001220703</ele>
        <time>2019-02-16T13:04:23.000Z</time>
      </trkpt>
      <trkpt lat="43.9706" lon="7.12222">
        <ele>886.79998779297</ele>
        <time>2019-02-16T13:04:28.000Z</time>
      </trkpt>
      <trkpt lat="43.9706" lon="7.12222">
        <ele>886.59997558594</ele>
        <time>2019-02-16T13:04:32.000Z</time>
      </trkpt>
      <trkpt lat="43.97058" lon="7.12221">
        <ele>886.40002441406</ele>
        <time>2019-02-16T13:04:39.000Z</time>
      </trkpt>
      <trkpt lat="43.97058" lon="7.12223">
        <ele>886</ele>
        <time>2019-02-16T13:04:46.000Z</time>
      </trkpt>
      <trkpt lat="43.97056" lon="7.12227">
        <ele>886.40002441406</ele>
        <time>2019-02-16T13:04:54.000Z</time>
      </trkpt>
      <trkpt lat="43.97058" lon="7.12235">
        <ele>886.79998779297</ele>
        <time>2019-02-16T13:05:00.000Z</time>
      </trkpt>
      <trkpt lat="43.97059" lon="7.12242">
        <ele>887.59997558594</ele>
        <time>2019-02-16T13:05:05.000Z</time>
      </trkpt>
      <trkpt lat="43.97058" lon="7.12243">
        <ele>887.79998779297</ele>
        <time>2019-02-16T13:05:06.000Z</time>
      </trkpt>
      <trkpt lat="43.97057" lon="7.12244">
        <ele>888</ele>
        <time>2019-02-16T13:05:07.000Z</time>
      </trkpt>
      <trkpt lat="43.97054" lon="7.12245">
        <ele>888.40002441406</ele>
        <time>2019-02-16T13:05:09.000Z</time>
      </trkpt>
      <trkpt lat="43.97052" lon="7.12246">
        <ele>889</ele>
        <time>2019-02-16T13:05:12.000Z</time>
      </trkpt>
      <trkpt lat="43.9705" lon="7.12246">
        <ele>889.40002441406</ele>
        <time>2019-02-16T13:05:14.000Z</time>
      </trkpt>
      <trkpt lat="43.97048" lon="7.12247">
        <ele>890.20001220703</ele>
        <time>2019-02-16T13:05:17.000Z</time>
      </trkpt>
      <trkpt lat="43.97044" lon="7.12248">
        <ele>891.20001220703</ele>
        <time>2019-02-16T13:05:21.000Z</time>
      </trkpt>
      <trkpt lat="43.97043" lon="7.12249">
        <ele>891.79998779297</ele>
        <time>2019-02-16T13:05:23.000Z</time>
      </trkpt>
      <trkpt lat="43.9704" lon="7.12249">
        <ele>892.20001220703</ele>
        <time>2019-02-16T13:05:25.000Z</time>
      </trkpt>
      <trkpt lat="43.97036" lon="7.12249">
        <ele>893.40002441406</ele>
        <time>2019-02-16T13:05:30.000Z</time>
      </trkpt>
      <trkpt lat="43.97035" lon="7.12248">
        <ele>894</ele>
        <time>2019-02-16T13:05:32.000Z</time>
      </trkpt>
      <trkpt lat="43.97033" lon="7.12247">
        <ele>894.79998779297</ele>
        <time>2019-02-16T13:05:35.000Z</time>
      </trkpt>
      <trkpt lat="43.97029" lon="7.12246">
        <ele>896</ele>
        <time>2019-02-16T13:05:41.000Z</time>
      </trkpt>
      <trkpt lat="43.97024" lon="7.12245">
        <ele>897</ele>
        <time>2019-02-16T13:05:46.000Z</time>
      </trkpt>
      <trkpt lat="43.97022" lon="7.12245">
        <ele>897.40002441406</ele>
        <time>2019-02-16T13:05:49.000Z</time>
      </trkpt>
      <trkpt lat="43.97019" lon="7.12245">
        <ele>898.20001220703</ele>
        <time>2019-02-16T13:05:53.000Z</time>
      </trkpt>
      <trkpt lat="43.97016" lon="7.12245">
        <ele>899.40002441406</ele>
        <time>2019-02-16T13:05:58.000Z</time>
      </trkpt>
      <trkpt lat="43.97013" lon="7.12244">
        <ele>899.79998779297</ele>
        <time>2019-02-16T13:06:00.000Z</time>
      </trkpt>
      <trkpt lat="43.97011" lon="7.12243">
        <ele>900.40002441406</ele>
        <time>2019-02-16T13:06:03.000Z</time>
      </trkpt>
      <trkpt lat="43.9701" lon="7.12243">
        <ele>901</ele>
        <time>2019-02-16T13:06:08.000Z</time>
      </trkpt>
      <trkpt lat="43.97008" lon="7.12245">
        <ele>900.59997558594</ele>
        <time>2019-02-16T13:06:16.000Z</time>
      </trkpt>
      <trkpt lat="43.97005" lon="7.12244">
        <ele>900.59997558594</ele>
        <time>2019-02-16T13:06:25.000Z</time>
      </trkpt>
      <trkpt lat="43.97003" lon="7.12243">
        <ele>901.40002441406</ele>
        <time>2019-02-16T13:06:30.000Z</time>
      </trkpt>
      <trkpt lat="43.97002" lon="7.12243">
        <ele>902</ele>
        <time>2019-02-16T13:06:34.000Z</time>
      </trkpt>
      <trkpt lat="43.97002" lon="7.12246">
        <ele>902</ele>
        <time>2019-02-16T13:06:35.000Z</time>
      </trkpt>
      <trkpt lat="43.97002" lon="7.12248">
        <ele>902.40002441406</ele>
        <time>2019-02-16T13:06:39.000Z</time>
      </trkpt>
      <trkpt lat="43.97001" lon="7.12252">
        <ele>903.40002441406</ele>
        <time>2019-02-16T13:06:44.000Z</time>
      </trkpt>
      <trkpt lat="43.97001" lon="7.12254">
        <ele>903.59997558594</ele>
        <time>2019-02-16T13:06:45.000Z</time>
      </trkpt>
      <trkpt lat="43.97001" lon="7.12257">
        <ele>904.79998779297</ele>
        <time>2019-02-16T13:06:48.000Z</time>
      </trkpt>
      <trkpt lat="43.97" lon="7.12259">
        <ele>905.40002441406</ele>
        <time>2019-02-16T13:06:50.000Z</time>
      </trkpt>
      <trkpt lat="43.96998" lon="7.12262">
        <ele>905.79998779297</ele>
        <time>2019-02-16T13:06:53.000Z</time>
      </trkpt>
      <trkpt lat="43.96995" lon="7.12267">
        <ele>906.59997558594</ele>
        <time>2019-02-16T13:06:58.000Z</time>
      </trkpt>
      <trkpt lat="43.96994" lon="7.1227">
        <ele>907</ele>
        <time>2019-02-16T13:07:01.000Z</time>
      </trkpt>
      <trkpt lat="43.96994" lon="7.12272">
        <ele>907.79998779297</ele>
        <time>2019-02-16T13:07:05.000Z</time>
      </trkpt>
      <trkpt lat="43.96993" lon="7.12285">
        <ele>908</ele>
        <time>2019-02-16T13:07:11.000Z</time>
      </trkpt>
      <trkpt lat="43.96993" lon="7.12287">
        <ele>908</ele>
        <time>2019-02-16T13:07:12.000Z</time>
      </trkpt>
      <trkpt lat="43.96989" lon="7.12294">
        <ele>908.59997558594</ele>
        <time>2019-02-16T13:07:15.000Z</time>
      </trkpt>
      <trkpt lat="43.96986" lon="7.12295">
        <ele>909</ele>
        <time>2019-02-16T13:07:17.000Z</time>
      </trkpt>
      <trkpt lat="43.96985" lon="7.12296">
        <ele>909.20001220703</ele>
        <time>2019-02-16T13:07:18.000Z</time>
      </trkpt>
      <trkpt lat="43.96977" lon="7.12296">
        <ele>910.20001220703</ele>
        <time>2019-02-16T13:07:22.000Z</time>
      </trkpt>
      <trkpt lat="43.96973" lon="7.12295">
        <ele>910.59997558594</ele>
        <time>2019-02-16T13:07:24.000Z</time>
      </trkpt>
      <trkpt lat="43.96967" lon="7.12293">
        <ele>911.20001220703</ele>
        <time>2019-02-16T13:07:27.000Z</time>
      </trkpt>
      <trkpt lat="43.96957" lon="7.12285">
        <ele>911.79998779297</ele>
        <time>2019-02-16T13:07:32.000Z</time>
      </trkpt>
      <trkpt lat="43.96947" lon="7.12278">
        <ele>912.20001220703</ele>
        <time>2019-02-16T13:07:37.000Z</time>
      </trkpt>
      <trkpt lat="43.96941" lon="7.12272">
        <ele>912.20001220703</ele>
        <time>2019-02-16T13:07:39.000Z</time>
      </trkpt>
      <trkpt lat="43.96938" lon="7.12267">
        <ele>911.79998779297</ele>
        <time>2019-02-16T13:07:42.000Z</time>
      </trkpt>
      <trkpt lat="43.96937" lon="7.12266">
        <ele>912</ele>
        <time>2019-02-16T13:07:43.000Z</time>
      </trkpt>
      <trkpt lat="43.96929" lon="7.12262">
        <ele>912.59997558594</ele>
        <time>2019-02-16T13:07:47.000Z</time>
      </trkpt>
      <trkpt lat="43.96919" lon="7.12255">
        <ele>913.20001220703</ele>
        <time>2019-02-16T13:07:53.000Z</time>
      </trkpt>
      <trkpt lat="43.96915" lon="7.12252">
        <ele>913.79998779297</ele>
        <time>2019-02-16T13:08:00.000Z</time>
      </trkpt>
      <trkpt lat="43.9691" lon="7.12247">
        <ele>914.40002441406</ele>
        <time>2019-02-16T13:08:10.000Z</time>
      </trkpt>
      <trkpt lat="43.96908" lon="7.12245">
        <ele>915.40002441406</ele>
        <time>2019-02-16T13:08:16.000Z</time>
      </trkpt>
      <trkpt lat="43.96907" lon="7.12245">
        <ele>915.59997558594</ele>
        <time>2019-02-16T13:08:17.000Z</time>
      </trkpt>
      <trkpt lat="43.96906" lon="7.12246">
        <ele>915.79998779297</ele>
        <time>2019-02-16T13:08:18.000Z</time>
      </trkpt>
      <trkpt lat="43.96901" lon="7.12252">
        <ele>915.59997558594</ele>
        <time>2019-02-16T13:08:25.000Z</time>
      </trkpt>
      <trkpt lat="43.96898" lon="7.12252">
        <ele>915.79998779297</ele>
        <time>2019-02-16T13:08:28.000Z</time>
      </trkpt>
      <trkpt lat="43.96894" lon="7.12249">
        <ele>916.40002441406</ele>
        <time>2019-02-16T13:08:33.000Z</time>
      </trkpt>
      <trkpt lat="43.96893" lon="7.12248">
        <ele>916.59997558594</ele>
        <time>2019-02-16T13:08:34.000Z</time>
      </trkpt>
      <trkpt lat="43.96892" lon="7.12248">
        <ele>916.79998779297</ele>
        <time>2019-02-16T13:08:35.000Z</time>
      </trkpt>
      <trkpt lat="43.96888" lon="7.12251">
        <ele>917.40002441406</ele>
        <time>2019-02-16T13:08:39.000Z</time>
      </trkpt>
      <trkpt lat="43.96887" lon="7.12252">
        <ele>917.59997558594</ele>
        <time>2019-02-16T13:08:40.000Z</time>
      </trkpt>
      <trkpt lat="43.96884" lon="7.12256">
        <ele>918.79998779297</ele>
        <time>2019-02-16T13:08:46.000Z</time>
      </trkpt>
      <trkpt lat="43.96882" lon="7.12259">
        <ele>919.20001220703</ele>
        <time>2019-02-16T13:08:49.000Z</time>
      </trkpt>
      <trkpt lat="43.9688" lon="7.12261">
        <ele>920</ele>
        <time>2019-02-16T13:08:52.000Z</time>
      </trkpt>
      <trkpt lat="43.96877" lon="7.12265">
        <ele>921.20001220703</ele>
        <time>2019-02-16T13:08:57.000Z</time>
      </trkpt>
      <trkpt lat="43.96876" lon="7.12267">
        <ele>921.59997558594</ele>
        <time>2019-02-16T13:08:59.000Z</time>
      </trkpt>
      <trkpt lat="43.96874" lon="7.1227">
        <ele>922.20001220703</ele>
        <time>2019-02-16T13:09:01.000Z</time>
      </trkpt>
      <trkpt lat="43.96873" lon="7.12273">
        <ele>923</ele>
        <time>2019-02-16T13:09:05.000Z</time>
      </trkpt>
      <trkpt lat="43.96872" lon="7.12274">
        <ele>923</ele>
        <time>2019-02-16T13:09:06.000Z</time>
      </trkpt>
      <trkpt lat="43.96869" lon="7.12279">
        <ele>923</ele>
        <time>2019-02-16T13:09:08.000Z</time>
      </trkpt>
      <trkpt lat="43.96864" lon="7.12281">
        <ele>922.79998779297</ele>
        <time>2019-02-16T13:09:10.000Z</time>
      </trkpt>
      <trkpt lat="43.96852" lon="7.12279">
        <ele>921.79998779297</ele>
        <time>2019-02-16T13:09:15.000Z</time>
      </trkpt>
      <trkpt lat="43.96843" lon="7.12273">
        <ele>921.59997558594</ele>
        <time>2019-02-16T13:09:20.000Z</time>
      </trkpt>
      <trkpt lat="43.96831" lon="7.12269">
        <ele>921.59997558594</ele>
        <time>2019-02-16T13:09:26.000Z</time>
      </trkpt>
      <trkpt lat="43.96827" lon="7.12268">
        <ele>921</ele>
        <time>2019-02-16T13:09:28.000Z</time>
      </trkpt>
      <trkpt lat="43.96823" lon="7.12268">
        <ele>920.79998779297</ele>
        <time>2019-02-16T13:09:30.000Z</time>
      </trkpt>
      <trkpt lat="43.96818" lon="7.1227">
        <ele>921</ele>
        <time>2019-02-16T13:09:32.000Z</time>
      </trkpt>
      <trkpt lat="43.96815" lon="7.12272">
        <ele>920.40002441406</ele>
        <time>2019-02-16T13:09:35.000Z</time>
      </trkpt>
      <trkpt lat="43.96815" lon="7.12272">
        <ele>920.20001220703</ele>
        <time>2019-02-16T13:09:36.000Z</time>
      </trkpt>
      <trkpt lat="43.96815" lon="7.12274">
        <ele>920</ele>
        <time>2019-02-16T13:09:37.000Z</time>
      </trkpt>
      <trkpt lat="43.96819" lon="7.1228">
        <ele>920.20001220703</ele>
        <time>2019-02-16T13:09:40.000Z</time>
      </trkpt>
      <trkpt lat="43.9682" lon="7.12292">
        <ele>919.79998779297</ele>
        <time>2019-02-16T13:09:43.000Z</time>
      </trkpt>
      <trkpt lat="43.96819" lon="7.12295">
        <ele>919.59997558594</ele>
        <time>2019-02-16T13:09:44.000Z</time>
      </trkpt>
      <trkpt lat="43.96818" lon="7.12301">
        <ele>918.79998779297</ele>
        <time>2019-02-16T13:09:46.000Z</time>
      </trkpt>
      <trkpt lat="43.96812" lon="7.12311">
        <ele>919.40002441406</ele>
        <time>2019-02-16T13:09:51.000Z</time>
      </trkpt>
      <trkpt lat="43.96805" lon="7.12319">
        <ele>920</ele>
        <time>2019-02-16T13:09:55.000Z</time>
      </trkpt>
      <trkpt lat="43.96801" lon="7.12325">
        <ele>920</ele>
        <time>2019-02-16T13:09:57.000Z</time>
      </trkpt>
      <trkpt lat="43.96796" lon="7.12331">
        <ele>919.40002441406</ele>
        <time>2019-02-16T13:10:00.000Z</time>
      </trkpt>
      <trkpt lat="43.96796" lon="7.12331">
        <ele>919</ele>
        <time>2019-02-16T13:10:01.000Z</time>
      </trkpt>
      <trkpt lat="43.96794" lon="7.12334">
        <ele>918</ele>
        <time>2019-02-16T13:10:08.000Z</time>
      </trkpt>
      <trkpt lat="43.96794" lon="7.12338">
        <ele>917.79998779297</ele>
        <time>2019-02-16T13:10:09.000Z</time>
      </trkpt>
      <trkpt lat="43.96796" lon="7.12339">
        <ele>917.79998779297</ele>
        <time>2019-02-16T13:10:10.000Z</time>
      </trkpt>
      <trkpt lat="43.96799" lon="7.12346">
        <ele>917.59997558594</ele>
        <time>2019-02-16T13:10:16.000Z</time>
      </trkpt>
      <trkpt lat="43.968" lon="7.12362">
        <ele>918.40002441406</ele>
        <time>2019-02-16T13:10:24.000Z</time>
      </trkpt>
      <trkpt lat="43.968" lon="7.12363">
        <ele>919.20001220703</ele>
        <time>2019-02-16T13:10:26.000Z</time>
      </trkpt>
      <trkpt lat="43.96801" lon="7.12365">
        <ele>919.59997558594</ele>
        <time>2019-02-16T13:10:28.000Z</time>
      </trkpt>
      <trkpt lat="43.968" lon="7.12366">
        <ele>919.79998779297</ele>
        <time>2019-02-16T13:10:29.000Z</time>
      </trkpt>
      <trkpt lat="43.968" lon="7.12367">
        <ele>920</ele>
        <time>2019-02-16T13:10:30.000Z</time>
      </trkpt>
      <trkpt lat="43.96801" lon="7.12371">
        <ele>920.20001220703</ele>
        <time>2019-02-16T13:10:33.000Z</time>
      </trkpt>
      <trkpt lat="43.96801" lon="7.12374">
        <ele>921</ele>
        <time>2019-02-16T13:10:36.000Z</time>
      </trkpt>
      <trkpt lat="43.96803" lon="7.12381">
        <ele>921.20001220703</ele>
        <time>2019-02-16T13:10:40.000Z</time>
      </trkpt>
      <trkpt lat="43.96804" lon="7.12384">
        <ele>921.40002441406</ele>
        <time>2019-02-16T13:10:42.000Z</time>
      </trkpt>
      <trkpt lat="43.96805" lon="7.1239">
        <ele>921.59997558594</ele>
        <time>2019-02-16T13:10:44.000Z</time>
      </trkpt>
      <trkpt lat="43.96807" lon="7.12397">
        <ele>921.40002441406</ele>
        <time>2019-02-16T13:10:46.000Z</time>
      </trkpt>
      <trkpt lat="43.96809" lon="7.12407">
        <ele>921.40002441406</ele>
        <time>2019-02-16T13:10:50.000Z</time>
      </trkpt>
      <trkpt lat="43.96808" lon="7.12411">
        <ele>921.59997558594</ele>
        <time>2019-02-16T13:10:52.000Z</time>
      </trkpt>
      <trkpt lat="43.96806" lon="7.12418">
        <ele>922.20001220703</ele>
        <time>2019-02-16T13:10:55.000Z</time>
      </trkpt>
      <trkpt lat="43.96802" lon="7.12424">
        <ele>923.20001220703</ele>
        <time>2019-02-16T13:10:59.000Z</time>
      </trkpt>
      <trkpt lat="43.968" lon="7.12424">
        <ele>923.40002441406</ele>
        <time>2019-02-16T13:11:00.000Z</time>
      </trkpt>
      <trkpt lat="43.96792" lon="7.12431">
        <ele>924.59997558594</ele>
        <time>2019-02-16T13:11:04.000Z</time>
      </trkpt>
      <trkpt lat="43.96788" lon="7.12433">
        <ele>924.40002441406</ele>
        <time>2019-02-16T13:11:05.000Z</time>
      </trkpt>
      <trkpt lat="43.96779" lon="7.12439">
        <ele>923.40002441406</ele>
        <time>2019-02-16T13:11:08.000Z</time>
      </trkpt>
      <trkpt lat="43.96773" lon="7.12445">
        <ele>922.59997558594</ele>
        <time>2019-02-16T13:11:11.000Z</time>
      </trkpt>
      <trkpt lat="43.96762" lon="7.12452">
        <ele>922.79998779297</ele>
        <time>2019-02-16T13:11:17.000Z</time>
      </trkpt>
      <trkpt lat="43.96757" lon="7.12456">
        <ele>922.79998779297</ele>
        <time>2019-02-16T13:11:21.000Z</time>
      </trkpt>
      <trkpt lat="43.96751" lon="7.12464">
        <ele>922.79998779297</ele>
        <time>2019-02-16T13:11:26.000Z</time>
      </trkpt>
      <trkpt lat="43.96748" lon="7.12467">
        <ele>922.79998779297</ele>
        <time>2019-02-16T13:11:28.000Z</time>
      </trkpt>
      <trkpt lat="43.96746" lon="7.12469">
        <ele>922.79998779297</ele>
        <time>2019-02-16T13:11:31.000Z</time>
      </trkpt>
      <trkpt lat="43.96746" lon="7.12478">
        <ele>923.79998779297</ele>
        <time>2019-02-16T13:11:38.000Z</time>
      </trkpt>
      <trkpt lat="43.96746" lon="7.12483">
        <ele>924.40002441406</ele>
        <time>2019-02-16T13:11:41.000Z</time>
      </trkpt>
      <trkpt lat="43.96746" lon="7.12486">
        <ele>925</ele>
        <time>2019-02-16T13:11:44.000Z</time>
      </trkpt>
      <trkpt lat="43.96745" lon="7.12494">
        <ele>925.59997558594</ele>
        <time>2019-02-16T13:11:49.000Z</time>
      </trkpt>
      <trkpt lat="43.96745" lon="7.12495">
        <ele>925.79998779297</ele>
        <time>2019-02-16T13:11:50.000Z</time>
      </trkpt>
      <trkpt lat="43.96744" lon="7.12499">
        <ele>926.59997558594</ele>
        <time>2019-02-16T13:11:54.000Z</time>
      </trkpt>
      <trkpt lat="43.96744" lon="7.12504">
        <ele>927.40002441406</ele>
        <time>2019-02-16T13:11:59.000Z</time>
      </trkpt>
      <trkpt lat="43.96744" lon="7.12506">
        <ele>927.59997558594</ele>
        <time>2019-02-16T13:12:00.000Z</time>
      </trkpt>
      <trkpt lat="43.96743" lon="7.12511">
        <ele>928.59997558594</ele>
        <time>2019-02-16T13:12:05.000Z</time>
      </trkpt>
      <trkpt lat="43.96743" lon="7.12514">
        <ele>929</ele>
        <time>2019-02-16T13:12:07.000Z</time>
      </trkpt>
      <trkpt lat="43.96743" lon="7.12519">
        <ele>929.59997558594</ele>
        <time>2019-02-16T13:12:12.000Z</time>
      </trkpt>
      <trkpt lat="43.96743" lon="7.12521">
        <ele>930.20001220703</ele>
        <time>2019-02-16T13:12:15.000Z</time>
      </trkpt>
      <trkpt lat="43.96744" lon="7.12524">
        <ele>930.79998779297</ele>
        <time>2019-02-16T13:12:18.000Z</time>
      </trkpt>
      <trkpt lat="43.96745" lon="7.12529">
        <ele>931.40002441406</ele>
        <time>2019-02-16T13:12:22.000Z</time>
      </trkpt>
      <trkpt lat="43.96743" lon="7.12539">
        <ele>931.79998779297</ele>
        <time>2019-02-16T13:12:27.000Z</time>
      </trkpt>
      <trkpt lat="43.96742" lon="7.12541">
        <ele>932</ele>
        <time>2019-02-16T13:12:28.000Z</time>
      </trkpt>
      <trkpt lat="43.96732" lon="7.12553">
        <ele>931.20001220703</ele>
        <time>2019-02-16T13:12:34.000Z</time>
      </trkpt>
      <trkpt lat="43.96725" lon="7.12561">
        <ele>931.20001220703</ele>
        <time>2019-02-16T13:12:39.000Z</time>
      </trkpt>
      <trkpt lat="43.96727" lon="7.12565">
        <ele>931.40002441406</ele>
        <time>2019-02-16T13:12:43.000Z</time>
      </trkpt>
      <trkpt lat="43.96728" lon="7.12571">
        <ele>931.79998779297</ele>
        <time>2019-02-16T13:12:46.000Z</time>
      </trkpt>
      <trkpt lat="43.96728" lon="7.12576">
        <ele>931.79998779297</ele>
        <time>2019-02-16T13:12:47.000Z</time>
      </trkpt>
      <trkpt lat="43.96725" lon="7.12584">
        <ele>931</ele>
        <time>2019-02-16T13:12:51.000Z</time>
      </trkpt>
      <trkpt lat="43.96724" lon="7.12586">
        <ele>930.59997558594</ele>
        <time>2019-02-16T13:12:53.000Z</time>
      </trkpt>
      <trkpt lat="43.96724" lon="7.12589">
        <ele>930.79998779297</ele>
        <time>2019-02-16T13:12:57.000Z</time>
      </trkpt>
      <trkpt lat="43.96724" lon="7.12593">
        <ele>930.40002441406</ele>
        <time>2019-02-16T13:13:01.000Z</time>
      </trkpt>
      <trkpt lat="43.96726" lon="7.12594">
        <ele>930.40002441406</ele>
        <time>2019-02-16T13:13:03.000Z</time>
      </trkpt>
      <trkpt lat="43.9673" lon="7.12595">
        <ele>930.59997558594</ele>
        <time>2019-02-16T13:13:09.000Z</time>
      </trkpt>
      <trkpt lat="43.96731" lon="7.12599">
        <ele>931.79998779297</ele>
        <time>2019-02-16T13:13:15.000Z</time>
      </trkpt>
      <trkpt lat="43.96732" lon="7.12598">
        <ele>932.20001220703</ele>
        <time>2019-02-16T13:13:20.000Z</time>
      </trkpt>
      <trkpt lat="43.96732" lon="7.12599">
        <ele>932.40002441406</ele>
        <time>2019-02-16T13:13:25.000Z</time>
      </trkpt>
      <trkpt lat="43.96734" lon="7.12598">
        <ele>932.40002441406</ele>
        <time>2019-02-16T13:13:36.000Z</time>
      </trkpt>
      <trkpt lat="43.96734" lon="7.12598">
        <ele>932.59997558594</ele>
        <time>2019-02-16T13:13:47.000Z</time>
      </trkpt>
      <trkpt lat="43.96734" lon="7.12598">
        <ele>932.79998779297</ele>
        <time>2019-02-16T13:13:49.000Z</time>
      </trkpt>
      <trkpt lat="43.96736" lon="7.12599">
        <ele>932.79998779297</ele>
        <time>2019-02-16T13:13:57.000Z</time>
      </trkpt>
      <trkpt lat="43.96735" lon="7.12597">
        <ele>932.40002441406</ele>
        <time>2019-02-16T13:14:03.000Z</time>
      </trkpt>
      <trkpt lat="43.96734" lon="7.12594">
        <ele>932.20001220703</ele>
        <time>2019-02-16T13:14:06.000Z</time>
      </trkpt>
      <trkpt lat="43.96735" lon="7.12594">
        <ele>932.20001220703</ele>
        <time>2019-02-16T13:14:09.000Z</time>
      </trkpt>
      <trkpt lat="43.96736" lon="7.12595">
        <ele>932.79998779297</ele>
        <time>2019-02-16T13:14:19.000Z</time>
      </trkpt>
      <trkpt lat="43.96737" lon="7.12596">
        <ele>932.59997558594</ele>
        <time>2019-02-16T13:14:26.000Z</time>
      </trkpt>
      <trkpt lat="43.96736" lon="7.12594">
        <ele>932.59997558594</ele>
        <time>2019-02-16T13:14:27.000Z</time>
      </trkpt>
      <trkpt lat="43.96737" lon="7.12594">
        <ele>932.59997558594</ele>
        <time>2019-02-16T13:14:30.000Z</time>
      </trkpt>
      <trkpt lat="43.9674" lon="7.12595">
        <ele>932.40002441406</ele>
        <time>2019-02-16T13:14:40.000Z</time>
      </trkpt>
      <trkpt lat="43.96743" lon="7.12595">
        <ele>932.59997558594</ele>
        <time>2019-02-16T13:14:52.000Z</time>
      </trkpt>
      <trkpt lat="43.96746" lon="7.12595">
        <ele>932.20001220703</ele>
        <time>2019-02-16T13:15:03.000Z</time>
      </trkpt>
      <trkpt lat="43.96747" lon="7.12597">
        <ele>932.59997558594</ele>
        <time>2019-02-16T13:15:07.000Z</time>
      </trkpt>
      <trkpt lat="43.96749" lon="7.12599">
        <ele>932.79998779297</ele>
        <time>2019-02-16T13:15:09.000Z</time>
      </trkpt>
      <trkpt lat="43.96758" lon="7.12608">
        <ele>933.20001220703</ele>
        <time>2019-02-16T13:15:15.000Z</time>
      </trkpt>
      <trkpt lat="43.96769" lon="7.12615">
        <ele>932.79998779297</ele>
        <time>2019-02-16T13:15:18.000Z</time>
      </trkpt>
      <trkpt lat="43.96772" lon="7.12619">
        <ele>932.40002441406</ele>
        <time>2019-02-16T13:15:19.000Z</time>
      </trkpt>
      <trkpt lat="43.96779" lon="7.12632">
        <ele>932.20001220703</ele>
        <time>2019-02-16T13:15:22.000Z</time>
      </trkpt>
      <trkpt lat="43.96782" lon="7.12635">
        <ele>932</ele>
        <time>2019-02-16T13:15:23.000Z</time>
      </trkpt>
      <trkpt lat="43.96785" lon="7.12636">
        <ele>931.79998779297</ele>
        <time>2019-02-16T13:15:24.000Z</time>
      </trkpt>
      <trkpt lat="43.96792" lon="7.1264">
        <ele>931</ele>
        <time>2019-02-16T13:15:27.000Z</time>
      </trkpt>
      <trkpt lat="43.96793" lon="7.12645">
        <ele>931</ele>
        <time>2019-02-16T13:15:29.000Z</time>
      </trkpt>
      <trkpt lat="43.96793" lon="7.1265">
        <ele>931</ele>
        <time>2019-02-16T13:15:30.000Z</time>
      </trkpt>
      <trkpt lat="43.96792" lon="7.12667">
        <ele>930.79998779297</ele>
        <time>2019-02-16T13:15:34.000Z</time>
      </trkpt>
      <trkpt lat="43.96792" lon="7.12671">
        <ele>930.20001220703</ele>
        <time>2019-02-16T13:15:35.000Z</time>
      </trkpt>
      <trkpt lat="43.9679" lon="7.12673">
        <ele>929.79998779297</ele>
        <time>2019-02-16T13:15:36.000Z</time>
      </trkpt>
      <trkpt lat="43.9679" lon="7.12675">
        <ele>929.20001220703</ele>
        <time>2019-02-16T13:15:37.000Z</time>
      </trkpt>
      <trkpt lat="43.96787" lon="7.12682">
        <ele>928.40002441406</ele>
        <time>2019-02-16T13:15:39.000Z</time>
      </trkpt>
      <trkpt lat="43.96786" lon="7.12687">
        <ele>928.20001220703</ele>
        <time>2019-02-16T13:15:40.000Z</time>
      </trkpt>
      <trkpt lat="43.96787" lon="7.12699">
        <ele>927</ele>
        <time>2019-02-16T13:15:43.000Z</time>
      </trkpt>
      <trkpt lat="43.96787" lon="7.12705">
        <ele>926.79998779297</ele>
        <time>2019-02-16T13:15:46.000Z</time>
      </trkpt>
      <trkpt lat="43.96787" lon="7.12707">
        <ele>926.79998779297</ele>
        <time>2019-02-16T13:15:47.000Z</time>
      </trkpt>
      <trkpt lat="43.96793" lon="7.12721">
        <ele>927.59997558594</ele>
        <time>2019-02-16T13:15:52.000Z</time>
      </trkpt>
      <trkpt lat="43.96796" lon="7.12732">
        <ele>927.20001220703</ele>
        <time>2019-02-16T13:15:55.000Z</time>
      </trkpt>
      <trkpt lat="43.96794" lon="7.12738">
        <ele>926.79998779297</ele>
        <time>2019-02-16T13:15:56.000Z</time>
      </trkpt>
      <trkpt lat="43.96796" lon="7.12755">
        <ele>925.59997558594</ele>
        <time>2019-02-16T13:15:59.000Z</time>
      </trkpt>
      <trkpt lat="43.96794" lon="7.12765">
        <ele>924.40002441406</ele>
        <time>2019-02-16T13:16:01.000Z</time>
      </trkpt>
      <trkpt lat="43.96786" lon="7.12772">
        <ele>923.20001220703</ele>
        <time>2019-02-16T13:16:03.000Z</time>
      </trkpt>
      <trkpt lat="43.96782" lon="7.12774">
        <ele>923</ele>
        <time>2019-02-16T13:16:04.000Z</time>
      </trkpt>
      <trkpt lat="43.96775" lon="7.12781">
        <ele>922</ele>
        <time>2019-02-16T13:16:06.000Z</time>
      </trkpt>
      <trkpt lat="43.9677" lon="7.12785">
        <ele>921</ele>
        <time>2019-02-16T13:16:08.000Z</time>
      </trkpt>
      <trkpt lat="43.96768" lon="7.12787">
        <ele>920</ele>
        <time>2019-02-16T13:16:09.000Z</time>
      </trkpt>
      <trkpt lat="43.96767" lon="7.12787">
        <ele>919.79998779297</ele>
        <time>2019-02-16T13:16:10.000Z</time>
      </trkpt>
      <trkpt lat="43.96759" lon="7.1279">
        <ele>919.40002441406</ele>
        <time>2019-02-16T13:16:14.000Z</time>
      </trkpt>
      <trkpt lat="43.96752" lon="7.12803">
        <ele>919.20001220703</ele>
        <time>2019-02-16T13:16:19.000Z</time>
      </trkpt>
      <trkpt lat="43.96753" lon="7.12806">
        <ele>918.79998779297</ele>
        <time>2019-02-16T13:16:20.000Z</time>
      </trkpt>
      <trkpt lat="43.96756" lon="7.12813">
        <ele>917.79998779297</ele>
        <time>2019-02-16T13:16:22.000Z</time>
      </trkpt>
      <trkpt lat="43.96757" lon="7.12817">
        <ele>917.40002441406</ele>
        <time>2019-02-16T13:16:23.000Z</time>
      </trkpt>
      <trkpt lat="43.96758" lon="7.12834">
        <ele>916.79998779297</ele>
        <time>2019-02-16T13:16:26.000Z</time>
      </trkpt>
      <trkpt lat="43.96757" lon="7.12839">
        <ele>916.59997558594</ele>
        <time>2019-02-16T13:16:27.000Z</time>
      </trkpt>
      <trkpt lat="43.96755" lon="7.12842">
        <ele>916.40002441406</ele>
        <time>2019-02-16T13:16:28.000Z</time>
      </trkpt>
      <trkpt lat="43.9675" lon="7.12852">
        <ele>915.40002441406</ele>
        <time>2019-02-16T13:16:31.000Z</time>
      </trkpt>
      <trkpt lat="43.96744" lon="7.12869">
        <ele>915.20001220703</ele>
        <time>2019-02-16T13:16:35.000Z</time>
      </trkpt>
      <trkpt lat="43.96735" lon="7.12892">
        <ele>915.20001220703</ele>
        <time>2019-02-16T13:16:41.000Z</time>
      </trkpt>
      <trkpt lat="43.96731" lon="7.12908">
        <ele>913.79998779297</ele>
        <time>2019-02-16T13:16:45.000Z</time>
      </trkpt>
      <trkpt lat="43.96731" lon="7.12908">
        <ele>912.59997558594</ele>
        <time>2019-02-16T13:16:47.000Z</time>
      </trkpt>
      <trkpt lat="43.9673" lon="7.12909">
        <ele>911.59997558594</ele>
        <time>2019-02-16T13:16:49.000Z</time>
      </trkpt>
      <trkpt lat="43.9673" lon="7.12913">
        <ele>911.59997558594</ele>
        <time>2019-02-16T13:16:56.000Z</time>
      </trkpt>
      <trkpt lat="43.96732" lon="7.12914">
        <ele>911.59997558594</ele>
        <time>2019-02-16T13:16:57.000Z</time>
      </trkpt>
      <trkpt lat="43.96734" lon="7.12917">
        <ele>911.40002441406</ele>
        <time>2019-02-16T13:17:01.000Z</time>
      </trkpt>
      <trkpt lat="43.96735" lon="7.12926">
        <ele>912.59997558594</ele>
        <time>2019-02-16T13:17:09.000Z</time>
      </trkpt>
      <trkpt lat="43.96735" lon="7.12933">
        <ele>913.79998779297</ele>
        <time>2019-02-16T13:17:15.000Z</time>
      </trkpt>
      <trkpt lat="43.96736" lon="7.12938">
        <ele>914.79998779297</ele>
        <time>2019-02-16T13:17:21.000Z</time>
      </trkpt>
      <trkpt lat="43.96736" lon="7.1294">
        <ele>915</ele>
        <time>2019-02-16T13:17:22.000Z</time>
      </trkpt>
      <trkpt lat="43.96738" lon="7.12951">
        <ele>915.40002441406</ele>
        <time>2019-02-16T13:17:26.000Z</time>
      </trkpt>
      <trkpt lat="43.96739" lon="7.12957">
        <ele>916</ele>
        <time>2019-02-16T13:17:29.000Z</time>
      </trkpt>
      <trkpt lat="43.96739" lon="7.12964">
        <ele>916.79998779297</ele>
        <time>2019-02-16T13:17:32.000Z</time>
      </trkpt>
      <trkpt lat="43.96739" lon="7.12966">
        <ele>917.20001220703</ele>
        <time>2019-02-16T13:17:33.000Z</time>
      </trkpt>
      <trkpt lat="43.96738" lon="7.12969">
        <ele>917.79998779297</ele>
        <time>2019-02-16T13:17:36.000Z</time>
      </trkpt>
      <trkpt lat="43.96738" lon="7.1297">
        <ele>918</ele>
        <time>2019-02-16T13:17:37.000Z</time>
      </trkpt>
      <trkpt lat="43.96736" lon="7.12971">
        <ele>918.40002441406</ele>
        <time>2019-02-16T13:17:39.000Z</time>
      </trkpt>
      <trkpt lat="43.96729" lon="7.12975">
        <ele>918.79998779297</ele>
        <time>2019-02-16T13:17:43.000Z</time>
      </trkpt>
      <trkpt lat="43.96719" lon="7.12978">
        <ele>918.59997558594</ele>
        <time>2019-02-16T13:17:49.000Z</time>
      </trkpt>
      <trkpt lat="43.96714" lon="7.1298">
        <ele>919.40002441406</ele>
        <time>2019-02-16T13:17:53.000Z</time>
      </trkpt>
      <trkpt lat="43.96711" lon="7.1298">
        <ele>919.79998779297</ele>
        <time>2019-02-16T13:17:55.000Z</time>
      </trkpt>
      <trkpt lat="43.96707" lon="7.12982">
        <ele>920.59997558594</ele>
        <time>2019-02-16T13:17:58.000Z</time>
      </trkpt>
      <trkpt lat="43.96701" lon="7.12987">
        <ele>921.59997558594</ele>
        <time>2019-02-16T13:18:03.000Z</time>
      </trkpt>
      <trkpt lat="43.96694" lon="7.12992">
        <ele>921.79998779297</ele>
        <time>2019-02-16T13:18:08.000Z</time>
      </trkpt>
      <trkpt lat="43.96688" lon="7.13001">
        <ele>921.59997558594</ele>
        <time>2019-02-16T13:18:12.000Z</time>
      </trkpt>
      <trkpt lat="43.96678" lon="7.13007">
        <ele>922</ele>
        <time>2019-02-16T13:18:18.000Z</time>
      </trkpt>
      <trkpt lat="43.96673" lon="7.13012">
        <ele>921.20001220703</ele>
        <time>2019-02-16T13:18:22.000Z</time>
      </trkpt>
      <trkpt lat="43.96672" lon="7.13015">
        <ele>921</ele>
        <time>2019-02-16T13:18:23.000Z</time>
      </trkpt>
      <trkpt lat="43.96671" lon="7.13025">
        <ele>920.20001220703</ele>
        <time>2019-02-16T13:18:26.000Z</time>
      </trkpt>
      <trkpt lat="43.96672" lon="7.1303">
        <ele>919.79998779297</ele>
        <time>2019-02-16T13:18:28.000Z</time>
      </trkpt>
      <trkpt lat="43.96672" lon="7.13037">
        <ele>919.79998779297</ele>
        <time>2019-02-16T13:18:31.000Z</time>
      </trkpt>
      <trkpt lat="43.96671" lon="7.1304">
        <ele>920.20001220703</ele>
        <time>2019-02-16T13:18:33.000Z</time>
      </trkpt>
      <trkpt lat="43.96669" lon="7.13044">
        <ele>921.20001220703</ele>
        <time>2019-02-16T13:18:35.000Z</time>
      </trkpt>
      <trkpt lat="43.96668" lon="7.13054">
        <ele>922.20001220703</ele>
        <time>2019-02-16T13:18:39.000Z</time>
      </trkpt>
      <trkpt lat="43.96668" lon="7.13056">
        <ele>922.40002441406</ele>
        <time>2019-02-16T13:18:40.000Z</time>
      </trkpt>
      <trkpt lat="43.9666" lon="7.13069">
        <ele>922.79998779297</ele>
        <time>2019-02-16T13:18:46.000Z</time>
      </trkpt>
      <trkpt lat="43.96652" lon="7.13077">
        <ele>922.59997558594</ele>
        <time>2019-02-16T13:18:51.000Z</time>
      </trkpt>
      <trkpt lat="43.96639" lon="7.13091">
        <ele>922.79998779297</ele>
        <time>2019-02-16T13:18:57.000Z</time>
      </trkpt>
      <trkpt lat="43.96625" lon="7.13107">
        <ele>921.20001220703</ele>
        <time>2019-02-16T13:19:02.000Z</time>
      </trkpt>
      <trkpt lat="43.96615" lon="7.13116">
        <ele>920.20001220703</ele>
        <time>2019-02-16T13:19:07.000Z</time>
      </trkpt>
      <trkpt lat="43.96607" lon="7.13123">
        <ele>920.40002441406</ele>
        <time>2019-02-16T13:19:11.000Z</time>
      </trkpt>
      <trkpt lat="43.96603" lon="7.13131">
        <ele>920.20001220703</ele>
        <time>2019-02-16T13:19:13.000Z</time>
      </trkpt>
      <trkpt lat="43.966" lon="7.13137">
        <ele>919.59997558594</ele>
        <time>2019-02-16T13:19:16.000Z</time>
      </trkpt>
      <trkpt lat="43.96599" lon="7.13142">
        <ele>919.20001220703</ele>
        <time>2019-02-16T13:19:20.000Z</time>
      </trkpt>
      <trkpt lat="43.96595" lon="7.13158">
        <ele>920.20001220703</ele>
        <time>2019-02-16T13:19:28.000Z</time>
      </trkpt>
      <trkpt lat="43.96593" lon="7.13167">
        <ele>920.59997558594</ele>
        <time>2019-02-16T13:19:34.000Z</time>
      </trkpt>
      <trkpt lat="43.9659" lon="7.1317">
        <ele>921.20001220703</ele>
        <time>2019-02-16T13:19:40.000Z</time>
      </trkpt>
      <trkpt lat="43.96589" lon="7.13172">
        <ele>921.59997558594</ele>
        <time>2019-02-16T13:19:42.000Z</time>
      </trkpt>
      <trkpt lat="43.96587" lon="7.13173">
        <ele>922.20001220703</ele>
        <time>2019-02-16T13:19:45.000Z</time>
      </trkpt>
      <trkpt lat="43.96586" lon="7.13176">
        <ele>922.79998779297</ele>
        <time>2019-02-16T13:19:48.000Z</time>
      </trkpt>
      <trkpt lat="43.96584" lon="7.1318">
        <ele>923.40002441406</ele>
        <time>2019-02-16T13:19:52.000Z</time>
      </trkpt>
      <trkpt lat="43.96584" lon="7.13182">
        <ele>923.79998779297</ele>
        <time>2019-02-16T13:19:55.000Z</time>
      </trkpt>
      <trkpt lat="43.96582" lon="7.13194">
        <ele>924.40002441406</ele>
        <time>2019-02-16T13:20:01.000Z</time>
      </trkpt>
      <trkpt lat="43.96582" lon="7.13197">
        <ele>924.79998779297</ele>
        <time>2019-02-16T13:20:02.000Z</time>
      </trkpt>
      <trkpt lat="43.96583" lon="7.13222">
        <ele>924.59997558594</ele>
        <time>2019-02-16T13:20:09.000Z</time>
      </trkpt>
      <trkpt lat="43.96584" lon="7.13246">
        <ele>923.59997558594</ele>
        <time>2019-02-16T13:20:14.000Z</time>
      </trkpt>
      <trkpt lat="43.96584" lon="7.13253">
        <ele>923.20001220703</ele>
        <time>2019-02-16T13:20:15.000Z</time>
      </trkpt>
      <trkpt lat="43.96577" lon="7.13266">
        <ele>921.79998779297</ele>
        <time>2019-02-16T13:20:18.000Z</time>
      </trkpt>
      <trkpt lat="43.96573" lon="7.13269">
        <ele>921.59997558594</ele>
        <time>2019-02-16T13:20:20.000Z</time>
      </trkpt>
      <trkpt lat="43.96565" lon="7.13278">
        <ele>922.40002441406</ele>
        <time>2019-02-16T13:20:25.000Z</time>
      </trkpt>
      <trkpt lat="43.9655" lon="7.13289">
        <ele>921.20001220703</ele>
        <time>2019-02-16T13:20:31.000Z</time>
      </trkpt>
      <trkpt lat="43.96545" lon="7.1329">
        <ele>920.40002441406</ele>
        <time>2019-02-16T13:20:33.000Z</time>
      </trkpt>
      <trkpt lat="43.96541" lon="7.13291">
        <ele>919.59997558594</ele>
        <time>2019-02-16T13:20:35.000Z</time>
      </trkpt>
      <trkpt lat="43.96539" lon="7.13293">
        <ele>919</ele>
        <time>2019-02-16T13:20:36.000Z</time>
      </trkpt>
      <trkpt lat="43.96535" lon="7.13301">
        <ele>918.40002441406</ele>
        <time>2019-02-16T13:20:39.000Z</time>
      </trkpt>
      <trkpt lat="43.96533" lon="7.13304">
        <ele>917.79998779297</ele>
        <time>2019-02-16T13:20:40.000Z</time>
      </trkpt>
      <trkpt lat="43.96531" lon="7.13311">
        <ele>916.79998779297</ele>
        <time>2019-02-16T13:20:42.000Z</time>
      </trkpt>
      <trkpt lat="43.9653" lon="7.13315">
        <ele>916.40002441406</ele>
        <time>2019-02-16T13:20:43.000Z</time>
      </trkpt>
      <trkpt lat="43.9653" lon="7.13326">
        <ele>915</ele>
        <time>2019-02-16T13:20:45.000Z</time>
      </trkpt>
      <trkpt lat="43.96531" lon="7.13334">
        <ele>913.59997558594</ele>
        <time>2019-02-16T13:20:46.000Z</time>
      </trkpt>
      <trkpt lat="43.96531" lon="7.13341">
        <ele>912.40002441406</ele>
        <time>2019-02-16T13:20:47.000Z</time>
      </trkpt>
      <trkpt lat="43.96532" lon="7.13348">
        <ele>911.40002441406</ele>
        <time>2019-02-16T13:20:48.000Z</time>
      </trkpt>
      <trkpt lat="43.96532" lon="7.13359">
        <ele>909.59997558594</ele>
        <time>2019-02-16T13:20:50.000Z</time>
      </trkpt>
      <trkpt lat="43.96533" lon="7.13363">
        <ele>908.59997558594</ele>
        <time>2019-02-16T13:20:51.000Z</time>
      </trkpt>
      <trkpt lat="43.96536" lon="7.13367">
        <ele>907.40002441406</ele>
        <time>2019-02-16T13:20:52.000Z</time>
      </trkpt>
      <trkpt lat="43.96538" lon="7.13371">
        <ele>906.20001220703</ele>
        <time>2019-02-16T13:20:53.000Z</time>
      </trkpt>
      <trkpt lat="43.9654" lon="7.13374">
        <ele>905</ele>
        <time>2019-02-16T13:20:54.000Z</time>
      </trkpt>
      <trkpt lat="43.9654" lon="7.1338">
        <ele>904</ele>
        <time>2019-02-16T13:20:55.000Z</time>
      </trkpt>
      <trkpt lat="43.9654" lon="7.13387">
        <ele>902.79998779297</ele>
        <time>2019-02-16T13:20:56.000Z</time>
      </trkpt>
      <trkpt lat="43.96537" lon="7.13393">
        <ele>901.79998779297</ele>
        <time>2019-02-16T13:20:57.000Z</time>
      </trkpt>
      <trkpt lat="43.96535" lon="7.13399">
        <ele>900.59997558594</ele>
        <time>2019-02-16T13:20:58.000Z</time>
      </trkpt>
      <trkpt lat="43.96531" lon="7.13406">
        <ele>899.20001220703</ele>
        <time>2019-02-16T13:20:59.000Z</time>
      </trkpt>
      <trkpt lat="43.96528" lon="7.13415">
        <ele>897.59997558594</ele>
        <time>2019-02-16T13:21:00.000Z</time>
      </trkpt>
      <trkpt lat="43.96524" lon="7.13423">
        <ele>896.40002441406</ele>
        <time>2019-02-16T13:21:01.000Z</time>
      </trkpt>
      <trkpt lat="43.96521" lon="7.1343">
        <ele>895</ele>
        <time>2019-02-16T13:21:02.000Z</time>
      </trkpt>
      <trkpt lat="43.96519" lon="7.13437">
        <ele>893.20001220703</ele>
        <time>2019-02-16T13:21:03.000Z</time>
      </trkpt>
      <trkpt lat="43.96514" lon="7.13451">
        <ele>890.59997558594</ele>
        <time>2019-02-16T13:21:05.000Z</time>
      </trkpt>
      <trkpt lat="43.96512" lon="7.13455">
        <ele>889.20001220703</ele>
        <time>2019-02-16T13:21:06.000Z</time>
      </trkpt>
      <trkpt lat="43.96511" lon="7.13456">
        <ele>887.79998779297</ele>
        <time>2019-02-16T13:21:07.000Z</time>
      </trkpt>
      <trkpt lat="43.96511" lon="7.13456">
        <ele>886.79998779297</ele>
        <time>2019-02-16T13:21:08.000Z</time>
      </trkpt>
      <trkpt lat="43.96511" lon="7.13455">
        <ele>884.79998779297</ele>
        <time>2019-02-16T13:21:10.000Z</time>
      </trkpt>
      <trkpt lat="43.96511" lon="7.13455">
        <ele>883.59997558594</ele>
        <time>2019-02-16T13:21:12.000Z</time>
      </trkpt>
      <trkpt lat="43.96511" lon="7.13455">
        <ele>883.40002441406</ele>
        <time>2019-02-16T13:21:14.000Z</time>
      </trkpt>
      <trkpt lat="43.96511" lon="7.13459">
        <ele>883.40002441406</ele>
        <time>2019-02-16T13:21:15.000Z</time>
      </trkpt>
      <trkpt lat="43.96508" lon="7.13465">
        <ele>883.59997558594</ele>
        <time>2019-02-16T13:21:17.000Z</time>
      </trkpt>
      <trkpt lat="43.96498" lon="7.13482">
        <ele>883.20001220703</ele>
        <time>2019-02-16T13:21:21.000Z</time>
      </trkpt>
      <trkpt lat="43.96493" lon="7.13485">
        <ele>882.59997558594</ele>
        <time>2019-02-16T13:21:22.000Z</time>
      </trkpt>
      <trkpt lat="43.96484" lon="7.13492">
        <ele>881.40002441406</ele>
        <time>2019-02-16T13:21:24.000Z</time>
      </trkpt>
      <trkpt lat="43.9648" lon="7.13495">
        <ele>880.79998779297</ele>
        <time>2019-02-16T13:21:25.000Z</time>
      </trkpt>
      <trkpt lat="43.96476" lon="7.13499">
        <ele>879.79998779297</ele>
        <time>2019-02-16T13:21:26.000Z</time>
      </trkpt>
      <trkpt lat="43.96471" lon="7.13509">
        <ele>878</ele>
        <time>2019-02-16T13:21:28.000Z</time>
      </trkpt>
      <trkpt lat="43.96471" lon="7.13515">
        <ele>877</ele>
        <time>2019-02-16T13:21:29.000Z</time>
      </trkpt>
      <trkpt lat="43.96472" lon="7.13519">
        <ele>875.40002441406</ele>
        <time>2019-02-16T13:21:30.000Z</time>
      </trkpt>
      <trkpt lat="43.96473" lon="7.13531">
        <ele>873.79998779297</ele>
        <time>2019-02-16T13:21:32.000Z</time>
      </trkpt>
      <trkpt lat="43.96473" lon="7.13543">
        <ele>873.20001220703</ele>
        <time>2019-02-16T13:21:34.000Z</time>
      </trkpt>
      <trkpt lat="43.96472" lon="7.13544">
        <ele>872.79998779297</ele>
        <time>2019-02-16T13:21:35.000Z</time>
      </trkpt>
      <trkpt lat="43.96472" lon="7.13544">
        <ele>872.40002441406</ele>
        <time>2019-02-16T13:21:36.000Z</time>
      </trkpt>
      <trkpt lat="43.96472" lon="7.13544">
        <ele>872</ele>
        <time>2019-02-16T13:21:46.000Z</time>
      </trkpt>
      <trkpt lat="43.96471" lon="7.13543">
        <ele>872.20001220703</ele>
        <time>2019-02-16T13:21:54.000Z</time>
      </trkpt>
      <trkpt lat="43.96471" lon="7.13544">
        <ele>871.79998779297</ele>
        <time>2019-02-16T13:22:05.000Z</time>
      </trkpt>
      <trkpt lat="43.96471" lon="7.13547">
        <ele>871.79998779297</ele>
        <time>2019-02-16T13:22:11.000Z</time>
      </trkpt>
      <trkpt lat="43.96468" lon="7.13561">
        <ele>871.79998779297</ele>
        <time>2019-02-16T13:22:15.000Z</time>
      </trkpt>
      <trkpt lat="43.96467" lon="7.13565">
        <ele>871.79998779297</ele>
        <time>2019-02-16T13:22:16.000Z</time>
      </trkpt>
      <trkpt lat="43.96461" lon="7.13578">
        <ele>871.20001220703</ele>
        <time>2019-02-16T13:22:20.000Z</time>
      </trkpt>
      <trkpt lat="43.96451" lon="7.13595">
        <ele>870.59997558594</ele>
        <time>2019-02-16T13:22:24.000Z</time>
      </trkpt>
      <trkpt lat="43.96449" lon="7.13602">
        <ele>870.40002441406</ele>
        <time>2019-02-16T13:22:25.000Z</time>
      </trkpt>
      <trkpt lat="43.96449" lon="7.13616">
        <ele>869.59997558594</ele>
        <time>2019-02-16T13:22:27.000Z</time>
      </trkpt>
      <trkpt lat="43.96447" lon="7.13623">
        <ele>869.20001220703</ele>
        <time>2019-02-16T13:22:28.000Z</time>
      </trkpt>
      <trkpt lat="43.96441" lon="7.13636">
        <ele>868.40002441406</ele>
        <time>2019-02-16T13:22:30.000Z</time>
      </trkpt>
      <trkpt lat="43.96438" lon="7.13648">
        <ele>868.20001220703</ele>
        <time>2019-02-16T13:22:32.000Z</time>
      </trkpt>
      <trkpt lat="43.96427" lon="7.13667">
        <ele>866.79998779297</ele>
        <time>2019-02-16T13:22:35.000Z</time>
      </trkpt>
      <trkpt lat="43.96422" lon="7.13674">
        <ele>865.79998779297</ele>
        <time>2019-02-16T13:22:36.000Z</time>
      </trkpt>
      <trkpt lat="43.96417" lon="7.13682">
        <ele>864.59997558594</ele>
        <time>2019-02-16T13:22:37.000Z</time>
      </trkpt>
      <trkpt lat="43.96412" lon="7.13688">
        <ele>862.59997558594</ele>
        <time>2019-02-16T13:22:38.000Z</time>
      </trkpt>
      <trkpt lat="43.96408" lon="7.13693">
        <ele>861.40002441406</ele>
        <time>2019-02-16T13:22:39.000Z</time>
      </trkpt>
      <trkpt lat="43.96405" lon="7.13695">
        <ele>860.40002441406</ele>
        <time>2019-02-16T13:22:40.000Z</time>
      </trkpt>
      <trkpt lat="43.96402" lon="7.13698">
        <ele>859.20001220703</ele>
        <time>2019-02-16T13:22:41.000Z</time>
      </trkpt>
      <trkpt lat="43.96396" lon="7.13704">
        <ele>857.59997558594</ele>
        <time>2019-02-16T13:22:43.000Z</time>
      </trkpt>
      <trkpt lat="43.96393" lon="7.13707">
        <ele>856.40002441406</ele>
        <time>2019-02-16T13:22:44.000Z</time>
      </trkpt>
      <trkpt lat="43.96388" lon="7.13707">
        <ele>855.40002441406</ele>
        <time>2019-02-16T13:22:45.000Z</time>
      </trkpt>
      <trkpt lat="43.96383" lon="7.13707">
        <ele>853.79998779297</ele>
        <time>2019-02-16T13:22:46.000Z</time>
      </trkpt>
      <trkpt lat="43.96379" lon="7.13707">
        <ele>852.59997558594</ele>
        <time>2019-02-16T13:22:47.000Z</time>
      </trkpt>
      <trkpt lat="43.96377" lon="7.13708">
        <ele>851.40002441406</ele>
        <time>2019-02-16T13:22:48.000Z</time>
      </trkpt>
      <trkpt lat="43.96374" lon="7.13709">
        <ele>851.40002441406</ele>
        <time>2019-02-16T13:22:49.000Z</time>
      </trkpt>
      <trkpt lat="43.96368" lon="7.1371">
        <ele>850.40002441406</ele>
        <time>2019-02-16T13:22:51.000Z</time>
      </trkpt>
      <trkpt lat="43.96365" lon="7.13709">
        <ele>850.40002441406</ele>
        <time>2019-02-16T13:22:52.000Z</time>
      </trkpt>
      <trkpt lat="43.96362" lon="7.13707">
        <ele>849.79998779297</ele>
        <time>2019-02-16T13:22:56.000Z</time>
      </trkpt>
      <trkpt lat="43.96357" lon="7.13705">
        <ele>850.79998779297</ele>
        <time>2019-02-16T13:23:06.000Z</time>
      </trkpt>
      <trkpt lat="43.96357" lon="7.13704">
        <ele>850.79998779297</ele>
        <time>2019-02-16T13:23:12.000Z</time>
      </trkpt>
      <trkpt lat="43.96353" lon="7.13706">
        <ele>851.40002441406</ele>
        <time>2019-02-16T13:23:23.000Z</time>
      </trkpt>
      <trkpt lat="43.96352" lon="7.13706">
        <ele>851.40002441406</ele>
        <time>2019-02-16T13:23:24.000Z</time>
      </trkpt>
      <trkpt lat="43.96351" lon="7.13706">
        <ele>852.20001220703</ele>
        <time>2019-02-16T13:23:31.000Z</time>
      </trkpt>
      <trkpt lat="43.96349" lon="7.13709">
        <ele>852.20001220703</ele>
        <time>2019-02-16T13:23:35.000Z</time>
      </trkpt>
      <trkpt lat="43.96348" lon="7.13713">
        <ele>852</ele>
        <time>2019-02-16T13:23:38.000Z</time>
      </trkpt>
      <trkpt lat="43.96348" lon="7.13714">
        <ele>851.79998779297</ele>
        <time>2019-02-16T13:23:39.000Z</time>
      </trkpt>
      <trkpt lat="43.96346" lon="7.13715">
        <ele>851</ele>
        <time>2019-02-16T13:23:45.000Z</time>
      </trkpt>
      <trkpt lat="43.96345" lon="7.1372">
        <ele>851.20001220703</ele>
        <time>2019-02-16T13:23:50.000Z</time>
      </trkpt>
      <trkpt lat="43.96343" lon="7.13722">
        <ele>850.79998779297</ele>
        <time>2019-02-16T13:23:52.000Z</time>
      </trkpt>
      <trkpt lat="43.96342" lon="7.13723">
        <ele>850.40002441406</ele>
        <time>2019-02-16T13:23:53.000Z</time>
      </trkpt>
      <trkpt lat="43.96341" lon="7.1373">
        <ele>849.59997558594</ele>
        <time>2019-02-16T13:23:59.000Z</time>
      </trkpt>
      <trkpt lat="43.96341" lon="7.13734">
        <ele>849.40002441406</ele>
        <time>2019-02-16T13:24:02.000Z</time>
      </trkpt>
      <trkpt lat="43.96341" lon="7.1374">
        <ele>848.59997558594</ele>
        <time>2019-02-16T13:24:07.000Z</time>
      </trkpt>
      <trkpt lat="43.96341" lon="7.13743">
        <ele>848.40002441406</ele>
        <time>2019-02-16T13:24:09.000Z</time>
      </trkpt>
      <trkpt lat="43.96342" lon="7.13747">
        <ele>848</ele>
        <time>2019-02-16T13:24:13.000Z</time>
      </trkpt>
      <trkpt lat="43.96342" lon="7.13748">
        <ele>847.79998779297</ele>
        <time>2019-02-16T13:24:14.000Z</time>
      </trkpt>
      <trkpt lat="43.96343" lon="7.13751">
        <ele>847.20001220703</ele>
        <time>2019-02-16T13:24:17.000Z</time>
      </trkpt>
      <trkpt lat="43.96343" lon="7.13752">
        <ele>847</ele>
        <time>2019-02-16T13:24:18.000Z</time>
      </trkpt>
      <trkpt lat="43.96343" lon="7.13754">
        <ele>846.40002441406</ele>
        <time>2019-02-16T13:24:20.000Z</time>
      </trkpt>
      <trkpt lat="43.96342" lon="7.13757">
        <ele>846</ele>
        <time>2019-02-16T13:24:22.000Z</time>
      </trkpt>
      <trkpt lat="43.96341" lon="7.1376">
        <ele>845.79998779297</ele>
        <time>2019-02-16T13:24:24.000Z</time>
      </trkpt>
      <trkpt lat="43.9634" lon="7.13763">
        <ele>845</ele>
        <time>2019-02-16T13:24:27.000Z</time>
      </trkpt>
      <trkpt lat="43.96342" lon="7.13762">
        <ele>844</ele>
        <time>2019-02-16T13:24:30.000Z</time>
      </trkpt>
      <trkpt lat="43.96343" lon="7.13762">
        <ele>843.79998779297</ele>
        <time>2019-02-16T13:24:31.000Z</time>
      </trkpt>
      <trkpt lat="43.9635" lon="7.13758">
        <ele>842.40002441406</ele>
        <time>2019-02-16T13:24:35.000Z</time>
      </trkpt>
      <trkpt lat="43.96353" lon="7.13756">
        <ele>841.20001220703</ele>
        <time>2019-02-16T13:24:37.000Z</time>
      </trkpt>
      <trkpt lat="43.96354" lon="7.13762">
        <ele>839.59997558594</ele>
        <time>2019-02-16T13:24:40.000Z</time>
      </trkpt>
      <trkpt lat="43.96353" lon="7.13768">
        <ele>838.40002441406</ele>
        <time>2019-02-16T13:24:42.000Z</time>
      </trkpt>
      <trkpt lat="43.96349" lon="7.13777">
        <ele>836.59997558594</ele>
        <time>2019-02-16T13:24:45.000Z</time>
      </trkpt>
      <trkpt lat="43.96347" lon="7.13781">
        <ele>836</ele>
        <time>2019-02-16T13:24:46.000Z</time>
      </trkpt>
      <trkpt lat="43.96345" lon="7.13784">
        <ele>835.20001220703</ele>
        <time>2019-02-16T13:24:47.000Z</time>
      </trkpt>
      <trkpt lat="43.96338" lon="7.13794">
        <ele>833.79998779297</ele>
        <time>2019-02-16T13:24:50.000Z</time>
      </trkpt>
      <trkpt lat="43.96337" lon="7.13793">
        <ele>832.79998779297</ele>
        <time>2019-02-16T13:24:51.000Z</time>
      </trkpt>
      <trkpt lat="43.96337" lon="7.13793">
        <ele>832</ele>
        <time>2019-02-16T13:24:52.000Z</time>
      </trkpt>
      <trkpt lat="43.96336" lon="7.13793">
        <ele>830.20001220703</ele>
        <time>2019-02-16T13:24:54.000Z</time>
      </trkpt>
      <trkpt lat="43.96336" lon="7.13793">
        <ele>829</ele>
        <time>2019-02-16T13:24:56.000Z</time>
      </trkpt>
      <trkpt lat="43.96335" lon="7.13793">
        <ele>828.40002441406</ele>
        <time>2019-02-16T13:25:02.000Z</time>
      </trkpt>
      <trkpt lat="43.96332" lon="7.13794">
        <ele>828.20001220703</ele>
        <time>2019-02-16T13:25:10.000Z</time>
      </trkpt>
      <trkpt lat="43.96331" lon="7.13794">
        <ele>828</ele>
        <time>2019-02-16T13:25:13.000Z</time>
      </trkpt>
      <trkpt lat="43.96331" lon="7.13795">
        <ele>827.59997558594</ele>
        <time>2019-02-16T13:25:21.000Z</time>
      </trkpt>
      <trkpt lat="43.9633" lon="7.13794">
        <ele>827.59997558594</ele>
        <time>2019-02-16T13:25:28.000Z</time>
      </trkpt>
      <trkpt lat="43.96327" lon="7.13796">
        <ele>827.20001220703</ele>
        <time>2019-02-16T13:25:35.000Z</time>
      </trkpt>
      <trkpt lat="43.96325" lon="7.13798">
        <ele>827</ele>
        <time>2019-02-16T13:25:38.000Z</time>
      </trkpt>
      <trkpt lat="43.96324" lon="7.13799">
        <ele>826.40002441406</ele>
        <time>2019-02-16T13:25:41.000Z</time>
      </trkpt>
      <trkpt lat="43.96318" lon="7.13811">
        <ele>826.20001220703</ele>
        <time>2019-02-16T13:25:46.000Z</time>
      </trkpt>
      <trkpt lat="43.96316" lon="7.13815">
        <ele>825.79998779297</ele>
        <time>2019-02-16T13:25:47.000Z</time>
      </trkpt>
      <trkpt lat="43.96312" lon="7.13822">
        <ele>824.20001220703</ele>
        <time>2019-02-16T13:25:49.000Z</time>
      </trkpt>
      <trkpt lat="43.9631" lon="7.13825">
        <ele>823.20001220703</ele>
        <time>2019-02-16T13:25:50.000Z</time>
      </trkpt>
      <trkpt lat="43.96308" lon="7.13828">
        <ele>822.20001220703</ele>
        <time>2019-02-16T13:25:51.000Z</time>
      </trkpt>
      <trkpt lat="43.96306" lon="7.13832">
        <ele>821.20001220703</ele>
        <time>2019-02-16T13:25:52.000Z</time>
      </trkpt>
      <trkpt lat="43.96302" lon="7.1384">
        <ele>819.59997558594</ele>
        <time>2019-02-16T13:25:54.000Z</time>
      </trkpt>
      <trkpt lat="43.96299" lon="7.13843">
        <ele>818.40002441406</ele>
        <time>2019-02-16T13:25:56.000Z</time>
      </trkpt>
      <trkpt lat="43.96296" lon="7.13847">
        <ele>817.40002441406</ele>
        <time>2019-02-16T13:25:58.000Z</time>
      </trkpt>
      <trkpt lat="43.96291" lon="7.13853">
        <ele>816.40002441406</ele>
        <time>2019-02-16T13:26:00.000Z</time>
      </trkpt>
      <trkpt lat="43.96285" lon="7.13857">
        <ele>815.20001220703</ele>
        <time>2019-02-16T13:26:02.000Z</time>
      </trkpt>
      <trkpt lat="43.9628" lon="7.13866">
        <ele>814.20001220703</ele>
        <time>2019-02-16T13:26:04.000Z</time>
      </trkpt>
      <trkpt lat="43.96277" lon="7.1387">
        <ele>813.59997558594</ele>
        <time>2019-02-16T13:26:05.000Z</time>
      </trkpt>
      <trkpt lat="43.96269" lon="7.13877">
        <ele>812.59997558594</ele>
        <time>2019-02-16T13:26:07.000Z</time>
      </trkpt>
      <trkpt lat="43.96262" lon="7.13884">
        <ele>812.20001220703</ele>
        <time>2019-02-16T13:26:09.000Z</time>
      </trkpt>
      <trkpt lat="43.96258" lon="7.13891">
        <ele>811.20001220703</ele>
        <time>2019-02-16T13:26:11.000Z</time>
      </trkpt>
      <trkpt lat="43.96253" lon="7.13899">
        <ele>810.40002441406</ele>
        <time>2019-02-16T13:26:13.000Z</time>
      </trkpt>
      <trkpt lat="43.96251" lon="7.13904">
        <ele>809.79998779297</ele>
        <time>2019-02-16T13:26:14.000Z</time>
      </trkpt>
      <trkpt lat="43.96248" lon="7.13913">
        <ele>808.79998779297</ele>
        <time>2019-02-16T13:26:16.000Z</time>
      </trkpt>
      <trkpt lat="43.96244" lon="7.13919">
        <ele>807</ele>
        <time>2019-02-16T13:26:18.000Z</time>
      </trkpt>
      <trkpt lat="43.96243" lon="7.13924">
        <ele>806</ele>
        <time>2019-02-16T13:26:20.000Z</time>
      </trkpt>
      <trkpt lat="43.96243" lon="7.13932">
        <ele>805</ele>
        <time>2019-02-16T13:26:22.000Z</time>
      </trkpt>
      <trkpt lat="43.96244" lon="7.13936">
        <ele>804.59997558594</ele>
        <time>2019-02-16T13:26:23.000Z</time>
      </trkpt>
      <trkpt lat="43.96245" lon="7.1394">
        <ele>803.59997558594</ele>
        <time>2019-02-16T13:26:24.000Z</time>
      </trkpt>
      <trkpt lat="43.96243" lon="7.13949">
        <ele>801.59997558594</ele>
        <time>2019-02-16T13:26:26.000Z</time>
      </trkpt>
      <trkpt lat="43.9624" lon="7.13952">
        <ele>800.59997558594</ele>
        <time>2019-02-16T13:26:27.000Z</time>
      </trkpt>
      <trkpt lat="43.96237" lon="7.13956">
        <ele>799.59997558594</ele>
        <time>2019-02-16T13:26:28.000Z</time>
      </trkpt>
      <trkpt lat="43.96231" lon="7.13966">
        <ele>797.79998779297</ele>
        <time>2019-02-16T13:26:30.000Z</time>
      </trkpt>
      <trkpt lat="43.96227" lon="7.13972">
        <ele>797.40002441406</ele>
        <time>2019-02-16T13:26:31.000Z</time>
      </trkpt>
      <trkpt lat="43.96224" lon="7.13976">
        <ele>796.59997558594</ele>
        <time>2019-02-16T13:26:32.000Z</time>
      </trkpt>
      <trkpt lat="43.96219" lon="7.1398">
        <ele>796</ele>
        <time>2019-02-16T13:26:33.000Z</time>
      </trkpt>
      <trkpt lat="43.96213" lon="7.13985">
        <ele>795.59997558594</ele>
        <time>2019-02-16T13:26:36.000Z</time>
      </trkpt>
      <trkpt lat="43.96215" lon="7.13985">
        <ele>794.40002441406</ele>
        <time>2019-02-16T13:26:37.000Z</time>
      </trkpt>
      <trkpt lat="43.96218" lon="7.13984">
        <ele>792.79998779297</ele>
        <time>2019-02-16T13:26:39.000Z</time>
      </trkpt>
      <trkpt lat="43.96222" lon="7.13983">
        <ele>791.79998779297</ele>
        <time>2019-02-16T13:26:40.000Z</time>
      </trkpt>
      <trkpt lat="43.96231" lon="7.13981">
        <ele>790.79998779297</ele>
        <time>2019-02-16T13:26:42.000Z</time>
      </trkpt>
      <trkpt lat="43.96234" lon="7.1398">
        <ele>790.40002441406</ele>
        <time>2019-02-16T13:26:43.000Z</time>
      </trkpt>
      <trkpt lat="43.96235" lon="7.13981">
        <ele>789.59997558594</ele>
        <time>2019-02-16T13:26:44.000Z</time>
      </trkpt>
      <trkpt lat="43.96235" lon="7.13983">
        <ele>788.79998779297</ele>
        <time>2019-02-16T13:26:45.000Z</time>
      </trkpt>
      <trkpt lat="43.9623" lon="7.13993">
        <ele>787.20001220703</ele>
        <time>2019-02-16T13:26:47.000Z</time>
      </trkpt>
      <trkpt lat="43.96226" lon="7.13999">
        <ele>786.20001220703</ele>
        <time>2019-02-16T13:26:48.000Z</time>
      </trkpt>
      <trkpt lat="43.96221" lon="7.14006">
        <ele>785.40002441406</ele>
        <time>2019-02-16T13:26:49.000Z</time>
      </trkpt>
      <trkpt lat="43.96216" lon="7.14012">
        <ele>784.40002441406</ele>
        <time>2019-02-16T13:26:50.000Z</time>
      </trkpt>
      <trkpt lat="43.9621" lon="7.14019">
        <ele>783.40002441406</ele>
        <time>2019-02-16T13:26:51.000Z</time>
      </trkpt>
      <trkpt lat="43.96206" lon="7.14025">
        <ele>782</ele>
        <time>2019-02-16T13:26:52.000Z</time>
      </trkpt>
      <trkpt lat="43.96202" lon="7.14033">
        <ele>780.79998779297</ele>
        <time>2019-02-16T13:26:53.000Z</time>
      </trkpt>
      <trkpt lat="43.96199" lon="7.1404">
        <ele>779.40002441406</ele>
        <time>2019-02-16T13:26:54.000Z</time>
      </trkpt>
      <trkpt lat="43.96196" lon="7.14047">
        <ele>778.59997558594</ele>
        <time>2019-02-16T13:26:55.000Z</time>
      </trkpt>
      <trkpt lat="43.96192" lon="7.14051">
        <ele>777.40002441406</ele>
        <time>2019-02-16T13:26:56.000Z</time>
      </trkpt>
      <trkpt lat="43.9619" lon="7.14056">
        <ele>776</ele>
        <time>2019-02-16T13:26:57.000Z</time>
      </trkpt>
      <trkpt lat="43.96187" lon="7.14063">
        <ele>774.79998779297</ele>
        <time>2019-02-16T13:26:58.000Z</time>
      </trkpt>
      <trkpt lat="43.96184" lon="7.14071">
        <ele>773.59997558594</ele>
        <time>2019-02-16T13:26:59.000Z</time>
      </trkpt>
      <trkpt lat="43.96182" lon="7.14078">
        <ele>772.20001220703</ele>
        <time>2019-02-16T13:27:00.000Z</time>
      </trkpt>
      <trkpt lat="43.96178" lon="7.14085">
        <ele>770.79998779297</ele>
        <time>2019-02-16T13:27:01.000Z</time>
      </trkpt>
      <trkpt lat="43.96175" lon="7.14091">
        <ele>769.40002441406</ele>
        <time>2019-02-16T13:27:02.000Z</time>
      </trkpt>
      <trkpt lat="43.96172" lon="7.14097">
        <ele>768.20001220703</ele>
        <time>2019-02-16T13:27:03.000Z</time>
      </trkpt>
      <trkpt lat="43.96169" lon="7.14102">
        <ele>767</ele>
        <time>2019-02-16T13:27:04.000Z</time>
      </trkpt>
      <trkpt lat="43.96165" lon="7.14104">
        <ele>765.59997558594</ele>
        <time>2019-02-16T13:27:05.000Z</time>
      </trkpt>
      <trkpt lat="43.96161" lon="7.14103">
        <ele>764</ele>
        <time>2019-02-16T13:27:06.000Z</time>
      </trkpt>
      <trkpt lat="43.96157" lon="7.141">
        <ele>762.79998779297</ele>
        <time>2019-02-16T13:27:07.000Z</time>
      </trkpt>
      <trkpt lat="43.96153" lon="7.14097">
        <ele>761.79998779297</ele>
        <time>2019-02-16T13:27:08.000Z</time>
      </trkpt>
      <trkpt lat="43.96149" lon="7.14093">
        <ele>760.20001220703</ele>
        <time>2019-02-16T13:27:09.000Z</time>
      </trkpt>
      <trkpt lat="43.96145" lon="7.14087">
        <ele>758.20001220703</ele>
        <time>2019-02-16T13:27:10.000Z</time>
      </trkpt>
      <trkpt lat="43.9614" lon="7.14081">
        <ele>756.40002441406</ele>
        <time>2019-02-16T13:27:11.000Z</time>
      </trkpt>
      <trkpt lat="43.96136" lon="7.14078">
        <ele>754.40002441406</ele>
        <time>2019-02-16T13:27:12.000Z</time>
      </trkpt>
      <trkpt lat="43.96131" lon="7.14073">
        <ele>752.40002441406</ele>
        <time>2019-02-16T13:27:13.000Z</time>
      </trkpt>
      <trkpt lat="43.96128" lon="7.14066">
        <ele>751</ele>
        <time>2019-02-16T13:27:14.000Z</time>
      </trkpt>
      <trkpt lat="43.96122" lon="7.14053">
        <ele>749.20001220703</ele>
        <time>2019-02-16T13:27:16.000Z</time>
      </trkpt>
      <trkpt lat="43.96118" lon="7.14047">
        <ele>747.59997558594</ele>
        <time>2019-02-16T13:27:17.000Z</time>
      </trkpt>
      <trkpt lat="43.96114" lon="7.14042">
        <ele>747</ele>
        <time>2019-02-16T13:27:18.000Z</time>
      </trkpt>
      <trkpt lat="43.96111" lon="7.14038">
        <ele>745.59997558594</ele>
        <time>2019-02-16T13:27:19.000Z</time>
      </trkpt>
      <trkpt lat="43.96109" lon="7.14033">
        <ele>744.20001220703</ele>
        <time>2019-02-16T13:27:20.000Z</time>
      </trkpt>
      <trkpt lat="43.96107" lon="7.14026">
        <ele>742.59997558594</ele>
        <time>2019-02-16T13:27:21.000Z</time>
      </trkpt>
      <trkpt lat="43.96104" lon="7.14021">
        <ele>741.40002441406</ele>
        <time>2019-02-16T13:27:22.000Z</time>
      </trkpt>
      <trkpt lat="43.96099" lon="7.1402">
        <ele>739.59997558594</ele>
        <time>2019-02-16T13:27:23.000Z</time>
      </trkpt>
      <trkpt lat="43.96095" lon="7.14019">
        <ele>738.59997558594</ele>
        <time>2019-02-16T13:27:24.000Z</time>
      </trkpt>
      <trkpt lat="43.96091" lon="7.14018">
        <ele>737.79998779297</ele>
        <time>2019-02-16T13:27:25.000Z</time>
      </trkpt>
      <trkpt lat="43.96088" lon="7.14019">
        <ele>737.20001220703</ele>
        <time>2019-02-16T13:27:26.000Z</time>
      </trkpt>
      <trkpt lat="43.96081" lon="7.14022">
        <ele>737</ele>
        <time>2019-02-16T13:27:28.000Z</time>
      </trkpt>
      <trkpt lat="43.96076" lon="7.14021">
        <ele>736.79998779297</ele>
        <time>2019-02-16T13:27:29.000Z</time>
      </trkpt>
      <trkpt lat="43.96067" lon="7.14016">
        <ele>736.79998779297</ele>
        <time>2019-02-16T13:27:31.000Z</time>
      </trkpt>
      <trkpt lat="43.9606" lon="7.14011">
        <ele>736</ele>
        <time>2019-02-16T13:27:33.000Z</time>
      </trkpt>
      <trkpt lat="43.96055" lon="7.1401">
        <ele>735.40002441406</ele>
        <time>2019-02-16T13:27:34.000Z</time>
      </trkpt>
      <trkpt lat="43.96051" lon="7.14009">
        <ele>734.59997558594</ele>
        <time>2019-02-16T13:27:35.000Z</time>
      </trkpt>
      <trkpt lat="43.96046" lon="7.14003">
        <ele>733.40002441406</ele>
        <time>2019-02-16T13:27:37.000Z</time>
      </trkpt>
      <trkpt lat="43.96044" lon="7.14">
        <ele>733.20001220703</ele>
        <time>2019-02-16T13:27:38.000Z</time>
      </trkpt>
      <trkpt lat="43.96042" lon="7.13986">
        <ele>734</ele>
        <time>2019-02-16T13:27:42.000Z</time>
      </trkpt>
      <trkpt lat="43.96041" lon="7.13983">
        <ele>734.20001220703</ele>
        <time>2019-02-16T13:27:43.000Z</time>
      </trkpt>
      <trkpt lat="43.96036" lon="7.1398">
        <ele>733.59997558594</ele>
        <time>2019-02-16T13:27:45.000Z</time>
      </trkpt>
      <trkpt lat="43.96029" lon="7.1398">
        <ele>731.79998779297</ele>
        <time>2019-02-16T13:27:47.000Z</time>
      </trkpt>
      <trkpt lat="43.96027" lon="7.1398">
        <ele>731</ele>
        <time>2019-02-16T13:27:48.000Z</time>
      </trkpt>
      <trkpt lat="43.96024" lon="7.1398">
        <ele>729.79998779297</ele>
        <time>2019-02-16T13:27:49.000Z</time>
      </trkpt>
      <trkpt lat="43.96021" lon="7.13979">
        <ele>729.40002441406</ele>
        <time>2019-02-16T13:27:50.000Z</time>
      </trkpt>
      <trkpt lat="43.96017" lon="7.13977">
        <ele>728.40002441406</ele>
        <time>2019-02-16T13:27:51.000Z</time>
      </trkpt>
      <trkpt lat="43.96012" lon="7.13978">
        <ele>727.79998779297</ele>
        <time>2019-02-16T13:27:52.000Z</time>
      </trkpt>
      <trkpt lat="43.96009" lon="7.13982">
        <ele>726.79998779297</ele>
        <time>2019-02-16T13:27:53.000Z</time>
      </trkpt>
      <trkpt lat="43.96003" lon="7.13987">
        <ele>725.59997558594</ele>
        <time>2019-02-16T13:27:55.000Z</time>
      </trkpt>
      <trkpt lat="43.95993" lon="7.13991">
        <ele>724.79998779297</ele>
        <time>2019-02-16T13:27:58.000Z</time>
      </trkpt>
      <trkpt lat="43.95985" lon="7.13999">
        <ele>724.40002441406</ele>
        <time>2019-02-16T13:28:01.000Z</time>
      </trkpt>
      <trkpt lat="43.95982" lon="7.14">
        <ele>724.40002441406</ele>
        <time>2019-02-16T13:28:02.000Z</time>
      </trkpt>
      <trkpt lat="43.95976" lon="7.14006">
        <ele>725.40002441406</ele>
        <time>2019-02-16T13:28:05.000Z</time>
      </trkpt>
      <trkpt lat="43.95974" lon="7.14008">
        <ele>725.79998779297</ele>
        <time>2019-02-16T13:28:06.000Z</time>
      </trkpt>
      <trkpt lat="43.95972" lon="7.14009">
        <ele>726.40002441406</ele>
        <time>2019-02-16T13:28:07.000Z</time>
      </trkpt>
      <trkpt lat="43.95969" lon="7.14011">
        <ele>727</ele>
        <time>2019-02-16T13:28:08.000Z</time>
      </trkpt>
      <trkpt lat="43.95963" lon="7.14016">
        <ele>728.20001220703</ele>
        <time>2019-02-16T13:28:11.000Z</time>
      </trkpt>
      <trkpt lat="43.95957" lon="7.14021">
        <ele>728.79998779297</ele>
        <time>2019-02-16T13:28:14.000Z</time>
      </trkpt>
      <trkpt lat="43.95947" lon="7.14031">
        <ele>729.20001220703</ele>
        <time>2019-02-16T13:28:18.000Z</time>
      </trkpt>
      <trkpt lat="43.95943" lon="7.14033">
        <ele>729.40002441406</ele>
        <time>2019-02-16T13:28:19.000Z</time>
      </trkpt>
      <trkpt lat="43.95938" lon="7.14042">
        <ele>728</ele>
        <time>2019-02-16T13:28:22.000Z</time>
      </trkpt>
      <trkpt lat="43.95938" lon="7.1405">
        <ele>726.59997558594</ele>
        <time>2019-02-16T13:28:24.000Z</time>
      </trkpt>
      <trkpt lat="43.95934" lon="7.14054">
        <ele>726.20001220703</ele>
        <time>2019-02-16T13:28:25.000Z</time>
      </trkpt>
      <trkpt lat="43.9593" lon="7.14058">
        <ele>724.79998779297</ele>
        <time>2019-02-16T13:28:27.000Z</time>
      </trkpt>
      <trkpt lat="43.95929" lon="7.1406">
        <ele>724.20001220703</ele>
        <time>2019-02-16T13:28:28.000Z</time>
      </trkpt>
      <trkpt lat="43.95928" lon="7.14063">
        <ele>723.40002441406</ele>
        <time>2019-02-16T13:28:29.000Z</time>
      </trkpt>
      <trkpt lat="43.95924" lon="7.14067">
        <ele>722.59997558594</ele>
        <time>2019-02-16T13:28:30.000Z</time>
      </trkpt>
      <trkpt lat="43.9592" lon="7.14069">
        <ele>722</ele>
        <time>2019-02-16T13:28:31.000Z</time>
      </trkpt>
      <trkpt lat="43.95909" lon="7.14075">
        <ele>720.79998779297</ele>
        <time>2019-02-16T13:28:33.000Z</time>
      </trkpt>
      <trkpt lat="43.959" lon="7.14082">
        <ele>719.59997558594</ele>
        <time>2019-02-16T13:28:35.000Z</time>
      </trkpt>
      <trkpt lat="43.95887" lon="7.14092">
        <ele>718.20001220703</ele>
        <time>2019-02-16T13:28:38.000Z</time>
      </trkpt>
      <trkpt lat="43.95885" lon="7.14095">
        <ele>717.59997558594</ele>
        <time>2019-02-16T13:28:39.000Z</time>
      </trkpt>
      <trkpt lat="43.95877" lon="7.1411">
        <ele>718.40002441406</ele>
        <time>2019-02-16T13:28:43.000Z</time>
      </trkpt>
      <trkpt lat="43.95876" lon="7.14117">
        <ele>718.40002441406</ele>
        <time>2019-02-16T13:28:44.000Z</time>
      </trkpt>
      <trkpt lat="43.95875" lon="7.14123">
        <ele>718.59997558594</ele>
        <time>2019-02-16T13:28:45.000Z</time>
      </trkpt>
      <trkpt lat="43.95873" lon="7.14138">
        <ele>717.59997558594</ele>
        <time>2019-02-16T13:28:47.000Z</time>
      </trkpt>
      <trkpt lat="43.95873" lon="7.14147">
        <ele>716.59997558594</ele>
        <time>2019-02-16T13:28:48.000Z</time>
      </trkpt>
      <trkpt lat="43.95871" lon="7.14156">
        <ele>715.79998779297</ele>
        <time>2019-02-16T13:28:49.000Z</time>
      </trkpt>
      <trkpt lat="43.95869" lon="7.14165">
        <ele>714.59997558594</ele>
        <time>2019-02-16T13:28:50.000Z</time>
      </trkpt>
      <trkpt lat="43.95866" lon="7.14175">
        <ele>713</ele>
        <time>2019-02-16T13:28:51.000Z</time>
      </trkpt>
      <trkpt lat="43.95863" lon="7.14183">
        <ele>711.59997558594</ele>
        <time>2019-02-16T13:28:52.000Z</time>
      </trkpt>
      <trkpt lat="43.95859" lon="7.14192">
        <ele>710</ele>
        <time>2019-02-16T13:28:53.000Z</time>
      </trkpt>
      <trkpt lat="43.95855" lon="7.142">
        <ele>708.59997558594</ele>
        <time>2019-02-16T13:28:54.000Z</time>
      </trkpt>
      <trkpt lat="43.95842" lon="7.14213">
        <ele>706.40002441406</ele>
        <time>2019-02-16T13:28:56.000Z</time>
      </trkpt>
      <trkpt lat="43.95829" lon="7.14225">
        <ele>705</ele>
        <time>2019-02-16T13:28:58.000Z</time>
      </trkpt>
      <trkpt lat="43.95821" lon="7.14228">
        <ele>704.59997558594</ele>
        <time>2019-02-16T13:28:59.000Z</time>
      </trkpt>
      <trkpt lat="43.95815" lon="7.14231">
        <ele>703.59997558594</ele>
        <time>2019-02-16T13:29:00.000Z</time>
      </trkpt>
      <trkpt lat="43.95809" lon="7.14231">
        <ele>703.20001220703</ele>
        <time>2019-02-16T13:29:01.000Z</time>
      </trkpt>
      <trkpt lat="43.958" lon="7.14226">
        <ele>702.59997558594</ele>
        <time>2019-02-16T13:29:03.000Z</time>
      </trkpt>
      <trkpt lat="43.95796" lon="7.14227">
        <ele>702.20001220703</ele>
        <time>2019-02-16T13:29:04.000Z</time>
      </trkpt>
      <trkpt lat="43.95791" lon="7.14231">
        <ele>702</ele>
        <time>2019-02-16T13:29:06.000Z</time>
      </trkpt>
      <trkpt lat="43.95783" lon="7.14244">
        <ele>701.20001220703</ele>
        <time>2019-02-16T13:29:09.000Z</time>
      </trkpt>
      <trkpt lat="43.95779" lon="7.1425">
        <ele>700.79998779297</ele>
        <time>2019-02-16T13:29:10.000Z</time>
      </trkpt>
      <trkpt lat="43.95774" lon="7.14257">
        <ele>700</ele>
        <time>2019-02-16T13:29:11.000Z</time>
      </trkpt>
      <trkpt lat="43.95768" lon="7.14263">
        <ele>699.40002441406</ele>
        <time>2019-02-16T13:29:12.000Z</time>
      </trkpt>
      <trkpt lat="43.95762" lon="7.14268">
        <ele>698.20001220703</ele>
        <time>2019-02-16T13:29:13.000Z</time>
      </trkpt>
      <trkpt lat="43.95755" lon="7.14273">
        <ele>697</ele>
        <time>2019-02-16T13:29:14.000Z</time>
      </trkpt>
      <trkpt lat="43.95748" lon="7.14277">
        <ele>695</ele>
        <time>2019-02-16T13:29:15.000Z</time>
      </trkpt>
      <trkpt lat="43.95742" lon="7.14282">
        <ele>693.59997558594</ele>
        <time>2019-02-16T13:29:16.000Z</time>
      </trkpt>
      <trkpt lat="43.95735" lon="7.14288">
        <ele>692.20001220703</ele>
        <time>2019-02-16T13:29:17.000Z</time>
      </trkpt>
      <trkpt lat="43.95729" lon="7.14295">
        <ele>691.40002441406</ele>
        <time>2019-02-16T13:29:18.000Z</time>
      </trkpt>
      <trkpt lat="43.95724" lon="7.14299">
        <ele>690.59997558594</ele>
        <time>2019-02-16T13:29:19.000Z</time>
      </trkpt>
      <trkpt lat="43.95719" lon="7.14301">
        <ele>689.59997558594</ele>
        <time>2019-02-16T13:29:20.000Z</time>
      </trkpt>
      <trkpt lat="43.95714" lon="7.143">
        <ele>688.20001220703</ele>
        <time>2019-02-16T13:29:21.000Z</time>
      </trkpt>
      <trkpt lat="43.9571" lon="7.143">
        <ele>687.20001220703</ele>
        <time>2019-02-16T13:29:22.000Z</time>
      </trkpt>
      <trkpt lat="43.95706" lon="7.14303">
        <ele>685.20001220703</ele>
        <time>2019-02-16T13:29:23.000Z</time>
      </trkpt>
      <trkpt lat="43.95702" lon="7.14307">
        <ele>683.40002441406</ele>
        <time>2019-02-16T13:29:24.000Z</time>
      </trkpt>
      <trkpt lat="43.957" lon="7.14311">
        <ele>682.40002441406</ele>
        <time>2019-02-16T13:29:25.000Z</time>
      </trkpt>
      <trkpt lat="43.95695" lon="7.14316">
        <ele>681.40002441406</ele>
        <time>2019-02-16T13:29:26.000Z</time>
      </trkpt>
      <trkpt lat="43.9569" lon="7.1432">
        <ele>680.40002441406</ele>
        <time>2019-02-16T13:29:27.000Z</time>
      </trkpt>
      <trkpt lat="43.95676" lon="7.14323">
        <ele>679</ele>
        <time>2019-02-16T13:29:29.000Z</time>
      </trkpt>
      <trkpt lat="43.9567" lon="7.14322">
        <ele>678</ele>
        <time>2019-02-16T13:29:30.000Z</time>
      </trkpt>
      <trkpt lat="43.95663" lon="7.14321">
        <ele>676.79998779297</ele>
        <time>2019-02-16T13:29:31.000Z</time>
      </trkpt>
      <trkpt lat="43.95657" lon="7.14321">
        <ele>675</ele>
        <time>2019-02-16T13:29:32.000Z</time>
      </trkpt>
      <trkpt lat="43.95652" lon="7.14322">
        <ele>673.79998779297</ele>
        <time>2019-02-16T13:29:33.000Z</time>
      </trkpt>
      <trkpt lat="43.95647" lon="7.14324">
        <ele>672.59997558594</ele>
        <time>2019-02-16T13:29:34.000Z</time>
      </trkpt>
      <trkpt lat="43.95637" lon="7.14329">
        <ele>670.40002441406</ele>
        <time>2019-02-16T13:29:36.000Z</time>
      </trkpt>
      <trkpt lat="43.95632" lon="7.1433">
        <ele>669</ele>
        <time>2019-02-16T13:29:37.000Z</time>
      </trkpt>
      <trkpt lat="43.95626" lon="7.1433">
        <ele>667.20001220703</ele>
        <time>2019-02-16T13:29:38.000Z</time>
      </trkpt>
      <trkpt lat="43.9562" lon="7.14329">
        <ele>665</ele>
        <time>2019-02-16T13:29:39.000Z</time>
      </trkpt>
      <trkpt lat="43.95615" lon="7.1433">
        <ele>662.40002441406</ele>
        <time>2019-02-16T13:29:40.000Z</time>
      </trkpt>
      <trkpt lat="43.95609" lon="7.14328">
        <ele>660.20001220703</ele>
        <time>2019-02-16T13:29:41.000Z</time>
      </trkpt>
      <trkpt lat="43.95603" lon="7.14328">
        <ele>658.40002441406</ele>
        <time>2019-02-16T13:29:42.000Z</time>
      </trkpt>
      <trkpt lat="43.95598" lon="7.14329">
        <ele>657.40002441406</ele>
        <time>2019-02-16T13:29:43.000Z</time>
      </trkpt>
      <trkpt lat="43.95592" lon="7.14329">
        <ele>656.20001220703</ele>
        <time>2019-02-16T13:29:44.000Z</time>
      </trkpt>
      <trkpt lat="43.95586" lon="7.14331">
        <ele>655.20001220703</ele>
        <time>2019-02-16T13:29:45.000Z</time>
      </trkpt>
      <trkpt lat="43.95579" lon="7.14334">
        <ele>654.20001220703</ele>
        <time>2019-02-16T13:29:46.000Z</time>
      </trkpt>
      <trkpt lat="43.95573" lon="7.14335">
        <ele>652.59997558594</ele>
        <time>2019-02-16T13:29:47.000Z</time>
      </trkpt>
      <trkpt lat="43.95568" lon="7.14335">
        <ele>651.59997558594</ele>
        <time>2019-02-16T13:29:48.000Z</time>
      </trkpt>
      <trkpt lat="43.95556" lon="7.14339">
        <ele>650.20001220703</ele>
        <time>2019-02-16T13:29:50.000Z</time>
      </trkpt>
      <trkpt lat="43.95545" lon="7.14348">
        <ele>649</ele>
        <time>2019-02-16T13:29:52.000Z</time>
      </trkpt>
      <trkpt lat="43.95532" lon="7.14357">
        <ele>648</ele>
        <time>2019-02-16T13:29:54.000Z</time>
      </trkpt>
      <trkpt lat="43.95512" lon="7.14363">
        <ele>646.59997558594</ele>
        <time>2019-02-16T13:29:57.000Z</time>
      </trkpt>
      <trkpt lat="43.95505" lon="7.14363">
        <ele>646</ele>
        <time>2019-02-16T13:29:58.000Z</time>
      </trkpt>
      <trkpt lat="43.95498" lon="7.14367">
        <ele>645.59997558594</ele>
        <time>2019-02-16T13:29:59.000Z</time>
      </trkpt>
      <trkpt lat="43.9549" lon="7.14378">
        <ele>644.59997558594</ele>
        <time>2019-02-16T13:30:01.000Z</time>
      </trkpt>
      <trkpt lat="43.95486" lon="7.14384">
        <ele>643.79998779297</ele>
        <time>2019-02-16T13:30:02.000Z</time>
      </trkpt>
      <trkpt lat="43.95481" lon="7.14388">
        <ele>642.40002441406</ele>
        <time>2019-02-16T13:30:03.000Z</time>
      </trkpt>
      <trkpt lat="43.95472" lon="7.14392">
        <ele>640.40002441406</ele>
        <time>2019-02-16T13:30:05.000Z</time>
      </trkpt>
      <trkpt lat="43.95469" lon="7.14393">
        <ele>638.79998779297</ele>
        <time>2019-02-16T13:30:06.000Z</time>
      </trkpt>
      <trkpt lat="43.95468" lon="7.14393">
        <ele>637.59997558594</ele>
        <time>2019-02-16T13:30:07.000Z</time>
      </trkpt>
      <trkpt lat="43.95469" lon="7.14393">
        <ele>637</ele>
        <time>2019-02-16T13:30:08.000Z</time>
      </trkpt>
      <trkpt lat="43.95468" lon="7.14393">
        <ele>636.20001220703</ele>
        <time>2019-02-16T13:30:09.000Z</time>
      </trkpt>
      <trkpt lat="43.95468" lon="7.14393">
        <ele>635.20001220703</ele>
        <time>2019-02-16T13:30:14.000Z</time>
      </trkpt>
      <trkpt lat="43.95468" lon="7.14393">
        <ele>635.59997558594</ele>
        <time>2019-02-16T13:30:19.000Z</time>
      </trkpt>
      <trkpt lat="43.95468" lon="7.14393">
        <ele>636</ele>
        <time>2019-02-16T13:30:31.000Z</time>
      </trkpt>
      <trkpt lat="43.95468" lon="7.14392">
        <ele>636</ele>
        <time>2019-02-16T13:30:38.000Z</time>
      </trkpt>
      <trkpt lat="43.95468" lon="7.14392">
        <ele>635.79998779297</ele>
        <time>2019-02-16T13:30:47.000Z</time>
      </trkpt>
      <trkpt lat="43.95468" lon="7.14393">
        <ele>636</ele>
        <time>2019-02-16T13:30:56.000Z</time>
      </trkpt>
      <trkpt lat="43.95468" lon="7.14393">
        <ele>635.79998779297</ele>
        <time>2019-02-16T13:31:10.000Z</time>
      </trkpt>
      <trkpt lat="43.95467" lon="7.14393">
        <ele>635.79998779297</ele>
        <time>2019-02-16T13:31:32.000Z</time>
      </trkpt>
      <trkpt lat="43.95457" lon="7.14394">
        <ele>635.59997558594</ele>
        <time>2019-02-16T13:31:37.000Z</time>
      </trkpt>
      <trkpt lat="43.95451" lon="7.14399">
        <ele>635</ele>
        <time>2019-02-16T13:31:39.000Z</time>
      </trkpt>
      <trkpt lat="43.95448" lon="7.14402">
        <ele>634.59997558594</ele>
        <time>2019-02-16T13:31:40.000Z</time>
      </trkpt>
      <trkpt lat="43.95443" lon="7.14404">
        <ele>633.79998779297</ele>
        <time>2019-02-16T13:31:41.000Z</time>
      </trkpt>
      <trkpt lat="43.9544" lon="7.14405">
        <ele>632.79998779297</ele>
        <time>2019-02-16T13:31:42.000Z</time>
      </trkpt>
      <trkpt lat="43.95436" lon="7.14406">
        <ele>631.59997558594</ele>
        <time>2019-02-16T13:31:43.000Z</time>
      </trkpt>
      <trkpt lat="43.95433" lon="7.14407">
        <ele>630.40002441406</ele>
        <time>2019-02-16T13:31:44.000Z</time>
      </trkpt>
      <trkpt lat="43.9543" lon="7.1441">
        <ele>629</ele>
        <time>2019-02-16T13:31:45.000Z</time>
      </trkpt>
      <trkpt lat="43.95428" lon="7.14413">
        <ele>627.40002441406</ele>
        <time>2019-02-16T13:31:46.000Z</time>
      </trkpt>
      <trkpt lat="43.95427" lon="7.14416">
        <ele>626.20001220703</ele>
        <time>2019-02-16T13:31:47.000Z</time>
      </trkpt>
      <trkpt lat="43.95425" lon="7.14418">
        <ele>625</ele>
        <time>2019-02-16T13:31:48.000Z</time>
      </trkpt>
      <trkpt lat="43.95423" lon="7.1442">
        <ele>624</ele>
        <time>2019-02-16T13:31:49.000Z</time>
      </trkpt>
      <trkpt lat="43.95421" lon="7.1442">
        <ele>623.20001220703</ele>
        <time>2019-02-16T13:31:50.000Z</time>
      </trkpt>
      <trkpt lat="43.95418" lon="7.14421">
        <ele>622.59997558594</ele>
        <time>2019-02-16T13:31:51.000Z</time>
      </trkpt>
      <trkpt lat="43.95412" lon="7.14422">
        <ele>621.20001220703</ele>
        <time>2019-02-16T13:31:53.000Z</time>
      </trkpt>
      <trkpt lat="43.95406" lon="7.14428">
        <ele>619.40002441406</ele>
        <time>2019-02-16T13:31:55.000Z</time>
      </trkpt>
      <trkpt lat="43.95403" lon="7.14433">
        <ele>618.59997558594</ele>
        <time>2019-02-16T13:31:56.000Z</time>
      </trkpt>
      <trkpt lat="43.954" lon="7.14438">
        <ele>617.59997558594</ele>
        <time>2019-02-16T13:31:57.000Z</time>
      </trkpt>
      <trkpt lat="43.95398" lon="7.14442">
        <ele>616.59997558594</ele>
        <time>2019-02-16T13:31:58.000Z</time>
      </trkpt>
      <trkpt lat="43.95395" lon="7.14446">
        <ele>615.40002441406</ele>
        <time>2019-02-16T13:31:59.000Z</time>
      </trkpt>
      <trkpt lat="43.95394" lon="7.1445">
        <ele>614</ele>
        <time>2019-02-16T13:32:00.000Z</time>
      </trkpt>
      <trkpt lat="43.95392" lon="7.14455">
        <ele>612.79998779297</ele>
        <time>2019-02-16T13:32:01.000Z</time>
      </trkpt>
      <trkpt lat="43.95391" lon="7.1446">
        <ele>611.79998779297</ele>
        <time>2019-02-16T13:32:02.000Z</time>
      </trkpt>
      <trkpt lat="43.95387" lon="7.14469">
        <ele>610</ele>
        <time>2019-02-16T13:32:04.000Z</time>
      </trkpt>
      <trkpt lat="43.95382" lon="7.14472">
        <ele>609.40002441406</ele>
        <time>2019-02-16T13:32:05.000Z</time>
      </trkpt>
      <trkpt lat="43.95377" lon="7.14475">
        <ele>608.59997558594</ele>
        <time>2019-02-16T13:32:06.000Z</time>
      </trkpt>
      <trkpt lat="43.95365" lon="7.1448">
        <ele>607.59997558594</ele>
        <time>2019-02-16T13:32:08.000Z</time>
      </trkpt>
      <trkpt lat="43.9536" lon="7.14482">
        <ele>607.20001220703</ele>
        <time>2019-02-16T13:32:09.000Z</time>
      </trkpt>
      <trkpt lat="43.95355" lon="7.14483">
        <ele>606.59997558594</ele>
        <time>2019-02-16T13:32:10.000Z</time>
      </trkpt>
      <trkpt lat="43.95349" lon="7.14483">
        <ele>606.40002441406</ele>
        <time>2019-02-16T13:32:11.000Z</time>
      </trkpt>
      <trkpt lat="43.9534" lon="7.14478">
        <ele>605.59997558594</ele>
        <time>2019-02-16T13:32:13.000Z</time>
      </trkpt>
      <trkpt lat="43.95336" lon="7.14476">
        <ele>605.40002441406</ele>
        <time>2019-02-16T13:32:14.000Z</time>
      </trkpt>
      <trkpt lat="43.95317" lon="7.14466">
        <ele>604.40002441406</ele>
        <time>2019-02-16T13:32:19.000Z</time>
      </trkpt>
      <trkpt lat="43.95307" lon="7.14466">
        <ele>603.79998779297</ele>
        <time>2019-02-16T13:32:24.000Z</time>
      </trkpt>
      <trkpt lat="43.95306" lon="7.14469">
        <ele>603.20001220703</ele>
        <time>2019-02-16T13:32:28.000Z</time>
      </trkpt>
      <trkpt lat="43.95305" lon="7.14469">
        <ele>603.20001220703</ele>
        <time>2019-02-16T13:32:29.000Z</time>
      </trkpt>
      <trkpt lat="43.95305" lon="7.14469">
        <ele>603.20001220703</ele>
        <time>2019-02-16T13:32:35.000Z</time>
      </trkpt>
      <trkpt lat="43.95305" lon="7.14468">
        <ele>603.20001220703</ele>
        <time>2019-02-16T13:32:45.000Z</time>
      </trkpt>
      <trkpt lat="43.95305" lon="7.14466">
        <ele>603.20001220703</ele>
        <time>2019-02-16T13:32:46.000Z</time>
      </trkpt>
      <trkpt lat="43.95306" lon="7.14452">
        <ele>603</ele>
        <time>2019-02-16T13:32:49.000Z</time>
      </trkpt>
      <trkpt lat="43.95313" lon="7.14442">
        <ele>601.79998779297</ele>
        <time>2019-02-16T13:32:52.000Z</time>
      </trkpt>
      <trkpt lat="43.95322" lon="7.14438">
        <ele>600.20001220703</ele>
        <time>2019-02-16T13:32:54.000Z</time>
      </trkpt>
      <trkpt lat="43.95326" lon="7.14437">
        <ele>599.20001220703</ele>
        <time>2019-02-16T13:32:55.000Z</time>
      </trkpt>
      <trkpt lat="43.9533" lon="7.14435">
        <ele>598.40002441406</ele>
        <time>2019-02-16T13:32:56.000Z</time>
      </trkpt>
      <trkpt lat="43.95335" lon="7.14433">
        <ele>597.59997558594</ele>
        <time>2019-02-16T13:32:57.000Z</time>
      </trkpt>
      <trkpt lat="43.95344" lon="7.14428">
        <ele>595.79998779297</ele>
        <time>2019-02-16T13:32:59.000Z</time>
      </trkpt>
      <trkpt lat="43.95348" lon="7.14426">
        <ele>594.79998779297</ele>
        <time>2019-02-16T13:33:00.000Z</time>
      </trkpt>
      <trkpt lat="43.95347" lon="7.14422">
        <ele>594.20001220703</ele>
        <time>2019-02-16T13:33:01.000Z</time>
      </trkpt>
      <trkpt lat="43.95346" lon="7.14414">
        <ele>592.59997558594</ele>
        <time>2019-02-16T13:33:03.000Z</time>
      </trkpt>
      <trkpt lat="43.95349" lon="7.14399">
        <ele>592</ele>
        <time>2019-02-16T13:33:06.000Z</time>
      </trkpt>
      <trkpt lat="43.95348" lon="7.14382">
        <ele>591.79998779297</ele>
        <time>2019-02-16T13:33:10.000Z</time>
      </trkpt>
      <trkpt lat="43.95357" lon="7.14368">
        <ele>591.79998779297</ele>
        <time>2019-02-16T13:33:13.000Z</time>
      </trkpt>
      <trkpt lat="43.95361" lon="7.14364">
        <ele>591.59997558594</ele>
        <time>2019-02-16T13:33:14.000Z</time>
      </trkpt>
      <trkpt lat="43.95363" lon="7.14359">
        <ele>591.20001220703</ele>
        <time>2019-02-16T13:33:15.000Z</time>
      </trkpt>
      <trkpt lat="43.95365" lon="7.14354">
        <ele>590.59997558594</ele>
        <time>2019-02-16T13:33:16.000Z</time>
      </trkpt>
      <trkpt lat="43.95367" lon="7.14348">
        <ele>590.20001220703</ele>
        <time>2019-02-16T13:33:17.000Z</time>
      </trkpt>
      <trkpt lat="43.95372" lon="7.14336">
        <ele>589</ele>
        <time>2019-02-16T13:33:19.000Z</time>
      </trkpt>
      <trkpt lat="43.95372" lon="7.1433">
        <ele>588.59997558594</ele>
        <time>2019-02-16T13:33:20.000Z</time>
      </trkpt>
      <trkpt lat="43.95374" lon="7.14324">
        <ele>588</ele>
        <time>2019-02-16T13:33:21.000Z</time>
      </trkpt>
      <trkpt lat="43.95379" lon="7.14319">
        <ele>586.40002441406</ele>
        <time>2019-02-16T13:33:23.000Z</time>
      </trkpt>
      <trkpt lat="43.95386" lon="7.14312">
        <ele>586.20001220703</ele>
        <time>2019-02-16T13:33:26.000Z</time>
      </trkpt>
      <trkpt lat="43.95386" lon="7.14303">
        <ele>586.59997558594</ele>
        <time>2019-02-16T13:33:30.000Z</time>
      </trkpt>
      <trkpt lat="43.95381" lon="7.143">
        <ele>586.79998779297</ele>
        <time>2019-02-16T13:33:33.000Z</time>
      </trkpt>
      <trkpt lat="43.9538" lon="7.14299">
        <ele>587</ele>
        <time>2019-02-16T13:33:34.000Z</time>
      </trkpt>
      <trkpt lat="43.95376" lon="7.14296">
        <ele>587.79998779297</ele>
        <time>2019-02-16T13:33:37.000Z</time>
      </trkpt>
      <trkpt lat="43.95372" lon="7.14292">
        <ele>588.40002441406</ele>
        <time>2019-02-16T13:33:40.000Z</time>
      </trkpt>
      <trkpt lat="43.9537" lon="7.1429">
        <ele>588.79998779297</ele>
        <time>2019-02-16T13:33:41.000Z</time>
      </trkpt>
      <trkpt lat="43.95365" lon="7.14287">
        <ele>590</ele>
        <time>2019-02-16T13:33:44.000Z</time>
      </trkpt>
      <trkpt lat="43.95362" lon="7.14286">
        <ele>590.59997558594</ele>
        <time>2019-02-16T13:33:46.000Z</time>
      </trkpt>
      <trkpt lat="43.95355" lon="7.14284">
        <ele>591</ele>
        <time>2019-02-16T13:33:49.000Z</time>
      </trkpt>
      <trkpt lat="43.9535" lon="7.14281">
        <ele>591.20001220703</ele>
        <time>2019-02-16T13:33:51.000Z</time>
      </trkpt>
      <trkpt lat="43.95343" lon="7.14274">
        <ele>591</ele>
        <time>2019-02-16T13:33:56.000Z</time>
      </trkpt>
      <trkpt lat="43.95342" lon="7.14272">
        <ele>590.79998779297</ele>
        <time>2019-02-16T13:34:01.000Z</time>
      </trkpt>
      <trkpt lat="43.9534" lon="7.14269">
        <ele>590.79998779297</ele>
        <time>2019-02-16T13:34:12.000Z</time>
      </trkpt>
      <trkpt lat="43.95337" lon="7.14258">
        <ele>590.79998779297</ele>
        <time>2019-02-16T13:34:15.000Z</time>
      </trkpt>
      <trkpt lat="43.95343" lon="7.14248">
        <ele>589.59997558594</ele>
        <time>2019-02-16T13:34:18.000Z</time>
      </trkpt>
      <trkpt lat="43.95349" lon="7.14244">
        <ele>588.20001220703</ele>
        <time>2019-02-16T13:34:20.000Z</time>
      </trkpt>
      <trkpt lat="43.95351" lon="7.14241">
        <ele>587.79998779297</ele>
        <time>2019-02-16T13:34:21.000Z</time>
      </trkpt>
      <trkpt lat="43.95351" lon="7.14237">
        <ele>587.40002441406</ele>
        <time>2019-02-16T13:34:22.000Z</time>
      </trkpt>
      <trkpt lat="43.95349" lon="7.14234">
        <ele>587</ele>
        <time>2019-02-16T13:34:23.000Z</time>
      </trkpt>
      <trkpt lat="43.95345" lon="7.14232">
        <ele>586.59997558594</ele>
        <time>2019-02-16T13:34:25.000Z</time>
      </trkpt>
      <trkpt lat="43.95337" lon="7.14231">
        <ele>586.79998779297</ele>
        <time>2019-02-16T13:34:27.000Z</time>
      </trkpt>
      <trkpt lat="43.95329" lon="7.14228">
        <ele>587</ele>
        <time>2019-02-16T13:34:29.000Z</time>
      </trkpt>
      <trkpt lat="43.95327" lon="7.14225">
        <ele>587</ele>
        <time>2019-02-16T13:34:30.000Z</time>
      </trkpt>
      <trkpt lat="43.95326" lon="7.14216">
        <ele>587</ele>
        <time>2019-02-16T13:34:32.000Z</time>
      </trkpt>
      <trkpt lat="43.95328" lon="7.1419">
        <ele>586.79998779297</ele>
        <time>2019-02-16T13:34:36.000Z</time>
      </trkpt>
      <trkpt lat="43.9533" lon="7.14183">
        <ele>586.40002441406</ele>
        <time>2019-02-16T13:34:37.000Z</time>
      </trkpt>
      <trkpt lat="43.95332" lon="7.14175">
        <ele>585.59997558594</ele>
        <time>2019-02-16T13:34:39.000Z</time>
      </trkpt>
      <trkpt lat="43.95326" lon="7.14173">
        <ele>584.79998779297</ele>
        <time>2019-02-16T13:34:41.000Z</time>
      </trkpt>
      <trkpt lat="43.95316" lon="7.14165">
        <ele>584.59997558594</ele>
        <time>2019-02-16T13:34:44.000Z</time>
      </trkpt>
      <trkpt lat="43.95314" lon="7.14161">
        <ele>584.79998779297</ele>
        <time>2019-02-16T13:34:45.000Z</time>
      </trkpt>
      <trkpt lat="43.95304" lon="7.14142">
        <ele>585.79998779297</ele>
        <time>2019-02-16T13:34:49.000Z</time>
      </trkpt>
      <trkpt lat="43.95303" lon="7.14137">
        <ele>586.20001220703</ele>
        <time>2019-02-16T13:34:50.000Z</time>
      </trkpt>
      <trkpt lat="43.95299" lon="7.14126">
        <ele>586.79998779297</ele>
        <time>2019-02-16T13:34:52.000Z</time>
      </trkpt>
      <trkpt lat="43.95295" lon="7.14104">
        <ele>587.59997558594</ele>
        <time>2019-02-16T13:34:56.000Z</time>
      </trkpt>
      <trkpt lat="43.95292" lon="7.141">
        <ele>587.79998779297</ele>
        <time>2019-02-16T13:34:57.000Z</time>
      </trkpt>
      <trkpt lat="43.95287" lon="7.14091">
        <ele>587.79998779297</ele>
        <time>2019-02-16T13:34:59.000Z</time>
      </trkpt>
      <trkpt lat="43.95285" lon="7.14086">
        <ele>588</ele>
        <time>2019-02-16T13:35:00.000Z</time>
      </trkpt>
      <trkpt lat="43.95273" lon="7.14065">
        <ele>588.20001220703</ele>
        <time>2019-02-16T13:35:05.000Z</time>
      </trkpt>
      <trkpt lat="43.9527" lon="7.14055">
        <ele>588.40002441406</ele>
        <time>2019-02-16T13:35:07.000Z</time>
      </trkpt>
      <trkpt lat="43.95272" lon="7.14051">
        <ele>588.40002441406</ele>
        <time>2019-02-16T13:35:08.000Z</time>
      </trkpt>
      <trkpt lat="43.95279" lon="7.14044">
        <ele>588.20001220703</ele>
        <time>2019-02-16T13:35:11.000Z</time>
      </trkpt>
      <trkpt lat="43.9528" lon="7.14025">
        <ele>588</ele>
        <time>2019-02-16T13:35:14.000Z</time>
      </trkpt>
      <trkpt lat="43.95274" lon="7.14011">
        <ele>587</ele>
        <time>2019-02-16T13:35:17.000Z</time>
      </trkpt>
      <trkpt lat="43.9527" lon="7.14011">
        <ele>586.59997558594</ele>
        <time>2019-02-16T13:35:18.000Z</time>
      </trkpt>
      <trkpt lat="43.95264" lon="7.1401">
        <ele>586.40002441406</ele>
        <time>2019-02-16T13:35:20.000Z</time>
      </trkpt>
      <trkpt lat="43.95259" lon="7.14009">
        <ele>586.40002441406</ele>
        <time>2019-02-16T13:35:21.000Z</time>
      </trkpt>
      <trkpt lat="43.95249" lon="7.14009">
        <ele>586.40002441406</ele>
        <time>2019-02-16T13:35:23.000Z</time>
      </trkpt>
      <trkpt lat="43.95243" lon="7.1401">
        <ele>586.40002441406</ele>
        <time>2019-02-16T13:35:24.000Z</time>
      </trkpt>
      <trkpt lat="43.95232" lon="7.14012">
        <ele>585</ele>
        <time>2019-02-16T13:35:26.000Z</time>
      </trkpt>
      <trkpt lat="43.95227" lon="7.14013">
        <ele>583.79998779297</ele>
        <time>2019-02-16T13:35:27.000Z</time>
      </trkpt>
      <trkpt lat="43.95222" lon="7.14013">
        <ele>582</ele>
        <time>2019-02-16T13:35:28.000Z</time>
      </trkpt>
      <trkpt lat="43.95219" lon="7.1401">
        <ele>580.59997558594</ele>
        <time>2019-02-16T13:35:29.000Z</time>
      </trkpt>
      <trkpt lat="43.95217" lon="7.14005">
        <ele>579.40002441406</ele>
        <time>2019-02-16T13:35:30.000Z</time>
      </trkpt>
      <trkpt lat="43.95215" lon="7.13999">
        <ele>578.59997558594</ele>
        <time>2019-02-16T13:35:31.000Z</time>
      </trkpt>
      <trkpt lat="43.95213" lon="7.13994">
        <ele>577.79998779297</ele>
        <time>2019-02-16T13:35:32.000Z</time>
      </trkpt>
      <trkpt lat="43.95211" lon="7.13989">
        <ele>577.20001220703</ele>
        <time>2019-02-16T13:35:33.000Z</time>
      </trkpt>
      <trkpt lat="43.9521" lon="7.13985">
        <ele>576.79998779297</ele>
        <time>2019-02-16T13:35:34.000Z</time>
      </trkpt>
      <trkpt lat="43.9521" lon="7.1398">
        <ele>576</ele>
        <time>2019-02-16T13:35:36.000Z</time>
      </trkpt>
      <trkpt lat="43.95211" lon="7.13979">
        <ele>575.59997558594</ele>
        <time>2019-02-16T13:35:37.000Z</time>
      </trkpt>
      <trkpt lat="43.95215" lon="7.13972">
        <ele>575.40002441406</ele>
        <time>2019-02-16T13:35:41.000Z</time>
      </trkpt>
      <trkpt lat="43.95216" lon="7.13967">
        <ele>575.79998779297</ele>
        <time>2019-02-16T13:35:43.000Z</time>
      </trkpt>
      <trkpt lat="43.95216" lon="7.13967">
        <ele>576.20001220703</ele>
        <time>2019-02-16T13:35:45.000Z</time>
      </trkpt>
      <trkpt lat="43.95218" lon="7.13952">
        <ele>576.20001220703</ele>
        <time>2019-02-16T13:35:49.000Z</time>
      </trkpt>
      <trkpt lat="43.95219" lon="7.1393">
        <ele>574.20001220703</ele>
        <time>2019-02-16T13:35:53.000Z</time>
      </trkpt>
      <trkpt lat="43.95224" lon="7.13924">
        <ele>573.40002441406</ele>
        <time>2019-02-16T13:35:56.000Z</time>
      </trkpt>
      <trkpt lat="43.95227" lon="7.13921">
        <ele>573.20001220703</ele>
        <time>2019-02-16T13:35:57.000Z</time>
      </trkpt>
      <trkpt lat="43.95227" lon="7.13917">
        <ele>573</ele>
        <time>2019-02-16T13:35:59.000Z</time>
      </trkpt>
      <trkpt lat="43.95226" lon="7.13915">
        <ele>573</ele>
        <time>2019-02-16T13:36:00.000Z</time>
      </trkpt>
      <trkpt lat="43.95225" lon="7.13914">
        <ele>572.20001220703</ele>
        <time>2019-02-16T13:36:04.000Z</time>
      </trkpt>
      <trkpt lat="43.95224" lon="7.13913">
        <ele>572.20001220703</ele>
        <time>2019-02-16T13:36:05.000Z</time>
      </trkpt>
      <trkpt lat="43.9522" lon="7.1391">
        <ele>571.59997558594</ele>
        <time>2019-02-16T13:36:10.000Z</time>
      </trkpt>
      <trkpt lat="43.95217" lon="7.13911">
        <ele>572.20001220703</ele>
        <time>2019-02-16T13:36:15.000Z</time>
      </trkpt>
      <trkpt lat="43.95215" lon="7.13913">
        <ele>573.20001220703</ele>
        <time>2019-02-16T13:36:20.000Z</time>
      </trkpt>
      <trkpt lat="43.95215" lon="7.13912">
        <ele>573.40002441406</ele>
        <time>2019-02-16T13:36:21.000Z</time>
      </trkpt>
      <trkpt lat="43.95212" lon="7.13917">
        <ele>574.40002441406</ele>
        <time>2019-02-16T13:36:26.000Z</time>
      </trkpt>
      <trkpt lat="43.95209" lon="7.1392">
        <ele>575.40002441406</ele>
        <time>2019-02-16T13:36:31.000Z</time>
      </trkpt>
      <trkpt lat="43.95207" lon="7.13921">
        <ele>576.20001220703</ele>
        <time>2019-02-16T13:36:34.000Z</time>
      </trkpt>
      <trkpt lat="43.95206" lon="7.13922">
        <ele>576.40002441406</ele>
        <time>2019-02-16T13:36:36.000Z</time>
      </trkpt>
      <trkpt lat="43.95205" lon="7.13923">
        <ele>577.59997558594</ele>
        <time>2019-02-16T13:36:40.000Z</time>
      </trkpt>
      <trkpt lat="43.95204" lon="7.13924">
        <ele>577.79998779297</ele>
        <time>2019-02-16T13:36:41.000Z</time>
      </trkpt>
      <trkpt lat="43.95204" lon="7.13926">
        <ele>578</ele>
        <time>2019-02-16T13:36:43.000Z</time>
      </trkpt>
      <trkpt lat="43.952" lon="7.13932">
        <ele>578</ele>
        <time>2019-02-16T13:36:45.000Z</time>
      </trkpt>
      <trkpt lat="43.9519" lon="7.1394">
        <ele>577.40002441406</ele>
        <time>2019-02-16T13:36:49.000Z</time>
      </trkpt>
      <trkpt lat="43.95181" lon="7.13944">
        <ele>578.20001220703</ele>
        <time>2019-02-16T13:36:54.000Z</time>
      </trkpt>
      <trkpt lat="43.95179" lon="7.13947">
        <ele>578.59997558594</ele>
        <time>2019-02-16T13:36:55.000Z</time>
      </trkpt>
      <trkpt lat="43.95175" lon="7.1395">
        <ele>578.59997558594</ele>
        <time>2019-02-16T13:36:56.000Z</time>
      </trkpt>
      <trkpt lat="43.9517" lon="7.13953">
        <ele>578.40002441406</ele>
        <time>2019-02-16T13:36:58.000Z</time>
      </trkpt>
      <trkpt lat="43.95164" lon="7.13953">
        <ele>578.79998779297</ele>
        <time>2019-02-16T13:37:02.000Z</time>
      </trkpt>
      <trkpt lat="43.9516" lon="7.13951">
        <ele>579.59997558594</ele>
        <time>2019-02-16T13:37:04.000Z</time>
      </trkpt>
      <trkpt lat="43.95156" lon="7.13948">
        <ele>580.79998779297</ele>
        <time>2019-02-16T13:37:07.000Z</time>
      </trkpt>
      <trkpt lat="43.95149" lon="7.1394">
        <ele>582</ele>
        <time>2019-02-16T13:37:11.000Z</time>
      </trkpt>
      <trkpt lat="43.95145" lon="7.13934">
        <ele>582.79998779297</ele>
        <time>2019-02-16T13:37:14.000Z</time>
      </trkpt>
      <trkpt lat="43.95143" lon="7.13928">
        <ele>583.20001220703</ele>
        <time>2019-02-16T13:37:16.000Z</time>
      </trkpt>
      <trkpt lat="43.95139" lon="7.13915">
        <ele>584</ele>
        <time>2019-02-16T13:37:20.000Z</time>
      </trkpt>
      <trkpt lat="43.95139" lon="7.1391">
        <ele>584</ele>
        <time>2019-02-16T13:37:21.000Z</time>
      </trkpt>
      <trkpt lat="43.9514" lon="7.13903">
        <ele>584.40002441406</ele>
        <time>2019-02-16T13:37:23.000Z</time>
      </trkpt>
      <trkpt lat="43.95139" lon="7.139">
        <ele>584.40002441406</ele>
        <time>2019-02-16T13:37:24.000Z</time>
      </trkpt>
      <trkpt lat="43.9514" lon="7.13878">
        <ele>585.40002441406</ele>
        <time>2019-02-16T13:37:29.000Z</time>
      </trkpt>
      <trkpt lat="43.95142" lon="7.13862">
        <ele>585.59997558594</ele>
        <time>2019-02-16T13:37:34.000Z</time>
      </trkpt>
      <trkpt lat="43.9515" lon="7.13846">
        <ele>586.40002441406</ele>
        <time>2019-02-16T13:37:40.000Z</time>
      </trkpt>
      <trkpt lat="43.95158" lon="7.13829">
        <ele>587</ele>
        <time>2019-02-16T13:37:45.000Z</time>
      </trkpt>
      <trkpt lat="43.95156" lon="7.13806">
        <ele>587.40002441406</ele>
        <time>2019-02-16T13:37:50.000Z</time>
      </trkpt>
      <trkpt lat="43.95155" lon="7.13781">
        <ele>587.20001220703</ele>
        <time>2019-02-16T13:37:55.000Z</time>
      </trkpt>
      <trkpt lat="43.95155" lon="7.13776">
        <ele>587</ele>
        <time>2019-02-16T13:37:56.000Z</time>
      </trkpt>
      <trkpt lat="43.95153" lon="7.13764">
        <ele>587</ele>
        <time>2019-02-16T13:37:58.000Z</time>
      </trkpt>
      <trkpt lat="43.95151" lon="7.13741">
        <ele>586.79998779297</ele>
        <time>2019-02-16T13:38:03.000Z</time>
      </trkpt>
      <trkpt lat="43.95151" lon="7.13734">
        <ele>587.20001220703</ele>
        <time>2019-02-16T13:38:05.000Z</time>
      </trkpt>
      <trkpt lat="43.95149" lon="7.13734">
        <ele>587</ele>
        <time>2019-02-16T13:38:07.000Z</time>
      </trkpt>
      <trkpt lat="43.9514" lon="7.13732">
        <ele>587.40002441406</ele>
        <time>2019-02-16T13:38:11.000Z</time>
      </trkpt>
      <trkpt lat="43.95138" lon="7.13733">
        <ele>587.59997558594</ele>
        <time>2019-02-16T13:38:12.000Z</time>
      </trkpt>
      <trkpt lat="43.95128" lon="7.13739">
        <ele>588.59997558594</ele>
        <time>2019-02-16T13:38:16.000Z</time>
      </trkpt>
      <trkpt lat="43.95119" lon="7.13754">
        <ele>589</ele>
        <time>2019-02-16T13:38:20.000Z</time>
      </trkpt>
      <trkpt lat="43.95108" lon="7.13758">
        <ele>589.59997558594</ele>
        <time>2019-02-16T13:38:24.000Z</time>
      </trkpt>
      <trkpt lat="43.95106" lon="7.13757">
        <ele>590</ele>
        <time>2019-02-16T13:38:25.000Z</time>
      </trkpt>
      <trkpt lat="43.951" lon="7.1375">
        <ele>591.20001220703</ele>
        <time>2019-02-16T13:38:29.000Z</time>
      </trkpt>
      <trkpt lat="43.95093" lon="7.13742">
        <ele>592.20001220703</ele>
        <time>2019-02-16T13:38:33.000Z</time>
      </trkpt>
      <trkpt lat="43.95092" lon="7.1374">
        <ele>592.59997558594</ele>
        <time>2019-02-16T13:38:34.000Z</time>
      </trkpt>
      <trkpt lat="43.9509" lon="7.13734">
        <ele>592.79998779297</ele>
        <time>2019-02-16T13:38:36.000Z</time>
      </trkpt>
      <trkpt lat="43.95087" lon="7.13731">
        <ele>593</ele>
        <time>2019-02-16T13:38:38.000Z</time>
      </trkpt>
      <trkpt lat="43.95083" lon="7.1373">
        <ele>593.40002441406</ele>
        <time>2019-02-16T13:38:40.000Z</time>
      </trkpt>
      <trkpt lat="43.95074" lon="7.13732">
        <ele>594</ele>
        <time>2019-02-16T13:38:43.000Z</time>
      </trkpt>
      <trkpt lat="43.95069" lon="7.13734">
        <ele>594.20001220703</ele>
        <time>2019-02-16T13:38:45.000Z</time>
      </trkpt>
      <trkpt lat="43.95063" lon="7.13736">
        <ele>594.59997558594</ele>
        <time>2019-02-16T13:38:48.000Z</time>
      </trkpt>
      <trkpt lat="43.95053" lon="7.13739">
        <ele>595.79998779297</ele>
        <time>2019-02-16T13:38:53.000Z</time>
      </trkpt>
      <trkpt lat="43.95042" lon="7.13736">
        <ele>596.79998779297</ele>
        <time>2019-02-16T13:38:59.000Z</time>
      </trkpt>
      <trkpt lat="43.95035" lon="7.13735">
        <ele>598</ele>
        <time>2019-02-16T13:39:03.000Z</time>
      </trkpt>
      <trkpt lat="43.9503" lon="7.13732">
        <ele>598.59997558594</ele>
        <time>2019-02-16T13:39:06.000Z</time>
      </trkpt>
      <trkpt lat="43.95026" lon="7.13727">
        <ele>599.20001220703</ele>
        <time>2019-02-16T13:39:09.000Z</time>
      </trkpt>
      <trkpt lat="43.95021" lon="7.13718">
        <ele>599.59997558594</ele>
        <time>2019-02-16T13:39:13.000Z</time>
      </trkpt>
      <trkpt lat="43.95016" lon="7.13708">
        <ele>600.20001220703</ele>
        <time>2019-02-16T13:39:17.000Z</time>
      </trkpt>
      <trkpt lat="43.95011" lon="7.13703">
        <ele>600.79998779297</ele>
        <time>2019-02-16T13:39:20.000Z</time>
      </trkpt>
      <trkpt lat="43.94993" lon="7.1369">
        <ele>601.40002441406</ele>
        <time>2019-02-16T13:39:28.000Z</time>
      </trkpt>
      <trkpt lat="43.94981" lon="7.13684">
        <ele>602</ele>
        <time>2019-02-16T13:39:34.000Z</time>
      </trkpt>
      <trkpt lat="43.94978" lon="7.13682">
        <ele>602.40002441406</ele>
        <time>2019-02-16T13:39:36.000Z</time>
      </trkpt>
      <trkpt lat="43.94972" lon="7.1368">
        <ele>602.79998779297</ele>
        <time>2019-02-16T13:39:39.000Z</time>
      </trkpt>
      <trkpt lat="43.94963" lon="7.13675">
        <ele>603.59997558594</ele>
        <time>2019-02-16T13:39:44.000Z</time>
      </trkpt>
      <trkpt lat="43.94959" lon="7.1367">
        <ele>604.40002441406</ele>
        <time>2019-02-16T13:39:47.000Z</time>
      </trkpt>
      <trkpt lat="43.94956" lon="7.13669">
        <ele>604.79998779297</ele>
        <time>2019-02-16T13:39:49.000Z</time>
      </trkpt>
      <trkpt lat="43.94949" lon="7.13667">
        <ele>605.79998779297</ele>
        <time>2019-02-16T13:39:54.000Z</time>
      </trkpt>
      <trkpt lat="43.94946" lon="7.13663">
        <ele>607</ele>
        <time>2019-02-16T13:40:00.000Z</time>
      </trkpt>
      <trkpt lat="43.94948" lon="7.1366">
        <ele>608</ele>
        <time>2019-02-16T13:40:06.000Z</time>
      </trkpt>
      <trkpt lat="43.94949" lon="7.1366">
        <ele>608</ele>
        <time>2019-02-16T13:40:07.000Z</time>
      </trkpt>
      <trkpt lat="43.94953" lon="7.1366">
        <ele>609</ele>
        <time>2019-02-16T13:40:12.000Z</time>
      </trkpt>
      <trkpt lat="43.94954" lon="7.1366">
        <ele>609.40002441406</ele>
        <time>2019-02-16T13:40:14.000Z</time>
      </trkpt>
      <trkpt lat="43.94958" lon="7.13658">
        <ele>610.20001220703</ele>
        <time>2019-02-16T13:40:18.000Z</time>
      </trkpt>
      <trkpt lat="43.9496" lon="7.13657">
        <ele>610.79998779297</ele>
        <time>2019-02-16T13:40:21.000Z</time>
      </trkpt>
      <trkpt lat="43.94962" lon="7.13656">
        <ele>611.20001220703</ele>
        <time>2019-02-16T13:40:23.000Z</time>
      </trkpt>
      <trkpt lat="43.94965" lon="7.13656">
        <ele>611.79998779297</ele>
        <time>2019-02-16T13:40:27.000Z</time>
      </trkpt>
      <trkpt lat="43.94965" lon="7.13655">
        <ele>612</ele>
        <time>2019-02-16T13:40:28.000Z</time>
      </trkpt>
      <trkpt lat="43.94966" lon="7.13654">
        <ele>612.40002441406</ele>
        <time>2019-02-16T13:40:29.000Z</time>
      </trkpt>
      <trkpt lat="43.94967" lon="7.13646">
        <ele>613.40002441406</ele>
        <time>2019-02-16T13:40:35.000Z</time>
      </trkpt>
      <trkpt lat="43.94968" lon="7.13643">
        <ele>613.59997558594</ele>
        <time>2019-02-16T13:40:37.000Z</time>
      </trkpt>
      <trkpt lat="43.94968" lon="7.13635">
        <ele>614.40002441406</ele>
        <time>2019-02-16T13:40:44.000Z</time>
      </trkpt>
      <trkpt lat="43.94968" lon="7.13636">
        <ele>614.59997558594</ele>
        <time>2019-02-16T13:40:45.000Z</time>
      </trkpt>
      <trkpt lat="43.94968" lon="7.13635">
        <ele>614.59997558594</ele>
        <time>2019-02-16T13:40:53.000Z</time>
      </trkpt>
      <trkpt lat="43.94968" lon="7.13634">
        <ele>614.79998779297</ele>
        <time>2019-02-16T13:41:06.000Z</time>
      </trkpt>
      <trkpt lat="43.94968" lon="7.13633">
        <ele>614.79998779297</ele>
        <time>2019-02-16T13:41:31.000Z</time>
      </trkpt>
      <trkpt lat="43.94968" lon="7.13632">
        <ele>615</ele>
        <time>2019-02-16T13:41:39.000Z</time>
      </trkpt>
      <trkpt lat="43.94968" lon="7.13631">
        <ele>614.79998779297</ele>
        <time>2019-02-16T13:41:54.000Z</time>
      </trkpt>
      <trkpt lat="43.94968" lon="7.1363">
        <ele>614.79998779297</ele>
        <time>2019-02-16T13:42:09.000Z</time>
      </trkpt>
      <trkpt lat="43.94968" lon="7.13629">
        <ele>614.79998779297</ele>
        <time>2019-02-16T13:42:18.000Z</time>
      </trkpt>
      <trkpt lat="43.94968" lon="7.13628">
        <ele>614.79998779297</ele>
        <time>2019-02-16T13:42:28.000Z</time>
      </trkpt>
      <trkpt lat="43.94968" lon="7.13628">
        <ele>614.79998779297</ele>
        <time>2019-02-16T13:42:36.000Z</time>
      </trkpt>
      <trkpt lat="43.94968" lon="7.13628">
        <ele>614.79998779297</ele>
        <time>2019-02-16T13:42:43.000Z</time>
      </trkpt>
      <trkpt lat="43.94969" lon="7.13627">
        <ele>614.79998779297</ele>
        <time>2019-02-16T13:42:54.000Z</time>
      </trkpt>
      <trkpt lat="43.94969" lon="7.13627">
        <ele>614.79998779297</ele>
        <time>2019-02-16T13:43:11.000Z</time>
      </trkpt>
      <trkpt lat="43.9497" lon="7.13627">
        <ele>614.79998779297</ele>
        <time>2019-02-16T13:43:23.000Z</time>
      </trkpt>
      <trkpt lat="43.9497" lon="7.13627">
        <ele>614.79998779297</ele>
        <time>2019-02-16T13:43:40.000Z</time>
      </trkpt>
      <trkpt lat="43.94971" lon="7.13627">
        <ele>614.79998779297</ele>
        <time>2019-02-16T13:44:08.000Z</time>
      </trkpt>
      <trkpt lat="43.94972" lon="7.13626">
        <ele>614.79998779297</ele>
        <time>2019-02-16T13:44:28.000Z</time>
      </trkpt>
      <trkpt lat="43.94973" lon="7.13624">
        <ele>614.79998779297</ele>
        <time>2019-02-16T13:44:29.000Z</time>
      </trkpt>
      <trkpt lat="43.94967" lon="7.13613">
        <ele>614.40002441406</ele>
        <time>2019-02-16T13:44:32.000Z</time>
      </trkpt>
      <trkpt lat="43.94964" lon="7.13603">
        <ele>614</ele>
        <time>2019-02-16T13:44:34.000Z</time>
      </trkpt>
      <trkpt lat="43.94963" lon="7.13602">
        <ele>613.79998779297</ele>
        <time>2019-02-16T13:44:35.000Z</time>
      </trkpt>
      <trkpt lat="43.94956" lon="7.13592">
        <ele>613.40002441406</ele>
        <time>2019-02-16T13:44:36.000Z</time>
      </trkpt>
      <trkpt lat="43.94949" lon="7.13581">
        <ele>612.59997558594</ele>
        <time>2019-02-16T13:44:38.000Z</time>
      </trkpt>
      <trkpt lat="43.94946" lon="7.13576">
        <ele>612</ele>
        <time>2019-02-16T13:44:39.000Z</time>
      </trkpt>
      <trkpt lat="43.94939" lon="7.13567">
        <ele>610.79998779297</ele>
        <time>2019-02-16T13:44:41.000Z</time>
      </trkpt>
      <trkpt lat="43.94935" lon="7.13564">
        <ele>610</ele>
        <time>2019-02-16T13:44:42.000Z</time>
      </trkpt>
      <trkpt lat="43.94932" lon="7.13562">
        <ele>608.59997558594</ele>
        <time>2019-02-16T13:44:43.000Z</time>
      </trkpt>
      <trkpt lat="43.94929" lon="7.13559">
        <ele>606.79998779297</ele>
        <time>2019-02-16T13:44:44.000Z</time>
      </trkpt>
      <trkpt lat="43.9493" lon="7.13557">
        <ele>605</ele>
        <time>2019-02-16T13:44:45.000Z</time>
      </trkpt>
      <trkpt lat="43.94932" lon="7.13554">
        <ele>603</ele>
        <time>2019-02-16T13:44:46.000Z</time>
      </trkpt>
      <trkpt lat="43.94935" lon="7.13552">
        <ele>601.79998779297</ele>
        <time>2019-02-16T13:44:47.000Z</time>
      </trkpt>
      <trkpt lat="43.94939" lon="7.13552">
        <ele>600.59997558594</ele>
        <time>2019-02-16T13:44:48.000Z</time>
      </trkpt>
      <trkpt lat="43.9495" lon="7.1355">
        <ele>599.40002441406</ele>
        <time>2019-02-16T13:44:50.000Z</time>
      </trkpt>
      <trkpt lat="43.94956" lon="7.13549">
        <ele>599</ele>
        <time>2019-02-16T13:44:51.000Z</time>
      </trkpt>
      <trkpt lat="43.94962" lon="7.13547">
        <ele>598.40002441406</ele>
        <time>2019-02-16T13:44:52.000Z</time>
      </trkpt>
      <trkpt lat="43.94968" lon="7.13544">
        <ele>596.59997558594</ele>
        <time>2019-02-16T13:44:54.000Z</time>
      </trkpt>
      <trkpt lat="43.94962" lon="7.13537">
        <ele>594.79998779297</ele>
        <time>2019-02-16T13:44:56.000Z</time>
      </trkpt>
      <trkpt lat="43.94956" lon="7.13528">
        <ele>593</ele>
        <time>2019-02-16T13:44:58.000Z</time>
      </trkpt>
      <trkpt lat="43.94958" lon="7.13523">
        <ele>592.20001220703</ele>
        <time>2019-02-16T13:44:59.000Z</time>
      </trkpt>
      <trkpt lat="43.9496" lon="7.13521">
        <ele>591.59997558594</ele>
        <time>2019-02-16T13:45:00.000Z</time>
      </trkpt>
      <trkpt lat="43.94959" lon="7.13517">
        <ele>589.40002441406</ele>
        <time>2019-02-16T13:45:02.000Z</time>
      </trkpt>
      <trkpt lat="43.94956" lon="7.13516">
        <ele>588.20001220703</ele>
        <time>2019-02-16T13:45:03.000Z</time>
      </trkpt>
      <trkpt lat="43.94951" lon="7.13509">
        <ele>586.40002441406</ele>
        <time>2019-02-16T13:45:05.000Z</time>
      </trkpt>
      <trkpt lat="43.9495" lon="7.13504">
        <ele>585.20001220703</ele>
        <time>2019-02-16T13:45:06.000Z</time>
      </trkpt>
      <trkpt lat="43.94946" lon="7.135">
        <ele>583.40002441406</ele>
        <time>2019-02-16T13:45:08.000Z</time>
      </trkpt>
      <trkpt lat="43.94946" lon="7.13498">
        <ele>582.40002441406</ele>
        <time>2019-02-16T13:45:09.000Z</time>
      </trkpt>
      <trkpt lat="43.94948" lon="7.13496">
        <ele>580.40002441406</ele>
        <time>2019-02-16T13:45:11.000Z</time>
      </trkpt>
      <trkpt lat="43.94949" lon="7.13496">
        <ele>579.59997558594</ele>
        <time>2019-02-16T13:45:12.000Z</time>
      </trkpt>
      <trkpt lat="43.94951" lon="7.13495">
        <ele>579.20001220703</ele>
        <time>2019-02-16T13:45:13.000Z</time>
      </trkpt>
      <trkpt lat="43.9495" lon="7.13493">
        <ele>578.59997558594</ele>
        <time>2019-02-16T13:45:15.000Z</time>
      </trkpt>
      <trkpt lat="43.94948" lon="7.13492">
        <ele>578.20001220703</ele>
        <time>2019-02-16T13:45:16.000Z</time>
      </trkpt>
      <trkpt lat="43.94947" lon="7.1349">
        <ele>577.79998779297</ele>
        <time>2019-02-16T13:45:17.000Z</time>
      </trkpt>
      <trkpt lat="43.94946" lon="7.13488">
        <ele>577.59997558594</ele>
        <time>2019-02-16T13:45:18.000Z</time>
      </trkpt>
      <trkpt lat="43.94943" lon="7.13483">
        <ele>576.20001220703</ele>
        <time>2019-02-16T13:45:20.000Z</time>
      </trkpt>
      <trkpt lat="43.94943" lon="7.13477">
        <ele>574.59997558594</ele>
        <time>2019-02-16T13:45:22.000Z</time>
      </trkpt>
      <trkpt lat="43.94939" lon="7.13469">
        <ele>572.59997558594</ele>
        <time>2019-02-16T13:45:24.000Z</time>
      </trkpt>
      <trkpt lat="43.94936" lon="7.13462">
        <ele>571.59997558594</ele>
        <time>2019-02-16T13:45:25.000Z</time>
      </trkpt>
      <trkpt lat="43.94929" lon="7.13448">
        <ele>569.40002441406</ele>
        <time>2019-02-16T13:45:27.000Z</time>
      </trkpt>
      <trkpt lat="43.94926" lon="7.13441">
        <ele>567.79998779297</ele>
        <time>2019-02-16T13:45:28.000Z</time>
      </trkpt>
      <trkpt lat="43.94923" lon="7.13436">
        <ele>566.59997558594</ele>
        <time>2019-02-16T13:45:29.000Z</time>
      </trkpt>
      <trkpt lat="43.94919" lon="7.13435">
        <ele>565.59997558594</ele>
        <time>2019-02-16T13:45:30.000Z</time>
      </trkpt>
      <trkpt lat="43.94912" lon="7.13438">
        <ele>564.59997558594</ele>
        <time>2019-02-16T13:45:32.000Z</time>
      </trkpt>
      <trkpt lat="43.94907" lon="7.13438">
        <ele>565</ele>
        <time>2019-02-16T13:45:33.000Z</time>
      </trkpt>
      <trkpt lat="43.94897" lon="7.13432">
        <ele>564.79998779297</ele>
        <time>2019-02-16T13:45:36.000Z</time>
      </trkpt>
      <trkpt lat="43.94885" lon="7.13436">
        <ele>562.79998779297</ele>
        <time>2019-02-16T13:45:39.000Z</time>
      </trkpt>
      <trkpt lat="43.94883" lon="7.13435">
        <ele>561.79998779297</ele>
        <time>2019-02-16T13:45:40.000Z</time>
      </trkpt>
      <trkpt lat="43.9488" lon="7.13434">
        <ele>559.79998779297</ele>
        <time>2019-02-16T13:45:42.000Z</time>
      </trkpt>
      <trkpt lat="43.94879" lon="7.13432">
        <ele>558.40002441406</ele>
        <time>2019-02-16T13:45:44.000Z</time>
      </trkpt>
      <trkpt lat="43.94879" lon="7.13431">
        <ele>557.79998779297</ele>
        <time>2019-02-16T13:45:45.000Z</time>
      </trkpt>
      <trkpt lat="43.94877" lon="7.13431">
        <ele>557.20001220703</ele>
        <time>2019-02-16T13:45:46.000Z</time>
      </trkpt>
      <trkpt lat="43.94878" lon="7.13431">
        <ele>556.40002441406</ele>
        <time>2019-02-16T13:45:47.000Z</time>
      </trkpt>
      <trkpt lat="43.94876" lon="7.1343">
        <ele>555.40002441406</ele>
        <time>2019-02-16T13:45:48.000Z</time>
      </trkpt>
      <trkpt lat="43.94876" lon="7.1343">
        <ele>554.20001220703</ele>
        <time>2019-02-16T13:45:49.000Z</time>
      </trkpt>
      <trkpt lat="43.94875" lon="7.1343">
        <ele>553.20001220703</ele>
        <time>2019-02-16T13:45:53.000Z</time>
      </trkpt>
      <trkpt lat="43.94874" lon="7.1343">
        <ele>553.20001220703</ele>
        <time>2019-02-16T13:45:56.000Z</time>
      </trkpt>
      <trkpt lat="43.94872" lon="7.13429">
        <ele>553.20001220703</ele>
        <time>2019-02-16T13:46:04.000Z</time>
      </trkpt>
      <trkpt lat="43.94871" lon="7.13428">
        <ele>554.20001220703</ele>
        <time>2019-02-16T13:46:09.000Z</time>
      </trkpt>
      <trkpt lat="43.94871" lon="7.13427">
        <ele>554.40002441406</ele>
        <time>2019-02-16T13:46:10.000Z</time>
      </trkpt>
      <trkpt lat="43.94868" lon="7.13423">
        <ele>554.40002441406</ele>
        <time>2019-02-16T13:46:17.000Z</time>
      </trkpt>
      <trkpt lat="43.94866" lon="7.1342">
        <ele>555.40002441406</ele>
        <time>2019-02-16T13:46:23.000Z</time>
      </trkpt>
      <trkpt lat="43.94866" lon="7.13419">
        <ele>556</ele>
        <time>2019-02-16T13:46:26.000Z</time>
      </trkpt>
      <trkpt lat="43.94867" lon="7.13418">
        <ele>556</ele>
        <time>2019-02-16T13:46:39.000Z</time>
      </trkpt>
      <trkpt lat="43.94868" lon="7.1341">
        <ele>556</ele>
        <time>2019-02-16T13:46:45.000Z</time>
      </trkpt>
      <trkpt lat="43.94868" lon="7.13399">
        <ele>555.79998779297</ele>
        <time>2019-02-16T13:46:48.000Z</time>
      </trkpt>
      <trkpt lat="43.94867" lon="7.13391">
        <ele>555</ele>
        <time>2019-02-16T13:46:50.000Z</time>
      </trkpt>
      <trkpt lat="43.94868" lon="7.13382">
        <ele>553.79998779297</ele>
        <time>2019-02-16T13:46:52.000Z</time>
      </trkpt>
      <trkpt lat="43.94866" lon="7.13373">
        <ele>552.59997558594</ele>
        <time>2019-02-16T13:46:54.000Z</time>
      </trkpt>
      <trkpt lat="43.94866" lon="7.13365">
        <ele>551</ele>
        <time>2019-02-16T13:46:56.000Z</time>
      </trkpt>
      <trkpt lat="43.94866" lon="7.13359">
        <ele>550.40002441406</ele>
        <time>2019-02-16T13:46:57.000Z</time>
      </trkpt>
      <trkpt lat="43.94866" lon="7.13353">
        <ele>549.20001220703</ele>
        <time>2019-02-16T13:46:58.000Z</time>
      </trkpt>
      <trkpt lat="43.94865" lon="7.13345">
        <ele>547</ele>
        <time>2019-02-16T13:47:00.000Z</time>
      </trkpt>
      <trkpt lat="43.94864" lon="7.13342">
        <ele>545.79998779297</ele>
        <time>2019-02-16T13:47:01.000Z</time>
      </trkpt>
      <trkpt lat="43.94863" lon="7.13339">
        <ele>544.59997558594</ele>
        <time>2019-02-16T13:47:02.000Z</time>
      </trkpt>
      <trkpt lat="43.94862" lon="7.13338">
        <ele>543.79998779297</ele>
        <time>2019-02-16T13:47:03.000Z</time>
      </trkpt>
      <trkpt lat="43.9486" lon="7.13339">
        <ele>542.40002441406</ele>
        <time>2019-02-16T13:47:04.000Z</time>
      </trkpt>
      <trkpt lat="43.94857" lon="7.1334">
        <ele>541.59997558594</ele>
        <time>2019-02-16T13:47:05.000Z</time>
      </trkpt>
      <trkpt lat="43.94854" lon="7.13339">
        <ele>540.59997558594</ele>
        <time>2019-02-16T13:47:06.000Z</time>
      </trkpt>
      <trkpt lat="43.94854" lon="7.13336">
        <ele>539.59997558594</ele>
        <time>2019-02-16T13:47:07.000Z</time>
      </trkpt>
      <trkpt lat="43.94855" lon="7.13332">
        <ele>538.79998779297</ele>
        <time>2019-02-16T13:47:08.000Z</time>
      </trkpt>
      <trkpt lat="43.94857" lon="7.13326">
        <ele>538.20001220703</ele>
        <time>2019-02-16T13:47:09.000Z</time>
      </trkpt>
      <trkpt lat="43.94858" lon="7.13321">
        <ele>537.40002441406</ele>
        <time>2019-02-16T13:47:10.000Z</time>
      </trkpt>
      <trkpt lat="43.94862" lon="7.13306">
        <ele>535.59997558594</ele>
        <time>2019-02-16T13:47:12.000Z</time>
      </trkpt>
      <trkpt lat="43.94863" lon="7.13302">
        <ele>534.79998779297</ele>
        <time>2019-02-16T13:47:13.000Z</time>
      </trkpt>
      <trkpt lat="43.94863" lon="7.13299">
        <ele>533.79998779297</ele>
        <time>2019-02-16T13:47:14.000Z</time>
      </trkpt>
      <trkpt lat="43.94861" lon="7.13297">
        <ele>532.79998779297</ele>
        <time>2019-02-16T13:47:15.000Z</time>
      </trkpt>
      <trkpt lat="43.9486" lon="7.13292">
        <ele>532.20001220703</ele>
        <time>2019-02-16T13:47:16.000Z</time>
      </trkpt>
      <trkpt lat="43.94859" lon="7.13287">
        <ele>531.59997558594</ele>
        <time>2019-02-16T13:47:17.000Z</time>
      </trkpt>
      <trkpt lat="43.94857" lon="7.13275">
        <ele>530.40002441406</ele>
        <time>2019-02-16T13:47:19.000Z</time>
      </trkpt>
      <trkpt lat="43.94858" lon="7.1327">
        <ele>530.20001220703</ele>
        <time>2019-02-16T13:47:20.000Z</time>
      </trkpt>
      <trkpt lat="43.94857" lon="7.1326">
        <ele>529.59997558594</ele>
        <time>2019-02-16T13:47:22.000Z</time>
      </trkpt>
      <trkpt lat="43.94857" lon="7.13257">
        <ele>529.20001220703</ele>
        <time>2019-02-16T13:47:23.000Z</time>
      </trkpt>
      <trkpt lat="43.94858" lon="7.13252">
        <ele>528</ele>
        <time>2019-02-16T13:47:25.000Z</time>
      </trkpt>
      <trkpt lat="43.94859" lon="7.13243">
        <ele>526.40002441406</ele>
        <time>2019-02-16T13:47:27.000Z</time>
      </trkpt>
      <trkpt lat="43.94858" lon="7.13233">
        <ele>525</ele>
        <time>2019-02-16T13:47:29.000Z</time>
      </trkpt>
      <trkpt lat="43.94857" lon="7.13226">
        <ele>523.59997558594</ele>
        <time>2019-02-16T13:47:31.000Z</time>
      </trkpt>
      <trkpt lat="43.94856" lon="7.13223">
        <ele>522.40002441406</ele>
        <time>2019-02-16T13:47:32.000Z</time>
      </trkpt>
      <trkpt lat="43.94854" lon="7.13218">
        <ele>521.40002441406</ele>
        <time>2019-02-16T13:47:33.000Z</time>
      </trkpt>
      <trkpt lat="43.94851" lon="7.13213">
        <ele>520.40002441406</ele>
        <time>2019-02-16T13:47:34.000Z</time>
      </trkpt>
      <trkpt lat="43.94849" lon="7.13209">
        <ele>519.79998779297</ele>
        <time>2019-02-16T13:47:35.000Z</time>
      </trkpt>
      <trkpt lat="43.94844" lon="7.13205">
        <ele>518.59997558594</ele>
        <time>2019-02-16T13:47:36.000Z</time>
      </trkpt>
      <trkpt lat="43.94837" lon="7.13199">
        <ele>518.20001220703</ele>
        <time>2019-02-16T13:47:38.000Z</time>
      </trkpt>
      <trkpt lat="43.94833" lon="7.13196">
        <ele>518</ele>
        <time>2019-02-16T13:47:39.000Z</time>
      </trkpt>
      <trkpt lat="43.94829" lon="7.13192">
        <ele>517.59997558594</ele>
        <time>2019-02-16T13:47:40.000Z</time>
      </trkpt>
      <trkpt lat="43.94821" lon="7.1318">
        <ele>516.40002441406</ele>
        <time>2019-02-16T13:47:42.000Z</time>
      </trkpt>
      <trkpt lat="43.94814" lon="7.13168">
        <ele>515.20001220703</ele>
        <time>2019-02-16T13:47:44.000Z</time>
      </trkpt>
      <trkpt lat="43.94806" lon="7.13158">
        <ele>513.59997558594</ele>
        <time>2019-02-16T13:47:46.000Z</time>
      </trkpt>
      <trkpt lat="43.94799" lon="7.13146">
        <ele>512.40002441406</ele>
        <time>2019-02-16T13:47:48.000Z</time>
      </trkpt>
      <trkpt lat="43.94794" lon="7.13137">
        <ele>510.79998779297</ele>
        <time>2019-02-16T13:47:50.000Z</time>
      </trkpt>
      <trkpt lat="43.94791" lon="7.13136">
        <ele>510.20001220703</ele>
        <time>2019-02-16T13:47:51.000Z</time>
      </trkpt>
      <trkpt lat="43.94788" lon="7.13135">
        <ele>508.79998779297</ele>
        <time>2019-02-16T13:47:52.000Z</time>
      </trkpt>
      <trkpt lat="43.94785" lon="7.1313">
        <ele>507.79998779297</ele>
        <time>2019-02-16T13:47:53.000Z</time>
      </trkpt>
      <trkpt lat="43.94783" lon="7.13127">
        <ele>506.39999389648</ele>
        <time>2019-02-16T13:47:54.000Z</time>
      </trkpt>
      <trkpt lat="43.94777" lon="7.1312">
        <ele>505</ele>
        <time>2019-02-16T13:47:56.000Z</time>
      </trkpt>
      <trkpt lat="43.94773" lon="7.13113">
        <ele>503.20001220703</ele>
        <time>2019-02-16T13:47:58.000Z</time>
      </trkpt>
      <trkpt lat="43.9477" lon="7.13106">
        <ele>501.39999389648</ele>
        <time>2019-02-16T13:48:00.000Z</time>
      </trkpt>
      <trkpt lat="43.9477" lon="7.13103">
        <ele>500.39999389648</ele>
        <time>2019-02-16T13:48:01.000Z</time>
      </trkpt>
      <trkpt lat="43.94767" lon="7.13098">
        <ele>498.20001220703</ele>
        <time>2019-02-16T13:48:03.000Z</time>
      </trkpt>
      <trkpt lat="43.94766" lon="7.13096">
        <ele>497.20001220703</ele>
        <time>2019-02-16T13:48:04.000Z</time>
      </trkpt>
      <trkpt lat="43.94761" lon="7.13091">
        <ele>495.60000610352</ele>
        <time>2019-02-16T13:48:06.000Z</time>
      </trkpt>
      <trkpt lat="43.94759" lon="7.13088">
        <ele>494</ele>
        <time>2019-02-16T13:48:07.000Z</time>
      </trkpt>
      <trkpt lat="43.94757" lon="7.13085">
        <ele>492.60000610352</ele>
        <time>2019-02-16T13:48:08.000Z</time>
      </trkpt>
      <trkpt lat="43.94754" lon="7.13084">
        <ele>491.79998779297</ele>
        <time>2019-02-16T13:48:09.000Z</time>
      </trkpt>
      <trkpt lat="43.94751" lon="7.13084">
        <ele>490.79998779297</ele>
        <time>2019-02-16T13:48:10.000Z</time>
      </trkpt>
      <trkpt lat="43.94747" lon="7.13084">
        <ele>489.60000610352</ele>
        <time>2019-02-16T13:48:11.000Z</time>
      </trkpt>
      <trkpt lat="43.9474" lon="7.13085">
        <ele>488.20001220703</ele>
        <time>2019-02-16T13:48:13.000Z</time>
      </trkpt>
      <trkpt lat="43.94734" lon="7.13084">
        <ele>487.39999389648</ele>
        <time>2019-02-16T13:48:14.000Z</time>
      </trkpt>
      <trkpt lat="43.94729" lon="7.13084">
        <ele>486</ele>
        <time>2019-02-16T13:48:15.000Z</time>
      </trkpt>
      <trkpt lat="43.94724" lon="7.13084">
        <ele>485.60000610352</ele>
        <time>2019-02-16T13:48:16.000Z</time>
      </trkpt>
      <trkpt lat="43.94719" lon="7.13083">
        <ele>484.60000610352</ele>
        <time>2019-02-16T13:48:17.000Z</time>
      </trkpt>
      <trkpt lat="43.94712" lon="7.13082">
        <ele>483.60000610352</ele>
        <time>2019-02-16T13:48:19.000Z</time>
      </trkpt>
      <trkpt lat="43.94703" lon="7.13072">
        <ele>482.20001220703</ele>
        <time>2019-02-16T13:48:22.000Z</time>
      </trkpt>
      <trkpt lat="43.94699" lon="7.13065">
        <ele>480.20001220703</ele>
        <time>2019-02-16T13:48:24.000Z</time>
      </trkpt>
      <trkpt lat="43.94698" lon="7.13064">
        <ele>479.20001220703</ele>
        <time>2019-02-16T13:48:25.000Z</time>
      </trkpt>
      <trkpt lat="43.94698" lon="7.13063">
        <ele>478</ele>
        <time>2019-02-16T13:48:26.000Z</time>
      </trkpt>
      <trkpt lat="43.94698" lon="7.13064">
        <ele>477</ele>
        <time>2019-02-16T13:48:27.000Z</time>
      </trkpt>
      <trkpt lat="43.94697" lon="7.13062">
        <ele>476.60000610352</ele>
        <time>2019-02-16T13:48:30.000Z</time>
      </trkpt>
      <trkpt lat="43.94698" lon="7.13062">
        <ele>476.79998779297</ele>
        <time>2019-02-16T13:48:32.000Z</time>
      </trkpt>
      <trkpt lat="43.94697" lon="7.13061">
        <ele>476.79998779297</ele>
        <time>2019-02-16T13:48:34.000Z</time>
      </trkpt>
      <trkpt lat="43.94692" lon="7.13054">
        <ele>476.60000610352</ele>
        <time>2019-02-16T13:48:42.000Z</time>
      </trkpt>
      <trkpt lat="43.9469" lon="7.13053">
        <ele>475.79998779297</ele>
        <time>2019-02-16T13:48:44.000Z</time>
      </trkpt>
      <trkpt lat="43.94686" lon="7.13052">
        <ele>475.20001220703</ele>
        <time>2019-02-16T13:48:46.000Z</time>
      </trkpt>
      <trkpt lat="43.94682" lon="7.13051">
        <ele>474.79998779297</ele>
        <time>2019-02-16T13:48:47.000Z</time>
      </trkpt>
      <trkpt lat="43.94669" lon="7.13047">
        <ele>474.60000610352</ele>
        <time>2019-02-16T13:48:51.000Z</time>
      </trkpt>
      <trkpt lat="43.94662" lon="7.13044">
        <ele>473.79998779297</ele>
        <time>2019-02-16T13:48:53.000Z</time>
      </trkpt>
      <trkpt lat="43.94651" lon="7.13041">
        <ele>472.20001220703</ele>
        <time>2019-02-16T13:48:56.000Z</time>
      </trkpt>
      <trkpt lat="43.94643" lon="7.13043">
        <ele>471.60000610352</ele>
        <time>2019-02-16T13:48:58.000Z</time>
      </trkpt>
      <trkpt lat="43.94637" lon="7.13046">
        <ele>470.79998779297</ele>
        <time>2019-02-16T13:48:59.000Z</time>
      </trkpt>
      <trkpt lat="43.94633" lon="7.13049">
        <ele>470.20001220703</ele>
        <time>2019-02-16T13:49:00.000Z</time>
      </trkpt>
      <trkpt lat="43.94622" lon="7.13053">
        <ele>469.39999389648</ele>
        <time>2019-02-16T13:49:02.000Z</time>
      </trkpt>
      <trkpt lat="43.94616" lon="7.13056">
        <ele>468.20001220703</ele>
        <time>2019-02-16T13:49:03.000Z</time>
      </trkpt>
      <trkpt lat="43.9461" lon="7.13058">
        <ele>467</ele>
        <time>2019-02-16T13:49:04.000Z</time>
      </trkpt>
      <trkpt lat="43.94604" lon="7.1306">
        <ele>465.60000610352</ele>
        <time>2019-02-16T13:49:05.000Z</time>
      </trkpt>
      <trkpt lat="43.94597" lon="7.13062">
        <ele>464</ele>
        <time>2019-02-16T13:49:06.000Z</time>
      </trkpt>
      <trkpt lat="43.94593" lon="7.13066">
        <ele>462.60000610352</ele>
        <time>2019-02-16T13:49:07.000Z</time>
      </trkpt>
      <trkpt lat="43.94591" lon="7.13069">
        <ele>461.39999389648</ele>
        <time>2019-02-16T13:49:08.000Z</time>
      </trkpt>
      <trkpt lat="43.94588" lon="7.1307">
        <ele>460.39999389648</ele>
        <time>2019-02-16T13:49:09.000Z</time>
      </trkpt>
      <trkpt lat="43.94582" lon="7.13068">
        <ele>459.60000610352</ele>
        <time>2019-02-16T13:49:11.000Z</time>
      </trkpt>
      <trkpt lat="43.94578" lon="7.13064">
        <ele>459.39999389648</ele>
        <time>2019-02-16T13:49:13.000Z</time>
      </trkpt>
      <trkpt lat="43.94575" lon="7.13063">
        <ele>459</ele>
        <time>2019-02-16T13:49:15.000Z</time>
      </trkpt>
      <trkpt lat="43.94568" lon="7.1306">
        <ele>457.60000610352</ele>
        <time>2019-02-16T13:49:18.000Z</time>
      </trkpt>
      <trkpt lat="43.94564" lon="7.13059">
        <ele>456.60000610352</ele>
        <time>2019-02-16T13:49:19.000Z</time>
      </trkpt>
      <trkpt lat="43.9456" lon="7.13057">
        <ele>456.39999389648</ele>
        <time>2019-02-16T13:49:20.000Z</time>
      </trkpt>
      <trkpt lat="43.94553" lon="7.13049">
        <ele>454.79998779297</ele>
        <time>2019-02-16T13:49:22.000Z</time>
      </trkpt>
      <trkpt lat="43.9455" lon="7.13046">
        <ele>453.60000610352</ele>
        <time>2019-02-16T13:49:23.000Z</time>
      </trkpt>
      <trkpt lat="43.9455" lon="7.13043">
        <ele>452.60000610352</ele>
        <time>2019-02-16T13:49:24.000Z</time>
      </trkpt>
      <trkpt lat="43.94549" lon="7.1304">
        <ele>451.60000610352</ele>
        <time>2019-02-16T13:49:25.000Z</time>
      </trkpt>
      <trkpt lat="43.9455" lon="7.13038">
        <ele>450.60000610352</ele>
        <time>2019-02-16T13:49:26.000Z</time>
      </trkpt>
      <trkpt lat="43.94551" lon="7.13031">
        <ele>449</ele>
        <time>2019-02-16T13:49:28.000Z</time>
      </trkpt>
      <trkpt lat="43.94547" lon="7.13024">
        <ele>447.39999389648</ele>
        <time>2019-02-16T13:49:30.000Z</time>
      </trkpt>
      <trkpt lat="43.94545" lon="7.13013">
        <ele>445.60000610352</ele>
        <time>2019-02-16T13:49:32.000Z</time>
      </trkpt>
      <trkpt lat="43.94543" lon="7.13008">
        <ele>444</ele>
        <time>2019-02-16T13:49:33.000Z</time>
      </trkpt>
      <trkpt lat="43.94536" lon="7.13002">
        <ele>442.39999389648</ele>
        <time>2019-02-16T13:49:35.000Z</time>
      </trkpt>
      <trkpt lat="43.94529" lon="7.12999">
        <ele>440.79998779297</ele>
        <time>2019-02-16T13:49:36.000Z</time>
      </trkpt>
      <trkpt lat="43.94523" lon="7.12997">
        <ele>440</ele>
        <time>2019-02-16T13:49:37.000Z</time>
      </trkpt>
      <trkpt lat="43.94513" lon="7.12996">
        <ele>440.20001220703</ele>
        <time>2019-02-16T13:49:39.000Z</time>
      </trkpt>
      <trkpt lat="43.94508" lon="7.12997">
        <ele>438</ele>
        <time>2019-02-16T13:49:40.000Z</time>
      </trkpt>
      <trkpt lat="43.94497" lon="7.12995">
        <ele>436.20001220703</ele>
        <time>2019-02-16T13:49:42.000Z</time>
      </trkpt>
      <trkpt lat="43.94493" lon="7.1299">
        <ele>435.60000610352</ele>
        <time>2019-02-16T13:49:43.000Z</time>
      </trkpt>
      <trkpt lat="43.94489" lon="7.12986">
        <ele>434.60000610352</ele>
        <time>2019-02-16T13:49:44.000Z</time>
      </trkpt>
      <trkpt lat="43.94482" lon="7.12982">
        <ele>431.79998779297</ele>
        <time>2019-02-16T13:49:46.000Z</time>
      </trkpt>
      <trkpt lat="43.94479" lon="7.12979">
        <ele>430.60000610352</ele>
        <time>2019-02-16T13:49:47.000Z</time>
      </trkpt>
      <trkpt lat="43.94477" lon="7.12976">
        <ele>429.79998779297</ele>
        <time>2019-02-16T13:49:48.000Z</time>
      </trkpt>
      <trkpt lat="43.94475" lon="7.12974">
        <ele>428.60000610352</ele>
        <time>2019-02-16T13:49:49.000Z</time>
      </trkpt>
      <trkpt lat="43.94474" lon="7.12974">
        <ele>427.79998779297</ele>
        <time>2019-02-16T13:49:50.000Z</time>
      </trkpt>
      <trkpt lat="43.94474" lon="7.12975">
        <ele>427.39999389648</ele>
        <time>2019-02-16T13:49:55.000Z</time>
      </trkpt>
      <trkpt lat="43.94473" lon="7.12975">
        <ele>427.39999389648</ele>
        <time>2019-02-16T13:50:05.000Z</time>
      </trkpt>
      <trkpt lat="43.94472" lon="7.12976">
        <ele>426.39999389648</ele>
        <time>2019-02-16T13:50:23.000Z</time>
      </trkpt>
      <trkpt lat="43.94472" lon="7.12976">
        <ele>426.20001220703</ele>
        <time>2019-02-16T13:50:24.000Z</time>
      </trkpt>
      <trkpt lat="43.94471" lon="7.12977">
        <ele>425.39999389648</ele>
        <time>2019-02-16T13:50:29.000Z</time>
      </trkpt>
      <trkpt lat="43.94472" lon="7.12977">
        <ele>425.20001220703</ele>
        <time>2019-02-16T13:50:32.000Z</time>
      </trkpt>
      <trkpt lat="43.94472" lon="7.12976">
        <ele>424.39999389648</ele>
        <time>2019-02-16T13:50:41.000Z</time>
      </trkpt>
      <trkpt lat="43.94472" lon="7.12976">
        <ele>424.20001220703</ele>
        <time>2019-02-16T13:50:43.000Z</time>
      </trkpt>
      <trkpt lat="43.94472" lon="7.12975">
        <ele>424.20001220703</ele>
        <time>2019-02-16T13:50:48.000Z</time>
      </trkpt>
      <trkpt lat="43.94473" lon="7.12975">
        <ele>424.60000610352</ele>
        <time>2019-02-16T13:51:04.000Z</time>
      </trkpt>
      <trkpt lat="43.94475" lon="7.12975">
        <ele>424.60000610352</ele>
        <time>2019-02-16T13:51:15.000Z</time>
      </trkpt>
      <trkpt lat="43.94475" lon="7.12975">
        <ele>424.39999389648</ele>
        <time>2019-02-16T13:51:26.000Z</time>
      </trkpt>
      <trkpt lat="43.94474" lon="7.12975">
        <ele>424.60000610352</ele>
        <time>2019-02-16T13:51:34.000Z</time>
      </trkpt>
      <trkpt lat="43.94474" lon="7.12975">
        <ele>424.79998779297</ele>
        <time>2019-02-16T13:51:52.000Z</time>
      </trkpt>
      <trkpt lat="43.94474" lon="7.12975">
        <ele>424.79998779297</ele>
        <time>2019-02-16T13:52:11.000Z</time>
      </trkpt>
      <trkpt lat="43.94475" lon="7.12976">
        <ele>424.60000610352</ele>
        <time>2019-02-16T13:52:20.000Z</time>
      </trkpt>
      <trkpt lat="43.94476" lon="7.12975">
        <ele>424.79998779297</ele>
        <time>2019-02-16T13:52:32.000Z</time>
      </trkpt>
      <trkpt lat="43.9448" lon="7.12979">
        <ele>424.60000610352</ele>
        <time>2019-02-16T13:52:38.000Z</time>
      </trkpt>
      <trkpt lat="43.94483" lon="7.12981">
        <ele>424.79998779297</ele>
        <time>2019-02-16T13:52:45.000Z</time>
      </trkpt>
      <trkpt lat="43.94492" lon="7.12985">
        <ele>424.20001220703</ele>
        <time>2019-02-16T13:52:49.000Z</time>
      </trkpt>
      <trkpt lat="43.94494" lon="7.12986">
        <ele>424.20001220703</ele>
        <time>2019-02-16T13:52:50.000Z</time>
      </trkpt>
      <trkpt lat="43.94507" lon="7.12987">
        <ele>423.79998779297</ele>
        <time>2019-02-16T13:52:53.000Z</time>
      </trkpt>
      <trkpt lat="43.94514" lon="7.12984">
        <ele>423.20001220703</ele>
        <time>2019-02-16T13:52:56.000Z</time>
      </trkpt>
      <trkpt lat="43.94514" lon="7.12984">
        <ele>423</ele>
        <time>2019-02-16T13:52:57.000Z</time>
      </trkpt>
      <trkpt lat="43.94516" lon="7.12983">
        <ele>422.60000610352</ele>
        <time>2019-02-16T13:53:05.000Z</time>
      </trkpt>
      <trkpt lat="43.94529" lon="7.12984">
        <ele>422.39999389648</ele>
        <time>2019-02-16T13:53:09.000Z</time>
      </trkpt>
      <trkpt lat="43.94533" lon="7.12985">
        <ele>422.20001220703</ele>
        <time>2019-02-16T13:53:10.000Z</time>
      </trkpt>
      <trkpt lat="43.94555" lon="7.12995">
        <ele>421.39999389648</ele>
        <time>2019-02-16T13:53:14.000Z</time>
      </trkpt>
      <trkpt lat="43.9456" lon="7.12999">
        <ele>421.20001220703</ele>
        <time>2019-02-16T13:53:15.000Z</time>
      </trkpt>
      <trkpt lat="43.94579" lon="7.13008">
        <ele>420.20001220703</ele>
        <time>2019-02-16T13:53:18.000Z</time>
      </trkpt>
      <trkpt lat="43.94586" lon="7.13006">
        <ele>419.39999389648</ele>
        <time>2019-02-16T13:53:19.000Z</time>
      </trkpt>
      <trkpt lat="43.94598" lon="7.12995">
        <ele>417.79998779297</ele>
        <time>2019-02-16T13:53:21.000Z</time>
      </trkpt>
      <trkpt lat="43.94602" lon="7.12988">
        <ele>417.20001220703</ele>
        <time>2019-02-16T13:53:22.000Z</time>
      </trkpt>
      <trkpt lat="43.94607" lon="7.12977">
        <ele>416.60000610352</ele>
        <time>2019-02-16T13:53:23.000Z</time>
      </trkpt>
      <trkpt lat="43.94603" lon="7.12961">
        <ele>416</ele>
        <time>2019-02-16T13:53:25.000Z</time>
      </trkpt>
      <trkpt lat="43.94588" lon="7.12946">
        <ele>415.60000610352</ele>
        <time>2019-02-16T13:53:27.000Z</time>
      </trkpt>
      <trkpt lat="43.94583" lon="7.12941">
        <ele>415.39999389648</ele>
        <time>2019-02-16T13:53:28.000Z</time>
      </trkpt>
      <trkpt lat="43.9456" lon="7.12915">
        <ele>415.60000610352</ele>
        <time>2019-02-16T13:53:33.000Z</time>
      </trkpt>
      <trkpt lat="43.9455" lon="7.12907">
        <ele>416.60000610352</ele>
        <time>2019-02-16T13:53:37.000Z</time>
      </trkpt>
      <trkpt lat="43.94541" lon="7.12901">
        <ele>417.60000610352</ele>
        <time>2019-02-16T13:53:41.000Z</time>
      </trkpt>
      <trkpt lat="43.94536" lon="7.12896">
        <ele>418.20001220703</ele>
        <time>2019-02-16T13:53:44.000Z</time>
      </trkpt>
      <trkpt lat="43.94528" lon="7.12889">
        <ele>418.79998779297</ele>
        <time>2019-02-16T13:53:48.000Z</time>
      </trkpt>
      <trkpt lat="43.94525" lon="7.12886">
        <ele>419</ele>
        <time>2019-02-16T13:53:50.000Z</time>
      </trkpt>
      <trkpt lat="43.94514" lon="7.12879">
        <ele>419.79998779297</ele>
        <time>2019-02-16T13:53:55.000Z</time>
      </trkpt>
      <trkpt lat="43.94509" lon="7.12876">
        <ele>420</ele>
        <time>2019-02-16T13:53:57.000Z</time>
      </trkpt>
      <trkpt lat="43.94498" lon="7.12864">
        <ele>421</ele>
        <time>2019-02-16T13:54:03.000Z</time>
      </trkpt>
      <trkpt lat="43.94495" lon="7.1286">
        <ele>421.20001220703</ele>
        <time>2019-02-16T13:54:05.000Z</time>
      </trkpt>
      <trkpt lat="43.94487" lon="7.12849">
        <ele>422</ele>
        <time>2019-02-16T13:54:10.000Z</time>
      </trkpt>
      <trkpt lat="43.94486" lon="7.12846">
        <ele>422.20001220703</ele>
        <time>2019-02-16T13:54:11.000Z</time>
      </trkpt>
      <trkpt lat="43.94482" lon="7.12825">
        <ele>422.79998779297</ele>
        <time>2019-02-16T13:54:17.000Z</time>
      </trkpt>
      <trkpt lat="43.9449" lon="7.12815">
        <ele>423</ele>
        <time>2019-02-16T13:54:21.000Z</time>
      </trkpt>
      <trkpt lat="43.94492" lon="7.12813">
        <ele>423.20001220703</ele>
        <time>2019-02-16T13:54:22.000Z</time>
      </trkpt>
      <trkpt lat="43.94506" lon="7.12804">
        <ele>424</ele>
        <time>2019-02-16T13:54:28.000Z</time>
      </trkpt>
      <trkpt lat="43.94509" lon="7.12803">
        <ele>424.20001220703</ele>
        <time>2019-02-16T13:54:29.000Z</time>
      </trkpt>
      <trkpt lat="43.94522" lon="7.12798">
        <ele>425.20001220703</ele>
        <time>2019-02-16T13:54:35.000Z</time>
      </trkpt>
      <trkpt lat="43.94531" lon="7.12793">
        <ele>425.79998779297</ele>
        <time>2019-02-16T13:54:39.000Z</time>
      </trkpt>
      <trkpt lat="43.94534" lon="7.12789">
        <ele>426</ele>
        <time>2019-02-16T13:54:41.000Z</time>
      </trkpt>
      <trkpt lat="43.94536" lon="7.12787">
        <ele>426.20001220703</ele>
        <time>2019-02-16T13:54:42.000Z</time>
      </trkpt>
      <trkpt lat="43.94546" lon="7.12773">
        <ele>427.20001220703</ele>
        <time>2019-02-16T13:54:48.000Z</time>
      </trkpt>
      <trkpt lat="43.94548" lon="7.1277">
        <ele>427.39999389648</ele>
        <time>2019-02-16T13:54:49.000Z</time>
      </trkpt>
      <trkpt lat="43.94555" lon="7.12748">
        <ele>428.39999389648</ele>
        <time>2019-02-16T13:54:56.000Z</time>
      </trkpt>
      <trkpt lat="43.94561" lon="7.1273">
        <ele>429.39999389648</ele>
        <time>2019-02-16T13:55:02.000Z</time>
      </trkpt>
      <trkpt lat="43.94562" lon="7.12728">
        <ele>429.79998779297</ele>
        <time>2019-02-16T13:55:03.000Z</time>
      </trkpt>
      <trkpt lat="43.94567" lon="7.12718">
        <ele>430.39999389648</ele>
        <time>2019-02-16T13:55:07.000Z</time>
      </trkpt>
      <trkpt lat="43.94573" lon="7.12709">
        <ele>431.20001220703</ele>
        <time>2019-02-16T13:55:11.000Z</time>
      </trkpt>
      <trkpt lat="43.94577" lon="7.12705">
        <ele>431.60000610352</ele>
        <time>2019-02-16T13:55:13.000Z</time>
      </trkpt>
      <trkpt lat="43.94585" lon="7.12695">
        <ele>432.39999389648</ele>
        <time>2019-02-16T13:55:18.000Z</time>
      </trkpt>
      <trkpt lat="43.94587" lon="7.1269">
        <ele>432.79998779297</ele>
        <time>2019-02-16T13:55:20.000Z</time>
      </trkpt>
      <trkpt lat="43.94591" lon="7.12675">
        <ele>433.60000610352</ele>
        <time>2019-02-16T13:55:25.000Z</time>
      </trkpt>
      <trkpt lat="43.94591" lon="7.12672">
        <ele>433.79998779297</ele>
        <time>2019-02-16T13:55:26.000Z</time>
      </trkpt>
      <trkpt lat="43.94592" lon="7.12648">
        <ele>435</ele>
        <time>2019-02-16T13:55:34.000Z</time>
      </trkpt>
      <trkpt lat="43.94595" lon="7.12627">
        <ele>436</ele>
        <time>2019-02-16T13:55:41.000Z</time>
      </trkpt>
      <trkpt lat="43.94597" lon="7.12612">
        <ele>436.79998779297</ele>
        <time>2019-02-16T13:55:46.000Z</time>
      </trkpt>
      <trkpt lat="43.94598" lon="7.12606">
        <ele>437</ele>
        <time>2019-02-16T13:55:48.000Z</time>
      </trkpt>
      <trkpt lat="43.94601" lon="7.12585">
        <ele>438.20001220703</ele>
        <time>2019-02-16T13:55:55.000Z</time>
      </trkpt>
      <trkpt lat="43.94601" lon="7.12582">
        <ele>438.20001220703</ele>
        <time>2019-02-16T13:55:56.000Z</time>
      </trkpt>
      <trkpt lat="43.94593" lon="7.12558">
        <ele>439</ele>
        <time>2019-02-16T13:56:03.000Z</time>
      </trkpt>
      <trkpt lat="43.9459" lon="7.12545">
        <ele>439.20001220703</ele>
        <time>2019-02-16T13:56:06.000Z</time>
      </trkpt>
      <trkpt lat="43.94587" lon="7.12528">
        <ele>439</ele>
        <time>2019-02-16T13:56:09.000Z</time>
      </trkpt>
      <trkpt lat="43.94586" lon="7.12522">
        <ele>439</ele>
        <time>2019-02-16T13:56:10.000Z</time>
      </trkpt>
      <trkpt lat="43.94577" lon="7.12498">
        <ele>438.39999389648</ele>
        <time>2019-02-16T13:56:14.000Z</time>
      </trkpt>
      <trkpt lat="43.94572" lon="7.12484">
        <ele>438</ele>
        <time>2019-02-16T13:56:16.000Z</time>
      </trkpt>
      <trkpt lat="43.94568" lon="7.12461">
        <ele>437.60000610352</ele>
        <time>2019-02-16T13:56:19.000Z</time>
      </trkpt>
      <trkpt lat="43.94566" lon="7.12437">
        <ele>437.20001220703</ele>
        <time>2019-02-16T13:56:22.000Z</time>
      </trkpt>
      <trkpt lat="43.94568" lon="7.12429">
        <ele>437</ele>
        <time>2019-02-16T13:56:23.000Z</time>
      </trkpt>
      <trkpt lat="43.94576" lon="7.12418">
        <ele>436.60000610352</ele>
        <time>2019-02-16T13:56:25.000Z</time>
      </trkpt>
      <trkpt lat="43.94582" lon="7.124">
        <ele>436.20001220703</ele>
        <time>2019-02-16T13:56:28.000Z</time>
      </trkpt>
      <trkpt lat="43.94582" lon="7.12372">
        <ele>437.60000610352</ele>
        <time>2019-02-16T13:56:34.000Z</time>
      </trkpt>
      <trkpt lat="43.94579" lon="7.12366">
        <ele>438.20001220703</ele>
        <time>2019-02-16T13:56:36.000Z</time>
      </trkpt>
      <trkpt lat="43.94573" lon="7.12363">
        <ele>438.79998779297</ele>
        <time>2019-02-16T13:56:38.000Z</time>
      </trkpt>
      <trkpt lat="43.94567" lon="7.12365">
        <ele>439.20001220703</ele>
        <time>2019-02-16T13:56:40.000Z</time>
      </trkpt>
      <trkpt lat="43.94564" lon="7.12367">
        <ele>439.39999389648</ele>
        <time>2019-02-16T13:56:41.000Z</time>
      </trkpt>
      <trkpt lat="43.94557" lon="7.12371">
        <ele>439.60000610352</ele>
        <time>2019-02-16T13:56:43.000Z</time>
      </trkpt>
      <trkpt lat="43.94539" lon="7.12383">
        <ele>440.60000610352</ele>
        <time>2019-02-16T13:56:50.000Z</time>
      </trkpt>
      <trkpt lat="43.94528" lon="7.12391">
        <ele>441.60000610352</ele>
        <time>2019-02-16T13:56:55.000Z</time>
      </trkpt>
      <trkpt lat="43.94519" lon="7.12405">
        <ele>442.79998779297</ele>
        <time>2019-02-16T13:57:01.000Z</time>
      </trkpt>
      <trkpt lat="43.94517" lon="7.12411">
        <ele>443</ele>
        <time>2019-02-16T13:57:03.000Z</time>
      </trkpt>
      <trkpt lat="43.94517" lon="7.12425">
        <ele>443.79998779297</ele>
        <time>2019-02-16T13:57:07.000Z</time>
      </trkpt>
      <trkpt lat="43.94518" lon="7.12436">
        <ele>444.20001220703</ele>
        <time>2019-02-16T13:57:10.000Z</time>
      </trkpt>
      <trkpt lat="43.9452" lon="7.1245">
        <ele>445</ele>
        <time>2019-02-16T13:57:14.000Z</time>
      </trkpt>
      <trkpt lat="43.94519" lon="7.12463">
        <ele>445.79998779297</ele>
        <time>2019-02-16T13:57:18.000Z</time>
      </trkpt>
      <trkpt lat="43.94517" lon="7.12469">
        <ele>446.20001220703</ele>
        <time>2019-02-16T13:57:20.000Z</time>
      </trkpt>
      <trkpt lat="43.94512" lon="7.12483">
        <ele>447</ele>
        <time>2019-02-16T13:57:25.000Z</time>
      </trkpt>
      <trkpt lat="43.9451" lon="7.12486">
        <ele>447.20001220703</ele>
        <time>2019-02-16T13:57:26.000Z</time>
      </trkpt>
      <trkpt lat="43.94505" lon="7.12508">
        <ele>448.20001220703</ele>
        <time>2019-02-16T13:57:33.000Z</time>
      </trkpt>
      <trkpt lat="43.94505" lon="7.12511">
        <ele>448.39999389648</ele>
        <time>2019-02-16T13:57:34.000Z</time>
      </trkpt>
      <trkpt lat="43.94506" lon="7.12528">
        <ele>449.20001220703</ele>
        <time>2019-02-16T13:57:39.000Z</time>
      </trkpt>
      <trkpt lat="43.94506" lon="7.12535">
        <ele>449.39999389648</ele>
        <time>2019-02-16T13:57:41.000Z</time>
      </trkpt>
      <trkpt lat="43.94507" lon="7.12558">
        <ele>450.60000610352</ele>
        <time>2019-02-16T13:57:48.000Z</time>
      </trkpt>
      <trkpt lat="43.94506" lon="7.12561">
        <ele>450.79998779297</ele>
        <time>2019-02-16T13:57:49.000Z</time>
      </trkpt>
      <trkpt lat="43.94504" lon="7.12563">
        <ele>451</ele>
        <time>2019-02-16T13:57:50.000Z</time>
      </trkpt>
      <trkpt lat="43.94499" lon="7.12569">
        <ele>451.60000610352</ele>
        <time>2019-02-16T13:57:53.000Z</time>
      </trkpt>
      <trkpt lat="43.94494" lon="7.1257">
        <ele>451.79998779297</ele>
        <time>2019-02-16T13:57:55.000Z</time>
      </trkpt>
      <trkpt lat="43.94483" lon="7.1257">
        <ele>453</ele>
        <time>2019-02-16T13:58:00.000Z</time>
      </trkpt>
      <trkpt lat="43.94471" lon="7.12569">
        <ele>454.20001220703</ele>
        <time>2019-02-16T13:58:06.000Z</time>
      </trkpt>
      <trkpt lat="43.9446" lon="7.12571">
        <ele>455</ele>
        <time>2019-02-16T13:58:11.000Z</time>
      </trkpt>
      <trkpt lat="43.94454" lon="7.12573">
        <ele>455.39999389648</ele>
        <time>2019-02-16T13:58:14.000Z</time>
      </trkpt>
      <trkpt lat="43.94439" lon="7.12579">
        <ele>456.39999389648</ele>
        <time>2019-02-16T13:58:22.000Z</time>
      </trkpt>
      <trkpt lat="43.94424" lon="7.12585">
        <ele>457.60000610352</ele>
        <time>2019-02-16T13:58:30.000Z</time>
      </trkpt>
      <trkpt lat="43.94418" lon="7.12588">
        <ele>458</ele>
        <time>2019-02-16T13:58:33.000Z</time>
      </trkpt>
      <trkpt lat="43.9441" lon="7.1259">
        <ele>458.60000610352</ele>
        <time>2019-02-16T13:58:37.000Z</time>
      </trkpt>
      <trkpt lat="43.94402" lon="7.12588">
        <ele>459.20001220703</ele>
        <time>2019-02-16T13:58:41.000Z</time>
      </trkpt>
      <trkpt lat="43.94397" lon="7.12585">
        <ele>459.79998779297</ele>
        <time>2019-02-16T13:58:44.000Z</time>
      </trkpt>
      <trkpt lat="43.9439" lon="7.12575">
        <ele>460.60000610352</ele>
        <time>2019-02-16T13:58:49.000Z</time>
      </trkpt>
      <trkpt lat="43.94388" lon="7.12574">
        <ele>461</ele>
        <time>2019-02-16T13:58:50.000Z</time>
      </trkpt>
      <trkpt lat="43.94378" lon="7.12563">
        <ele>462</ele>
        <time>2019-02-16T13:58:56.000Z</time>
      </trkpt>
      <trkpt lat="43.94371" lon="7.12557">
        <ele>462.60000610352</ele>
        <time>2019-02-16T13:59:00.000Z</time>
      </trkpt>
      <trkpt lat="43.94364" lon="7.12556">
        <ele>463</ele>
        <time>2019-02-16T13:59:03.000Z</time>
      </trkpt>
      <trkpt lat="43.94355" lon="7.12557">
        <ele>463.79998779297</ele>
        <time>2019-02-16T13:59:07.000Z</time>
      </trkpt>
      <trkpt lat="43.94349" lon="7.1256">
        <ele>464.20001220703</ele>
        <time>2019-02-16T13:59:10.000Z</time>
      </trkpt>
      <trkpt lat="43.94339" lon="7.12568">
        <ele>464.79998779297</ele>
        <time>2019-02-16T13:59:15.000Z</time>
      </trkpt>
      <trkpt lat="43.94333" lon="7.12573">
        <ele>465.39999389648</ele>
        <time>2019-02-16T13:59:18.000Z</time>
      </trkpt>
      <trkpt lat="43.94319" lon="7.12583">
        <ele>466.20001220703</ele>
        <time>2019-02-16T13:59:25.000Z</time>
      </trkpt>
      <trkpt lat="43.94317" lon="7.12584">
        <ele>466.39999389648</ele>
        <time>2019-02-16T13:59:26.000Z</time>
      </trkpt>
      <trkpt lat="43.94305" lon="7.12582">
        <ele>467.39999389648</ele>
        <time>2019-02-16T13:59:31.000Z</time>
      </trkpt>
      <trkpt lat="43.94303" lon="7.12582">
        <ele>467.79998779297</ele>
        <time>2019-02-16T13:59:32.000Z</time>
      </trkpt>
      <trkpt lat="43.94291" lon="7.12577">
        <ele>468.60000610352</ele>
        <time>2019-02-16T13:59:37.000Z</time>
      </trkpt>
      <trkpt lat="43.94281" lon="7.12572">
        <ele>469.39999389648</ele>
        <time>2019-02-16T13:59:43.000Z</time>
      </trkpt>
      <trkpt lat="43.94279" lon="7.12571">
        <ele>469.60000610352</ele>
        <time>2019-02-16T13:59:44.000Z</time>
      </trkpt>
      <trkpt lat="43.94273" lon="7.1257">
        <ele>470.20001220703</ele>
        <time>2019-02-16T13:59:49.000Z</time>
      </trkpt>
      <trkpt lat="43.94268" lon="7.12571">
        <ele>470.60000610352</ele>
        <time>2019-02-16T13:59:52.000Z</time>
      </trkpt>
      <trkpt lat="43.94264" lon="7.12571">
        <ele>471</ele>
        <time>2019-02-16T13:59:55.000Z</time>
      </trkpt>
      <trkpt lat="43.94256" lon="7.1257">
        <ele>471.60000610352</ele>
        <time>2019-02-16T14:00:01.000Z</time>
      </trkpt>
      <trkpt lat="43.94255" lon="7.1257">
        <ele>471.79998779297</ele>
        <time>2019-02-16T14:00:02.000Z</time>
      </trkpt>
      <trkpt lat="43.94252" lon="7.12568">
        <ele>472.20001220703</ele>
        <time>2019-02-16T14:00:04.000Z</time>
      </trkpt>
      <trkpt lat="43.94253" lon="7.12563">
        <ele>472.60000610352</ele>
        <time>2019-02-16T14:00:07.000Z</time>
      </trkpt>
      <trkpt lat="43.94254" lon="7.12562">
        <ele>472.60000610352</ele>
        <time>2019-02-16T14:00:08.000Z</time>
      </trkpt>
      <trkpt lat="43.94259" lon="7.12559">
        <ele>473</ele>
        <time>2019-02-16T14:00:12.000Z</time>
      </trkpt>
      <trkpt lat="43.94262" lon="7.12556">
        <ele>473.20001220703</ele>
        <time>2019-02-16T14:00:14.000Z</time>
      </trkpt>
      <trkpt lat="43.94271" lon="7.1255">
        <ele>473.39999389648</ele>
        <time>2019-02-16T14:00:21.000Z</time>
      </trkpt>
      <trkpt lat="43.94277" lon="7.12544">
        <ele>473.79998779297</ele>
        <time>2019-02-16T14:00:27.000Z</time>
      </trkpt>
      <trkpt lat="43.94278" lon="7.12542">
        <ele>474</ele>
        <time>2019-02-16T14:00:29.000Z</time>
      </trkpt>
      <trkpt lat="43.9428" lon="7.12544">
        <ele>474.39999389648</ele>
        <time>2019-02-16T14:00:33.000Z</time>
      </trkpt>
      <trkpt lat="43.94279" lon="7.12545">
        <ele>474.39999389648</ele>
        <time>2019-02-16T14:00:34.000Z</time>
      </trkpt>
      <trkpt lat="43.9428" lon="7.12548">
        <ele>474.39999389648</ele>
        <time>2019-02-16T14:00:37.000Z</time>
      </trkpt>
      <trkpt lat="43.94282" lon="7.12549">
        <ele>474.39999389648</ele>
        <time>2019-02-16T14:00:39.000Z</time>
      </trkpt>
      <trkpt lat="43.94288" lon="7.1255">
        <ele>474.79998779297</ele>
        <time>2019-02-16T14:00:45.000Z</time>
      </trkpt>
      <trkpt lat="43.94297" lon="7.12551">
        <ele>475.79998779297</ele>
        <time>2019-02-16T14:00:53.000Z</time>
      </trkpt>
      <trkpt lat="43.94305" lon="7.12552">
        <ele>476.60000610352</ele>
        <time>2019-02-16T14:01:00.000Z</time>
      </trkpt>
      <trkpt lat="43.94306" lon="7.12552">
        <ele>476.79998779297</ele>
        <time>2019-02-16T14:01:01.000Z</time>
      </trkpt>
      <trkpt lat="43.94314" lon="7.12552">
        <ele>478</ele>
        <time>2019-02-16T14:01:07.000Z</time>
      </trkpt>
      <trkpt lat="43.94315" lon="7.12551">
        <ele>478.20001220703</ele>
        <time>2019-02-16T14:01:08.000Z</time>
      </trkpt>
      <trkpt lat="43.94321" lon="7.12548">
        <ele>479</ele>
        <time>2019-02-16T14:01:13.000Z</time>
      </trkpt>
      <trkpt lat="43.94322" lon="7.12546">
        <ele>479.20001220703</ele>
        <time>2019-02-16T14:01:14.000Z</time>
      </trkpt>
      <trkpt lat="43.94324" lon="7.12543">
        <ele>479.79998779297</ele>
        <time>2019-02-16T14:01:17.000Z</time>
      </trkpt>
      <trkpt lat="43.94326" lon="7.1254">
        <ele>480.20001220703</ele>
        <time>2019-02-16T14:01:19.000Z</time>
      </trkpt>
      <trkpt lat="43.94326" lon="7.12538">
        <ele>480.39999389648</ele>
        <time>2019-02-16T14:01:20.000Z</time>
      </trkpt>
      <trkpt lat="43.94328" lon="7.12533">
        <ele>481.20001220703</ele>
        <time>2019-02-16T14:01:23.000Z</time>
      </trkpt>
      <trkpt lat="43.94328" lon="7.1253">
        <ele>481.60000610352</ele>
        <time>2019-02-16T14:01:25.000Z</time>
      </trkpt>
      <trkpt lat="43.94329" lon="7.12526">
        <ele>482.20001220703</ele>
        <time>2019-02-16T14:01:27.000Z</time>
      </trkpt>
      <trkpt lat="43.94331" lon="7.1252">
        <ele>483.20001220703</ele>
        <time>2019-02-16T14:01:31.000Z</time>
      </trkpt>
      <trkpt lat="43.94332" lon="7.12516">
        <ele>484.20001220703</ele>
        <time>2019-02-16T14:01:34.000Z</time>
      </trkpt>
      <trkpt lat="43.94332" lon="7.12514">
        <ele>484.39999389648</ele>
        <time>2019-02-16T14:01:35.000Z</time>
      </trkpt>
      <trkpt lat="43.94334" lon="7.12508">
        <ele>485.60000610352</ele>
        <time>2019-02-16T14:01:39.000Z</time>
      </trkpt>
      <trkpt lat="43.94336" lon="7.12505">
        <ele>486.20001220703</ele>
        <time>2019-02-16T14:01:42.000Z</time>
      </trkpt>
      <trkpt lat="43.94338" lon="7.125">
        <ele>486.79998779297</ele>
        <time>2019-02-16T14:01:46.000Z</time>
      </trkpt>
      <trkpt lat="43.9434" lon="7.12495">
        <ele>487.39999389648</ele>
        <time>2019-02-16T14:01:49.000Z</time>
      </trkpt>
      <trkpt lat="43.94341" lon="7.12492">
        <ele>487.79998779297</ele>
        <time>2019-02-16T14:01:51.000Z</time>
      </trkpt>
      <trkpt lat="43.94345" lon="7.12487">
        <ele>488.60000610352</ele>
        <time>2019-02-16T14:01:55.000Z</time>
      </trkpt>
      <trkpt lat="43.94347" lon="7.12485">
        <ele>489</ele>
        <time>2019-02-16T14:01:57.000Z</time>
      </trkpt>
      <trkpt lat="43.94354" lon="7.12477">
        <ele>489.60000610352</ele>
        <time>2019-02-16T14:02:04.000Z</time>
      </trkpt>
      <trkpt lat="43.94358" lon="7.1247">
        <ele>490</ele>
        <time>2019-02-16T14:02:09.000Z</time>
      </trkpt>
      <trkpt lat="43.9436" lon="7.12467">
        <ele>490.39999389648</ele>
        <time>2019-02-16T14:02:11.000Z</time>
      </trkpt>
      <trkpt lat="43.94361" lon="7.12465">
        <ele>490.60000610352</ele>
        <time>2019-02-16T14:02:12.000Z</time>
      </trkpt>
      <trkpt lat="43.94363" lon="7.12463">
        <ele>491.20001220703</ele>
        <time>2019-02-16T14:02:14.000Z</time>
      </trkpt>
      <trkpt lat="43.94367" lon="7.1246">
        <ele>491.79998779297</ele>
        <time>2019-02-16T14:02:17.000Z</time>
      </trkpt>
      <trkpt lat="43.94369" lon="7.12458">
        <ele>492.39999389648</ele>
        <time>2019-02-16T14:02:19.000Z</time>
      </trkpt>
      <trkpt lat="43.94373" lon="7.12455">
        <ele>493.39999389648</ele>
        <time>2019-02-16T14:02:23.000Z</time>
      </trkpt>
      <trkpt lat="43.94375" lon="7.12451">
        <ele>494</ele>
        <time>2019-02-16T14:02:26.000Z</time>
      </trkpt>
      <trkpt lat="43.94377" lon="7.1245">
        <ele>494.39999389648</ele>
        <time>2019-02-16T14:02:28.000Z</time>
      </trkpt>
      <trkpt lat="43.94378" lon="7.12449">
        <ele>494.79998779297</ele>
        <time>2019-02-16T14:02:29.000Z</time>
      </trkpt>
      <trkpt lat="43.94382" lon="7.12447">
        <ele>495.60000610352</ele>
        <time>2019-02-16T14:02:33.000Z</time>
      </trkpt>
      <trkpt lat="43.94387" lon="7.12446">
        <ele>496.39999389648</ele>
        <time>2019-02-16T14:02:37.000Z</time>
      </trkpt>
      <trkpt lat="43.9439" lon="7.12445">
        <ele>496.60000610352</ele>
        <time>2019-02-16T14:02:39.000Z</time>
      </trkpt>
      <trkpt lat="43.94394" lon="7.12445">
        <ele>497.20001220703</ele>
        <time>2019-02-16T14:02:43.000Z</time>
      </trkpt>
      <trkpt lat="43.94398" lon="7.12444">
        <ele>497.79998779297</ele>
        <time>2019-02-16T14:02:46.000Z</time>
      </trkpt>
      <trkpt lat="43.94403" lon="7.12443">
        <ele>498.79998779297</ele>
        <time>2019-02-16T14:02:50.000Z</time>
      </trkpt>
      <trkpt lat="43.94407" lon="7.12441">
        <ele>499.79998779297</ele>
        <time>2019-02-16T14:02:54.000Z</time>
      </trkpt>
      <trkpt lat="43.9441" lon="7.1244">
        <ele>500.20001220703</ele>
        <time>2019-02-16T14:02:56.000Z</time>
      </trkpt>
      <trkpt lat="43.94412" lon="7.1244">
        <ele>500.60000610352</ele>
        <time>2019-02-16T14:02:58.000Z</time>
      </trkpt>
      <trkpt lat="43.94414" lon="7.12438">
        <ele>500.79998779297</ele>
        <time>2019-02-16T14:03:00.000Z</time>
      </trkpt>
      <trkpt lat="43.94416" lon="7.12436">
        <ele>501.20001220703</ele>
        <time>2019-02-16T14:03:02.000Z</time>
      </trkpt>
      <trkpt lat="43.94419" lon="7.1243">
        <ele>502</ele>
        <time>2019-02-16T14:03:07.000Z</time>
      </trkpt>
      <trkpt lat="43.9442" lon="7.12429">
        <ele>502.20001220703</ele>
        <time>2019-02-16T14:03:08.000Z</time>
      </trkpt>
      <trkpt lat="43.94421" lon="7.12426">
        <ele>503</ele>
        <time>2019-02-16T14:03:11.000Z</time>
      </trkpt>
      <trkpt lat="43.94422" lon="7.12425">
        <ele>503.39999389648</ele>
        <time>2019-02-16T14:03:12.000Z</time>
      </trkpt>
      <trkpt lat="43.94423" lon="7.12421">
        <ele>504</ele>
        <time>2019-02-16T14:03:15.000Z</time>
      </trkpt>
      <trkpt lat="43.94423" lon="7.1242">
        <ele>504.20001220703</ele>
        <time>2019-02-16T14:03:16.000Z</time>
      </trkpt>
      <trkpt lat="43.94423" lon="7.12418">
        <ele>505</ele>
        <time>2019-02-16T14:03:21.000Z</time>
      </trkpt>
      <trkpt lat="43.94423" lon="7.12416">
        <ele>505</ele>
        <time>2019-02-16T14:03:31.000Z</time>
      </trkpt>
      <trkpt lat="43.94423" lon="7.12411">
        <ele>505.20001220703</ele>
        <time>2019-02-16T14:03:35.000Z</time>
      </trkpt>
      <trkpt lat="43.94422" lon="7.12406">
        <ele>506.20001220703</ele>
        <time>2019-02-16T14:03:39.000Z</time>
      </trkpt>
      <trkpt lat="43.94421" lon="7.12403">
        <ele>506.60000610352</ele>
        <time>2019-02-16T14:03:41.000Z</time>
      </trkpt>
      <trkpt lat="43.94419" lon="7.12399">
        <ele>507.39999389648</ele>
        <time>2019-02-16T14:03:45.000Z</time>
      </trkpt>
      <trkpt lat="43.94416" lon="7.12395">
        <ele>508.20001220703</ele>
        <time>2019-02-16T14:03:50.000Z</time>
      </trkpt>
      <trkpt lat="43.94415" lon="7.12394">
        <ele>508.39999389648</ele>
        <time>2019-02-16T14:03:51.000Z</time>
      </trkpt>
      <trkpt lat="43.94412" lon="7.12391">
        <ele>509.20001220703</ele>
        <time>2019-02-16T14:03:55.000Z</time>
      </trkpt>
      <trkpt lat="43.94412" lon="7.12389">
        <ele>509.60000610352</ele>
        <time>2019-02-16T14:03:57.000Z</time>
      </trkpt>
      <trkpt lat="43.94412" lon="7.12389">
        <ele>509.79998779297</ele>
        <time>2019-02-16T14:03:58.000Z</time>
      </trkpt>
      <trkpt lat="43.9441" lon="7.12385">
        <ele>510.60000610352</ele>
        <time>2019-02-16T14:04:03.000Z</time>
      </trkpt>
      <trkpt lat="43.94409" lon="7.12381">
        <ele>511.60000610352</ele>
        <time>2019-02-16T14:04:08.000Z</time>
      </trkpt>
      <trkpt lat="43.94409" lon="7.1238">
        <ele>511.79998779297</ele>
        <time>2019-02-16T14:04:09.000Z</time>
      </trkpt>
      <trkpt lat="43.94407" lon="7.12375">
        <ele>512.79998779297</ele>
        <time>2019-02-16T14:04:15.000Z</time>
      </trkpt>
      <trkpt lat="43.94407" lon="7.12374">
        <ele>513</ele>
        <time>2019-02-16T14:04:16.000Z</time>
      </trkpt>
      <trkpt lat="43.94404" lon="7.12369">
        <ele>514</ele>
        <time>2019-02-16T14:04:21.000Z</time>
      </trkpt>
      <trkpt lat="43.94403" lon="7.12366">
        <ele>514.59997558594</ele>
        <time>2019-02-16T14:04:25.000Z</time>
      </trkpt>
      <trkpt lat="43.94402" lon="7.12364">
        <ele>515</ele>
        <time>2019-02-16T14:04:27.000Z</time>
      </trkpt>
      <trkpt lat="43.94401" lon="7.12363">
        <ele>515.20001220703</ele>
        <time>2019-02-16T14:04:28.000Z</time>
      </trkpt>
      <trkpt lat="43.94402" lon="7.12359">
        <ele>515.59997558594</ele>
        <time>2019-02-16T14:04:32.000Z</time>
      </trkpt>
      <trkpt lat="43.94402" lon="7.12357">
        <ele>516</ele>
        <time>2019-02-16T14:04:34.000Z</time>
      </trkpt>
      <trkpt lat="43.94399" lon="7.12352">
        <ele>517</ele>
        <time>2019-02-16T14:04:40.000Z</time>
      </trkpt>
      <trkpt lat="43.94399" lon="7.12344">
        <ele>518.20001220703</ele>
        <time>2019-02-16T14:04:47.000Z</time>
      </trkpt>
      <trkpt lat="43.94399" lon="7.12338">
        <ele>519.20001220703</ele>
        <time>2019-02-16T14:04:54.000Z</time>
      </trkpt>
      <trkpt lat="43.94401" lon="7.12334">
        <ele>520</ele>
        <time>2019-02-16T14:04:59.000Z</time>
      </trkpt>
      <trkpt lat="43.94401" lon="7.12335">
        <ele>520.20001220703</ele>
        <time>2019-02-16T14:05:00.000Z</time>
      </trkpt>
      <trkpt lat="43.94401" lon="7.12336">
        <ele>520.40002441406</ele>
        <time>2019-02-16T14:05:01.000Z</time>
      </trkpt>
      <trkpt lat="43.94402" lon="7.12339">
        <ele>521</ele>
        <time>2019-02-16T14:05:04.000Z</time>
      </trkpt>
      <trkpt lat="43.94402" lon="7.1234">
        <ele>521.20001220703</ele>
        <time>2019-02-16T14:05:05.000Z</time>
      </trkpt>
      <trkpt lat="43.94403" lon="7.12341">
        <ele>521.40002441406</ele>
        <time>2019-02-16T14:05:06.000Z</time>
      </trkpt>
      <trkpt lat="43.94405" lon="7.12342">
        <ele>522.40002441406</ele>
        <time>2019-02-16T14:05:12.000Z</time>
      </trkpt>
      <trkpt lat="43.94405" lon="7.12337">
        <ele>523.20001220703</ele>
        <time>2019-02-16T14:05:19.000Z</time>
      </trkpt>
      <trkpt lat="43.94405" lon="7.12336">
        <ele>523.40002441406</ele>
        <time>2019-02-16T14:05:21.000Z</time>
      </trkpt>
      <trkpt lat="43.94405" lon="7.12333">
        <ele>524.20001220703</ele>
        <time>2019-02-16T14:05:26.000Z</time>
      </trkpt>
      <trkpt lat="43.94405" lon="7.12331">
        <ele>524.59997558594</ele>
        <time>2019-02-16T14:05:29.000Z</time>
      </trkpt>
      <trkpt lat="43.94406" lon="7.12326">
        <ele>525.79998779297</ele>
        <time>2019-02-16T14:05:36.000Z</time>
      </trkpt>
      <trkpt lat="43.94407" lon="7.12327">
        <ele>526.20001220703</ele>
        <time>2019-02-16T14:05:40.000Z</time>
      </trkpt>
      <trkpt lat="43.94406" lon="7.12327">
        <ele>526.40002441406</ele>
        <time>2019-02-16T14:05:41.000Z</time>
      </trkpt>
      <trkpt lat="43.94406" lon="7.12325">
        <ele>526.79998779297</ele>
        <time>2019-02-16T14:05:43.000Z</time>
      </trkpt>
      <trkpt lat="43.94407" lon="7.12322">
        <ele>527.40002441406</ele>
        <time>2019-02-16T14:05:47.000Z</time>
      </trkpt>
      <trkpt lat="43.94408" lon="7.1232">
        <ele>527.79998779297</ele>
        <time>2019-02-16T14:05:50.000Z</time>
      </trkpt>
      <trkpt lat="43.9441" lon="7.12316">
        <ele>528.40002441406</ele>
        <time>2019-02-16T14:05:55.000Z</time>
      </trkpt>
      <trkpt lat="43.94411" lon="7.12313">
        <ele>529</ele>
        <time>2019-02-16T14:05:58.000Z</time>
      </trkpt>
      <trkpt lat="43.94412" lon="7.12309">
        <ele>529.59997558594</ele>
        <time>2019-02-16T14:06:02.000Z</time>
      </trkpt>
      <trkpt lat="43.94413" lon="7.12307">
        <ele>530</ele>
        <time>2019-02-16T14:06:05.000Z</time>
      </trkpt>
      <trkpt lat="43.94414" lon="7.12303">
        <ele>530.79998779297</ele>
        <time>2019-02-16T14:06:10.000Z</time>
      </trkpt>
      <trkpt lat="43.94415" lon="7.12301">
        <ele>531</ele>
        <time>2019-02-16T14:06:12.000Z</time>
      </trkpt>
      <trkpt lat="43.94417" lon="7.12297">
        <ele>532.20001220703</ele>
        <time>2019-02-16T14:06:18.000Z</time>
      </trkpt>
      <trkpt lat="43.94419" lon="7.12294">
        <ele>533.20001220703</ele>
        <time>2019-02-16T14:06:24.000Z</time>
      </trkpt>
      <trkpt lat="43.9442" lon="7.1229">
        <ele>533.79998779297</ele>
        <time>2019-02-16T14:06:28.000Z</time>
      </trkpt>
      <trkpt lat="43.94421" lon="7.1229">
        <ele>534.40002441406</ele>
        <time>2019-02-16T14:06:31.000Z</time>
      </trkpt>
      <trkpt lat="43.94422" lon="7.12292">
        <ele>534.79998779297</ele>
        <time>2019-02-16T14:06:34.000Z</time>
      </trkpt>
      <trkpt lat="43.94424" lon="7.12295">
        <ele>535.59997558594</ele>
        <time>2019-02-16T14:06:37.000Z</time>
      </trkpt>
      <trkpt lat="43.94425" lon="7.12298">
        <ele>536</ele>
        <time>2019-02-16T14:06:40.000Z</time>
      </trkpt>
      <trkpt lat="43.94427" lon="7.12301">
        <ele>536.59997558594</ele>
        <time>2019-02-16T14:06:43.000Z</time>
      </trkpt>
      <trkpt lat="43.9443" lon="7.12308">
        <ele>537</ele>
        <time>2019-02-16T14:06:48.000Z</time>
      </trkpt>
      <trkpt lat="43.94432" lon="7.1231">
        <ele>537.59997558594</ele>
        <time>2019-02-16T14:06:54.000Z</time>
      </trkpt>
      <trkpt lat="43.94433" lon="7.12304">
        <ele>538.59997558594</ele>
        <time>2019-02-16T14:07:00.000Z</time>
      </trkpt>
      <trkpt lat="43.94433" lon="7.12302">
        <ele>539.20001220703</ele>
        <time>2019-02-16T14:07:03.000Z</time>
      </trkpt>
      <trkpt lat="43.94433" lon="7.12299">
        <ele>539.79998779297</ele>
        <time>2019-02-16T14:07:07.000Z</time>
      </trkpt>
      <trkpt lat="43.94433" lon="7.12296">
        <ele>540.40002441406</ele>
        <time>2019-02-16T14:07:11.000Z</time>
      </trkpt>
      <trkpt lat="43.94433" lon="7.12293">
        <ele>540.79998779297</ele>
        <time>2019-02-16T14:07:14.000Z</time>
      </trkpt>
      <trkpt lat="43.94433" lon="7.12288">
        <ele>541.40002441406</ele>
        <time>2019-02-16T14:07:18.000Z</time>
      </trkpt>
      <trkpt lat="43.94433" lon="7.12285">
        <ele>541.79998779297</ele>
        <time>2019-02-16T14:07:21.000Z</time>
      </trkpt>
      <trkpt lat="43.94433" lon="7.12279">
        <ele>542.40002441406</ele>
        <time>2019-02-16T14:07:26.000Z</time>
      </trkpt>
      <trkpt lat="43.94432" lon="7.12276">
        <ele>542.79998779297</ele>
        <time>2019-02-16T14:07:29.000Z</time>
      </trkpt>
      <trkpt lat="43.94431" lon="7.12268">
        <ele>544</ele>
        <time>2019-02-16T14:07:36.000Z</time>
      </trkpt>
      <trkpt lat="43.9443" lon="7.12263">
        <ele>545.20001220703</ele>
        <time>2019-02-16T14:07:42.000Z</time>
      </trkpt>
      <trkpt lat="43.9443" lon="7.12262">
        <ele>545.40002441406</ele>
        <time>2019-02-16T14:07:43.000Z</time>
      </trkpt>
      <trkpt lat="43.94429" lon="7.12257">
        <ele>546.20001220703</ele>
        <time>2019-02-16T14:07:48.000Z</time>
      </trkpt>
      <trkpt lat="43.9443" lon="7.12256">
        <ele>546.40002441406</ele>
        <time>2019-02-16T14:07:50.000Z</time>
      </trkpt>
      <trkpt lat="43.94432" lon="7.12257">
        <ele>547.40002441406</ele>
        <time>2019-02-16T14:07:54.000Z</time>
      </trkpt>
      <trkpt lat="43.94433" lon="7.12259">
        <ele>548</ele>
        <time>2019-02-16T14:07:57.000Z</time>
      </trkpt>
      <trkpt lat="43.94435" lon="7.12262">
        <ele>548.40002441406</ele>
        <time>2019-02-16T14:08:01.000Z</time>
      </trkpt>
      <trkpt lat="43.94438" lon="7.12265">
        <ele>549.40002441406</ele>
        <time>2019-02-16T14:08:06.000Z</time>
      </trkpt>
      <trkpt lat="43.94438" lon="7.12266">
        <ele>549.59997558594</ele>
        <time>2019-02-16T14:08:07.000Z</time>
      </trkpt>
      <trkpt lat="43.94442" lon="7.12269">
        <ele>550.59997558594</ele>
        <time>2019-02-16T14:08:13.000Z</time>
      </trkpt>
      <trkpt lat="43.94444" lon="7.1227">
        <ele>551</ele>
        <time>2019-02-16T14:08:16.000Z</time>
      </trkpt>
      <trkpt lat="43.94447" lon="7.12271">
        <ele>551.59997558594</ele>
        <time>2019-02-16T14:08:20.000Z</time>
      </trkpt>
      <trkpt lat="43.94449" lon="7.12271">
        <ele>552.20001220703</ele>
        <time>2019-02-16T14:08:25.000Z</time>
      </trkpt>
      <trkpt lat="43.9445" lon="7.12271">
        <ele>552.79998779297</ele>
        <time>2019-02-16T14:08:29.000Z</time>
      </trkpt>
      <trkpt lat="43.94449" lon="7.12271">
        <ele>553</ele>
        <time>2019-02-16T14:08:33.000Z</time>
      </trkpt>
      <trkpt lat="43.9445" lon="7.1227">
        <ele>553</ele>
        <time>2019-02-16T14:08:35.000Z</time>
      </trkpt>
      <trkpt lat="43.9445" lon="7.12269">
        <ele>553</ele>
        <time>2019-02-16T14:08:38.000Z</time>
      </trkpt>
      <trkpt lat="43.94447" lon="7.12265">
        <ele>553.59997558594</ele>
        <time>2019-02-16T14:08:45.000Z</time>
      </trkpt>
      <trkpt lat="43.94447" lon="7.12264">
        <ele>553.79998779297</ele>
        <time>2019-02-16T14:08:46.000Z</time>
      </trkpt>
      <trkpt lat="43.94445" lon="7.12258">
        <ele>554.59997558594</ele>
        <time>2019-02-16T14:08:53.000Z</time>
      </trkpt>
      <trkpt lat="43.94444" lon="7.12256">
        <ele>554.79998779297</ele>
        <time>2019-02-16T14:08:56.000Z</time>
      </trkpt>
      <trkpt lat="43.94443" lon="7.12252">
        <ele>555.59997558594</ele>
        <time>2019-02-16T14:09:01.000Z</time>
      </trkpt>
      <trkpt lat="43.94442" lon="7.1225">
        <ele>555.79998779297</ele>
        <time>2019-02-16T14:09:03.000Z</time>
      </trkpt>
      <trkpt lat="43.94443" lon="7.12245">
        <ele>557</ele>
        <time>2019-02-16T14:09:10.000Z</time>
      </trkpt>
      <trkpt lat="43.94443" lon="7.12241">
        <ele>558</ele>
        <time>2019-02-16T14:09:17.000Z</time>
      </trkpt>
      <trkpt lat="43.94443" lon="7.1224">
        <ele>558.20001220703</ele>
        <time>2019-02-16T14:09:18.000Z</time>
      </trkpt>
      <trkpt lat="43.94442" lon="7.12236">
        <ele>559.20001220703</ele>
        <time>2019-02-16T14:09:23.000Z</time>
      </trkpt>
      <trkpt lat="43.94442" lon="7.12234">
        <ele>559.59997558594</ele>
        <time>2019-02-16T14:09:26.000Z</time>
      </trkpt>
      <trkpt lat="43.94441" lon="7.12229">
        <ele>560.40002441406</ele>
        <time>2019-02-16T14:09:32.000Z</time>
      </trkpt>
      <trkpt lat="43.94441" lon="7.12227">
        <ele>560.59997558594</ele>
        <time>2019-02-16T14:09:34.000Z</time>
      </trkpt>
      <trkpt lat="43.9444" lon="7.12223">
        <ele>561.40002441406</ele>
        <time>2019-02-16T14:09:38.000Z</time>
      </trkpt>
      <trkpt lat="43.9444" lon="7.12219">
        <ele>562</ele>
        <time>2019-02-16T14:09:43.000Z</time>
      </trkpt>
      <trkpt lat="43.94439" lon="7.12216">
        <ele>562.59997558594</ele>
        <time>2019-02-16T14:09:47.000Z</time>
      </trkpt>
      <trkpt lat="43.94437" lon="7.12212">
        <ele>563.59997558594</ele>
        <time>2019-02-16T14:09:52.000Z</time>
      </trkpt>
      <trkpt lat="43.94437" lon="7.12212">
        <ele>563.59997558594</ele>
        <time>2019-02-16T14:09:53.000Z</time>
      </trkpt>
      <trkpt lat="43.94435" lon="7.1221">
        <ele>564.79998779297</ele>
        <time>2019-02-16T14:10:00.000Z</time>
      </trkpt>
      <trkpt lat="43.94435" lon="7.12209">
        <ele>564.79998779297</ele>
        <time>2019-02-16T14:10:01.000Z</time>
      </trkpt>
      <trkpt lat="43.94433" lon="7.12204">
        <ele>565.59997558594</ele>
        <time>2019-02-16T14:10:09.000Z</time>
      </trkpt>
      <trkpt lat="43.94432" lon="7.12203">
        <ele>565.79998779297</ele>
        <time>2019-02-16T14:10:10.000Z</time>
      </trkpt>
      <trkpt lat="43.94431" lon="7.12197">
        <ele>566.79998779297</ele>
        <time>2019-02-16T14:10:18.000Z</time>
      </trkpt>
      <trkpt lat="43.94429" lon="7.12193">
        <ele>567.59997558594</ele>
        <time>2019-02-16T14:10:25.000Z</time>
      </trkpt>
      <trkpt lat="43.94428" lon="7.12192">
        <ele>568</ele>
        <time>2019-02-16T14:10:27.000Z</time>
      </trkpt>
      <trkpt lat="43.94426" lon="7.12189">
        <ele>569.20001220703</ele>
        <time>2019-02-16T14:10:33.000Z</time>
      </trkpt>
      <trkpt lat="43.94426" lon="7.12188">
        <ele>569.40002441406</ele>
        <time>2019-02-16T14:10:35.000Z</time>
      </trkpt>
      <trkpt lat="43.94426" lon="7.12188">
        <ele>570.20001220703</ele>
        <time>2019-02-16T14:10:39.000Z</time>
      </trkpt>
      <trkpt lat="43.94426" lon="7.12187">
        <ele>570.40002441406</ele>
        <time>2019-02-16T14:10:42.000Z</time>
      </trkpt>
      <trkpt lat="43.94426" lon="7.12183">
        <ele>570.40002441406</ele>
        <time>2019-02-16T14:10:48.000Z</time>
      </trkpt>
      <trkpt lat="43.94426" lon="7.1218">
        <ele>571.40002441406</ele>
        <time>2019-02-16T14:10:54.000Z</time>
      </trkpt>
      <trkpt lat="43.94426" lon="7.12175">
        <ele>572</ele>
        <time>2019-02-16T14:11:00.000Z</time>
      </trkpt>
      <trkpt lat="43.94425" lon="7.12174">
        <ele>572.40002441406</ele>
        <time>2019-02-16T14:11:02.000Z</time>
      </trkpt>
      <trkpt lat="43.94423" lon="7.12172">
        <ele>573.40002441406</ele>
        <time>2019-02-16T14:11:07.000Z</time>
      </trkpt>
      <trkpt lat="43.94422" lon="7.12171">
        <ele>573.59997558594</ele>
        <time>2019-02-16T14:11:08.000Z</time>
      </trkpt>
      <trkpt lat="43.94421" lon="7.12166">
        <ele>574.59997558594</ele>
        <time>2019-02-16T14:11:15.000Z</time>
      </trkpt>
      <trkpt lat="43.9442" lon="7.12165">
        <ele>574.79998779297</ele>
        <time>2019-02-16T14:11:16.000Z</time>
      </trkpt>
      <trkpt lat="43.94418" lon="7.1216">
        <ele>575.79998779297</ele>
        <time>2019-02-16T14:11:24.000Z</time>
      </trkpt>
      <trkpt lat="43.94416" lon="7.12155">
        <ele>576.79998779297</ele>
        <time>2019-02-16T14:11:30.000Z</time>
      </trkpt>
      <trkpt lat="43.94416" lon="7.12154">
        <ele>577</ele>
        <time>2019-02-16T14:11:31.000Z</time>
      </trkpt>
      <trkpt lat="43.94414" lon="7.12149">
        <ele>578</ele>
        <time>2019-02-16T14:11:37.000Z</time>
      </trkpt>
      <trkpt lat="43.94414" lon="7.12148">
        <ele>578.20001220703</ele>
        <time>2019-02-16T14:11:39.000Z</time>
      </trkpt>
      <trkpt lat="43.94413" lon="7.12144">
        <ele>579.20001220703</ele>
        <time>2019-02-16T14:11:44.000Z</time>
      </trkpt>
      <trkpt lat="43.94412" lon="7.12143">
        <ele>579.40002441406</ele>
        <time>2019-02-16T14:11:46.000Z</time>
      </trkpt>
      <trkpt lat="43.94412" lon="7.1214">
        <ele>580.20001220703</ele>
        <time>2019-02-16T14:11:50.000Z</time>
      </trkpt>
      <trkpt lat="43.94411" lon="7.12139">
        <ele>580.40002441406</ele>
        <time>2019-02-16T14:11:51.000Z</time>
      </trkpt>
      <trkpt lat="43.9441" lon="7.12137">
        <ele>581.20001220703</ele>
        <time>2019-02-16T14:11:54.000Z</time>
      </trkpt>
      <trkpt lat="43.9441" lon="7.12137">
        <ele>581.40002441406</ele>
        <time>2019-02-16T14:11:58.000Z</time>
      </trkpt>
      <trkpt lat="43.94409" lon="7.12137">
        <ele>582</ele>
        <time>2019-02-16T14:12:04.000Z</time>
      </trkpt>
      <trkpt lat="43.94407" lon="7.12133">
        <ele>582.20001220703</ele>
        <time>2019-02-16T14:12:11.000Z</time>
      </trkpt>
      <trkpt lat="43.94406" lon="7.12132">
        <ele>582.40002441406</ele>
        <time>2019-02-16T14:12:12.000Z</time>
      </trkpt>
      <trkpt lat="43.94405" lon="7.12127">
        <ele>583.20001220703</ele>
        <time>2019-02-16T14:12:18.000Z</time>
      </trkpt>
      <trkpt lat="43.94404" lon="7.12124">
        <ele>584</ele>
        <time>2019-02-16T14:12:22.000Z</time>
      </trkpt>
      <trkpt lat="43.94403" lon="7.12123">
        <ele>584.40002441406</ele>
        <time>2019-02-16T14:12:24.000Z</time>
      </trkpt>
      <trkpt lat="43.94402" lon="7.12118">
        <ele>585.40002441406</ele>
        <time>2019-02-16T14:12:30.000Z</time>
      </trkpt>
      <trkpt lat="43.94402" lon="7.12116">
        <ele>585.79998779297</ele>
        <time>2019-02-16T14:12:32.000Z</time>
      </trkpt>
      <trkpt lat="43.94401" lon="7.12113">
        <ele>586.40002441406</ele>
        <time>2019-02-16T14:12:36.000Z</time>
      </trkpt>
      <trkpt lat="43.944" lon="7.1211">
        <ele>587.59997558594</ele>
        <time>2019-02-16T14:12:41.000Z</time>
      </trkpt>
      <trkpt lat="43.944" lon="7.12105">
        <ele>588.59997558594</ele>
        <time>2019-02-16T14:12:48.000Z</time>
      </trkpt>
      <trkpt lat="43.944" lon="7.12104">
        <ele>588.79998779297</ele>
        <time>2019-02-16T14:12:49.000Z</time>
      </trkpt>
      <trkpt lat="43.944" lon="7.12099">
        <ele>589.79998779297</ele>
        <time>2019-02-16T14:12:55.000Z</time>
      </trkpt>
      <trkpt lat="43.944" lon="7.12094">
        <ele>590.79998779297</ele>
        <time>2019-02-16T14:13:01.000Z</time>
      </trkpt>
      <trkpt lat="43.944" lon="7.12093">
        <ele>591</ele>
        <time>2019-02-16T14:13:02.000Z</time>
      </trkpt>
      <trkpt lat="43.944" lon="7.12088">
        <ele>591.79998779297</ele>
        <time>2019-02-16T14:13:07.000Z</time>
      </trkpt>
      <trkpt lat="43.94401" lon="7.12084">
        <ele>592.79998779297</ele>
        <time>2019-02-16T14:13:12.000Z</time>
      </trkpt>
      <trkpt lat="43.94401" lon="7.12083">
        <ele>593</ele>
        <time>2019-02-16T14:13:13.000Z</time>
      </trkpt>
      <trkpt lat="43.94401" lon="7.12079">
        <ele>594</ele>
        <time>2019-02-16T14:13:19.000Z</time>
      </trkpt>
      <trkpt lat="43.94402" lon="7.12077">
        <ele>594.40002441406</ele>
        <time>2019-02-16T14:13:21.000Z</time>
      </trkpt>
      <trkpt lat="43.94401" lon="7.12073">
        <ele>595</ele>
        <time>2019-02-16T14:13:25.000Z</time>
      </trkpt>
      <trkpt lat="43.94401" lon="7.12069">
        <ele>595.79998779297</ele>
        <time>2019-02-16T14:13:30.000Z</time>
      </trkpt>
      <trkpt lat="43.944" lon="7.12068">
        <ele>596.20001220703</ele>
        <time>2019-02-16T14:13:32.000Z</time>
      </trkpt>
      <trkpt lat="43.94397" lon="7.12064">
        <ele>597.20001220703</ele>
        <time>2019-02-16T14:13:39.000Z</time>
      </trkpt>
      <trkpt lat="43.94397" lon="7.12064">
        <ele>597.40002441406</ele>
        <time>2019-02-16T14:13:40.000Z</time>
      </trkpt>
      <trkpt lat="43.94394" lon="7.12062">
        <ele>598.40002441406</ele>
        <time>2019-02-16T14:13:45.000Z</time>
      </trkpt>
      <trkpt lat="43.94392" lon="7.12059">
        <ele>599.20001220703</ele>
        <time>2019-02-16T14:13:49.000Z</time>
      </trkpt>
      <trkpt lat="43.94392" lon="7.12058">
        <ele>599.59997558594</ele>
        <time>2019-02-16T14:13:51.000Z</time>
      </trkpt>
      <trkpt lat="43.94394" lon="7.12054">
        <ele>600.40002441406</ele>
        <time>2019-02-16T14:13:57.000Z</time>
      </trkpt>
      <trkpt lat="43.94395" lon="7.12053">
        <ele>600.59997558594</ele>
        <time>2019-02-16T14:13:59.000Z</time>
      </trkpt>
      <trkpt lat="43.94397" lon="7.12049">
        <ele>601.79998779297</ele>
        <time>2019-02-16T14:14:05.000Z</time>
      </trkpt>
      <trkpt lat="43.94398" lon="7.12048">
        <ele>602.40002441406</ele>
        <time>2019-02-16T14:14:08.000Z</time>
      </trkpt>
      <trkpt lat="43.944" lon="7.12045">
        <ele>602.79998779297</ele>
        <time>2019-02-16T14:14:11.000Z</time>
      </trkpt>
      <trkpt lat="43.944" lon="7.1204">
        <ele>603.40002441406</ele>
        <time>2019-02-16T14:14:16.000Z</time>
      </trkpt>
      <trkpt lat="43.94398" lon="7.12039">
        <ele>603.79998779297</ele>
        <time>2019-02-16T14:14:21.000Z</time>
      </trkpt>
      <trkpt lat="43.94396" lon="7.12039">
        <ele>604</ele>
        <time>2019-02-16T14:14:26.000Z</time>
      </trkpt>
      <trkpt lat="43.94387" lon="7.12033">
        <ele>604.40002441406</ele>
        <time>2019-02-16T14:14:33.000Z</time>
      </trkpt>
      <trkpt lat="43.94386" lon="7.12025">
        <ele>605</ele>
        <time>2019-02-16T14:14:37.000Z</time>
      </trkpt>
      <trkpt lat="43.94387" lon="7.12022">
        <ele>605.40002441406</ele>
        <time>2019-02-16T14:14:39.000Z</time>
      </trkpt>
      <trkpt lat="43.94387" lon="7.12022">
        <ele>606</ele>
        <time>2019-02-16T14:14:41.000Z</time>
      </trkpt>
      <trkpt lat="43.94387" lon="7.12021">
        <ele>606.79998779297</ele>
        <time>2019-02-16T14:14:44.000Z</time>
      </trkpt>
      <trkpt lat="43.94388" lon="7.12015">
        <ele>607</ele>
        <time>2019-02-16T14:14:51.000Z</time>
      </trkpt>
      <trkpt lat="43.94388" lon="7.12014">
        <ele>607.20001220703</ele>
        <time>2019-02-16T14:14:52.000Z</time>
      </trkpt>
      <trkpt lat="43.94387" lon="7.1201">
        <ele>608.20001220703</ele>
        <time>2019-02-16T14:14:56.000Z</time>
      </trkpt>
      <trkpt lat="43.94386" lon="7.12005">
        <ele>609.20001220703</ele>
        <time>2019-02-16T14:15:01.000Z</time>
      </trkpt>
      <trkpt lat="43.94386" lon="7.12003">
        <ele>609.59997558594</ele>
        <time>2019-02-16T14:15:03.000Z</time>
      </trkpt>
      <trkpt lat="43.94388" lon="7.11999">
        <ele>610.40002441406</ele>
        <time>2019-02-16T14:15:08.000Z</time>
      </trkpt>
      <trkpt lat="43.94389" lon="7.11996">
        <ele>611.20001220703</ele>
        <time>2019-02-16T14:15:12.000Z</time>
      </trkpt>
      <trkpt lat="43.9439" lon="7.11994">
        <ele>611.59997558594</ele>
        <time>2019-02-16T14:15:14.000Z</time>
      </trkpt>
      <trkpt lat="43.94389" lon="7.11989">
        <ele>612.59997558594</ele>
        <time>2019-02-16T14:15:20.000Z</time>
      </trkpt>
      <trkpt lat="43.94389" lon="7.11988">
        <ele>613</ele>
        <time>2019-02-16T14:15:22.000Z</time>
      </trkpt>
      <trkpt lat="43.94388" lon="7.11984">
        <ele>613.79998779297</ele>
        <time>2019-02-16T14:15:27.000Z</time>
      </trkpt>
      <trkpt lat="43.94388" lon="7.11981">
        <ele>614.40002441406</ele>
        <time>2019-02-16T14:15:30.000Z</time>
      </trkpt>
      <trkpt lat="43.94388" lon="7.1198">
        <ele>614.79998779297</ele>
        <time>2019-02-16T14:15:32.000Z</time>
      </trkpt>
      <trkpt lat="43.94387" lon="7.11975">
        <ele>615.59997558594</ele>
        <time>2019-02-16T14:15:38.000Z</time>
      </trkpt>
      <trkpt lat="43.94387" lon="7.11973">
        <ele>615.79998779297</ele>
        <time>2019-02-16T14:15:39.000Z</time>
      </trkpt>
      <trkpt lat="43.94388" lon="7.11967">
        <ele>617</ele>
        <time>2019-02-16T14:15:46.000Z</time>
      </trkpt>
      <trkpt lat="43.94388" lon="7.11961">
        <ele>618.20001220703</ele>
        <time>2019-02-16T14:15:52.000Z</time>
      </trkpt>
      <trkpt lat="43.94389" lon="7.11961">
        <ele>618.20001220703</ele>
        <time>2019-02-16T14:15:53.000Z</time>
      </trkpt>
      <trkpt lat="43.94391" lon="7.11964">
        <ele>619.20001220703</ele>
        <time>2019-02-16T14:15:58.000Z</time>
      </trkpt>
      <trkpt lat="43.94393" lon="7.11967">
        <ele>619.59997558594</ele>
        <time>2019-02-16T14:16:01.000Z</time>
      </trkpt>
      <trkpt lat="43.94394" lon="7.1197">
        <ele>620.20001220703</ele>
        <time>2019-02-16T14:16:05.000Z</time>
      </trkpt>
      <trkpt lat="43.94397" lon="7.11973">
        <ele>621</ele>
        <time>2019-02-16T14:16:10.000Z</time>
      </trkpt>
      <trkpt lat="43.94397" lon="7.11974">
        <ele>621.40002441406</ele>
        <time>2019-02-16T14:16:11.000Z</time>
      </trkpt>
      <trkpt lat="43.944" lon="7.11977">
        <ele>622.59997558594</ele>
        <time>2019-02-16T14:16:18.000Z</time>
      </trkpt>
      <trkpt lat="43.944" lon="7.11978">
        <ele>622.59997558594</ele>
        <time>2019-02-16T14:16:19.000Z</time>
      </trkpt>
      <trkpt lat="43.94401" lon="7.11979">
        <ele>623.59997558594</ele>
        <time>2019-02-16T14:16:24.000Z</time>
      </trkpt>
      <trkpt lat="43.94403" lon="7.11981">
        <ele>624</ele>
        <time>2019-02-16T14:16:27.000Z</time>
      </trkpt>
      <trkpt lat="43.94404" lon="7.11983">
        <ele>624.59997558594</ele>
        <time>2019-02-16T14:16:31.000Z</time>
      </trkpt>
      <trkpt lat="43.94404" lon="7.11983">
        <ele>624.79998779297</ele>
        <time>2019-02-16T14:16:35.000Z</time>
      </trkpt>
      <trkpt lat="43.94403" lon="7.11985">
        <ele>625</ele>
        <time>2019-02-16T14:16:52.000Z</time>
      </trkpt>
      <trkpt lat="43.94406" lon="7.11991">
        <ele>625.40002441406</ele>
        <time>2019-02-16T14:16:59.000Z</time>
      </trkpt>
      <trkpt lat="43.94407" lon="7.11992">
        <ele>625.59997558594</ele>
        <time>2019-02-16T14:17:00.000Z</time>
      </trkpt>
      <trkpt lat="43.94412" lon="7.11995">
        <ele>626.59997558594</ele>
        <time>2019-02-16T14:17:07.000Z</time>
      </trkpt>
      <trkpt lat="43.94413" lon="7.11996">
        <ele>626.79998779297</ele>
        <time>2019-02-16T14:17:08.000Z</time>
      </trkpt>
      <trkpt lat="43.94416" lon="7.11998">
        <ele>627.79998779297</ele>
        <time>2019-02-16T14:17:14.000Z</time>
      </trkpt>
      <trkpt lat="43.9442" lon="7.12">
        <ele>628.79998779297</ele>
        <time>2019-02-16T14:17:21.000Z</time>
      </trkpt>
      <trkpt lat="43.94421" lon="7.12001">
        <ele>629</ele>
        <time>2019-02-16T14:17:22.000Z</time>
      </trkpt>
      <trkpt lat="43.94423" lon="7.12005">
        <ele>629.79998779297</ele>
        <time>2019-02-16T14:17:27.000Z</time>
      </trkpt>
      <trkpt lat="43.94423" lon="7.12005">
        <ele>630.20001220703</ele>
        <time>2019-02-16T14:17:30.000Z</time>
      </trkpt>
      <trkpt lat="43.94425" lon="7.12007">
        <ele>630.59997558594</ele>
        <time>2019-02-16T14:17:37.000Z</time>
      </trkpt>
      <trkpt lat="43.94428" lon="7.12011">
        <ele>630.79998779297</ele>
        <time>2019-02-16T14:17:43.000Z</time>
      </trkpt>
      <trkpt lat="43.9443" lon="7.12012">
        <ele>631.79998779297</ele>
        <time>2019-02-16T14:17:49.000Z</time>
      </trkpt>
      <trkpt lat="43.9443" lon="7.12013">
        <ele>632</ele>
        <time>2019-02-16T14:17:51.000Z</time>
      </trkpt>
      <trkpt lat="43.94434" lon="7.12015">
        <ele>632.20001220703</ele>
        <time>2019-02-16T14:17:56.000Z</time>
      </trkpt>
      <trkpt lat="43.94436" lon="7.12018">
        <ele>633</ele>
        <time>2019-02-16T14:18:00.000Z</time>
      </trkpt>
      <trkpt lat="43.94438" lon="7.1202">
        <ele>633.79998779297</ele>
        <time>2019-02-16T14:18:04.000Z</time>
      </trkpt>
      <trkpt lat="43.94439" lon="7.12022">
        <ele>634.20001220703</ele>
        <time>2019-02-16T14:18:06.000Z</time>
      </trkpt>
      <trkpt lat="43.9444" lon="7.12024">
        <ele>635</ele>
        <time>2019-02-16T14:18:11.000Z</time>
      </trkpt>
      <trkpt lat="43.94442" lon="7.12025">
        <ele>635.20001220703</ele>
        <time>2019-02-16T14:18:12.000Z</time>
      </trkpt>
      <trkpt lat="43.94445" lon="7.12028">
        <ele>636.20001220703</ele>
        <time>2019-02-16T14:18:18.000Z</time>
      </trkpt>
      <trkpt lat="43.94446" lon="7.12027">
        <ele>636.40002441406</ele>
        <time>2019-02-16T14:18:19.000Z</time>
      </trkpt>
      <trkpt lat="43.94448" lon="7.1203">
        <ele>637.20001220703</ele>
        <time>2019-02-16T14:18:24.000Z</time>
      </trkpt>
      <trkpt lat="43.94449" lon="7.12031">
        <ele>637.40002441406</ele>
        <time>2019-02-16T14:18:26.000Z</time>
      </trkpt>
      <trkpt lat="43.94453" lon="7.12034">
        <ele>638.40002441406</ele>
        <time>2019-02-16T14:18:32.000Z</time>
      </trkpt>
      <trkpt lat="43.94453" lon="7.12035">
        <ele>638.59997558594</ele>
        <time>2019-02-16T14:18:33.000Z</time>
      </trkpt>
      <trkpt lat="43.94455" lon="7.12039">
        <ele>639.59997558594</ele>
        <time>2019-02-16T14:18:38.000Z</time>
      </trkpt>
      <trkpt lat="43.94456" lon="7.1204">
        <ele>639.79998779297</ele>
        <time>2019-02-16T14:18:39.000Z</time>
      </trkpt>
      <trkpt lat="43.94458" lon="7.12045">
        <ele>640.40002441406</ele>
        <time>2019-02-16T14:18:45.000Z</time>
      </trkpt>
      <trkpt lat="43.9446" lon="7.12046">
        <ele>640.79998779297</ele>
        <time>2019-02-16T14:18:47.000Z</time>
      </trkpt>
      <trkpt lat="43.94461" lon="7.12048">
        <ele>641</ele>
        <time>2019-02-16T14:18:49.000Z</time>
      </trkpt>
      <trkpt lat="43.94462" lon="7.1205">
        <ele>641.40002441406</ele>
        <time>2019-02-16T14:18:51.000Z</time>
      </trkpt>
      <trkpt lat="43.94462" lon="7.12052">
        <ele>641.59997558594</ele>
        <time>2019-02-16T14:18:53.000Z</time>
      </trkpt>
      <trkpt lat="43.94463" lon="7.12053">
        <ele>641.79998779297</ele>
        <time>2019-02-16T14:18:55.000Z</time>
      </trkpt>
      <trkpt lat="43.94465" lon="7.12055">
        <ele>642</ele>
        <time>2019-02-16T14:18:57.000Z</time>
      </trkpt>
      <trkpt lat="43.94468" lon="7.12061">
        <ele>642.79998779297</ele>
        <time>2019-02-16T14:19:03.000Z</time>
      </trkpt>
      <trkpt lat="43.94468" lon="7.12062">
        <ele>643</ele>
        <time>2019-02-16T14:19:04.000Z</time>
      </trkpt>
      <trkpt lat="43.94468" lon="7.12063">
        <ele>643</ele>
        <time>2019-02-16T14:19:05.000Z</time>
      </trkpt>
      <trkpt lat="43.94471" lon="7.12067">
        <ele>643.59997558594</ele>
        <time>2019-02-16T14:19:09.000Z</time>
      </trkpt>
      <trkpt lat="43.94473" lon="7.1207">
        <ele>644</ele>
        <time>2019-02-16T14:19:12.000Z</time>
      </trkpt>
      <trkpt lat="43.94475" lon="7.12072">
        <ele>644.20001220703</ele>
        <time>2019-02-16T14:19:15.000Z</time>
      </trkpt>
      <trkpt lat="43.9448" lon="7.12075">
        <ele>645</ele>
        <time>2019-02-16T14:19:22.000Z</time>
      </trkpt>
      <trkpt lat="43.94484" lon="7.12076">
        <ele>646.20001220703</ele>
        <time>2019-02-16T14:19:28.000Z</time>
      </trkpt>
      <trkpt lat="43.94484" lon="7.12076">
        <ele>646.20001220703</ele>
        <time>2019-02-16T14:19:29.000Z</time>
      </trkpt>
      <trkpt lat="43.94486" lon="7.12077">
        <ele>646.79998779297</ele>
        <time>2019-02-16T14:19:32.000Z</time>
      </trkpt>
      <trkpt lat="43.94488" lon="7.12077">
        <ele>647.20001220703</ele>
        <time>2019-02-16T14:19:35.000Z</time>
      </trkpt>
      <trkpt lat="43.94489" lon="7.12075">
        <ele>647.40002441406</ele>
        <time>2019-02-16T14:19:36.000Z</time>
      </trkpt>
      <trkpt lat="43.94492" lon="7.12072">
        <ele>648.20001220703</ele>
        <time>2019-02-16T14:19:40.000Z</time>
      </trkpt>
      <trkpt lat="43.94494" lon="7.12068">
        <ele>648.40002441406</ele>
        <time>2019-02-16T14:19:44.000Z</time>
      </trkpt>
      <trkpt lat="43.94495" lon="7.12063">
        <ele>649</ele>
        <time>2019-02-16T14:19:49.000Z</time>
      </trkpt>
      <trkpt lat="43.94496" lon="7.1206">
        <ele>649.40002441406</ele>
        <time>2019-02-16T14:19:51.000Z</time>
      </trkpt>
      <trkpt lat="43.94496" lon="7.12056">
        <ele>650</ele>
        <time>2019-02-16T14:19:54.000Z</time>
      </trkpt>
      <trkpt lat="43.94497" lon="7.12053">
        <ele>650.59997558594</ele>
        <time>2019-02-16T14:19:57.000Z</time>
      </trkpt>
      <trkpt lat="43.94499" lon="7.1205">
        <ele>651</ele>
        <time>2019-02-16T14:20:01.000Z</time>
      </trkpt>
      <trkpt lat="43.94499" lon="7.12048">
        <ele>651.20001220703</ele>
        <time>2019-02-16T14:20:02.000Z</time>
      </trkpt>
      <trkpt lat="43.94501" lon="7.12046">
        <ele>651.59997558594</ele>
        <time>2019-02-16T14:20:05.000Z</time>
      </trkpt>
      <trkpt lat="43.94501" lon="7.12044">
        <ele>651.59997558594</ele>
        <time>2019-02-16T14:20:06.000Z</time>
      </trkpt>
      <trkpt lat="43.94502" lon="7.12044">
        <ele>651.79998779297</ele>
        <time>2019-02-16T14:20:07.000Z</time>
      </trkpt>
      <trkpt lat="43.94503" lon="7.12039">
        <ele>652.59997558594</ele>
        <time>2019-02-16T14:20:13.000Z</time>
      </trkpt>
      <trkpt lat="43.94505" lon="7.12034">
        <ele>653.59997558594</ele>
        <time>2019-02-16T14:20:19.000Z</time>
      </trkpt>
      <trkpt lat="43.94505" lon="7.12033">
        <ele>653.79998779297</ele>
        <time>2019-02-16T14:20:20.000Z</time>
      </trkpt>
      <trkpt lat="43.94506" lon="7.12031">
        <ele>654.20001220703</ele>
        <time>2019-02-16T14:20:23.000Z</time>
      </trkpt>
      <trkpt lat="43.94506" lon="7.1203">
        <ele>654.40002441406</ele>
        <time>2019-02-16T14:20:24.000Z</time>
      </trkpt>
      <trkpt lat="43.94508" lon="7.12027">
        <ele>654.79998779297</ele>
        <time>2019-02-16T14:20:27.000Z</time>
      </trkpt>
      <trkpt lat="43.94509" lon="7.12025">
        <ele>655.20001220703</ele>
        <time>2019-02-16T14:20:30.000Z</time>
      </trkpt>
      <trkpt lat="43.9451" lon="7.12022">
        <ele>655.79998779297</ele>
        <time>2019-02-16T14:20:36.000Z</time>
      </trkpt>
      <trkpt lat="43.94511" lon="7.12021">
        <ele>656</ele>
        <time>2019-02-16T14:20:37.000Z</time>
      </trkpt>
      <trkpt lat="43.94513" lon="7.12016">
        <ele>657</ele>
        <time>2019-02-16T14:20:43.000Z</time>
      </trkpt>
      <trkpt lat="43.94514" lon="7.12014">
        <ele>657</ele>
        <time>2019-02-16T14:20:44.000Z</time>
      </trkpt>
      <trkpt lat="43.94515" lon="7.12009">
        <ele>658.20001220703</ele>
        <time>2019-02-16T14:20:50.000Z</time>
      </trkpt>
      <trkpt lat="43.94517" lon="7.12004">
        <ele>659.40002441406</ele>
        <time>2019-02-16T14:20:57.000Z</time>
      </trkpt>
      <trkpt lat="43.94519" lon="7.12">
        <ele>660.40002441406</ele>
        <time>2019-02-16T14:21:03.000Z</time>
      </trkpt>
      <trkpt lat="43.9452" lon="7.11998">
        <ele>661</ele>
        <time>2019-02-16T14:21:05.000Z</time>
      </trkpt>
      <trkpt lat="43.94521" lon="7.11995">
        <ele>661.59997558594</ele>
        <time>2019-02-16T14:21:09.000Z</time>
      </trkpt>
      <trkpt lat="43.94522" lon="7.11993">
        <ele>662</ele>
        <time>2019-02-16T14:21:11.000Z</time>
      </trkpt>
      <trkpt lat="43.94524" lon="7.11991">
        <ele>662.59997558594</ele>
        <time>2019-02-16T14:21:15.000Z</time>
      </trkpt>
      <trkpt lat="43.94524" lon="7.1199">
        <ele>662.79998779297</ele>
        <time>2019-02-16T14:21:16.000Z</time>
      </trkpt>
      <trkpt lat="43.94525" lon="7.11985">
        <ele>663.59997558594</ele>
        <time>2019-02-16T14:21:22.000Z</time>
      </trkpt>
      <trkpt lat="43.94528" lon="7.1198">
        <ele>664.79998779297</ele>
        <time>2019-02-16T14:21:28.000Z</time>
      </trkpt>
      <trkpt lat="43.9453" lon="7.11976">
        <ele>665.79998779297</ele>
        <time>2019-02-16T14:21:36.000Z</time>
      </trkpt>
      <trkpt lat="43.94531" lon="7.11971">
        <ele>666.79998779297</ele>
        <time>2019-02-16T14:21:42.000Z</time>
      </trkpt>
      <trkpt lat="43.94532" lon="7.1197">
        <ele>667</ele>
        <time>2019-02-16T14:21:43.000Z</time>
      </trkpt>
      <trkpt lat="43.94533" lon="7.11966">
        <ele>668</ele>
        <time>2019-02-16T14:21:49.000Z</time>
      </trkpt>
      <trkpt lat="43.94534" lon="7.11965">
        <ele>668.40002441406</ele>
        <time>2019-02-16T14:21:51.000Z</time>
      </trkpt>
      <trkpt lat="43.94535" lon="7.11963">
        <ele>669.20001220703</ele>
        <time>2019-02-16T14:21:56.000Z</time>
      </trkpt>
      <trkpt lat="43.94537" lon="7.1196">
        <ele>669.40002441406</ele>
        <time>2019-02-16T14:21:58.000Z</time>
      </trkpt>
      <trkpt lat="43.94539" lon="7.11957">
        <ele>670.20001220703</ele>
        <time>2019-02-16T14:22:02.000Z</time>
      </trkpt>
      <trkpt lat="43.9454" lon="7.11955">
        <ele>670.79998779297</ele>
        <time>2019-02-16T14:22:05.000Z</time>
      </trkpt>
      <trkpt lat="43.94541" lon="7.11955">
        <ele>671.20001220703</ele>
        <time>2019-02-16T14:22:08.000Z</time>
      </trkpt>
      <trkpt lat="43.94542" lon="7.11954">
        <ele>671.59997558594</ele>
        <time>2019-02-16T14:22:11.000Z</time>
      </trkpt>
      <trkpt lat="43.94544" lon="7.11952">
        <ele>672.40002441406</ele>
        <time>2019-02-16T14:22:16.000Z</time>
      </trkpt>
      <trkpt lat="43.94544" lon="7.11951">
        <ele>672.59997558594</ele>
        <time>2019-02-16T14:22:18.000Z</time>
      </trkpt>
      <trkpt lat="43.94547" lon="7.11948">
        <ele>673.40002441406</ele>
        <time>2019-02-16T14:22:23.000Z</time>
      </trkpt>
      <trkpt lat="43.9455" lon="7.11946">
        <ele>674.59997558594</ele>
        <time>2019-02-16T14:22:30.000Z</time>
      </trkpt>
      <trkpt lat="43.94553" lon="7.11945">
        <ele>675.79998779297</ele>
        <time>2019-02-16T14:22:36.000Z</time>
      </trkpt>
      <trkpt lat="43.94554" lon="7.11942">
        <ele>676.20001220703</ele>
        <time>2019-02-16T14:22:40.000Z</time>
      </trkpt>
      <trkpt lat="43.94555" lon="7.11941">
        <ele>676.59997558594</ele>
        <time>2019-02-16T14:22:42.000Z</time>
      </trkpt>
      <trkpt lat="43.94556" lon="7.1194">
        <ele>676.79998779297</ele>
        <time>2019-02-16T14:22:43.000Z</time>
      </trkpt>
      <trkpt lat="43.94558" lon="7.11939">
        <ele>677.79998779297</ele>
        <time>2019-02-16T14:22:49.000Z</time>
      </trkpt>
      <trkpt lat="43.94559" lon="7.11938">
        <ele>678.20001220703</ele>
        <time>2019-02-16T14:22:51.000Z</time>
      </trkpt>
      <trkpt lat="43.9456" lon="7.11938">
        <ele>678.79998779297</ele>
        <time>2019-02-16T14:22:54.000Z</time>
      </trkpt>
      <trkpt lat="43.94562" lon="7.11935">
        <ele>679.40002441406</ele>
        <time>2019-02-16T14:22:57.000Z</time>
      </trkpt>
      <trkpt lat="43.94563" lon="7.11935">
        <ele>680</ele>
        <time>2019-02-16T14:23:00.000Z</time>
      </trkpt>
      <trkpt lat="43.94564" lon="7.11933">
        <ele>680.40002441406</ele>
        <time>2019-02-16T14:23:03.000Z</time>
      </trkpt>
      <trkpt lat="43.94567" lon="7.11933">
        <ele>681</ele>
        <time>2019-02-16T14:23:07.000Z</time>
      </trkpt>
      <trkpt lat="43.94567" lon="7.11931">
        <ele>681.59997558594</ele>
        <time>2019-02-16T14:23:11.000Z</time>
      </trkpt>
      <trkpt lat="43.94568" lon="7.11929">
        <ele>682.20001220703</ele>
        <time>2019-02-16T14:23:14.000Z</time>
      </trkpt>
      <trkpt lat="43.94569" lon="7.11929">
        <ele>682.59997558594</ele>
        <time>2019-02-16T14:23:17.000Z</time>
      </trkpt>
      <trkpt lat="43.94571" lon="7.11927">
        <ele>683.20001220703</ele>
        <time>2019-02-16T14:23:21.000Z</time>
      </trkpt>
      <trkpt lat="43.94572" lon="7.11925">
        <ele>683.79998779297</ele>
        <time>2019-02-16T14:23:25.000Z</time>
      </trkpt>
      <trkpt lat="43.94573" lon="7.11924">
        <ele>684.20001220703</ele>
        <time>2019-02-16T14:23:27.000Z</time>
      </trkpt>
      <trkpt lat="43.94575" lon="7.11922">
        <ele>684.79998779297</ele>
        <time>2019-02-16T14:23:31.000Z</time>
      </trkpt>
      <trkpt lat="43.94576" lon="7.11921">
        <ele>685.40002441406</ele>
        <time>2019-02-16T14:23:34.000Z</time>
      </trkpt>
      <trkpt lat="43.94578" lon="7.1192">
        <ele>686</ele>
        <time>2019-02-16T14:23:37.000Z</time>
      </trkpt>
      <trkpt lat="43.94579" lon="7.11918">
        <ele>686.20001220703</ele>
        <time>2019-02-16T14:23:39.000Z</time>
      </trkpt>
      <trkpt lat="43.94579" lon="7.11918">
        <ele>686.40002441406</ele>
        <time>2019-02-16T14:23:40.000Z</time>
      </trkpt>
      <trkpt lat="43.94581" lon="7.11916">
        <ele>686.59997558594</ele>
        <time>2019-02-16T14:23:43.000Z</time>
      </trkpt>
      <trkpt lat="43.94584" lon="7.11913">
        <ele>687.59997558594</ele>
        <time>2019-02-16T14:23:48.000Z</time>
      </trkpt>
      <trkpt lat="43.94584" lon="7.11913">
        <ele>687.59997558594</ele>
        <time>2019-02-16T14:23:49.000Z</time>
      </trkpt>
      <trkpt lat="43.94588" lon="7.1191">
        <ele>688.59997558594</ele>
        <time>2019-02-16T14:23:56.000Z</time>
      </trkpt>
      <trkpt lat="43.94589" lon="7.11909">
        <ele>688.79998779297</ele>
        <time>2019-02-16T14:23:57.000Z</time>
      </trkpt>
      <trkpt lat="43.94592" lon="7.11905">
        <ele>689.59997558594</ele>
        <time>2019-02-16T14:24:03.000Z</time>
      </trkpt>
      <trkpt lat="43.94593" lon="7.11904">
        <ele>689.79998779297</ele>
        <time>2019-02-16T14:24:04.000Z</time>
      </trkpt>
      <trkpt lat="43.94596" lon="7.119">
        <ele>690.40002441406</ele>
        <time>2019-02-16T14:24:10.000Z</time>
      </trkpt>
      <trkpt lat="43.94596" lon="7.11899">
        <ele>690.79998779297</ele>
        <time>2019-02-16T14:24:12.000Z</time>
      </trkpt>
      <trkpt lat="43.94598" lon="7.11896">
        <ele>691.20001220703</ele>
        <time>2019-02-16T14:24:16.000Z</time>
      </trkpt>
      <trkpt lat="43.94599" lon="7.11896">
        <ele>691.79998779297</ele>
        <time>2019-02-16T14:24:19.000Z</time>
      </trkpt>
      <trkpt lat="43.946" lon="7.11895">
        <ele>692.20001220703</ele>
        <time>2019-02-16T14:24:22.000Z</time>
      </trkpt>
      <trkpt lat="43.94601" lon="7.11894">
        <ele>692.79998779297</ele>
        <time>2019-02-16T14:24:25.000Z</time>
      </trkpt>
      <trkpt lat="43.94603" lon="7.11892">
        <ele>693.20001220703</ele>
        <time>2019-02-16T14:24:28.000Z</time>
      </trkpt>
      <trkpt lat="43.94605" lon="7.11891">
        <ele>693.79998779297</ele>
        <time>2019-02-16T14:24:32.000Z</time>
      </trkpt>
      <trkpt lat="43.94606" lon="7.1189">
        <ele>694</ele>
        <time>2019-02-16T14:24:34.000Z</time>
      </trkpt>
      <trkpt lat="43.94609" lon="7.11886">
        <ele>695</ele>
        <time>2019-02-16T14:24:41.000Z</time>
      </trkpt>
      <trkpt lat="43.94611" lon="7.11883">
        <ele>696</ele>
        <time>2019-02-16T14:24:47.000Z</time>
      </trkpt>
      <trkpt lat="43.94611" lon="7.11883">
        <ele>696.20001220703</ele>
        <time>2019-02-16T14:24:48.000Z</time>
      </trkpt>
      <trkpt lat="43.94615" lon="7.11877">
        <ele>697.20001220703</ele>
        <time>2019-02-16T14:24:55.000Z</time>
      </trkpt>
      <trkpt lat="43.94616" lon="7.11876">
        <ele>697.40002441406</ele>
        <time>2019-02-16T14:24:56.000Z</time>
      </trkpt>
      <trkpt lat="43.94618" lon="7.11872">
        <ele>698.20001220703</ele>
        <time>2019-02-16T14:25:01.000Z</time>
      </trkpt>
      <trkpt lat="43.94618" lon="7.11871">
        <ele>698.20001220703</ele>
        <time>2019-02-16T14:25:02.000Z</time>
      </trkpt>
      <trkpt lat="43.94619" lon="7.11866">
        <ele>699.40002441406</ele>
        <time>2019-02-16T14:25:09.000Z</time>
      </trkpt>
      <trkpt lat="43.94619" lon="7.11865">
        <ele>699.40002441406</ele>
        <time>2019-02-16T14:25:10.000Z</time>
      </trkpt>
      <trkpt lat="43.94623" lon="7.1186">
        <ele>700.40002441406</ele>
        <time>2019-02-16T14:25:15.000Z</time>
      </trkpt>
      <trkpt lat="43.94623" lon="7.11858">
        <ele>701.20001220703</ele>
        <time>2019-02-16T14:25:20.000Z</time>
      </trkpt>
      <trkpt lat="43.94623" lon="7.11858">
        <ele>701.40002441406</ele>
        <time>2019-02-16T14:25:21.000Z</time>
      </trkpt>
      <trkpt lat="43.94622" lon="7.11855">
        <ele>702.20001220703</ele>
        <time>2019-02-16T14:25:27.000Z</time>
      </trkpt>
      <trkpt lat="43.94622" lon="7.11855">
        <ele>702.40002441406</ele>
        <time>2019-02-16T14:25:28.000Z</time>
      </trkpt>
      <trkpt lat="43.94623" lon="7.11851">
        <ele>703.59997558594</ele>
        <time>2019-02-16T14:25:35.000Z</time>
      </trkpt>
      <trkpt lat="43.94623" lon="7.11847">
        <ele>704.59997558594</ele>
        <time>2019-02-16T14:25:42.000Z</time>
      </trkpt>
      <trkpt lat="43.94625" lon="7.11844">
        <ele>704.79998779297</ele>
        <time>2019-02-16T14:25:43.000Z</time>
      </trkpt>
      <trkpt lat="43.94624" lon="7.11843">
        <ele>705.20001220703</ele>
        <time>2019-02-16T14:25:45.000Z</time>
      </trkpt>
      <trkpt lat="43.94625" lon="7.11841">
        <ele>705.79998779297</ele>
        <time>2019-02-16T14:25:49.000Z</time>
      </trkpt>
      <trkpt lat="43.94625" lon="7.11838">
        <ele>706.20001220703</ele>
        <time>2019-02-16T14:25:52.000Z</time>
      </trkpt>
      <trkpt lat="43.94624" lon="7.11837">
        <ele>706.79998779297</ele>
        <time>2019-02-16T14:25:55.000Z</time>
      </trkpt>
      <trkpt lat="43.94624" lon="7.11836">
        <ele>707</ele>
        <time>2019-02-16T14:25:56.000Z</time>
      </trkpt>
      <trkpt lat="43.94625" lon="7.11833">
        <ele>707.79998779297</ele>
        <time>2019-02-16T14:26:00.000Z</time>
      </trkpt>
      <trkpt lat="43.94625" lon="7.11832">
        <ele>708</ele>
        <time>2019-02-16T14:26:02.000Z</time>
      </trkpt>
      <trkpt lat="43.94628" lon="7.11827">
        <ele>708.59997558594</ele>
        <time>2019-02-16T14:26:06.000Z</time>
      </trkpt>
      <trkpt lat="43.94628" lon="7.11825">
        <ele>709</ele>
        <time>2019-02-16T14:26:08.000Z</time>
      </trkpt>
      <trkpt lat="43.94626" lon="7.11822">
        <ele>709.59997558594</ele>
        <time>2019-02-16T14:26:11.000Z</time>
      </trkpt>
      <trkpt lat="43.94627" lon="7.11819">
        <ele>710</ele>
        <time>2019-02-16T14:26:13.000Z</time>
      </trkpt>
      <trkpt lat="43.94628" lon="7.11817">
        <ele>710.40002441406</ele>
        <time>2019-02-16T14:26:15.000Z</time>
      </trkpt>
      <trkpt lat="43.94628" lon="7.11815">
        <ele>711</ele>
        <time>2019-02-16T14:26:19.000Z</time>
      </trkpt>
      <trkpt lat="43.94628" lon="7.11815">
        <ele>711.20001220703</ele>
        <time>2019-02-16T14:26:20.000Z</time>
      </trkpt>
      <trkpt lat="43.94628" lon="7.11811">
        <ele>712</ele>
        <time>2019-02-16T14:26:25.000Z</time>
      </trkpt>
      <trkpt lat="43.94628" lon="7.11811">
        <ele>712.20001220703</ele>
        <time>2019-02-16T14:26:26.000Z</time>
      </trkpt>
      <trkpt lat="43.94626" lon="7.11808">
        <ele>713</ele>
        <time>2019-02-16T14:26:30.000Z</time>
      </trkpt>
      <trkpt lat="43.94625" lon="7.11807">
        <ele>713.20001220703</ele>
        <time>2019-02-16T14:26:32.000Z</time>
      </trkpt>
      <trkpt lat="43.94623" lon="7.11809">
        <ele>713.79998779297</ele>
        <time>2019-02-16T14:26:36.000Z</time>
      </trkpt>
      <trkpt lat="43.94621" lon="7.11811">
        <ele>714.40002441406</ele>
        <time>2019-02-16T14:26:39.000Z</time>
      </trkpt>
      <trkpt lat="43.9462" lon="7.11812">
        <ele>715</ele>
        <time>2019-02-16T14:26:42.000Z</time>
      </trkpt>
      <trkpt lat="43.9462" lon="7.11812">
        <ele>715.59997558594</ele>
        <time>2019-02-16T14:26:46.000Z</time>
      </trkpt>
      <trkpt lat="43.9462" lon="7.11812">
        <ele>715.79998779297</ele>
        <time>2019-02-16T14:26:47.000Z</time>
      </trkpt>
      <trkpt lat="43.94618" lon="7.11814">
        <ele>716.59997558594</ele>
        <time>2019-02-16T14:26:52.000Z</time>
      </trkpt>
      <trkpt lat="43.94617" lon="7.11815">
        <ele>717</ele>
        <time>2019-02-16T14:26:54.000Z</time>
      </trkpt>
      <trkpt lat="43.94617" lon="7.11817">
        <ele>717.79998779297</ele>
        <time>2019-02-16T14:26:59.000Z</time>
      </trkpt>
      <trkpt lat="43.94616" lon="7.11819">
        <ele>718.59997558594</ele>
        <time>2019-02-16T14:27:02.000Z</time>
      </trkpt>
      <trkpt lat="43.94616" lon="7.11819">
        <ele>719</ele>
        <time>2019-02-16T14:27:03.000Z</time>
      </trkpt>
      <trkpt lat="43.94616" lon="7.11819">
        <ele>722.59997558594</ele>
        <time>2019-02-16T14:27:07.000Z</time>
      </trkpt>
      <trkpt lat="43.94616" lon="7.11819">
        <ele>721</ele>
        <time>2019-02-16T14:27:10.000Z</time>
      </trkpt>
      <trkpt lat="43.94616" lon="7.11819">
        <ele>705.20001220703</ele>
        <time>2019-02-16T14:27:11.000Z</time>
      </trkpt>
      <trkpt lat="43.94616" lon="7.11819">
        <ele>717.20001220703</ele>
        <time>2019-02-16T14:27:12.000Z</time>
      </trkpt>
      <trkpt lat="43.94615" lon="7.11819">
        <ele>717.59997558594</ele>
        <time>2019-02-16T14:27:22.000Z</time>
      </trkpt>
      <trkpt lat="43.94616" lon="7.11819">
        <ele>718.40002441406</ele>
        <time>2019-02-16T14:27:29.000Z</time>
      </trkpt>
      <trkpt lat="43.94617" lon="7.11819">
        <ele>719</ele>
        <time>2019-02-16T14:27:34.000Z</time>
      </trkpt>
      <trkpt lat="43.94616" lon="7.11819">
        <ele>719.40002441406</ele>
        <time>2019-02-16T14:27:37.000Z</time>
      </trkpt>
      <trkpt lat="43.94618" lon="7.11817">
        <ele>719.20001220703</ele>
        <time>2019-02-16T14:27:51.000Z</time>
      </trkpt>
      <trkpt lat="43.94618" lon="7.11817">
        <ele>719.59997558594</ele>
        <time>2019-02-16T14:27:58.000Z</time>
      </trkpt>
      <trkpt lat="43.94619" lon="7.11817">
        <ele>719.20001220703</ele>
        <time>2019-02-16T14:28:06.000Z</time>
      </trkpt>
      <trkpt lat="43.94617" lon="7.1182">
        <ele>719.40002441406</ele>
        <time>2019-02-16T14:28:09.000Z</time>
      </trkpt>
      <trkpt lat="43.94617" lon="7.11821">
        <ele>719.59997558594</ele>
        <time>2019-02-16T14:28:11.000Z</time>
      </trkpt>
      <trkpt lat="43.94616" lon="7.11824">
        <ele>719.40002441406</ele>
        <time>2019-02-16T14:28:16.000Z</time>
      </trkpt>
      <trkpt lat="43.94612" lon="7.11835">
        <ele>719.40002441406</ele>
        <time>2019-02-16T14:28:21.000Z</time>
      </trkpt>
      <trkpt lat="43.94604" lon="7.11848">
        <ele>719.59997558594</ele>
        <time>2019-02-16T14:28:26.000Z</time>
      </trkpt>
      <trkpt lat="43.94601" lon="7.11851">
        <ele>719.20001220703</ele>
        <time>2019-02-16T14:28:30.000Z</time>
      </trkpt>
      <trkpt lat="43.94594" lon="7.11857">
        <ele>719</ele>
        <time>2019-02-16T14:28:35.000Z</time>
      </trkpt>
      <trkpt lat="43.94578" lon="7.11866">
        <ele>719.20001220703</ele>
        <time>2019-02-16T14:28:40.000Z</time>
      </trkpt>
      <trkpt lat="43.94551" lon="7.11879">
        <ele>718.79998779297</ele>
        <time>2019-02-16T14:28:47.000Z</time>
      </trkpt>
      <trkpt lat="43.94539" lon="7.11882">
        <ele>718.40002441406</ele>
        <time>2019-02-16T14:28:50.000Z</time>
      </trkpt>
      <trkpt lat="43.94525" lon="7.11886">
        <ele>718</ele>
        <time>2019-02-16T14:28:53.000Z</time>
      </trkpt>
      <trkpt lat="43.94512" lon="7.11885">
        <ele>718</ele>
        <time>2019-02-16T14:28:57.000Z</time>
      </trkpt>
      <trkpt lat="43.94511" lon="7.11882">
        <ele>718</ele>
        <time>2019-02-16T14:28:58.000Z</time>
      </trkpt>
      <trkpt lat="43.9451" lon="7.1188">
        <ele>718</ele>
        <time>2019-02-16T14:29:02.000Z</time>
      </trkpt>
      <trkpt lat="43.94509" lon="7.11881">
        <ele>717.79998779297</ele>
        <time>2019-02-16T14:29:09.000Z</time>
      </trkpt>
      <trkpt lat="43.94509" lon="7.11881">
        <ele>717.79998779297</ele>
        <time>2019-02-16T14:29:10.000Z</time>
      </trkpt>
      <trkpt lat="43.94509" lon="7.11882">
        <ele>717.79998779297</ele>
        <time>2019-02-16T14:29:17.000Z</time>
      </trkpt>
      <trkpt lat="43.94508" lon="7.11882">
        <ele>718</ele>
        <time>2019-02-16T14:29:30.000Z</time>
      </trkpt>
      <trkpt lat="43.94508" lon="7.11882">
        <ele>718.20001220703</ele>
        <time>2019-02-16T14:29:45.000Z</time>
      </trkpt>
      <trkpt lat="43.94507" lon="7.11883">
        <ele>718.40002441406</ele>
        <time>2019-02-16T14:30:00.000Z</time>
      </trkpt>
      <trkpt lat="43.94507" lon="7.11884">
        <ele>718</ele>
        <time>2019-02-16T14:30:13.000Z</time>
      </trkpt>
      <trkpt lat="43.94507" lon="7.11885">
        <ele>717.79998779297</ele>
        <time>2019-02-16T14:30:29.000Z</time>
      </trkpt>
      <trkpt lat="43.94507" lon="7.11885">
        <ele>718.20001220703</ele>
        <time>2019-02-16T14:30:42.000Z</time>
      </trkpt>
      <trkpt lat="43.94508" lon="7.11886">
        <ele>718</ele>
        <time>2019-02-16T14:30:52.000Z</time>
      </trkpt>
      <trkpt lat="43.94508" lon="7.11886">
        <ele>718.20001220703</ele>
        <time>2019-02-16T14:31:04.000Z</time>
      </trkpt>
      <trkpt lat="43.94508" lon="7.11887">
        <ele>717.79998779297</ele>
        <time>2019-02-16T14:31:12.000Z</time>
      </trkpt>
      <trkpt lat="43.94508" lon="7.11887">
        <ele>718.20001220703</ele>
        <time>2019-02-16T14:31:22.000Z</time>
      </trkpt>
      <trkpt lat="43.94507" lon="7.11884">
        <ele>718.20001220703</ele>
        <time>2019-02-16T14:31:29.000Z</time>
      </trkpt>
      <trkpt lat="43.94506" lon="7.11881">
        <ele>718.20001220703</ele>
        <time>2019-02-16T14:31:30.000Z</time>
      </trkpt>
      <trkpt lat="43.94502" lon="7.11865">
        <ele>717.79998779297</ele>
        <time>2019-02-16T14:31:34.000Z</time>
      </trkpt>
      <trkpt lat="43.94499" lon="7.11854">
        <ele>717.20001220703</ele>
        <time>2019-02-16T14:31:36.000Z</time>
      </trkpt>
      <trkpt lat="43.94496" lon="7.1185">
        <ele>715.79998779297</ele>
        <time>2019-02-16T14:31:38.000Z</time>
      </trkpt>
      <trkpt lat="43.94497" lon="7.11854">
        <ele>714.79998779297</ele>
        <time>2019-02-16T14:31:40.000Z</time>
      </trkpt>
      <trkpt lat="43.94497" lon="7.11857">
        <ele>714.40002441406</ele>
        <time>2019-02-16T14:31:41.000Z</time>
      </trkpt>
      <trkpt lat="43.94497" lon="7.11866">
        <ele>713.59997558594</ele>
        <time>2019-02-16T14:31:43.000Z</time>
      </trkpt>
      <trkpt lat="43.94496" lon="7.11879">
        <ele>713.20001220703</ele>
        <time>2019-02-16T14:31:45.000Z</time>
      </trkpt>
      <trkpt lat="43.94495" lon="7.11887">
        <ele>712.40002441406</ele>
        <time>2019-02-16T14:31:47.000Z</time>
      </trkpt>
      <trkpt lat="43.94493" lon="7.11885">
        <ele>711.79998779297</ele>
        <time>2019-02-16T14:31:48.000Z</time>
      </trkpt>
      <trkpt lat="43.94492" lon="7.11882">
        <ele>711.40002441406</ele>
        <time>2019-02-16T14:31:49.000Z</time>
      </trkpt>
      <trkpt lat="43.9449" lon="7.11871">
        <ele>710.40002441406</ele>
        <time>2019-02-16T14:31:51.000Z</time>
      </trkpt>
      <trkpt lat="43.94488" lon="7.11864">
        <ele>710</ele>
        <time>2019-02-16T14:31:52.000Z</time>
      </trkpt>
      <trkpt lat="43.94483" lon="7.11847">
        <ele>708.79998779297</ele>
        <time>2019-02-16T14:31:54.000Z</time>
      </trkpt>
      <trkpt lat="43.9448" lon="7.11841">
        <ele>708</ele>
        <time>2019-02-16T14:31:55.000Z</time>
      </trkpt>
      <trkpt lat="43.94477" lon="7.11833">
        <ele>707.20001220703</ele>
        <time>2019-02-16T14:31:56.000Z</time>
      </trkpt>
      <trkpt lat="43.94475" lon="7.11825">
        <ele>706.20001220703</ele>
        <time>2019-02-16T14:31:57.000Z</time>
      </trkpt>
      <trkpt lat="43.94472" lon="7.11818">
        <ele>705.40002441406</ele>
        <time>2019-02-16T14:31:58.000Z</time>
      </trkpt>
      <trkpt lat="43.94468" lon="7.11803">
        <ele>704.40002441406</ele>
        <time>2019-02-16T14:32:00.000Z</time>
      </trkpt>
      <trkpt lat="43.94464" lon="7.11789">
        <ele>702.79998779297</ele>
        <time>2019-02-16T14:32:02.000Z</time>
      </trkpt>
      <trkpt lat="43.9446" lon="7.11784">
        <ele>701.79998779297</ele>
        <time>2019-02-16T14:32:03.000Z</time>
      </trkpt>
      <trkpt lat="43.94457" lon="7.11778">
        <ele>700.79998779297</ele>
        <time>2019-02-16T14:32:04.000Z</time>
      </trkpt>
      <trkpt lat="43.94454" lon="7.11772">
        <ele>700</ele>
        <time>2019-02-16T14:32:05.000Z</time>
      </trkpt>
      <trkpt lat="43.94453" lon="7.11757">
        <ele>698.40002441406</ele>
        <time>2019-02-16T14:32:07.000Z</time>
      </trkpt>
      <trkpt lat="43.94455" lon="7.11745">
        <ele>697</ele>
        <time>2019-02-16T14:32:09.000Z</time>
      </trkpt>
      <trkpt lat="43.94456" lon="7.11741">
        <ele>696</ele>
        <time>2019-02-16T14:32:10.000Z</time>
      </trkpt>
      <trkpt lat="43.94456" lon="7.11735">
        <ele>695.40002441406</ele>
        <time>2019-02-16T14:32:11.000Z</time>
      </trkpt>
      <trkpt lat="43.94456" lon="7.11728">
        <ele>694.79998779297</ele>
        <time>2019-02-16T14:32:12.000Z</time>
      </trkpt>
      <trkpt lat="43.94454" lon="7.11722">
        <ele>694.20001220703</ele>
        <time>2019-02-16T14:32:13.000Z</time>
      </trkpt>
      <trkpt lat="43.9445" lon="7.11703">
        <ele>693.20001220703</ele>
        <time>2019-02-16T14:32:16.000Z</time>
      </trkpt>
      <trkpt lat="43.9445" lon="7.11697">
        <ele>692.79998779297</ele>
        <time>2019-02-16T14:32:17.000Z</time>
      </trkpt>
      <trkpt lat="43.9445" lon="7.11687">
        <ele>692</ele>
        <time>2019-02-16T14:32:19.000Z</time>
      </trkpt>
      <trkpt lat="43.94446" lon="7.11684">
        <ele>691.59997558594</ele>
        <time>2019-02-16T14:32:21.000Z</time>
      </trkpt>
      <trkpt lat="43.94435" lon="7.11682">
        <ele>691.40002441406</ele>
        <time>2019-02-16T14:32:25.000Z</time>
      </trkpt>
      <trkpt lat="43.94432" lon="7.11679">
        <ele>691.40002441406</ele>
        <time>2019-02-16T14:32:26.000Z</time>
      </trkpt>
      <trkpt lat="43.9442" lon="7.11667">
        <ele>691.79998779297</ele>
        <time>2019-02-16T14:32:30.000Z</time>
      </trkpt>
      <trkpt lat="43.94418" lon="7.11662">
        <ele>692</ele>
        <time>2019-02-16T14:32:31.000Z</time>
      </trkpt>
      <trkpt lat="43.94412" lon="7.11633">
        <ele>691.59997558594</ele>
        <time>2019-02-16T14:32:35.000Z</time>
      </trkpt>
      <trkpt lat="43.9441" lon="7.11626">
        <ele>690.59997558594</ele>
        <time>2019-02-16T14:32:36.000Z</time>
      </trkpt>
      <trkpt lat="43.94403" lon="7.11617">
        <ele>689.40002441406</ele>
        <time>2019-02-16T14:32:38.000Z</time>
      </trkpt>
      <trkpt lat="43.94397" lon="7.11606">
        <ele>688</ele>
        <time>2019-02-16T14:32:40.000Z</time>
      </trkpt>
      <trkpt lat="43.94394" lon="7.11591">
        <ele>687.40002441406</ele>
        <time>2019-02-16T14:32:42.000Z</time>
      </trkpt>
      <trkpt lat="43.94393" lon="7.11583">
        <ele>687.40002441406</ele>
        <time>2019-02-16T14:32:43.000Z</time>
      </trkpt>
      <trkpt lat="43.94391" lon="7.11576">
        <ele>687.20001220703</ele>
        <time>2019-02-16T14:32:44.000Z</time>
      </trkpt>
      <trkpt lat="43.94387" lon="7.11561">
        <ele>686.59997558594</ele>
        <time>2019-02-16T14:32:46.000Z</time>
      </trkpt>
      <trkpt lat="43.94385" lon="7.11552">
        <ele>686.40002441406</ele>
        <time>2019-02-16T14:32:47.000Z</time>
      </trkpt>
      <trkpt lat="43.94381" lon="7.11535">
        <ele>685.40002441406</ele>
        <time>2019-02-16T14:32:49.000Z</time>
      </trkpt>
      <trkpt lat="43.94381" lon="7.11526">
        <ele>685</ele>
        <time>2019-02-16T14:32:50.000Z</time>
      </trkpt>
      <trkpt lat="43.94378" lon="7.11511">
        <ele>684</ele>
        <time>2019-02-16T14:32:52.000Z</time>
      </trkpt>
      <trkpt lat="43.94374" lon="7.11505">
        <ele>683.59997558594</ele>
        <time>2019-02-16T14:32:53.000Z</time>
      </trkpt>
      <trkpt lat="43.94374" lon="7.11499">
        <ele>682.79998779297</ele>
        <time>2019-02-16T14:32:54.000Z</time>
      </trkpt>
      <trkpt lat="43.94376" lon="7.11496">
        <ele>682.59997558594</ele>
        <time>2019-02-16T14:32:55.000Z</time>
      </trkpt>
      <trkpt lat="43.94384" lon="7.11483">
        <ele>682</ele>
        <time>2019-02-16T14:32:58.000Z</time>
      </trkpt>
      <trkpt lat="43.94383" lon="7.11474">
        <ele>682</ele>
        <time>2019-02-16T14:33:00.000Z</time>
      </trkpt>
      <trkpt lat="43.9438" lon="7.1147">
        <ele>681.79998779297</ele>
        <time>2019-02-16T14:33:01.000Z</time>
      </trkpt>
      <trkpt lat="43.94365" lon="7.11456">
        <ele>680.20001220703</ele>
        <time>2019-02-16T14:33:04.000Z</time>
      </trkpt>
      <trkpt lat="43.9436" lon="7.11452">
        <ele>679.59997558594</ele>
        <time>2019-02-16T14:33:05.000Z</time>
      </trkpt>
      <trkpt lat="43.94357" lon="7.11447">
        <ele>678.79998779297</ele>
        <time>2019-02-16T14:33:06.000Z</time>
      </trkpt>
      <trkpt lat="43.94355" lon="7.1144">
        <ele>678.20001220703</ele>
        <time>2019-02-16T14:33:07.000Z</time>
      </trkpt>
      <trkpt lat="43.94354" lon="7.11433">
        <ele>677.59997558594</ele>
        <time>2019-02-16T14:33:08.000Z</time>
      </trkpt>
      <trkpt lat="43.94348" lon="7.11421">
        <ele>676.20001220703</ele>
        <time>2019-02-16T14:33:10.000Z</time>
      </trkpt>
      <trkpt lat="43.94348" lon="7.11414">
        <ele>675.59997558594</ele>
        <time>2019-02-16T14:33:11.000Z</time>
      </trkpt>
      <trkpt lat="43.94348" lon="7.11406">
        <ele>675.20001220703</ele>
        <time>2019-02-16T14:33:12.000Z</time>
      </trkpt>
      <trkpt lat="43.94346" lon="7.11399">
        <ele>674.59997558594</ele>
        <time>2019-02-16T14:33:13.000Z</time>
      </trkpt>
      <trkpt lat="43.94346" lon="7.1139">
        <ele>673.79998779297</ele>
        <time>2019-02-16T14:33:14.000Z</time>
      </trkpt>
      <trkpt lat="43.94345" lon="7.11384">
        <ele>672.59997558594</ele>
        <time>2019-02-16T14:33:15.000Z</time>
      </trkpt>
      <trkpt lat="43.94343" lon="7.11376">
        <ele>671.79998779297</ele>
        <time>2019-02-16T14:33:16.000Z</time>
      </trkpt>
      <trkpt lat="43.9434" lon="7.11368">
        <ele>671</ele>
        <time>2019-02-16T14:33:17.000Z</time>
      </trkpt>
      <trkpt lat="43.94336" lon="7.1136">
        <ele>670.20001220703</ele>
        <time>2019-02-16T14:33:18.000Z</time>
      </trkpt>
      <trkpt lat="43.94333" lon="7.11352">
        <ele>669.40002441406</ele>
        <time>2019-02-16T14:33:19.000Z</time>
      </trkpt>
      <trkpt lat="43.94329" lon="7.11345">
        <ele>668.40002441406</ele>
        <time>2019-02-16T14:33:20.000Z</time>
      </trkpt>
      <trkpt lat="43.94327" lon="7.11339">
        <ele>667.20001220703</ele>
        <time>2019-02-16T14:33:21.000Z</time>
      </trkpt>
      <trkpt lat="43.94325" lon="7.11332">
        <ele>665.79998779297</ele>
        <time>2019-02-16T14:33:23.000Z</time>
      </trkpt>
      <trkpt lat="43.94324" lon="7.11333">
        <ele>665</ele>
        <time>2019-02-16T14:33:24.000Z</time>
      </trkpt>
      <trkpt lat="43.94325" lon="7.11335">
        <ele>664.59997558594</ele>
        <time>2019-02-16T14:33:25.000Z</time>
      </trkpt>
      <trkpt lat="43.94325" lon="7.11338">
        <ele>664.40002441406</ele>
        <time>2019-02-16T14:33:26.000Z</time>
      </trkpt>
      <trkpt lat="43.94328" lon="7.11353">
        <ele>663.40002441406</ele>
        <time>2019-02-16T14:33:29.000Z</time>
      </trkpt>
      <trkpt lat="43.9433" lon="7.11357">
        <ele>663.40002441406</ele>
        <time>2019-02-16T14:33:30.000Z</time>
      </trkpt>
      <trkpt lat="43.94328" lon="7.11359">
        <ele>662.20001220703</ele>
        <time>2019-02-16T14:33:33.000Z</time>
      </trkpt>
      <trkpt lat="43.94326" lon="7.11353">
        <ele>661.20001220703</ele>
        <time>2019-02-16T14:33:35.000Z</time>
      </trkpt>
      <trkpt lat="43.94321" lon="7.11344">
        <ele>660.59997558594</ele>
        <time>2019-02-16T14:33:37.000Z</time>
      </trkpt>
      <trkpt lat="43.94319" lon="7.11338">
        <ele>660.20001220703</ele>
        <time>2019-02-16T14:33:38.000Z</time>
      </trkpt>
      <trkpt lat="43.94318" lon="7.11334">
        <ele>659.79998779297</ele>
        <time>2019-02-16T14:33:39.000Z</time>
      </trkpt>
      <trkpt lat="43.94317" lon="7.11332">
        <ele>659</ele>
        <time>2019-02-16T14:33:41.000Z</time>
      </trkpt>
      <trkpt lat="43.94316" lon="7.11332">
        <ele>658.59997558594</ele>
        <time>2019-02-16T14:33:42.000Z</time>
      </trkpt>
      <trkpt lat="43.94317" lon="7.11335">
        <ele>658.20001220703</ele>
        <time>2019-02-16T14:33:43.000Z</time>
      </trkpt>
      <trkpt lat="43.94318" lon="7.11343">
        <ele>657.59997558594</ele>
        <time>2019-02-16T14:33:45.000Z</time>
      </trkpt>
      <trkpt lat="43.94321" lon="7.11354">
        <ele>657.20001220703</ele>
        <time>2019-02-16T14:33:47.000Z</time>
      </trkpt>
      <trkpt lat="43.94321" lon="7.11356">
        <ele>656.59997558594</ele>
        <time>2019-02-16T14:33:48.000Z</time>
      </trkpt>
      <trkpt lat="43.9432" lon="7.11358">
        <ele>656.20001220703</ele>
        <time>2019-02-16T14:33:49.000Z</time>
      </trkpt>
      <trkpt lat="43.94318" lon="7.11354">
        <ele>655.20001220703</ele>
        <time>2019-02-16T14:33:51.000Z</time>
      </trkpt>
      <trkpt lat="43.94312" lon="7.11343">
        <ele>654.20001220703</ele>
        <time>2019-02-16T14:33:54.000Z</time>
      </trkpt>
      <trkpt lat="43.9431" lon="7.11338">
        <ele>654</ele>
        <time>2019-02-16T14:33:55.000Z</time>
      </trkpt>
      <trkpt lat="43.94306" lon="7.11329">
        <ele>653.40002441406</ele>
        <time>2019-02-16T14:33:58.000Z</time>
      </trkpt>
      <trkpt lat="43.94306" lon="7.11328">
        <ele>652.59997558594</ele>
        <time>2019-02-16T14:33:59.000Z</time>
      </trkpt>
      <trkpt lat="43.94307" lon="7.11334">
        <ele>652</ele>
        <time>2019-02-16T14:34:01.000Z</time>
      </trkpt>
      <trkpt lat="43.94308" lon="7.11347">
        <ele>651.40002441406</ele>
        <time>2019-02-16T14:34:03.000Z</time>
      </trkpt>
      <trkpt lat="43.94308" lon="7.11352">
        <ele>651</ele>
        <time>2019-02-16T14:34:04.000Z</time>
      </trkpt>
      <trkpt lat="43.94308" lon="7.11357">
        <ele>650</ele>
        <time>2019-02-16T14:34:06.000Z</time>
      </trkpt>
      <trkpt lat="43.94305" lon="7.11353">
        <ele>649</ele>
        <time>2019-02-16T14:34:08.000Z</time>
      </trkpt>
      <trkpt lat="43.94302" lon="7.11349">
        <ele>648.20001220703</ele>
        <time>2019-02-16T14:34:09.000Z</time>
      </trkpt>
      <trkpt lat="43.94298" lon="7.11345">
        <ele>647.79998779297</ele>
        <time>2019-02-16T14:34:10.000Z</time>
      </trkpt>
      <trkpt lat="43.94292" lon="7.11334">
        <ele>646.79998779297</ele>
        <time>2019-02-16T14:34:12.000Z</time>
      </trkpt>
      <trkpt lat="43.94291" lon="7.11331">
        <ele>646</ele>
        <time>2019-02-16T14:34:13.000Z</time>
      </trkpt>
      <trkpt lat="43.9429" lon="7.11333">
        <ele>645</ele>
        <time>2019-02-16T14:34:15.000Z</time>
      </trkpt>
      <trkpt lat="43.94295" lon="7.11345">
        <ele>643.79998779297</ele>
        <time>2019-02-16T14:34:18.000Z</time>
      </trkpt>
      <trkpt lat="43.94294" lon="7.1135">
        <ele>643.20001220703</ele>
        <time>2019-02-16T14:34:20.000Z</time>
      </trkpt>
      <trkpt lat="43.94293" lon="7.11349">
        <ele>643</ele>
        <time>2019-02-16T14:34:21.000Z</time>
      </trkpt>
      <trkpt lat="43.94292" lon="7.11348">
        <ele>642.59997558594</ele>
        <time>2019-02-16T14:34:22.000Z</time>
      </trkpt>
      <trkpt lat="43.94287" lon="7.1134">
        <ele>641.40002441406</ele>
        <time>2019-02-16T14:34:24.000Z</time>
      </trkpt>
      <trkpt lat="43.94284" lon="7.11336">
        <ele>640.79998779297</ele>
        <time>2019-02-16T14:34:25.000Z</time>
      </trkpt>
      <trkpt lat="43.94283" lon="7.11333">
        <ele>640</ele>
        <time>2019-02-16T14:34:26.000Z</time>
      </trkpt>
      <trkpt lat="43.94282" lon="7.11333">
        <ele>639.40002441406</ele>
        <time>2019-02-16T14:34:27.000Z</time>
      </trkpt>
      <trkpt lat="43.94282" lon="7.11334">
        <ele>639.20001220703</ele>
        <time>2019-02-16T14:34:28.000Z</time>
      </trkpt>
      <trkpt lat="43.94283" lon="7.11338">
        <ele>638.79998779297</ele>
        <time>2019-02-16T14:34:29.000Z</time>
      </trkpt>
      <trkpt lat="43.94286" lon="7.11348">
        <ele>638</ele>
        <time>2019-02-16T14:34:31.000Z</time>
      </trkpt>
      <trkpt lat="43.94288" lon="7.11352">
        <ele>637.40002441406</ele>
        <time>2019-02-16T14:34:32.000Z</time>
      </trkpt>
      <trkpt lat="43.94288" lon="7.11356">
        <ele>636.40002441406</ele>
        <time>2019-02-16T14:34:34.000Z</time>
      </trkpt>
      <trkpt lat="43.94286" lon="7.11356">
        <ele>636.20001220703</ele>
        <time>2019-02-16T14:34:35.000Z</time>
      </trkpt>
      <trkpt lat="43.94285" lon="7.11354">
        <ele>635.59997558594</ele>
        <time>2019-02-16T14:34:37.000Z</time>
      </trkpt>
      <trkpt lat="43.94281" lon="7.11349">
        <ele>635</ele>
        <time>2019-02-16T14:34:39.000Z</time>
      </trkpt>
      <trkpt lat="43.9428" lon="7.11348">
        <ele>634.79998779297</ele>
        <time>2019-02-16T14:34:40.000Z</time>
      </trkpt>
      <trkpt lat="43.94279" lon="7.11348">
        <ele>634.59997558594</ele>
        <time>2019-02-16T14:34:41.000Z</time>
      </trkpt>
      <trkpt lat="43.94279" lon="7.11352">
        <ele>633.79998779297</ele>
        <time>2019-02-16T14:34:43.000Z</time>
      </trkpt>
      <trkpt lat="43.9428" lon="7.11361">
        <ele>632.79998779297</ele>
        <time>2019-02-16T14:34:45.000Z</time>
      </trkpt>
      <trkpt lat="43.94282" lon="7.11363">
        <ele>632.20001220703</ele>
        <time>2019-02-16T14:34:46.000Z</time>
      </trkpt>
      <trkpt lat="43.9428" lon="7.11366">
        <ele>631.40002441406</ele>
        <time>2019-02-16T14:34:48.000Z</time>
      </trkpt>
      <trkpt lat="43.94279" lon="7.11364">
        <ele>631.20001220703</ele>
        <time>2019-02-16T14:34:49.000Z</time>
      </trkpt>
      <trkpt lat="43.94276" lon="7.11358">
        <ele>630.59997558594</ele>
        <time>2019-02-16T14:34:51.000Z</time>
      </trkpt>
      <trkpt lat="43.94274" lon="7.11356">
        <ele>630.20001220703</ele>
        <time>2019-02-16T14:34:52.000Z</time>
      </trkpt>
      <trkpt lat="43.94274" lon="7.11357">
        <ele>629.20001220703</ele>
        <time>2019-02-16T14:34:54.000Z</time>
      </trkpt>
      <trkpt lat="43.94274" lon="7.11358">
        <ele>628.79998779297</ele>
        <time>2019-02-16T14:34:55.000Z</time>
      </trkpt>
      <trkpt lat="43.94275" lon="7.11359">
        <ele>628.40002441406</ele>
        <time>2019-02-16T14:34:56.000Z</time>
      </trkpt>
      <trkpt lat="43.94276" lon="7.11364">
        <ele>628</ele>
        <time>2019-02-16T14:34:58.000Z</time>
      </trkpt>
      <trkpt lat="43.94276" lon="7.11372">
        <ele>627.59997558594</ele>
        <time>2019-02-16T14:35:00.000Z</time>
      </trkpt>
      <trkpt lat="43.94276" lon="7.11374">
        <ele>627.40002441406</ele>
        <time>2019-02-16T14:35:01.000Z</time>
      </trkpt>
      <trkpt lat="43.94272" lon="7.11371">
        <ele>626.79998779297</ele>
        <time>2019-02-16T14:35:04.000Z</time>
      </trkpt>
      <trkpt lat="43.94268" lon="7.11364">
        <ele>626.20001220703</ele>
        <time>2019-02-16T14:35:06.000Z</time>
      </trkpt>
      <trkpt lat="43.94267" lon="7.11363">
        <ele>625.79998779297</ele>
        <time>2019-02-16T14:35:07.000Z</time>
      </trkpt>
      <trkpt lat="43.94267" lon="7.11364">
        <ele>625.59997558594</ele>
        <time>2019-02-16T14:35:08.000Z</time>
      </trkpt>
      <trkpt lat="43.94267" lon="7.11365">
        <ele>624.59997558594</ele>
        <time>2019-02-16T14:35:09.000Z</time>
      </trkpt>
      <trkpt lat="43.94267" lon="7.11371">
        <ele>623.59997558594</ele>
        <time>2019-02-16T14:35:11.000Z</time>
      </trkpt>
      <trkpt lat="43.94269" lon="7.11376">
        <ele>623.20001220703</ele>
        <time>2019-02-16T14:35:12.000Z</time>
      </trkpt>
      <trkpt lat="43.94273" lon="7.11384">
        <ele>622.59997558594</ele>
        <time>2019-02-16T14:35:14.000Z</time>
      </trkpt>
      <trkpt lat="43.94279" lon="7.11395">
        <ele>621.79998779297</ele>
        <time>2019-02-16T14:35:16.000Z</time>
      </trkpt>
      <trkpt lat="43.94282" lon="7.114">
        <ele>621.40002441406</ele>
        <time>2019-02-16T14:35:17.000Z</time>
      </trkpt>
      <trkpt lat="43.9428" lon="7.11409">
        <ele>620.59997558594</ele>
        <time>2019-02-16T14:35:19.000Z</time>
      </trkpt>
      <trkpt lat="43.94279" lon="7.11412">
        <ele>620.20001220703</ele>
        <time>2019-02-16T14:35:20.000Z</time>
      </trkpt>
      <trkpt lat="43.94276" lon="7.11423">
        <ele>619.59997558594</ele>
        <time>2019-02-16T14:35:22.000Z</time>
      </trkpt>
      <trkpt lat="43.94276" lon="7.11427">
        <ele>619.40002441406</ele>
        <time>2019-02-16T14:35:23.000Z</time>
      </trkpt>
      <trkpt lat="43.94275" lon="7.11431">
        <ele>618.59997558594</ele>
        <time>2019-02-16T14:35:25.000Z</time>
      </trkpt>
      <trkpt lat="43.94275" lon="7.11429">
        <ele>618.20001220703</ele>
        <time>2019-02-16T14:35:26.000Z</time>
      </trkpt>
      <trkpt lat="43.94274" lon="7.11421">
        <ele>617.20001220703</ele>
        <time>2019-02-16T14:35:28.000Z</time>
      </trkpt>
      <trkpt lat="43.94277" lon="7.1141">
        <ele>616.59997558594</ele>
        <time>2019-02-16T14:35:30.000Z</time>
      </trkpt>
      <trkpt lat="43.94277" lon="7.11403">
        <ele>616.40002441406</ele>
        <time>2019-02-16T14:35:31.000Z</time>
      </trkpt>
      <trkpt lat="43.94274" lon="7.114">
        <ele>616.20001220703</ele>
        <time>2019-02-16T14:35:32.000Z</time>
      </trkpt>
      <trkpt lat="43.94271" lon="7.11396">
        <ele>615.79998779297</ele>
        <time>2019-02-16T14:35:33.000Z</time>
      </trkpt>
      <trkpt lat="43.94262" lon="7.1139">
        <ele>615.20001220703</ele>
        <time>2019-02-16T14:35:35.000Z</time>
      </trkpt>
      <trkpt lat="43.94255" lon="7.11385">
        <ele>614.40002441406</ele>
        <time>2019-02-16T14:35:37.000Z</time>
      </trkpt>
      <trkpt lat="43.94253" lon="7.11382">
        <ele>613.79998779297</ele>
        <time>2019-02-16T14:35:38.000Z</time>
      </trkpt>
      <trkpt lat="43.94246" lon="7.11372">
        <ele>612.79998779297</ele>
        <time>2019-02-16T14:35:41.000Z</time>
      </trkpt>
      <trkpt lat="43.94247" lon="7.11365">
        <ele>611.79998779297</ele>
        <time>2019-02-16T14:35:44.000Z</time>
      </trkpt>
      <trkpt lat="43.94249" lon="7.11363">
        <ele>611.59997558594</ele>
        <time>2019-02-16T14:35:45.000Z</time>
      </trkpt>
      <trkpt lat="43.9425" lon="7.11359">
        <ele>611.20001220703</ele>
        <time>2019-02-16T14:35:46.000Z</time>
      </trkpt>
      <trkpt lat="43.94248" lon="7.1135">
        <ele>611</ele>
        <time>2019-02-16T14:35:48.000Z</time>
      </trkpt>
      <trkpt lat="43.94243" lon="7.11338">
        <ele>610.79998779297</ele>
        <time>2019-02-16T14:35:51.000Z</time>
      </trkpt>
      <trkpt lat="43.94241" lon="7.11334">
        <ele>610.59997558594</ele>
        <time>2019-02-16T14:35:52.000Z</time>
      </trkpt>
      <trkpt lat="43.94235" lon="7.11328">
        <ele>610.40002441406</ele>
        <time>2019-02-16T14:35:54.000Z</time>
      </trkpt>
      <trkpt lat="43.94226" lon="7.11312">
        <ele>610.20001220703</ele>
        <time>2019-02-16T14:35:58.000Z</time>
      </trkpt>
      <trkpt lat="43.94222" lon="7.11311">
        <ele>610</ele>
        <time>2019-02-16T14:35:59.000Z</time>
      </trkpt>
      <trkpt lat="43.94214" lon="7.11309">
        <ele>609.59997558594</ele>
        <time>2019-02-16T14:36:01.000Z</time>
      </trkpt>
      <trkpt lat="43.94195" lon="7.11293">
        <ele>608.59997558594</ele>
        <time>2019-02-16T14:36:06.000Z</time>
      </trkpt>
      <trkpt lat="43.94187" lon="7.11282">
        <ele>607.40002441406</ele>
        <time>2019-02-16T14:36:10.000Z</time>
      </trkpt>
      <trkpt lat="43.94184" lon="7.11279">
        <ele>605.79998779297</ele>
        <time>2019-02-16T14:36:12.000Z</time>
      </trkpt>
      <trkpt lat="43.94182" lon="7.11278">
        <ele>604.59997558594</ele>
        <time>2019-02-16T14:36:13.000Z</time>
      </trkpt>
      <trkpt lat="43.9418" lon="7.11274">
        <ele>603.40002441406</ele>
        <time>2019-02-16T14:36:15.000Z</time>
      </trkpt>
      <trkpt lat="43.94178" lon="7.11273">
        <ele>602.59997558594</ele>
        <time>2019-02-16T14:36:16.000Z</time>
      </trkpt>
      <trkpt lat="43.94177" lon="7.11274">
        <ele>601.79998779297</ele>
        <time>2019-02-16T14:36:17.000Z</time>
      </trkpt>
      <trkpt lat="43.94175" lon="7.11281">
        <ele>600.40002441406</ele>
        <time>2019-02-16T14:36:19.000Z</time>
      </trkpt>
      <trkpt lat="43.94174" lon="7.11285">
        <ele>599.79998779297</ele>
        <time>2019-02-16T14:36:20.000Z</time>
      </trkpt>
      <trkpt lat="43.94173" lon="7.11287">
        <ele>599.20001220703</ele>
        <time>2019-02-16T14:36:21.000Z</time>
      </trkpt>
      <trkpt lat="43.94171" lon="7.11281">
        <ele>598.79998779297</ele>
        <time>2019-02-16T14:36:23.000Z</time>
      </trkpt>
      <trkpt lat="43.94171" lon="7.11276">
        <ele>598.40002441406</ele>
        <time>2019-02-16T14:36:24.000Z</time>
      </trkpt>
      <trkpt lat="43.9417" lon="7.1127">
        <ele>598.20001220703</ele>
        <time>2019-02-16T14:36:25.000Z</time>
      </trkpt>
      <trkpt lat="43.94169" lon="7.11261">
        <ele>597.79998779297</ele>
        <time>2019-02-16T14:36:26.000Z</time>
      </trkpt>
      <trkpt lat="43.94169" lon="7.11251">
        <ele>596.79998779297</ele>
        <time>2019-02-16T14:36:28.000Z</time>
      </trkpt>
      <trkpt lat="43.94168" lon="7.11251">
        <ele>596.40002441406</ele>
        <time>2019-02-16T14:36:29.000Z</time>
      </trkpt>
      <trkpt lat="43.94166" lon="7.11252">
        <ele>595.59997558594</ele>
        <time>2019-02-16T14:36:30.000Z</time>
      </trkpt>
      <trkpt lat="43.94162" lon="7.11262">
        <ele>594.40002441406</ele>
        <time>2019-02-16T14:36:32.000Z</time>
      </trkpt>
      <trkpt lat="43.94157" lon="7.11275">
        <ele>593.20001220703</ele>
        <time>2019-02-16T14:36:34.000Z</time>
      </trkpt>
      <trkpt lat="43.94153" lon="7.11288">
        <ele>592</ele>
        <time>2019-02-16T14:36:36.000Z</time>
      </trkpt>
      <trkpt lat="43.94152" lon="7.11289">
        <ele>591</ele>
        <time>2019-02-16T14:36:37.000Z</time>
      </trkpt>
      <trkpt lat="43.9415" lon="7.11287">
        <ele>590.79998779297</ele>
        <time>2019-02-16T14:36:38.000Z</time>
      </trkpt>
      <trkpt lat="43.94149" lon="7.11276">
        <ele>589.79998779297</ele>
        <time>2019-02-16T14:36:41.000Z</time>
      </trkpt>
      <trkpt lat="43.94149" lon="7.11261">
        <ele>589.59997558594</ele>
        <time>2019-02-16T14:36:43.000Z</time>
      </trkpt>
      <trkpt lat="43.9415" lon="7.11244">
        <ele>588.40002441406</ele>
        <time>2019-02-16T14:36:45.000Z</time>
      </trkpt>
      <trkpt lat="43.94151" lon="7.11224">
        <ele>587.20001220703</ele>
        <time>2019-02-16T14:36:47.000Z</time>
      </trkpt>
      <trkpt lat="43.94152" lon="7.11206">
        <ele>585.79998779297</ele>
        <time>2019-02-16T14:36:49.000Z</time>
      </trkpt>
      <trkpt lat="43.94152" lon="7.112">
        <ele>584.79998779297</ele>
        <time>2019-02-16T14:36:50.000Z</time>
      </trkpt>
      <trkpt lat="43.94153" lon="7.11196">
        <ele>584.20001220703</ele>
        <time>2019-02-16T14:36:51.000Z</time>
      </trkpt>
      <trkpt lat="43.94152" lon="7.11196">
        <ele>583.20001220703</ele>
        <time>2019-02-16T14:36:53.000Z</time>
      </trkpt>
      <trkpt lat="43.94151" lon="7.11198">
        <ele>582.40002441406</ele>
        <time>2019-02-16T14:36:54.000Z</time>
      </trkpt>
      <trkpt lat="43.94147" lon="7.11207">
        <ele>581.59997558594</ele>
        <time>2019-02-16T14:36:56.000Z</time>
      </trkpt>
      <trkpt lat="43.9414" lon="7.11214">
        <ele>580.79998779297</ele>
        <time>2019-02-16T14:36:59.000Z</time>
      </trkpt>
      <trkpt lat="43.9414" lon="7.11211">
        <ele>580.59997558594</ele>
        <time>2019-02-16T14:37:00.000Z</time>
      </trkpt>
      <trkpt lat="43.9414" lon="7.11199">
        <ele>580</ele>
        <time>2019-02-16T14:37:02.000Z</time>
      </trkpt>
      <trkpt lat="43.94141" lon="7.11193">
        <ele>579.40002441406</ele>
        <time>2019-02-16T14:37:03.000Z</time>
      </trkpt>
      <trkpt lat="43.94141" lon="7.11188">
        <ele>578.20001220703</ele>
        <time>2019-02-16T14:37:05.000Z</time>
      </trkpt>
      <trkpt lat="43.94139" lon="7.11191">
        <ele>577</ele>
        <time>2019-02-16T14:37:07.000Z</time>
      </trkpt>
      <trkpt lat="43.94137" lon="7.11194">
        <ele>576.40002441406</ele>
        <time>2019-02-16T14:37:08.000Z</time>
      </trkpt>
      <trkpt lat="43.94135" lon="7.11198">
        <ele>575.79998779297</ele>
        <time>2019-02-16T14:37:09.000Z</time>
      </trkpt>
      <trkpt lat="43.94132" lon="7.11205">
        <ele>575.20001220703</ele>
        <time>2019-02-16T14:37:11.000Z</time>
      </trkpt>
      <trkpt lat="43.9413" lon="7.11204">
        <ele>574.40002441406</ele>
        <time>2019-02-16T14:37:12.000Z</time>
      </trkpt>
      <trkpt lat="43.94129" lon="7.11201">
        <ele>574.20001220703</ele>
        <time>2019-02-16T14:37:13.000Z</time>
      </trkpt>
      <trkpt lat="43.9413" lon="7.11185">
        <ele>573.20001220703</ele>
        <time>2019-02-16T14:37:16.000Z</time>
      </trkpt>
      <trkpt lat="43.94129" lon="7.11176">
        <ele>572.79998779297</ele>
        <time>2019-02-16T14:37:19.000Z</time>
      </trkpt>
      <trkpt lat="43.94128" lon="7.11177">
        <ele>572.40002441406</ele>
        <time>2019-02-16T14:37:20.000Z</time>
      </trkpt>
      <trkpt lat="43.94127" lon="7.11179">
        <ele>571.79998779297</ele>
        <time>2019-02-16T14:37:21.000Z</time>
      </trkpt>
      <trkpt lat="43.94123" lon="7.11183">
        <ele>570.40002441406</ele>
        <time>2019-02-16T14:37:23.000Z</time>
      </trkpt>
      <trkpt lat="43.9412" lon="7.11191">
        <ele>569</ele>
        <time>2019-02-16T14:37:25.000Z</time>
      </trkpt>
      <trkpt lat="43.94118" lon="7.11193">
        <ele>568.79998779297</ele>
        <time>2019-02-16T14:37:26.000Z</time>
      </trkpt>
      <trkpt lat="43.94116" lon="7.11189">
        <ele>567.79998779297</ele>
        <time>2019-02-16T14:37:28.000Z</time>
      </trkpt>
      <trkpt lat="43.94116" lon="7.11186">
        <ele>567.40002441406</ele>
        <time>2019-02-16T14:37:29.000Z</time>
      </trkpt>
      <trkpt lat="43.94116" lon="7.11181">
        <ele>567.20001220703</ele>
        <time>2019-02-16T14:37:30.000Z</time>
      </trkpt>
      <trkpt lat="43.94116" lon="7.11169">
        <ele>566.79998779297</ele>
        <time>2019-02-16T14:37:32.000Z</time>
      </trkpt>
      <trkpt lat="43.94114" lon="7.11168">
        <ele>565.79998779297</ele>
        <time>2019-02-16T14:37:35.000Z</time>
      </trkpt>
      <trkpt lat="43.94112" lon="7.11172">
        <ele>565.40002441406</ele>
        <time>2019-02-16T14:37:36.000Z</time>
      </trkpt>
      <trkpt lat="43.94106" lon="7.1118">
        <ele>564.40002441406</ele>
        <time>2019-02-16T14:37:39.000Z</time>
      </trkpt>
      <trkpt lat="43.94105" lon="7.11173">
        <ele>563.40002441406</ele>
        <time>2019-02-16T14:37:41.000Z</time>
      </trkpt>
      <trkpt lat="43.94105" lon="7.11168">
        <ele>562.59997558594</ele>
        <time>2019-02-16T14:37:42.000Z</time>
      </trkpt>
      <trkpt lat="43.94105" lon="7.11161">
        <ele>561.79998779297</ele>
        <time>2019-02-16T14:37:43.000Z</time>
      </trkpt>
      <trkpt lat="43.94104" lon="7.11146">
        <ele>560.59997558594</ele>
        <time>2019-02-16T14:37:45.000Z</time>
      </trkpt>
      <trkpt lat="43.94104" lon="7.11137">
        <ele>559.79998779297</ele>
        <time>2019-02-16T14:37:46.000Z</time>
      </trkpt>
      <trkpt lat="43.94104" lon="7.11128">
        <ele>559.20001220703</ele>
        <time>2019-02-16T14:37:47.000Z</time>
      </trkpt>
      <trkpt lat="43.94104" lon="7.11121">
        <ele>558.79998779297</ele>
        <time>2019-02-16T14:37:48.000Z</time>
      </trkpt>
      <trkpt lat="43.94103" lon="7.1112">
        <ele>558.20001220703</ele>
        <time>2019-02-16T14:37:50.000Z</time>
      </trkpt>
      <trkpt lat="43.94097" lon="7.11133">
        <ele>556.79998779297</ele>
        <time>2019-02-16T14:37:53.000Z</time>
      </trkpt>
      <trkpt lat="43.94089" lon="7.11154">
        <ele>555.40002441406</ele>
        <time>2019-02-16T14:37:56.000Z</time>
      </trkpt>
      <trkpt lat="43.94086" lon="7.11161">
        <ele>554.79998779297</ele>
        <time>2019-02-16T14:37:57.000Z</time>
      </trkpt>
      <trkpt lat="43.94084" lon="7.11166">
        <ele>554</ele>
        <time>2019-02-16T14:37:58.000Z</time>
      </trkpt>
      <trkpt lat="43.94082" lon="7.11168">
        <ele>553.40002441406</ele>
        <time>2019-02-16T14:37:59.000Z</time>
      </trkpt>
      <trkpt lat="43.94081" lon="7.11166">
        <ele>552.40002441406</ele>
        <time>2019-02-16T14:38:00.000Z</time>
      </trkpt>
      <trkpt lat="43.94079" lon="7.11151">
        <ele>550.79998779297</ele>
        <time>2019-02-16T14:38:03.000Z</time>
      </trkpt>
      <trkpt lat="43.94079" lon="7.11148">
        <ele>550.20001220703</ele>
        <time>2019-02-16T14:38:04.000Z</time>
      </trkpt>
      <trkpt lat="43.94078" lon="7.11143">
        <ele>549.40002441406</ele>
        <time>2019-02-16T14:38:05.000Z</time>
      </trkpt>
      <trkpt lat="43.94077" lon="7.11132">
        <ele>548</ele>
        <time>2019-02-16T14:38:07.000Z</time>
      </trkpt>
      <trkpt lat="43.94076" lon="7.11126">
        <ele>547.59997558594</ele>
        <time>2019-02-16T14:38:08.000Z</time>
      </trkpt>
      <trkpt lat="43.94074" lon="7.11111">
        <ele>547</ele>
        <time>2019-02-16T14:38:10.000Z</time>
      </trkpt>
      <trkpt lat="43.94071" lon="7.11093">
        <ele>546</ele>
        <time>2019-02-16T14:38:12.000Z</time>
      </trkpt>
      <trkpt lat="43.94071" lon="7.11086">
        <ele>545.59997558594</ele>
        <time>2019-02-16T14:38:13.000Z</time>
      </trkpt>
      <trkpt lat="43.94068" lon="7.11084">
        <ele>544.59997558594</ele>
        <time>2019-02-16T14:38:15.000Z</time>
      </trkpt>
      <trkpt lat="43.94066" lon="7.11087">
        <ele>543.79998779297</ele>
        <time>2019-02-16T14:38:16.000Z</time>
      </trkpt>
      <trkpt lat="43.94061" lon="7.11099">
        <ele>542.79998779297</ele>
        <time>2019-02-16T14:38:18.000Z</time>
      </trkpt>
      <trkpt lat="43.94054" lon="7.11115">
        <ele>541.40002441406</ele>
        <time>2019-02-16T14:38:21.000Z</time>
      </trkpt>
      <trkpt lat="43.94052" lon="7.11113">
        <ele>540.59997558594</ele>
        <time>2019-02-16T14:38:22.000Z</time>
      </trkpt>
      <trkpt lat="43.94051" lon="7.1111">
        <ele>540.40002441406</ele>
        <time>2019-02-16T14:38:23.000Z</time>
      </trkpt>
      <trkpt lat="43.94049" lon="7.11097">
        <ele>539</ele>
        <time>2019-02-16T14:38:25.000Z</time>
      </trkpt>
      <trkpt lat="43.94047" lon="7.11082">
        <ele>537.79998779297</ele>
        <time>2019-02-16T14:38:27.000Z</time>
      </trkpt>
      <trkpt lat="43.94044" lon="7.11066">
        <ele>536.79998779297</ele>
        <time>2019-02-16T14:38:29.000Z</time>
      </trkpt>
      <trkpt lat="43.94044" lon="7.1106">
        <ele>536.40002441406</ele>
        <time>2019-02-16T14:38:30.000Z</time>
      </trkpt>
      <trkpt lat="43.94043" lon="7.11057">
        <ele>535.59997558594</ele>
        <time>2019-02-16T14:38:31.000Z</time>
      </trkpt>
      <trkpt lat="43.94041" lon="7.11056">
        <ele>535.20001220703</ele>
        <time>2019-02-16T14:38:32.000Z</time>
      </trkpt>
      <trkpt lat="43.94039" lon="7.11058">
        <ele>534.59997558594</ele>
        <time>2019-02-16T14:38:33.000Z</time>
      </trkpt>
      <trkpt lat="43.94036" lon="7.11066">
        <ele>533.20001220703</ele>
        <time>2019-02-16T14:38:35.000Z</time>
      </trkpt>
      <trkpt lat="43.94033" lon="7.11072">
        <ele>532.59997558594</ele>
        <time>2019-02-16T14:38:36.000Z</time>
      </trkpt>
      <trkpt lat="43.94031" lon="7.11077">
        <ele>532.20001220703</ele>
        <time>2019-02-16T14:38:37.000Z</time>
      </trkpt>
      <trkpt lat="43.94027" lon="7.11083">
        <ele>531.20001220703</ele>
        <time>2019-02-16T14:38:39.000Z</time>
      </trkpt>
      <trkpt lat="43.94025" lon="7.1108">
        <ele>530.79998779297</ele>
        <time>2019-02-16T14:38:40.000Z</time>
      </trkpt>
      <trkpt lat="43.94021" lon="7.11061">
        <ele>529.59997558594</ele>
        <time>2019-02-16T14:38:43.000Z</time>
      </trkpt>
      <trkpt lat="43.94014" lon="7.11036">
        <ele>528.40002441406</ele>
        <time>2019-02-16T14:38:46.000Z</time>
      </trkpt>
      <trkpt lat="43.94008" lon="7.11016">
        <ele>527</ele>
        <time>2019-02-16T14:38:48.000Z</time>
      </trkpt>
      <trkpt lat="43.94006" lon="7.11008">
        <ele>525.59997558594</ele>
        <time>2019-02-16T14:38:49.000Z</time>
      </trkpt>
      <trkpt lat="43.94003" lon="7.10999">
        <ele>524.59997558594</ele>
        <time>2019-02-16T14:38:51.000Z</time>
      </trkpt>
      <trkpt lat="43.94004" lon="7.11">
        <ele>522.79998779297</ele>
        <time>2019-02-16T14:38:53.000Z</time>
      </trkpt>
      <trkpt lat="43.94003" lon="7.11">
        <ele>522.40002441406</ele>
        <time>2019-02-16T14:38:54.000Z</time>
      </trkpt>
      <trkpt lat="43.94003" lon="7.11001">
        <ele>521.79998779297</ele>
        <time>2019-02-16T14:38:55.000Z</time>
      </trkpt>
      <trkpt lat="43.94" lon="7.11007">
        <ele>521.59997558594</ele>
        <time>2019-02-16T14:38:58.000Z</time>
      </trkpt>
      <trkpt lat="43.93997" lon="7.11017">
        <ele>521.59997558594</ele>
        <time>2019-02-16T14:39:00.000Z</time>
      </trkpt>
      <trkpt lat="43.93994" lon="7.11025">
        <ele>521.59997558594</ele>
        <time>2019-02-16T14:39:01.000Z</time>
      </trkpt>
      <trkpt lat="43.93992" lon="7.1103">
        <ele>521.20001220703</ele>
        <time>2019-02-16T14:39:02.000Z</time>
      </trkpt>
      <trkpt lat="43.93989" lon="7.1104">
        <ele>520.40002441406</ele>
        <time>2019-02-16T14:39:04.000Z</time>
      </trkpt>
      <trkpt lat="43.93987" lon="7.11042">
        <ele>520</ele>
        <time>2019-02-16T14:39:05.000Z</time>
      </trkpt>
      <trkpt lat="43.93983" lon="7.11038">
        <ele>519.40002441406</ele>
        <time>2019-02-16T14:39:07.000Z</time>
      </trkpt>
      <trkpt lat="43.9398" lon="7.11034">
        <ele>519</ele>
        <time>2019-02-16T14:39:08.000Z</time>
      </trkpt>
      <trkpt lat="43.93978" lon="7.11031">
        <ele>518.59997558594</ele>
        <time>2019-02-16T14:39:09.000Z</time>
      </trkpt>
      <trkpt lat="43.93975" lon="7.11027">
        <ele>517.79998779297</ele>
        <time>2019-02-16T14:39:11.000Z</time>
      </trkpt>
      <trkpt lat="43.93971" lon="7.11024">
        <ele>517</ele>
        <time>2019-02-16T14:39:13.000Z</time>
      </trkpt>
      <trkpt lat="43.9397" lon="7.11026">
        <ele>516.79998779297</ele>
        <time>2019-02-16T14:39:14.000Z</time>
      </trkpt>
      <trkpt lat="43.93969" lon="7.11029">
        <ele>516.20001220703</ele>
        <time>2019-02-16T14:39:15.000Z</time>
      </trkpt>
      <trkpt lat="43.93968" lon="7.11033">
        <ele>515.59997558594</ele>
        <time>2019-02-16T14:39:16.000Z</time>
      </trkpt>
      <trkpt lat="43.93963" lon="7.1104">
        <ele>514.59997558594</ele>
        <time>2019-02-16T14:39:18.000Z</time>
      </trkpt>
      <trkpt lat="43.93961" lon="7.11041">
        <ele>514.20001220703</ele>
        <time>2019-02-16T14:39:19.000Z</time>
      </trkpt>
      <trkpt lat="43.93958" lon="7.11036">
        <ele>513.59997558594</ele>
        <time>2019-02-16T14:39:21.000Z</time>
      </trkpt>
      <trkpt lat="43.93957" lon="7.11031">
        <ele>513.20001220703</ele>
        <time>2019-02-16T14:39:22.000Z</time>
      </trkpt>
      <trkpt lat="43.93953" lon="7.11021">
        <ele>512.40002441406</ele>
        <time>2019-02-16T14:39:24.000Z</time>
      </trkpt>
      <trkpt lat="43.93951" lon="7.11018">
        <ele>511.79998779297</ele>
        <time>2019-02-16T14:39:26.000Z</time>
      </trkpt>
      <trkpt lat="43.93948" lon="7.11021">
        <ele>511.20001220703</ele>
        <time>2019-02-16T14:39:28.000Z</time>
      </trkpt>
      <trkpt lat="43.93946" lon="7.11025">
        <ele>510.39999389648</ele>
        <time>2019-02-16T14:39:29.000Z</time>
      </trkpt>
      <trkpt lat="43.93943" lon="7.1103">
        <ele>509.79998779297</ele>
        <time>2019-02-16T14:39:30.000Z</time>
      </trkpt>
      <trkpt lat="43.93936" lon="7.1104">
        <ele>509</ele>
        <time>2019-02-16T14:39:32.000Z</time>
      </trkpt>
      <trkpt lat="43.93933" lon="7.11045">
        <ele>508.60000610352</ele>
        <time>2019-02-16T14:39:33.000Z</time>
      </trkpt>
      <trkpt lat="43.93935" lon="7.11051">
        <ele>507</ele>
        <time>2019-02-16T14:39:35.000Z</time>
      </trkpt>
      <trkpt lat="43.93939" lon="7.11059">
        <ele>505.20001220703</ele>
        <time>2019-02-16T14:39:37.000Z</time>
      </trkpt>
      <trkpt lat="43.93938" lon="7.11062">
        <ele>504.60000610352</ele>
        <time>2019-02-16T14:39:38.000Z</time>
      </trkpt>
      <trkpt lat="43.9394" lon="7.11065">
        <ele>504.20001220703</ele>
        <time>2019-02-16T14:39:40.000Z</time>
      </trkpt>
      <trkpt lat="43.93941" lon="7.11069">
        <ele>503.79998779297</ele>
        <time>2019-02-16T14:39:42.000Z</time>
      </trkpt>
      <trkpt lat="43.93933" lon="7.1107">
        <ele>503.20001220703</ele>
        <time>2019-02-16T14:39:46.000Z</time>
      </trkpt>
      <trkpt lat="43.93931" lon="7.1107">
        <ele>502.79998779297</ele>
        <time>2019-02-16T14:39:47.000Z</time>
      </trkpt>
      <trkpt lat="43.93931" lon="7.11072">
        <ele>501.79998779297</ele>
        <time>2019-02-16T14:39:50.000Z</time>
      </trkpt>
      <trkpt lat="43.93937" lon="7.11076">
        <ele>501</ele>
        <time>2019-02-16T14:39:53.000Z</time>
      </trkpt>
      <trkpt lat="43.93937" lon="7.11078">
        <ele>500.79998779297</ele>
        <time>2019-02-16T14:39:54.000Z</time>
      </trkpt>
      <trkpt lat="43.93935" lon="7.11078">
        <ele>500.60000610352</ele>
        <time>2019-02-16T14:39:55.000Z</time>
      </trkpt>
      <trkpt lat="43.93929" lon="7.11079">
        <ele>500</ele>
        <time>2019-02-16T14:39:57.000Z</time>
      </trkpt>
      <trkpt lat="43.93927" lon="7.11079">
        <ele>499.60000610352</ele>
        <time>2019-02-16T14:39:58.000Z</time>
      </trkpt>
      <trkpt lat="43.93926" lon="7.1108">
        <ele>499.20001220703</ele>
        <time>2019-02-16T14:39:59.000Z</time>
      </trkpt>
      <trkpt lat="43.93926" lon="7.11081">
        <ele>499</ele>
        <time>2019-02-16T14:40:00.000Z</time>
      </trkpt>
      <trkpt lat="43.93927" lon="7.11083">
        <ele>498.39999389648</ele>
        <time>2019-02-16T14:40:02.000Z</time>
      </trkpt>
      <trkpt lat="43.93934" lon="7.11084">
        <ele>498</ele>
        <time>2019-02-16T14:40:04.000Z</time>
      </trkpt>
      <trkpt lat="43.93933" lon="7.11088">
        <ele>497.39999389648</ele>
        <time>2019-02-16T14:40:06.000Z</time>
      </trkpt>
      <trkpt lat="43.93925" lon="7.11088">
        <ele>496.60000610352</ele>
        <time>2019-02-16T14:40:10.000Z</time>
      </trkpt>
      <trkpt lat="43.93922" lon="7.11088">
        <ele>496.20001220703</ele>
        <time>2019-02-16T14:40:11.000Z</time>
      </trkpt>
      <trkpt lat="43.93922" lon="7.11088">
        <ele>495.79998779297</ele>
        <time>2019-02-16T14:40:13.000Z</time>
      </trkpt>
      <trkpt lat="43.93924" lon="7.11091">
        <ele>494.79998779297</ele>
        <time>2019-02-16T14:40:17.000Z</time>
      </trkpt>
      <trkpt lat="43.93927" lon="7.11091">
        <ele>494.79998779297</ele>
        <time>2019-02-16T14:40:18.000Z</time>
      </trkpt>
      <trkpt lat="43.9393" lon="7.11097">
        <ele>494.20001220703</ele>
        <time>2019-02-16T14:40:21.000Z</time>
      </trkpt>
      <trkpt lat="43.93922" lon="7.11099">
        <ele>493.39999389648</ele>
        <time>2019-02-16T14:40:24.000Z</time>
      </trkpt>
      <trkpt lat="43.93922" lon="7.11106">
        <ele>492.39999389648</ele>
        <time>2019-02-16T14:40:26.000Z</time>
      </trkpt>
      <trkpt lat="43.93924" lon="7.11106">
        <ele>491.79998779297</ele>
        <time>2019-02-16T14:40:27.000Z</time>
      </trkpt>
      <trkpt lat="43.93925" lon="7.11106">
        <ele>491.20001220703</ele>
        <time>2019-02-16T14:40:29.000Z</time>
      </trkpt>
      <trkpt lat="43.93925" lon="7.11104">
        <ele>491.20001220703</ele>
        <time>2019-02-16T14:40:30.000Z</time>
      </trkpt>
      <trkpt lat="43.93925" lon="7.11104">
        <ele>491.20001220703</ele>
        <time>2019-02-16T14:40:40.000Z</time>
      </trkpt>
      <trkpt lat="43.93922" lon="7.111">
        <ele>491.20001220703</ele>
        <time>2019-02-16T14:40:52.000Z</time>
      </trkpt>
      <trkpt lat="43.9392" lon="7.11099">
        <ele>491.20001220703</ele>
        <time>2019-02-16T14:40:53.000Z</time>
      </trkpt>
      <trkpt lat="43.93916" lon="7.11096">
        <ele>491.20001220703</ele>
        <time>2019-02-16T14:40:56.000Z</time>
      </trkpt>
      <trkpt lat="43.93914" lon="7.11091">
        <ele>491.39999389648</ele>
        <time>2019-02-16T14:40:58.000Z</time>
      </trkpt>
      <trkpt lat="43.93912" lon="7.11087">
        <ele>491.60000610352</ele>
        <time>2019-02-16T14:41:00.000Z</time>
      </trkpt>
      <trkpt lat="43.93907" lon="7.1107">
        <ele>492</ele>
        <time>2019-02-16T14:41:06.000Z</time>
      </trkpt>
      <trkpt lat="43.93905" lon="7.11059">
        <ele>492.20001220703</ele>
        <time>2019-02-16T14:41:10.000Z</time>
      </trkpt>
      <trkpt lat="43.93903" lon="7.11045">
        <ele>492.20001220703</ele>
        <time>2019-02-16T14:41:15.000Z</time>
      </trkpt>
      <trkpt lat="43.93902" lon="7.11042">
        <ele>492.20001220703</ele>
        <time>2019-02-16T14:41:16.000Z</time>
      </trkpt>
      <trkpt lat="43.93901" lon="7.1103">
        <ele>492</ele>
        <time>2019-02-16T14:41:19.000Z</time>
      </trkpt>
      <trkpt lat="43.939" lon="7.11007">
        <ele>491.60000610352</ele>
        <time>2019-02-16T14:41:25.000Z</time>
      </trkpt>
      <trkpt lat="43.93905" lon="7.10994">
        <ele>491.20001220703</ele>
        <time>2019-02-16T14:41:28.000Z</time>
      </trkpt>
      <trkpt lat="43.93907" lon="7.1099">
        <ele>491</ele>
        <time>2019-02-16T14:41:29.000Z</time>
      </trkpt>
      <trkpt lat="43.93919" lon="7.10977">
        <ele>490</ele>
        <time>2019-02-16T14:41:33.000Z</time>
      </trkpt>
      <trkpt lat="43.93922" lon="7.10973">
        <ele>489.79998779297</ele>
        <time>2019-02-16T14:41:34.000Z</time>
      </trkpt>
      <trkpt lat="43.9393" lon="7.10963">
        <ele>489</ele>
        <time>2019-02-16T14:41:37.000Z</time>
      </trkpt>
      <trkpt lat="43.93934" lon="7.10955">
        <ele>488.60000610352</ele>
        <time>2019-02-16T14:41:39.000Z</time>
      </trkpt>
      <trkpt lat="43.93942" lon="7.10938">
        <ele>488.20001220703</ele>
        <time>2019-02-16T14:41:42.000Z</time>
      </trkpt>
      <trkpt lat="43.93946" lon="7.10933">
        <ele>488</ele>
        <time>2019-02-16T14:41:43.000Z</time>
      </trkpt>
      <trkpt lat="43.93969" lon="7.10915">
        <ele>487.20001220703</ele>
        <time>2019-02-16T14:41:48.000Z</time>
      </trkpt>
      <trkpt lat="43.93976" lon="7.10914">
        <ele>486.79998779297</ele>
        <time>2019-02-16T14:41:49.000Z</time>
      </trkpt>
      <trkpt lat="43.93996" lon="7.10912">
        <ele>485.79998779297</ele>
        <time>2019-02-16T14:41:52.000Z</time>
      </trkpt>
      <trkpt lat="43.94016" lon="7.10915">
        <ele>484.79998779297</ele>
        <time>2019-02-16T14:41:55.000Z</time>
      </trkpt>
      <trkpt lat="43.94022" lon="7.1092">
        <ele>484.39999389648</ele>
        <time>2019-02-16T14:41:56.000Z</time>
      </trkpt>
      <trkpt lat="43.94033" lon="7.10924">
        <ele>483.60000610352</ele>
        <time>2019-02-16T14:41:58.000Z</time>
      </trkpt>
      <trkpt lat="43.9404" lon="7.10921">
        <ele>483</ele>
        <time>2019-02-16T14:41:59.000Z</time>
      </trkpt>
      <trkpt lat="43.94044" lon="7.10916">
        <ele>482.60000610352</ele>
        <time>2019-02-16T14:42:00.000Z</time>
      </trkpt>
      <trkpt lat="43.94052" lon="7.10904">
        <ele>482</ele>
        <time>2019-02-16T14:42:02.000Z</time>
      </trkpt>
      <trkpt lat="43.94056" lon="7.10899">
        <ele>482</ele>
        <time>2019-02-16T14:42:03.000Z</time>
      </trkpt>
      <trkpt lat="43.9406" lon="7.10895">
        <ele>482</ele>
        <time>2019-02-16T14:42:04.000Z</time>
      </trkpt>
      <trkpt lat="43.94063" lon="7.10891">
        <ele>482</ele>
        <time>2019-02-16T14:42:05.000Z</time>
      </trkpt>
      <trkpt lat="43.9407" lon="7.10876">
        <ele>482.20001220703</ele>
        <time>2019-02-16T14:42:08.000Z</time>
      </trkpt>
      <trkpt lat="43.94069" lon="7.10851">
        <ele>482.79998779297</ele>
        <time>2019-02-16T14:42:13.000Z</time>
      </trkpt>
      <trkpt lat="43.94068" lon="7.10843">
        <ele>483.20001220703</ele>
        <time>2019-02-16T14:42:15.000Z</time>
      </trkpt>
      <trkpt lat="43.94064" lon="7.10821">
        <ele>483.60000610352</ele>
        <time>2019-02-16T14:42:20.000Z</time>
      </trkpt>
      <trkpt lat="43.94066" lon="7.10802">
        <ele>484.20001220703</ele>
        <time>2019-02-16T14:42:25.000Z</time>
      </trkpt>
      <trkpt lat="43.94067" lon="7.10794">
        <ele>484.60000610352</ele>
        <time>2019-02-16T14:42:27.000Z</time>
      </trkpt>
      <trkpt lat="43.9407" lon="7.1078">
        <ele>485.20001220703</ele>
        <time>2019-02-16T14:42:31.000Z</time>
      </trkpt>
      <trkpt lat="43.94073" lon="7.10766">
        <ele>486</ele>
        <time>2019-02-16T14:42:35.000Z</time>
      </trkpt>
      <trkpt lat="43.94076" lon="7.10755">
        <ele>486.39999389648</ele>
        <time>2019-02-16T14:42:38.000Z</time>
      </trkpt>
      <trkpt lat="43.94083" lon="7.10732">
        <ele>486.60000610352</ele>
        <time>2019-02-16T14:42:44.000Z</time>
      </trkpt>
      <trkpt lat="43.94085" lon="7.10713">
        <ele>486.60000610352</ele>
        <time>2019-02-16T14:42:50.000Z</time>
      </trkpt>
      <trkpt lat="43.94083" lon="7.10697">
        <ele>486.39999389648</ele>
        <time>2019-02-16T14:42:55.000Z</time>
      </trkpt>
      <trkpt lat="43.94076" lon="7.10684">
        <ele>487.20001220703</ele>
        <time>2019-02-16T14:43:01.000Z</time>
      </trkpt>
      <trkpt lat="43.94075" lon="7.10683">
        <ele>487.39999389648</ele>
        <time>2019-02-16T14:43:02.000Z</time>
      </trkpt>
      <trkpt lat="43.94072" lon="7.10677">
        <ele>487.79998779297</ele>
        <time>2019-02-16T14:43:05.000Z</time>
      </trkpt>
      <trkpt lat="43.94073" lon="7.10674">
        <ele>488</ele>
        <time>2019-02-16T14:43:06.000Z</time>
      </trkpt>
      <trkpt lat="43.94073" lon="7.1066">
        <ele>488.20001220703</ele>
        <time>2019-02-16T14:43:10.000Z</time>
      </trkpt>
      <trkpt lat="43.94071" lon="7.10657">
        <ele>488.20001220703</ele>
        <time>2019-02-16T14:43:11.000Z</time>
      </trkpt>
      <trkpt lat="43.94066" lon="7.10653">
        <ele>488.39999389648</ele>
        <time>2019-02-16T14:43:14.000Z</time>
      </trkpt>
      <trkpt lat="43.94063" lon="7.10652">
        <ele>488.60000610352</ele>
        <time>2019-02-16T14:43:15.000Z</time>
      </trkpt>
      <trkpt lat="43.94062" lon="7.1065">
        <ele>488.79998779297</ele>
        <time>2019-02-16T14:43:17.000Z</time>
      </trkpt>
      <trkpt lat="43.9406" lon="7.1065">
        <ele>489</ele>
        <time>2019-02-16T14:43:18.000Z</time>
      </trkpt>
      <trkpt lat="43.94058" lon="7.10647">
        <ele>490</ele>
        <time>2019-02-16T14:43:20.000Z</time>
      </trkpt>
      <trkpt lat="43.94057" lon="7.10644">
        <ele>490.39999389648</ele>
        <time>2019-02-16T14:43:21.000Z</time>
      </trkpt>
      <trkpt lat="43.94056" lon="7.10642">
        <ele>490.39999389648</ele>
        <time>2019-02-16T14:43:22.000Z</time>
      </trkpt>
      <trkpt lat="43.9405" lon="7.10638">
        <ele>491</ele>
        <time>2019-02-16T14:43:26.000Z</time>
      </trkpt>
      <trkpt lat="43.94047" lon="7.10638">
        <ele>491.20001220703</ele>
        <time>2019-02-16T14:43:27.000Z</time>
      </trkpt>
      <trkpt lat="43.94045" lon="7.10636">
        <ele>491.20001220703</ele>
        <time>2019-02-16T14:43:28.000Z</time>
      </trkpt>
      <trkpt lat="43.94044" lon="7.10632">
        <ele>491.79998779297</ele>
        <time>2019-02-16T14:43:30.000Z</time>
      </trkpt>
      <trkpt lat="43.94044" lon="7.10629">
        <ele>492.20001220703</ele>
        <time>2019-02-16T14:43:31.000Z</time>
      </trkpt>
      <trkpt lat="43.94049" lon="7.10617">
        <ele>493.20001220703</ele>
        <time>2019-02-16T14:43:35.000Z</time>
      </trkpt>
      <trkpt lat="43.9405" lon="7.10604">
        <ele>492.79998779297</ele>
        <time>2019-02-16T14:43:38.000Z</time>
      </trkpt>
      <trkpt lat="43.9405" lon="7.10602">
        <ele>492.60000610352</ele>
        <time>2019-02-16T14:43:39.000Z</time>
      </trkpt>
      <trkpt lat="43.94047" lon="7.10595">
        <ele>492.39999389648</ele>
        <time>2019-02-16T14:43:42.000Z</time>
      </trkpt>
      <trkpt lat="43.94044" lon="7.10592">
        <ele>492.60000610352</ele>
        <time>2019-02-16T14:43:44.000Z</time>
      </trkpt>
      <trkpt lat="43.94043" lon="7.1059">
        <ele>492.79998779297</ele>
        <time>2019-02-16T14:43:45.000Z</time>
      </trkpt>
      <trkpt lat="43.94042" lon="7.1058">
        <ele>493.39999389648</ele>
        <time>2019-02-16T14:43:48.000Z</time>
      </trkpt>
      <trkpt lat="43.94036" lon="7.10568">
        <ele>493.60000610352</ele>
        <time>2019-02-16T14:43:53.000Z</time>
      </trkpt>
      <trkpt lat="43.9403" lon="7.1056">
        <ele>494.20001220703</ele>
        <time>2019-02-16T14:43:58.000Z</time>
      </trkpt>
      <trkpt lat="43.94028" lon="7.1056">
        <ele>494.39999389648</ele>
        <time>2019-02-16T14:43:59.000Z</time>
      </trkpt>
      <trkpt lat="43.94022" lon="7.10562">
        <ele>494.79998779297</ele>
        <time>2019-02-16T14:44:02.000Z</time>
      </trkpt>
      <trkpt lat="43.94017" lon="7.10563">
        <ele>495.39999389648</ele>
        <time>2019-02-16T14:44:05.000Z</time>
      </trkpt>
      <trkpt lat="43.94012" lon="7.10561">
        <ele>496.20001220703</ele>
        <time>2019-02-16T14:44:08.000Z</time>
      </trkpt>
      <trkpt lat="43.94006" lon="7.10561">
        <ele>496.39999389648</ele>
        <time>2019-02-16T14:44:11.000Z</time>
      </trkpt>
      <trkpt lat="43.94001" lon="7.10562">
        <ele>496.60000610352</ele>
        <time>2019-02-16T14:44:13.000Z</time>
      </trkpt>
      <trkpt lat="43.93997" lon="7.10562">
        <ele>496.60000610352</ele>
        <time>2019-02-16T14:44:15.000Z</time>
      </trkpt>
      <trkpt lat="43.93987" lon="7.10561">
        <ele>497.39999389648</ele>
        <time>2019-02-16T14:44:20.000Z</time>
      </trkpt>
      <trkpt lat="43.93985" lon="7.1056">
        <ele>497.60000610352</ele>
        <time>2019-02-16T14:44:21.000Z</time>
      </trkpt>
      <trkpt lat="43.93978" lon="7.10556">
        <ele>497.39999389648</ele>
        <time>2019-02-16T14:44:24.000Z</time>
      </trkpt>
      <trkpt lat="43.93973" lon="7.10554">
        <ele>497.60000610352</ele>
        <time>2019-02-16T14:44:27.000Z</time>
      </trkpt>
      <trkpt lat="43.93969" lon="7.1055">
        <ele>497.79998779297</ele>
        <time>2019-02-16T14:44:29.000Z</time>
      </trkpt>
      <trkpt lat="43.93958" lon="7.10547">
        <ele>497.79998779297</ele>
        <time>2019-02-16T14:44:34.000Z</time>
      </trkpt>
      <trkpt lat="43.93952" lon="7.10545">
        <ele>498.60000610352</ele>
        <time>2019-02-16T14:44:37.000Z</time>
      </trkpt>
      <trkpt lat="43.93948" lon="7.10541">
        <ele>499</ele>
        <time>2019-02-16T14:44:39.000Z</time>
      </trkpt>
      <trkpt lat="43.93939" lon="7.10534">
        <ele>499</ele>
        <time>2019-02-16T14:44:43.000Z</time>
      </trkpt>
      <trkpt lat="43.93928" lon="7.10522">
        <ele>499.20001220703</ele>
        <time>2019-02-16T14:44:49.000Z</time>
      </trkpt>
      <trkpt lat="43.93921" lon="7.10509">
        <ele>499.60000610352</ele>
        <time>2019-02-16T14:44:53.000Z</time>
      </trkpt>
      <trkpt lat="43.93919" lon="7.10502">
        <ele>499.79998779297</ele>
        <time>2019-02-16T14:44:55.000Z</time>
      </trkpt>
      <trkpt lat="43.93915" lon="7.10491">
        <ele>500.39999389648</ele>
        <time>2019-02-16T14:44:59.000Z</time>
      </trkpt>
      <trkpt lat="43.93915" lon="7.10487">
        <ele>500.60000610352</ele>
        <time>2019-02-16T14:45:00.000Z</time>
      </trkpt>
      <trkpt lat="43.93912" lon="7.1048">
        <ele>500.60000610352</ele>
        <time>2019-02-16T14:45:02.000Z</time>
      </trkpt>
      <trkpt lat="43.9391" lon="7.10474">
        <ele>500.79998779297</ele>
        <time>2019-02-16T14:45:04.000Z</time>
      </trkpt>
      <trkpt lat="43.93906" lon="7.10466">
        <ele>501.39999389648</ele>
        <time>2019-02-16T14:45:08.000Z</time>
      </trkpt>
      <trkpt lat="43.93905" lon="7.10464">
        <ele>501.60000610352</ele>
        <time>2019-02-16T14:45:09.000Z</time>
      </trkpt>
      <trkpt lat="43.93901" lon="7.10463">
        <ele>502.60000610352</ele>
        <time>2019-02-16T14:45:12.000Z</time>
      </trkpt>
      <trkpt lat="43.93899" lon="7.10463">
        <ele>503.20001220703</ele>
        <time>2019-02-16T14:45:14.000Z</time>
      </trkpt>
      <trkpt lat="43.93896" lon="7.10463">
        <ele>504</ele>
        <time>2019-02-16T14:45:16.000Z</time>
      </trkpt>
      <trkpt lat="43.93894" lon="7.10462">
        <ele>504.20001220703</ele>
        <time>2019-02-16T14:45:17.000Z</time>
      </trkpt>
      <trkpt lat="43.93892" lon="7.1046">
        <ele>504.60000610352</ele>
        <time>2019-02-16T14:45:19.000Z</time>
      </trkpt>
      <trkpt lat="43.9389" lon="7.10456">
        <ele>504.60000610352</ele>
        <time>2019-02-16T14:45:21.000Z</time>
      </trkpt>
      <trkpt lat="43.93888" lon="7.10449">
        <ele>505</ele>
        <time>2019-02-16T14:45:24.000Z</time>
      </trkpt>
      <trkpt lat="43.93887" lon="7.10448">
        <ele>505</ele>
        <time>2019-02-16T14:45:25.000Z</time>
      </trkpt>
      <trkpt lat="43.9388" lon="7.10451">
        <ele>506</ele>
        <time>2019-02-16T14:45:30.000Z</time>
      </trkpt>
      <trkpt lat="43.93877" lon="7.1045">
        <ele>506.20001220703</ele>
        <time>2019-02-16T14:45:31.000Z</time>
      </trkpt>
      <trkpt lat="43.93871" lon="7.10445">
        <ele>506.20001220703</ele>
        <time>2019-02-16T14:45:34.000Z</time>
      </trkpt>
      <trkpt lat="43.93865" lon="7.10435">
        <ele>506.39999389648</ele>
        <time>2019-02-16T14:45:38.000Z</time>
      </trkpt>
      <trkpt lat="43.93854" lon="7.10431">
        <ele>507</ele>
        <time>2019-02-16T14:45:44.000Z</time>
      </trkpt>
      <trkpt lat="43.93851" lon="7.1043">
        <ele>507.20001220703</ele>
        <time>2019-02-16T14:45:46.000Z</time>
      </trkpt>
      <trkpt lat="43.93846" lon="7.10429">
        <ele>507.79998779297</ele>
        <time>2019-02-16T14:45:49.000Z</time>
      </trkpt>
      <trkpt lat="43.93841" lon="7.10428">
        <ele>508.39999389648</ele>
        <time>2019-02-16T14:45:52.000Z</time>
      </trkpt>
      <trkpt lat="43.93835" lon="7.10426">
        <ele>508.60000610352</ele>
        <time>2019-02-16T14:45:55.000Z</time>
      </trkpt>
      <trkpt lat="43.9383" lon="7.10423">
        <ele>509.20001220703</ele>
        <time>2019-02-16T14:45:58.000Z</time>
      </trkpt>
      <trkpt lat="43.93826" lon="7.10423">
        <ele>509.39999389648</ele>
        <time>2019-02-16T14:46:00.000Z</time>
      </trkpt>
      <trkpt lat="43.93819" lon="7.10421">
        <ele>510</ele>
        <time>2019-02-16T14:46:05.000Z</time>
      </trkpt>
      <trkpt lat="43.93816" lon="7.1042">
        <ele>510</ele>
        <time>2019-02-16T14:46:07.000Z</time>
      </trkpt>
      <trkpt lat="43.9381" lon="7.10418">
        <ele>509.60000610352</ele>
        <time>2019-02-16T14:46:10.000Z</time>
      </trkpt>
      <trkpt lat="43.93797" lon="7.10415">
        <ele>508.60000610352</ele>
        <time>2019-02-16T14:46:14.000Z</time>
      </trkpt>
      <trkpt lat="43.93794" lon="7.10413">
        <ele>508.20001220703</ele>
        <time>2019-02-16T14:46:15.000Z</time>
      </trkpt>
      <trkpt lat="43.93787" lon="7.10407">
        <ele>507.20001220703</ele>
        <time>2019-02-16T14:46:18.000Z</time>
      </trkpt>
      <trkpt lat="43.93785" lon="7.10404">
        <ele>507</ele>
        <time>2019-02-16T14:46:19.000Z</time>
      </trkpt>
      <trkpt lat="43.93777" lon="7.10387">
        <ele>506.39999389648</ele>
        <time>2019-02-16T14:46:23.000Z</time>
      </trkpt>
      <trkpt lat="43.93771" lon="7.10383">
        <ele>506.20001220703</ele>
        <time>2019-02-16T14:46:25.000Z</time>
      </trkpt>
      <trkpt lat="43.93766" lon="7.10385">
        <ele>505.39999389648</ele>
        <time>2019-02-16T14:46:27.000Z</time>
      </trkpt>
      <trkpt lat="43.93763" lon="7.10387">
        <ele>505</ele>
        <time>2019-02-16T14:46:28.000Z</time>
      </trkpt>
      <trkpt lat="43.93757" lon="7.10401">
        <ele>504.20001220703</ele>
        <time>2019-02-16T14:46:31.000Z</time>
      </trkpt>
      <trkpt lat="43.93756" lon="7.10406">
        <ele>503.79998779297</ele>
        <time>2019-02-16T14:46:32.000Z</time>
      </trkpt>
      <trkpt lat="43.93754" lon="7.10411">
        <ele>503.60000610352</ele>
        <time>2019-02-16T14:46:33.000Z</time>
      </trkpt>
      <trkpt lat="43.93748" lon="7.10426">
        <ele>503.20001220703</ele>
        <time>2019-02-16T14:46:36.000Z</time>
      </trkpt>
      <trkpt lat="43.93744" lon="7.10432">
        <ele>502.79998779297</ele>
        <time>2019-02-16T14:46:37.000Z</time>
      </trkpt>
      <trkpt lat="43.93736" lon="7.10443">
        <ele>502</ele>
        <time>2019-02-16T14:46:39.000Z</time>
      </trkpt>
      <trkpt lat="43.93733" lon="7.10447">
        <ele>501.39999389648</ele>
        <time>2019-02-16T14:46:40.000Z</time>
      </trkpt>
      <trkpt lat="43.93728" lon="7.10452">
        <ele>500.60000610352</ele>
        <time>2019-02-16T14:46:41.000Z</time>
      </trkpt>
      <trkpt lat="43.93723" lon="7.10453">
        <ele>499.79998779297</ele>
        <time>2019-02-16T14:46:42.000Z</time>
      </trkpt>
      <trkpt lat="43.93718" lon="7.10455">
        <ele>499.20001220703</ele>
        <time>2019-02-16T14:46:43.000Z</time>
      </trkpt>
      <trkpt lat="43.93713" lon="7.10457">
        <ele>498.79998779297</ele>
        <time>2019-02-16T14:46:44.000Z</time>
      </trkpt>
      <trkpt lat="43.93699" lon="7.10463">
        <ele>497.60000610352</ele>
        <time>2019-02-16T14:46:47.000Z</time>
      </trkpt>
      <trkpt lat="43.93694" lon="7.10462">
        <ele>497.60000610352</ele>
        <time>2019-02-16T14:46:48.000Z</time>
      </trkpt>
      <trkpt lat="43.9369" lon="7.10462">
        <ele>497.60000610352</ele>
        <time>2019-02-16T14:46:49.000Z</time>
      </trkpt>
      <trkpt lat="43.93685" lon="7.10464">
        <ele>497.60000610352</ele>
        <time>2019-02-16T14:46:50.000Z</time>
      </trkpt>
      <trkpt lat="43.93675" lon="7.10472">
        <ele>497.60000610352</ele>
        <time>2019-02-16T14:46:52.000Z</time>
      </trkpt>
      <trkpt lat="43.9366" lon="7.10481">
        <ele>496.20001220703</ele>
        <time>2019-02-16T14:46:55.000Z</time>
      </trkpt>
      <trkpt lat="43.93655" lon="7.10479">
        <ele>495.60000610352</ele>
        <time>2019-02-16T14:46:56.000Z</time>
      </trkpt>
      <trkpt lat="43.9365" lon="7.1048">
        <ele>494.60000610352</ele>
        <time>2019-02-16T14:46:57.000Z</time>
      </trkpt>
      <trkpt lat="43.93644" lon="7.10481">
        <ele>493.60000610352</ele>
        <time>2019-02-16T14:46:58.000Z</time>
      </trkpt>
      <trkpt lat="43.93639" lon="7.1048">
        <ele>492.60000610352</ele>
        <time>2019-02-16T14:46:59.000Z</time>
      </trkpt>
      <trkpt lat="43.93633" lon="7.10477">
        <ele>492</ele>
        <time>2019-02-16T14:47:00.000Z</time>
      </trkpt>
      <trkpt lat="43.93627" lon="7.10474">
        <ele>491.60000610352</ele>
        <time>2019-02-16T14:47:01.000Z</time>
      </trkpt>
      <trkpt lat="43.93621" lon="7.10474">
        <ele>490.60000610352</ele>
        <time>2019-02-16T14:47:03.000Z</time>
      </trkpt>
      <trkpt lat="43.93613" lon="7.10472">
        <ele>489.60000610352</ele>
        <time>2019-02-16T14:47:05.000Z</time>
      </trkpt>
      <trkpt lat="43.9361" lon="7.10472">
        <ele>489</ele>
        <time>2019-02-16T14:47:06.000Z</time>
      </trkpt>
      <trkpt lat="43.93609" lon="7.10474">
        <ele>488.39999389648</ele>
        <time>2019-02-16T14:47:07.000Z</time>
      </trkpt>
      <trkpt lat="43.93601" lon="7.10475">
        <ele>487.39999389648</ele>
        <time>2019-02-16T14:47:09.000Z</time>
      </trkpt>
      <trkpt lat="43.93594" lon="7.10479">
        <ele>486.20001220703</ele>
        <time>2019-02-16T14:47:11.000Z</time>
      </trkpt>
      <trkpt lat="43.93591" lon="7.10484">
        <ele>485.60000610352</ele>
        <time>2019-02-16T14:47:12.000Z</time>
      </trkpt>
      <trkpt lat="43.93585" lon="7.10486">
        <ele>485</ele>
        <time>2019-02-16T14:47:13.000Z</time>
      </trkpt>
      <trkpt lat="43.93571" lon="7.10491">
        <ele>483.20001220703</ele>
        <time>2019-02-16T14:47:15.000Z</time>
      </trkpt>
      <trkpt lat="43.93559" lon="7.10494">
        <ele>481.20001220703</ele>
        <time>2019-02-16T14:47:17.000Z</time>
      </trkpt>
      <trkpt lat="43.93553" lon="7.10492">
        <ele>480.39999389648</ele>
        <time>2019-02-16T14:47:18.000Z</time>
      </trkpt>
      <trkpt lat="43.9355" lon="7.10492">
        <ele>479.39999389648</ele>
        <time>2019-02-16T14:47:19.000Z</time>
      </trkpt>
      <trkpt lat="43.93547" lon="7.10491">
        <ele>477.60000610352</ele>
        <time>2019-02-16T14:47:21.000Z</time>
      </trkpt>
      <trkpt lat="43.93549" lon="7.10488">
        <ele>476.20001220703</ele>
        <time>2019-02-16T14:47:23.000Z</time>
      </trkpt>
      <trkpt lat="43.93549" lon="7.10489">
        <ele>475.39999389648</ele>
        <time>2019-02-16T14:47:24.000Z</time>
      </trkpt>
      <trkpt lat="43.93549" lon="7.10489">
        <ele>474.79998779297</ele>
        <time>2019-02-16T14:47:25.000Z</time>
      </trkpt>
      <trkpt lat="43.93549" lon="7.10489">
        <ele>474.20001220703</ele>
        <time>2019-02-16T14:47:31.000Z</time>
      </trkpt>
      <trkpt lat="43.93554" lon="7.10487">
        <ele>474</ele>
        <time>2019-02-16T14:47:35.000Z</time>
      </trkpt>
      <trkpt lat="43.93565" lon="7.10481">
        <ele>473.79998779297</ele>
        <time>2019-02-16T14:47:39.000Z</time>
      </trkpt>
      <trkpt lat="43.93567" lon="7.10478">
        <ele>473.60000610352</ele>
        <time>2019-02-16T14:47:40.000Z</time>
      </trkpt>
      <trkpt lat="43.93576" lon="7.10474">
        <ele>472.39999389648</ele>
        <time>2019-02-16T14:47:43.000Z</time>
      </trkpt>
      <trkpt lat="43.93579" lon="7.10471">
        <ele>472.20001220703</ele>
        <time>2019-02-16T14:47:44.000Z</time>
      </trkpt>
      <trkpt lat="43.93586" lon="7.10458">
        <ele>471.39999389648</ele>
        <time>2019-02-16T14:47:47.000Z</time>
      </trkpt>
      <trkpt lat="43.93597" lon="7.10451">
        <ele>470.20001220703</ele>
        <time>2019-02-16T14:47:50.000Z</time>
      </trkpt>
      <trkpt lat="43.93599" lon="7.10447">
        <ele>469.79998779297</ele>
        <time>2019-02-16T14:47:51.000Z</time>
      </trkpt>
      <trkpt lat="43.93597" lon="7.10433">
        <ele>469.20001220703</ele>
        <time>2019-02-16T14:47:53.000Z</time>
      </trkpt>
      <trkpt lat="43.93596" lon="7.10428">
        <ele>468.60000610352</ele>
        <time>2019-02-16T14:47:54.000Z</time>
      </trkpt>
      <trkpt lat="43.93592" lon="7.10422">
        <ele>467.79998779297</ele>
        <time>2019-02-16T14:47:55.000Z</time>
      </trkpt>
      <trkpt lat="43.93587" lon="7.10415">
        <ele>467</ele>
        <time>2019-02-16T14:47:56.000Z</time>
      </trkpt>
      <trkpt lat="43.93584" lon="7.10409">
        <ele>465.60000610352</ele>
        <time>2019-02-16T14:47:57.000Z</time>
      </trkpt>
      <trkpt lat="43.93583" lon="7.10405">
        <ele>464.39999389648</ele>
        <time>2019-02-16T14:47:58.000Z</time>
      </trkpt>
      <trkpt lat="43.93584" lon="7.10403">
        <ele>463.39999389648</ele>
        <time>2019-02-16T14:47:59.000Z</time>
      </trkpt>
      <trkpt lat="43.93585" lon="7.10403">
        <ele>463</ele>
        <time>2019-02-16T14:48:00.000Z</time>
      </trkpt>
      <trkpt lat="43.93586" lon="7.10406">
        <ele>462.39999389648</ele>
        <time>2019-02-16T14:48:02.000Z</time>
      </trkpt>
      <trkpt lat="43.93589" lon="7.10414">
        <ele>462.20001220703</ele>
        <time>2019-02-16T14:48:04.000Z</time>
      </trkpt>
      <trkpt lat="43.93592" lon="7.10417">
        <ele>462</ele>
        <time>2019-02-16T14:48:05.000Z</time>
      </trkpt>
      <trkpt lat="43.93599" lon="7.10429">
        <ele>461</ele>
        <time>2019-02-16T14:48:08.000Z</time>
      </trkpt>
      <trkpt lat="43.93602" lon="7.10434">
        <ele>460.60000610352</ele>
        <time>2019-02-16T14:48:09.000Z</time>
      </trkpt>
      <trkpt lat="43.93612" lon="7.10432">
        <ele>459.79998779297</ele>
        <time>2019-02-16T14:48:12.000Z</time>
      </trkpt>
      <trkpt lat="43.9362" lon="7.10429">
        <ele>458.60000610352</ele>
        <time>2019-02-16T14:48:15.000Z</time>
      </trkpt>
      <trkpt lat="43.93632" lon="7.10422">
        <ele>457.20001220703</ele>
        <time>2019-02-16T14:48:18.000Z</time>
      </trkpt>
      <trkpt lat="43.93641" lon="7.10416">
        <ele>456</ele>
        <time>2019-02-16T14:48:20.000Z</time>
      </trkpt>
      <trkpt lat="43.93646" lon="7.10411">
        <ele>455.20001220703</ele>
        <time>2019-02-16T14:48:21.000Z</time>
      </trkpt>
      <trkpt lat="43.93647" lon="7.10404">
        <ele>454.60000610352</ele>
        <time>2019-02-16T14:48:22.000Z</time>
      </trkpt>
      <trkpt lat="43.93654" lon="7.10398">
        <ele>453.20001220703</ele>
        <time>2019-02-16T14:48:24.000Z</time>
      </trkpt>
      <trkpt lat="43.93657" lon="7.10395">
        <ele>452.60000610352</ele>
        <time>2019-02-16T14:48:25.000Z</time>
      </trkpt>
      <trkpt lat="43.9366" lon="7.10391">
        <ele>452</ele>
        <time>2019-02-16T14:48:26.000Z</time>
      </trkpt>
      <trkpt lat="43.93667" lon="7.10384">
        <ele>450.39999389648</ele>
        <time>2019-02-16T14:48:28.000Z</time>
      </trkpt>
      <trkpt lat="43.9367" lon="7.10382">
        <ele>449.60000610352</ele>
        <time>2019-02-16T14:48:29.000Z</time>
      </trkpt>
      <trkpt lat="43.93673" lon="7.1038">
        <ele>449.20001220703</ele>
        <time>2019-02-16T14:48:30.000Z</time>
      </trkpt>
      <trkpt lat="43.93673" lon="7.10377">
        <ele>448.60000610352</ele>
        <time>2019-02-16T14:48:31.000Z</time>
      </trkpt>
      <trkpt lat="43.93673" lon="7.10372">
        <ele>448</ele>
        <time>2019-02-16T14:48:32.000Z</time>
      </trkpt>
      <trkpt lat="43.93671" lon="7.10362">
        <ele>446.79998779297</ele>
        <time>2019-02-16T14:48:34.000Z</time>
      </trkpt>
      <trkpt lat="43.93671" lon="7.10358">
        <ele>445</ele>
        <time>2019-02-16T14:48:36.000Z</time>
      </trkpt>
      <trkpt lat="43.93671" lon="7.10358">
        <ele>443.79998779297</ele>
        <time>2019-02-16T14:48:38.000Z</time>
      </trkpt>
      <trkpt lat="43.93671" lon="7.10357">
        <ele>443.39999389648</ele>
        <time>2019-02-16T14:48:41.000Z</time>
      </trkpt>
      <trkpt lat="43.93671" lon="7.10349">
        <ele>443</ele>
        <time>2019-02-16T14:48:46.000Z</time>
      </trkpt>
      <trkpt lat="43.93671" lon="7.10348">
        <ele>442.60000610352</ele>
        <time>2019-02-16T14:48:48.000Z</time>
      </trkpt>
      <trkpt lat="43.93671" lon="7.10347">
        <ele>442.60000610352</ele>
        <time>2019-02-16T14:48:53.000Z</time>
      </trkpt>
      <trkpt lat="43.93673" lon="7.10335">
        <ele>442.20001220703</ele>
        <time>2019-02-16T14:48:57.000Z</time>
      </trkpt>
      <trkpt lat="43.93671" lon="7.10332">
        <ele>441.60000610352</ele>
        <time>2019-02-16T14:48:59.000Z</time>
      </trkpt>
      <trkpt lat="43.93669" lon="7.10332">
        <ele>441</ele>
        <time>2019-02-16T14:49:00.000Z</time>
      </trkpt>
      <trkpt lat="43.93669" lon="7.10338">
        <ele>440.20001220703</ele>
        <time>2019-02-16T14:49:02.000Z</time>
      </trkpt>
      <trkpt lat="43.93669" lon="7.10342">
        <ele>439.79998779297</ele>
        <time>2019-02-16T14:49:03.000Z</time>
      </trkpt>
      <trkpt lat="43.93668" lon="7.1035">
        <ele>439</ele>
        <time>2019-02-16T14:49:05.000Z</time>
      </trkpt>
      <trkpt lat="43.93663" lon="7.10356">
        <ele>438.60000610352</ele>
        <time>2019-02-16T14:49:07.000Z</time>
      </trkpt>
      <trkpt lat="43.9366" lon="7.10366">
        <ele>438</ele>
        <time>2019-02-16T14:49:09.000Z</time>
      </trkpt>
      <trkpt lat="43.93657" lon="7.10369">
        <ele>437.60000610352</ele>
        <time>2019-02-16T14:49:10.000Z</time>
      </trkpt>
      <trkpt lat="43.93649" lon="7.1037">
        <ele>436.60000610352</ele>
        <time>2019-02-16T14:49:12.000Z</time>
      </trkpt>
      <trkpt lat="43.93644" lon="7.10365">
        <ele>436</ele>
        <time>2019-02-16T14:49:13.000Z</time>
      </trkpt>
      <trkpt lat="43.93636" lon="7.1036">
        <ele>435.20001220703</ele>
        <time>2019-02-16T14:49:15.000Z</time>
      </trkpt>
      <trkpt lat="43.93633" lon="7.10362">
        <ele>434.39999389648</ele>
        <time>2019-02-16T14:49:16.000Z</time>
      </trkpt>
      <trkpt lat="43.93631" lon="7.10364">
        <ele>434</ele>
        <time>2019-02-16T14:49:17.000Z</time>
      </trkpt>
      <trkpt lat="43.93625" lon="7.10372">
        <ele>432.79998779297</ele>
        <time>2019-02-16T14:49:19.000Z</time>
      </trkpt>
      <trkpt lat="43.93622" lon="7.10371">
        <ele>432.20001220703</ele>
        <time>2019-02-16T14:49:20.000Z</time>
      </trkpt>
      <trkpt lat="43.93616" lon="7.10363">
        <ele>431.39999389648</ele>
        <time>2019-02-16T14:49:22.000Z</time>
      </trkpt>
      <trkpt lat="43.93614" lon="7.10357">
        <ele>430.79998779297</ele>
        <time>2019-02-16T14:49:23.000Z</time>
      </trkpt>
      <trkpt lat="43.93611" lon="7.10351">
        <ele>430.20001220703</ele>
        <time>2019-02-16T14:49:24.000Z</time>
      </trkpt>
      <trkpt lat="43.93604" lon="7.10344">
        <ele>428.79998779297</ele>
        <time>2019-02-16T14:49:26.000Z</time>
      </trkpt>
      <trkpt lat="43.93601" lon="7.1034">
        <ele>427.20001220703</ele>
        <time>2019-02-16T14:49:28.000Z</time>
      </trkpt>
      <trkpt lat="43.93596" lon="7.10332">
        <ele>425.79998779297</ele>
        <time>2019-02-16T14:49:30.000Z</time>
      </trkpt>
      <trkpt lat="43.93596" lon="7.10329">
        <ele>425.20001220703</ele>
        <time>2019-02-16T14:49:31.000Z</time>
      </trkpt>
      <trkpt lat="43.93598" lon="7.10331">
        <ele>424.39999389648</ele>
        <time>2019-02-16T14:49:33.000Z</time>
      </trkpt>
      <trkpt lat="43.93607" lon="7.10333">
        <ele>422.79998779297</ele>
        <time>2019-02-16T14:49:36.000Z</time>
      </trkpt>
      <trkpt lat="43.93609" lon="7.10334">
        <ele>422.20001220703</ele>
        <time>2019-02-16T14:49:37.000Z</time>
      </trkpt>
      <trkpt lat="43.9361" lon="7.10335">
        <ele>421.60000610352</ele>
        <time>2019-02-16T14:49:38.000Z</time>
      </trkpt>
      <trkpt lat="43.93611" lon="7.10335">
        <ele>420.20001220703</ele>
        <time>2019-02-16T14:49:40.000Z</time>
      </trkpt>
      <trkpt lat="43.93614" lon="7.10336">
        <ele>419</ele>
        <time>2019-02-16T14:49:44.000Z</time>
      </trkpt>
      <trkpt lat="43.93615" lon="7.10337">
        <ele>418.60000610352</ele>
        <time>2019-02-16T14:49:47.000Z</time>
      </trkpt>
      <trkpt lat="43.93615" lon="7.10335">
        <ele>418</ele>
        <time>2019-02-16T14:49:51.000Z</time>
      </trkpt>
      <trkpt lat="43.93614" lon="7.10333">
        <ele>417.79998779297</ele>
        <time>2019-02-16T14:49:52.000Z</time>
      </trkpt>
      <trkpt lat="43.93612" lon="7.10332">
        <ele>417.39999389648</ele>
        <time>2019-02-16T14:49:54.000Z</time>
      </trkpt>
      <trkpt lat="43.93608" lon="7.10329">
        <ele>416.60000610352</ele>
        <time>2019-02-16T14:49:56.000Z</time>
      </trkpt>
      <trkpt lat="43.93607" lon="7.10327">
        <ele>416.20001220703</ele>
        <time>2019-02-16T14:49:57.000Z</time>
      </trkpt>
      <trkpt lat="43.93605" lon="7.10321">
        <ele>415.39999389648</ele>
        <time>2019-02-16T14:49:59.000Z</time>
      </trkpt>
      <trkpt lat="43.93599" lon="7.10312">
        <ele>414.60000610352</ele>
        <time>2019-02-16T14:50:01.000Z</time>
      </trkpt>
      <trkpt lat="43.93596" lon="7.1031">
        <ele>414.20001220703</ele>
        <time>2019-02-16T14:50:02.000Z</time>
      </trkpt>
      <trkpt lat="43.93595" lon="7.10305">
        <ele>412.79998779297</ele>
        <time>2019-02-16T14:50:04.000Z</time>
      </trkpt>
      <trkpt lat="43.93599" lon="7.10307">
        <ele>411.39999389648</ele>
        <time>2019-02-16T14:50:06.000Z</time>
      </trkpt>
      <trkpt lat="43.93601" lon="7.10309">
        <ele>410.79998779297</ele>
        <time>2019-02-16T14:50:07.000Z</time>
      </trkpt>
      <trkpt lat="43.9361" lon="7.10311">
        <ele>410</ele>
        <time>2019-02-16T14:50:09.000Z</time>
      </trkpt>
      <trkpt lat="43.93614" lon="7.10312">
        <ele>409.60000610352</ele>
        <time>2019-02-16T14:50:10.000Z</time>
      </trkpt>
      <trkpt lat="43.93623" lon="7.10315">
        <ele>408.79998779297</ele>
        <time>2019-02-16T14:50:12.000Z</time>
      </trkpt>
      <trkpt lat="43.93627" lon="7.10312">
        <ele>408</ele>
        <time>2019-02-16T14:50:13.000Z</time>
      </trkpt>
      <trkpt lat="43.93629" lon="7.10307">
        <ele>407.20001220703</ele>
        <time>2019-02-16T14:50:14.000Z</time>
      </trkpt>
      <trkpt lat="43.93629" lon="7.10301">
        <ele>406.39999389648</ele>
        <time>2019-02-16T14:50:15.000Z</time>
      </trkpt>
      <trkpt lat="43.93631" lon="7.10297">
        <ele>405.60000610352</ele>
        <time>2019-02-16T14:50:16.000Z</time>
      </trkpt>
      <trkpt lat="43.9364" lon="7.10291">
        <ele>404.20001220703</ele>
        <time>2019-02-16T14:50:18.000Z</time>
      </trkpt>
      <trkpt lat="43.93647" lon="7.10282">
        <ele>403</ele>
        <time>2019-02-16T14:50:20.000Z</time>
      </trkpt>
      <trkpt lat="43.93649" lon="7.10277">
        <ele>402.20001220703</ele>
        <time>2019-02-16T14:50:21.000Z</time>
      </trkpt>
      <trkpt lat="43.93647" lon="7.10275">
        <ele>401.60000610352</ele>
        <time>2019-02-16T14:50:22.000Z</time>
      </trkpt>
      <trkpt lat="43.93643" lon="7.10272">
        <ele>401.20001220703</ele>
        <time>2019-02-16T14:50:23.000Z</time>
      </trkpt>
      <trkpt lat="43.93643" lon="7.10261">
        <ele>400.39999389648</ele>
        <time>2019-02-16T14:50:25.000Z</time>
      </trkpt>
      <trkpt lat="43.93645" lon="7.10254">
        <ele>400</ele>
        <time>2019-02-16T14:50:26.000Z</time>
      </trkpt>
      <trkpt lat="43.93647" lon="7.1024">
        <ele>398.79998779297</ele>
        <time>2019-02-16T14:50:28.000Z</time>
      </trkpt>
      <trkpt lat="43.9365" lon="7.10235">
        <ele>397.79998779297</ele>
        <time>2019-02-16T14:50:29.000Z</time>
      </trkpt>
      <trkpt lat="43.93654" lon="7.10235">
        <ele>397.20001220703</ele>
        <time>2019-02-16T14:50:30.000Z</time>
      </trkpt>
      <trkpt lat="43.93664" lon="7.10236">
        <ele>396.20001220703</ele>
        <time>2019-02-16T14:50:32.000Z</time>
      </trkpt>
      <trkpt lat="43.9367" lon="7.10233">
        <ele>396</ele>
        <time>2019-02-16T14:50:33.000Z</time>
      </trkpt>
      <trkpt lat="43.93678" lon="7.10233">
        <ele>394.39999389648</ele>
        <time>2019-02-16T14:50:35.000Z</time>
      </trkpt>
      <trkpt lat="43.93682" lon="7.10231">
        <ele>393.20001220703</ele>
        <time>2019-02-16T14:50:36.000Z</time>
      </trkpt>
      <trkpt lat="43.93685" lon="7.10226">
        <ele>392.20001220703</ele>
        <time>2019-02-16T14:50:37.000Z</time>
      </trkpt>
      <trkpt lat="43.9369" lon="7.10219">
        <ele>390.79998779297</ele>
        <time>2019-02-16T14:50:39.000Z</time>
      </trkpt>
      <trkpt lat="43.93698" lon="7.10222">
        <ele>389.79998779297</ele>
        <time>2019-02-16T14:50:42.000Z</time>
      </trkpt>
      <trkpt lat="43.93702" lon="7.10221">
        <ele>389.39999389648</ele>
        <time>2019-02-16T14:50:43.000Z</time>
      </trkpt>
      <trkpt lat="43.93705" lon="7.10221">
        <ele>389</ele>
        <time>2019-02-16T14:50:46.000Z</time>
      </trkpt>
      <trkpt lat="43.93707" lon="7.10222">
        <ele>388.79998779297</ele>
        <time>2019-02-16T14:50:47.000Z</time>
      </trkpt>
      <trkpt lat="43.9371" lon="7.10218">
        <ele>389.60000610352</ele>
        <time>2019-02-16T14:50:51.000Z</time>
      </trkpt>
      <trkpt lat="43.93714" lon="7.10215">
        <ele>388.20001220703</ele>
        <time>2019-02-16T14:50:58.000Z</time>
      </trkpt>
      <trkpt lat="43.93717" lon="7.10213">
        <ele>387</ele>
        <time>2019-02-16T14:51:04.000Z</time>
      </trkpt>
      <trkpt lat="43.93718" lon="7.10212">
        <ele>386.79998779297</ele>
        <time>2019-02-16T14:51:05.000Z</time>
      </trkpt>
      <trkpt lat="43.93726" lon="7.10203">
        <ele>386.39999389648</ele>
        <time>2019-02-16T14:51:08.000Z</time>
      </trkpt>
      <trkpt lat="43.9373" lon="7.10201">
        <ele>385.79998779297</ele>
        <time>2019-02-16T14:51:09.000Z</time>
      </trkpt>
      <trkpt lat="43.93736" lon="7.10195">
        <ele>384.79998779297</ele>
        <time>2019-02-16T14:51:11.000Z</time>
      </trkpt>
      <trkpt lat="43.93743" lon="7.1019">
        <ele>383.39999389648</ele>
        <time>2019-02-16T14:51:13.000Z</time>
      </trkpt>
      <trkpt lat="43.93749" lon="7.10189">
        <ele>382.20001220703</ele>
        <time>2019-02-16T14:51:15.000Z</time>
      </trkpt>
      <trkpt lat="43.93756" lon="7.10176">
        <ele>381</ele>
        <time>2019-02-16T14:51:18.000Z</time>
      </trkpt>
      <trkpt lat="43.93764" lon="7.10181">
        <ele>380.39999389648</ele>
        <time>2019-02-16T14:51:20.000Z</time>
      </trkpt>
      <trkpt lat="43.93768" lon="7.10182">
        <ele>380</ele>
        <time>2019-02-16T14:51:21.000Z</time>
      </trkpt>
      <trkpt lat="43.93776" lon="7.10178">
        <ele>379.20001220703</ele>
        <time>2019-02-16T14:51:23.000Z</time>
      </trkpt>
      <trkpt lat="43.93778" lon="7.10175">
        <ele>378.60000610352</ele>
        <time>2019-02-16T14:51:24.000Z</time>
      </trkpt>
      <trkpt lat="43.93785" lon="7.10173">
        <ele>377.20001220703</ele>
        <time>2019-02-16T14:51:26.000Z</time>
      </trkpt>
      <trkpt lat="43.93791" lon="7.10172">
        <ele>376</ele>
        <time>2019-02-16T14:51:28.000Z</time>
      </trkpt>
      <trkpt lat="43.93793" lon="7.10168">
        <ele>375.20001220703</ele>
        <time>2019-02-16T14:51:29.000Z</time>
      </trkpt>
      <trkpt lat="43.93798" lon="7.1016">
        <ele>374.60000610352</ele>
        <time>2019-02-16T14:51:31.000Z</time>
      </trkpt>
      <trkpt lat="43.93802" lon="7.10157">
        <ele>374</ele>
        <time>2019-02-16T14:51:32.000Z</time>
      </trkpt>
      <trkpt lat="43.93805" lon="7.10153">
        <ele>373.60000610352</ele>
        <time>2019-02-16T14:51:33.000Z</time>
      </trkpt>
      <trkpt lat="43.93813" lon="7.10144">
        <ele>372.39999389648</ele>
        <time>2019-02-16T14:51:35.000Z</time>
      </trkpt>
      <trkpt lat="43.93815" lon="7.10139">
        <ele>371.39999389648</ele>
        <time>2019-02-16T14:51:36.000Z</time>
      </trkpt>
      <trkpt lat="43.93815" lon="7.10136">
        <ele>370.79998779297</ele>
        <time>2019-02-16T14:51:37.000Z</time>
      </trkpt>
      <trkpt lat="43.93815" lon="7.10132">
        <ele>369.79998779297</ele>
        <time>2019-02-16T14:51:39.000Z</time>
      </trkpt>
      <trkpt lat="43.93815" lon="7.10129">
        <ele>368.79998779297</ele>
        <time>2019-02-16T14:51:40.000Z</time>
      </trkpt>
      <trkpt lat="43.93815" lon="7.10126">
        <ele>368.60000610352</ele>
        <time>2019-02-16T14:51:41.000Z</time>
      </trkpt>
      <trkpt lat="43.93815" lon="7.10126">
        <ele>367.39999389648</ele>
        <time>2019-02-16T14:51:43.000Z</time>
      </trkpt>
      <trkpt lat="43.93814" lon="7.10116">
        <ele>367.39999389648</ele>
        <time>2019-02-16T14:51:48.000Z</time>
      </trkpt>
      <trkpt lat="43.93811" lon="7.10109">
        <ele>367.20001220703</ele>
        <time>2019-02-16T14:51:52.000Z</time>
      </trkpt>
      <trkpt lat="43.93809" lon="7.10105">
        <ele>367.79998779297</ele>
        <time>2019-02-16T14:51:56.000Z</time>
      </trkpt>
      <trkpt lat="43.93809" lon="7.10105">
        <ele>368.39999389648</ele>
        <time>2019-02-16T14:51:58.000Z</time>
      </trkpt>
      <trkpt lat="43.93808" lon="7.10102">
        <ele>368.60000610352</ele>
        <time>2019-02-16T14:52:01.000Z</time>
      </trkpt>
      <trkpt lat="43.93808" lon="7.101">
        <ele>369.39999389648</ele>
        <time>2019-02-16T14:52:05.000Z</time>
      </trkpt>
      <trkpt lat="43.93808" lon="7.10099">
        <ele>370</ele>
        <time>2019-02-16T14:52:08.000Z</time>
      </trkpt>
      <trkpt lat="43.93807" lon="7.10097">
        <ele>370.39999389648</ele>
        <time>2019-02-16T14:52:12.000Z</time>
      </trkpt>
      <trkpt lat="43.93807" lon="7.10095">
        <ele>371.20001220703</ele>
        <time>2019-02-16T14:52:16.000Z</time>
      </trkpt>
      <trkpt lat="43.93807" lon="7.10094">
        <ele>371.60000610352</ele>
        <time>2019-02-16T14:52:18.000Z</time>
      </trkpt>
      <trkpt lat="43.93805" lon="7.10092">
        <ele>372.79998779297</ele>
        <time>2019-02-16T14:52:23.000Z</time>
      </trkpt>
      <trkpt lat="43.93804" lon="7.10091">
        <ele>373.20001220703</ele>
        <time>2019-02-16T14:52:25.000Z</time>
      </trkpt>
      <trkpt lat="43.93802" lon="7.10089">
        <ele>373.79998779297</ele>
        <time>2019-02-16T14:52:29.000Z</time>
      </trkpt>
      <trkpt lat="43.93799" lon="7.10085">
        <ele>374.79998779297</ele>
        <time>2019-02-16T14:52:34.000Z</time>
      </trkpt>
      <trkpt lat="43.93799" lon="7.10084">
        <ele>375</ele>
        <time>2019-02-16T14:52:35.000Z</time>
      </trkpt>
      <trkpt lat="43.93797" lon="7.10078">
        <ele>376</ele>
        <time>2019-02-16T14:52:39.000Z</time>
      </trkpt>
      <trkpt lat="43.93798" lon="7.10072">
        <ele>376.39999389648</ele>
        <time>2019-02-16T14:52:43.000Z</time>
      </trkpt>
      <trkpt lat="43.93799" lon="7.10071">
        <ele>376.39999389648</ele>
        <time>2019-02-16T14:52:44.000Z</time>
      </trkpt>
      <trkpt lat="43.93799" lon="7.1007">
        <ele>376.60000610352</ele>
        <time>2019-02-16T14:52:48.000Z</time>
      </trkpt>
      <trkpt lat="43.938" lon="7.10062">
        <ele>376.39999389648</ele>
        <time>2019-02-16T14:52:52.000Z</time>
      </trkpt>
      <trkpt lat="43.93804" lon="7.10038">
        <ele>376.60000610352</ele>
        <time>2019-02-16T14:53:00.000Z</time>
      </trkpt>
      <trkpt lat="43.93809" lon="7.10011">
        <ele>376.60000610352</ele>
        <time>2019-02-16T14:53:07.000Z</time>
      </trkpt>
      <trkpt lat="43.93808" lon="7.10005">
        <ele>376.39999389648</ele>
        <time>2019-02-16T14:53:08.000Z</time>
      </trkpt>
      <trkpt lat="43.93804" lon="7.09991">
        <ele>375.20001220703</ele>
        <time>2019-02-16T14:53:11.000Z</time>
      </trkpt>
      <trkpt lat="43.93801" lon="7.09982">
        <ele>374.79998779297</ele>
        <time>2019-02-16T14:53:13.000Z</time>
      </trkpt>
      <trkpt lat="43.93802" lon="7.09978">
        <ele>374.60000610352</ele>
        <time>2019-02-16T14:53:14.000Z</time>
      </trkpt>
      <trkpt lat="43.93803" lon="7.09976">
        <ele>374.60000610352</ele>
        <time>2019-02-16T14:53:15.000Z</time>
      </trkpt>
      <trkpt lat="43.93804" lon="7.09967">
        <ele>375.79998779297</ele>
        <time>2019-02-16T14:53:20.000Z</time>
      </trkpt>
      <trkpt lat="43.93804" lon="7.09965">
        <ele>376.60000610352</ele>
        <time>2019-02-16T14:53:25.000Z</time>
      </trkpt>
      <trkpt lat="43.93805" lon="7.09963">
        <ele>376.79998779297</ele>
        <time>2019-02-16T14:53:36.000Z</time>
      </trkpt>
      <trkpt lat="43.93806" lon="7.09962">
        <ele>376.79998779297</ele>
        <time>2019-02-16T14:53:37.000Z</time>
      </trkpt>
      <trkpt lat="43.93806" lon="7.09963">
        <ele>376.79998779297</ele>
        <time>2019-02-16T14:53:39.000Z</time>
      </trkpt>
      <trkpt lat="43.93805" lon="7.09962">
        <ele>377</ele>
        <time>2019-02-16T14:53:41.000Z</time>
      </trkpt>
      <trkpt lat="43.93805" lon="7.09962">
        <ele>376.79998779297</ele>
        <time>2019-02-16T14:53:46.000Z</time>
      </trkpt>
      <trkpt lat="43.93803" lon="7.09964">
        <ele>377</ele>
        <time>2019-02-16T14:53:52.000Z</time>
      </trkpt>
      <trkpt lat="43.93801" lon="7.09963">
        <ele>377</ele>
        <time>2019-02-16T14:53:55.000Z</time>
      </trkpt>
      <trkpt lat="43.938" lon="7.09962">
        <ele>377</ele>
        <time>2019-02-16T14:53:57.000Z</time>
      </trkpt>
      <trkpt lat="43.93799" lon="7.09958">
        <ele>377.79998779297</ele>
        <time>2019-02-16T14:54:01.000Z</time>
      </trkpt>
      <trkpt lat="43.93798" lon="7.09958">
        <ele>378.39999389648</ele>
        <time>2019-02-16T14:54:03.000Z</time>
      </trkpt>
      <trkpt lat="43.93796" lon="7.09956">
        <ele>379</ele>
        <time>2019-02-16T14:54:06.000Z</time>
      </trkpt>
      <trkpt lat="43.93794" lon="7.09954">
        <ele>380.20001220703</ele>
        <time>2019-02-16T14:54:11.000Z</time>
      </trkpt>
      <trkpt lat="43.93792" lon="7.09951">
        <ele>381.20001220703</ele>
        <time>2019-02-16T14:54:16.000Z</time>
      </trkpt>
      <trkpt lat="43.93791" lon="7.09949">
        <ele>382</ele>
        <time>2019-02-16T14:54:19.000Z</time>
      </trkpt>
      <trkpt lat="43.9379" lon="7.09947">
        <ele>382.39999389648</ele>
        <time>2019-02-16T14:54:21.000Z</time>
      </trkpt>
      <trkpt lat="43.93789" lon="7.09946">
        <ele>383.20001220703</ele>
        <time>2019-02-16T14:54:25.000Z</time>
      </trkpt>
      <trkpt lat="43.93789" lon="7.09946">
        <ele>383.60000610352</ele>
        <time>2019-02-16T14:54:26.000Z</time>
      </trkpt>
      <trkpt lat="43.93787" lon="7.09944">
        <ele>384.60000610352</ele>
        <time>2019-02-16T14:54:31.000Z</time>
      </trkpt>
      <trkpt lat="43.93786" lon="7.09943">
        <ele>384.79998779297</ele>
        <time>2019-02-16T14:54:32.000Z</time>
      </trkpt>
      <trkpt lat="43.93784" lon="7.09942">
        <ele>385.79998779297</ele>
        <time>2019-02-16T14:54:37.000Z</time>
      </trkpt>
      <trkpt lat="43.93783" lon="7.09941">
        <ele>386.20001220703</ele>
        <time>2019-02-16T14:54:40.000Z</time>
      </trkpt>
      <trkpt lat="43.93781" lon="7.0994">
        <ele>386.79998779297</ele>
        <time>2019-02-16T14:54:43.000Z</time>
      </trkpt>
      <trkpt lat="43.93781" lon="7.09939">
        <ele>387.39999389648</ele>
        <time>2019-02-16T14:54:46.000Z</time>
      </trkpt>
      <trkpt lat="43.9378" lon="7.09937">
        <ele>387.60000610352</ele>
        <time>2019-02-16T14:54:47.000Z</time>
      </trkpt>
      <trkpt lat="43.9378" lon="7.09937">
        <ele>388</ele>
        <time>2019-02-16T14:54:49.000Z</time>
      </trkpt>
      <trkpt lat="43.93778" lon="7.09934">
        <ele>388.20001220703</ele>
        <time>2019-02-16T14:54:52.000Z</time>
      </trkpt>
      <trkpt lat="43.93774" lon="7.09932">
        <ele>389</ele>
        <time>2019-02-16T14:54:57.000Z</time>
      </trkpt>
      <trkpt lat="43.93773" lon="7.09932">
        <ele>389.39999389648</ele>
        <time>2019-02-16T14:54:59.000Z</time>
      </trkpt>
      <trkpt lat="43.9377" lon="7.09931">
        <ele>390.20001220703</ele>
        <time>2019-02-16T14:55:03.000Z</time>
      </trkpt>
      <trkpt lat="43.93769" lon="7.09931">
        <ele>390.60000610352</ele>
        <time>2019-02-16T14:55:05.000Z</time>
      </trkpt>
      <trkpt lat="43.93766" lon="7.0993">
        <ele>391.39999389648</ele>
        <time>2019-02-16T14:55:09.000Z</time>
      </trkpt>
      <trkpt lat="43.93764" lon="7.09929">
        <ele>392</ele>
        <time>2019-02-16T14:55:12.000Z</time>
      </trkpt>
      <trkpt lat="43.93762" lon="7.09927">
        <ele>392.60000610352</ele>
        <time>2019-02-16T14:55:15.000Z</time>
      </trkpt>
      <trkpt lat="43.93761" lon="7.09926">
        <ele>393.20001220703</ele>
        <time>2019-02-16T14:55:18.000Z</time>
      </trkpt>
      <trkpt lat="43.93758" lon="7.09924">
        <ele>393.79998779297</ele>
        <time>2019-02-16T14:55:21.000Z</time>
      </trkpt>
      <trkpt lat="43.93757" lon="7.09924">
        <ele>394.20001220703</ele>
        <time>2019-02-16T14:55:24.000Z</time>
      </trkpt>
      <trkpt lat="43.93754" lon="7.09923">
        <ele>394.79998779297</ele>
        <time>2019-02-16T14:55:28.000Z</time>
      </trkpt>
      <trkpt lat="43.93752" lon="7.09923">
        <ele>395.20001220703</ele>
        <time>2019-02-16T14:55:30.000Z</time>
      </trkpt>
      <trkpt lat="43.93751" lon="7.09923">
        <ele>395.39999389648</ele>
        <time>2019-02-16T14:55:31.000Z</time>
      </trkpt>
      <trkpt lat="43.93749" lon="7.09923">
        <ele>396</ele>
        <time>2019-02-16T14:55:34.000Z</time>
      </trkpt>
      <trkpt lat="43.93748" lon="7.09923">
        <ele>396.20001220703</ele>
        <time>2019-02-16T14:55:36.000Z</time>
      </trkpt>
      <trkpt lat="43.93744" lon="7.09924">
        <ele>397</ele>
        <time>2019-02-16T14:55:40.000Z</time>
      </trkpt>
      <trkpt lat="43.93743" lon="7.09924">
        <ele>397.20001220703</ele>
        <time>2019-02-16T14:55:42.000Z</time>
      </trkpt>
      <trkpt lat="43.93739" lon="7.09925">
        <ele>398</ele>
        <time>2019-02-16T14:55:48.000Z</time>
      </trkpt>
      <trkpt lat="43.93738" lon="7.09926">
        <ele>398.20001220703</ele>
        <time>2019-02-16T14:55:49.000Z</time>
      </trkpt>
      <trkpt lat="43.93734" lon="7.09928">
        <ele>399.20001220703</ele>
        <time>2019-02-16T14:55:54.000Z</time>
      </trkpt>
      <trkpt lat="43.93731" lon="7.09929">
        <ele>400.20001220703</ele>
        <time>2019-02-16T14:55:59.000Z</time>
      </trkpt>
      <trkpt lat="43.9373" lon="7.0993">
        <ele>400.60000610352</ele>
        <time>2019-02-16T14:56:01.000Z</time>
      </trkpt>
      <trkpt lat="43.93727" lon="7.0993">
        <ele>401.39999389648</ele>
        <time>2019-02-16T14:56:05.000Z</time>
      </trkpt>
      <trkpt lat="43.93725" lon="7.09931">
        <ele>402</ele>
        <time>2019-02-16T14:56:08.000Z</time>
      </trkpt>
      <trkpt lat="43.93724" lon="7.09931">
        <ele>402.39999389648</ele>
        <time>2019-02-16T14:56:10.000Z</time>
      </trkpt>
      <trkpt lat="43.93719" lon="7.09931">
        <ele>403.60000610352</ele>
        <time>2019-02-16T14:56:16.000Z</time>
      </trkpt>
      <trkpt lat="43.93719" lon="7.09931">
        <ele>403.79998779297</ele>
        <time>2019-02-16T14:56:17.000Z</time>
      </trkpt>
      <trkpt lat="43.93716" lon="7.09929">
        <ele>404.39999389648</ele>
        <time>2019-02-16T14:56:20.000Z</time>
      </trkpt>
      <trkpt lat="43.93715" lon="7.09928">
        <ele>404.79998779297</ele>
        <time>2019-02-16T14:56:22.000Z</time>
      </trkpt>
      <trkpt lat="43.93714" lon="7.09927">
        <ele>405</ele>
        <time>2019-02-16T14:56:23.000Z</time>
      </trkpt>
      <trkpt lat="43.93711" lon="7.09922">
        <ele>405.79998779297</ele>
        <time>2019-02-16T14:56:29.000Z</time>
      </trkpt>
      <trkpt lat="43.93709" lon="7.09917">
        <ele>407</ele>
        <time>2019-02-16T14:56:36.000Z</time>
      </trkpt>
      <trkpt lat="43.93706" lon="7.09912">
        <ele>408.20001220703</ele>
        <time>2019-02-16T14:56:42.000Z</time>
      </trkpt>
      <trkpt lat="43.93705" lon="7.09911">
        <ele>408.39999389648</ele>
        <time>2019-02-16T14:56:43.000Z</time>
      </trkpt>
      <trkpt lat="43.93704" lon="7.0991">
        <ele>408.79998779297</ele>
        <time>2019-02-16T14:56:45.000Z</time>
      </trkpt>
      <trkpt lat="43.93704" lon="7.09908">
        <ele>409.39999389648</ele>
        <time>2019-02-16T14:56:47.000Z</time>
      </trkpt>
      <trkpt lat="43.93703" lon="7.09906">
        <ele>409.79998779297</ele>
        <time>2019-02-16T14:56:49.000Z</time>
      </trkpt>
      <trkpt lat="43.93701" lon="7.09902">
        <ele>410.39999389648</ele>
        <time>2019-02-16T14:56:54.000Z</time>
      </trkpt>
      <trkpt lat="43.93699" lon="7.09899">
        <ele>411</ele>
        <time>2019-02-16T14:56:57.000Z</time>
      </trkpt>
      <trkpt lat="43.93699" lon="7.09898">
        <ele>411.39999389648</ele>
        <time>2019-02-16T14:56:58.000Z</time>
      </trkpt>
      <trkpt lat="43.93699" lon="7.09899">
        <ele>411.79998779297</ele>
        <time>2019-02-16T14:56:59.000Z</time>
      </trkpt>
      <trkpt lat="43.93697" lon="7.09895">
        <ele>412.20001220703</ele>
        <time>2019-02-16T14:57:02.000Z</time>
      </trkpt>
      <trkpt lat="43.93694" lon="7.09893">
        <ele>413</ele>
        <time>2019-02-16T14:57:07.000Z</time>
      </trkpt>
      <trkpt lat="43.93693" lon="7.09893">
        <ele>413.20001220703</ele>
        <time>2019-02-16T14:57:09.000Z</time>
      </trkpt>
      <trkpt lat="43.93689" lon="7.09892">
        <ele>414</ele>
        <time>2019-02-16T14:57:14.000Z</time>
      </trkpt>
      <trkpt lat="43.93687" lon="7.09891">
        <ele>414.60000610352</ele>
        <time>2019-02-16T14:57:17.000Z</time>
      </trkpt>
      <trkpt lat="43.93684" lon="7.09889">
        <ele>415.20001220703</ele>
        <time>2019-02-16T14:57:21.000Z</time>
      </trkpt>
      <trkpt lat="43.9368" lon="7.09887">
        <ele>415.60000610352</ele>
        <time>2019-02-16T14:57:25.000Z</time>
      </trkpt>
      <trkpt lat="43.93676" lon="7.09886">
        <ele>416.20001220703</ele>
        <time>2019-02-16T14:57:30.000Z</time>
      </trkpt>
      <trkpt lat="43.93675" lon="7.09887">
        <ele>416.20001220703</ele>
        <time>2019-02-16T14:57:32.000Z</time>
      </trkpt>
      <trkpt lat="43.93671" lon="7.09889">
        <ele>417.20001220703</ele>
        <time>2019-02-16T14:57:38.000Z</time>
      </trkpt>
      <trkpt lat="43.93671" lon="7.09889">
        <ele>417.39999389648</ele>
        <time>2019-02-16T14:57:39.000Z</time>
      </trkpt>
      <trkpt lat="43.93668" lon="7.09892">
        <ele>418.20001220703</ele>
        <time>2019-02-16T14:57:44.000Z</time>
      </trkpt>
      <trkpt lat="43.93667" lon="7.09894">
        <ele>418.79998779297</ele>
        <time>2019-02-16T14:57:47.000Z</time>
      </trkpt>
      <trkpt lat="43.93664" lon="7.09896">
        <ele>419.39999389648</ele>
        <time>2019-02-16T14:57:51.000Z</time>
      </trkpt>
      <trkpt lat="43.93665" lon="7.09896">
        <ele>419.60000610352</ele>
        <time>2019-02-16T14:57:52.000Z</time>
      </trkpt>
      <trkpt lat="43.93662" lon="7.09897">
        <ele>420</ele>
        <time>2019-02-16T14:57:54.000Z</time>
      </trkpt>
      <trkpt lat="43.93659" lon="7.09897">
        <ele>420.60000610352</ele>
        <time>2019-02-16T14:57:58.000Z</time>
      </trkpt>
      <trkpt lat="43.93656" lon="7.09897">
        <ele>421.79998779297</ele>
        <time>2019-02-16T14:58:04.000Z</time>
      </trkpt>
      <trkpt lat="43.93654" lon="7.09893">
        <ele>422.39999389648</ele>
        <time>2019-02-16T14:58:10.000Z</time>
      </trkpt>
      <trkpt lat="43.93655" lon="7.09892">
        <ele>423</ele>
        <time>2019-02-16T14:58:13.000Z</time>
      </trkpt>
      <trkpt lat="43.93655" lon="7.09891">
        <ele>423.60000610352</ele>
        <time>2019-02-16T14:58:16.000Z</time>
      </trkpt>
      <trkpt lat="43.93656" lon="7.09889">
        <ele>424</ele>
        <time>2019-02-16T14:58:18.000Z</time>
      </trkpt>
      <trkpt lat="43.93658" lon="7.09886">
        <ele>424.79998779297</ele>
        <time>2019-02-16T14:58:23.000Z</time>
      </trkpt>
      <trkpt lat="43.93658" lon="7.09885">
        <ele>425</ele>
        <time>2019-02-16T14:58:24.000Z</time>
      </trkpt>
      <trkpt lat="43.93659" lon="7.09882">
        <ele>426</ele>
        <time>2019-02-16T14:58:29.000Z</time>
      </trkpt>
      <trkpt lat="43.9366" lon="7.09877">
        <ele>427.20001220703</ele>
        <time>2019-02-16T14:58:35.000Z</time>
      </trkpt>
      <trkpt lat="43.93661" lon="7.09873">
        <ele>428</ele>
        <time>2019-02-16T14:58:40.000Z</time>
      </trkpt>
      <trkpt lat="43.93661" lon="7.09874">
        <ele>428</ele>
        <time>2019-02-16T14:58:41.000Z</time>
      </trkpt>
      <trkpt lat="43.93661" lon="7.09872">
        <ele>428.20001220703</ele>
        <time>2019-02-16T14:58:42.000Z</time>
      </trkpt>
      <trkpt lat="43.93661" lon="7.09871">
        <ele>428.60000610352</ele>
        <time>2019-02-16T14:58:45.000Z</time>
      </trkpt>
      <trkpt lat="43.93664" lon="7.09867">
        <ele>429.39999389648</ele>
        <time>2019-02-16T14:58:49.000Z</time>
      </trkpt>
      <trkpt lat="43.93665" lon="7.09865">
        <ele>429.79998779297</ele>
        <time>2019-02-16T14:58:51.000Z</time>
      </trkpt>
      <trkpt lat="43.93666" lon="7.09864">
        <ele>430.20001220703</ele>
        <time>2019-02-16T14:58:52.000Z</time>
      </trkpt>
      <trkpt lat="43.93667" lon="7.09864">
        <ele>430.39999389648</ele>
        <time>2019-02-16T14:58:53.000Z</time>
      </trkpt>
      <trkpt lat="43.93669" lon="7.09861">
        <ele>431.39999389648</ele>
        <time>2019-02-16T14:58:58.000Z</time>
      </trkpt>
      <trkpt lat="43.93672" lon="7.09856">
        <ele>432.39999389648</ele>
        <time>2019-02-16T14:59:03.000Z</time>
      </trkpt>
      <trkpt lat="43.93673" lon="7.09855">
        <ele>432.60000610352</ele>
        <time>2019-02-16T14:59:05.000Z</time>
      </trkpt>
      <trkpt lat="43.93675" lon="7.09852">
        <ele>433.39999389648</ele>
        <time>2019-02-16T14:59:09.000Z</time>
      </trkpt>
      <trkpt lat="43.93675" lon="7.09851">
        <ele>433.60000610352</ele>
        <time>2019-02-16T14:59:10.000Z</time>
      </trkpt>
      <trkpt lat="43.93679" lon="7.09848">
        <ele>434.20001220703</ele>
        <time>2019-02-16T14:59:15.000Z</time>
      </trkpt>
      <trkpt lat="43.93681" lon="7.09844">
        <ele>434.79998779297</ele>
        <time>2019-02-16T14:59:20.000Z</time>
      </trkpt>
      <trkpt lat="43.93682" lon="7.09844">
        <ele>435</ele>
        <time>2019-02-16T14:59:21.000Z</time>
      </trkpt>
      <trkpt lat="43.93683" lon="7.09842">
        <ele>436</ele>
        <time>2019-02-16T14:59:25.000Z</time>
      </trkpt>
      <trkpt lat="43.93683" lon="7.09841">
        <ele>436.20001220703</ele>
        <time>2019-02-16T14:59:26.000Z</time>
      </trkpt>
      <trkpt lat="43.93685" lon="7.09839">
        <ele>437.20001220703</ele>
        <time>2019-02-16T14:59:31.000Z</time>
      </trkpt>
      <trkpt lat="43.93686" lon="7.09837">
        <ele>437.60000610352</ele>
        <time>2019-02-16T14:59:33.000Z</time>
      </trkpt>
      <trkpt lat="43.93689" lon="7.09834">
        <ele>438.20001220703</ele>
        <time>2019-02-16T14:59:36.000Z</time>
      </trkpt>
      <trkpt lat="43.93691" lon="7.09832">
        <ele>439</ele>
        <time>2019-02-16T14:59:39.000Z</time>
      </trkpt>
      <trkpt lat="43.93692" lon="7.09831">
        <ele>439.39999389648</ele>
        <time>2019-02-16T14:59:41.000Z</time>
      </trkpt>
      <trkpt lat="43.93694" lon="7.09827">
        <ele>440.60000610352</ele>
        <time>2019-02-16T14:59:46.000Z</time>
      </trkpt>
      <trkpt lat="43.93691" lon="7.09823">
        <ele>441.60000610352</ele>
        <time>2019-02-16T14:59:51.000Z</time>
      </trkpt>
      <trkpt lat="43.93692" lon="7.09824">
        <ele>441.60000610352</ele>
        <time>2019-02-16T14:59:52.000Z</time>
      </trkpt>
      <trkpt lat="43.93689" lon="7.09821">
        <ele>442.39999389648</ele>
        <time>2019-02-16T14:59:56.000Z</time>
      </trkpt>
      <trkpt lat="43.93689" lon="7.09818">
        <ele>442.79998779297</ele>
        <time>2019-02-16T14:59:58.000Z</time>
      </trkpt>
      <trkpt lat="43.93684" lon="7.09814">
        <ele>443.79998779297</ele>
        <time>2019-02-16T15:00:03.000Z</time>
      </trkpt>
      <trkpt lat="43.93684" lon="7.09813">
        <ele>444</ele>
        <time>2019-02-16T15:00:04.000Z</time>
      </trkpt>
      <trkpt lat="43.93685" lon="7.09813">
        <ele>445</ele>
        <time>2019-02-16T15:00:08.000Z</time>
      </trkpt>
      <trkpt lat="43.93685" lon="7.09814">
        <ele>445.79998779297</ele>
        <time>2019-02-16T15:00:10.000Z</time>
      </trkpt>
      <trkpt lat="43.93686" lon="7.09816">
        <ele>446</ele>
        <time>2019-02-16T15:00:12.000Z</time>
      </trkpt>
      <trkpt lat="43.93688" lon="7.09816">
        <ele>446.20001220703</ele>
        <time>2019-02-16T15:00:13.000Z</time>
      </trkpt>
      <trkpt lat="43.93689" lon="7.09816">
        <ele>446.39999389648</ele>
        <time>2019-02-16T15:00:14.000Z</time>
      </trkpt>
      <trkpt lat="43.93693" lon="7.09817">
        <ele>447.20001220703</ele>
        <time>2019-02-16T15:00:21.000Z</time>
      </trkpt>
      <trkpt lat="43.93692" lon="7.09816">
        <ele>447.20001220703</ele>
        <time>2019-02-16T15:00:22.000Z</time>
      </trkpt>
      <trkpt lat="43.93691" lon="7.09815">
        <ele>447.20001220703</ele>
        <time>2019-02-16T15:00:24.000Z</time>
      </trkpt>
      <trkpt lat="43.93688" lon="7.09813">
        <ele>447.20001220703</ele>
        <time>2019-02-16T15:00:26.000Z</time>
      </trkpt>
      <trkpt lat="43.93681" lon="7.09804">
        <ele>447.79998779297</ele>
        <time>2019-02-16T15:00:32.000Z</time>
      </trkpt>
      <trkpt lat="43.9368" lon="7.098">
        <ele>448</ele>
        <time>2019-02-16T15:00:34.000Z</time>
      </trkpt>
      <trkpt lat="43.93678" lon="7.09794">
        <ele>448.20001220703</ele>
        <time>2019-02-16T15:00:37.000Z</time>
      </trkpt>
      <trkpt lat="43.93678" lon="7.09792">
        <ele>448.20001220703</ele>
        <time>2019-02-16T15:00:38.000Z</time>
      </trkpt>
      <trkpt lat="43.93677" lon="7.09788">
        <ele>448.60000610352</ele>
        <time>2019-02-16T15:00:40.000Z</time>
      </trkpt>
      <trkpt lat="43.93672" lon="7.09774">
        <ele>449.20001220703</ele>
        <time>2019-02-16T15:00:46.000Z</time>
      </trkpt>
      <trkpt lat="43.9367" lon="7.09765">
        <ele>450.39999389648</ele>
        <time>2019-02-16T15:00:50.000Z</time>
      </trkpt>
      <trkpt lat="43.93665" lon="7.09759">
        <ele>450.60000610352</ele>
        <time>2019-02-16T15:00:53.000Z</time>
      </trkpt>
      <trkpt lat="43.93658" lon="7.09747">
        <ele>450.20001220703</ele>
        <time>2019-02-16T15:00:58.000Z</time>
      </trkpt>
      <trkpt lat="43.93655" lon="7.09736">
        <ele>450</ele>
        <time>2019-02-16T15:01:03.000Z</time>
      </trkpt>
      <trkpt lat="43.93656" lon="7.09734">
        <ele>450</ele>
        <time>2019-02-16T15:01:04.000Z</time>
      </trkpt>
      <trkpt lat="43.93656" lon="7.0973">
        <ele>449.79998779297</ele>
        <time>2019-02-16T15:01:08.000Z</time>
      </trkpt>
      <trkpt lat="43.93656" lon="7.09729">
        <ele>449.79998779297</ele>
        <time>2019-02-16T15:01:14.000Z</time>
      </trkpt>
      <trkpt lat="43.93653" lon="7.09727">
        <ele>449.60000610352</ele>
        <time>2019-02-16T15:01:20.000Z</time>
      </trkpt>
      <trkpt lat="43.93651" lon="7.09722">
        <ele>449.79998779297</ele>
        <time>2019-02-16T15:01:26.000Z</time>
      </trkpt>
      <trkpt lat="43.9365" lon="7.09725">
        <ele>450</ele>
        <time>2019-02-16T15:01:32.000Z</time>
      </trkpt>
      <trkpt lat="43.93651" lon="7.09729">
        <ele>450</ele>
        <time>2019-02-16T15:01:39.000Z</time>
      </trkpt>
      <trkpt lat="43.93653" lon="7.09731">
        <ele>449.79998779297</ele>
        <time>2019-02-16T15:01:46.000Z</time>
      </trkpt>
      <trkpt lat="43.93653" lon="7.09732">
        <ele>450.20001220703</ele>
        <time>2019-02-16T15:01:51.000Z</time>
      </trkpt>
      <trkpt lat="43.93651" lon="7.09733">
        <ele>450</ele>
        <time>2019-02-16T15:01:58.000Z</time>
      </trkpt>
      <trkpt lat="43.9365" lon="7.09733">
        <ele>449.79998779297</ele>
        <time>2019-02-16T15:02:07.000Z</time>
      </trkpt>
      <trkpt lat="43.9365" lon="7.09734">
        <ele>449.60000610352</ele>
        <time>2019-02-16T15:02:15.000Z</time>
      </trkpt>
      <trkpt lat="43.9365" lon="7.09734">
        <ele>451.60000610352</ele>
        <time>2019-02-16T15:02:18.000Z</time>
      </trkpt>
      <trkpt lat="43.9365" lon="7.09734">
        <ele>451.60000610352</ele>
        <time>2019-02-16T15:02:19.000Z</time>
      </trkpt>
    </trkseg>
  </trk>
</gpx>